<?xml version="1.0" encoding="UTF-8" standalone="no" ?>
<gpx xmlns="http://www.topografix.com/GPX/1/1" xmlns:xsi="http://www.w3.org/2001/XMLSchema-instance" xsi:schemaLocation="http://www.topografix.com/GPX/1/1 http://www.topografix.com/GPX/1/1/gpx.xsd" version="1.1" creator="VisuGPX - https://www.visugpx.com">
  <metadata>
    <name>27/05 La Bresse Haut du Tot</name>
    <desc><![CDATA[

]]></desc>
  </metadata>
  <trk>
    <name><![CDATA[27/05 La Bresse Haut du Tot]]></name>
    <extensions>
      <line xmlns="http://www.topografix.com/GPX/gpx_style/0/2">
        <color>0000ff</color>
        <width>4</width>
      </line>
    </extensions>
    <trkseg>
      <trkpt lat="48.03604" lon="6.92492">
        <ele>847.417542</ele>
        <time>2022-05-27T06:52:34Z</time>
      </trkpt>
      <trkpt lat="48.03605" lon="6.92492">
        <ele>847.455444</ele>
        <time>2022-05-27T06:52:46Z</time>
      </trkpt>
      <trkpt lat="48.03605" lon="6.92492">
        <ele>847.151062</ele>
        <time>2022-05-27T06:52:50Z</time>
      </trkpt>
      <trkpt lat="48.03613" lon="6.92484">
        <ele>847.858398</ele>
        <time>2022-05-27T06:52:57Z</time>
      </trkpt>
      <trkpt lat="48.03611" lon="6.92469">
        <ele>848.919434</ele>
        <time>2022-05-27T06:53:02Z</time>
      </trkpt>
      <trkpt lat="48.03612" lon="6.92455">
        <ele>849.317993</ele>
        <time>2022-05-27T06:53:07Z</time>
      </trkpt>
      <trkpt lat="48.03612" lon="6.92468">
        <ele>849.399475</ele>
        <time>2022-05-27T06:53:14Z</time>
      </trkpt>
      <trkpt lat="48.03603" lon="6.92476">
        <ele>849.164917</ele>
        <time>2022-05-27T06:53:19Z</time>
      </trkpt>
      <trkpt lat="48.03613" lon="6.92478">
        <ele>848.937134</ele>
        <time>2022-05-27T06:53:26Z</time>
      </trkpt>
      <trkpt lat="48.03609" lon="6.92464">
        <ele>849.283142</ele>
        <time>2022-05-27T06:53:32Z</time>
      </trkpt>
      <trkpt lat="48.03602" lon="6.92478">
        <ele>848.5</ele>
        <time>2022-05-27T06:53:37Z</time>
      </trkpt>
      <trkpt lat="48.03598" lon="6.9249">
        <ele>848.7</ele>
        <time>2022-05-27T06:53:42Z</time>
      </trkpt>
      <trkpt lat="48.03598" lon="6.9249">
        <ele>848.2</ele>
        <time>2022-05-27T06:54:06Z</time>
      </trkpt>
      <trkpt lat="48.03601" lon="6.92504">
        <ele>847.1</ele>
        <time>2022-05-27T06:54:36Z</time>
      </trkpt>
      <trkpt lat="48.03609" lon="6.92516">
        <ele>845.8</ele>
        <time>2022-05-27T06:54:41Z</time>
      </trkpt>
      <trkpt lat="48.03617" lon="6.92526">
        <ele>845.3</ele>
        <time>2022-05-27T06:54:44Z</time>
      </trkpt>
      <trkpt lat="48.03625" lon="6.9254">
        <ele>845.2</ele>
        <time>2022-05-27T06:54:47Z</time>
      </trkpt>
      <trkpt lat="48.03632" lon="6.92554">
        <ele>845.1</ele>
        <time>2022-05-27T06:54:50Z</time>
      </trkpt>
      <trkpt lat="48.03638" lon="6.92565">
        <ele>844.9</ele>
        <time>2022-05-27T06:54:53Z</time>
      </trkpt>
      <trkpt lat="48.03645" lon="6.92579">
        <ele>845.1</ele>
        <time>2022-05-27T06:54:57Z</time>
      </trkpt>
      <trkpt lat="48.03643" lon="6.92593">
        <ele>845</ele>
        <time>2022-05-27T06:55:01Z</time>
      </trkpt>
      <trkpt lat="48.03631" lon="6.92585">
        <ele>844.5</ele>
        <time>2022-05-27T06:55:04Z</time>
      </trkpt>
      <trkpt lat="48.03623" lon="6.92574">
        <ele>843.5</ele>
        <time>2022-05-27T06:55:06Z</time>
      </trkpt>
      <trkpt lat="48.03614" lon="6.92561">
        <ele>843.1</ele>
        <time>2022-05-27T06:55:08Z</time>
      </trkpt>
      <trkpt lat="48.03603" lon="6.92549">
        <ele>842.3</ele>
        <time>2022-05-27T06:55:10Z</time>
      </trkpt>
      <trkpt lat="48.03593" lon="6.92535">
        <ele>841.1</ele>
        <time>2022-05-27T06:55:12Z</time>
      </trkpt>
      <trkpt lat="48.03583" lon="6.92521">
        <ele>840.3</ele>
        <time>2022-05-27T06:55:14Z</time>
      </trkpt>
      <trkpt lat="48.03575" lon="6.92503">
        <ele>840</ele>
        <time>2022-05-27T06:55:16Z</time>
      </trkpt>
      <trkpt lat="48.03572" lon="6.92482">
        <ele>840.5</ele>
        <time>2022-05-27T06:55:18Z</time>
      </trkpt>
      <trkpt lat="48.03576" lon="6.92465">
        <ele>841.1</ele>
        <time>2022-05-27T06:55:20Z</time>
      </trkpt>
      <trkpt lat="48.03581" lon="6.92451">
        <ele>841</ele>
        <time>2022-05-27T06:55:22Z</time>
      </trkpt>
      <trkpt lat="48.03584" lon="6.92438">
        <ele>841.1</ele>
        <time>2022-05-27T06:55:24Z</time>
      </trkpt>
      <trkpt lat="48.03588" lon="6.9242">
        <ele>841.6</ele>
        <time>2022-05-27T06:55:27Z</time>
      </trkpt>
      <trkpt lat="48.03591" lon="6.92403">
        <ele>841.9</ele>
        <time>2022-05-27T06:55:30Z</time>
      </trkpt>
      <trkpt lat="48.03594" lon="6.92386">
        <ele>842.6</ele>
        <time>2022-05-27T06:55:33Z</time>
      </trkpt>
      <trkpt lat="48.03595" lon="6.9237">
        <ele>842.5</ele>
        <time>2022-05-27T06:55:36Z</time>
      </trkpt>
      <trkpt lat="48.03593" lon="6.92355">
        <ele>842.2</ele>
        <time>2022-05-27T06:55:39Z</time>
      </trkpt>
      <trkpt lat="48.0359" lon="6.9234">
        <ele>843.1</ele>
        <time>2022-05-27T06:55:42Z</time>
      </trkpt>
      <trkpt lat="48.03588" lon="6.92326">
        <ele>843.3</ele>
        <time>2022-05-27T06:55:45Z</time>
      </trkpt>
      <trkpt lat="48.03585" lon="6.92313">
        <ele>844</ele>
        <time>2022-05-27T06:55:48Z</time>
      </trkpt>
      <trkpt lat="48.03581" lon="6.92301">
        <ele>844.3</ele>
        <time>2022-05-27T06:55:51Z</time>
      </trkpt>
      <trkpt lat="48.03577" lon="6.92284">
        <ele>844.9</ele>
        <time>2022-05-27T06:55:55Z</time>
      </trkpt>
      <trkpt lat="48.03572" lon="6.92268">
        <ele>845.1</ele>
        <time>2022-05-27T06:55:59Z</time>
      </trkpt>
      <trkpt lat="48.03566" lon="6.92255">
        <ele>845.7</ele>
        <time>2022-05-27T06:56:04Z</time>
      </trkpt>
      <trkpt lat="48.03558" lon="6.92247">
        <ele>846.1</ele>
        <time>2022-05-27T06:56:08Z</time>
      </trkpt>
      <trkpt lat="48.03549" lon="6.92239">
        <ele>846.3</ele>
        <time>2022-05-27T06:56:12Z</time>
      </trkpt>
      <trkpt lat="48.0354" lon="6.9223">
        <ele>846.8</ele>
        <time>2022-05-27T06:56:16Z</time>
      </trkpt>
      <trkpt lat="48.03532" lon="6.92221">
        <ele>847.1</ele>
        <time>2022-05-27T06:56:20Z</time>
      </trkpt>
      <trkpt lat="48.03525" lon="6.9221">
        <ele>847.9</ele>
        <time>2022-05-27T06:56:24Z</time>
      </trkpt>
      <trkpt lat="48.03519" lon="6.92199">
        <ele>848.8</ele>
        <time>2022-05-27T06:56:28Z</time>
      </trkpt>
      <trkpt lat="48.03513" lon="6.92188">
        <ele>849.4</ele>
        <time>2022-05-27T06:56:32Z</time>
      </trkpt>
      <trkpt lat="48.03507" lon="6.92177">
        <ele>849.8</ele>
        <time>2022-05-27T06:56:36Z</time>
      </trkpt>
      <trkpt lat="48.03502" lon="6.92166">
        <ele>850.5</ele>
        <time>2022-05-27T06:56:40Z</time>
      </trkpt>
      <trkpt lat="48.03497" lon="6.92154">
        <ele>851.2</ele>
        <time>2022-05-27T06:56:44Z</time>
      </trkpt>
      <trkpt lat="48.03491" lon="6.9214">
        <ele>852.2</ele>
        <time>2022-05-27T06:56:49Z</time>
      </trkpt>
      <trkpt lat="48.03485" lon="6.92128">
        <ele>853.4</ele>
        <time>2022-05-27T06:56:54Z</time>
      </trkpt>
      <trkpt lat="48.03479" lon="6.92114">
        <ele>854.6</ele>
        <time>2022-05-27T06:56:59Z</time>
      </trkpt>
      <trkpt lat="48.03473" lon="6.921">
        <ele>855.3</ele>
        <time>2022-05-27T06:57:04Z</time>
      </trkpt>
      <trkpt lat="48.03467" lon="6.92087">
        <ele>856</ele>
        <time>2022-05-27T06:57:09Z</time>
      </trkpt>
      <trkpt lat="48.03461" lon="6.92075">
        <ele>857</ele>
        <time>2022-05-27T06:57:14Z</time>
      </trkpt>
      <trkpt lat="48.03454" lon="6.92063">
        <ele>858</ele>
        <time>2022-05-27T06:57:19Z</time>
      </trkpt>
      <trkpt lat="48.03447" lon="6.92052">
        <ele>858.6</ele>
        <time>2022-05-27T06:57:24Z</time>
      </trkpt>
      <trkpt lat="48.03441" lon="6.92042">
        <ele>859.6</ele>
        <time>2022-05-27T06:57:38Z</time>
      </trkpt>
      <trkpt lat="48.03434" lon="6.92031">
        <ele>860.7</ele>
        <time>2022-05-27T06:57:43Z</time>
      </trkpt>
      <trkpt lat="48.03429" lon="6.9202">
        <ele>861.8</ele>
        <time>2022-05-27T06:57:48Z</time>
      </trkpt>
      <trkpt lat="48.03423" lon="6.92009">
        <ele>862.7</ele>
        <time>2022-05-27T06:57:53Z</time>
      </trkpt>
      <trkpt lat="48.03417" lon="6.91997">
        <ele>863.9</ele>
        <time>2022-05-27T06:57:58Z</time>
      </trkpt>
      <trkpt lat="48.03414" lon="6.91983">
        <ele>865.4</ele>
        <time>2022-05-27T06:58:04Z</time>
      </trkpt>
      <trkpt lat="48.03411" lon="6.91968">
        <ele>867.5</ele>
        <time>2022-05-27T06:58:10Z</time>
      </trkpt>
      <trkpt lat="48.03409" lon="6.91955">
        <ele>869.1</ele>
        <time>2022-05-27T06:58:15Z</time>
      </trkpt>
      <trkpt lat="48.03404" lon="6.91941">
        <ele>869.8</ele>
        <time>2022-05-27T06:58:21Z</time>
      </trkpt>
      <trkpt lat="48.03399" lon="6.9193">
        <ele>871</ele>
        <time>2022-05-27T06:58:26Z</time>
      </trkpt>
      <trkpt lat="48.03392" lon="6.9192">
        <ele>872.1</ele>
        <time>2022-05-27T06:58:31Z</time>
      </trkpt>
      <trkpt lat="48.03387" lon="6.91909">
        <ele>873</ele>
        <time>2022-05-27T06:58:36Z</time>
      </trkpt>
      <trkpt lat="48.03382" lon="6.91898">
        <ele>874.2</ele>
        <time>2022-05-27T06:58:41Z</time>
      </trkpt>
      <trkpt lat="48.03378" lon="6.91884">
        <ele>874.7</ele>
        <time>2022-05-27T06:58:46Z</time>
      </trkpt>
      <trkpt lat="48.03375" lon="6.91871">
        <ele>875.7</ele>
        <time>2022-05-27T06:58:51Z</time>
      </trkpt>
      <trkpt lat="48.03372" lon="6.91857">
        <ele>876.6</ele>
        <time>2022-05-27T06:58:56Z</time>
      </trkpt>
      <trkpt lat="48.03369" lon="6.91843">
        <ele>877.2</ele>
        <time>2022-05-27T06:59:01Z</time>
      </trkpt>
      <trkpt lat="48.03364" lon="6.91832">
        <ele>878.3</ele>
        <time>2022-05-27T06:59:06Z</time>
      </trkpt>
      <trkpt lat="48.03358" lon="6.91821">
        <ele>879.6</ele>
        <time>2022-05-27T06:59:11Z</time>
      </trkpt>
      <trkpt lat="48.03351" lon="6.91812">
        <ele>880.6</ele>
        <time>2022-05-27T06:59:16Z</time>
      </trkpt>
      <trkpt lat="48.03343" lon="6.91802">
        <ele>881.7</ele>
        <time>2022-05-27T06:59:21Z</time>
      </trkpt>
      <trkpt lat="48.03335" lon="6.91792">
        <ele>882.2</ele>
        <time>2022-05-27T06:59:26Z</time>
      </trkpt>
      <trkpt lat="48.03326" lon="6.91782">
        <ele>883.4</ele>
        <time>2022-05-27T06:59:31Z</time>
      </trkpt>
      <trkpt lat="48.03319" lon="6.91771">
        <ele>884.7</ele>
        <time>2022-05-27T06:59:36Z</time>
      </trkpt>
      <trkpt lat="48.03316" lon="6.91757">
        <ele>885.6</ele>
        <time>2022-05-27T06:59:41Z</time>
      </trkpt>
      <trkpt lat="48.03321" lon="6.91744">
        <ele>886.8</ele>
        <time>2022-05-27T06:59:46Z</time>
      </trkpt>
      <trkpt lat="48.0333" lon="6.91741">
        <ele>888.5</ele>
        <time>2022-05-27T06:59:51Z</time>
      </trkpt>
      <trkpt lat="48.0334" lon="6.91736">
        <ele>890.3</ele>
        <time>2022-05-27T06:59:57Z</time>
      </trkpt>
      <trkpt lat="48.03346" lon="6.91724">
        <ele>892</ele>
        <time>2022-05-27T07:00:03Z</time>
      </trkpt>
      <trkpt lat="48.03344" lon="6.91709">
        <ele>893.1</ele>
        <time>2022-05-27T07:00:09Z</time>
      </trkpt>
      <trkpt lat="48.03339" lon="6.91696">
        <ele>894.4</ele>
        <time>2022-05-27T07:00:15Z</time>
      </trkpt>
      <trkpt lat="48.03332" lon="6.91685">
        <ele>894.9</ele>
        <time>2022-05-27T07:00:20Z</time>
      </trkpt>
      <trkpt lat="48.03324" lon="6.91675">
        <ele>895.3</ele>
        <time>2022-05-27T07:00:25Z</time>
      </trkpt>
      <trkpt lat="48.03315" lon="6.91666">
        <ele>896.1</ele>
        <time>2022-05-27T07:00:30Z</time>
      </trkpt>
      <trkpt lat="48.03306" lon="6.91659">
        <ele>897</ele>
        <time>2022-05-27T07:00:35Z</time>
      </trkpt>
      <trkpt lat="48.03296" lon="6.91654">
        <ele>898.1</ele>
        <time>2022-05-27T07:00:40Z</time>
      </trkpt>
      <trkpt lat="48.03286" lon="6.91649">
        <ele>899.2</ele>
        <time>2022-05-27T07:00:45Z</time>
      </trkpt>
      <trkpt lat="48.03275" lon="6.91644">
        <ele>900.5</ele>
        <time>2022-05-27T07:00:50Z</time>
      </trkpt>
      <trkpt lat="48.03266" lon="6.91635">
        <ele>900.6</ele>
        <time>2022-05-27T07:00:55Z</time>
      </trkpt>
      <trkpt lat="48.03258" lon="6.91625">
        <ele>901.3</ele>
        <time>2022-05-27T07:00:59Z</time>
      </trkpt>
      <trkpt lat="48.0325" lon="6.91616">
        <ele>901.5</ele>
        <time>2022-05-27T07:01:03Z</time>
      </trkpt>
      <trkpt lat="48.03241" lon="6.91608">
        <ele>902.3</ele>
        <time>2022-05-27T07:01:07Z</time>
      </trkpt>
      <trkpt lat="48.03232" lon="6.91602">
        <ele>902.9</ele>
        <time>2022-05-27T07:01:11Z</time>
      </trkpt>
      <trkpt lat="48.03223" lon="6.91597">
        <ele>903.4</ele>
        <time>2022-05-27T07:01:15Z</time>
      </trkpt>
      <trkpt lat="48.03214" lon="6.91591">
        <ele>904.7</ele>
        <time>2022-05-27T07:01:20Z</time>
      </trkpt>
      <trkpt lat="48.03204" lon="6.91585">
        <ele>905.3</ele>
        <time>2022-05-27T07:01:25Z</time>
      </trkpt>
      <trkpt lat="48.03194" lon="6.9158">
        <ele>905.9</ele>
        <time>2022-05-27T07:01:30Z</time>
      </trkpt>
      <trkpt lat="48.03184" lon="6.91574">
        <ele>907.1</ele>
        <time>2022-05-27T07:01:35Z</time>
      </trkpt>
      <trkpt lat="48.03175" lon="6.91569">
        <ele>907.7</ele>
        <time>2022-05-27T07:01:39Z</time>
      </trkpt>
      <trkpt lat="48.03167" lon="6.91564">
        <ele>908.7</ele>
        <time>2022-05-27T07:01:43Z</time>
      </trkpt>
      <trkpt lat="48.03158" lon="6.91559">
        <ele>909.7</ele>
        <time>2022-05-27T07:01:47Z</time>
      </trkpt>
      <trkpt lat="48.03149" lon="6.91554">
        <ele>910.7</ele>
        <time>2022-05-27T07:01:51Z</time>
      </trkpt>
      <trkpt lat="48.03139" lon="6.91549">
        <ele>910.7</ele>
        <time>2022-05-27T07:01:55Z</time>
      </trkpt>
      <trkpt lat="48.03129" lon="6.91544">
        <ele>911.4</ele>
        <time>2022-05-27T07:01:59Z</time>
      </trkpt>
      <trkpt lat="48.03118" lon="6.91538">
        <ele>911.8</ele>
        <time>2022-05-27T07:02:03Z</time>
      </trkpt>
      <trkpt lat="48.0311" lon="6.91532">
        <ele>912.6</ele>
        <time>2022-05-27T07:02:06Z</time>
      </trkpt>
      <trkpt lat="48.03101" lon="6.91526">
        <ele>912.8</ele>
        <time>2022-05-27T07:02:09Z</time>
      </trkpt>
      <trkpt lat="48.03092" lon="6.91518">
        <ele>912.7</ele>
        <time>2022-05-27T07:02:12Z</time>
      </trkpt>
      <trkpt lat="48.03083" lon="6.9151">
        <ele>912.7</ele>
        <time>2022-05-27T07:02:15Z</time>
      </trkpt>
      <trkpt lat="48.03074" lon="6.91501">
        <ele>913</ele>
        <time>2022-05-27T07:02:18Z</time>
      </trkpt>
      <trkpt lat="48.03067" lon="6.91493">
        <ele>913.1</ele>
        <time>2022-05-27T07:02:21Z</time>
      </trkpt>
      <trkpt lat="48.0306" lon="6.91484">
        <ele>912.9</ele>
        <time>2022-05-27T07:02:24Z</time>
      </trkpt>
      <trkpt lat="48.03052" lon="6.91475">
        <ele>912.9</ele>
        <time>2022-05-27T07:02:27Z</time>
      </trkpt>
      <trkpt lat="48.03044" lon="6.91465">
        <ele>913</ele>
        <time>2022-05-27T07:02:30Z</time>
      </trkpt>
      <trkpt lat="48.03036" lon="6.91457">
        <ele>912.9</ele>
        <time>2022-05-27T07:02:33Z</time>
      </trkpt>
      <trkpt lat="48.03027" lon="6.9145">
        <ele>912.9</ele>
        <time>2022-05-27T07:02:36Z</time>
      </trkpt>
      <trkpt lat="48.03017" lon="6.9144">
        <ele>913.2</ele>
        <time>2022-05-27T07:02:39Z</time>
      </trkpt>
      <trkpt lat="48.03007" lon="6.91432">
        <ele>912.8</ele>
        <time>2022-05-27T07:02:42Z</time>
      </trkpt>
      <trkpt lat="48.02997" lon="6.91424">
        <ele>912.7</ele>
        <time>2022-05-27T07:02:45Z</time>
      </trkpt>
      <trkpt lat="48.02987" lon="6.91415">
        <ele>912.6</ele>
        <time>2022-05-27T07:02:48Z</time>
      </trkpt>
      <trkpt lat="48.02978" lon="6.91405">
        <ele>913.1</ele>
        <time>2022-05-27T07:02:51Z</time>
      </trkpt>
      <trkpt lat="48.02969" lon="6.91395">
        <ele>913.9</ele>
        <time>2022-05-27T07:02:54Z</time>
      </trkpt>
      <trkpt lat="48.02961" lon="6.91385">
        <ele>914.1</ele>
        <time>2022-05-27T07:02:57Z</time>
      </trkpt>
      <trkpt lat="48.02953" lon="6.91377">
        <ele>914.6</ele>
        <time>2022-05-27T07:03:00Z</time>
      </trkpt>
      <trkpt lat="48.02944" lon="6.91366">
        <ele>915.7</ele>
        <time>2022-05-27T07:03:04Z</time>
      </trkpt>
      <trkpt lat="48.02936" lon="6.91356">
        <ele>917.1</ele>
        <time>2022-05-27T07:03:08Z</time>
      </trkpt>
      <trkpt lat="48.02929" lon="6.91347">
        <ele>917.7</ele>
        <time>2022-05-27T07:03:11Z</time>
      </trkpt>
      <trkpt lat="48.02922" lon="6.91338">
        <ele>918.3</ele>
        <time>2022-05-27T07:03:14Z</time>
      </trkpt>
      <trkpt lat="48.02913" lon="6.91326">
        <ele>918.6</ele>
        <time>2022-05-27T07:03:18Z</time>
      </trkpt>
      <trkpt lat="48.02905" lon="6.91313">
        <ele>919.6</ele>
        <time>2022-05-27T07:03:22Z</time>
      </trkpt>
      <trkpt lat="48.02898" lon="6.91302">
        <ele>919.8</ele>
        <time>2022-05-27T07:03:25Z</time>
      </trkpt>
      <trkpt lat="48.02892" lon="6.91289">
        <ele>919.6</ele>
        <time>2022-05-27T07:03:28Z</time>
      </trkpt>
      <trkpt lat="48.02886" lon="6.91273">
        <ele>919.6</ele>
        <time>2022-05-27T07:03:31Z</time>
      </trkpt>
      <trkpt lat="48.02881" lon="6.91257">
        <ele>919.9</ele>
        <time>2022-05-27T07:03:34Z</time>
      </trkpt>
      <trkpt lat="48.02876" lon="6.91241">
        <ele>919.8</ele>
        <time>2022-05-27T07:03:37Z</time>
      </trkpt>
      <trkpt lat="48.02871" lon="6.91226">
        <ele>919.3</ele>
        <time>2022-05-27T07:03:40Z</time>
      </trkpt>
      <trkpt lat="48.02866" lon="6.91211">
        <ele>919.2</ele>
        <time>2022-05-27T07:03:43Z</time>
      </trkpt>
      <trkpt lat="48.02861" lon="6.91195">
        <ele>919.1</ele>
        <time>2022-05-27T07:03:46Z</time>
      </trkpt>
      <trkpt lat="48.02856" lon="6.91177">
        <ele>918.4</ele>
        <time>2022-05-27T07:03:49Z</time>
      </trkpt>
      <trkpt lat="48.02852" lon="6.91165">
        <ele>918.1</ele>
        <time>2022-05-27T07:03:51Z</time>
      </trkpt>
      <trkpt lat="48.02848" lon="6.91152">
        <ele>918</ele>
        <time>2022-05-27T07:03:53Z</time>
      </trkpt>
      <trkpt lat="48.02843" lon="6.91138">
        <ele>917.5</ele>
        <time>2022-05-27T07:03:55Z</time>
      </trkpt>
      <trkpt lat="48.02838" lon="6.91124">
        <ele>916.4</ele>
        <time>2022-05-27T07:03:57Z</time>
      </trkpt>
      <trkpt lat="48.02834" lon="6.91109">
        <ele>916.5</ele>
        <time>2022-05-27T07:03:59Z</time>
      </trkpt>
      <trkpt lat="48.02829" lon="6.91093">
        <ele>916.6</ele>
        <time>2022-05-27T07:04:01Z</time>
      </trkpt>
      <trkpt lat="48.02826" lon="6.91078">
        <ele>916.4</ele>
        <time>2022-05-27T07:04:03Z</time>
      </trkpt>
      <trkpt lat="48.02822" lon="6.91064">
        <ele>916.3</ele>
        <time>2022-05-27T07:04:05Z</time>
      </trkpt>
      <trkpt lat="48.02818" lon="6.9105">
        <ele>915.6</ele>
        <time>2022-05-27T07:04:07Z</time>
      </trkpt>
      <trkpt lat="48.02814" lon="6.91037">
        <ele>915.9</ele>
        <time>2022-05-27T07:04:09Z</time>
      </trkpt>
      <trkpt lat="48.0281" lon="6.91022">
        <ele>915.7</ele>
        <time>2022-05-27T07:04:12Z</time>
      </trkpt>
      <trkpt lat="48.02806" lon="6.91008">
        <ele>914.7</ele>
        <time>2022-05-27T07:04:24Z</time>
      </trkpt>
      <trkpt lat="48.02806" lon="6.91021">
        <ele>915.2</ele>
        <time>2022-05-27T07:04:32Z</time>
      </trkpt>
      <trkpt lat="48.02809" lon="6.91027">
        <ele>915.4</ele>
        <time>2022-05-27T07:04:38Z</time>
      </trkpt>
      <trkpt lat="48.02811" lon="6.91032">
        <ele>915.7</ele>
        <time>2022-05-27T07:05:05Z</time>
      </trkpt>
      <trkpt lat="48.02812" lon="6.91032">
        <ele>915.9</ele>
        <time>2022-05-27T07:06:06Z</time>
      </trkpt>
      <trkpt lat="48.0281" lon="6.91017">
        <ele>915.1</ele>
        <time>2022-05-27T07:06:14Z</time>
      </trkpt>
      <trkpt lat="48.02805" lon="6.91004">
        <ele>914.5</ele>
        <time>2022-05-27T07:06:19Z</time>
      </trkpt>
      <trkpt lat="48.02799" lon="6.90987">
        <ele>912.4</ele>
        <time>2022-05-27T07:06:22Z</time>
      </trkpt>
      <trkpt lat="48.02793" lon="6.90971">
        <ele>911.2</ele>
        <time>2022-05-27T07:06:24Z</time>
      </trkpt>
      <trkpt lat="48.02785" lon="6.90953">
        <ele>909.4</ele>
        <time>2022-05-27T07:06:26Z</time>
      </trkpt>
      <trkpt lat="48.02776" lon="6.90931">
        <ele>907.5</ele>
        <time>2022-05-27T07:06:28Z</time>
      </trkpt>
      <trkpt lat="48.02772" lon="6.90919">
        <ele>906.4</ele>
        <time>2022-05-27T07:06:29Z</time>
      </trkpt>
      <trkpt lat="48.02768" lon="6.90906">
        <ele>905</ele>
        <time>2022-05-27T07:06:30Z</time>
      </trkpt>
      <trkpt lat="48.02765" lon="6.90891">
        <ele>903.6</ele>
        <time>2022-05-27T07:06:31Z</time>
      </trkpt>
      <trkpt lat="48.02763" lon="6.90875">
        <ele>902.3</ele>
        <time>2022-05-27T07:06:32Z</time>
      </trkpt>
      <trkpt lat="48.0276" lon="6.90859">
        <ele>901.6</ele>
        <time>2022-05-27T07:06:33Z</time>
      </trkpt>
      <trkpt lat="48.02758" lon="6.90842">
        <ele>900.5</ele>
        <time>2022-05-27T07:06:34Z</time>
      </trkpt>
      <trkpt lat="48.02755" lon="6.90825">
        <ele>899</ele>
        <time>2022-05-27T07:06:35Z</time>
      </trkpt>
      <trkpt lat="48.02751" lon="6.90808">
        <ele>898.1</ele>
        <time>2022-05-27T07:06:36Z</time>
      </trkpt>
      <trkpt lat="48.02747" lon="6.90791">
        <ele>897.2</ele>
        <time>2022-05-27T07:06:37Z</time>
      </trkpt>
      <trkpt lat="48.02742" lon="6.90776">
        <ele>896.6</ele>
        <time>2022-05-27T07:06:38Z</time>
      </trkpt>
      <trkpt lat="48.02735" lon="6.90761">
        <ele>895.2</ele>
        <time>2022-05-27T07:06:39Z</time>
      </trkpt>
      <trkpt lat="48.02727" lon="6.90747">
        <ele>894.2</ele>
        <time>2022-05-27T07:06:40Z</time>
      </trkpt>
      <trkpt lat="48.0272" lon="6.90733">
        <ele>893.2</ele>
        <time>2022-05-27T07:06:41Z</time>
      </trkpt>
      <trkpt lat="48.02714" lon="6.90717">
        <ele>892.4</ele>
        <time>2022-05-27T07:06:42Z</time>
      </trkpt>
      <trkpt lat="48.02711" lon="6.90701">
        <ele>892.2</ele>
        <time>2022-05-27T07:06:43Z</time>
      </trkpt>
      <trkpt lat="48.02709" lon="6.90685">
        <ele>891.9</ele>
        <time>2022-05-27T07:06:44Z</time>
      </trkpt>
      <trkpt lat="48.02706" lon="6.90671">
        <ele>892.4</ele>
        <time>2022-05-27T07:06:45Z</time>
      </trkpt>
      <trkpt lat="48.02703" lon="6.90657">
        <ele>892.5</ele>
        <time>2022-05-27T07:06:46Z</time>
      </trkpt>
      <trkpt lat="48.02697" lon="6.90646">
        <ele>892.1</ele>
        <time>2022-05-27T07:06:47Z</time>
      </trkpt>
      <trkpt lat="48.02684" lon="6.90629">
        <ele>892.2</ele>
        <time>2022-05-27T07:06:49Z</time>
      </trkpt>
      <trkpt lat="48.02672" lon="6.9061">
        <ele>891</ele>
        <time>2022-05-27T07:06:51Z</time>
      </trkpt>
      <trkpt lat="48.02666" lon="6.90601">
        <ele>890</ele>
        <time>2022-05-27T07:06:52Z</time>
      </trkpt>
      <trkpt lat="48.02659" lon="6.90591">
        <ele>889.1</ele>
        <time>2022-05-27T07:06:53Z</time>
      </trkpt>
      <trkpt lat="48.02653" lon="6.90581">
        <ele>888</ele>
        <time>2022-05-27T07:06:54Z</time>
      </trkpt>
      <trkpt lat="48.02646" lon="6.90572">
        <ele>887.1</ele>
        <time>2022-05-27T07:06:55Z</time>
      </trkpt>
      <trkpt lat="48.02633" lon="6.90555">
        <ele>889.1</ele>
        <time>2022-05-27T07:06:57Z</time>
      </trkpt>
      <trkpt lat="48.02621" lon="6.90539">
        <ele>889.7</ele>
        <time>2022-05-27T07:06:59Z</time>
      </trkpt>
      <trkpt lat="48.02611" lon="6.90526">
        <ele>889.3</ele>
        <time>2022-05-27T07:07:01Z</time>
      </trkpt>
      <trkpt lat="48.02603" lon="6.90513">
        <ele>889.9</ele>
        <time>2022-05-27T07:07:03Z</time>
      </trkpt>
      <trkpt lat="48.02596" lon="6.90501">
        <ele>890.2</ele>
        <time>2022-05-27T07:07:05Z</time>
      </trkpt>
      <trkpt lat="48.0259" lon="6.9049">
        <ele>890.6</ele>
        <time>2022-05-27T07:07:07Z</time>
      </trkpt>
      <trkpt lat="48.02584" lon="6.90479">
        <ele>890.8</ele>
        <time>2022-05-27T07:07:09Z</time>
      </trkpt>
      <trkpt lat="48.02577" lon="6.90468">
        <ele>892.1</ele>
        <time>2022-05-27T07:07:11Z</time>
      </trkpt>
      <trkpt lat="48.0257" lon="6.90457">
        <ele>891.2</ele>
        <time>2022-05-27T07:07:13Z</time>
      </trkpt>
      <trkpt lat="48.02564" lon="6.90445">
        <ele>891.1</ele>
        <time>2022-05-27T07:07:15Z</time>
      </trkpt>
      <trkpt lat="48.0256" lon="6.90432">
        <ele>891.4</ele>
        <time>2022-05-27T07:07:17Z</time>
      </trkpt>
      <trkpt lat="48.02556" lon="6.90419">
        <ele>891.5</ele>
        <time>2022-05-27T07:07:19Z</time>
      </trkpt>
      <trkpt lat="48.02552" lon="6.90405">
        <ele>891.9</ele>
        <time>2022-05-27T07:07:21Z</time>
      </trkpt>
      <trkpt lat="48.02548" lon="6.90392">
        <ele>891.6</ele>
        <time>2022-05-27T07:07:23Z</time>
      </trkpt>
      <trkpt lat="48.02542" lon="6.90378">
        <ele>890.3</ele>
        <time>2022-05-27T07:07:25Z</time>
      </trkpt>
      <trkpt lat="48.02535" lon="6.90363">
        <ele>889.3</ele>
        <time>2022-05-27T07:07:27Z</time>
      </trkpt>
      <trkpt lat="48.02527" lon="6.90346">
        <ele>889.2</ele>
        <time>2022-05-27T07:07:29Z</time>
      </trkpt>
      <trkpt lat="48.0252" lon="6.90328">
        <ele>888.6</ele>
        <time>2022-05-27T07:07:31Z</time>
      </trkpt>
      <trkpt lat="48.02511" lon="6.90308">
        <ele>886.5</ele>
        <time>2022-05-27T07:07:33Z</time>
      </trkpt>
      <trkpt lat="48.02502" lon="6.90287">
        <ele>885</ele>
        <time>2022-05-27T07:07:35Z</time>
      </trkpt>
      <trkpt lat="48.02493" lon="6.90267">
        <ele>885</ele>
        <time>2022-05-27T07:07:37Z</time>
      </trkpt>
      <trkpt lat="48.02485" lon="6.90246">
        <ele>884.2</ele>
        <time>2022-05-27T07:07:39Z</time>
      </trkpt>
      <trkpt lat="48.0248" lon="6.90225">
        <ele>883.6</ele>
        <time>2022-05-27T07:07:41Z</time>
      </trkpt>
      <trkpt lat="48.02477" lon="6.90204">
        <ele>883.3</ele>
        <time>2022-05-27T07:07:43Z</time>
      </trkpt>
      <trkpt lat="48.02474" lon="6.90185">
        <ele>883.7</ele>
        <time>2022-05-27T07:07:45Z</time>
      </trkpt>
      <trkpt lat="48.02473" lon="6.90169">
        <ele>884.5</ele>
        <time>2022-05-27T07:07:47Z</time>
      </trkpt>
      <trkpt lat="48.02477" lon="6.90152">
        <ele>885.1</ele>
        <time>2022-05-27T07:07:50Z</time>
      </trkpt>
      <trkpt lat="48.02486" lon="6.90142">
        <ele>885.8</ele>
        <time>2022-05-27T07:07:53Z</time>
      </trkpt>
      <trkpt lat="48.02489" lon="6.90128">
        <ele>886.1</ele>
        <time>2022-05-27T07:07:56Z</time>
      </trkpt>
      <trkpt lat="48.02488" lon="6.90111">
        <ele>886</ele>
        <time>2022-05-27T07:07:59Z</time>
      </trkpt>
      <trkpt lat="48.02486" lon="6.90096">
        <ele>886.8</ele>
        <time>2022-05-27T07:08:02Z</time>
      </trkpt>
      <trkpt lat="48.02485" lon="6.9008">
        <ele>886.8</ele>
        <time>2022-05-27T07:08:05Z</time>
      </trkpt>
      <trkpt lat="48.02484" lon="6.90065">
        <ele>887.3</ele>
        <time>2022-05-27T07:08:08Z</time>
      </trkpt>
      <trkpt lat="48.02484" lon="6.90051">
        <ele>888.1</ele>
        <time>2022-05-27T07:08:11Z</time>
      </trkpt>
      <trkpt lat="48.02483" lon="6.90033">
        <ele>888.9</ele>
        <time>2022-05-27T07:08:15Z</time>
      </trkpt>
      <trkpt lat="48.02484" lon="6.90016">
        <ele>889.9</ele>
        <time>2022-05-27T07:08:19Z</time>
      </trkpt>
      <trkpt lat="48.02484" lon="6.9">
        <ele>890.8</ele>
        <time>2022-05-27T07:08:23Z</time>
      </trkpt>
      <trkpt lat="48.02484" lon="6.89984">
        <ele>891.9</ele>
        <time>2022-05-27T07:08:27Z</time>
      </trkpt>
      <trkpt lat="48.02484" lon="6.89969">
        <ele>891.9</ele>
        <time>2022-05-27T07:08:31Z</time>
      </trkpt>
      <trkpt lat="48.02485" lon="6.89952">
        <ele>892.9</ele>
        <time>2022-05-27T07:08:35Z</time>
      </trkpt>
      <trkpt lat="48.02485" lon="6.89935">
        <ele>893.5</ele>
        <time>2022-05-27T07:08:39Z</time>
      </trkpt>
      <trkpt lat="48.02485" lon="6.89918">
        <ele>894.4</ele>
        <time>2022-05-27T07:08:43Z</time>
      </trkpt>
      <trkpt lat="48.02486" lon="6.899">
        <ele>894.6</ele>
        <time>2022-05-27T07:08:47Z</time>
      </trkpt>
      <trkpt lat="48.02486" lon="6.89883">
        <ele>895.5</ele>
        <time>2022-05-27T07:08:51Z</time>
      </trkpt>
      <trkpt lat="48.02487" lon="6.89866">
        <ele>896.8</ele>
        <time>2022-05-27T07:08:55Z</time>
      </trkpt>
      <trkpt lat="48.02488" lon="6.89849">
        <ele>897.4</ele>
        <time>2022-05-27T07:08:59Z</time>
      </trkpt>
      <trkpt lat="48.02489" lon="6.89831">
        <ele>898.2</ele>
        <time>2022-05-27T07:09:03Z</time>
      </trkpt>
      <trkpt lat="48.02491" lon="6.89814">
        <ele>898.8</ele>
        <time>2022-05-27T07:09:07Z</time>
      </trkpt>
      <trkpt lat="48.02493" lon="6.89799">
        <ele>899.2</ele>
        <time>2022-05-27T07:09:11Z</time>
      </trkpt>
      <trkpt lat="48.02494" lon="6.89785">
        <ele>899.8</ele>
        <time>2022-05-27T07:09:15Z</time>
      </trkpt>
      <trkpt lat="48.02496" lon="6.89769">
        <ele>900.8</ele>
        <time>2022-05-27T07:09:19Z</time>
      </trkpt>
      <trkpt lat="48.02499" lon="6.89753">
        <ele>901.6</ele>
        <time>2022-05-27T07:09:23Z</time>
      </trkpt>
      <trkpt lat="48.02503" lon="6.89739">
        <ele>902.5</ele>
        <time>2022-05-27T07:09:27Z</time>
      </trkpt>
      <trkpt lat="48.02508" lon="6.89726">
        <ele>903.2</ele>
        <time>2022-05-27T07:09:31Z</time>
      </trkpt>
      <trkpt lat="48.02514" lon="6.89714">
        <ele>903.8</ele>
        <time>2022-05-27T07:09:35Z</time>
      </trkpt>
      <trkpt lat="48.02521" lon="6.89701">
        <ele>904.5</ele>
        <time>2022-05-27T07:09:39Z</time>
      </trkpt>
      <trkpt lat="48.02528" lon="6.89689">
        <ele>904.7</ele>
        <time>2022-05-27T07:09:43Z</time>
      </trkpt>
      <trkpt lat="48.02535" lon="6.89678">
        <ele>905.3</ele>
        <time>2022-05-27T07:09:47Z</time>
      </trkpt>
      <trkpt lat="48.02542" lon="6.89665">
        <ele>906.1</ele>
        <time>2022-05-27T07:09:51Z</time>
      </trkpt>
      <trkpt lat="48.0255" lon="6.89652">
        <ele>906.5</ele>
        <time>2022-05-27T07:09:55Z</time>
      </trkpt>
      <trkpt lat="48.02556" lon="6.89642">
        <ele>907.2</ele>
        <time>2022-05-27T07:09:58Z</time>
      </trkpt>
      <trkpt lat="48.02564" lon="6.89633">
        <ele>907.4</ele>
        <time>2022-05-27T07:10:01Z</time>
      </trkpt>
      <trkpt lat="48.02571" lon="6.89626">
        <ele>907.5</ele>
        <time>2022-05-27T07:10:04Z</time>
      </trkpt>
      <trkpt lat="48.0258" lon="6.8962">
        <ele>908.3</ele>
        <time>2022-05-27T07:10:07Z</time>
      </trkpt>
      <trkpt lat="48.02591" lon="6.89615">
        <ele>908.7</ele>
        <time>2022-05-27T07:10:11Z</time>
      </trkpt>
      <trkpt lat="48.02602" lon="6.89611">
        <ele>909.8</ele>
        <time>2022-05-27T07:10:15Z</time>
      </trkpt>
      <trkpt lat="48.02611" lon="6.89609">
        <ele>910</ele>
        <time>2022-05-27T07:10:18Z</time>
      </trkpt>
      <trkpt lat="48.02622" lon="6.89603">
        <ele>910.8</ele>
        <time>2022-05-27T07:10:22Z</time>
      </trkpt>
      <trkpt lat="48.02633" lon="6.89598">
        <ele>911.5</ele>
        <time>2022-05-27T07:10:26Z</time>
      </trkpt>
      <trkpt lat="48.02643" lon="6.89593">
        <ele>912.4</ele>
        <time>2022-05-27T07:10:30Z</time>
      </trkpt>
      <trkpt lat="48.02653" lon="6.89588">
        <ele>913.7</ele>
        <time>2022-05-27T07:10:34Z</time>
      </trkpt>
      <trkpt lat="48.02664" lon="6.89582">
        <ele>913.8</ele>
        <time>2022-05-27T07:10:38Z</time>
      </trkpt>
      <trkpt lat="48.02675" lon="6.89575">
        <ele>914.4</ele>
        <time>2022-05-27T07:10:42Z</time>
      </trkpt>
      <trkpt lat="48.02683" lon="6.89569">
        <ele>915.2</ele>
        <time>2022-05-27T07:10:45Z</time>
      </trkpt>
      <trkpt lat="48.02692" lon="6.89562">
        <ele>916.1</ele>
        <time>2022-05-27T07:10:48Z</time>
      </trkpt>
      <trkpt lat="48.02699" lon="6.89555">
        <ele>916.6</ele>
        <time>2022-05-27T07:10:51Z</time>
      </trkpt>
      <trkpt lat="48.02707" lon="6.89547">
        <ele>917</ele>
        <time>2022-05-27T07:10:54Z</time>
      </trkpt>
      <trkpt lat="48.02713" lon="6.89537">
        <ele>917.6</ele>
        <time>2022-05-27T07:10:57Z</time>
      </trkpt>
      <trkpt lat="48.02718" lon="6.89521">
        <ele>918.2</ele>
        <time>2022-05-27T07:11:01Z</time>
      </trkpt>
      <trkpt lat="48.0272" lon="6.89508">
        <ele>918.5</ele>
        <time>2022-05-27T07:11:04Z</time>
      </trkpt>
      <trkpt lat="48.02721" lon="6.89494">
        <ele>919</ele>
        <time>2022-05-27T07:11:07Z</time>
      </trkpt>
      <trkpt lat="48.02721" lon="6.89479">
        <ele>919.5</ele>
        <time>2022-05-27T07:11:10Z</time>
      </trkpt>
      <trkpt lat="48.02721" lon="6.89463">
        <ele>920</ele>
        <time>2022-05-27T07:11:13Z</time>
      </trkpt>
      <trkpt lat="48.0272" lon="6.89448">
        <ele>920.7</ele>
        <time>2022-05-27T07:11:16Z</time>
      </trkpt>
      <trkpt lat="48.02719" lon="6.89432">
        <ele>921</ele>
        <time>2022-05-27T07:11:19Z</time>
      </trkpt>
      <trkpt lat="48.02719" lon="6.89418">
        <ele>921.4</ele>
        <time>2022-05-27T07:11:22Z</time>
      </trkpt>
      <trkpt lat="48.02718" lon="6.89403">
        <ele>921.9</ele>
        <time>2022-05-27T07:11:25Z</time>
      </trkpt>
      <trkpt lat="48.02717" lon="6.89389">
        <ele>922.7</ele>
        <time>2022-05-27T07:11:28Z</time>
      </trkpt>
      <trkpt lat="48.02717" lon="6.89374">
        <ele>923</ele>
        <time>2022-05-27T07:11:31Z</time>
      </trkpt>
      <trkpt lat="48.02716" lon="6.8936">
        <ele>923.3</ele>
        <time>2022-05-27T07:11:34Z</time>
      </trkpt>
      <trkpt lat="48.02716" lon="6.89346">
        <ele>924.5</ele>
        <time>2022-05-27T07:11:37Z</time>
      </trkpt>
      <trkpt lat="48.02715" lon="6.89332">
        <ele>924.5</ele>
        <time>2022-05-27T07:11:40Z</time>
      </trkpt>
      <trkpt lat="48.02714" lon="6.89317">
        <ele>925.1</ele>
        <time>2022-05-27T07:11:43Z</time>
      </trkpt>
      <trkpt lat="48.02713" lon="6.89302">
        <ele>926</ele>
        <time>2022-05-27T07:11:46Z</time>
      </trkpt>
      <trkpt lat="48.02712" lon="6.89287">
        <ele>926.4</ele>
        <time>2022-05-27T07:11:49Z</time>
      </trkpt>
      <trkpt lat="48.02711" lon="6.89273">
        <ele>927</ele>
        <time>2022-05-27T07:11:52Z</time>
      </trkpt>
      <trkpt lat="48.0271" lon="6.89258">
        <ele>927.4</ele>
        <time>2022-05-27T07:11:55Z</time>
      </trkpt>
      <trkpt lat="48.02708" lon="6.89242">
        <ele>927.8</ele>
        <time>2022-05-27T07:11:58Z</time>
      </trkpt>
      <trkpt lat="48.02707" lon="6.89227">
        <ele>928.2</ele>
        <time>2022-05-27T07:12:01Z</time>
      </trkpt>
      <trkpt lat="48.02706" lon="6.89211">
        <ele>929</ele>
        <time>2022-05-27T07:12:04Z</time>
      </trkpt>
      <trkpt lat="48.02704" lon="6.89196">
        <ele>930</ele>
        <time>2022-05-27T07:12:07Z</time>
      </trkpt>
      <trkpt lat="48.02703" lon="6.89181">
        <ele>930.2</ele>
        <time>2022-05-27T07:12:10Z</time>
      </trkpt>
      <trkpt lat="48.02702" lon="6.89166">
        <ele>930.8</ele>
        <time>2022-05-27T07:12:13Z</time>
      </trkpt>
      <trkpt lat="48.02701" lon="6.8915">
        <ele>930.8</ele>
        <time>2022-05-27T07:12:16Z</time>
      </trkpt>
      <trkpt lat="48.027" lon="6.89136">
        <ele>931.5</ele>
        <time>2022-05-27T07:12:19Z</time>
      </trkpt>
      <trkpt lat="48.02698" lon="6.89121">
        <ele>932.5</ele>
        <time>2022-05-27T07:12:22Z</time>
      </trkpt>
      <trkpt lat="48.02697" lon="6.89106">
        <ele>932.6</ele>
        <time>2022-05-27T07:12:25Z</time>
      </trkpt>
      <trkpt lat="48.02696" lon="6.89092">
        <ele>933.1</ele>
        <time>2022-05-27T07:12:28Z</time>
      </trkpt>
      <trkpt lat="48.02695" lon="6.89077">
        <ele>933.6</ele>
        <time>2022-05-27T07:12:31Z</time>
      </trkpt>
      <trkpt lat="48.02693" lon="6.89062">
        <ele>934.2</ele>
        <time>2022-05-27T07:12:34Z</time>
      </trkpt>
      <trkpt lat="48.02692" lon="6.89047">
        <ele>934.5</ele>
        <time>2022-05-27T07:12:37Z</time>
      </trkpt>
      <trkpt lat="48.02691" lon="6.89033">
        <ele>935.1</ele>
        <time>2022-05-27T07:12:40Z</time>
      </trkpt>
      <trkpt lat="48.02689" lon="6.89018">
        <ele>935.8</ele>
        <time>2022-05-27T07:12:43Z</time>
      </trkpt>
      <trkpt lat="48.02687" lon="6.89004">
        <ele>936.1</ele>
        <time>2022-05-27T07:12:46Z</time>
      </trkpt>
      <trkpt lat="48.02684" lon="6.8899">
        <ele>936.7</ele>
        <time>2022-05-27T07:12:49Z</time>
      </trkpt>
      <trkpt lat="48.02681" lon="6.88976">
        <ele>937.1</ele>
        <time>2022-05-27T07:12:52Z</time>
      </trkpt>
      <trkpt lat="48.02679" lon="6.88962">
        <ele>937.5</ele>
        <time>2022-05-27T07:12:55Z</time>
      </trkpt>
      <trkpt lat="48.02676" lon="6.88948">
        <ele>937.8</ele>
        <time>2022-05-27T07:12:58Z</time>
      </trkpt>
      <trkpt lat="48.02673" lon="6.88934">
        <ele>938.8</ele>
        <time>2022-05-27T07:13:01Z</time>
      </trkpt>
      <trkpt lat="48.0267" lon="6.8892">
        <ele>939</ele>
        <time>2022-05-27T07:13:04Z</time>
      </trkpt>
      <trkpt lat="48.02668" lon="6.88906">
        <ele>939.6</ele>
        <time>2022-05-27T07:13:07Z</time>
      </trkpt>
      <trkpt lat="48.02665" lon="6.88892">
        <ele>940</ele>
        <time>2022-05-27T07:13:10Z</time>
      </trkpt>
      <trkpt lat="48.02662" lon="6.88878">
        <ele>940.6</ele>
        <time>2022-05-27T07:13:13Z</time>
      </trkpt>
      <trkpt lat="48.02659" lon="6.88864">
        <ele>941.4</ele>
        <time>2022-05-27T07:13:16Z</time>
      </trkpt>
      <trkpt lat="48.02656" lon="6.8885">
        <ele>941.5</ele>
        <time>2022-05-27T07:13:19Z</time>
      </trkpt>
      <trkpt lat="48.02653" lon="6.88836">
        <ele>942.5</ele>
        <time>2022-05-27T07:13:22Z</time>
      </trkpt>
      <trkpt lat="48.02651" lon="6.88822">
        <ele>943.5</ele>
        <time>2022-05-27T07:13:25Z</time>
      </trkpt>
      <trkpt lat="48.02647" lon="6.88808">
        <ele>943.9</ele>
        <time>2022-05-27T07:13:28Z</time>
      </trkpt>
      <trkpt lat="48.02645" lon="6.88794">
        <ele>944.6</ele>
        <time>2022-05-27T07:13:31Z</time>
      </trkpt>
      <trkpt lat="48.02642" lon="6.88781">
        <ele>945.2</ele>
        <time>2022-05-27T07:13:34Z</time>
      </trkpt>
      <trkpt lat="48.02639" lon="6.88768">
        <ele>945.4</ele>
        <time>2022-05-27T07:13:37Z</time>
      </trkpt>
      <trkpt lat="48.02635" lon="6.88756">
        <ele>945.7</ele>
        <time>2022-05-27T07:13:40Z</time>
      </trkpt>
      <trkpt lat="48.02632" lon="6.88742">
        <ele>946.3</ele>
        <time>2022-05-27T07:13:43Z</time>
      </trkpt>
      <trkpt lat="48.02629" lon="6.88729">
        <ele>946.6</ele>
        <time>2022-05-27T07:13:46Z</time>
      </trkpt>
      <trkpt lat="48.02625" lon="6.88714">
        <ele>948</ele>
        <time>2022-05-27T07:13:50Z</time>
      </trkpt>
      <trkpt lat="48.02623" lon="6.88699">
        <ele>949</ele>
        <time>2022-05-27T07:13:55Z</time>
      </trkpt>
      <trkpt lat="48.02623" lon="6.88684">
        <ele>949.3</ele>
        <time>2022-05-27T07:13:59Z</time>
      </trkpt>
      <trkpt lat="48.02624" lon="6.88668">
        <ele>950.1</ele>
        <time>2022-05-27T07:14:03Z</time>
      </trkpt>
      <trkpt lat="48.02626" lon="6.88651">
        <ele>951.3</ele>
        <time>2022-05-27T07:14:07Z</time>
      </trkpt>
      <trkpt lat="48.02628" lon="6.88634">
        <ele>952</ele>
        <time>2022-05-27T07:14:11Z</time>
      </trkpt>
      <trkpt lat="48.02631" lon="6.88618">
        <ele>952.9</ele>
        <time>2022-05-27T07:14:15Z</time>
      </trkpt>
      <trkpt lat="48.02635" lon="6.88602">
        <ele>953.5</ele>
        <time>2022-05-27T07:14:19Z</time>
      </trkpt>
      <trkpt lat="48.0264" lon="6.88591">
        <ele>954.8</ele>
        <time>2022-05-27T07:14:23Z</time>
      </trkpt>
      <trkpt lat="48.02633" lon="6.8858">
        <ele>954.8</ele>
        <time>2022-05-27T07:14:32Z</time>
      </trkpt>
      <trkpt lat="48.02629" lon="6.88581">
        <ele>954.6</ele>
        <time>2022-05-27T07:14:50Z</time>
      </trkpt>
      <trkpt lat="48.02629" lon="6.88581">
        <ele>954.7</ele>
        <time>2022-05-27T07:15:19Z</time>
      </trkpt>
      <trkpt lat="48.02619" lon="6.8858">
        <ele>953.3</ele>
        <time>2022-05-27T07:16:26Z</time>
      </trkpt>
      <trkpt lat="48.02614" lon="6.88572">
        <ele>953.3</ele>
        <time>2022-05-27T07:16:33Z</time>
      </trkpt>
      <trkpt lat="48.02613" lon="6.88572">
        <ele>953.3</ele>
        <time>2022-05-27T07:16:38Z</time>
      </trkpt>
      <trkpt lat="48.02613" lon="6.88573">
        <ele>953.5</ele>
        <time>2022-05-27T07:16:40Z</time>
      </trkpt>
      <trkpt lat="48.02613" lon="6.88574">
        <ele>953.4</ele>
        <time>2022-05-27T07:17:03Z</time>
      </trkpt>
      <trkpt lat="48.02613" lon="6.88574">
        <ele>953.4</ele>
        <time>2022-05-27T07:17:04Z</time>
      </trkpt>
      <trkpt lat="48.02613" lon="6.88574">
        <ele>953.7</ele>
        <time>2022-05-27T07:17:23Z</time>
      </trkpt>
      <trkpt lat="48.02612" lon="6.88574">
        <ele>953.6</ele>
        <time>2022-05-27T07:17:39Z</time>
      </trkpt>
      <trkpt lat="48.02612" lon="6.88575">
        <ele>953.9</ele>
        <time>2022-05-27T07:18:00Z</time>
      </trkpt>
      <trkpt lat="48.02612" lon="6.88575">
        <ele>953.5</ele>
        <time>2022-05-27T07:18:07Z</time>
      </trkpt>
      <trkpt lat="48.02613" lon="6.88575">
        <ele>953.9</ele>
        <time>2022-05-27T07:18:15Z</time>
      </trkpt>
      <trkpt lat="48.02612" lon="6.88575">
        <ele>953.7</ele>
        <time>2022-05-27T07:18:34Z</time>
      </trkpt>
      <trkpt lat="48.02612" lon="6.88576">
        <ele>953.8</ele>
        <time>2022-05-27T07:19:04Z</time>
      </trkpt>
      <trkpt lat="48.02611" lon="6.88576">
        <ele>953.7</ele>
        <time>2022-05-27T07:19:08Z</time>
      </trkpt>
      <trkpt lat="48.02611" lon="6.88576">
        <ele>954</ele>
        <time>2022-05-27T07:19:10Z</time>
      </trkpt>
      <trkpt lat="48.02611" lon="6.88576">
        <ele>953.7</ele>
        <time>2022-05-27T07:19:13Z</time>
      </trkpt>
      <trkpt lat="48.0261" lon="6.88576">
        <ele>953.3</ele>
        <time>2022-05-27T07:19:17Z</time>
      </trkpt>
      <trkpt lat="48.0261" lon="6.88576">
        <ele>953.3</ele>
        <time>2022-05-27T07:19:18Z</time>
      </trkpt>
      <trkpt lat="48.0261" lon="6.88576">
        <ele>953.9</ele>
        <time>2022-05-27T07:19:22Z</time>
      </trkpt>
      <trkpt lat="48.0261" lon="6.88576">
        <ele>953.6</ele>
        <time>2022-05-27T07:19:53Z</time>
      </trkpt>
      <trkpt lat="48.02609" lon="6.88577">
        <ele>953.6</ele>
        <time>2022-05-27T07:19:54Z</time>
      </trkpt>
      <trkpt lat="48.02599" lon="6.88579">
        <ele>952.8</ele>
        <time>2022-05-27T07:19:59Z</time>
      </trkpt>
      <trkpt lat="48.02588" lon="6.88573">
        <ele>951.8</ele>
        <time>2022-05-27T07:20:03Z</time>
      </trkpt>
      <trkpt lat="48.02579" lon="6.88565">
        <ele>951.8</ele>
        <time>2022-05-27T07:20:06Z</time>
      </trkpt>
      <trkpt lat="48.02569" lon="6.88556">
        <ele>950.8</ele>
        <time>2022-05-27T07:20:09Z</time>
      </trkpt>
      <trkpt lat="48.02562" lon="6.88545">
        <ele>951.4</ele>
        <time>2022-05-27T07:20:12Z</time>
      </trkpt>
      <trkpt lat="48.02557" lon="6.8853">
        <ele>953</ele>
        <time>2022-05-27T07:20:15Z</time>
      </trkpt>
      <trkpt lat="48.02554" lon="6.88513">
        <ele>949.9</ele>
        <time>2022-05-27T07:20:18Z</time>
      </trkpt>
      <trkpt lat="48.0255" lon="6.88497">
        <ele>948.9</ele>
        <time>2022-05-27T07:20:21Z</time>
      </trkpt>
      <trkpt lat="48.02546" lon="6.88485">
        <ele>950.2</ele>
        <time>2022-05-27T07:20:24Z</time>
      </trkpt>
      <trkpt lat="48.02541" lon="6.8847">
        <ele>950.3</ele>
        <time>2022-05-27T07:20:28Z</time>
      </trkpt>
      <trkpt lat="48.02534" lon="6.8846">
        <ele>952</ele>
        <time>2022-05-27T07:20:32Z</time>
      </trkpt>
      <trkpt lat="48.02525" lon="6.88452">
        <ele>951.1</ele>
        <time>2022-05-27T07:20:36Z</time>
      </trkpt>
      <trkpt lat="48.02516" lon="6.88445">
        <ele>951.9</ele>
        <time>2022-05-27T07:20:40Z</time>
      </trkpt>
      <trkpt lat="48.02506" lon="6.88443">
        <ele>951.8</ele>
        <time>2022-05-27T07:20:44Z</time>
      </trkpt>
      <trkpt lat="48.02495" lon="6.88443">
        <ele>950.2</ele>
        <time>2022-05-27T07:20:48Z</time>
      </trkpt>
      <trkpt lat="48.02487" lon="6.8845">
        <ele>952</ele>
        <time>2022-05-27T07:20:51Z</time>
      </trkpt>
      <trkpt lat="48.02479" lon="6.88457">
        <ele>952.1</ele>
        <time>2022-05-27T07:20:54Z</time>
      </trkpt>
      <trkpt lat="48.0247" lon="6.8846">
        <ele>952.9</ele>
        <time>2022-05-27T07:20:58Z</time>
      </trkpt>
      <trkpt lat="48.02465" lon="6.88461">
        <ele>952.6</ele>
        <time>2022-05-27T07:21:03Z</time>
      </trkpt>
      <trkpt lat="48.02455" lon="6.88461">
        <ele>952</ele>
        <time>2022-05-27T07:21:14Z</time>
      </trkpt>
      <trkpt lat="48.02448" lon="6.88451">
        <ele>952.1</ele>
        <time>2022-05-27T07:21:20Z</time>
      </trkpt>
      <trkpt lat="48.0244" lon="6.88459">
        <ele>952.1</ele>
        <time>2022-05-27T07:21:24Z</time>
      </trkpt>
      <trkpt lat="48.02432" lon="6.88465">
        <ele>953.7</ele>
        <time>2022-05-27T07:21:28Z</time>
      </trkpt>
      <trkpt lat="48.02425" lon="6.88457">
        <ele>953.7</ele>
        <time>2022-05-27T07:21:32Z</time>
      </trkpt>
      <trkpt lat="48.02414" lon="6.88454">
        <ele>952.8</ele>
        <time>2022-05-27T07:21:37Z</time>
      </trkpt>
      <trkpt lat="48.02405" lon="6.88444">
        <ele>949.5</ele>
        <time>2022-05-27T07:21:40Z</time>
      </trkpt>
      <trkpt lat="48.02398" lon="6.88433">
        <ele>947.6</ele>
        <time>2022-05-27T07:21:42Z</time>
      </trkpt>
      <trkpt lat="48.0239" lon="6.88421">
        <ele>949.4</ele>
        <time>2022-05-27T07:21:45Z</time>
      </trkpt>
      <trkpt lat="48.02383" lon="6.88411">
        <ele>948.8</ele>
        <time>2022-05-27T07:21:47Z</time>
      </trkpt>
      <trkpt lat="48.02375" lon="6.88404">
        <ele>947.1</ele>
        <time>2022-05-27T07:21:49Z</time>
      </trkpt>
      <trkpt lat="48.02364" lon="6.88402">
        <ele>949.3</ele>
        <time>2022-05-27T07:21:53Z</time>
      </trkpt>
      <trkpt lat="48.02355" lon="6.88406">
        <ele>950</ele>
        <time>2022-05-27T07:21:57Z</time>
      </trkpt>
      <trkpt lat="48.02346" lon="6.88411">
        <ele>951.7</ele>
        <time>2022-05-27T07:22:01Z</time>
      </trkpt>
      <trkpt lat="48.02338" lon="6.88417">
        <ele>950.9</ele>
        <time>2022-05-27T07:22:05Z</time>
      </trkpt>
      <trkpt lat="48.02331" lon="6.88426">
        <ele>952.1</ele>
        <time>2022-05-27T07:22:09Z</time>
      </trkpt>
      <trkpt lat="48.02322" lon="6.88433">
        <ele>953</ele>
        <time>2022-05-27T07:22:14Z</time>
      </trkpt>
      <trkpt lat="48.02314" lon="6.88442">
        <ele>953.5</ele>
        <time>2022-05-27T07:22:19Z</time>
      </trkpt>
      <trkpt lat="48.02306" lon="6.8845">
        <ele>953.8</ele>
        <time>2022-05-27T07:22:24Z</time>
      </trkpt>
      <trkpt lat="48.023" lon="6.88467">
        <ele>950.8</ele>
        <time>2022-05-27T07:22:28Z</time>
      </trkpt>
      <trkpt lat="48.02296" lon="6.8848">
        <ele>948.6</ele>
        <time>2022-05-27T07:22:31Z</time>
      </trkpt>
      <trkpt lat="48.02289" lon="6.88468">
        <ele>948</ele>
        <time>2022-05-27T07:22:36Z</time>
      </trkpt>
      <trkpt lat="48.02284" lon="6.88453">
        <ele>948.1</ele>
        <time>2022-05-27T07:22:40Z</time>
      </trkpt>
      <trkpt lat="48.02276" lon="6.8844">
        <ele>948</ele>
        <time>2022-05-27T07:22:44Z</time>
      </trkpt>
      <trkpt lat="48.02269" lon="6.88432">
        <ele>947.7</ele>
        <time>2022-05-27T07:22:47Z</time>
      </trkpt>
      <trkpt lat="48.0226" lon="6.88422">
        <ele>947.9</ele>
        <time>2022-05-27T07:22:51Z</time>
      </trkpt>
      <trkpt lat="48.0225" lon="6.88413">
        <ele>947.4</ele>
        <time>2022-05-27T07:22:55Z</time>
      </trkpt>
      <trkpt lat="48.02242" lon="6.88406">
        <ele>947.2</ele>
        <time>2022-05-27T07:22:58Z</time>
      </trkpt>
      <trkpt lat="48.02231" lon="6.88399">
        <ele>947.6</ele>
        <time>2022-05-27T07:23:02Z</time>
      </trkpt>
      <trkpt lat="48.02223" lon="6.88394">
        <ele>947.2</ele>
        <time>2022-05-27T07:23:05Z</time>
      </trkpt>
      <trkpt lat="48.02213" lon="6.88388">
        <ele>947.4</ele>
        <time>2022-05-27T07:23:08Z</time>
      </trkpt>
      <trkpt lat="48.02203" lon="6.88381">
        <ele>947.4</ele>
        <time>2022-05-27T07:23:11Z</time>
      </trkpt>
      <trkpt lat="48.02193" lon="6.88372">
        <ele>947</ele>
        <time>2022-05-27T07:23:14Z</time>
      </trkpt>
      <trkpt lat="48.02185" lon="6.88366">
        <ele>947.1</ele>
        <time>2022-05-27T07:23:16Z</time>
      </trkpt>
      <trkpt lat="48.02176" lon="6.88358">
        <ele>946</ele>
        <time>2022-05-27T07:23:18Z</time>
      </trkpt>
      <trkpt lat="48.02168" lon="6.88351">
        <ele>945.9</ele>
        <time>2022-05-27T07:23:20Z</time>
      </trkpt>
      <trkpt lat="48.02159" lon="6.88343">
        <ele>945.9</ele>
        <time>2022-05-27T07:23:22Z</time>
      </trkpt>
      <trkpt lat="48.0215" lon="6.88337">
        <ele>946.3</ele>
        <time>2022-05-27T07:23:24Z</time>
      </trkpt>
      <trkpt lat="48.02141" lon="6.8833">
        <ele>946.1</ele>
        <time>2022-05-27T07:23:26Z</time>
      </trkpt>
      <trkpt lat="48.02131" lon="6.88325">
        <ele>945.4</ele>
        <time>2022-05-27T07:23:28Z</time>
      </trkpt>
      <trkpt lat="48.02122" lon="6.88319">
        <ele>945.6</ele>
        <time>2022-05-27T07:23:30Z</time>
      </trkpt>
      <trkpt lat="48.02113" lon="6.88314">
        <ele>945.5</ele>
        <time>2022-05-27T07:23:32Z</time>
      </trkpt>
      <trkpt lat="48.02103" lon="6.88309">
        <ele>945.1</ele>
        <time>2022-05-27T07:23:34Z</time>
      </trkpt>
      <trkpt lat="48.02094" lon="6.88304">
        <ele>945.3</ele>
        <time>2022-05-27T07:23:36Z</time>
      </trkpt>
      <trkpt lat="48.02085" lon="6.883">
        <ele>945.6</ele>
        <time>2022-05-27T07:23:38Z</time>
      </trkpt>
      <trkpt lat="48.02076" lon="6.88297">
        <ele>945.4</ele>
        <time>2022-05-27T07:23:40Z</time>
      </trkpt>
      <trkpt lat="48.02067" lon="6.88293">
        <ele>945.6</ele>
        <time>2022-05-27T07:23:42Z</time>
      </trkpt>
      <trkpt lat="48.02058" lon="6.88291">
        <ele>945.6</ele>
        <time>2022-05-27T07:23:44Z</time>
      </trkpt>
      <trkpt lat="48.02049" lon="6.88288">
        <ele>945.4</ele>
        <time>2022-05-27T07:23:46Z</time>
      </trkpt>
      <trkpt lat="48.0204" lon="6.88284">
        <ele>944.6</ele>
        <time>2022-05-27T07:23:48Z</time>
      </trkpt>
      <trkpt lat="48.02032" lon="6.88277">
        <ele>944.5</ele>
        <time>2022-05-27T07:23:50Z</time>
      </trkpt>
      <trkpt lat="48.02024" lon="6.8827">
        <ele>944.2</ele>
        <time>2022-05-27T07:23:52Z</time>
      </trkpt>
      <trkpt lat="48.02017" lon="6.88261">
        <ele>944.7</ele>
        <time>2022-05-27T07:23:54Z</time>
      </trkpt>
      <trkpt lat="48.0201" lon="6.88252">
        <ele>944.7</ele>
        <time>2022-05-27T07:23:56Z</time>
      </trkpt>
      <trkpt lat="48.02004" lon="6.88243">
        <ele>944.3</ele>
        <time>2022-05-27T07:23:58Z</time>
      </trkpt>
      <trkpt lat="48.01997" lon="6.88233">
        <ele>944.7</ele>
        <time>2022-05-27T07:24:00Z</time>
      </trkpt>
      <trkpt lat="48.01991" lon="6.88223">
        <ele>944.4</ele>
        <time>2022-05-27T07:24:02Z</time>
      </trkpt>
      <trkpt lat="48.01985" lon="6.88212">
        <ele>944.9</ele>
        <time>2022-05-27T07:24:04Z</time>
      </trkpt>
      <trkpt lat="48.01977" lon="6.88197">
        <ele>944.8</ele>
        <time>2022-05-27T07:24:07Z</time>
      </trkpt>
      <trkpt lat="48.0197" lon="6.88185">
        <ele>946</ele>
        <time>2022-05-27T07:24:10Z</time>
      </trkpt>
      <trkpt lat="48.01963" lon="6.88171">
        <ele>947.2</ele>
        <time>2022-05-27T07:24:14Z</time>
      </trkpt>
      <trkpt lat="48.01956" lon="6.88158">
        <ele>948.1</ele>
        <time>2022-05-27T07:24:18Z</time>
      </trkpt>
      <trkpt lat="48.01949" lon="6.88146">
        <ele>948.6</ele>
        <time>2022-05-27T07:24:22Z</time>
      </trkpt>
      <trkpt lat="48.01942" lon="6.88134">
        <ele>949.7</ele>
        <time>2022-05-27T07:24:26Z</time>
      </trkpt>
      <trkpt lat="48.01935" lon="6.88123">
        <ele>950.7</ele>
        <time>2022-05-27T07:24:30Z</time>
      </trkpt>
      <trkpt lat="48.01929" lon="6.88111">
        <ele>951.1</ele>
        <time>2022-05-27T07:24:34Z</time>
      </trkpt>
      <trkpt lat="48.01924" lon="6.88099">
        <ele>952.1</ele>
        <time>2022-05-27T07:24:38Z</time>
      </trkpt>
      <trkpt lat="48.0192" lon="6.88085">
        <ele>953.3</ele>
        <time>2022-05-27T07:24:43Z</time>
      </trkpt>
      <trkpt lat="48.01916" lon="6.8807">
        <ele>954.5</ele>
        <time>2022-05-27T07:24:48Z</time>
      </trkpt>
      <trkpt lat="48.01912" lon="6.88055">
        <ele>955.8</ele>
        <time>2022-05-27T07:24:53Z</time>
      </trkpt>
      <trkpt lat="48.01907" lon="6.88043">
        <ele>956.5</ele>
        <time>2022-05-27T07:24:57Z</time>
      </trkpt>
      <trkpt lat="48.01902" lon="6.88032">
        <ele>957</ele>
        <time>2022-05-27T07:25:01Z</time>
      </trkpt>
      <trkpt lat="48.01896" lon="6.88021">
        <ele>957.5</ele>
        <time>2022-05-27T07:25:05Z</time>
      </trkpt>
      <trkpt lat="48.01889" lon="6.88009">
        <ele>958</ele>
        <time>2022-05-27T07:25:09Z</time>
      </trkpt>
      <trkpt lat="48.01883" lon="6.87998">
        <ele>958.6</ele>
        <time>2022-05-27T07:25:13Z</time>
      </trkpt>
      <trkpt lat="48.01876" lon="6.87986">
        <ele>958.7</ele>
        <time>2022-05-27T07:25:17Z</time>
      </trkpt>
      <trkpt lat="48.01869" lon="6.87973">
        <ele>959.2</ele>
        <time>2022-05-27T07:25:21Z</time>
      </trkpt>
      <trkpt lat="48.01864" lon="6.87961">
        <ele>959</ele>
        <time>2022-05-27T07:25:24Z</time>
      </trkpt>
      <trkpt lat="48.01859" lon="6.87948">
        <ele>958.5</ele>
        <time>2022-05-27T07:25:27Z</time>
      </trkpt>
      <trkpt lat="48.01856" lon="6.87934">
        <ele>958.5</ele>
        <time>2022-05-27T07:25:30Z</time>
      </trkpt>
      <trkpt lat="48.01852" lon="6.87921">
        <ele>958.5</ele>
        <time>2022-05-27T07:25:33Z</time>
      </trkpt>
      <trkpt lat="48.01848" lon="6.87908">
        <ele>958.2</ele>
        <time>2022-05-27T07:25:36Z</time>
      </trkpt>
      <trkpt lat="48.01843" lon="6.87896">
        <ele>958.3</ele>
        <time>2022-05-27T07:25:39Z</time>
      </trkpt>
      <trkpt lat="48.01836" lon="6.87885">
        <ele>959</ele>
        <time>2022-05-27T07:25:42Z</time>
      </trkpt>
      <trkpt lat="48.0183" lon="6.87874">
        <ele>958.8</ele>
        <time>2022-05-27T07:25:45Z</time>
      </trkpt>
      <trkpt lat="48.01825" lon="6.87863">
        <ele>959.3</ele>
        <time>2022-05-27T07:25:48Z</time>
      </trkpt>
      <trkpt lat="48.0182" lon="6.87851">
        <ele>959.5</ele>
        <time>2022-05-27T07:25:51Z</time>
      </trkpt>
      <trkpt lat="48.01816" lon="6.87838">
        <ele>959.2</ele>
        <time>2022-05-27T07:25:54Z</time>
      </trkpt>
      <trkpt lat="48.01814" lon="6.87825">
        <ele>960.1</ele>
        <time>2022-05-27T07:25:57Z</time>
      </trkpt>
      <trkpt lat="48.01813" lon="6.87811">
        <ele>960.6</ele>
        <time>2022-05-27T07:26:00Z</time>
      </trkpt>
      <trkpt lat="48.01811" lon="6.87797">
        <ele>960.8</ele>
        <time>2022-05-27T07:26:03Z</time>
      </trkpt>
      <trkpt lat="48.01809" lon="6.87782">
        <ele>960.7</ele>
        <time>2022-05-27T07:26:06Z</time>
      </trkpt>
      <trkpt lat="48.01806" lon="6.87769">
        <ele>960.7</ele>
        <time>2022-05-27T07:26:09Z</time>
      </trkpt>
      <trkpt lat="48.01802" lon="6.87754">
        <ele>961.4</ele>
        <time>2022-05-27T07:26:12Z</time>
      </trkpt>
      <trkpt lat="48.01798" lon="6.87741">
        <ele>961.5</ele>
        <time>2022-05-27T07:26:15Z</time>
      </trkpt>
      <trkpt lat="48.01793" lon="6.87725">
        <ele>961.2</ele>
        <time>2022-05-27T07:26:19Z</time>
      </trkpt>
      <trkpt lat="48.01788" lon="6.87708">
        <ele>962.3</ele>
        <time>2022-05-27T07:26:23Z</time>
      </trkpt>
      <trkpt lat="48.01783" lon="6.87696">
        <ele>962.3</ele>
        <time>2022-05-27T07:26:26Z</time>
      </trkpt>
      <trkpt lat="48.01777" lon="6.87686">
        <ele>963.3</ele>
        <time>2022-05-27T07:26:29Z</time>
      </trkpt>
      <trkpt lat="48.0177" lon="6.87673">
        <ele>963.1</ele>
        <time>2022-05-27T07:26:33Z</time>
      </trkpt>
      <trkpt lat="48.01766" lon="6.87659">
        <ele>963.2</ele>
        <time>2022-05-27T07:26:36Z</time>
      </trkpt>
      <trkpt lat="48.01764" lon="6.87643">
        <ele>962.7</ele>
        <time>2022-05-27T07:26:39Z</time>
      </trkpt>
      <trkpt lat="48.01762" lon="6.87628">
        <ele>963</ele>
        <time>2022-05-27T07:26:42Z</time>
      </trkpt>
      <trkpt lat="48.01759" lon="6.87614">
        <ele>963.5</ele>
        <time>2022-05-27T07:26:45Z</time>
      </trkpt>
      <trkpt lat="48.01756" lon="6.87601">
        <ele>963.8</ele>
        <time>2022-05-27T07:26:48Z</time>
      </trkpt>
      <trkpt lat="48.0175" lon="6.87586">
        <ele>963.3</ele>
        <time>2022-05-27T07:26:51Z</time>
      </trkpt>
      <trkpt lat="48.01739" lon="6.87574">
        <ele>962.7</ele>
        <time>2022-05-27T07:26:54Z</time>
      </trkpt>
      <trkpt lat="48.01731" lon="6.87568">
        <ele>962.7</ele>
        <time>2022-05-27T07:26:56Z</time>
      </trkpt>
      <trkpt lat="48.0172" lon="6.87559">
        <ele>962.3</ele>
        <time>2022-05-27T07:26:59Z</time>
      </trkpt>
      <trkpt lat="48.01712" lon="6.87548">
        <ele>963.2</ele>
        <time>2022-05-27T07:27:02Z</time>
      </trkpt>
      <trkpt lat="48.01708" lon="6.87534">
        <ele>963.7</ele>
        <time>2022-05-27T07:27:05Z</time>
      </trkpt>
      <trkpt lat="48.01709" lon="6.87519">
        <ele>964.4</ele>
        <time>2022-05-27T07:27:09Z</time>
      </trkpt>
      <trkpt lat="48.0171" lon="6.87503">
        <ele>965.4</ele>
        <time>2022-05-27T07:27:13Z</time>
      </trkpt>
      <trkpt lat="48.01709" lon="6.87486">
        <ele>965.1</ele>
        <time>2022-05-27T07:27:17Z</time>
      </trkpt>
      <trkpt lat="48.01707" lon="6.87473">
        <ele>965.9</ele>
        <time>2022-05-27T07:27:20Z</time>
      </trkpt>
      <trkpt lat="48.01709" lon="6.87456">
        <ele>966.5</ele>
        <time>2022-05-27T07:27:24Z</time>
      </trkpt>
      <trkpt lat="48.01714" lon="6.87443">
        <ele>967.3</ele>
        <time>2022-05-27T07:27:28Z</time>
      </trkpt>
      <trkpt lat="48.01721" lon="6.87432">
        <ele>968.1</ele>
        <time>2022-05-27T07:27:32Z</time>
      </trkpt>
      <trkpt lat="48.01729" lon="6.87423">
        <ele>968.6</ele>
        <time>2022-05-27T07:27:36Z</time>
      </trkpt>
      <trkpt lat="48.01736" lon="6.87414">
        <ele>969.9</ele>
        <time>2022-05-27T07:27:40Z</time>
      </trkpt>
      <trkpt lat="48.01742" lon="6.874">
        <ele>970.4</ele>
        <time>2022-05-27T07:27:45Z</time>
      </trkpt>
      <trkpt lat="48.01745" lon="6.87385">
        <ele>971.7</ele>
        <time>2022-05-27T07:27:50Z</time>
      </trkpt>
      <trkpt lat="48.01745" lon="6.8737">
        <ele>973.5</ele>
        <time>2022-05-27T07:27:55Z</time>
      </trkpt>
      <trkpt lat="48.01743" lon="6.87356">
        <ele>973.7</ele>
        <time>2022-05-27T07:28:00Z</time>
      </trkpt>
      <trkpt lat="48.0174" lon="6.87343">
        <ele>975.2</ele>
        <time>2022-05-27T07:28:05Z</time>
      </trkpt>
      <trkpt lat="48.01738" lon="6.8733">
        <ele>977.3</ele>
        <time>2022-05-27T07:28:10Z</time>
      </trkpt>
      <trkpt lat="48.01737" lon="6.87316">
        <ele>977.9</ele>
        <time>2022-05-27T07:28:15Z</time>
      </trkpt>
      <trkpt lat="48.01735" lon="6.87302">
        <ele>979.4</ele>
        <time>2022-05-27T07:28:20Z</time>
      </trkpt>
      <trkpt lat="48.01735" lon="6.87288">
        <ele>980.3</ele>
        <time>2022-05-27T07:28:26Z</time>
      </trkpt>
      <trkpt lat="48.01734" lon="6.87272">
        <ele>979.6</ele>
        <time>2022-05-27T07:28:33Z</time>
      </trkpt>
      <trkpt lat="48.01737" lon="6.87259">
        <ele>979.4</ele>
        <time>2022-05-27T07:28:36Z</time>
      </trkpt>
      <trkpt lat="48.0174" lon="6.87245">
        <ele>978.5</ele>
        <time>2022-05-27T07:28:38Z</time>
      </trkpt>
      <trkpt lat="48.01744" lon="6.87226">
        <ele>975.8</ele>
        <time>2022-05-27T07:28:40Z</time>
      </trkpt>
      <trkpt lat="48.01746" lon="6.87206">
        <ele>974.5</ele>
        <time>2022-05-27T07:28:42Z</time>
      </trkpt>
      <trkpt lat="48.01742" lon="6.87191">
        <ele>974.3</ele>
        <time>2022-05-27T07:28:44Z</time>
      </trkpt>
      <trkpt lat="48.01733" lon="6.8718">
        <ele>974.4</ele>
        <time>2022-05-27T07:28:46Z</time>
      </trkpt>
      <trkpt lat="48.01724" lon="6.87168">
        <ele>974.5</ele>
        <time>2022-05-27T07:28:48Z</time>
      </trkpt>
      <trkpt lat="48.01717" lon="6.87153">
        <ele>972.6</ele>
        <time>2022-05-27T07:28:50Z</time>
      </trkpt>
      <trkpt lat="48.0171" lon="6.87136">
        <ele>973.2</ele>
        <time>2022-05-27T07:28:52Z</time>
      </trkpt>
      <trkpt lat="48.017" lon="6.87121">
        <ele>972.3</ele>
        <time>2022-05-27T07:28:54Z</time>
      </trkpt>
      <trkpt lat="48.0169" lon="6.87108">
        <ele>972.6</ele>
        <time>2022-05-27T07:28:56Z</time>
      </trkpt>
      <trkpt lat="48.01681" lon="6.87097">
        <ele>971.1</ele>
        <time>2022-05-27T07:28:58Z</time>
      </trkpt>
      <trkpt lat="48.01672" lon="6.87087">
        <ele>971.9</ele>
        <time>2022-05-27T07:29:00Z</time>
      </trkpt>
      <trkpt lat="48.01664" lon="6.87075">
        <ele>971.5</ele>
        <time>2022-05-27T07:29:02Z</time>
      </trkpt>
      <trkpt lat="48.01659" lon="6.87061">
        <ele>972.7</ele>
        <time>2022-05-27T07:29:04Z</time>
      </trkpt>
      <trkpt lat="48.01655" lon="6.87045">
        <ele>972.1</ele>
        <time>2022-05-27T07:29:06Z</time>
      </trkpt>
      <trkpt lat="48.01653" lon="6.87026">
        <ele>970.4</ele>
        <time>2022-05-27T07:29:08Z</time>
      </trkpt>
      <trkpt lat="48.01653" lon="6.87008">
        <ele>969.8</ele>
        <time>2022-05-27T07:29:10Z</time>
      </trkpt>
      <trkpt lat="48.01653" lon="6.86993">
        <ele>968.7</ele>
        <time>2022-05-27T07:29:12Z</time>
      </trkpt>
      <trkpt lat="48.01656" lon="6.8698">
        <ele>969.2</ele>
        <time>2022-05-27T07:29:14Z</time>
      </trkpt>
      <trkpt lat="48.0166" lon="6.86961">
        <ele>968.7</ele>
        <time>2022-05-27T07:29:17Z</time>
      </trkpt>
      <trkpt lat="48.01663" lon="6.86947">
        <ele>964.8</ele>
        <time>2022-05-27T07:29:19Z</time>
      </trkpt>
      <trkpt lat="48.01666" lon="6.86932">
        <ele>965.9</ele>
        <time>2022-05-27T07:29:21Z</time>
      </trkpt>
      <trkpt lat="48.01671" lon="6.86918">
        <ele>965</ele>
        <time>2022-05-27T07:29:23Z</time>
      </trkpt>
      <trkpt lat="48.01673" lon="6.86902">
        <ele>965.2</ele>
        <time>2022-05-27T07:29:25Z</time>
      </trkpt>
      <trkpt lat="48.01669" lon="6.86887">
        <ele>964</ele>
        <time>2022-05-27T07:29:28Z</time>
      </trkpt>
      <trkpt lat="48.01659" lon="6.8688">
        <ele>964.5</ele>
        <time>2022-05-27T07:29:32Z</time>
      </trkpt>
      <trkpt lat="48.0165" lon="6.86876">
        <ele>964.9</ele>
        <time>2022-05-27T07:29:35Z</time>
      </trkpt>
      <trkpt lat="48.0164" lon="6.86872">
        <ele>964.6</ele>
        <time>2022-05-27T07:29:38Z</time>
      </trkpt>
      <trkpt lat="48.01631" lon="6.86869">
        <ele>966.6</ele>
        <time>2022-05-27T07:29:41Z</time>
      </trkpt>
      <trkpt lat="48.01619" lon="6.86863">
        <ele>966.5</ele>
        <time>2022-05-27T07:29:44Z</time>
      </trkpt>
      <trkpt lat="48.01609" lon="6.8686">
        <ele>966.8</ele>
        <time>2022-05-27T07:29:47Z</time>
      </trkpt>
      <trkpt lat="48.01597" lon="6.86864">
        <ele>968.9</ele>
        <time>2022-05-27T07:29:50Z</time>
      </trkpt>
      <trkpt lat="48.01586" lon="6.86871">
        <ele>969.7</ele>
        <time>2022-05-27T07:29:53Z</time>
      </trkpt>
      <trkpt lat="48.01575" lon="6.86874">
        <ele>970.6</ele>
        <time>2022-05-27T07:29:56Z</time>
      </trkpt>
      <trkpt lat="48.01564" lon="6.86872">
        <ele>969.9</ele>
        <time>2022-05-27T07:29:59Z</time>
      </trkpt>
      <trkpt lat="48.01553" lon="6.86864">
        <ele>969.5</ele>
        <time>2022-05-27T07:30:02Z</time>
      </trkpt>
      <trkpt lat="48.01545" lon="6.8685">
        <ele>971.3</ele>
        <time>2022-05-27T07:30:05Z</time>
      </trkpt>
      <trkpt lat="48.01538" lon="6.86834">
        <ele>971.7</ele>
        <time>2022-05-27T07:30:08Z</time>
      </trkpt>
      <trkpt lat="48.01532" lon="6.86822">
        <ele>971.6</ele>
        <time>2022-05-27T07:30:11Z</time>
      </trkpt>
      <trkpt lat="48.01528" lon="6.86814">
        <ele>971.8</ele>
        <time>2022-05-27T07:30:17Z</time>
      </trkpt>
      <trkpt lat="48.01528" lon="6.86814">
        <ele>971.9</ele>
        <time>2022-05-27T07:30:54Z</time>
      </trkpt>
      <trkpt lat="48.01524" lon="6.86798">
        <ele>972.6</ele>
        <time>2022-05-27T07:30:59Z</time>
      </trkpt>
      <trkpt lat="48.01521" lon="6.86781">
        <ele>972.8</ele>
        <time>2022-05-27T07:31:02Z</time>
      </trkpt>
      <trkpt lat="48.01519" lon="6.86767">
        <ele>972.8</ele>
        <time>2022-05-27T07:31:04Z</time>
      </trkpt>
      <trkpt lat="48.01518" lon="6.86753">
        <ele>972.2</ele>
        <time>2022-05-27T07:31:06Z</time>
      </trkpt>
      <trkpt lat="48.01519" lon="6.86732">
        <ele>973</ele>
        <time>2022-05-27T07:31:09Z</time>
      </trkpt>
      <trkpt lat="48.01521" lon="6.86715">
        <ele>970.6</ele>
        <time>2022-05-27T07:31:11Z</time>
      </trkpt>
      <trkpt lat="48.01521" lon="6.86696">
        <ele>968.8</ele>
        <time>2022-05-27T07:31:13Z</time>
      </trkpt>
      <trkpt lat="48.01522" lon="6.86676">
        <ele>970</ele>
        <time>2022-05-27T07:31:15Z</time>
      </trkpt>
      <trkpt lat="48.01523" lon="6.86657">
        <ele>970</ele>
        <time>2022-05-27T07:31:17Z</time>
      </trkpt>
      <trkpt lat="48.01521" lon="6.86639">
        <ele>970</ele>
        <time>2022-05-27T07:31:19Z</time>
      </trkpt>
      <trkpt lat="48.01519" lon="6.86623">
        <ele>969.5</ele>
        <time>2022-05-27T07:31:21Z</time>
      </trkpt>
      <trkpt lat="48.01517" lon="6.86605">
        <ele>971</ele>
        <time>2022-05-27T07:31:24Z</time>
      </trkpt>
      <trkpt lat="48.01516" lon="6.86589">
        <ele>970.6</ele>
        <time>2022-05-27T07:31:27Z</time>
      </trkpt>
      <trkpt lat="48.01513" lon="6.86575">
        <ele>972.4</ele>
        <time>2022-05-27T07:31:31Z</time>
      </trkpt>
      <trkpt lat="48.01512" lon="6.86558">
        <ele>972.3</ele>
        <time>2022-05-27T07:31:35Z</time>
      </trkpt>
      <trkpt lat="48.01509" lon="6.86542">
        <ele>972.2</ele>
        <time>2022-05-27T07:31:38Z</time>
      </trkpt>
      <trkpt lat="48.01501" lon="6.8653">
        <ele>971.4</ele>
        <time>2022-05-27T07:31:41Z</time>
      </trkpt>
      <trkpt lat="48.0149" lon="6.86526">
        <ele>973.4</ele>
        <time>2022-05-27T07:31:45Z</time>
      </trkpt>
      <trkpt lat="48.0148" lon="6.86524">
        <ele>973.2</ele>
        <time>2022-05-27T07:31:49Z</time>
      </trkpt>
      <trkpt lat="48.01475" lon="6.86511">
        <ele>974.7</ele>
        <time>2022-05-27T07:31:54Z</time>
      </trkpt>
      <trkpt lat="48.01474" lon="6.86506">
        <ele>974.8</ele>
        <time>2022-05-27T07:31:58Z</time>
      </trkpt>
      <trkpt lat="48.01475" lon="6.86506">
        <ele>974.7</ele>
        <time>2022-05-27T07:32:02Z</time>
      </trkpt>
      <trkpt lat="48.01475" lon="6.86502">
        <ele>974.5</ele>
        <time>2022-05-27T07:32:09Z</time>
      </trkpt>
      <trkpt lat="48.01475" lon="6.86501">
        <ele>974.4</ele>
        <time>2022-05-27T07:32:11Z</time>
      </trkpt>
      <trkpt lat="48.01477" lon="6.86485">
        <ele>974.6</ele>
        <time>2022-05-27T07:32:16Z</time>
      </trkpt>
      <trkpt lat="48.01477" lon="6.86471">
        <ele>975.2</ele>
        <time>2022-05-27T07:32:19Z</time>
      </trkpt>
      <trkpt lat="48.01474" lon="6.86456">
        <ele>975.8</ele>
        <time>2022-05-27T07:32:22Z</time>
      </trkpt>
      <trkpt lat="48.01475" lon="6.86442">
        <ele>976.8</ele>
        <time>2022-05-27T07:32:25Z</time>
      </trkpt>
      <trkpt lat="48.0148" lon="6.86429">
        <ele>977.4</ele>
        <time>2022-05-27T07:32:28Z</time>
      </trkpt>
      <trkpt lat="48.01486" lon="6.86417">
        <ele>977.6</ele>
        <time>2022-05-27T07:32:31Z</time>
      </trkpt>
      <trkpt lat="48.01495" lon="6.86405">
        <ele>977.2</ele>
        <time>2022-05-27T07:32:34Z</time>
      </trkpt>
      <trkpt lat="48.01503" lon="6.86393">
        <ele>977.6</ele>
        <time>2022-05-27T07:32:37Z</time>
      </trkpt>
      <trkpt lat="48.01509" lon="6.86382">
        <ele>977.2</ele>
        <time>2022-05-27T07:32:40Z</time>
      </trkpt>
      <trkpt lat="48.01516" lon="6.8637">
        <ele>977.8</ele>
        <time>2022-05-27T07:32:43Z</time>
      </trkpt>
      <trkpt lat="48.01518" lon="6.86357">
        <ele>977.1</ele>
        <time>2022-05-27T07:32:46Z</time>
      </trkpt>
      <trkpt lat="48.01512" lon="6.86345">
        <ele>979.7</ele>
        <time>2022-05-27T07:32:50Z</time>
      </trkpt>
      <trkpt lat="48.01502" lon="6.86344">
        <ele>980.6</ele>
        <time>2022-05-27T07:32:55Z</time>
      </trkpt>
      <trkpt lat="48.01491" lon="6.86346">
        <ele>982</ele>
        <time>2022-05-27T07:33:00Z</time>
      </trkpt>
      <trkpt lat="48.01481" lon="6.86348">
        <ele>982.8</ele>
        <time>2022-05-27T07:33:04Z</time>
      </trkpt>
      <trkpt lat="48.0147" lon="6.86351">
        <ele>982.9</ele>
        <time>2022-05-27T07:33:09Z</time>
      </trkpt>
      <trkpt lat="48.01461" lon="6.86355">
        <ele>984.2</ele>
        <time>2022-05-27T07:33:13Z</time>
      </trkpt>
      <trkpt lat="48.01453" lon="6.86361">
        <ele>985.5</ele>
        <time>2022-05-27T07:33:17Z</time>
      </trkpt>
      <trkpt lat="48.01443" lon="6.86366">
        <ele>986.4</ele>
        <time>2022-05-27T07:33:22Z</time>
      </trkpt>
      <trkpt lat="48.01432" lon="6.86368">
        <ele>986.7</ele>
        <time>2022-05-27T07:33:27Z</time>
      </trkpt>
      <trkpt lat="48.01423" lon="6.86364">
        <ele>987.4</ele>
        <time>2022-05-27T07:33:31Z</time>
      </trkpt>
      <trkpt lat="48.01416" lon="6.86355">
        <ele>988.3</ele>
        <time>2022-05-27T07:33:35Z</time>
      </trkpt>
      <trkpt lat="48.01409" lon="6.86343">
        <ele>988.3</ele>
        <time>2022-05-27T07:33:39Z</time>
      </trkpt>
      <trkpt lat="48.01403" lon="6.86329">
        <ele>988.3</ele>
        <time>2022-05-27T07:33:43Z</time>
      </trkpt>
      <trkpt lat="48.01397" lon="6.86314">
        <ele>988.7</ele>
        <time>2022-05-27T07:33:47Z</time>
      </trkpt>
      <trkpt lat="48.0139" lon="6.86301">
        <ele>989.3</ele>
        <time>2022-05-27T07:33:51Z</time>
      </trkpt>
      <trkpt lat="48.01382" lon="6.86292">
        <ele>990.1</ele>
        <time>2022-05-27T07:33:55Z</time>
      </trkpt>
      <trkpt lat="48.01373" lon="6.86284">
        <ele>991.7</ele>
        <time>2022-05-27T07:33:59Z</time>
      </trkpt>
      <trkpt lat="48.01366" lon="6.86276">
        <ele>992.8</ele>
        <time>2022-05-27T07:34:03Z</time>
      </trkpt>
      <trkpt lat="48.0136" lon="6.86263">
        <ele>993.4</ele>
        <time>2022-05-27T07:34:08Z</time>
      </trkpt>
      <trkpt lat="48.01354" lon="6.8625">
        <ele>992.3</ele>
        <time>2022-05-27T07:34:13Z</time>
      </trkpt>
      <trkpt lat="48.01347" lon="6.86237">
        <ele>993.1</ele>
        <time>2022-05-27T07:34:17Z</time>
      </trkpt>
      <trkpt lat="48.0134" lon="6.86228">
        <ele>992.9</ele>
        <time>2022-05-27T07:34:20Z</time>
      </trkpt>
      <trkpt lat="48.01332" lon="6.86218">
        <ele>993.6</ele>
        <time>2022-05-27T07:34:23Z</time>
      </trkpt>
      <trkpt lat="48.01323" lon="6.86209">
        <ele>993.9</ele>
        <time>2022-05-27T07:34:26Z</time>
      </trkpt>
      <trkpt lat="48.01314" lon="6.862">
        <ele>995.2</ele>
        <time>2022-05-27T07:34:29Z</time>
      </trkpt>
      <trkpt lat="48.01309" lon="6.86189">
        <ele>994.5</ele>
        <time>2022-05-27T07:34:32Z</time>
      </trkpt>
      <trkpt lat="48.01304" lon="6.86177">
        <ele>995.7</ele>
        <time>2022-05-27T07:34:35Z</time>
      </trkpt>
      <trkpt lat="48.013" lon="6.86161">
        <ele>995.2</ele>
        <time>2022-05-27T07:34:39Z</time>
      </trkpt>
      <trkpt lat="48.01298" lon="6.86145">
        <ele>996.1</ele>
        <time>2022-05-27T07:34:43Z</time>
      </trkpt>
      <trkpt lat="48.01294" lon="6.86133">
        <ele>996.5</ele>
        <time>2022-05-27T07:34:48Z</time>
      </trkpt>
      <trkpt lat="48.01285" lon="6.8613">
        <ele>996.4</ele>
        <time>2022-05-27T07:34:52Z</time>
      </trkpt>
      <trkpt lat="48.01276" lon="6.86133">
        <ele>996.7</ele>
        <time>2022-05-27T07:34:55Z</time>
      </trkpt>
      <trkpt lat="48.01262" lon="6.86136">
        <ele>995.2</ele>
        <time>2022-05-27T07:34:58Z</time>
      </trkpt>
      <trkpt lat="48.01251" lon="6.86136">
        <ele>991.6</ele>
        <time>2022-05-27T07:35:00Z</time>
      </trkpt>
      <trkpt lat="48.01238" lon="6.86135">
        <ele>991.3</ele>
        <time>2022-05-27T07:35:02Z</time>
      </trkpt>
      <trkpt lat="48.01224" lon="6.8613">
        <ele>991</ele>
        <time>2022-05-27T07:35:04Z</time>
      </trkpt>
      <trkpt lat="48.0121" lon="6.86122">
        <ele>991.6</ele>
        <time>2022-05-27T07:35:06Z</time>
      </trkpt>
      <trkpt lat="48.01198" lon="6.86113">
        <ele>990.3</ele>
        <time>2022-05-27T07:35:08Z</time>
      </trkpt>
      <trkpt lat="48.01186" lon="6.86105">
        <ele>989.6</ele>
        <time>2022-05-27T07:35:10Z</time>
      </trkpt>
      <trkpt lat="48.01172" lon="6.86099">
        <ele>987.3</ele>
        <time>2022-05-27T07:35:12Z</time>
      </trkpt>
      <trkpt lat="48.01158" lon="6.86092">
        <ele>986.3</ele>
        <time>2022-05-27T07:35:14Z</time>
      </trkpt>
      <trkpt lat="48.01144" lon="6.86089">
        <ele>987.7</ele>
        <time>2022-05-27T07:35:16Z</time>
      </trkpt>
      <trkpt lat="48.01131" lon="6.86087">
        <ele>989.2</ele>
        <time>2022-05-27T07:35:18Z</time>
      </trkpt>
      <trkpt lat="48.01118" lon="6.86088">
        <ele>986.1</ele>
        <time>2022-05-27T07:35:20Z</time>
      </trkpt>
      <trkpt lat="48.01104" lon="6.86088">
        <ele>986.5</ele>
        <time>2022-05-27T07:35:22Z</time>
      </trkpt>
      <trkpt lat="48.01091" lon="6.86086">
        <ele>986.3</ele>
        <time>2022-05-27T07:35:24Z</time>
      </trkpt>
      <trkpt lat="48.0108" lon="6.86081">
        <ele>986.5</ele>
        <time>2022-05-27T07:35:26Z</time>
      </trkpt>
      <trkpt lat="48.01071" lon="6.86071">
        <ele>987.5</ele>
        <time>2022-05-27T07:35:28Z</time>
      </trkpt>
      <trkpt lat="48.01063" lon="6.86059">
        <ele>986.9</ele>
        <time>2022-05-27T07:35:30Z</time>
      </trkpt>
      <trkpt lat="48.01055" lon="6.86047">
        <ele>987.5</ele>
        <time>2022-05-27T07:35:32Z</time>
      </trkpt>
      <trkpt lat="48.0105" lon="6.86033">
        <ele>988.6</ele>
        <time>2022-05-27T07:35:34Z</time>
      </trkpt>
      <trkpt lat="48.01046" lon="6.8602">
        <ele>989.1</ele>
        <time>2022-05-27T07:35:36Z</time>
      </trkpt>
      <trkpt lat="48.01042" lon="6.86007">
        <ele>987.3</ele>
        <time>2022-05-27T07:35:38Z</time>
      </trkpt>
      <trkpt lat="48.01036" lon="6.85992">
        <ele>987.3</ele>
        <time>2022-05-27T07:35:41Z</time>
      </trkpt>
      <trkpt lat="48.01028" lon="6.85982">
        <ele>988.1</ele>
        <time>2022-05-27T07:35:44Z</time>
      </trkpt>
      <trkpt lat="48.01021" lon="6.8597">
        <ele>989.6</ele>
        <time>2022-05-27T07:35:47Z</time>
      </trkpt>
      <trkpt lat="48.01015" lon="6.85957">
        <ele>991.1</ele>
        <time>2022-05-27T07:35:50Z</time>
      </trkpt>
      <trkpt lat="48.01011" lon="6.8595">
        <ele>990.4</ele>
        <time>2022-05-27T07:35:55Z</time>
      </trkpt>
      <trkpt lat="48.01011" lon="6.85951">
        <ele>990.5</ele>
        <time>2022-05-27T07:35:59Z</time>
      </trkpt>
      <trkpt lat="48.01011" lon="6.85951">
        <ele>990.4</ele>
        <time>2022-05-27T07:36:27Z</time>
      </trkpt>
      <trkpt lat="48.01012" lon="6.85949">
        <ele>991</ele>
        <time>2022-05-27T07:36:30Z</time>
      </trkpt>
      <trkpt lat="48.01011" lon="6.85949">
        <ele>990.8</ele>
        <time>2022-05-27T07:36:33Z</time>
      </trkpt>
      <trkpt lat="48.01012" lon="6.85949">
        <ele>990.9</ele>
        <time>2022-05-27T07:36:35Z</time>
      </trkpt>
      <trkpt lat="48.01011" lon="6.85948">
        <ele>991.1</ele>
        <time>2022-05-27T07:36:37Z</time>
      </trkpt>
      <trkpt lat="48.01008" lon="6.85935">
        <ele>992.4</ele>
        <time>2022-05-27T07:36:42Z</time>
      </trkpt>
      <trkpt lat="48.01005" lon="6.85922">
        <ele>992.1</ele>
        <time>2022-05-27T07:36:46Z</time>
      </trkpt>
      <trkpt lat="48.01005" lon="6.85905">
        <ele>995</ele>
        <time>2022-05-27T07:36:51Z</time>
      </trkpt>
      <trkpt lat="48.01006" lon="6.85889">
        <ele>996.5</ele>
        <time>2022-05-27T07:36:56Z</time>
      </trkpt>
      <trkpt lat="48.01009" lon="6.85874">
        <ele>997.9</ele>
        <time>2022-05-27T07:37:01Z</time>
      </trkpt>
      <trkpt lat="48.01011" lon="6.8586">
        <ele>998.5</ele>
        <time>2022-05-27T07:37:05Z</time>
      </trkpt>
      <trkpt lat="48.01013" lon="6.85846">
        <ele>999</ele>
        <time>2022-05-27T07:37:09Z</time>
      </trkpt>
      <trkpt lat="48.01014" lon="6.85833">
        <ele>999.6</ele>
        <time>2022-05-27T07:37:13Z</time>
      </trkpt>
      <trkpt lat="48.01013" lon="6.85816">
        <ele>1000.3</ele>
        <time>2022-05-27T07:37:18Z</time>
      </trkpt>
      <trkpt lat="48.01011" lon="6.858">
        <ele>1001.7</ele>
        <time>2022-05-27T07:37:23Z</time>
      </trkpt>
      <trkpt lat="48.01013" lon="6.85785">
        <ele>1003.3</ele>
        <time>2022-05-27T07:37:29Z</time>
      </trkpt>
      <trkpt lat="48.01016" lon="6.85771">
        <ele>1004.3</ele>
        <time>2022-05-27T07:37:34Z</time>
      </trkpt>
      <trkpt lat="48.01018" lon="6.85758">
        <ele>1005.2</ele>
        <time>2022-05-27T07:37:39Z</time>
      </trkpt>
      <trkpt lat="48.01017" lon="6.85744">
        <ele>1006</ele>
        <time>2022-05-27T07:37:44Z</time>
      </trkpt>
      <trkpt lat="48.01014" lon="6.85729">
        <ele>1007.2</ele>
        <time>2022-05-27T07:37:49Z</time>
      </trkpt>
      <trkpt lat="48.0101" lon="6.85715">
        <ele>1007.9</ele>
        <time>2022-05-27T07:37:55Z</time>
      </trkpt>
      <trkpt lat="48.01008" lon="6.85701">
        <ele>1007.1</ele>
        <time>2022-05-27T07:37:59Z</time>
      </trkpt>
      <trkpt lat="48.01006" lon="6.85686">
        <ele>1007.5</ele>
        <time>2022-05-27T07:38:02Z</time>
      </trkpt>
      <trkpt lat="48.01006" lon="6.85671">
        <ele>1007.5</ele>
        <time>2022-05-27T07:38:05Z</time>
      </trkpt>
      <trkpt lat="48.01005" lon="6.85657">
        <ele>1008.4</ele>
        <time>2022-05-27T07:38:08Z</time>
      </trkpt>
      <trkpt lat="48.01004" lon="6.85641">
        <ele>1009</ele>
        <time>2022-05-27T07:38:12Z</time>
      </trkpt>
      <trkpt lat="48.01005" lon="6.85625">
        <ele>1008.5</ele>
        <time>2022-05-27T07:38:16Z</time>
      </trkpt>
      <trkpt lat="48.01005" lon="6.85611">
        <ele>1008.4</ele>
        <time>2022-05-27T07:38:19Z</time>
      </trkpt>
      <trkpt lat="48.01007" lon="6.85594">
        <ele>1009.7</ele>
        <time>2022-05-27T07:38:23Z</time>
      </trkpt>
      <trkpt lat="48.0101" lon="6.85579">
        <ele>1010.6</ele>
        <time>2022-05-27T07:38:27Z</time>
      </trkpt>
      <trkpt lat="48.01013" lon="6.85565">
        <ele>1008.5</ele>
        <time>2022-05-27T07:38:30Z</time>
      </trkpt>
      <trkpt lat="48.01018" lon="6.85549">
        <ele>1007.3</ele>
        <time>2022-05-27T07:38:33Z</time>
      </trkpt>
      <trkpt lat="48.01022" lon="6.85537">
        <ele>1008.6</ele>
        <time>2022-05-27T07:38:35Z</time>
      </trkpt>
      <trkpt lat="48.01027" lon="6.8552">
        <ele>1009.5</ele>
        <time>2022-05-27T07:38:38Z</time>
      </trkpt>
      <trkpt lat="48.01029" lon="6.85506">
        <ele>1009.5</ele>
        <time>2022-05-27T07:38:41Z</time>
      </trkpt>
      <trkpt lat="48.01031" lon="6.85487">
        <ele>1009</ele>
        <time>2022-05-27T07:38:45Z</time>
      </trkpt>
      <trkpt lat="48.01034" lon="6.85469">
        <ele>1007.9</ele>
        <time>2022-05-27T07:38:48Z</time>
      </trkpt>
      <trkpt lat="48.01037" lon="6.85454">
        <ele>1009.7</ele>
        <time>2022-05-27T07:38:51Z</time>
      </trkpt>
      <trkpt lat="48.01039" lon="6.85439">
        <ele>1008.1</ele>
        <time>2022-05-27T07:38:54Z</time>
      </trkpt>
      <trkpt lat="48.01043" lon="6.85424">
        <ele>1007.5</ele>
        <time>2022-05-27T07:38:57Z</time>
      </trkpt>
      <trkpt lat="48.01047" lon="6.8541">
        <ele>1008.2</ele>
        <time>2022-05-27T07:39:00Z</time>
      </trkpt>
      <trkpt lat="48.01054" lon="6.85399">
        <ele>1008.3</ele>
        <time>2022-05-27T07:39:03Z</time>
      </trkpt>
      <trkpt lat="48.01063" lon="6.85389">
        <ele>1008.7</ele>
        <time>2022-05-27T07:39:06Z</time>
      </trkpt>
      <trkpt lat="48.01072" lon="6.85381">
        <ele>1008.8</ele>
        <time>2022-05-27T07:39:09Z</time>
      </trkpt>
      <trkpt lat="48.0108" lon="6.85369">
        <ele>1008.6</ele>
        <time>2022-05-27T07:39:13Z</time>
      </trkpt>
      <trkpt lat="48.01085" lon="6.85355">
        <ele>1009.6</ele>
        <time>2022-05-27T07:39:18Z</time>
      </trkpt>
      <trkpt lat="48.01089" lon="6.85341">
        <ele>1010.7</ele>
        <time>2022-05-27T07:39:23Z</time>
      </trkpt>
      <trkpt lat="48.01094" lon="6.85325">
        <ele>1011.9</ele>
        <time>2022-05-27T07:39:28Z</time>
      </trkpt>
      <trkpt lat="48.01097" lon="6.85311">
        <ele>1012.4</ele>
        <time>2022-05-27T07:39:32Z</time>
      </trkpt>
      <trkpt lat="48.01101" lon="6.85295">
        <ele>1013.1</ele>
        <time>2022-05-27T07:39:36Z</time>
      </trkpt>
      <trkpt lat="48.01103" lon="6.85277">
        <ele>1014.3</ele>
        <time>2022-05-27T07:39:40Z</time>
      </trkpt>
      <trkpt lat="48.01106" lon="6.85263">
        <ele>1013.8</ele>
        <time>2022-05-27T07:39:43Z</time>
      </trkpt>
      <trkpt lat="48.0111" lon="6.8525">
        <ele>1014.6</ele>
        <time>2022-05-27T07:39:46Z</time>
      </trkpt>
      <trkpt lat="48.01116" lon="6.85236">
        <ele>1015.1</ele>
        <time>2022-05-27T07:39:50Z</time>
      </trkpt>
      <trkpt lat="48.01122" lon="6.8522">
        <ele>1015.4</ele>
        <time>2022-05-27T07:39:54Z</time>
      </trkpt>
      <trkpt lat="48.01125" lon="6.85207">
        <ele>1015.7</ele>
        <time>2022-05-27T07:39:57Z</time>
      </trkpt>
      <trkpt lat="48.0113" lon="6.85191">
        <ele>1015.8</ele>
        <time>2022-05-27T07:40:01Z</time>
      </trkpt>
      <trkpt lat="48.01135" lon="6.85176">
        <ele>1016.2</ele>
        <time>2022-05-27T07:40:05Z</time>
      </trkpt>
      <trkpt lat="48.01143" lon="6.85164">
        <ele>1015.4</ele>
        <time>2022-05-27T07:40:09Z</time>
      </trkpt>
      <trkpt lat="48.01154" lon="6.85158">
        <ele>1015.7</ele>
        <time>2022-05-27T07:40:12Z</time>
      </trkpt>
      <trkpt lat="48.01166" lon="6.85151">
        <ele>1012.8</ele>
        <time>2022-05-27T07:40:15Z</time>
      </trkpt>
      <trkpt lat="48.01176" lon="6.85147">
        <ele>1011.6</ele>
        <time>2022-05-27T07:40:17Z</time>
      </trkpt>
      <trkpt lat="48.01187" lon="6.85147">
        <ele>1013.4</ele>
        <time>2022-05-27T07:40:19Z</time>
      </trkpt>
      <trkpt lat="48.01196" lon="6.85151">
        <ele>1013.5</ele>
        <time>2022-05-27T07:40:21Z</time>
      </trkpt>
      <trkpt lat="48.01205" lon="6.85156">
        <ele>1012.2</ele>
        <time>2022-05-27T07:40:24Z</time>
      </trkpt>
      <trkpt lat="48.01216" lon="6.85161">
        <ele>1012.2</ele>
        <time>2022-05-27T07:40:28Z</time>
      </trkpt>
      <trkpt lat="48.01226" lon="6.85168">
        <ele>1012.7</ele>
        <time>2022-05-27T07:40:32Z</time>
      </trkpt>
      <trkpt lat="48.01236" lon="6.85169">
        <ele>1011.5</ele>
        <time>2022-05-27T07:40:35Z</time>
      </trkpt>
      <trkpt lat="48.01247" lon="6.85165">
        <ele>1009.4</ele>
        <time>2022-05-27T07:40:37Z</time>
      </trkpt>
      <trkpt lat="48.0126" lon="6.85156">
        <ele>1009.1</ele>
        <time>2022-05-27T07:40:39Z</time>
      </trkpt>
      <trkpt lat="48.0127" lon="6.85148">
        <ele>1010.6</ele>
        <time>2022-05-27T07:40:41Z</time>
      </trkpt>
      <trkpt lat="48.0128" lon="6.85139">
        <ele>1010.5</ele>
        <time>2022-05-27T07:40:43Z</time>
      </trkpt>
      <trkpt lat="48.0129" lon="6.8513">
        <ele>1009.3</ele>
        <time>2022-05-27T07:40:45Z</time>
      </trkpt>
      <trkpt lat="48.013" lon="6.85122">
        <ele>1007.8</ele>
        <time>2022-05-27T07:40:47Z</time>
      </trkpt>
      <trkpt lat="48.0131" lon="6.85113">
        <ele>1008.5</ele>
        <time>2022-05-27T07:40:49Z</time>
      </trkpt>
      <trkpt lat="48.0132" lon="6.85106">
        <ele>1009.2</ele>
        <time>2022-05-27T07:40:51Z</time>
      </trkpt>
      <trkpt lat="48.0133" lon="6.85098">
        <ele>1010.3</ele>
        <time>2022-05-27T07:40:54Z</time>
      </trkpt>
      <trkpt lat="48.0134" lon="6.85089">
        <ele>1008.1</ele>
        <time>2022-05-27T07:40:57Z</time>
      </trkpt>
      <trkpt lat="48.01348" lon="6.8508">
        <ele>1005.4</ele>
        <time>2022-05-27T07:40:59Z</time>
      </trkpt>
      <trkpt lat="48.01359" lon="6.85069">
        <ele>1004.8</ele>
        <time>2022-05-27T07:41:01Z</time>
      </trkpt>
      <trkpt lat="48.01368" lon="6.85061">
        <ele>1005.6</ele>
        <time>2022-05-27T07:41:03Z</time>
      </trkpt>
      <trkpt lat="48.01379" lon="6.85057">
        <ele>1002.5</ele>
        <time>2022-05-27T07:41:06Z</time>
      </trkpt>
      <trkpt lat="48.0139" lon="6.85056">
        <ele>1000.3</ele>
        <time>2022-05-27T07:41:09Z</time>
      </trkpt>
      <trkpt lat="48.014" lon="6.85057">
        <ele>999.5</ele>
        <time>2022-05-27T07:41:11Z</time>
      </trkpt>
      <trkpt lat="48.01411" lon="6.85059">
        <ele>1000.8</ele>
        <time>2022-05-27T07:41:13Z</time>
      </trkpt>
      <trkpt lat="48.01422" lon="6.85061">
        <ele>998.6</ele>
        <time>2022-05-27T07:41:15Z</time>
      </trkpt>
      <trkpt lat="48.01431" lon="6.85063">
        <ele>997.3</ele>
        <time>2022-05-27T07:41:17Z</time>
      </trkpt>
      <trkpt lat="48.0144" lon="6.85067">
        <ele>996.7</ele>
        <time>2022-05-27T07:41:19Z</time>
      </trkpt>
      <trkpt lat="48.01449" lon="6.8507">
        <ele>996.5</ele>
        <time>2022-05-27T07:41:21Z</time>
      </trkpt>
      <trkpt lat="48.01459" lon="6.85073">
        <ele>996.5</ele>
        <time>2022-05-27T07:41:24Z</time>
      </trkpt>
      <trkpt lat="48.01464" lon="6.85061">
        <ele>995.7</ele>
        <time>2022-05-27T07:41:34Z</time>
      </trkpt>
      <trkpt lat="48.01455" lon="6.85052">
        <ele>993.7</ele>
        <time>2022-05-27T07:41:40Z</time>
      </trkpt>
      <trkpt lat="48.01446" lon="6.85049">
        <ele>992.2</ele>
        <time>2022-05-27T07:41:45Z</time>
      </trkpt>
      <trkpt lat="48.01436" lon="6.8504">
        <ele>990.4</ele>
        <time>2022-05-27T07:41:49Z</time>
      </trkpt>
      <trkpt lat="48.01428" lon="6.85026">
        <ele>990.8</ele>
        <time>2022-05-27T07:41:52Z</time>
      </trkpt>
      <trkpt lat="48.01421" lon="6.85012">
        <ele>990.7</ele>
        <time>2022-05-27T07:41:56Z</time>
      </trkpt>
      <trkpt lat="48.01412" lon="6.85003">
        <ele>986.7</ele>
        <time>2022-05-27T07:41:59Z</time>
      </trkpt>
      <trkpt lat="48.014" lon="6.84994">
        <ele>982.6</ele>
        <time>2022-05-27T07:42:02Z</time>
      </trkpt>
      <trkpt lat="48.0139" lon="6.84987">
        <ele>984.4</ele>
        <time>2022-05-27T07:42:04Z</time>
      </trkpt>
      <trkpt lat="48.01379" lon="6.84986">
        <ele>985.7</ele>
        <time>2022-05-27T07:42:06Z</time>
      </trkpt>
      <trkpt lat="48.01367" lon="6.84986">
        <ele>986.9</ele>
        <time>2022-05-27T07:42:08Z</time>
      </trkpt>
      <trkpt lat="48.01354" lon="6.84988">
        <ele>987.2</ele>
        <time>2022-05-27T07:42:11Z</time>
      </trkpt>
      <trkpt lat="48.01345" lon="6.84993">
        <ele>987.9</ele>
        <time>2022-05-27T07:42:14Z</time>
      </trkpt>
      <trkpt lat="48.01335" lon="6.84998">
        <ele>986.4</ele>
        <time>2022-05-27T07:42:17Z</time>
      </trkpt>
      <trkpt lat="48.01327" lon="6.85002">
        <ele>988.5</ele>
        <time>2022-05-27T07:42:20Z</time>
      </trkpt>
      <trkpt lat="48.01316" lon="6.85009">
        <ele>989.1</ele>
        <time>2022-05-27T07:42:24Z</time>
      </trkpt>
      <trkpt lat="48.01307" lon="6.85015">
        <ele>987.7</ele>
        <time>2022-05-27T07:42:27Z</time>
      </trkpt>
      <trkpt lat="48.01295" lon="6.85014">
        <ele>989</ele>
        <time>2022-05-27T07:42:30Z</time>
      </trkpt>
      <trkpt lat="48.01286" lon="6.85008">
        <ele>989.6</ele>
        <time>2022-05-27T07:42:33Z</time>
      </trkpt>
      <trkpt lat="48.01277" lon="6.85">
        <ele>989.9</ele>
        <time>2022-05-27T07:42:37Z</time>
      </trkpt>
      <trkpt lat="48.01268" lon="6.84996">
        <ele>991</ele>
        <time>2022-05-27T07:42:41Z</time>
      </trkpt>
      <trkpt lat="48.01257" lon="6.84993">
        <ele>991.3</ele>
        <time>2022-05-27T07:42:45Z</time>
      </trkpt>
      <trkpt lat="48.01247" lon="6.84999">
        <ele>992</ele>
        <time>2022-05-27T07:42:49Z</time>
      </trkpt>
      <trkpt lat="48.01237" lon="6.85008">
        <ele>991.2</ele>
        <time>2022-05-27T07:42:53Z</time>
      </trkpt>
      <trkpt lat="48.01227" lon="6.85003">
        <ele>989.2</ele>
        <time>2022-05-27T07:42:57Z</time>
      </trkpt>
      <trkpt lat="48.01225" lon="6.84985">
        <ele>991.1</ele>
        <time>2022-05-27T07:43:00Z</time>
      </trkpt>
      <trkpt lat="48.01225" lon="6.84969">
        <ele>991.6</ele>
        <time>2022-05-27T07:43:03Z</time>
      </trkpt>
      <trkpt lat="48.01224" lon="6.84953">
        <ele>990</ele>
        <time>2022-05-27T07:43:06Z</time>
      </trkpt>
      <trkpt lat="48.0122" lon="6.84936">
        <ele>991.3</ele>
        <time>2022-05-27T07:43:10Z</time>
      </trkpt>
      <trkpt lat="48.01216" lon="6.84922">
        <ele>992.2</ele>
        <time>2022-05-27T07:43:13Z</time>
      </trkpt>
      <trkpt lat="48.01213" lon="6.84905">
        <ele>991.2</ele>
        <time>2022-05-27T07:43:16Z</time>
      </trkpt>
      <trkpt lat="48.01212" lon="6.8489">
        <ele>992.9</ele>
        <time>2022-05-27T07:43:19Z</time>
      </trkpt>
      <trkpt lat="48.01209" lon="6.84874">
        <ele>990.6</ele>
        <time>2022-05-27T07:43:22Z</time>
      </trkpt>
      <trkpt lat="48.01203" lon="6.84861">
        <ele>990.6</ele>
        <time>2022-05-27T07:43:24Z</time>
      </trkpt>
      <trkpt lat="48.01196" lon="6.84847">
        <ele>989.4</ele>
        <time>2022-05-27T07:43:27Z</time>
      </trkpt>
      <trkpt lat="48.01186" lon="6.84839">
        <ele>989.2</ele>
        <time>2022-05-27T07:43:30Z</time>
      </trkpt>
      <trkpt lat="48.01175" lon="6.84834">
        <ele>990.9</ele>
        <time>2022-05-27T07:43:33Z</time>
      </trkpt>
      <trkpt lat="48.01164" lon="6.84829">
        <ele>991.3</ele>
        <time>2022-05-27T07:43:36Z</time>
      </trkpt>
      <trkpt lat="48.01155" lon="6.84819">
        <ele>987.5</ele>
        <time>2022-05-27T07:43:39Z</time>
      </trkpt>
      <trkpt lat="48.01147" lon="6.84807">
        <ele>983.8</ele>
        <time>2022-05-27T07:43:41Z</time>
      </trkpt>
      <trkpt lat="48.01137" lon="6.84796">
        <ele>986.2</ele>
        <time>2022-05-27T07:43:43Z</time>
      </trkpt>
      <trkpt lat="48.01131" lon="6.84784">
        <ele>984.2</ele>
        <time>2022-05-27T07:43:45Z</time>
      </trkpt>
      <trkpt lat="48.01127" lon="6.8477">
        <ele>985.8</ele>
        <time>2022-05-27T07:43:47Z</time>
      </trkpt>
      <trkpt lat="48.01124" lon="6.84757">
        <ele>985.3</ele>
        <time>2022-05-27T07:43:49Z</time>
      </trkpt>
      <trkpt lat="48.01119" lon="6.84741">
        <ele>986.3</ele>
        <time>2022-05-27T07:43:52Z</time>
      </trkpt>
      <trkpt lat="48.01115" lon="6.84728">
        <ele>989</ele>
        <time>2022-05-27T07:43:55Z</time>
      </trkpt>
      <trkpt lat="48.01107" lon="6.84715">
        <ele>987.3</ele>
        <time>2022-05-27T07:43:59Z</time>
      </trkpt>
      <trkpt lat="48.01098" lon="6.84706">
        <ele>989.4</ele>
        <time>2022-05-27T07:44:03Z</time>
      </trkpt>
      <trkpt lat="48.01089" lon="6.847">
        <ele>989.2</ele>
        <time>2022-05-27T07:44:07Z</time>
      </trkpt>
      <trkpt lat="48.01079" lon="6.84695">
        <ele>989.2</ele>
        <time>2022-05-27T07:44:11Z</time>
      </trkpt>
      <trkpt lat="48.01069" lon="6.8469">
        <ele>989.5</ele>
        <time>2022-05-27T07:44:15Z</time>
      </trkpt>
      <trkpt lat="48.0106" lon="6.84685">
        <ele>991.7</ele>
        <time>2022-05-27T07:44:19Z</time>
      </trkpt>
      <trkpt lat="48.01052" lon="6.84675">
        <ele>991.8</ele>
        <time>2022-05-27T07:44:25Z</time>
      </trkpt>
      <trkpt lat="48.01045" lon="6.84664">
        <ele>994.2</ele>
        <time>2022-05-27T07:44:30Z</time>
      </trkpt>
      <trkpt lat="48.01041" lon="6.84651">
        <ele>996.6</ele>
        <time>2022-05-27T07:44:35Z</time>
      </trkpt>
      <trkpt lat="48.01038" lon="6.84637">
        <ele>996.4</ele>
        <time>2022-05-27T07:44:40Z</time>
      </trkpt>
      <trkpt lat="48.01036" lon="6.84621">
        <ele>998.8</ele>
        <time>2022-05-27T07:44:46Z</time>
      </trkpt>
      <trkpt lat="48.01033" lon="6.84607">
        <ele>999.6</ele>
        <time>2022-05-27T07:44:51Z</time>
      </trkpt>
      <trkpt lat="48.01031" lon="6.84594">
        <ele>1000.4</ele>
        <time>2022-05-27T07:44:56Z</time>
      </trkpt>
      <trkpt lat="48.01029" lon="6.8458">
        <ele>1000.8</ele>
        <time>2022-05-27T07:45:01Z</time>
      </trkpt>
      <trkpt lat="48.01024" lon="6.84566">
        <ele>1001.3</ele>
        <time>2022-05-27T07:45:06Z</time>
      </trkpt>
      <trkpt lat="48.01019" lon="6.84552">
        <ele>1002.1</ele>
        <time>2022-05-27T07:45:11Z</time>
      </trkpt>
      <trkpt lat="48.01013" lon="6.8454">
        <ele>1003.5</ele>
        <time>2022-05-27T07:45:16Z</time>
      </trkpt>
      <trkpt lat="48.01007" lon="6.84527">
        <ele>1002.8</ele>
        <time>2022-05-27T07:45:21Z</time>
      </trkpt>
      <trkpt lat="48.01004" lon="6.84513">
        <ele>1004.8</ele>
        <time>2022-05-27T07:45:26Z</time>
      </trkpt>
      <trkpt lat="48.01004" lon="6.84496">
        <ele>1004</ele>
        <time>2022-05-27T07:45:31Z</time>
      </trkpt>
      <trkpt lat="48.01003" lon="6.84482">
        <ele>1004.4</ele>
        <time>2022-05-27T07:45:35Z</time>
      </trkpt>
      <trkpt lat="48.00999" lon="6.84468">
        <ele>1004.9</ele>
        <time>2022-05-27T07:45:40Z</time>
      </trkpt>
      <trkpt lat="48.00992" lon="6.84455">
        <ele>1005.4</ele>
        <time>2022-05-27T07:45:45Z</time>
      </trkpt>
      <trkpt lat="48.00988" lon="6.84442">
        <ele>1007.6</ele>
        <time>2022-05-27T07:45:50Z</time>
      </trkpt>
      <trkpt lat="48.00987" lon="6.84428">
        <ele>1008.3</ele>
        <time>2022-05-27T07:45:55Z</time>
      </trkpt>
      <trkpt lat="48.00987" lon="6.84413">
        <ele>1009.5</ele>
        <time>2022-05-27T07:46:01Z</time>
      </trkpt>
      <trkpt lat="48.00989" lon="6.84398">
        <ele>1010.5</ele>
        <time>2022-05-27T07:46:07Z</time>
      </trkpt>
      <trkpt lat="48.00992" lon="6.84385">
        <ele>1011.8</ele>
        <time>2022-05-27T07:46:11Z</time>
      </trkpt>
      <trkpt lat="48.0099" lon="6.84371">
        <ele>1011.3</ele>
        <time>2022-05-27T07:46:15Z</time>
      </trkpt>
      <trkpt lat="48.00985" lon="6.84358">
        <ele>1012.2</ele>
        <time>2022-05-27T07:46:20Z</time>
      </trkpt>
      <trkpt lat="48.00977" lon="6.8435">
        <ele>1014</ele>
        <time>2022-05-27T07:46:25Z</time>
      </trkpt>
      <trkpt lat="48.00969" lon="6.84342">
        <ele>1014.2</ele>
        <time>2022-05-27T07:46:31Z</time>
      </trkpt>
      <trkpt lat="48.0096" lon="6.84337">
        <ele>1014.9</ele>
        <time>2022-05-27T07:46:37Z</time>
      </trkpt>
      <trkpt lat="48.00951" lon="6.84332">
        <ele>1015.6</ele>
        <time>2022-05-27T07:46:42Z</time>
      </trkpt>
      <trkpt lat="48.00942" lon="6.8433">
        <ele>1015.7</ele>
        <time>2022-05-27T07:46:47Z</time>
      </trkpt>
      <trkpt lat="48.00932" lon="6.84333">
        <ele>1015.9</ele>
        <time>2022-05-27T07:46:52Z</time>
      </trkpt>
      <trkpt lat="48.00924" lon="6.84341">
        <ele>1016.5</ele>
        <time>2022-05-27T07:46:56Z</time>
      </trkpt>
      <trkpt lat="48.00914" lon="6.84343">
        <ele>1016.2</ele>
        <time>2022-05-27T07:47:01Z</time>
      </trkpt>
      <trkpt lat="48.00904" lon="6.84345">
        <ele>1016.9</ele>
        <time>2022-05-27T07:47:06Z</time>
      </trkpt>
      <trkpt lat="48.00893" lon="6.84347">
        <ele>1018.2</ele>
        <time>2022-05-27T07:47:11Z</time>
      </trkpt>
      <trkpt lat="48.00884" lon="6.84351">
        <ele>1019.9</ele>
        <time>2022-05-27T07:47:17Z</time>
      </trkpt>
      <trkpt lat="48.00875" lon="6.84358">
        <ele>1022.1</ele>
        <time>2022-05-27T07:47:23Z</time>
      </trkpt>
      <trkpt lat="48.00864" lon="6.84362">
        <ele>1023.4</ele>
        <time>2022-05-27T07:47:29Z</time>
      </trkpt>
      <trkpt lat="48.00855" lon="6.84356">
        <ele>1024.9</ele>
        <time>2022-05-27T07:47:35Z</time>
      </trkpt>
      <trkpt lat="48.00849" lon="6.84345">
        <ele>1025.3</ele>
        <time>2022-05-27T07:47:40Z</time>
      </trkpt>
      <trkpt lat="48.00846" lon="6.84331">
        <ele>1026.4</ele>
        <time>2022-05-27T07:47:45Z</time>
      </trkpt>
      <trkpt lat="48.00845" lon="6.84316">
        <ele>1027.7</ele>
        <time>2022-05-27T07:47:50Z</time>
      </trkpt>
      <trkpt lat="48.00845" lon="6.84302">
        <ele>1028.2</ele>
        <time>2022-05-27T07:47:56Z</time>
      </trkpt>
      <trkpt lat="48.00845" lon="6.84288">
        <ele>1029.3</ele>
        <time>2022-05-27T07:48:01Z</time>
      </trkpt>
      <trkpt lat="48.00848" lon="6.84273">
        <ele>1030.2</ele>
        <time>2022-05-27T07:48:06Z</time>
      </trkpt>
      <trkpt lat="48.00854" lon="6.84262">
        <ele>1030.6</ele>
        <time>2022-05-27T07:48:10Z</time>
      </trkpt>
      <trkpt lat="48.0086" lon="6.8425">
        <ele>1031.6</ele>
        <time>2022-05-27T07:48:15Z</time>
      </trkpt>
      <trkpt lat="48.00863" lon="6.84235">
        <ele>1032.3</ele>
        <time>2022-05-27T07:48:20Z</time>
      </trkpt>
      <trkpt lat="48.00865" lon="6.8422">
        <ele>1032.5</ele>
        <time>2022-05-27T07:48:24Z</time>
      </trkpt>
      <trkpt lat="48.00865" lon="6.84207">
        <ele>1033.3</ele>
        <time>2022-05-27T07:48:28Z</time>
      </trkpt>
      <trkpt lat="48.00866" lon="6.84192">
        <ele>1034.6</ele>
        <time>2022-05-27T07:48:33Z</time>
      </trkpt>
      <trkpt lat="48.00869" lon="6.84177">
        <ele>1036.2</ele>
        <time>2022-05-27T07:48:38Z</time>
      </trkpt>
      <trkpt lat="48.00873" lon="6.84163">
        <ele>1038</ele>
        <time>2022-05-27T07:48:43Z</time>
      </trkpt>
      <trkpt lat="48.00877" lon="6.8415">
        <ele>1039</ele>
        <time>2022-05-27T07:48:48Z</time>
      </trkpt>
      <trkpt lat="48.00883" lon="6.84138">
        <ele>1038.9</ele>
        <time>2022-05-27T07:48:53Z</time>
      </trkpt>
      <trkpt lat="48.00889" lon="6.84127">
        <ele>1038.5</ele>
        <time>2022-05-27T07:48:57Z</time>
      </trkpt>
      <trkpt lat="48.00891" lon="6.84114">
        <ele>1039.2</ele>
        <time>2022-05-27T07:49:01Z</time>
      </trkpt>
      <trkpt lat="48.00892" lon="6.84098">
        <ele>1039.8</ele>
        <time>2022-05-27T07:49:06Z</time>
      </trkpt>
      <trkpt lat="48.00887" lon="6.84086">
        <ele>1040.1</ele>
        <time>2022-05-27T07:49:10Z</time>
      </trkpt>
      <trkpt lat="48.0088" lon="6.84073">
        <ele>1041.4</ele>
        <time>2022-05-27T07:49:15Z</time>
      </trkpt>
      <trkpt lat="48.00875" lon="6.84061">
        <ele>1042.8</ele>
        <time>2022-05-27T07:49:20Z</time>
      </trkpt>
      <trkpt lat="48.00869" lon="6.84048">
        <ele>1044.1</ele>
        <time>2022-05-27T07:49:25Z</time>
      </trkpt>
      <trkpt lat="48.00863" lon="6.84039">
        <ele>1045</ele>
        <time>2022-05-27T07:49:29Z</time>
      </trkpt>
      <trkpt lat="48.00856" lon="6.84026">
        <ele>1046.3</ele>
        <time>2022-05-27T07:49:34Z</time>
      </trkpt>
      <trkpt lat="48.00849" lon="6.84013">
        <ele>1047.3</ele>
        <time>2022-05-27T07:49:40Z</time>
      </trkpt>
      <trkpt lat="48.00844" lon="6.84002">
        <ele>1047.8</ele>
        <time>2022-05-27T07:49:46Z</time>
      </trkpt>
      <trkpt lat="48.00843" lon="6.84">
        <ele>1047.6</ele>
        <time>2022-05-27T07:49:50Z</time>
      </trkpt>
      <trkpt lat="48.00844" lon="6.83999">
        <ele>1047.6</ele>
        <time>2022-05-27T07:50:07Z</time>
      </trkpt>
      <trkpt lat="48.00842" lon="6.83993">
        <ele>1047.8</ele>
        <time>2022-05-27T07:50:13Z</time>
      </trkpt>
      <trkpt lat="48.00841" lon="6.83993">
        <ele>1047.6</ele>
        <time>2022-05-27T07:50:37Z</time>
      </trkpt>
      <trkpt lat="48.00841" lon="6.83993">
        <ele>1047.4</ele>
        <time>2022-05-27T07:50:42Z</time>
      </trkpt>
      <trkpt lat="48.0084" lon="6.83993">
        <ele>1047.4</ele>
        <time>2022-05-27T07:50:46Z</time>
      </trkpt>
      <trkpt lat="48.0084" lon="6.83992">
        <ele>1047.6</ele>
        <time>2022-05-27T07:50:49Z</time>
      </trkpt>
      <trkpt lat="48.0084" lon="6.83991">
        <ele>1047.5</ele>
        <time>2022-05-27T07:50:52Z</time>
      </trkpt>
      <trkpt lat="48.0084" lon="6.8399">
        <ele>1047.6</ele>
        <time>2022-05-27T07:50:54Z</time>
      </trkpt>
      <trkpt lat="48.0084" lon="6.83989">
        <ele>1048</ele>
        <time>2022-05-27T07:50:57Z</time>
      </trkpt>
      <trkpt lat="48.0084" lon="6.83989">
        <ele>1047.4</ele>
        <time>2022-05-27T07:51:55Z</time>
      </trkpt>
      <trkpt lat="48.0084" lon="6.83988">
        <ele>1047.4</ele>
        <time>2022-05-27T07:52:00Z</time>
      </trkpt>
      <trkpt lat="48.00841" lon="6.83988">
        <ele>1047.7</ele>
        <time>2022-05-27T07:52:43Z</time>
      </trkpt>
      <trkpt lat="48.00841" lon="6.83988">
        <ele>1047.8</ele>
        <time>2022-05-27T07:53:59Z</time>
      </trkpt>
      <trkpt lat="48.00841" lon="6.83987">
        <ele>1047.3</ele>
        <time>2022-05-27T07:54:36Z</time>
      </trkpt>
      <trkpt lat="48.0084" lon="6.83987">
        <ele>1047.7</ele>
        <time>2022-05-27T07:55:40Z</time>
      </trkpt>
      <trkpt lat="48.0084" lon="6.83987">
        <ele>1047.5</ele>
        <time>2022-05-27T07:55:42Z</time>
      </trkpt>
      <trkpt lat="48.0084" lon="6.83987">
        <ele>1047.4</ele>
        <time>2022-05-27T07:55:49Z</time>
      </trkpt>
      <trkpt lat="48.0084" lon="6.83987">
        <ele>1047</ele>
        <time>2022-05-27T07:56:20Z</time>
      </trkpt>
      <trkpt lat="48.00832" lon="6.83977">
        <ele>1047.4</ele>
        <time>2022-05-27T07:56:26Z</time>
      </trkpt>
      <trkpt lat="48.00824" lon="6.83967">
        <ele>1047.5</ele>
        <time>2022-05-27T07:56:31Z</time>
      </trkpt>
      <trkpt lat="48.00817" lon="6.83953">
        <ele>1045.6</ele>
        <time>2022-05-27T07:56:35Z</time>
      </trkpt>
      <trkpt lat="48.00814" lon="6.83938">
        <ele>1045.4</ele>
        <time>2022-05-27T07:56:38Z</time>
      </trkpt>
      <trkpt lat="48.00808" lon="6.83922">
        <ele>1045.6</ele>
        <time>2022-05-27T07:56:41Z</time>
      </trkpt>
      <trkpt lat="48.008" lon="6.83912">
        <ele>1045.8</ele>
        <time>2022-05-27T07:56:44Z</time>
      </trkpt>
      <trkpt lat="48.00791" lon="6.83905">
        <ele>1046.7</ele>
        <time>2022-05-27T07:56:48Z</time>
      </trkpt>
      <trkpt lat="48.00782" lon="6.83899">
        <ele>1046.9</ele>
        <time>2022-05-27T07:56:52Z</time>
      </trkpt>
      <trkpt lat="48.00771" lon="6.83893">
        <ele>1046.1</ele>
        <time>2022-05-27T07:56:56Z</time>
      </trkpt>
      <trkpt lat="48.0076" lon="6.8389">
        <ele>1045.2</ele>
        <time>2022-05-27T07:56:59Z</time>
      </trkpt>
      <trkpt lat="48.00749" lon="6.83887">
        <ele>1044.9</ele>
        <time>2022-05-27T07:57:02Z</time>
      </trkpt>
      <trkpt lat="48.00738" lon="6.83885">
        <ele>1045.7</ele>
        <time>2022-05-27T07:57:05Z</time>
      </trkpt>
      <trkpt lat="48.00728" lon="6.83883">
        <ele>1044.9</ele>
        <time>2022-05-27T07:57:08Z</time>
      </trkpt>
      <trkpt lat="48.00716" lon="6.8388">
        <ele>1044.7</ele>
        <time>2022-05-27T07:57:11Z</time>
      </trkpt>
      <trkpt lat="48.00704" lon="6.83877">
        <ele>1046.1</ele>
        <time>2022-05-27T07:57:14Z</time>
      </trkpt>
      <trkpt lat="48.00694" lon="6.83875">
        <ele>1045.8</ele>
        <time>2022-05-27T07:57:17Z</time>
      </trkpt>
      <trkpt lat="48.00682" lon="6.83873">
        <ele>1045.2</ele>
        <time>2022-05-27T07:57:20Z</time>
      </trkpt>
      <trkpt lat="48.0067" lon="6.83868">
        <ele>1046.9</ele>
        <time>2022-05-27T07:57:23Z</time>
      </trkpt>
      <trkpt lat="48.00658" lon="6.8386">
        <ele>1044.5</ele>
        <time>2022-05-27T07:57:26Z</time>
      </trkpt>
      <trkpt lat="48.00644" lon="6.83853">
        <ele>1044.2</ele>
        <time>2022-05-27T07:57:29Z</time>
      </trkpt>
      <trkpt lat="48.00635" lon="6.83849">
        <ele>1043.6</ele>
        <time>2022-05-27T07:57:31Z</time>
      </trkpt>
      <trkpt lat="48.00624" lon="6.83844">
        <ele>1043.9</ele>
        <time>2022-05-27T07:57:33Z</time>
      </trkpt>
      <trkpt lat="48.00613" lon="6.83838">
        <ele>1043.4</ele>
        <time>2022-05-27T07:57:35Z</time>
      </trkpt>
      <trkpt lat="48.00604" lon="6.83823">
        <ele>1040.6</ele>
        <time>2022-05-27T07:57:38Z</time>
      </trkpt>
      <trkpt lat="48.00599" lon="6.83805">
        <ele>1039.3</ele>
        <time>2022-05-27T07:57:40Z</time>
      </trkpt>
      <trkpt lat="48.00599" lon="6.83784">
        <ele>1038.7</ele>
        <time>2022-05-27T07:57:42Z</time>
      </trkpt>
      <trkpt lat="48.00598" lon="6.83764">
        <ele>1037.5</ele>
        <time>2022-05-27T07:57:44Z</time>
      </trkpt>
      <trkpt lat="48.00595" lon="6.83744">
        <ele>1037.8</ele>
        <time>2022-05-27T07:57:46Z</time>
      </trkpt>
      <trkpt lat="48.00589" lon="6.83727">
        <ele>1037.5</ele>
        <time>2022-05-27T07:57:48Z</time>
      </trkpt>
      <trkpt lat="48.00581" lon="6.83714">
        <ele>1035.9</ele>
        <time>2022-05-27T07:57:50Z</time>
      </trkpt>
      <trkpt lat="48.00571" lon="6.83706">
        <ele>1035</ele>
        <time>2022-05-27T07:57:52Z</time>
      </trkpt>
      <trkpt lat="48.0056" lon="6.83697">
        <ele>1033.1</ele>
        <time>2022-05-27T07:57:54Z</time>
      </trkpt>
      <trkpt lat="48.00553" lon="6.83684">
        <ele>1033.7</ele>
        <time>2022-05-27T07:57:56Z</time>
      </trkpt>
      <trkpt lat="48.00548" lon="6.83667">
        <ele>1032.7</ele>
        <time>2022-05-27T07:57:58Z</time>
      </trkpt>
      <trkpt lat="48.00542" lon="6.83649">
        <ele>1030.3</ele>
        <time>2022-05-27T07:58:00Z</time>
      </trkpt>
      <trkpt lat="48.00535" lon="6.83633">
        <ele>1030.3</ele>
        <time>2022-05-27T07:58:02Z</time>
      </trkpt>
      <trkpt lat="48.00527" lon="6.83624">
        <ele>1030.2</ele>
        <time>2022-05-27T07:58:05Z</time>
      </trkpt>
      <trkpt lat="48.00517" lon="6.83627">
        <ele>1028.5</ele>
        <time>2022-05-27T07:58:08Z</time>
      </trkpt>
      <trkpt lat="48.0051" lon="6.83642">
        <ele>1029.7</ele>
        <time>2022-05-27T07:58:11Z</time>
      </trkpt>
      <trkpt lat="48.00503" lon="6.83654">
        <ele>1023.4</ele>
        <time>2022-05-27T07:58:13Z</time>
      </trkpt>
      <trkpt lat="48.00495" lon="6.83663">
        <ele>1026.1</ele>
        <time>2022-05-27T07:58:15Z</time>
      </trkpt>
      <trkpt lat="48.00485" lon="6.83673">
        <ele>1025.6</ele>
        <time>2022-05-27T07:58:17Z</time>
      </trkpt>
      <trkpt lat="48.00476" lon="6.83683">
        <ele>1026.2</ele>
        <time>2022-05-27T07:58:19Z</time>
      </trkpt>
      <trkpt lat="48.00467" lon="6.83693">
        <ele>1025.4</ele>
        <time>2022-05-27T07:58:21Z</time>
      </trkpt>
      <trkpt lat="48.00458" lon="6.83693">
        <ele>1024.5</ele>
        <time>2022-05-27T07:58:23Z</time>
      </trkpt>
      <trkpt lat="48.00447" lon="6.83687">
        <ele>1024.4</ele>
        <time>2022-05-27T07:58:26Z</time>
      </trkpt>
      <trkpt lat="48.00439" lon="6.8368">
        <ele>1022</ele>
        <time>2022-05-27T07:58:30Z</time>
      </trkpt>
      <trkpt lat="48.0043" lon="6.83669">
        <ele>1019.4</ele>
        <time>2022-05-27T07:58:35Z</time>
      </trkpt>
      <trkpt lat="48.00428" lon="6.83655">
        <ele>1017.6</ele>
        <time>2022-05-27T07:58:38Z</time>
      </trkpt>
      <trkpt lat="48.00428" lon="6.83641">
        <ele>1017</ele>
        <time>2022-05-27T07:58:40Z</time>
      </trkpt>
      <trkpt lat="48.00427" lon="6.83626">
        <ele>1014.6</ele>
        <time>2022-05-27T07:58:42Z</time>
      </trkpt>
      <trkpt lat="48.00429" lon="6.83607">
        <ele>1010.9</ele>
        <time>2022-05-27T07:58:44Z</time>
      </trkpt>
      <trkpt lat="48.00428" lon="6.83587">
        <ele>1012.9</ele>
        <time>2022-05-27T07:58:46Z</time>
      </trkpt>
      <trkpt lat="48.00428" lon="6.83566">
        <ele>1011</ele>
        <time>2022-05-27T07:58:48Z</time>
      </trkpt>
      <trkpt lat="48.00424" lon="6.83549">
        <ele>1011.8</ele>
        <time>2022-05-27T07:58:50Z</time>
      </trkpt>
      <trkpt lat="48.00414" lon="6.83541">
        <ele>1011.2</ele>
        <time>2022-05-27T07:58:53Z</time>
      </trkpt>
      <trkpt lat="48.00405" lon="6.83544">
        <ele>1011.5</ele>
        <time>2022-05-27T07:58:56Z</time>
      </trkpt>
      <trkpt lat="48.00398" lon="6.83534">
        <ele>1014.3</ele>
        <time>2022-05-27T07:59:00Z</time>
      </trkpt>
      <trkpt lat="48.00402" lon="6.83518">
        <ele>1014.7</ele>
        <time>2022-05-27T07:59:04Z</time>
      </trkpt>
      <trkpt lat="48.00404" lon="6.83501">
        <ele>1014.2</ele>
        <time>2022-05-27T07:59:08Z</time>
      </trkpt>
      <trkpt lat="48.00402" lon="6.83485">
        <ele>1013.9</ele>
        <time>2022-05-27T07:59:12Z</time>
      </trkpt>
      <trkpt lat="48.00394" lon="6.83471">
        <ele>1011.8</ele>
        <time>2022-05-27T07:59:16Z</time>
      </trkpt>
      <trkpt lat="48.00386" lon="6.8346">
        <ele>1011.6</ele>
        <time>2022-05-27T07:59:19Z</time>
      </trkpt>
      <trkpt lat="48.00378" lon="6.8345">
        <ele>1009.1</ele>
        <time>2022-05-27T07:59:23Z</time>
      </trkpt>
      <trkpt lat="48.00364" lon="6.83443">
        <ele>1006.5</ele>
        <time>2022-05-27T07:59:26Z</time>
      </trkpt>
      <trkpt lat="48.00355" lon="6.8343">
        <ele>1006.9</ele>
        <time>2022-05-27T07:59:28Z</time>
      </trkpt>
      <trkpt lat="48.00348" lon="6.83415">
        <ele>1005.3</ele>
        <time>2022-05-27T07:59:30Z</time>
      </trkpt>
      <trkpt lat="48.00346" lon="6.83401">
        <ele>1005.4</ele>
        <time>2022-05-27T07:59:32Z</time>
      </trkpt>
      <trkpt lat="48.00348" lon="6.83382">
        <ele>1006.1</ele>
        <time>2022-05-27T07:59:35Z</time>
      </trkpt>
      <trkpt lat="48.00343" lon="6.83368">
        <ele>1005</ele>
        <time>2022-05-27T07:59:38Z</time>
      </trkpt>
      <trkpt lat="48.00335" lon="6.83359">
        <ele>1005.8</ele>
        <time>2022-05-27T07:59:41Z</time>
      </trkpt>
      <trkpt lat="48.00328" lon="6.83349">
        <ele>1006</ele>
        <time>2022-05-27T07:59:44Z</time>
      </trkpt>
      <trkpt lat="48.00318" lon="6.83345">
        <ele>1007.9</ele>
        <time>2022-05-27T07:59:49Z</time>
      </trkpt>
      <trkpt lat="48.00309" lon="6.83348">
        <ele>1008.7</ele>
        <time>2022-05-27T07:59:53Z</time>
      </trkpt>
      <trkpt lat="48.00299" lon="6.8335">
        <ele>1008.3</ele>
        <time>2022-05-27T07:59:56Z</time>
      </trkpt>
      <trkpt lat="48.0029" lon="6.83354">
        <ele>1008.3</ele>
        <time>2022-05-27T07:59:59Z</time>
      </trkpt>
      <trkpt lat="48.0028" lon="6.83354">
        <ele>1009.4</ele>
        <time>2022-05-27T08:00:03Z</time>
      </trkpt>
      <trkpt lat="48.0027" lon="6.83356">
        <ele>1010.9</ele>
        <time>2022-05-27T08:00:07Z</time>
      </trkpt>
      <trkpt lat="48.00259" lon="6.83351">
        <ele>1011.9</ele>
        <time>2022-05-27T08:00:11Z</time>
      </trkpt>
      <trkpt lat="48.00251" lon="6.83343">
        <ele>1011.8</ele>
        <time>2022-05-27T08:00:15Z</time>
      </trkpt>
      <trkpt lat="48.00243" lon="6.83335">
        <ele>1011.6</ele>
        <time>2022-05-27T08:00:18Z</time>
      </trkpt>
      <trkpt lat="48.00233" lon="6.83326">
        <ele>1011.9</ele>
        <time>2022-05-27T08:00:21Z</time>
      </trkpt>
      <trkpt lat="48.00225" lon="6.83317">
        <ele>1012</ele>
        <time>2022-05-27T08:00:24Z</time>
      </trkpt>
      <trkpt lat="48.00217" lon="6.83309">
        <ele>1013</ele>
        <time>2022-05-27T08:00:27Z</time>
      </trkpt>
      <trkpt lat="48.00208" lon="6.83302">
        <ele>1012.4</ele>
        <time>2022-05-27T08:00:30Z</time>
      </trkpt>
      <trkpt lat="48.002" lon="6.8329">
        <ele>1014.1</ele>
        <time>2022-05-27T08:00:34Z</time>
      </trkpt>
      <trkpt lat="48.00197" lon="6.83276">
        <ele>1015.6</ele>
        <time>2022-05-27T08:00:38Z</time>
      </trkpt>
      <trkpt lat="48.00192" lon="6.83265">
        <ele>1016</ele>
        <time>2022-05-27T08:00:42Z</time>
      </trkpt>
      <trkpt lat="48.00185" lon="6.83253">
        <ele>1016.8</ele>
        <time>2022-05-27T08:00:46Z</time>
      </trkpt>
      <trkpt lat="48.0018" lon="6.8324">
        <ele>1017.4</ele>
        <time>2022-05-27T08:00:50Z</time>
      </trkpt>
      <trkpt lat="48.00173" lon="6.83228">
        <ele>1019.2</ele>
        <time>2022-05-27T08:00:55Z</time>
      </trkpt>
      <trkpt lat="48.0017" lon="6.83212">
        <ele>1019.4</ele>
        <time>2022-05-27T08:01:00Z</time>
      </trkpt>
      <trkpt lat="48.00167" lon="6.83197">
        <ele>1019.3</ele>
        <time>2022-05-27T08:01:04Z</time>
      </trkpt>
      <trkpt lat="48.00164" lon="6.83179">
        <ele>1018.6</ele>
        <time>2022-05-27T08:01:08Z</time>
      </trkpt>
      <trkpt lat="48.00159" lon="6.83164">
        <ele>1018.6</ele>
        <time>2022-05-27T08:01:11Z</time>
      </trkpt>
      <trkpt lat="48.00154" lon="6.83151">
        <ele>1018.1</ele>
        <time>2022-05-27T08:01:14Z</time>
      </trkpt>
      <trkpt lat="48.00149" lon="6.83138">
        <ele>1018.3</ele>
        <time>2022-05-27T08:01:17Z</time>
      </trkpt>
      <trkpt lat="48.00144" lon="6.83122">
        <ele>1018.8</ele>
        <time>2022-05-27T08:01:20Z</time>
      </trkpt>
      <trkpt lat="48.00139" lon="6.83111">
        <ele>1017.1</ele>
        <time>2022-05-27T08:01:24Z</time>
      </trkpt>
      <trkpt lat="48.00135" lon="6.83092">
        <ele>1017.4</ele>
        <time>2022-05-27T08:01:28Z</time>
      </trkpt>
      <trkpt lat="48.00132" lon="6.83076">
        <ele>1018.1</ele>
        <time>2022-05-27T08:01:31Z</time>
      </trkpt>
      <trkpt lat="48.00124" lon="6.83069">
        <ele>1018.6</ele>
        <time>2022-05-27T08:01:35Z</time>
      </trkpt>
      <trkpt lat="48.00112" lon="6.83072">
        <ele>1018.6</ele>
        <time>2022-05-27T08:01:39Z</time>
      </trkpt>
      <trkpt lat="48.00101" lon="6.83077">
        <ele>1018.6</ele>
        <time>2022-05-27T08:01:42Z</time>
      </trkpt>
      <trkpt lat="48.00088" lon="6.83082">
        <ele>1019.1</ele>
        <time>2022-05-27T08:01:45Z</time>
      </trkpt>
      <trkpt lat="48.00079" lon="6.83086">
        <ele>1019.4</ele>
        <time>2022-05-27T08:01:48Z</time>
      </trkpt>
      <trkpt lat="48.00067" lon="6.83091">
        <ele>1020.9</ele>
        <time>2022-05-27T08:01:52Z</time>
      </trkpt>
      <trkpt lat="48.00057" lon="6.83097">
        <ele>1020.8</ele>
        <time>2022-05-27T08:01:57Z</time>
      </trkpt>
      <trkpt lat="48.00046" lon="6.83098">
        <ele>1019.8</ele>
        <time>2022-05-27T08:02:00Z</time>
      </trkpt>
      <trkpt lat="48.00034" lon="6.83099">
        <ele>1019.1</ele>
        <time>2022-05-27T08:02:03Z</time>
      </trkpt>
      <trkpt lat="48.00021" lon="6.83104">
        <ele>1019.1</ele>
        <time>2022-05-27T08:02:06Z</time>
      </trkpt>
      <trkpt lat="48.00012" lon="6.83114">
        <ele>1019.5</ele>
        <time>2022-05-27T08:02:09Z</time>
      </trkpt>
      <trkpt lat="48.00001" lon="6.83125">
        <ele>1019.1</ele>
        <time>2022-05-27T08:02:12Z</time>
      </trkpt>
      <trkpt lat="47.99991" lon="6.83136">
        <ele>1018.9</ele>
        <time>2022-05-27T08:02:15Z</time>
      </trkpt>
      <trkpt lat="47.99982" lon="6.83144">
        <ele>1018.7</ele>
        <time>2022-05-27T08:02:18Z</time>
      </trkpt>
      <trkpt lat="47.99973" lon="6.83147">
        <ele>1020.5</ele>
        <time>2022-05-27T08:02:21Z</time>
      </trkpt>
      <trkpt lat="47.99961" lon="6.8315">
        <ele>1018.8</ele>
        <time>2022-05-27T08:02:24Z</time>
      </trkpt>
      <trkpt lat="47.99949" lon="6.83148">
        <ele>1019.2</ele>
        <time>2022-05-27T08:02:27Z</time>
      </trkpt>
      <trkpt lat="47.99941" lon="6.83142">
        <ele>1020.4</ele>
        <time>2022-05-27T08:02:30Z</time>
      </trkpt>
      <trkpt lat="47.99932" lon="6.83132">
        <ele>1021.2</ele>
        <time>2022-05-27T08:02:33Z</time>
      </trkpt>
      <trkpt lat="47.99924" lon="6.83123">
        <ele>1020.9</ele>
        <time>2022-05-27T08:02:37Z</time>
      </trkpt>
      <trkpt lat="47.99917" lon="6.83113">
        <ele>1022.9</ele>
        <time>2022-05-27T08:02:48Z</time>
      </trkpt>
      <trkpt lat="47.99915" lon="6.83112">
        <ele>1022.4</ele>
        <time>2022-05-27T08:02:52Z</time>
      </trkpt>
      <trkpt lat="47.99916" lon="6.83112">
        <ele>1022.6</ele>
        <time>2022-05-27T08:03:03Z</time>
      </trkpt>
      <trkpt lat="47.99916" lon="6.83111">
        <ele>1022.4</ele>
        <time>2022-05-27T08:03:12Z</time>
      </trkpt>
      <trkpt lat="47.99915" lon="6.83111">
        <ele>1022.6</ele>
        <time>2022-05-27T08:03:23Z</time>
      </trkpt>
      <trkpt lat="47.99911" lon="6.83098">
        <ele>1022.2</ele>
        <time>2022-05-27T08:03:30Z</time>
      </trkpt>
      <trkpt lat="47.99907" lon="6.83085">
        <ele>1022.4</ele>
        <time>2022-05-27T08:03:33Z</time>
      </trkpt>
      <trkpt lat="47.99902" lon="6.83074">
        <ele>1023.1</ele>
        <time>2022-05-27T08:03:37Z</time>
      </trkpt>
      <trkpt lat="47.99895" lon="6.8306">
        <ele>1021.3</ele>
        <time>2022-05-27T08:03:41Z</time>
      </trkpt>
      <trkpt lat="47.99884" lon="6.83052">
        <ele>1022.7</ele>
        <time>2022-05-27T08:03:45Z</time>
      </trkpt>
      <trkpt lat="47.99871" lon="6.83049">
        <ele>1022</ele>
        <time>2022-05-27T08:03:48Z</time>
      </trkpt>
      <trkpt lat="47.99859" lon="6.83045">
        <ele>1022.1</ele>
        <time>2022-05-27T08:03:51Z</time>
      </trkpt>
      <trkpt lat="47.99847" lon="6.83042">
        <ele>1022.2</ele>
        <time>2022-05-27T08:03:54Z</time>
      </trkpt>
      <trkpt lat="47.99837" lon="6.83038">
        <ele>1023.1</ele>
        <time>2022-05-27T08:03:57Z</time>
      </trkpt>
      <trkpt lat="47.99827" lon="6.83033">
        <ele>1024.3</ele>
        <time>2022-05-27T08:04:01Z</time>
      </trkpt>
      <trkpt lat="47.99817" lon="6.83025">
        <ele>1024.4</ele>
        <time>2022-05-27T08:04:05Z</time>
      </trkpt>
      <trkpt lat="47.99808" lon="6.83012">
        <ele>1025.2</ele>
        <time>2022-05-27T08:04:09Z</time>
      </trkpt>
      <trkpt lat="47.99801" lon="6.82999">
        <ele>1025.6</ele>
        <time>2022-05-27T08:04:12Z</time>
      </trkpt>
      <trkpt lat="47.99794" lon="6.82987">
        <ele>1025.7</ele>
        <time>2022-05-27T08:04:15Z</time>
      </trkpt>
      <trkpt lat="47.99787" lon="6.82973">
        <ele>1024.2</ele>
        <time>2022-05-27T08:04:18Z</time>
      </trkpt>
      <trkpt lat="47.9978" lon="6.82959">
        <ele>1023.8</ele>
        <time>2022-05-27T08:04:21Z</time>
      </trkpt>
      <trkpt lat="47.99772" lon="6.82945">
        <ele>1024.3</ele>
        <time>2022-05-27T08:04:24Z</time>
      </trkpt>
      <trkpt lat="47.99764" lon="6.82932">
        <ele>1023.7</ele>
        <time>2022-05-27T08:04:27Z</time>
      </trkpt>
      <trkpt lat="47.99755" lon="6.82918">
        <ele>1023.6</ele>
        <time>2022-05-27T08:04:30Z</time>
      </trkpt>
      <trkpt lat="47.99746" lon="6.82905">
        <ele>1023.9</ele>
        <time>2022-05-27T08:04:33Z</time>
      </trkpt>
      <trkpt lat="47.99737" lon="6.82892">
        <ele>1024</ele>
        <time>2022-05-27T08:04:36Z</time>
      </trkpt>
      <trkpt lat="47.99731" lon="6.82882">
        <ele>1023.5</ele>
        <time>2022-05-27T08:04:38Z</time>
      </trkpt>
      <trkpt lat="47.99725" lon="6.82871">
        <ele>1023.8</ele>
        <time>2022-05-27T08:04:40Z</time>
      </trkpt>
      <trkpt lat="47.99718" lon="6.82854">
        <ele>1021.7</ele>
        <time>2022-05-27T08:04:43Z</time>
      </trkpt>
      <trkpt lat="47.99713" lon="6.8284">
        <ele>1021.8</ele>
        <time>2022-05-27T08:04:45Z</time>
      </trkpt>
      <trkpt lat="47.99707" lon="6.82826">
        <ele>1021.1</ele>
        <time>2022-05-27T08:04:47Z</time>
      </trkpt>
      <trkpt lat="47.99699" lon="6.82815">
        <ele>1021.8</ele>
        <time>2022-05-27T08:04:49Z</time>
      </trkpt>
      <trkpt lat="47.9969" lon="6.82808">
        <ele>1020.4</ele>
        <time>2022-05-27T08:04:51Z</time>
      </trkpt>
      <trkpt lat="47.99681" lon="6.82803">
        <ele>1021.9</ele>
        <time>2022-05-27T08:04:53Z</time>
      </trkpt>
      <trkpt lat="47.99671" lon="6.82798">
        <ele>1022.3</ele>
        <time>2022-05-27T08:04:55Z</time>
      </trkpt>
      <trkpt lat="47.99662" lon="6.82796">
        <ele>1025</ele>
        <time>2022-05-27T08:04:57Z</time>
      </trkpt>
      <trkpt lat="47.99651" lon="6.82796">
        <ele>1023.5</ele>
        <time>2022-05-27T08:05:00Z</time>
      </trkpt>
      <trkpt lat="47.99641" lon="6.82795">
        <ele>1022.1</ele>
        <time>2022-05-27T08:05:04Z</time>
      </trkpt>
      <trkpt lat="47.99634" lon="6.82787">
        <ele>1021.4</ele>
        <time>2022-05-27T08:05:08Z</time>
      </trkpt>
      <trkpt lat="47.99632" lon="6.82785">
        <ele>1021</ele>
        <time>2022-05-27T08:05:11Z</time>
      </trkpt>
      <trkpt lat="47.99632" lon="6.82784">
        <ele>1021.5</ele>
        <time>2022-05-27T08:05:42Z</time>
      </trkpt>
      <trkpt lat="47.99625" lon="6.82776">
        <ele>1020.6</ele>
        <time>2022-05-27T08:05:46Z</time>
      </trkpt>
      <trkpt lat="47.99616" lon="6.82764">
        <ele>1019.1</ele>
        <time>2022-05-27T08:05:50Z</time>
      </trkpt>
      <trkpt lat="47.9961" lon="6.82752">
        <ele>1018.4</ele>
        <time>2022-05-27T08:05:54Z</time>
      </trkpt>
      <trkpt lat="47.99601" lon="6.82745">
        <ele>1016.7</ele>
        <time>2022-05-27T08:05:58Z</time>
      </trkpt>
      <trkpt lat="47.99596" lon="6.82731">
        <ele>1012.2</ele>
        <time>2022-05-27T08:06:02Z</time>
      </trkpt>
      <trkpt lat="47.99593" lon="6.82713">
        <ele>1013</ele>
        <time>2022-05-27T08:06:05Z</time>
      </trkpt>
      <trkpt lat="47.99587" lon="6.82695">
        <ele>1011.3</ele>
        <time>2022-05-27T08:06:08Z</time>
      </trkpt>
      <trkpt lat="47.99581" lon="6.82681">
        <ele>1008.8</ele>
        <time>2022-05-27T08:06:10Z</time>
      </trkpt>
      <trkpt lat="47.99575" lon="6.82667">
        <ele>1007.2</ele>
        <time>2022-05-27T08:06:12Z</time>
      </trkpt>
      <trkpt lat="47.99568" lon="6.82654">
        <ele>1009.2</ele>
        <time>2022-05-27T08:06:14Z</time>
      </trkpt>
      <trkpt lat="47.99561" lon="6.8264">
        <ele>1009.3</ele>
        <time>2022-05-27T08:06:16Z</time>
      </trkpt>
      <trkpt lat="47.99556" lon="6.82624">
        <ele>1009.5</ele>
        <time>2022-05-27T08:06:18Z</time>
      </trkpt>
      <trkpt lat="47.99551" lon="6.82609">
        <ele>1010.5</ele>
        <time>2022-05-27T08:06:20Z</time>
      </trkpt>
      <trkpt lat="47.99546" lon="6.82596">
        <ele>1008.2</ele>
        <time>2022-05-27T08:06:22Z</time>
      </trkpt>
      <trkpt lat="47.99538" lon="6.8258">
        <ele>1005.7</ele>
        <time>2022-05-27T08:06:25Z</time>
      </trkpt>
      <trkpt lat="47.9953" lon="6.82567">
        <ele>1006.6</ele>
        <time>2022-05-27T08:06:27Z</time>
      </trkpt>
      <trkpt lat="47.99523" lon="6.82554">
        <ele>1006.1</ele>
        <time>2022-05-27T08:06:29Z</time>
      </trkpt>
      <trkpt lat="47.99516" lon="6.8254">
        <ele>1006</ele>
        <time>2022-05-27T08:06:31Z</time>
      </trkpt>
      <trkpt lat="47.99508" lon="6.82526">
        <ele>1005.1</ele>
        <time>2022-05-27T08:06:33Z</time>
      </trkpt>
      <trkpt lat="47.995" lon="6.82513">
        <ele>1005.3</ele>
        <time>2022-05-27T08:06:35Z</time>
      </trkpt>
      <trkpt lat="47.99493" lon="6.825">
        <ele>1004.5</ele>
        <time>2022-05-27T08:06:37Z</time>
      </trkpt>
      <trkpt lat="47.99486" lon="6.82487">
        <ele>1004</ele>
        <time>2022-05-27T08:06:39Z</time>
      </trkpt>
      <trkpt lat="47.9948" lon="6.82475">
        <ele>1003.9</ele>
        <time>2022-05-27T08:06:41Z</time>
      </trkpt>
      <trkpt lat="47.99474" lon="6.82464">
        <ele>1004.5</ele>
        <time>2022-05-27T08:06:43Z</time>
      </trkpt>
      <trkpt lat="47.99467" lon="6.82452">
        <ele>1004.6</ele>
        <time>2022-05-27T08:06:45Z</time>
      </trkpt>
      <trkpt lat="47.99461" lon="6.8244">
        <ele>1003.4</ele>
        <time>2022-05-27T08:06:47Z</time>
      </trkpt>
      <trkpt lat="47.99455" lon="6.82428">
        <ele>1001.7</ele>
        <time>2022-05-27T08:06:49Z</time>
      </trkpt>
      <trkpt lat="47.99449" lon="6.82418">
        <ele>1001.6</ele>
        <time>2022-05-27T08:06:51Z</time>
      </trkpt>
      <trkpt lat="47.99445" lon="6.82402">
        <ele>1003.4</ele>
        <time>2022-05-27T08:06:54Z</time>
      </trkpt>
      <trkpt lat="47.99442" lon="6.82387">
        <ele>1003.7</ele>
        <time>2022-05-27T08:06:58Z</time>
      </trkpt>
      <trkpt lat="47.99438" lon="6.82374">
        <ele>1003.7</ele>
        <time>2022-05-27T08:07:01Z</time>
      </trkpt>
      <trkpt lat="47.99436" lon="6.82361">
        <ele>1004.3</ele>
        <time>2022-05-27T08:07:04Z</time>
      </trkpt>
      <trkpt lat="47.99433" lon="6.82346">
        <ele>1005</ele>
        <time>2022-05-27T08:07:07Z</time>
      </trkpt>
      <trkpt lat="47.99431" lon="6.82329">
        <ele>1005.8</ele>
        <time>2022-05-27T08:07:10Z</time>
      </trkpt>
      <trkpt lat="47.99429" lon="6.82314">
        <ele>1005.2</ele>
        <time>2022-05-27T08:07:13Z</time>
      </trkpt>
      <trkpt lat="47.99428" lon="6.823">
        <ele>1005.9</ele>
        <time>2022-05-27T08:07:16Z</time>
      </trkpt>
      <trkpt lat="47.99428" lon="6.82283">
        <ele>1004.6</ele>
        <time>2022-05-27T08:07:19Z</time>
      </trkpt>
      <trkpt lat="47.9943" lon="6.82266">
        <ele>1005.1</ele>
        <time>2022-05-27T08:07:22Z</time>
      </trkpt>
      <trkpt lat="47.99432" lon="6.82249">
        <ele>1004</ele>
        <time>2022-05-27T08:07:25Z</time>
      </trkpt>
      <trkpt lat="47.99431" lon="6.82234">
        <ele>1002.4</ele>
        <time>2022-05-27T08:07:28Z</time>
      </trkpt>
      <trkpt lat="47.9943" lon="6.82219">
        <ele>1004.6</ele>
        <time>2022-05-27T08:07:31Z</time>
      </trkpt>
      <trkpt lat="47.99428" lon="6.82205">
        <ele>1003.7</ele>
        <time>2022-05-27T08:07:34Z</time>
      </trkpt>
      <trkpt lat="47.99426" lon="6.82191">
        <ele>1003.6</ele>
        <time>2022-05-27T08:07:38Z</time>
      </trkpt>
      <trkpt lat="47.99425" lon="6.82185">
        <ele>1003.9</ele>
        <time>2022-05-27T08:07:43Z</time>
      </trkpt>
      <trkpt lat="47.99421" lon="6.82169">
        <ele>1002.5</ele>
        <time>2022-05-27T08:08:21Z</time>
      </trkpt>
      <trkpt lat="47.99417" lon="6.82151">
        <ele>1002.2</ele>
        <time>2022-05-27T08:08:24Z</time>
      </trkpt>
      <trkpt lat="47.99414" lon="6.82138">
        <ele>1002.5</ele>
        <time>2022-05-27T08:08:26Z</time>
      </trkpt>
      <trkpt lat="47.99412" lon="6.82125">
        <ele>1003.1</ele>
        <time>2022-05-27T08:08:28Z</time>
      </trkpt>
      <trkpt lat="47.9941" lon="6.82106">
        <ele>1002.6</ele>
        <time>2022-05-27T08:08:31Z</time>
      </trkpt>
      <trkpt lat="47.99409" lon="6.82089">
        <ele>1001.8</ele>
        <time>2022-05-27T08:08:34Z</time>
      </trkpt>
      <trkpt lat="47.99408" lon="6.82073">
        <ele>1002.6</ele>
        <time>2022-05-27T08:08:37Z</time>
      </trkpt>
      <trkpt lat="47.99408" lon="6.82057">
        <ele>1002.4</ele>
        <time>2022-05-27T08:08:40Z</time>
      </trkpt>
      <trkpt lat="47.99409" lon="6.82041">
        <ele>1003</ele>
        <time>2022-05-27T08:08:43Z</time>
      </trkpt>
      <trkpt lat="47.9941" lon="6.82026">
        <ele>1003.1</ele>
        <time>2022-05-27T08:08:46Z</time>
      </trkpt>
      <trkpt lat="47.99411" lon="6.82009">
        <ele>1004.1</ele>
        <time>2022-05-27T08:08:50Z</time>
      </trkpt>
      <trkpt lat="47.99412" lon="6.81992">
        <ele>1003.9</ele>
        <time>2022-05-27T08:08:54Z</time>
      </trkpt>
      <trkpt lat="47.99411" lon="6.81977">
        <ele>1003.5</ele>
        <time>2022-05-27T08:08:58Z</time>
      </trkpt>
      <trkpt lat="47.99405" lon="6.81963">
        <ele>1004.3</ele>
        <time>2022-05-27T08:09:01Z</time>
      </trkpt>
      <trkpt lat="47.99397" lon="6.81949">
        <ele>1004.6</ele>
        <time>2022-05-27T08:09:04Z</time>
      </trkpt>
      <trkpt lat="47.99391" lon="6.81936">
        <ele>1003.9</ele>
        <time>2022-05-27T08:09:07Z</time>
      </trkpt>
      <trkpt lat="47.99388" lon="6.8192">
        <ele>1003.4</ele>
        <time>2022-05-27T08:09:10Z</time>
      </trkpt>
      <trkpt lat="47.99385" lon="6.81905">
        <ele>1003.4</ele>
        <time>2022-05-27T08:09:13Z</time>
      </trkpt>
      <trkpt lat="47.99381" lon="6.81888">
        <ele>1004.5</ele>
        <time>2022-05-27T08:09:16Z</time>
      </trkpt>
      <trkpt lat="47.99377" lon="6.81873">
        <ele>1004.7</ele>
        <time>2022-05-27T08:09:19Z</time>
      </trkpt>
      <trkpt lat="47.99374" lon="6.81858">
        <ele>1005</ele>
        <time>2022-05-27T08:09:22Z</time>
      </trkpt>
      <trkpt lat="47.9937" lon="6.81843">
        <ele>1004.5</ele>
        <time>2022-05-27T08:09:25Z</time>
      </trkpt>
      <trkpt lat="47.99367" lon="6.81828">
        <ele>1004.5</ele>
        <time>2022-05-27T08:09:28Z</time>
      </trkpt>
      <trkpt lat="47.99365" lon="6.81812">
        <ele>1005.8</ele>
        <time>2022-05-27T08:09:31Z</time>
      </trkpt>
      <trkpt lat="47.99362" lon="6.81797">
        <ele>1005.5</ele>
        <time>2022-05-27T08:09:34Z</time>
      </trkpt>
      <trkpt lat="47.9936" lon="6.81782">
        <ele>1005.4</ele>
        <time>2022-05-27T08:09:37Z</time>
      </trkpt>
      <trkpt lat="47.99358" lon="6.81768">
        <ele>1006</ele>
        <time>2022-05-27T08:09:40Z</time>
      </trkpt>
      <trkpt lat="47.99357" lon="6.81752">
        <ele>1006.2</ele>
        <time>2022-05-27T08:09:43Z</time>
      </trkpt>
      <trkpt lat="47.99356" lon="6.81738">
        <ele>1006.4</ele>
        <time>2022-05-27T08:09:46Z</time>
      </trkpt>
      <trkpt lat="47.99356" lon="6.81722">
        <ele>1006.2</ele>
        <time>2022-05-27T08:09:49Z</time>
      </trkpt>
      <trkpt lat="47.99356" lon="6.81707">
        <ele>1006.4</ele>
        <time>2022-05-27T08:09:52Z</time>
      </trkpt>
      <trkpt lat="47.99356" lon="6.81694">
        <ele>1006.9</ele>
        <time>2022-05-27T08:09:55Z</time>
      </trkpt>
      <trkpt lat="47.99357" lon="6.81678">
        <ele>1007.3</ele>
        <time>2022-05-27T08:09:58Z</time>
      </trkpt>
      <trkpt lat="47.99359" lon="6.81661">
        <ele>1006.5</ele>
        <time>2022-05-27T08:10:01Z</time>
      </trkpt>
      <trkpt lat="47.99361" lon="6.81645">
        <ele>1006.8</ele>
        <time>2022-05-27T08:10:04Z</time>
      </trkpt>
      <trkpt lat="47.99364" lon="6.81628">
        <ele>1006.1</ele>
        <time>2022-05-27T08:10:07Z</time>
      </trkpt>
      <trkpt lat="47.9937" lon="6.81613">
        <ele>1006.2</ele>
        <time>2022-05-27T08:10:10Z</time>
      </trkpt>
      <trkpt lat="47.99377" lon="6.816">
        <ele>1005.6</ele>
        <time>2022-05-27T08:10:13Z</time>
      </trkpt>
      <trkpt lat="47.99387" lon="6.81589">
        <ele>1005.6</ele>
        <time>2022-05-27T08:10:16Z</time>
      </trkpt>
      <trkpt lat="47.99398" lon="6.81582">
        <ele>1004.4</ele>
        <time>2022-05-27T08:10:19Z</time>
      </trkpt>
      <trkpt lat="47.99408" lon="6.81578">
        <ele>1005.8</ele>
        <time>2022-05-27T08:10:22Z</time>
      </trkpt>
      <trkpt lat="47.99419" lon="6.81576">
        <ele>1006.2</ele>
        <time>2022-05-27T08:10:25Z</time>
      </trkpt>
      <trkpt lat="47.9943" lon="6.81574">
        <ele>1005</ele>
        <time>2022-05-27T08:10:28Z</time>
      </trkpt>
      <trkpt lat="47.9944" lon="6.81577">
        <ele>1005.3</ele>
        <time>2022-05-27T08:10:31Z</time>
      </trkpt>
      <trkpt lat="47.99451" lon="6.81577">
        <ele>1004.6</ele>
        <time>2022-05-27T08:10:34Z</time>
      </trkpt>
      <trkpt lat="47.99463" lon="6.81573">
        <ele>1003.5</ele>
        <time>2022-05-27T08:10:37Z</time>
      </trkpt>
      <trkpt lat="47.99474" lon="6.81569">
        <ele>1004.2</ele>
        <time>2022-05-27T08:10:40Z</time>
      </trkpt>
      <trkpt lat="47.99485" lon="6.81565">
        <ele>1006.2</ele>
        <time>2022-05-27T08:10:43Z</time>
      </trkpt>
      <trkpt lat="47.99495" lon="6.81561">
        <ele>1005.5</ele>
        <time>2022-05-27T08:10:46Z</time>
      </trkpt>
      <trkpt lat="47.99505" lon="6.81557">
        <ele>1005.6</ele>
        <time>2022-05-27T08:10:49Z</time>
      </trkpt>
      <trkpt lat="47.99516" lon="6.81554">
        <ele>1005.4</ele>
        <time>2022-05-27T08:10:52Z</time>
      </trkpt>
      <trkpt lat="47.99526" lon="6.8155">
        <ele>1005.4</ele>
        <time>2022-05-27T08:10:55Z</time>
      </trkpt>
      <trkpt lat="47.99536" lon="6.81546">
        <ele>1005.2</ele>
        <time>2022-05-27T08:10:58Z</time>
      </trkpt>
      <trkpt lat="47.99546" lon="6.81539">
        <ele>1004.9</ele>
        <time>2022-05-27T08:11:01Z</time>
      </trkpt>
      <trkpt lat="47.99551" lon="6.81524">
        <ele>1005</ele>
        <time>2022-05-27T08:11:05Z</time>
      </trkpt>
      <trkpt lat="47.99557" lon="6.8151">
        <ele>1004.6</ele>
        <time>2022-05-27T08:11:09Z</time>
      </trkpt>
      <trkpt lat="47.99562" lon="6.81497">
        <ele>1005.4</ele>
        <time>2022-05-27T08:11:12Z</time>
      </trkpt>
      <trkpt lat="47.99567" lon="6.81482">
        <ele>1005.8</ele>
        <time>2022-05-27T08:11:15Z</time>
      </trkpt>
      <trkpt lat="47.99571" lon="6.81468">
        <ele>1003.8</ele>
        <time>2022-05-27T08:11:17Z</time>
      </trkpt>
      <trkpt lat="47.99576" lon="6.81453">
        <ele>1003.8</ele>
        <time>2022-05-27T08:11:19Z</time>
      </trkpt>
      <trkpt lat="47.9958" lon="6.81439">
        <ele>1004.7</ele>
        <time>2022-05-27T08:11:21Z</time>
      </trkpt>
      <trkpt lat="47.99584" lon="6.81423">
        <ele>1002.2</ele>
        <time>2022-05-27T08:11:23Z</time>
      </trkpt>
      <trkpt lat="47.99589" lon="6.81407">
        <ele>1003.4</ele>
        <time>2022-05-27T08:11:25Z</time>
      </trkpt>
      <trkpt lat="47.99592" lon="6.81391">
        <ele>1001.4</ele>
        <time>2022-05-27T08:11:27Z</time>
      </trkpt>
      <trkpt lat="47.99595" lon="6.81375">
        <ele>1001</ele>
        <time>2022-05-27T08:11:29Z</time>
      </trkpt>
      <trkpt lat="47.99598" lon="6.81357">
        <ele>998.3</ele>
        <time>2022-05-27T08:11:31Z</time>
      </trkpt>
      <trkpt lat="47.99601" lon="6.81339">
        <ele>1001.4</ele>
        <time>2022-05-27T08:11:33Z</time>
      </trkpt>
      <trkpt lat="47.99605" lon="6.81322">
        <ele>999.3</ele>
        <time>2022-05-27T08:11:35Z</time>
      </trkpt>
      <trkpt lat="47.9961" lon="6.81305">
        <ele>999.8</ele>
        <time>2022-05-27T08:11:37Z</time>
      </trkpt>
      <trkpt lat="47.99615" lon="6.81289">
        <ele>998.3</ele>
        <time>2022-05-27T08:11:39Z</time>
      </trkpt>
      <trkpt lat="47.9962" lon="6.81272">
        <ele>998.3</ele>
        <time>2022-05-27T08:11:41Z</time>
      </trkpt>
      <trkpt lat="47.99625" lon="6.81254">
        <ele>998.7</ele>
        <time>2022-05-27T08:11:43Z</time>
      </trkpt>
      <trkpt lat="47.99629" lon="6.81236">
        <ele>995.3</ele>
        <time>2022-05-27T08:11:45Z</time>
      </trkpt>
      <trkpt lat="47.99631" lon="6.81217">
        <ele>994.4</ele>
        <time>2022-05-27T08:11:47Z</time>
      </trkpt>
      <trkpt lat="47.99632" lon="6.81198">
        <ele>993.8</ele>
        <time>2022-05-27T08:11:49Z</time>
      </trkpt>
      <trkpt lat="47.99634" lon="6.8118">
        <ele>993.7</ele>
        <time>2022-05-27T08:11:51Z</time>
      </trkpt>
      <trkpt lat="47.99634" lon="6.81163">
        <ele>994.6</ele>
        <time>2022-05-27T08:11:53Z</time>
      </trkpt>
      <trkpt lat="47.99632" lon="6.81148">
        <ele>995.5</ele>
        <time>2022-05-27T08:11:55Z</time>
      </trkpt>
      <trkpt lat="47.99629" lon="6.81128">
        <ele>992.5</ele>
        <time>2022-05-27T08:11:58Z</time>
      </trkpt>
      <trkpt lat="47.99626" lon="6.81112">
        <ele>991.7</ele>
        <time>2022-05-27T08:12:00Z</time>
      </trkpt>
      <trkpt lat="47.99624" lon="6.81094">
        <ele>989.4</ele>
        <time>2022-05-27T08:12:02Z</time>
      </trkpt>
      <trkpt lat="47.99621" lon="6.81076">
        <ele>987.9</ele>
        <time>2022-05-27T08:12:04Z</time>
      </trkpt>
      <trkpt lat="47.99619" lon="6.8106">
        <ele>989.1</ele>
        <time>2022-05-27T08:12:06Z</time>
      </trkpt>
      <trkpt lat="47.99618" lon="6.81044">
        <ele>987.4</ele>
        <time>2022-05-27T08:12:08Z</time>
      </trkpt>
      <trkpt lat="47.99617" lon="6.81027">
        <ele>990.1</ele>
        <time>2022-05-27T08:12:11Z</time>
      </trkpt>
      <trkpt lat="47.99616" lon="6.81021">
        <ele>988.4</ele>
        <time>2022-05-27T08:12:14Z</time>
      </trkpt>
      <trkpt lat="47.99616" lon="6.81022">
        <ele>988.7</ele>
        <time>2022-05-27T08:14:19Z</time>
      </trkpt>
      <trkpt lat="47.99612" lon="6.81009">
        <ele>988</ele>
        <time>2022-05-27T08:14:24Z</time>
      </trkpt>
      <trkpt lat="47.99609" lon="6.80992">
        <ele>986.5</ele>
        <time>2022-05-27T08:14:27Z</time>
      </trkpt>
      <trkpt lat="47.99606" lon="6.80973">
        <ele>987.3</ele>
        <time>2022-05-27T08:14:30Z</time>
      </trkpt>
      <trkpt lat="47.99604" lon="6.80954">
        <ele>986.5</ele>
        <time>2022-05-27T08:14:33Z</time>
      </trkpt>
      <trkpt lat="47.99603" lon="6.80937">
        <ele>986.5</ele>
        <time>2022-05-27T08:14:36Z</time>
      </trkpt>
      <trkpt lat="47.99604" lon="6.80922">
        <ele>985.9</ele>
        <time>2022-05-27T08:14:39Z</time>
      </trkpt>
      <trkpt lat="47.99607" lon="6.80908">
        <ele>985</ele>
        <time>2022-05-27T08:14:42Z</time>
      </trkpt>
      <trkpt lat="47.99611" lon="6.80894">
        <ele>984.9</ele>
        <time>2022-05-27T08:14:45Z</time>
      </trkpt>
      <trkpt lat="47.99617" lon="6.80878">
        <ele>981.4</ele>
        <time>2022-05-27T08:14:48Z</time>
      </trkpt>
      <trkpt lat="47.99622" lon="6.80866">
        <ele>982.7</ele>
        <time>2022-05-27T08:14:50Z</time>
      </trkpt>
      <trkpt lat="47.99629" lon="6.80852">
        <ele>980.7</ele>
        <time>2022-05-27T08:14:52Z</time>
      </trkpt>
      <trkpt lat="47.99636" lon="6.80837">
        <ele>979.4</ele>
        <time>2022-05-27T08:14:54Z</time>
      </trkpt>
      <trkpt lat="47.99642" lon="6.80823">
        <ele>975.7</ele>
        <time>2022-05-27T08:14:56Z</time>
      </trkpt>
      <trkpt lat="47.99648" lon="6.80811">
        <ele>975</ele>
        <time>2022-05-27T08:14:58Z</time>
      </trkpt>
      <trkpt lat="47.99656" lon="6.80797">
        <ele>976.9</ele>
        <time>2022-05-27T08:15:01Z</time>
      </trkpt>
      <trkpt lat="47.99665" lon="6.80784">
        <ele>975.4</ele>
        <time>2022-05-27T08:15:04Z</time>
      </trkpt>
      <trkpt lat="47.99672" lon="6.80772">
        <ele>975.4</ele>
        <time>2022-05-27T08:15:06Z</time>
      </trkpt>
      <trkpt lat="47.99679" lon="6.8076">
        <ele>972.8</ele>
        <time>2022-05-27T08:15:08Z</time>
      </trkpt>
      <trkpt lat="47.99689" lon="6.8075">
        <ele>971.2</ele>
        <time>2022-05-27T08:15:10Z</time>
      </trkpt>
      <trkpt lat="47.997" lon="6.80743">
        <ele>970.3</ele>
        <time>2022-05-27T08:15:12Z</time>
      </trkpt>
      <trkpt lat="47.99711" lon="6.80734">
        <ele>970.2</ele>
        <time>2022-05-27T08:15:14Z</time>
      </trkpt>
      <trkpt lat="47.9972" lon="6.80721">
        <ele>969.6</ele>
        <time>2022-05-27T08:15:16Z</time>
      </trkpt>
      <trkpt lat="47.9973" lon="6.80709">
        <ele>971.2</ele>
        <time>2022-05-27T08:15:19Z</time>
      </trkpt>
      <trkpt lat="47.99743" lon="6.80705">
        <ele>969.2</ele>
        <time>2022-05-27T08:15:22Z</time>
      </trkpt>
      <trkpt lat="47.99756" lon="6.80709">
        <ele>969.1</ele>
        <time>2022-05-27T08:15:25Z</time>
      </trkpt>
      <trkpt lat="47.99763" lon="6.80723">
        <ele>969.9</ele>
        <time>2022-05-27T08:15:28Z</time>
      </trkpt>
      <trkpt lat="47.99768" lon="6.80741">
        <ele>968.4</ele>
        <time>2022-05-27T08:15:31Z</time>
      </trkpt>
      <trkpt lat="47.9977" lon="6.80754">
        <ele>969.1</ele>
        <time>2022-05-27T08:15:33Z</time>
      </trkpt>
      <trkpt lat="47.99774" lon="6.80773">
        <ele>967.4</ele>
        <time>2022-05-27T08:15:36Z</time>
      </trkpt>
      <trkpt lat="47.99779" lon="6.80786">
        <ele>968.4</ele>
        <time>2022-05-27T08:15:38Z</time>
      </trkpt>
      <trkpt lat="47.99786" lon="6.80798">
        <ele>968.2</ele>
        <time>2022-05-27T08:15:40Z</time>
      </trkpt>
      <trkpt lat="47.99792" lon="6.8081">
        <ele>969.3</ele>
        <time>2022-05-27T08:15:42Z</time>
      </trkpt>
      <trkpt lat="47.99799" lon="6.80821">
        <ele>968.7</ele>
        <time>2022-05-27T08:15:44Z</time>
      </trkpt>
      <trkpt lat="47.99806" lon="6.80833">
        <ele>965.7</ele>
        <time>2022-05-27T08:15:46Z</time>
      </trkpt>
      <trkpt lat="47.99814" lon="6.80843">
        <ele>964.1</ele>
        <time>2022-05-27T08:15:48Z</time>
      </trkpt>
      <trkpt lat="47.99824" lon="6.80853">
        <ele>965.7</ele>
        <time>2022-05-27T08:15:50Z</time>
      </trkpt>
      <trkpt lat="47.99833" lon="6.80866">
        <ele>965</ele>
        <time>2022-05-27T08:15:52Z</time>
      </trkpt>
      <trkpt lat="47.99845" lon="6.80875">
        <ele>965.3</ele>
        <time>2022-05-27T08:15:54Z</time>
      </trkpt>
      <trkpt lat="47.99857" lon="6.80884">
        <ele>962.1</ele>
        <time>2022-05-27T08:15:56Z</time>
      </trkpt>
      <trkpt lat="47.99869" lon="6.80896">
        <ele>961.4</ele>
        <time>2022-05-27T08:15:58Z</time>
      </trkpt>
      <trkpt lat="47.99878" lon="6.80912">
        <ele>961.8</ele>
        <time>2022-05-27T08:16:00Z</time>
      </trkpt>
      <trkpt lat="47.99882" lon="6.80931">
        <ele>962.3</ele>
        <time>2022-05-27T08:16:02Z</time>
      </trkpt>
      <trkpt lat="47.99885" lon="6.80951">
        <ele>960.7</ele>
        <time>2022-05-27T08:16:04Z</time>
      </trkpt>
      <trkpt lat="47.99891" lon="6.80973">
        <ele>962.4</ele>
        <time>2022-05-27T08:16:06Z</time>
      </trkpt>
      <trkpt lat="47.999" lon="6.80993">
        <ele>962.5</ele>
        <time>2022-05-27T08:16:08Z</time>
      </trkpt>
      <trkpt lat="47.99909" lon="6.81014">
        <ele>958.8</ele>
        <time>2022-05-27T08:16:10Z</time>
      </trkpt>
      <trkpt lat="47.99916" lon="6.81035">
        <ele>957.8</ele>
        <time>2022-05-27T08:16:12Z</time>
      </trkpt>
      <trkpt lat="47.99924" lon="6.81055">
        <ele>959.9</ele>
        <time>2022-05-27T08:16:14Z</time>
      </trkpt>
      <trkpt lat="47.99931" lon="6.81075">
        <ele>958.6</ele>
        <time>2022-05-27T08:16:16Z</time>
      </trkpt>
      <trkpt lat="47.99933" lon="6.81097">
        <ele>957.5</ele>
        <time>2022-05-27T08:16:18Z</time>
      </trkpt>
      <trkpt lat="47.99932" lon="6.81119">
        <ele>957.4</ele>
        <time>2022-05-27T08:16:20Z</time>
      </trkpt>
      <trkpt lat="47.99935" lon="6.8114">
        <ele>955.8</ele>
        <time>2022-05-27T08:16:22Z</time>
      </trkpt>
      <trkpt lat="47.99941" lon="6.81157">
        <ele>956.8</ele>
        <time>2022-05-27T08:16:24Z</time>
      </trkpt>
      <trkpt lat="47.99952" lon="6.81166">
        <ele>955.9</ele>
        <time>2022-05-27T08:16:26Z</time>
      </trkpt>
      <trkpt lat="47.99962" lon="6.81176">
        <ele>954</ele>
        <time>2022-05-27T08:16:28Z</time>
      </trkpt>
      <trkpt lat="47.99966" lon="6.81193">
        <ele>954.2</ele>
        <time>2022-05-27T08:16:30Z</time>
      </trkpt>
      <trkpt lat="47.99964" lon="6.81212">
        <ele>954.3</ele>
        <time>2022-05-27T08:16:32Z</time>
      </trkpt>
      <trkpt lat="47.99959" lon="6.81231">
        <ele>952.9</ele>
        <time>2022-05-27T08:16:34Z</time>
      </trkpt>
      <trkpt lat="47.99952" lon="6.81251">
        <ele>951.6</ele>
        <time>2022-05-27T08:16:36Z</time>
      </trkpt>
      <trkpt lat="47.99946" lon="6.8127">
        <ele>953.1</ele>
        <time>2022-05-27T08:16:38Z</time>
      </trkpt>
      <trkpt lat="47.99942" lon="6.81291">
        <ele>952</ele>
        <time>2022-05-27T08:16:40Z</time>
      </trkpt>
      <trkpt lat="47.99939" lon="6.81313">
        <ele>948.5</ele>
        <time>2022-05-27T08:16:42Z</time>
      </trkpt>
      <trkpt lat="47.99936" lon="6.81334">
        <ele>949</ele>
        <time>2022-05-27T08:16:44Z</time>
      </trkpt>
      <trkpt lat="47.99933" lon="6.81354">
        <ele>952.2</ele>
        <time>2022-05-27T08:16:46Z</time>
      </trkpt>
      <trkpt lat="47.99928" lon="6.81375">
        <ele>950.4</ele>
        <time>2022-05-27T08:16:48Z</time>
      </trkpt>
      <trkpt lat="47.99925" lon="6.81394">
        <ele>949</ele>
        <time>2022-05-27T08:16:50Z</time>
      </trkpt>
      <trkpt lat="47.99922" lon="6.81413">
        <ele>949.3</ele>
        <time>2022-05-27T08:16:52Z</time>
      </trkpt>
      <trkpt lat="47.99918" lon="6.81431">
        <ele>950.7</ele>
        <time>2022-05-27T08:16:54Z</time>
      </trkpt>
      <trkpt lat="47.99914" lon="6.81449">
        <ele>949.5</ele>
        <time>2022-05-27T08:16:56Z</time>
      </trkpt>
      <trkpt lat="47.99913" lon="6.81468">
        <ele>949.6</ele>
        <time>2022-05-27T08:16:58Z</time>
      </trkpt>
      <trkpt lat="47.99913" lon="6.81488">
        <ele>947.9</ele>
        <time>2022-05-27T08:17:00Z</time>
      </trkpt>
      <trkpt lat="47.99914" lon="6.81509">
        <ele>946.1</ele>
        <time>2022-05-27T08:17:02Z</time>
      </trkpt>
      <trkpt lat="47.99914" lon="6.81531">
        <ele>945.3</ele>
        <time>2022-05-27T08:17:04Z</time>
      </trkpt>
      <trkpt lat="47.99914" lon="6.81554">
        <ele>946.9</ele>
        <time>2022-05-27T08:17:06Z</time>
      </trkpt>
      <trkpt lat="47.99912" lon="6.81578">
        <ele>946.8</ele>
        <time>2022-05-27T08:17:08Z</time>
      </trkpt>
      <trkpt lat="47.99911" lon="6.816">
        <ele>945.3</ele>
        <time>2022-05-27T08:17:10Z</time>
      </trkpt>
      <trkpt lat="47.99912" lon="6.81622">
        <ele>946</ele>
        <time>2022-05-27T08:17:12Z</time>
      </trkpt>
      <trkpt lat="47.99915" lon="6.81644">
        <ele>945.7</ele>
        <time>2022-05-27T08:17:14Z</time>
      </trkpt>
      <trkpt lat="47.99919" lon="6.81666">
        <ele>946.3</ele>
        <time>2022-05-27T08:17:16Z</time>
      </trkpt>
      <trkpt lat="47.99923" lon="6.81686">
        <ele>945.1</ele>
        <time>2022-05-27T08:17:18Z</time>
      </trkpt>
      <trkpt lat="47.99928" lon="6.81702">
        <ele>946.8</ele>
        <time>2022-05-27T08:17:20Z</time>
      </trkpt>
      <trkpt lat="47.99934" lon="6.81715">
        <ele>946.9</ele>
        <time>2022-05-27T08:17:22Z</time>
      </trkpt>
      <trkpt lat="47.99942" lon="6.81723">
        <ele>947.8</ele>
        <time>2022-05-27T08:17:24Z</time>
      </trkpt>
      <trkpt lat="47.99952" lon="6.81729">
        <ele>948.6</ele>
        <time>2022-05-27T08:17:26Z</time>
      </trkpt>
      <trkpt lat="47.99962" lon="6.8173">
        <ele>947.2</ele>
        <time>2022-05-27T08:17:28Z</time>
      </trkpt>
      <trkpt lat="47.99975" lon="6.81731">
        <ele>949.8</ele>
        <time>2022-05-27T08:17:31Z</time>
      </trkpt>
      <trkpt lat="47.99984" lon="6.81737">
        <ele>949.6</ele>
        <time>2022-05-27T08:17:33Z</time>
      </trkpt>
      <trkpt lat="47.99992" lon="6.81746">
        <ele>949.7</ele>
        <time>2022-05-27T08:17:35Z</time>
      </trkpt>
      <trkpt lat="48.00001" lon="6.81753">
        <ele>950.8</ele>
        <time>2022-05-27T08:17:37Z</time>
      </trkpt>
      <trkpt lat="48.0001" lon="6.81763">
        <ele>951.6</ele>
        <time>2022-05-27T08:17:40Z</time>
      </trkpt>
      <trkpt lat="48.00019" lon="6.81776">
        <ele>952.9</ele>
        <time>2022-05-27T08:17:44Z</time>
      </trkpt>
      <trkpt lat="48.00028" lon="6.81783">
        <ele>953.9</ele>
        <time>2022-05-27T08:17:48Z</time>
      </trkpt>
      <trkpt lat="48.00038" lon="6.81787">
        <ele>954.2</ele>
        <time>2022-05-27T08:17:52Z</time>
      </trkpt>
      <trkpt lat="48.00048" lon="6.81788">
        <ele>953.9</ele>
        <time>2022-05-27T08:17:55Z</time>
      </trkpt>
      <trkpt lat="48.00057" lon="6.81789">
        <ele>955</ele>
        <time>2022-05-27T08:17:58Z</time>
      </trkpt>
      <trkpt lat="48.00067" lon="6.8179">
        <ele>954.2</ele>
        <time>2022-05-27T08:18:01Z</time>
      </trkpt>
      <trkpt lat="48.00078" lon="6.8179">
        <ele>952.8</ele>
        <time>2022-05-27T08:18:04Z</time>
      </trkpt>
      <trkpt lat="48.00088" lon="6.81784">
        <ele>953.4</ele>
        <time>2022-05-27T08:18:07Z</time>
      </trkpt>
      <trkpt lat="48.00098" lon="6.81774">
        <ele>953.5</ele>
        <time>2022-05-27T08:18:10Z</time>
      </trkpt>
      <trkpt lat="48.00108" lon="6.81764">
        <ele>954</ele>
        <time>2022-05-27T08:18:13Z</time>
      </trkpt>
      <trkpt lat="48.00116" lon="6.81756">
        <ele>953.6</ele>
        <time>2022-05-27T08:18:16Z</time>
      </trkpt>
      <trkpt lat="48.00122" lon="6.81745">
        <ele>952.6</ele>
        <time>2022-05-27T08:18:22Z</time>
      </trkpt>
      <trkpt lat="48.00122" lon="6.81741">
        <ele>952.8</ele>
        <time>2022-05-27T08:18:27Z</time>
      </trkpt>
      <trkpt lat="48.00122" lon="6.81741">
        <ele>953</ele>
        <time>2022-05-27T08:18:35Z</time>
      </trkpt>
      <trkpt lat="48.00123" lon="6.81741">
        <ele>953.2</ele>
        <time>2022-05-27T08:18:42Z</time>
      </trkpt>
      <trkpt lat="48.00123" lon="6.81742">
        <ele>953.1</ele>
        <time>2022-05-27T08:18:55Z</time>
      </trkpt>
      <trkpt lat="48.00123" lon="6.81742">
        <ele>953.1</ele>
        <time>2022-05-27T08:18:57Z</time>
      </trkpt>
      <trkpt lat="48.00123" lon="6.81741">
        <ele>953.1</ele>
        <time>2022-05-27T08:19:47Z</time>
      </trkpt>
      <trkpt lat="48.00123" lon="6.81741">
        <ele>953.1</ele>
        <time>2022-05-27T08:20:14Z</time>
      </trkpt>
      <trkpt lat="48.00131" lon="6.81727">
        <ele>951.3</ele>
        <time>2022-05-27T08:20:41Z</time>
      </trkpt>
      <trkpt lat="48.00138" lon="6.81713">
        <ele>949.5</ele>
        <time>2022-05-27T08:20:43Z</time>
      </trkpt>
      <trkpt lat="48.00145" lon="6.81698">
        <ele>948.6</ele>
        <time>2022-05-27T08:20:45Z</time>
      </trkpt>
      <trkpt lat="48.00152" lon="6.81684">
        <ele>946.4</ele>
        <time>2022-05-27T08:20:47Z</time>
      </trkpt>
      <trkpt lat="48.00159" lon="6.81668">
        <ele>945.5</ele>
        <time>2022-05-27T08:20:49Z</time>
      </trkpt>
      <trkpt lat="48.00167" lon="6.81653">
        <ele>943.5</ele>
        <time>2022-05-27T08:20:51Z</time>
      </trkpt>
      <trkpt lat="48.00174" lon="6.81637">
        <ele>944.2</ele>
        <time>2022-05-27T08:20:53Z</time>
      </trkpt>
      <trkpt lat="48.0018" lon="6.81618">
        <ele>939.1</ele>
        <time>2022-05-27T08:20:55Z</time>
      </trkpt>
      <trkpt lat="48.00189" lon="6.81598">
        <ele>937.2</ele>
        <time>2022-05-27T08:20:57Z</time>
      </trkpt>
      <trkpt lat="48.00198" lon="6.81582">
        <ele>937.9</ele>
        <time>2022-05-27T08:20:59Z</time>
      </trkpt>
      <trkpt lat="48.00207" lon="6.81564">
        <ele>934.7</ele>
        <time>2022-05-27T08:21:01Z</time>
      </trkpt>
      <trkpt lat="48.00211" lon="6.81541">
        <ele>933.1</ele>
        <time>2022-05-27T08:21:03Z</time>
      </trkpt>
      <trkpt lat="48.00212" lon="6.81518">
        <ele>933.7</ele>
        <time>2022-05-27T08:21:05Z</time>
      </trkpt>
      <trkpt lat="48.00216" lon="6.81496">
        <ele>931.4</ele>
        <time>2022-05-27T08:21:07Z</time>
      </trkpt>
      <trkpt lat="48.00218" lon="6.81472">
        <ele>930.5</ele>
        <time>2022-05-27T08:21:09Z</time>
      </trkpt>
      <trkpt lat="48.00219" lon="6.81449">
        <ele>933.5</ele>
        <time>2022-05-27T08:21:11Z</time>
      </trkpt>
      <trkpt lat="48.00221" lon="6.81432">
        <ele>926.9</ele>
        <time>2022-05-27T08:21:13Z</time>
      </trkpt>
      <trkpt lat="48.00216" lon="6.81419">
        <ele>925.3</ele>
        <time>2022-05-27T08:21:15Z</time>
      </trkpt>
      <trkpt lat="48.00205" lon="6.81415">
        <ele>925.5</ele>
        <time>2022-05-27T08:21:17Z</time>
      </trkpt>
      <trkpt lat="48.00193" lon="6.81424">
        <ele>926.9</ele>
        <time>2022-05-27T08:21:19Z</time>
      </trkpt>
      <trkpt lat="48.00184" lon="6.81439">
        <ele>925.4</ele>
        <time>2022-05-27T08:21:21Z</time>
      </trkpt>
      <trkpt lat="48.00173" lon="6.81455">
        <ele>923.7</ele>
        <time>2022-05-27T08:21:23Z</time>
      </trkpt>
      <trkpt lat="48.00161" lon="6.81467">
        <ele>918.3</ele>
        <time>2022-05-27T08:21:25Z</time>
      </trkpt>
      <trkpt lat="48.00148" lon="6.8147">
        <ele>918.2</ele>
        <time>2022-05-27T08:21:27Z</time>
      </trkpt>
      <trkpt lat="48.00135" lon="6.81465">
        <ele>915.3</ele>
        <time>2022-05-27T08:21:29Z</time>
      </trkpt>
      <trkpt lat="48.00121" lon="6.81454">
        <ele>914.5</ele>
        <time>2022-05-27T08:21:31Z</time>
      </trkpt>
      <trkpt lat="48.00106" lon="6.8144">
        <ele>914.8</ele>
        <time>2022-05-27T08:21:33Z</time>
      </trkpt>
      <trkpt lat="48.00095" lon="6.81428">
        <ele>913.9</ele>
        <time>2022-05-27T08:21:35Z</time>
      </trkpt>
      <trkpt lat="48.00087" lon="6.81412">
        <ele>910.9</ele>
        <time>2022-05-27T08:21:37Z</time>
      </trkpt>
      <trkpt lat="48.00089" lon="6.81394">
        <ele>909.7</ele>
        <time>2022-05-27T08:21:39Z</time>
      </trkpt>
      <trkpt lat="48.00095" lon="6.81379">
        <ele>910.1</ele>
        <time>2022-05-27T08:21:41Z</time>
      </trkpt>
      <trkpt lat="48.00104" lon="6.81365">
        <ele>908.9</ele>
        <time>2022-05-27T08:21:43Z</time>
      </trkpt>
      <trkpt lat="48.00115" lon="6.81349">
        <ele>904.9</ele>
        <time>2022-05-27T08:21:45Z</time>
      </trkpt>
      <trkpt lat="48.00128" lon="6.81335">
        <ele>904</ele>
        <time>2022-05-27T08:21:47Z</time>
      </trkpt>
      <trkpt lat="48.00141" lon="6.81323">
        <ele>905.2</ele>
        <time>2022-05-27T08:21:49Z</time>
      </trkpt>
      <trkpt lat="48.0015" lon="6.81309">
        <ele>898.8</ele>
        <time>2022-05-27T08:21:51Z</time>
      </trkpt>
      <trkpt lat="48.00155" lon="6.81288">
        <ele>899.2</ele>
        <time>2022-05-27T08:21:53Z</time>
      </trkpt>
      <trkpt lat="48.0016" lon="6.81265">
        <ele>900.8</ele>
        <time>2022-05-27T08:21:55Z</time>
      </trkpt>
      <trkpt lat="48.00163" lon="6.81241">
        <ele>898.9</ele>
        <time>2022-05-27T08:21:57Z</time>
      </trkpt>
      <trkpt lat="48.00166" lon="6.81218">
        <ele>897.2</ele>
        <time>2022-05-27T08:21:59Z</time>
      </trkpt>
      <trkpt lat="48.00168" lon="6.81198">
        <ele>896.6</ele>
        <time>2022-05-27T08:22:01Z</time>
      </trkpt>
      <trkpt lat="48.00162" lon="6.81183">
        <ele>894.7</ele>
        <time>2022-05-27T08:22:03Z</time>
      </trkpt>
      <trkpt lat="48.00152" lon="6.81184">
        <ele>893.3</ele>
        <time>2022-05-27T08:22:05Z</time>
      </trkpt>
      <trkpt lat="48.00143" lon="6.81195">
        <ele>890.9</ele>
        <time>2022-05-27T08:22:07Z</time>
      </trkpt>
      <trkpt lat="48.00132" lon="6.81199">
        <ele>888.6</ele>
        <time>2022-05-27T08:22:10Z</time>
      </trkpt>
      <trkpt lat="48.00127" lon="6.81186">
        <ele>887.3</ele>
        <time>2022-05-27T08:22:12Z</time>
      </trkpt>
      <trkpt lat="48.00128" lon="6.81167">
        <ele>887.7</ele>
        <time>2022-05-27T08:22:14Z</time>
      </trkpt>
      <trkpt lat="48.00133" lon="6.81145">
        <ele>884.3</ele>
        <time>2022-05-27T08:22:16Z</time>
      </trkpt>
      <trkpt lat="48.00137" lon="6.81123">
        <ele>882.6</ele>
        <time>2022-05-27T08:22:18Z</time>
      </trkpt>
      <trkpt lat="48.00142" lon="6.81103">
        <ele>884.9</ele>
        <time>2022-05-27T08:22:20Z</time>
      </trkpt>
      <trkpt lat="48.0015" lon="6.81083">
        <ele>882.4</ele>
        <time>2022-05-27T08:22:22Z</time>
      </trkpt>
      <trkpt lat="48.00161" lon="6.81067">
        <ele>880.2</ele>
        <time>2022-05-27T08:22:24Z</time>
      </trkpt>
      <trkpt lat="48.00174" lon="6.81058">
        <ele>879.4</ele>
        <time>2022-05-27T08:22:26Z</time>
      </trkpt>
      <trkpt lat="48.00187" lon="6.81056">
        <ele>877.8</ele>
        <time>2022-05-27T08:22:28Z</time>
      </trkpt>
      <trkpt lat="48.00199" lon="6.81066">
        <ele>874.6</ele>
        <time>2022-05-27T08:22:30Z</time>
      </trkpt>
      <trkpt lat="48.00211" lon="6.81076">
        <ele>873.2</ele>
        <time>2022-05-27T08:22:32Z</time>
      </trkpt>
      <trkpt lat="48.00223" lon="6.81081">
        <ele>871.5</ele>
        <time>2022-05-27T08:22:34Z</time>
      </trkpt>
      <trkpt lat="48.00238" lon="6.81078">
        <ele>872.2</ele>
        <time>2022-05-27T08:22:36Z</time>
      </trkpt>
      <trkpt lat="48.00252" lon="6.81068">
        <ele>868.6</ele>
        <time>2022-05-27T08:22:38Z</time>
      </trkpt>
      <trkpt lat="48.00264" lon="6.81055">
        <ele>870.5</ele>
        <time>2022-05-27T08:22:40Z</time>
      </trkpt>
      <trkpt lat="48.00277" lon="6.81044">
        <ele>870.2</ele>
        <time>2022-05-27T08:22:42Z</time>
      </trkpt>
      <trkpt lat="48.00289" lon="6.81038">
        <ele>867.3</ele>
        <time>2022-05-27T08:22:44Z</time>
      </trkpt>
      <trkpt lat="48.00303" lon="6.81032">
        <ele>868</ele>
        <time>2022-05-27T08:22:46Z</time>
      </trkpt>
      <trkpt lat="48.00317" lon="6.81029">
        <ele>867.2</ele>
        <time>2022-05-27T08:22:48Z</time>
      </trkpt>
      <trkpt lat="48.00329" lon="6.8103">
        <ele>867.5</ele>
        <time>2022-05-27T08:22:50Z</time>
      </trkpt>
      <trkpt lat="48.00343" lon="6.8103">
        <ele>864.8</ele>
        <time>2022-05-27T08:22:52Z</time>
      </trkpt>
      <trkpt lat="48.00357" lon="6.81022">
        <ele>865</ele>
        <time>2022-05-27T08:22:54Z</time>
      </trkpt>
      <trkpt lat="48.00369" lon="6.8101">
        <ele>860.5</ele>
        <time>2022-05-27T08:22:56Z</time>
      </trkpt>
      <trkpt lat="48.00378" lon="6.80992">
        <ele>857.4</ele>
        <time>2022-05-27T08:22:58Z</time>
      </trkpt>
      <trkpt lat="48.0038" lon="6.80965">
        <ele>856.2</ele>
        <time>2022-05-27T08:23:00Z</time>
      </trkpt>
      <trkpt lat="48.00378" lon="6.80951">
        <ele>856.1</ele>
        <time>2022-05-27T08:23:01Z</time>
      </trkpt>
      <trkpt lat="48.00376" lon="6.80938">
        <ele>854.6</ele>
        <time>2022-05-27T08:23:02Z</time>
      </trkpt>
      <trkpt lat="48.00374" lon="6.80925">
        <ele>852.3</ele>
        <time>2022-05-27T08:23:03Z</time>
      </trkpt>
      <trkpt lat="48.00372" lon="6.80911">
        <ele>851.8</ele>
        <time>2022-05-27T08:23:04Z</time>
      </trkpt>
      <trkpt lat="48.00371" lon="6.80898">
        <ele>852.2</ele>
        <time>2022-05-27T08:23:05Z</time>
      </trkpt>
      <trkpt lat="48.00371" lon="6.80874">
        <ele>852.2</ele>
        <time>2022-05-27T08:23:07Z</time>
      </trkpt>
      <trkpt lat="48.00374" lon="6.8085">
        <ele>850.6</ele>
        <time>2022-05-27T08:23:09Z</time>
      </trkpt>
      <trkpt lat="48.00379" lon="6.80826">
        <ele>849.2</ele>
        <time>2022-05-27T08:23:11Z</time>
      </trkpt>
      <trkpt lat="48.00383" lon="6.80812">
        <ele>849.4</ele>
        <time>2022-05-27T08:23:12Z</time>
      </trkpt>
      <trkpt lat="48.00387" lon="6.808">
        <ele>849.2</ele>
        <time>2022-05-27T08:23:13Z</time>
      </trkpt>
      <trkpt lat="48.00398" lon="6.8078">
        <ele>847.1</ele>
        <time>2022-05-27T08:23:15Z</time>
      </trkpt>
      <trkpt lat="48.00404" lon="6.80769">
        <ele>844.9</ele>
        <time>2022-05-27T08:23:16Z</time>
      </trkpt>
      <trkpt lat="48.00409" lon="6.80758">
        <ele>845.7</ele>
        <time>2022-05-27T08:23:17Z</time>
      </trkpt>
      <trkpt lat="48.00415" lon="6.80747">
        <ele>846.6</ele>
        <time>2022-05-27T08:23:18Z</time>
      </trkpt>
      <trkpt lat="48.0042" lon="6.80735">
        <ele>844.1</ele>
        <time>2022-05-27T08:23:19Z</time>
      </trkpt>
      <trkpt lat="48.00425" lon="6.80723">
        <ele>838.7</ele>
        <time>2022-05-27T08:23:20Z</time>
      </trkpt>
      <trkpt lat="48.0043" lon="6.80711">
        <ele>837.7</ele>
        <time>2022-05-27T08:23:21Z</time>
      </trkpt>
      <trkpt lat="48.00434" lon="6.80698">
        <ele>840</ele>
        <time>2022-05-27T08:23:22Z</time>
      </trkpt>
      <trkpt lat="48.0044" lon="6.80674">
        <ele>840.7</ele>
        <time>2022-05-27T08:23:24Z</time>
      </trkpt>
      <trkpt lat="48.00447" lon="6.80657">
        <ele>835.9</ele>
        <time>2022-05-27T08:23:26Z</time>
      </trkpt>
      <trkpt lat="48.00458" lon="6.80644">
        <ele>835.4</ele>
        <time>2022-05-27T08:23:28Z</time>
      </trkpt>
      <trkpt lat="48.00468" lon="6.80636">
        <ele>835.7</ele>
        <time>2022-05-27T08:23:30Z</time>
      </trkpt>
      <trkpt lat="48.00478" lon="6.80631">
        <ele>836.2</ele>
        <time>2022-05-27T08:23:33Z</time>
      </trkpt>
      <trkpt lat="48.00489" lon="6.80634">
        <ele>836.1</ele>
        <time>2022-05-27T08:23:37Z</time>
      </trkpt>
      <trkpt lat="48.00492" lon="6.80638">
        <ele>835.8</ele>
        <time>2022-05-27T08:23:41Z</time>
      </trkpt>
      <trkpt lat="48.00492" lon="6.80639">
        <ele>835.8</ele>
        <time>2022-05-27T08:23:43Z</time>
      </trkpt>
      <trkpt lat="48.00492" lon="6.8064">
        <ele>835.6</ele>
        <time>2022-05-27T08:23:46Z</time>
      </trkpt>
      <trkpt lat="48.00492" lon="6.80641">
        <ele>835.6</ele>
        <time>2022-05-27T08:23:48Z</time>
      </trkpt>
      <trkpt lat="48.00492" lon="6.80641">
        <ele>835.6</ele>
        <time>2022-05-27T08:23:58Z</time>
      </trkpt>
      <trkpt lat="48.00492" lon="6.80642">
        <ele>835.4</ele>
        <time>2022-05-27T08:24:09Z</time>
      </trkpt>
      <trkpt lat="48.005" lon="6.80648">
        <ele>835.7</ele>
        <time>2022-05-27T08:24:13Z</time>
      </trkpt>
      <trkpt lat="48.00508" lon="6.80656">
        <ele>834.8</ele>
        <time>2022-05-27T08:24:15Z</time>
      </trkpt>
      <trkpt lat="48.00518" lon="6.80664">
        <ele>833.1</ele>
        <time>2022-05-27T08:24:17Z</time>
      </trkpt>
      <trkpt lat="48.0053" lon="6.80668">
        <ele>827.8</ele>
        <time>2022-05-27T08:24:19Z</time>
      </trkpt>
      <trkpt lat="48.00544" lon="6.80669">
        <ele>825.9</ele>
        <time>2022-05-27T08:24:21Z</time>
      </trkpt>
      <trkpt lat="48.00559" lon="6.80669">
        <ele>829.4</ele>
        <time>2022-05-27T08:24:23Z</time>
      </trkpt>
      <trkpt lat="48.00573" lon="6.80665">
        <ele>829.4</ele>
        <time>2022-05-27T08:24:25Z</time>
      </trkpt>
      <trkpt lat="48.00587" lon="6.80664">
        <ele>825.4</ele>
        <time>2022-05-27T08:24:27Z</time>
      </trkpt>
      <trkpt lat="48.00602" lon="6.80662">
        <ele>824.6</ele>
        <time>2022-05-27T08:24:29Z</time>
      </trkpt>
      <trkpt lat="48.00617" lon="6.80655">
        <ele>823.5</ele>
        <time>2022-05-27T08:24:31Z</time>
      </trkpt>
      <trkpt lat="48.00633" lon="6.8065">
        <ele>822.2</ele>
        <time>2022-05-27T08:24:33Z</time>
      </trkpt>
      <trkpt lat="48.00648" lon="6.8064">
        <ele>821.3</ele>
        <time>2022-05-27T08:24:35Z</time>
      </trkpt>
      <trkpt lat="48.00656" lon="6.80633">
        <ele>820.6</ele>
        <time>2022-05-27T08:24:36Z</time>
      </trkpt>
      <trkpt lat="48.0067" lon="6.80623">
        <ele>814.8</ele>
        <time>2022-05-27T08:24:38Z</time>
      </trkpt>
      <trkpt lat="48.00684" lon="6.80618">
        <ele>817.1</ele>
        <time>2022-05-27T08:24:40Z</time>
      </trkpt>
      <trkpt lat="48.00699" lon="6.80613">
        <ele>815.3</ele>
        <time>2022-05-27T08:24:42Z</time>
      </trkpt>
      <trkpt lat="48.00714" lon="6.80607">
        <ele>811.9</ele>
        <time>2022-05-27T08:24:44Z</time>
      </trkpt>
      <trkpt lat="48.0073" lon="6.80601">
        <ele>811.6</ele>
        <time>2022-05-27T08:24:46Z</time>
      </trkpt>
      <trkpt lat="48.00748" lon="6.80591">
        <ele>812.5</ele>
        <time>2022-05-27T08:24:48Z</time>
      </trkpt>
      <trkpt lat="48.00757" lon="6.80584">
        <ele>808.1</ele>
        <time>2022-05-27T08:24:49Z</time>
      </trkpt>
      <trkpt lat="48.00765" lon="6.80574">
        <ele>806.2</ele>
        <time>2022-05-27T08:24:50Z</time>
      </trkpt>
      <trkpt lat="48.00773" lon="6.80564">
        <ele>806</ele>
        <time>2022-05-27T08:24:51Z</time>
      </trkpt>
      <trkpt lat="48.00779" lon="6.80554">
        <ele>806.1</ele>
        <time>2022-05-27T08:24:52Z</time>
      </trkpt>
      <trkpt lat="48.00785" lon="6.80544">
        <ele>806.1</ele>
        <time>2022-05-27T08:24:53Z</time>
      </trkpt>
      <trkpt lat="48.00793" lon="6.80534">
        <ele>805.1</ele>
        <time>2022-05-27T08:24:54Z</time>
      </trkpt>
      <trkpt lat="48.00804" lon="6.80518">
        <ele>805.4</ele>
        <time>2022-05-27T08:24:56Z</time>
      </trkpt>
      <trkpt lat="48.00802" lon="6.80525">
        <ele>804.9</ele>
        <time>2022-05-27T08:25:08Z</time>
      </trkpt>
      <trkpt lat="48.00803" lon="6.80525">
        <ele>805</ele>
        <time>2022-05-27T08:25:15Z</time>
      </trkpt>
      <trkpt lat="48.00802" lon="6.80525">
        <ele>805.2</ele>
        <time>2022-05-27T08:25:39Z</time>
      </trkpt>
      <trkpt lat="48.00802" lon="6.80525">
        <ele>805.1</ele>
        <time>2022-05-27T08:25:56Z</time>
      </trkpt>
      <trkpt lat="48.00802" lon="6.80525">
        <ele>804.9</ele>
        <time>2022-05-27T08:26:03Z</time>
      </trkpt>
      <trkpt lat="48.00806" lon="6.80527">
        <ele>804.3</ele>
        <time>2022-05-27T08:26:10Z</time>
      </trkpt>
      <trkpt lat="48.00806" lon="6.80526">
        <ele>804.3</ele>
        <time>2022-05-27T08:28:11Z</time>
      </trkpt>
      <trkpt lat="48.00806" lon="6.80526">
        <ele>804.2</ele>
        <time>2022-05-27T08:30:03Z</time>
      </trkpt>
      <trkpt lat="48.00803" lon="6.80527">
        <ele>804.8</ele>
        <time>2022-05-27T08:30:11Z</time>
      </trkpt>
      <trkpt lat="48.00803" lon="6.80526">
        <ele>804.8</ele>
        <time>2022-05-27T08:30:12Z</time>
      </trkpt>
      <trkpt lat="48.00803" lon="6.80527">
        <ele>804.9</ele>
        <time>2022-05-27T08:30:25Z</time>
      </trkpt>
      <trkpt lat="48.00804" lon="6.8053">
        <ele>804.9</ele>
        <time>2022-05-27T08:30:30Z</time>
      </trkpt>
      <trkpt lat="48.00804" lon="6.80529">
        <ele>804.8</ele>
        <time>2022-05-27T08:30:34Z</time>
      </trkpt>
      <trkpt lat="48.00804" lon="6.80529">
        <ele>804.8</ele>
        <time>2022-05-27T08:30:35Z</time>
      </trkpt>
      <trkpt lat="48.00804" lon="6.8053">
        <ele>804.9</ele>
        <time>2022-05-27T08:30:36Z</time>
      </trkpt>
      <trkpt lat="48.00803" lon="6.80531">
        <ele>805</ele>
        <time>2022-05-27T08:30:53Z</time>
      </trkpt>
      <trkpt lat="48.00804" lon="6.80532">
        <ele>804.8</ele>
        <time>2022-05-27T08:31:00Z</time>
      </trkpt>
      <trkpt lat="48.00804" lon="6.80532">
        <ele>804.7</ele>
        <time>2022-05-27T08:31:03Z</time>
      </trkpt>
      <trkpt lat="48.00805" lon="6.80531">
        <ele>804.6</ele>
        <time>2022-05-27T08:31:18Z</time>
      </trkpt>
      <trkpt lat="48.00812" lon="6.80521">
        <ele>803.9</ele>
        <time>2022-05-27T08:31:22Z</time>
      </trkpt>
      <trkpt lat="48.00821" lon="6.80509">
        <ele>802.3</ele>
        <time>2022-05-27T08:31:25Z</time>
      </trkpt>
      <trkpt lat="48.00828" lon="6.80496">
        <ele>801.2</ele>
        <time>2022-05-27T08:31:27Z</time>
      </trkpt>
      <trkpt lat="48.00837" lon="6.80483">
        <ele>800</ele>
        <time>2022-05-27T08:31:29Z</time>
      </trkpt>
      <trkpt lat="48.00847" lon="6.8047">
        <ele>799.5</ele>
        <time>2022-05-27T08:31:31Z</time>
      </trkpt>
      <trkpt lat="48.00858" lon="6.80459">
        <ele>798.3</ele>
        <time>2022-05-27T08:31:33Z</time>
      </trkpt>
      <trkpt lat="48.00872" lon="6.80452">
        <ele>797</ele>
        <time>2022-05-27T08:31:35Z</time>
      </trkpt>
      <trkpt lat="48.00887" lon="6.80449">
        <ele>796.6</ele>
        <time>2022-05-27T08:31:37Z</time>
      </trkpt>
      <trkpt lat="48.00904" lon="6.80448">
        <ele>795.4</ele>
        <time>2022-05-27T08:31:39Z</time>
      </trkpt>
      <trkpt lat="48.00913" lon="6.80448">
        <ele>794.2</ele>
        <time>2022-05-27T08:31:40Z</time>
      </trkpt>
      <trkpt lat="48.00922" lon="6.80446">
        <ele>793.1</ele>
        <time>2022-05-27T08:31:41Z</time>
      </trkpt>
      <trkpt lat="48.00931" lon="6.80443">
        <ele>792.1</ele>
        <time>2022-05-27T08:31:42Z</time>
      </trkpt>
      <trkpt lat="48.0094" lon="6.80438">
        <ele>791.6</ele>
        <time>2022-05-27T08:31:43Z</time>
      </trkpt>
      <trkpt lat="48.00956" lon="6.80435">
        <ele>790.4</ele>
        <time>2022-05-27T08:31:45Z</time>
      </trkpt>
      <trkpt lat="48.0097" lon="6.80443">
        <ele>790</ele>
        <time>2022-05-27T08:31:47Z</time>
      </trkpt>
      <trkpt lat="48.00984" lon="6.80453">
        <ele>788</ele>
        <time>2022-05-27T08:31:49Z</time>
      </trkpt>
      <trkpt lat="48.01001" lon="6.80452">
        <ele>786.3</ele>
        <time>2022-05-27T08:31:51Z</time>
      </trkpt>
      <trkpt lat="48.01009" lon="6.80449">
        <ele>785.8</ele>
        <time>2022-05-27T08:31:52Z</time>
      </trkpt>
      <trkpt lat="48.01018" lon="6.80444">
        <ele>785.5</ele>
        <time>2022-05-27T08:31:53Z</time>
      </trkpt>
      <trkpt lat="48.01027" lon="6.80439">
        <ele>784.5</ele>
        <time>2022-05-27T08:31:54Z</time>
      </trkpt>
      <trkpt lat="48.01035" lon="6.80433">
        <ele>783.9</ele>
        <time>2022-05-27T08:31:55Z</time>
      </trkpt>
      <trkpt lat="48.01044" lon="6.80427">
        <ele>782.9</ele>
        <time>2022-05-27T08:31:56Z</time>
      </trkpt>
      <trkpt lat="48.01053" lon="6.80422">
        <ele>782.1</ele>
        <time>2022-05-27T08:31:57Z</time>
      </trkpt>
      <trkpt lat="48.01063" lon="6.80416">
        <ele>782.4</ele>
        <time>2022-05-27T08:31:58Z</time>
      </trkpt>
      <trkpt lat="48.01071" lon="6.80412">
        <ele>782.5</ele>
        <time>2022-05-27T08:31:59Z</time>
      </trkpt>
      <trkpt lat="48.01085" lon="6.80398">
        <ele>781.6</ele>
        <time>2022-05-27T08:32:01Z</time>
      </trkpt>
      <trkpt lat="48.01092" lon="6.80377">
        <ele>779</ele>
        <time>2022-05-27T08:32:03Z</time>
      </trkpt>
      <trkpt lat="48.0109" lon="6.80349">
        <ele>777.9</ele>
        <time>2022-05-27T08:32:05Z</time>
      </trkpt>
      <trkpt lat="48.01089" lon="6.80335">
        <ele>777.5</ele>
        <time>2022-05-27T08:32:06Z</time>
      </trkpt>
      <trkpt lat="48.01089" lon="6.80319">
        <ele>774.9</ele>
        <time>2022-05-27T08:32:07Z</time>
      </trkpt>
      <trkpt lat="48.0109" lon="6.80304">
        <ele>773.8</ele>
        <time>2022-05-27T08:32:08Z</time>
      </trkpt>
      <trkpt lat="48.01092" lon="6.80288">
        <ele>771.8</ele>
        <time>2022-05-27T08:32:09Z</time>
      </trkpt>
      <trkpt lat="48.01094" lon="6.80272">
        <ele>770.4</ele>
        <time>2022-05-27T08:32:10Z</time>
      </trkpt>
      <trkpt lat="48.01097" lon="6.80257">
        <ele>768.7</ele>
        <time>2022-05-27T08:32:11Z</time>
      </trkpt>
      <trkpt lat="48.01101" lon="6.80241">
        <ele>768</ele>
        <time>2022-05-27T08:32:12Z</time>
      </trkpt>
      <trkpt lat="48.01104" lon="6.80226">
        <ele>766.1</ele>
        <time>2022-05-27T08:32:13Z</time>
      </trkpt>
      <trkpt lat="48.01106" lon="6.80211">
        <ele>765.8</ele>
        <time>2022-05-27T08:32:14Z</time>
      </trkpt>
      <trkpt lat="48.01107" lon="6.80196">
        <ele>765.8</ele>
        <time>2022-05-27T08:32:15Z</time>
      </trkpt>
      <trkpt lat="48.01107" lon="6.80182">
        <ele>766.5</ele>
        <time>2022-05-27T08:32:16Z</time>
      </trkpt>
      <trkpt lat="48.01105" lon="6.80168">
        <ele>765.4</ele>
        <time>2022-05-27T08:32:17Z</time>
      </trkpt>
      <trkpt lat="48.01101" lon="6.80155">
        <ele>763.9</ele>
        <time>2022-05-27T08:32:18Z</time>
      </trkpt>
      <trkpt lat="48.01097" lon="6.80135">
        <ele>762.6</ele>
        <time>2022-05-27T08:32:20Z</time>
      </trkpt>
      <trkpt lat="48.01101" lon="6.80115">
        <ele>762.7</ele>
        <time>2022-05-27T08:32:22Z</time>
      </trkpt>
      <trkpt lat="48.01112" lon="6.80097">
        <ele>761.5</ele>
        <time>2022-05-27T08:32:24Z</time>
      </trkpt>
      <trkpt lat="48.01127" lon="6.80084">
        <ele>758.7</ele>
        <time>2022-05-27T08:32:26Z</time>
      </trkpt>
      <trkpt lat="48.01136" lon="6.80075">
        <ele>757.3</ele>
        <time>2022-05-27T08:32:27Z</time>
      </trkpt>
      <trkpt lat="48.01143" lon="6.80065">
        <ele>757.5</ele>
        <time>2022-05-27T08:32:28Z</time>
      </trkpt>
      <trkpt lat="48.0115" lon="6.80054">
        <ele>756.5</ele>
        <time>2022-05-27T08:32:29Z</time>
      </trkpt>
      <trkpt lat="48.01158" lon="6.80042">
        <ele>755.6</ele>
        <time>2022-05-27T08:32:30Z</time>
      </trkpt>
      <trkpt lat="48.01166" lon="6.80031">
        <ele>754.3</ele>
        <time>2022-05-27T08:32:31Z</time>
      </trkpt>
      <trkpt lat="48.01174" lon="6.80019">
        <ele>753.4</ele>
        <time>2022-05-27T08:32:32Z</time>
      </trkpt>
      <trkpt lat="48.01183" lon="6.80009">
        <ele>752.6</ele>
        <time>2022-05-27T08:32:33Z</time>
      </trkpt>
      <trkpt lat="48.01192" lon="6.8">
        <ele>751.3</ele>
        <time>2022-05-27T08:32:34Z</time>
      </trkpt>
      <trkpt lat="48.01202" lon="6.79992">
        <ele>750.7</ele>
        <time>2022-05-27T08:32:35Z</time>
      </trkpt>
      <trkpt lat="48.01212" lon="6.79986">
        <ele>750.2</ele>
        <time>2022-05-27T08:32:36Z</time>
      </trkpt>
      <trkpt lat="48.01222" lon="6.79981">
        <ele>749.5</ele>
        <time>2022-05-27T08:32:37Z</time>
      </trkpt>
      <trkpt lat="48.01232" lon="6.79976">
        <ele>749</ele>
        <time>2022-05-27T08:32:38Z</time>
      </trkpt>
      <trkpt lat="48.01242" lon="6.79969">
        <ele>748.8</ele>
        <time>2022-05-27T08:32:39Z</time>
      </trkpt>
      <trkpt lat="48.01251" lon="6.7996">
        <ele>748.3</ele>
        <time>2022-05-27T08:32:40Z</time>
      </trkpt>
      <trkpt lat="48.0126" lon="6.7995">
        <ele>747.1</ele>
        <time>2022-05-27T08:32:41Z</time>
      </trkpt>
      <trkpt lat="48.01271" lon="6.79943">
        <ele>746</ele>
        <time>2022-05-27T08:32:42Z</time>
      </trkpt>
      <trkpt lat="48.01283" lon="6.7994">
        <ele>745.4</ele>
        <time>2022-05-27T08:32:43Z</time>
      </trkpt>
      <trkpt lat="48.01294" lon="6.79938">
        <ele>744.3</ele>
        <time>2022-05-27T08:32:44Z</time>
      </trkpt>
      <trkpt lat="48.01305" lon="6.79938">
        <ele>743.2</ele>
        <time>2022-05-27T08:32:45Z</time>
      </trkpt>
      <trkpt lat="48.01317" lon="6.79937">
        <ele>741.8</ele>
        <time>2022-05-27T08:32:46Z</time>
      </trkpt>
      <trkpt lat="48.01328" lon="6.79936">
        <ele>740.9</ele>
        <time>2022-05-27T08:32:47Z</time>
      </trkpt>
      <trkpt lat="48.0134" lon="6.79934">
        <ele>739.9</ele>
        <time>2022-05-27T08:32:48Z</time>
      </trkpt>
      <trkpt lat="48.01352" lon="6.79932">
        <ele>739</ele>
        <time>2022-05-27T08:32:49Z</time>
      </trkpt>
      <trkpt lat="48.01364" lon="6.7993">
        <ele>738.5</ele>
        <time>2022-05-27T08:32:50Z</time>
      </trkpt>
      <trkpt lat="48.01376" lon="6.79929">
        <ele>737.4</ele>
        <time>2022-05-27T08:32:51Z</time>
      </trkpt>
      <trkpt lat="48.01388" lon="6.79929">
        <ele>736.6</ele>
        <time>2022-05-27T08:32:52Z</time>
      </trkpt>
      <trkpt lat="48.01398" lon="6.79928">
        <ele>735.7</ele>
        <time>2022-05-27T08:32:53Z</time>
      </trkpt>
      <trkpt lat="48.01409" lon="6.79925">
        <ele>734.6</ele>
        <time>2022-05-27T08:32:54Z</time>
      </trkpt>
      <trkpt lat="48.01418" lon="6.79918">
        <ele>733.4</ele>
        <time>2022-05-27T08:32:55Z</time>
      </trkpt>
      <trkpt lat="48.01426" lon="6.7991">
        <ele>732.7</ele>
        <time>2022-05-27T08:32:56Z</time>
      </trkpt>
      <trkpt lat="48.01436" lon="6.79903">
        <ele>731.4</ele>
        <time>2022-05-27T08:32:57Z</time>
      </trkpt>
      <trkpt lat="48.01447" lon="6.79898">
        <ele>730.4</ele>
        <time>2022-05-27T08:32:58Z</time>
      </trkpt>
      <trkpt lat="48.01459" lon="6.79895">
        <ele>729.1</ele>
        <time>2022-05-27T08:32:59Z</time>
      </trkpt>
      <trkpt lat="48.01471" lon="6.79894">
        <ele>728.4</ele>
        <time>2022-05-27T08:33:00Z</time>
      </trkpt>
      <trkpt lat="48.01483" lon="6.79892">
        <ele>728.1</ele>
        <time>2022-05-27T08:33:01Z</time>
      </trkpt>
      <trkpt lat="48.01494" lon="6.79888">
        <ele>726.6</ele>
        <time>2022-05-27T08:33:02Z</time>
      </trkpt>
      <trkpt lat="48.01506" lon="6.79882">
        <ele>725.6</ele>
        <time>2022-05-27T08:33:03Z</time>
      </trkpt>
      <trkpt lat="48.01518" lon="6.79874">
        <ele>725</ele>
        <time>2022-05-27T08:33:04Z</time>
      </trkpt>
      <trkpt lat="48.01529" lon="6.79867">
        <ele>724.5</ele>
        <time>2022-05-27T08:33:05Z</time>
      </trkpt>
      <trkpt lat="48.01539" lon="6.7986">
        <ele>723.6</ele>
        <time>2022-05-27T08:33:06Z</time>
      </trkpt>
      <trkpt lat="48.01551" lon="6.79854">
        <ele>721.6</ele>
        <time>2022-05-27T08:33:07Z</time>
      </trkpt>
      <trkpt lat="48.01563" lon="6.79849">
        <ele>720.4</ele>
        <time>2022-05-27T08:33:08Z</time>
      </trkpt>
      <trkpt lat="48.01576" lon="6.79844">
        <ele>719.1</ele>
        <time>2022-05-27T08:33:09Z</time>
      </trkpt>
      <trkpt lat="48.01589" lon="6.79839">
        <ele>717.7</ele>
        <time>2022-05-27T08:33:10Z</time>
      </trkpt>
      <trkpt lat="48.01601" lon="6.79832">
        <ele>716.2</ele>
        <time>2022-05-27T08:33:11Z</time>
      </trkpt>
      <trkpt lat="48.01613" lon="6.79825">
        <ele>714.4</ele>
        <time>2022-05-27T08:33:12Z</time>
      </trkpt>
      <trkpt lat="48.01626" lon="6.79817">
        <ele>713.1</ele>
        <time>2022-05-27T08:33:13Z</time>
      </trkpt>
      <trkpt lat="48.01639" lon="6.79808">
        <ele>711.8</ele>
        <time>2022-05-27T08:33:14Z</time>
      </trkpt>
      <trkpt lat="48.0165" lon="6.79796">
        <ele>710.3</ele>
        <time>2022-05-27T08:33:15Z</time>
      </trkpt>
      <trkpt lat="48.01662" lon="6.79784">
        <ele>709.1</ele>
        <time>2022-05-27T08:33:16Z</time>
      </trkpt>
      <trkpt lat="48.01673" lon="6.79771">
        <ele>706.3</ele>
        <time>2022-05-27T08:33:17Z</time>
      </trkpt>
      <trkpt lat="48.01685" lon="6.79759">
        <ele>704.7</ele>
        <time>2022-05-27T08:33:18Z</time>
      </trkpt>
      <trkpt lat="48.01698" lon="6.79749">
        <ele>703.8</ele>
        <time>2022-05-27T08:33:19Z</time>
      </trkpt>
      <trkpt lat="48.0171" lon="6.79741">
        <ele>703.2</ele>
        <time>2022-05-27T08:33:20Z</time>
      </trkpt>
      <trkpt lat="48.01722" lon="6.79731">
        <ele>701.8</ele>
        <time>2022-05-27T08:33:21Z</time>
      </trkpt>
      <trkpt lat="48.01733" lon="6.79721">
        <ele>700</ele>
        <time>2022-05-27T08:33:22Z</time>
      </trkpt>
      <trkpt lat="48.01745" lon="6.79709">
        <ele>698.9</ele>
        <time>2022-05-27T08:33:23Z</time>
      </trkpt>
      <trkpt lat="48.01755" lon="6.79695">
        <ele>697.2</ele>
        <time>2022-05-27T08:33:24Z</time>
      </trkpt>
      <trkpt lat="48.01765" lon="6.7968">
        <ele>695.3</ele>
        <time>2022-05-27T08:33:25Z</time>
      </trkpt>
      <trkpt lat="48.01774" lon="6.79664">
        <ele>692.3</ele>
        <time>2022-05-27T08:33:26Z</time>
      </trkpt>
      <trkpt lat="48.01782" lon="6.79648">
        <ele>689.6</ele>
        <time>2022-05-27T08:33:27Z</time>
      </trkpt>
      <trkpt lat="48.01791" lon="6.79634">
        <ele>688.4</ele>
        <time>2022-05-27T08:33:28Z</time>
      </trkpt>
      <trkpt lat="48.01799" lon="6.79619">
        <ele>687.6</ele>
        <time>2022-05-27T08:33:29Z</time>
      </trkpt>
      <trkpt lat="48.01807" lon="6.79606">
        <ele>686.4</ele>
        <time>2022-05-27T08:33:30Z</time>
      </trkpt>
      <trkpt lat="48.01816" lon="6.79593">
        <ele>684.9</ele>
        <time>2022-05-27T08:33:31Z</time>
      </trkpt>
      <trkpt lat="48.01823" lon="6.79579">
        <ele>682</ele>
        <time>2022-05-27T08:33:32Z</time>
      </trkpt>
      <trkpt lat="48.01829" lon="6.79563">
        <ele>679.9</ele>
        <time>2022-05-27T08:33:33Z</time>
      </trkpt>
      <trkpt lat="48.01834" lon="6.79545">
        <ele>677.5</ele>
        <time>2022-05-27T08:33:34Z</time>
      </trkpt>
      <trkpt lat="48.01839" lon="6.79527">
        <ele>675.7</ele>
        <time>2022-05-27T08:33:35Z</time>
      </trkpt>
      <trkpt lat="48.01844" lon="6.79509">
        <ele>674.5</ele>
        <time>2022-05-27T08:33:36Z</time>
      </trkpt>
      <trkpt lat="48.01848" lon="6.79492">
        <ele>671.8</ele>
        <time>2022-05-27T08:33:37Z</time>
      </trkpt>
      <trkpt lat="48.01851" lon="6.79474">
        <ele>670.1</ele>
        <time>2022-05-27T08:33:38Z</time>
      </trkpt>
      <trkpt lat="48.01853" lon="6.79456">
        <ele>667.7</ele>
        <time>2022-05-27T08:33:39Z</time>
      </trkpt>
      <trkpt lat="48.01854" lon="6.79438">
        <ele>665</ele>
        <time>2022-05-27T08:33:40Z</time>
      </trkpt>
      <trkpt lat="48.01855" lon="6.79421">
        <ele>663.1</ele>
        <time>2022-05-27T08:33:41Z</time>
      </trkpt>
      <trkpt lat="48.01856" lon="6.79407">
        <ele>662.1</ele>
        <time>2022-05-27T08:33:42Z</time>
      </trkpt>
      <trkpt lat="48.01861" lon="6.79387">
        <ele>660.6</ele>
        <time>2022-05-27T08:33:44Z</time>
      </trkpt>
      <trkpt lat="48.0187" lon="6.79383">
        <ele>658.2</ele>
        <time>2022-05-27T08:33:46Z</time>
      </trkpt>
      <trkpt lat="48.01879" lon="6.79397">
        <ele>656.2</ele>
        <time>2022-05-27T08:33:48Z</time>
      </trkpt>
      <trkpt lat="48.01884" lon="6.79419">
        <ele>654</ele>
        <time>2022-05-27T08:33:50Z</time>
      </trkpt>
      <trkpt lat="48.0189" lon="6.79443">
        <ele>653.9</ele>
        <time>2022-05-27T08:33:52Z</time>
      </trkpt>
      <trkpt lat="48.01897" lon="6.79468">
        <ele>653.4</ele>
        <time>2022-05-27T08:33:54Z</time>
      </trkpt>
      <trkpt lat="48.019" lon="6.7948">
        <ele>652.6</ele>
        <time>2022-05-27T08:33:55Z</time>
      </trkpt>
      <trkpt lat="48.01902" lon="6.79493">
        <ele>651.4</ele>
        <time>2022-05-27T08:33:56Z</time>
      </trkpt>
      <trkpt lat="48.01905" lon="6.79506">
        <ele>650.5</ele>
        <time>2022-05-27T08:33:57Z</time>
      </trkpt>
      <trkpt lat="48.0191" lon="6.79528">
        <ele>650.5</ele>
        <time>2022-05-27T08:33:59Z</time>
      </trkpt>
      <trkpt lat="48.0192" lon="6.79536">
        <ele>649.3</ele>
        <time>2022-05-27T08:34:01Z</time>
      </trkpt>
      <trkpt lat="48.01928" lon="6.7952">
        <ele>646.5</ele>
        <time>2022-05-27T08:34:03Z</time>
      </trkpt>
      <trkpt lat="48.01932" lon="6.79494">
        <ele>642.5</ele>
        <time>2022-05-27T08:34:05Z</time>
      </trkpt>
      <trkpt lat="48.01935" lon="6.7948">
        <ele>641</ele>
        <time>2022-05-27T08:34:06Z</time>
      </trkpt>
      <trkpt lat="48.01938" lon="6.79465">
        <ele>639</ele>
        <time>2022-05-27T08:34:07Z</time>
      </trkpt>
      <trkpt lat="48.01942" lon="6.79449">
        <ele>638.1</ele>
        <time>2022-05-27T08:34:08Z</time>
      </trkpt>
      <trkpt lat="48.01945" lon="6.79433">
        <ele>636.6</ele>
        <time>2022-05-27T08:34:09Z</time>
      </trkpt>
      <trkpt lat="48.0195" lon="6.79417">
        <ele>634.6</ele>
        <time>2022-05-27T08:34:10Z</time>
      </trkpt>
      <trkpt lat="48.01955" lon="6.79402">
        <ele>632.8</ele>
        <time>2022-05-27T08:34:11Z</time>
      </trkpt>
      <trkpt lat="48.0196" lon="6.79387">
        <ele>630.6</ele>
        <time>2022-05-27T08:34:12Z</time>
      </trkpt>
      <trkpt lat="48.01963" lon="6.79373">
        <ele>629.6</ele>
        <time>2022-05-27T08:34:13Z</time>
      </trkpt>
      <trkpt lat="48.01965" lon="6.79359">
        <ele>628.6</ele>
        <time>2022-05-27T08:34:14Z</time>
      </trkpt>
      <trkpt lat="48.01965" lon="6.79344">
        <ele>627.3</ele>
        <time>2022-05-27T08:34:15Z</time>
      </trkpt>
      <trkpt lat="48.01961" lon="6.79327">
        <ele>626.2</ele>
        <time>2022-05-27T08:34:16Z</time>
      </trkpt>
      <trkpt lat="48.01956" lon="6.79309">
        <ele>624</ele>
        <time>2022-05-27T08:34:17Z</time>
      </trkpt>
      <trkpt lat="48.01951" lon="6.79292">
        <ele>622.6</ele>
        <time>2022-05-27T08:34:18Z</time>
      </trkpt>
      <trkpt lat="48.01948" lon="6.79274">
        <ele>620.8</ele>
        <time>2022-05-27T08:34:19Z</time>
      </trkpt>
      <trkpt lat="48.01948" lon="6.79255">
        <ele>617.7</ele>
        <time>2022-05-27T08:34:20Z</time>
      </trkpt>
      <trkpt lat="48.01947" lon="6.79236">
        <ele>615.5</ele>
        <time>2022-05-27T08:34:21Z</time>
      </trkpt>
      <trkpt lat="48.01946" lon="6.79217">
        <ele>613.8</ele>
        <time>2022-05-27T08:34:22Z</time>
      </trkpt>
      <trkpt lat="48.01945" lon="6.79198">
        <ele>612.2</ele>
        <time>2022-05-27T08:34:23Z</time>
      </trkpt>
      <trkpt lat="48.01946" lon="6.79178">
        <ele>610.1</ele>
        <time>2022-05-27T08:34:24Z</time>
      </trkpt>
      <trkpt lat="48.01948" lon="6.79159">
        <ele>608.2</ele>
        <time>2022-05-27T08:34:25Z</time>
      </trkpt>
      <trkpt lat="48.0195" lon="6.79139">
        <ele>607.3</ele>
        <time>2022-05-27T08:34:26Z</time>
      </trkpt>
      <trkpt lat="48.01954" lon="6.7912">
        <ele>603</ele>
        <time>2022-05-27T08:34:27Z</time>
      </trkpt>
      <trkpt lat="48.01956" lon="6.791">
        <ele>600.6</ele>
        <time>2022-05-27T08:34:28Z</time>
      </trkpt>
      <trkpt lat="48.01958" lon="6.79081">
        <ele>598.7</ele>
        <time>2022-05-27T08:34:29Z</time>
      </trkpt>
      <trkpt lat="48.01961" lon="6.79061">
        <ele>599.1</ele>
        <time>2022-05-27T08:34:30Z</time>
      </trkpt>
      <trkpt lat="48.01962" lon="6.79043">
        <ele>597.9</ele>
        <time>2022-05-27T08:34:31Z</time>
      </trkpt>
      <trkpt lat="48.01964" lon="6.79025">
        <ele>597.3</ele>
        <time>2022-05-27T08:34:32Z</time>
      </trkpt>
      <trkpt lat="48.01966" lon="6.79008">
        <ele>597.1</ele>
        <time>2022-05-27T08:34:33Z</time>
      </trkpt>
      <trkpt lat="48.01969" lon="6.78993">
        <ele>596.5</ele>
        <time>2022-05-27T08:34:34Z</time>
      </trkpt>
      <trkpt lat="48.01973" lon="6.78978">
        <ele>595.6</ele>
        <time>2022-05-27T08:34:35Z</time>
      </trkpt>
      <trkpt lat="48.01975" lon="6.78963">
        <ele>594.9</ele>
        <time>2022-05-27T08:34:36Z</time>
      </trkpt>
      <trkpt lat="48.01976" lon="6.78949">
        <ele>593.6</ele>
        <time>2022-05-27T08:34:37Z</time>
      </trkpt>
      <trkpt lat="48.01976" lon="6.78934">
        <ele>592.5</ele>
        <time>2022-05-27T08:34:38Z</time>
      </trkpt>
      <trkpt lat="48.01976" lon="6.78919">
        <ele>591.3</ele>
        <time>2022-05-27T08:34:39Z</time>
      </trkpt>
      <trkpt lat="48.01975" lon="6.78904">
        <ele>590.4</ele>
        <time>2022-05-27T08:34:40Z</time>
      </trkpt>
      <trkpt lat="48.01974" lon="6.78888">
        <ele>590</ele>
        <time>2022-05-27T08:34:41Z</time>
      </trkpt>
      <trkpt lat="48.01973" lon="6.78872">
        <ele>588.9</ele>
        <time>2022-05-27T08:34:42Z</time>
      </trkpt>
      <trkpt lat="48.01971" lon="6.78856">
        <ele>588.2</ele>
        <time>2022-05-27T08:34:43Z</time>
      </trkpt>
      <trkpt lat="48.01969" lon="6.78843">
        <ele>587.3</ele>
        <time>2022-05-27T08:34:44Z</time>
      </trkpt>
      <trkpt lat="48.01968" lon="6.78817">
        <ele>585</ele>
        <time>2022-05-27T08:34:46Z</time>
      </trkpt>
      <trkpt lat="48.01976" lon="6.78795">
        <ele>584.2</ele>
        <time>2022-05-27T08:34:48Z</time>
      </trkpt>
      <trkpt lat="48.01986" lon="6.78774">
        <ele>583.4</ele>
        <time>2022-05-27T08:34:50Z</time>
      </trkpt>
      <trkpt lat="48.01993" lon="6.78751">
        <ele>582.6</ele>
        <time>2022-05-27T08:34:52Z</time>
      </trkpt>
      <trkpt lat="48.01998" lon="6.78727">
        <ele>581.8</ele>
        <time>2022-05-27T08:34:54Z</time>
      </trkpt>
      <trkpt lat="48.02002" lon="6.78704">
        <ele>581.3</ele>
        <time>2022-05-27T08:34:56Z</time>
      </trkpt>
      <trkpt lat="48.02003" lon="6.78679">
        <ele>581</ele>
        <time>2022-05-27T08:34:58Z</time>
      </trkpt>
      <trkpt lat="48.01997" lon="6.78654">
        <ele>579</ele>
        <time>2022-05-27T08:35:00Z</time>
      </trkpt>
      <trkpt lat="48.01994" lon="6.78641">
        <ele>578.2</ele>
        <time>2022-05-27T08:35:01Z</time>
      </trkpt>
      <trkpt lat="48.01991" lon="6.78629">
        <ele>576.9</ele>
        <time>2022-05-27T08:35:02Z</time>
      </trkpt>
      <trkpt lat="48.01988" lon="6.78615">
        <ele>576.1</ele>
        <time>2022-05-27T08:35:03Z</time>
      </trkpt>
      <trkpt lat="48.01987" lon="6.78601">
        <ele>577</ele>
        <time>2022-05-27T08:35:04Z</time>
      </trkpt>
      <trkpt lat="48.01985" lon="6.78587">
        <ele>576.7</ele>
        <time>2022-05-27T08:35:05Z</time>
      </trkpt>
      <trkpt lat="48.01984" lon="6.78573">
        <ele>576.2</ele>
        <time>2022-05-27T08:35:06Z</time>
      </trkpt>
      <trkpt lat="48.01982" lon="6.78559">
        <ele>574.8</ele>
        <time>2022-05-27T08:35:07Z</time>
      </trkpt>
      <trkpt lat="48.01979" lon="6.78546">
        <ele>574.6</ele>
        <time>2022-05-27T08:35:08Z</time>
      </trkpt>
      <trkpt lat="48.01976" lon="6.78532">
        <ele>573.1</ele>
        <time>2022-05-27T08:35:09Z</time>
      </trkpt>
      <trkpt lat="48.01973" lon="6.78518">
        <ele>572.8</ele>
        <time>2022-05-27T08:35:10Z</time>
      </trkpt>
      <trkpt lat="48.01971" lon="6.78503">
        <ele>571.5</ele>
        <time>2022-05-27T08:35:11Z</time>
      </trkpt>
      <trkpt lat="48.01971" lon="6.78488">
        <ele>570.6</ele>
        <time>2022-05-27T08:35:12Z</time>
      </trkpt>
      <trkpt lat="48.01971" lon="6.78473">
        <ele>570.5</ele>
        <time>2022-05-27T08:35:13Z</time>
      </trkpt>
      <trkpt lat="48.01971" lon="6.78457">
        <ele>569.6</ele>
        <time>2022-05-27T08:35:14Z</time>
      </trkpt>
      <trkpt lat="48.01971" lon="6.78442">
        <ele>568.5</ele>
        <time>2022-05-27T08:35:15Z</time>
      </trkpt>
      <trkpt lat="48.01972" lon="6.78426">
        <ele>567.6</ele>
        <time>2022-05-27T08:35:16Z</time>
      </trkpt>
      <trkpt lat="48.01973" lon="6.78411">
        <ele>566.9</ele>
        <time>2022-05-27T08:35:17Z</time>
      </trkpt>
      <trkpt lat="48.01975" lon="6.78396">
        <ele>565.6</ele>
        <time>2022-05-27T08:35:18Z</time>
      </trkpt>
      <trkpt lat="48.01977" lon="6.78381">
        <ele>565.2</ele>
        <time>2022-05-27T08:35:19Z</time>
      </trkpt>
      <trkpt lat="48.0198" lon="6.78366">
        <ele>564.1</ele>
        <time>2022-05-27T08:35:20Z</time>
      </trkpt>
      <trkpt lat="48.01985" lon="6.78351">
        <ele>562.4</ele>
        <time>2022-05-27T08:35:21Z</time>
      </trkpt>
      <trkpt lat="48.01989" lon="6.78336">
        <ele>561</ele>
        <time>2022-05-27T08:35:22Z</time>
      </trkpt>
      <trkpt lat="48.01993" lon="6.7832">
        <ele>560.5</ele>
        <time>2022-05-27T08:35:23Z</time>
      </trkpt>
      <trkpt lat="48.01996" lon="6.78304">
        <ele>559.9</ele>
        <time>2022-05-27T08:35:24Z</time>
      </trkpt>
      <trkpt lat="48.01998" lon="6.78288">
        <ele>559.4</ele>
        <time>2022-05-27T08:35:25Z</time>
      </trkpt>
      <trkpt lat="48.01999" lon="6.78274">
        <ele>558.4</ele>
        <time>2022-05-27T08:35:26Z</time>
      </trkpt>
      <trkpt lat="48.01998" lon="6.78252">
        <ele>556.5</ele>
        <time>2022-05-27T08:35:28Z</time>
      </trkpt>
      <trkpt lat="48.01996" lon="6.78236">
        <ele>555.7</ele>
        <time>2022-05-27T08:35:31Z</time>
      </trkpt>
      <trkpt lat="48.01997" lon="6.78251">
        <ele>556.3</ele>
        <time>2022-05-27T08:35:45Z</time>
      </trkpt>
      <trkpt lat="48.01998" lon="6.78267">
        <ele>557.3</ele>
        <time>2022-05-27T08:35:50Z</time>
      </trkpt>
      <trkpt lat="48.01996" lon="6.78281">
        <ele>558.3</ele>
        <time>2022-05-27T08:35:55Z</time>
      </trkpt>
      <trkpt lat="48.01995" lon="6.78274">
        <ele>558.7</ele>
        <time>2022-05-27T08:36:01Z</time>
      </trkpt>
      <trkpt lat="48.01995" lon="6.78273">
        <ele>558.9</ele>
        <time>2022-05-27T08:36:05Z</time>
      </trkpt>
      <trkpt lat="48.01995" lon="6.78273">
        <ele>558.6</ele>
        <time>2022-05-27T08:36:22Z</time>
      </trkpt>
      <trkpt lat="48.01995" lon="6.78272">
        <ele>558.6</ele>
        <time>2022-05-27T08:36:24Z</time>
      </trkpt>
      <trkpt lat="48.01995" lon="6.78272">
        <ele>558.9</ele>
        <time>2022-05-27T08:36:27Z</time>
      </trkpt>
      <trkpt lat="48.01995" lon="6.78272">
        <ele>559</ele>
        <time>2022-05-27T08:36:56Z</time>
      </trkpt>
      <trkpt lat="48.01994" lon="6.78272">
        <ele>559.5</ele>
        <time>2022-05-27T08:37:10Z</time>
      </trkpt>
      <trkpt lat="48.01993" lon="6.78273">
        <ele>559.4</ele>
        <time>2022-05-27T08:37:14Z</time>
      </trkpt>
      <trkpt lat="48.01993" lon="6.78274">
        <ele>559.7</ele>
        <time>2022-05-27T08:37:34Z</time>
      </trkpt>
      <trkpt lat="48.01996" lon="6.78285">
        <ele>559.3</ele>
        <time>2022-05-27T08:37:44Z</time>
      </trkpt>
      <trkpt lat="48.01996" lon="6.78285">
        <ele>559.5</ele>
        <time>2022-05-27T08:38:18Z</time>
      </trkpt>
      <trkpt lat="48.01996" lon="6.78285">
        <ele>559.8</ele>
        <time>2022-05-27T08:38:24Z</time>
      </trkpt>
      <trkpt lat="48.01996" lon="6.78286">
        <ele>559.8</ele>
        <time>2022-05-27T08:38:28Z</time>
      </trkpt>
      <trkpt lat="48.01997" lon="6.78287">
        <ele>559.7</ele>
        <time>2022-05-27T08:38:30Z</time>
      </trkpt>
      <trkpt lat="48.01997" lon="6.78286">
        <ele>560.2</ele>
        <time>2022-05-27T08:38:56Z</time>
      </trkpt>
      <trkpt lat="48.01996" lon="6.78281">
        <ele>560.1</ele>
        <time>2022-05-27T08:39:05Z</time>
      </trkpt>
      <trkpt lat="48.01996" lon="6.7828">
        <ele>559.9</ele>
        <time>2022-05-27T08:39:34Z</time>
      </trkpt>
      <trkpt lat="48.01993" lon="6.78265">
        <ele>560.4</ele>
        <time>2022-05-27T08:39:41Z</time>
      </trkpt>
      <trkpt lat="48.01988" lon="6.7825">
        <ele>560.5</ele>
        <time>2022-05-27T08:39:45Z</time>
      </trkpt>
      <trkpt lat="48.01983" lon="6.78238">
        <ele>561.5</ele>
        <time>2022-05-27T08:39:48Z</time>
      </trkpt>
      <trkpt lat="48.01978" lon="6.78223">
        <ele>561.7</ele>
        <time>2022-05-27T08:39:52Z</time>
      </trkpt>
      <trkpt lat="48.01974" lon="6.7821">
        <ele>562.2</ele>
        <time>2022-05-27T08:39:55Z</time>
      </trkpt>
      <trkpt lat="48.01971" lon="6.78193">
        <ele>562.6</ele>
        <time>2022-05-27T08:39:59Z</time>
      </trkpt>
      <trkpt lat="48.01968" lon="6.78179">
        <ele>562.5</ele>
        <time>2022-05-27T08:40:02Z</time>
      </trkpt>
      <trkpt lat="48.01965" lon="6.78165">
        <ele>563</ele>
        <time>2022-05-27T08:40:05Z</time>
      </trkpt>
      <trkpt lat="48.01961" lon="6.78151">
        <ele>563.6</ele>
        <time>2022-05-27T08:40:08Z</time>
      </trkpt>
      <trkpt lat="48.01957" lon="6.78136">
        <ele>563.5</ele>
        <time>2022-05-27T08:40:11Z</time>
      </trkpt>
      <trkpt lat="48.01952" lon="6.78121">
        <ele>563.4</ele>
        <time>2022-05-27T08:40:14Z</time>
      </trkpt>
      <trkpt lat="48.01947" lon="6.78107">
        <ele>563.8</ele>
        <time>2022-05-27T08:40:17Z</time>
      </trkpt>
      <trkpt lat="48.01943" lon="6.78094">
        <ele>564.7</ele>
        <time>2022-05-27T08:40:20Z</time>
      </trkpt>
      <trkpt lat="48.01939" lon="6.78082">
        <ele>565</ele>
        <time>2022-05-27T08:40:23Z</time>
      </trkpt>
      <trkpt lat="48.01933" lon="6.78069">
        <ele>565.3</ele>
        <time>2022-05-27T08:40:26Z</time>
      </trkpt>
      <trkpt lat="48.01923" lon="6.78056">
        <ele>563.9</ele>
        <time>2022-05-27T08:40:29Z</time>
      </trkpt>
      <trkpt lat="48.01914" lon="6.78046">
        <ele>562.8</ele>
        <time>2022-05-27T08:40:31Z</time>
      </trkpt>
      <trkpt lat="48.01906" lon="6.78034">
        <ele>562.8</ele>
        <time>2022-05-27T08:40:33Z</time>
      </trkpt>
      <trkpt lat="48.01903" lon="6.78021">
        <ele>563.3</ele>
        <time>2022-05-27T08:40:35Z</time>
      </trkpt>
      <trkpt lat="48.01901" lon="6.78003">
        <ele>564.6</ele>
        <time>2022-05-27T08:40:38Z</time>
      </trkpt>
      <trkpt lat="48.01901" lon="6.77989">
        <ele>565.7</ele>
        <time>2022-05-27T08:40:41Z</time>
      </trkpt>
      <trkpt lat="48.01904" lon="6.77975">
        <ele>567.2</ele>
        <time>2022-05-27T08:40:45Z</time>
      </trkpt>
      <trkpt lat="48.01905" lon="6.7796">
        <ele>568.3</ele>
        <time>2022-05-27T08:40:49Z</time>
      </trkpt>
      <trkpt lat="48.01901" lon="6.77942">
        <ele>566.5</ele>
        <time>2022-05-27T08:40:53Z</time>
      </trkpt>
      <trkpt lat="48.01897" lon="6.77925">
        <ele>566.3</ele>
        <time>2022-05-27T08:40:56Z</time>
      </trkpt>
      <trkpt lat="48.01898" lon="6.77909">
        <ele>565.7</ele>
        <time>2022-05-27T08:40:59Z</time>
      </trkpt>
      <trkpt lat="48.01901" lon="6.77893">
        <ele>566.4</ele>
        <time>2022-05-27T08:41:02Z</time>
      </trkpt>
      <trkpt lat="48.019" lon="6.77876">
        <ele>565.6</ele>
        <time>2022-05-27T08:41:06Z</time>
      </trkpt>
      <trkpt lat="48.01897" lon="6.77863">
        <ele>565.9</ele>
        <time>2022-05-27T08:41:09Z</time>
      </trkpt>
      <trkpt lat="48.01892" lon="6.77851">
        <ele>566.3</ele>
        <time>2022-05-27T08:41:12Z</time>
      </trkpt>
      <trkpt lat="48.01885" lon="6.7784">
        <ele>566.1</ele>
        <time>2022-05-27T08:41:15Z</time>
      </trkpt>
      <trkpt lat="48.01878" lon="6.77827">
        <ele>565.4</ele>
        <time>2022-05-27T08:41:18Z</time>
      </trkpt>
      <trkpt lat="48.01871" lon="6.77817">
        <ele>564.4</ele>
        <time>2022-05-27T08:41:21Z</time>
      </trkpt>
      <trkpt lat="48.01863" lon="6.77808">
        <ele>566.1</ele>
        <time>2022-05-27T08:41:24Z</time>
      </trkpt>
      <trkpt lat="48.01858" lon="6.77796">
        <ele>566.3</ele>
        <time>2022-05-27T08:41:27Z</time>
      </trkpt>
      <trkpt lat="48.01859" lon="6.77781">
        <ele>566.1</ele>
        <time>2022-05-27T08:41:30Z</time>
      </trkpt>
      <trkpt lat="48.01861" lon="6.77767">
        <ele>565.9</ele>
        <time>2022-05-27T08:41:32Z</time>
      </trkpt>
      <trkpt lat="48.01861" lon="6.77751">
        <ele>565</ele>
        <time>2022-05-27T08:41:34Z</time>
      </trkpt>
      <trkpt lat="48.01862" lon="6.77732">
        <ele>563</ele>
        <time>2022-05-27T08:41:36Z</time>
      </trkpt>
      <trkpt lat="48.01859" lon="6.77713">
        <ele>562.7</ele>
        <time>2022-05-27T08:41:38Z</time>
      </trkpt>
      <trkpt lat="48.01856" lon="6.77694">
        <ele>560.7</ele>
        <time>2022-05-27T08:41:40Z</time>
      </trkpt>
      <trkpt lat="48.01851" lon="6.77677">
        <ele>560.6</ele>
        <time>2022-05-27T08:41:42Z</time>
      </trkpt>
      <trkpt lat="48.01845" lon="6.77662">
        <ele>559.3</ele>
        <time>2022-05-27T08:41:44Z</time>
      </trkpt>
      <trkpt lat="48.01837" lon="6.77649">
        <ele>559.8</ele>
        <time>2022-05-27T08:41:46Z</time>
      </trkpt>
      <trkpt lat="48.01828" lon="6.77638">
        <ele>559.2</ele>
        <time>2022-05-27T08:41:48Z</time>
      </trkpt>
      <trkpt lat="48.01824" lon="6.77623">
        <ele>557.9</ele>
        <time>2022-05-27T08:41:50Z</time>
      </trkpt>
      <trkpt lat="48.0182" lon="6.77605">
        <ele>560.4</ele>
        <time>2022-05-27T08:41:53Z</time>
      </trkpt>
      <trkpt lat="48.01813" lon="6.77589">
        <ele>559.1</ele>
        <time>2022-05-27T08:41:56Z</time>
      </trkpt>
      <trkpt lat="48.01806" lon="6.77575">
        <ele>557.9</ele>
        <time>2022-05-27T08:41:58Z</time>
      </trkpt>
      <trkpt lat="48.018" lon="6.77561">
        <ele>557</ele>
        <time>2022-05-27T08:42:00Z</time>
      </trkpt>
      <trkpt lat="48.01795" lon="6.77549">
        <ele>556.1</ele>
        <time>2022-05-27T08:42:02Z</time>
      </trkpt>
      <trkpt lat="48.01788" lon="6.77532">
        <ele>557.4</ele>
        <time>2022-05-27T08:42:05Z</time>
      </trkpt>
      <trkpt lat="48.01782" lon="6.77516">
        <ele>559.8</ele>
        <time>2022-05-27T08:42:08Z</time>
      </trkpt>
      <trkpt lat="48.01777" lon="6.77501">
        <ele>557.7</ele>
        <time>2022-05-27T08:42:11Z</time>
      </trkpt>
      <trkpt lat="48.01771" lon="6.77484">
        <ele>559.5</ele>
        <time>2022-05-27T08:42:14Z</time>
      </trkpt>
      <trkpt lat="48.01765" lon="6.77467">
        <ele>558.5</ele>
        <time>2022-05-27T08:42:17Z</time>
      </trkpt>
      <trkpt lat="48.0176" lon="6.77449">
        <ele>558.4</ele>
        <time>2022-05-27T08:42:20Z</time>
      </trkpt>
      <trkpt lat="48.01754" lon="6.77432">
        <ele>559.7</ele>
        <time>2022-05-27T08:42:23Z</time>
      </trkpt>
      <trkpt lat="48.01748" lon="6.77416">
        <ele>559.6</ele>
        <time>2022-05-27T08:42:26Z</time>
      </trkpt>
      <trkpt lat="48.01742" lon="6.77402">
        <ele>560.1</ele>
        <time>2022-05-27T08:42:29Z</time>
      </trkpt>
      <trkpt lat="48.01734" lon="6.77389">
        <ele>561.1</ele>
        <time>2022-05-27T08:42:32Z</time>
      </trkpt>
      <trkpt lat="48.01726" lon="6.77378">
        <ele>561.1</ele>
        <time>2022-05-27T08:42:35Z</time>
      </trkpt>
      <trkpt lat="48.01717" lon="6.77365">
        <ele>561</ele>
        <time>2022-05-27T08:42:38Z</time>
      </trkpt>
      <trkpt lat="48.01709" lon="6.77354">
        <ele>560.1</ele>
        <time>2022-05-27T08:42:40Z</time>
      </trkpt>
      <trkpt lat="48.01702" lon="6.77339">
        <ele>559.5</ele>
        <time>2022-05-27T08:42:42Z</time>
      </trkpt>
      <trkpt lat="48.01697" lon="6.77325">
        <ele>560.7</ele>
        <time>2022-05-27T08:42:44Z</time>
      </trkpt>
      <trkpt lat="48.01691" lon="6.77314">
        <ele>560.2</ele>
        <time>2022-05-27T08:42:46Z</time>
      </trkpt>
      <trkpt lat="48.01681" lon="6.773">
        <ele>558.2</ele>
        <time>2022-05-27T08:42:49Z</time>
      </trkpt>
      <trkpt lat="48.01672" lon="6.77293">
        <ele>557.9</ele>
        <time>2022-05-27T08:42:51Z</time>
      </trkpt>
      <trkpt lat="48.01663" lon="6.77286">
        <ele>555.2</ele>
        <time>2022-05-27T08:42:53Z</time>
      </trkpt>
      <trkpt lat="48.01655" lon="6.77274">
        <ele>555</ele>
        <time>2022-05-27T08:42:55Z</time>
      </trkpt>
      <trkpt lat="48.01654" lon="6.77259">
        <ele>556.9</ele>
        <time>2022-05-27T08:42:57Z</time>
      </trkpt>
      <trkpt lat="48.01658" lon="6.77246">
        <ele>557.5</ele>
        <time>2022-05-27T08:42:59Z</time>
      </trkpt>
      <trkpt lat="48.01663" lon="6.77228">
        <ele>557.1</ele>
        <time>2022-05-27T08:43:02Z</time>
      </trkpt>
      <trkpt lat="48.01665" lon="6.77213">
        <ele>557.7</ele>
        <time>2022-05-27T08:43:04Z</time>
      </trkpt>
      <trkpt lat="48.01666" lon="6.77199">
        <ele>555</ele>
        <time>2022-05-27T08:43:06Z</time>
      </trkpt>
      <trkpt lat="48.01664" lon="6.77186">
        <ele>558.5</ele>
        <time>2022-05-27T08:43:08Z</time>
      </trkpt>
      <trkpt lat="48.0166" lon="6.77169">
        <ele>559.1</ele>
        <time>2022-05-27T08:43:11Z</time>
      </trkpt>
      <trkpt lat="48.01653" lon="6.77155">
        <ele>558.3</ele>
        <time>2022-05-27T08:43:14Z</time>
      </trkpt>
      <trkpt lat="48.01644" lon="6.77143">
        <ele>559.5</ele>
        <time>2022-05-27T08:43:17Z</time>
      </trkpt>
      <trkpt lat="48.01635" lon="6.77135">
        <ele>561</ele>
        <time>2022-05-27T08:43:20Z</time>
      </trkpt>
      <trkpt lat="48.01627" lon="6.77125">
        <ele>560.7</ele>
        <time>2022-05-27T08:43:23Z</time>
      </trkpt>
      <trkpt lat="48.01621" lon="6.77111">
        <ele>562.5</ele>
        <time>2022-05-27T08:43:26Z</time>
      </trkpt>
      <trkpt lat="48.01616" lon="6.77097">
        <ele>562.3</ele>
        <time>2022-05-27T08:43:29Z</time>
      </trkpt>
      <trkpt lat="48.01613" lon="6.77081">
        <ele>562.5</ele>
        <time>2022-05-27T08:43:32Z</time>
      </trkpt>
      <trkpt lat="48.01613" lon="6.77067">
        <ele>563.5</ele>
        <time>2022-05-27T08:43:35Z</time>
      </trkpt>
      <trkpt lat="48.01614" lon="6.77051">
        <ele>564.6</ele>
        <time>2022-05-27T08:43:39Z</time>
      </trkpt>
      <trkpt lat="48.01612" lon="6.77035">
        <ele>565</ele>
        <time>2022-05-27T08:43:43Z</time>
      </trkpt>
      <trkpt lat="48.01606" lon="6.77024">
        <ele>565.2</ele>
        <time>2022-05-27T08:43:46Z</time>
      </trkpt>
      <trkpt lat="48.01598" lon="6.77016">
        <ele>564.6</ele>
        <time>2022-05-27T08:43:49Z</time>
      </trkpt>
      <trkpt lat="48.0159" lon="6.7701">
        <ele>565</ele>
        <time>2022-05-27T08:43:52Z</time>
      </trkpt>
      <trkpt lat="48.01579" lon="6.77004">
        <ele>565.9</ele>
        <time>2022-05-27T08:43:56Z</time>
      </trkpt>
      <trkpt lat="48.0157" lon="6.77">
        <ele>567.1</ele>
        <time>2022-05-27T08:43:59Z</time>
      </trkpt>
      <trkpt lat="48.01561" lon="6.76994">
        <ele>566.9</ele>
        <time>2022-05-27T08:44:02Z</time>
      </trkpt>
      <trkpt lat="48.01551" lon="6.7699">
        <ele>567.3</ele>
        <time>2022-05-27T08:44:05Z</time>
      </trkpt>
      <trkpt lat="48.01541" lon="6.76987">
        <ele>567.3</ele>
        <time>2022-05-27T08:44:08Z</time>
      </trkpt>
      <trkpt lat="48.01529" lon="6.76984">
        <ele>568</ele>
        <time>2022-05-27T08:44:12Z</time>
      </trkpt>
      <trkpt lat="48.01519" lon="6.76981">
        <ele>568.3</ele>
        <time>2022-05-27T08:44:15Z</time>
      </trkpt>
      <trkpt lat="48.01508" lon="6.76979">
        <ele>567.3</ele>
        <time>2022-05-27T08:44:18Z</time>
      </trkpt>
      <trkpt lat="48.01498" lon="6.76974">
        <ele>568.3</ele>
        <time>2022-05-27T08:44:21Z</time>
      </trkpt>
      <trkpt lat="48.01488" lon="6.76963">
        <ele>568.7</ele>
        <time>2022-05-27T08:44:24Z</time>
      </trkpt>
      <trkpt lat="48.0148" lon="6.76953">
        <ele>568.6</ele>
        <time>2022-05-27T08:44:27Z</time>
      </trkpt>
      <trkpt lat="48.01472" lon="6.76942">
        <ele>569.5</ele>
        <time>2022-05-27T08:44:30Z</time>
      </trkpt>
      <trkpt lat="48.01463" lon="6.76929">
        <ele>567.4</ele>
        <time>2022-05-27T08:44:33Z</time>
      </trkpt>
      <trkpt lat="48.01457" lon="6.76918">
        <ele>572</ele>
        <time>2022-05-27T08:44:35Z</time>
      </trkpt>
      <trkpt lat="48.01452" lon="6.76908">
        <ele>569.8</ele>
        <time>2022-05-27T08:44:37Z</time>
      </trkpt>
      <trkpt lat="48.01446" lon="6.76892">
        <ele>568.1</ele>
        <time>2022-05-27T08:44:40Z</time>
      </trkpt>
      <trkpt lat="48.01443" lon="6.76875">
        <ele>569.2</ele>
        <time>2022-05-27T08:44:43Z</time>
      </trkpt>
      <trkpt lat="48.01441" lon="6.76857">
        <ele>568.1</ele>
        <time>2022-05-27T08:44:46Z</time>
      </trkpt>
      <trkpt lat="48.0144" lon="6.76839">
        <ele>569.4</ele>
        <time>2022-05-27T08:44:49Z</time>
      </trkpt>
      <trkpt lat="48.01439" lon="6.76823">
        <ele>569.4</ele>
        <time>2022-05-27T08:44:52Z</time>
      </trkpt>
      <trkpt lat="48.01437" lon="6.76808">
        <ele>571.8</ele>
        <time>2022-05-27T08:44:55Z</time>
      </trkpt>
      <trkpt lat="48.01435" lon="6.76793">
        <ele>572</ele>
        <time>2022-05-27T08:44:58Z</time>
      </trkpt>
      <trkpt lat="48.01434" lon="6.76779">
        <ele>572.1</ele>
        <time>2022-05-27T08:45:01Z</time>
      </trkpt>
      <trkpt lat="48.01432" lon="6.76765">
        <ele>572.1</ele>
        <time>2022-05-27T08:45:04Z</time>
      </trkpt>
      <trkpt lat="48.01429" lon="6.76752">
        <ele>571.9</ele>
        <time>2022-05-27T08:45:07Z</time>
      </trkpt>
      <trkpt lat="48.01425" lon="6.76739">
        <ele>571.2</ele>
        <time>2022-05-27T08:45:09Z</time>
      </trkpt>
      <trkpt lat="48.01419" lon="6.76727">
        <ele>570.3</ele>
        <time>2022-05-27T08:45:11Z</time>
      </trkpt>
      <trkpt lat="48.01415" lon="6.76714">
        <ele>569.5</ele>
        <time>2022-05-27T08:45:13Z</time>
      </trkpt>
      <trkpt lat="48.01408" lon="6.76702">
        <ele>570.2</ele>
        <time>2022-05-27T08:45:15Z</time>
      </trkpt>
      <trkpt lat="48.014" lon="6.76692">
        <ele>568.6</ele>
        <time>2022-05-27T08:45:17Z</time>
      </trkpt>
      <trkpt lat="48.01389" lon="6.76682">
        <ele>567.9</ele>
        <time>2022-05-27T08:45:19Z</time>
      </trkpt>
      <trkpt lat="48.01377" lon="6.76671">
        <ele>566</ele>
        <time>2022-05-27T08:45:21Z</time>
      </trkpt>
      <trkpt lat="48.01367" lon="6.76657">
        <ele>565.7</ele>
        <time>2022-05-27T08:45:23Z</time>
      </trkpt>
      <trkpt lat="48.01362" lon="6.76644">
        <ele>565.8</ele>
        <time>2022-05-27T08:45:25Z</time>
      </trkpt>
      <trkpt lat="48.01359" lon="6.7663">
        <ele>566</ele>
        <time>2022-05-27T08:45:27Z</time>
      </trkpt>
      <trkpt lat="48.01354" lon="6.76614">
        <ele>565.3</ele>
        <time>2022-05-27T08:45:30Z</time>
      </trkpt>
      <trkpt lat="48.01345" lon="6.76601">
        <ele>565.1</ele>
        <time>2022-05-27T08:45:33Z</time>
      </trkpt>
      <trkpt lat="48.01337" lon="6.76591">
        <ele>565.5</ele>
        <time>2022-05-27T08:45:35Z</time>
      </trkpt>
      <trkpt lat="48.0133" lon="6.7658">
        <ele>562</ele>
        <time>2022-05-27T08:45:37Z</time>
      </trkpt>
      <trkpt lat="48.01322" lon="6.76566">
        <ele>562.8</ele>
        <time>2022-05-27T08:45:39Z</time>
      </trkpt>
      <trkpt lat="48.01314" lon="6.76552">
        <ele>562.2</ele>
        <time>2022-05-27T08:45:41Z</time>
      </trkpt>
      <trkpt lat="48.01307" lon="6.76538">
        <ele>560.1</ele>
        <time>2022-05-27T08:45:43Z</time>
      </trkpt>
      <trkpt lat="48.01301" lon="6.76522">
        <ele>557.5</ele>
        <time>2022-05-27T08:45:45Z</time>
      </trkpt>
      <trkpt lat="48.01297" lon="6.76508">
        <ele>559.3</ele>
        <time>2022-05-27T08:45:47Z</time>
      </trkpt>
      <trkpt lat="48.01294" lon="6.76495">
        <ele>560.7</ele>
        <time>2022-05-27T08:45:49Z</time>
      </trkpt>
      <trkpt lat="48.0129" lon="6.76479">
        <ele>561.3</ele>
        <time>2022-05-27T08:45:52Z</time>
      </trkpt>
      <trkpt lat="48.01286" lon="6.76467">
        <ele>561.7</ele>
        <time>2022-05-27T08:45:54Z</time>
      </trkpt>
      <trkpt lat="48.01282" lon="6.76454">
        <ele>560.6</ele>
        <time>2022-05-27T08:45:56Z</time>
      </trkpt>
      <trkpt lat="48.01278" lon="6.76441">
        <ele>561</ele>
        <time>2022-05-27T08:45:58Z</time>
      </trkpt>
      <trkpt lat="48.01273" lon="6.76423">
        <ele>560.8</ele>
        <time>2022-05-27T08:46:01Z</time>
      </trkpt>
      <trkpt lat="48.01271" lon="6.76407">
        <ele>562.7</ele>
        <time>2022-05-27T08:46:04Z</time>
      </trkpt>
      <trkpt lat="48.01273" lon="6.76393">
        <ele>562.3</ele>
        <time>2022-05-27T08:46:07Z</time>
      </trkpt>
      <trkpt lat="48.01278" lon="6.76382">
        <ele>562.7</ele>
        <time>2022-05-27T08:46:15Z</time>
      </trkpt>
      <trkpt lat="48.01277" lon="6.76384">
        <ele>562.5</ele>
        <time>2022-05-27T08:46:21Z</time>
      </trkpt>
      <trkpt lat="48.01277" lon="6.76384">
        <ele>562.6</ele>
        <time>2022-05-27T08:46:31Z</time>
      </trkpt>
      <trkpt lat="48.01277" lon="6.76385">
        <ele>562.8</ele>
        <time>2022-05-27T08:46:35Z</time>
      </trkpt>
      <trkpt lat="48.01278" lon="6.76385">
        <ele>563.3</ele>
        <time>2022-05-27T08:47:04Z</time>
      </trkpt>
      <trkpt lat="48.01287" lon="6.76389">
        <ele>560.9</ele>
        <time>2022-05-27T08:47:09Z</time>
      </trkpt>
      <trkpt lat="48.01298" lon="6.76396">
        <ele>559</ele>
        <time>2022-05-27T08:47:12Z</time>
      </trkpt>
      <trkpt lat="48.01294" lon="6.7641">
        <ele>554.7</ele>
        <time>2022-05-27T08:47:20Z</time>
      </trkpt>
      <trkpt lat="48.01293" lon="6.76424">
        <ele>553.9</ele>
        <time>2022-05-27T08:47:23Z</time>
      </trkpt>
      <trkpt lat="48.01296" lon="6.76434">
        <ele>554.4</ele>
        <time>2022-05-27T08:47:27Z</time>
      </trkpt>
      <trkpt lat="48.01301" lon="6.76447">
        <ele>554.9</ele>
        <time>2022-05-27T08:47:36Z</time>
      </trkpt>
      <trkpt lat="48.01298" lon="6.76461">
        <ele>555.9</ele>
        <time>2022-05-27T08:47:46Z</time>
      </trkpt>
      <trkpt lat="48.013" lon="6.76475">
        <ele>557.4</ele>
        <time>2022-05-27T08:47:52Z</time>
      </trkpt>
      <trkpt lat="48.01306" lon="6.76486">
        <ele>558.7</ele>
        <time>2022-05-27T08:47:56Z</time>
      </trkpt>
      <trkpt lat="48.01315" lon="6.76488">
        <ele>557</ele>
        <time>2022-05-27T08:48:01Z</time>
      </trkpt>
      <trkpt lat="48.01319" lon="6.76484">
        <ele>555.8</ele>
        <time>2022-05-27T08:48:06Z</time>
      </trkpt>
      <trkpt lat="48.01319" lon="6.76484">
        <ele>556.1</ele>
        <time>2022-05-27T08:48:48Z</time>
      </trkpt>
      <trkpt lat="48.0132" lon="6.76484">
        <ele>556.3</ele>
        <time>2022-05-27T08:49:04Z</time>
      </trkpt>
      <trkpt lat="48.0132" lon="6.76484">
        <ele>556.5</ele>
        <time>2022-05-27T08:49:25Z</time>
      </trkpt>
      <trkpt lat="48.0132" lon="6.76483">
        <ele>556.5</ele>
        <time>2022-05-27T08:49:55Z</time>
      </trkpt>
      <trkpt lat="48.01321" lon="6.76483">
        <ele>556.5</ele>
        <time>2022-05-27T08:49:58Z</time>
      </trkpt>
      <trkpt lat="48.0133" lon="6.76481">
        <ele>553.3</ele>
        <time>2022-05-27T08:50:04Z</time>
      </trkpt>
      <trkpt lat="48.0134" lon="6.76489">
        <ele>551.3</ele>
        <time>2022-05-27T08:50:08Z</time>
      </trkpt>
      <trkpt lat="48.01347" lon="6.76506">
        <ele>548</ele>
        <time>2022-05-27T08:50:11Z</time>
      </trkpt>
      <trkpt lat="48.01356" lon="6.76518">
        <ele>546.5</ele>
        <time>2022-05-27T08:50:13Z</time>
      </trkpt>
      <trkpt lat="48.01363" lon="6.76525">
        <ele>545.2</ele>
        <time>2022-05-27T08:50:15Z</time>
      </trkpt>
      <trkpt lat="48.01372" lon="6.76529">
        <ele>543.1</ele>
        <time>2022-05-27T08:50:17Z</time>
      </trkpt>
      <trkpt lat="48.01383" lon="6.76533">
        <ele>542.1</ele>
        <time>2022-05-27T08:50:19Z</time>
      </trkpt>
      <trkpt lat="48.01393" lon="6.76535">
        <ele>539.2</ele>
        <time>2022-05-27T08:50:21Z</time>
      </trkpt>
      <trkpt lat="48.01403" lon="6.76534">
        <ele>536.9</ele>
        <time>2022-05-27T08:50:23Z</time>
      </trkpt>
      <trkpt lat="48.01413" lon="6.76534">
        <ele>536.1</ele>
        <time>2022-05-27T08:50:25Z</time>
      </trkpt>
      <trkpt lat="48.01424" lon="6.76546">
        <ele>535.6</ele>
        <time>2022-05-27T08:50:28Z</time>
      </trkpt>
      <trkpt lat="48.01431" lon="6.76556">
        <ele>535.2</ele>
        <time>2022-05-27T08:50:30Z</time>
      </trkpt>
      <trkpt lat="48.0144" lon="6.76566">
        <ele>535</ele>
        <time>2022-05-27T08:50:32Z</time>
      </trkpt>
      <trkpt lat="48.01452" lon="6.76574">
        <ele>533.6</ele>
        <time>2022-05-27T08:50:34Z</time>
      </trkpt>
      <trkpt lat="48.01466" lon="6.76579">
        <ele>531.2</ele>
        <time>2022-05-27T08:50:36Z</time>
      </trkpt>
      <trkpt lat="48.01481" lon="6.76585">
        <ele>528.9</ele>
        <time>2022-05-27T08:50:38Z</time>
      </trkpt>
      <trkpt lat="48.01496" lon="6.76588">
        <ele>528.1</ele>
        <time>2022-05-27T08:50:40Z</time>
      </trkpt>
      <trkpt lat="48.01511" lon="6.76592">
        <ele>528.1</ele>
        <time>2022-05-27T08:50:42Z</time>
      </trkpt>
      <trkpt lat="48.01526" lon="6.76603">
        <ele>527.3</ele>
        <time>2022-05-27T08:50:44Z</time>
      </trkpt>
      <trkpt lat="48.01533" lon="6.76612">
        <ele>525.9</ele>
        <time>2022-05-27T08:50:45Z</time>
      </trkpt>
      <trkpt lat="48.01546" lon="6.76627">
        <ele>524.3</ele>
        <time>2022-05-27T08:50:47Z</time>
      </trkpt>
      <trkpt lat="48.01558" lon="6.76641">
        <ele>523.7</ele>
        <time>2022-05-27T08:50:49Z</time>
      </trkpt>
      <trkpt lat="48.01567" lon="6.76657">
        <ele>524.3</ele>
        <time>2022-05-27T08:50:51Z</time>
      </trkpt>
      <trkpt lat="48.01577" lon="6.76675">
        <ele>523.6</ele>
        <time>2022-05-27T08:50:53Z</time>
      </trkpt>
      <trkpt lat="48.01583" lon="6.76686">
        <ele>522</ele>
        <time>2022-05-27T08:50:54Z</time>
      </trkpt>
      <trkpt lat="48.01589" lon="6.76697">
        <ele>521.7</ele>
        <time>2022-05-27T08:50:55Z</time>
      </trkpt>
      <trkpt lat="48.01595" lon="6.76706">
        <ele>522.2</ele>
        <time>2022-05-27T08:50:56Z</time>
      </trkpt>
      <trkpt lat="48.01606" lon="6.76725">
        <ele>520.7</ele>
        <time>2022-05-27T08:50:58Z</time>
      </trkpt>
      <trkpt lat="48.01614" lon="6.76745">
        <ele>521.3</ele>
        <time>2022-05-27T08:51:00Z</time>
      </trkpt>
      <trkpt lat="48.01622" lon="6.76767">
        <ele>520.1</ele>
        <time>2022-05-27T08:51:02Z</time>
      </trkpt>
      <trkpt lat="48.01631" lon="6.76786">
        <ele>520.3</ele>
        <time>2022-05-27T08:51:04Z</time>
      </trkpt>
      <trkpt lat="48.01645" lon="6.76805">
        <ele>520.7</ele>
        <time>2022-05-27T08:51:06Z</time>
      </trkpt>
      <trkpt lat="48.01657" lon="6.76821">
        <ele>521.1</ele>
        <time>2022-05-27T08:51:08Z</time>
      </trkpt>
      <trkpt lat="48.01667" lon="6.76839">
        <ele>521.8</ele>
        <time>2022-05-27T08:51:10Z</time>
      </trkpt>
      <trkpt lat="48.01674" lon="6.76856">
        <ele>521.4</ele>
        <time>2022-05-27T08:51:12Z</time>
      </trkpt>
      <trkpt lat="48.01679" lon="6.76874">
        <ele>520.8</ele>
        <time>2022-05-27T08:51:14Z</time>
      </trkpt>
      <trkpt lat="48.01685" lon="6.76889">
        <ele>521.1</ele>
        <time>2022-05-27T08:51:16Z</time>
      </trkpt>
      <trkpt lat="48.01691" lon="6.76903">
        <ele>521.7</ele>
        <time>2022-05-27T08:51:18Z</time>
      </trkpt>
      <trkpt lat="48.01695" lon="6.76916">
        <ele>522</ele>
        <time>2022-05-27T08:51:20Z</time>
      </trkpt>
      <trkpt lat="48.017" lon="6.76929">
        <ele>521.6</ele>
        <time>2022-05-27T08:51:22Z</time>
      </trkpt>
      <trkpt lat="48.01704" lon="6.76941">
        <ele>520.7</ele>
        <time>2022-05-27T08:51:24Z</time>
      </trkpt>
      <trkpt lat="48.01713" lon="6.76946">
        <ele>521.5</ele>
        <time>2022-05-27T08:51:27Z</time>
      </trkpt>
      <trkpt lat="48.01722" lon="6.76951">
        <ele>521.4</ele>
        <time>2022-05-27T08:51:31Z</time>
      </trkpt>
      <trkpt lat="48.01728" lon="6.76963">
        <ele>521</ele>
        <time>2022-05-27T08:51:34Z</time>
      </trkpt>
      <trkpt lat="48.01736" lon="6.76973">
        <ele>521.7</ele>
        <time>2022-05-27T08:51:38Z</time>
      </trkpt>
      <trkpt lat="48.01746" lon="6.76981">
        <ele>522.9</ele>
        <time>2022-05-27T08:51:42Z</time>
      </trkpt>
      <trkpt lat="48.01754" lon="6.76991">
        <ele>522.9</ele>
        <time>2022-05-27T08:51:45Z</time>
      </trkpt>
      <trkpt lat="48.01761" lon="6.77001">
        <ele>523</ele>
        <time>2022-05-27T08:51:48Z</time>
      </trkpt>
      <trkpt lat="48.01768" lon="6.7701">
        <ele>522.5</ele>
        <time>2022-05-27T08:51:51Z</time>
      </trkpt>
      <trkpt lat="48.01775" lon="6.77021">
        <ele>522.6</ele>
        <time>2022-05-27T08:51:54Z</time>
      </trkpt>
      <trkpt lat="48.01782" lon="6.7703">
        <ele>523.3</ele>
        <time>2022-05-27T08:51:57Z</time>
      </trkpt>
      <trkpt lat="48.01791" lon="6.7704">
        <ele>523.6</ele>
        <time>2022-05-27T08:52:01Z</time>
      </trkpt>
      <trkpt lat="48.018" lon="6.77048">
        <ele>523.9</ele>
        <time>2022-05-27T08:52:04Z</time>
      </trkpt>
      <trkpt lat="48.01808" lon="6.77053">
        <ele>523.6</ele>
        <time>2022-05-27T08:52:07Z</time>
      </trkpt>
      <trkpt lat="48.01817" lon="6.77057">
        <ele>524</ele>
        <time>2022-05-27T08:52:10Z</time>
      </trkpt>
      <trkpt lat="48.01828" lon="6.77062">
        <ele>524.5</ele>
        <time>2022-05-27T08:52:13Z</time>
      </trkpt>
      <trkpt lat="48.0184" lon="6.77066">
        <ele>524.7</ele>
        <time>2022-05-27T08:52:16Z</time>
      </trkpt>
      <trkpt lat="48.0185" lon="6.77066">
        <ele>526.1</ele>
        <time>2022-05-27T08:52:19Z</time>
      </trkpt>
      <trkpt lat="48.01859" lon="6.77061">
        <ele>526.3</ele>
        <time>2022-05-27T08:52:22Z</time>
      </trkpt>
      <trkpt lat="48.01869" lon="6.7705">
        <ele>527.7</ele>
        <time>2022-05-27T08:52:26Z</time>
      </trkpt>
      <trkpt lat="48.01875" lon="6.77038">
        <ele>528.4</ele>
        <time>2022-05-27T08:52:30Z</time>
      </trkpt>
      <trkpt lat="48.01877" lon="6.77023">
        <ele>529.8</ele>
        <time>2022-05-27T08:52:35Z</time>
      </trkpt>
      <trkpt lat="48.01879" lon="6.77009">
        <ele>531.2</ele>
        <time>2022-05-27T08:52:40Z</time>
      </trkpt>
      <trkpt lat="48.01877" lon="6.76993">
        <ele>530.6</ele>
        <time>2022-05-27T08:52:45Z</time>
      </trkpt>
      <trkpt lat="48.01872" lon="6.76982">
        <ele>530.4</ele>
        <time>2022-05-27T08:52:48Z</time>
      </trkpt>
      <trkpt lat="48.01865" lon="6.76968">
        <ele>530.1</ele>
        <time>2022-05-27T08:52:51Z</time>
      </trkpt>
      <trkpt lat="48.01859" lon="6.76951">
        <ele>529.1</ele>
        <time>2022-05-27T08:52:54Z</time>
      </trkpt>
      <trkpt lat="48.01858" lon="6.76937">
        <ele>529.6</ele>
        <time>2022-05-27T08:52:57Z</time>
      </trkpt>
      <trkpt lat="48.01855" lon="6.76924">
        <ele>530.3</ele>
        <time>2022-05-27T08:53:01Z</time>
      </trkpt>
      <trkpt lat="48.01854" lon="6.76909">
        <ele>530.6</ele>
        <time>2022-05-27T08:53:06Z</time>
      </trkpt>
      <trkpt lat="48.01853" lon="6.76894">
        <ele>531.9</ele>
        <time>2022-05-27T08:53:11Z</time>
      </trkpt>
      <trkpt lat="48.01848" lon="6.76881">
        <ele>531.4</ele>
        <time>2022-05-27T08:53:16Z</time>
      </trkpt>
      <trkpt lat="48.01842" lon="6.76867">
        <ele>531.4</ele>
        <time>2022-05-27T08:53:20Z</time>
      </trkpt>
      <trkpt lat="48.01837" lon="6.76852">
        <ele>530.5</ele>
        <time>2022-05-27T08:53:24Z</time>
      </trkpt>
      <trkpt lat="48.01832" lon="6.76836">
        <ele>531.2</ele>
        <time>2022-05-27T08:53:28Z</time>
      </trkpt>
      <trkpt lat="48.01829" lon="6.76819">
        <ele>532.2</ele>
        <time>2022-05-27T08:53:32Z</time>
      </trkpt>
      <trkpt lat="48.01826" lon="6.76805">
        <ele>533.3</ele>
        <time>2022-05-27T08:53:36Z</time>
      </trkpt>
      <trkpt lat="48.01821" lon="6.76794">
        <ele>534.3</ele>
        <time>2022-05-27T08:53:41Z</time>
      </trkpt>
      <trkpt lat="48.01817" lon="6.7678">
        <ele>535.7</ele>
        <time>2022-05-27T08:53:48Z</time>
      </trkpt>
      <trkpt lat="48.01814" lon="6.76767">
        <ele>536.4</ele>
        <time>2022-05-27T08:53:55Z</time>
      </trkpt>
      <trkpt lat="48.01812" lon="6.76754">
        <ele>537.8</ele>
        <time>2022-05-27T08:54:03Z</time>
      </trkpt>
      <trkpt lat="48.01811" lon="6.76754">
        <ele>537.8</ele>
        <time>2022-05-27T08:54:04Z</time>
      </trkpt>
      <trkpt lat="48.01811" lon="6.76755">
        <ele>538.1</ele>
        <time>2022-05-27T08:54:06Z</time>
      </trkpt>
      <trkpt lat="48.01812" lon="6.76754">
        <ele>538.3</ele>
        <time>2022-05-27T08:54:09Z</time>
      </trkpt>
      <trkpt lat="48.01812" lon="6.76746">
        <ele>540.1</ele>
        <time>2022-05-27T08:54:20Z</time>
      </trkpt>
      <trkpt lat="48.01813" lon="6.76747">
        <ele>540.5</ele>
        <time>2022-05-27T08:54:22Z</time>
      </trkpt>
      <trkpt lat="48.01813" lon="6.76747">
        <ele>540.9</ele>
        <time>2022-05-27T08:55:01Z</time>
      </trkpt>
      <trkpt lat="48.01813" lon="6.76747">
        <ele>540.2</ele>
        <time>2022-05-27T08:55:19Z</time>
      </trkpt>
      <trkpt lat="48.01813" lon="6.76747">
        <ele>540.6</ele>
        <time>2022-05-27T08:55:34Z</time>
      </trkpt>
      <trkpt lat="48.01812" lon="6.76745">
        <ele>540.5</ele>
        <time>2022-05-27T08:55:39Z</time>
      </trkpt>
      <trkpt lat="48.01811" lon="6.76743">
        <ele>540.4</ele>
        <time>2022-05-27T08:55:44Z</time>
      </trkpt>
      <trkpt lat="48.01811" lon="6.76742">
        <ele>540.3</ele>
        <time>2022-05-27T08:55:46Z</time>
      </trkpt>
      <trkpt lat="48.01807" lon="6.76728">
        <ele>539.9</ele>
        <time>2022-05-27T08:55:57Z</time>
      </trkpt>
      <trkpt lat="48.01802" lon="6.76711">
        <ele>538.7</ele>
        <time>2022-05-27T08:56:01Z</time>
      </trkpt>
      <trkpt lat="48.01801" lon="6.76694">
        <ele>540.6</ele>
        <time>2022-05-27T08:56:04Z</time>
      </trkpt>
      <trkpt lat="48.018" lon="6.76675">
        <ele>539</ele>
        <time>2022-05-27T08:56:07Z</time>
      </trkpt>
      <trkpt lat="48.01804" lon="6.7666">
        <ele>539.4</ele>
        <time>2022-05-27T08:56:10Z</time>
      </trkpt>
      <trkpt lat="48.01809" lon="6.76648">
        <ele>540.9</ele>
        <time>2022-05-27T08:56:13Z</time>
      </trkpt>
      <trkpt lat="48.01817" lon="6.76638">
        <ele>541.1</ele>
        <time>2022-05-27T08:56:16Z</time>
      </trkpt>
      <trkpt lat="48.01825" lon="6.76627">
        <ele>542.1</ele>
        <time>2022-05-27T08:56:19Z</time>
      </trkpt>
      <trkpt lat="48.01831" lon="6.76614">
        <ele>542.7</ele>
        <time>2022-05-27T08:56:22Z</time>
      </trkpt>
      <trkpt lat="48.01836" lon="6.766">
        <ele>540.9</ele>
        <time>2022-05-27T08:56:25Z</time>
      </trkpt>
      <trkpt lat="48.01838" lon="6.76584">
        <ele>541.2</ele>
        <time>2022-05-27T08:56:28Z</time>
      </trkpt>
      <trkpt lat="48.01838" lon="6.76568">
        <ele>539.2</ele>
        <time>2022-05-27T08:56:31Z</time>
      </trkpt>
      <trkpt lat="48.01833" lon="6.76548">
        <ele>538.7</ele>
        <time>2022-05-27T08:56:34Z</time>
      </trkpt>
      <trkpt lat="48.01825" lon="6.76531">
        <ele>534.2</ele>
        <time>2022-05-27T08:56:36Z</time>
      </trkpt>
      <trkpt lat="48.01814" lon="6.76517">
        <ele>534.5</ele>
        <time>2022-05-27T08:56:38Z</time>
      </trkpt>
      <trkpt lat="48.01802" lon="6.76507">
        <ele>533.2</ele>
        <time>2022-05-27T08:56:40Z</time>
      </trkpt>
      <trkpt lat="48.01791" lon="6.76499">
        <ele>533.1</ele>
        <time>2022-05-27T08:56:42Z</time>
      </trkpt>
      <trkpt lat="48.01777" lon="6.76494">
        <ele>530.2</ele>
        <time>2022-05-27T08:56:44Z</time>
      </trkpt>
      <trkpt lat="48.01765" lon="6.7649">
        <ele>529</ele>
        <time>2022-05-27T08:56:46Z</time>
      </trkpt>
      <trkpt lat="48.01755" lon="6.76487">
        <ele>527.1</ele>
        <time>2022-05-27T08:56:48Z</time>
      </trkpt>
      <trkpt lat="48.01749" lon="6.76477">
        <ele>527.2</ele>
        <time>2022-05-27T08:56:50Z</time>
      </trkpt>
      <trkpt lat="48.01745" lon="6.76461">
        <ele>528.5</ele>
        <time>2022-05-27T08:56:53Z</time>
      </trkpt>
      <trkpt lat="48.0174" lon="6.76447">
        <ele>530.4</ele>
        <time>2022-05-27T08:56:57Z</time>
      </trkpt>
      <trkpt lat="48.01734" lon="6.76433">
        <ele>532</ele>
        <time>2022-05-27T08:57:03Z</time>
      </trkpt>
      <trkpt lat="48.01728" lon="6.7642">
        <ele>533.3</ele>
        <time>2022-05-27T08:57:08Z</time>
      </trkpt>
      <trkpt lat="48.01721" lon="6.76408">
        <ele>534.1</ele>
        <time>2022-05-27T08:57:13Z</time>
      </trkpt>
      <trkpt lat="48.01713" lon="6.76396">
        <ele>535.4</ele>
        <time>2022-05-27T08:57:19Z</time>
      </trkpt>
      <trkpt lat="48.01706" lon="6.76384">
        <ele>536.1</ele>
        <time>2022-05-27T08:57:24Z</time>
      </trkpt>
      <trkpt lat="48.01699" lon="6.76372">
        <ele>537.1</ele>
        <time>2022-05-27T08:57:29Z</time>
      </trkpt>
      <trkpt lat="48.01691" lon="6.7636">
        <ele>537.6</ele>
        <time>2022-05-27T08:57:34Z</time>
      </trkpt>
      <trkpt lat="48.01684" lon="6.7635">
        <ele>538.3</ele>
        <time>2022-05-27T08:57:39Z</time>
      </trkpt>
      <trkpt lat="48.01679" lon="6.76337">
        <ele>539.2</ele>
        <time>2022-05-27T08:57:44Z</time>
      </trkpt>
      <trkpt lat="48.01676" lon="6.76322">
        <ele>539.8</ele>
        <time>2022-05-27T08:57:49Z</time>
      </trkpt>
      <trkpt lat="48.01677" lon="6.76308">
        <ele>541.2</ele>
        <time>2022-05-27T08:57:54Z</time>
      </trkpt>
      <trkpt lat="48.01679" lon="6.76294">
        <ele>541.9</ele>
        <time>2022-05-27T08:57:59Z</time>
      </trkpt>
      <trkpt lat="48.01677" lon="6.76279">
        <ele>542.6</ele>
        <time>2022-05-27T08:58:04Z</time>
      </trkpt>
      <trkpt lat="48.01675" lon="6.76265">
        <ele>543.6</ele>
        <time>2022-05-27T08:58:09Z</time>
      </trkpt>
      <trkpt lat="48.01673" lon="6.76249">
        <ele>544.5</ele>
        <time>2022-05-27T08:58:15Z</time>
      </trkpt>
      <trkpt lat="48.01673" lon="6.76233">
        <ele>546.3</ele>
        <time>2022-05-27T08:58:21Z</time>
      </trkpt>
      <trkpt lat="48.01674" lon="6.7622">
        <ele>548.4</ele>
        <time>2022-05-27T08:58:26Z</time>
      </trkpt>
      <trkpt lat="48.01674" lon="6.76204">
        <ele>548.8</ele>
        <time>2022-05-27T08:58:32Z</time>
      </trkpt>
      <trkpt lat="48.01675" lon="6.76188">
        <ele>550.7</ele>
        <time>2022-05-27T08:58:38Z</time>
      </trkpt>
      <trkpt lat="48.01676" lon="6.76172">
        <ele>550.1</ele>
        <time>2022-05-27T08:58:43Z</time>
      </trkpt>
      <trkpt lat="48.01677" lon="6.76156">
        <ele>549.5</ele>
        <time>2022-05-27T08:58:47Z</time>
      </trkpt>
      <trkpt lat="48.01685" lon="6.76141">
        <ele>548.5</ele>
        <time>2022-05-27T08:58:51Z</time>
      </trkpt>
      <trkpt lat="48.01692" lon="6.76132">
        <ele>550.4</ele>
        <time>2022-05-27T08:58:54Z</time>
      </trkpt>
      <trkpt lat="48.01697" lon="6.7612">
        <ele>550.1</ele>
        <time>2022-05-27T08:58:57Z</time>
      </trkpt>
      <trkpt lat="48.01703" lon="6.76109">
        <ele>550</ele>
        <time>2022-05-27T08:59:01Z</time>
      </trkpt>
      <trkpt lat="48.01709" lon="6.76095">
        <ele>549</ele>
        <time>2022-05-27T08:59:06Z</time>
      </trkpt>
      <trkpt lat="48.0171" lon="6.7609">
        <ele>548.9</ele>
        <time>2022-05-27T08:59:11Z</time>
      </trkpt>
      <trkpt lat="48.01715" lon="6.76076">
        <ele>548.4</ele>
        <time>2022-05-27T08:59:24Z</time>
      </trkpt>
      <trkpt lat="48.01718" lon="6.76061">
        <ele>546.1</ele>
        <time>2022-05-27T08:59:27Z</time>
      </trkpt>
      <trkpt lat="48.0172" lon="6.76048">
        <ele>545</ele>
        <time>2022-05-27T08:59:30Z</time>
      </trkpt>
      <trkpt lat="48.01725" lon="6.76031">
        <ele>544.8</ele>
        <time>2022-05-27T08:59:33Z</time>
      </trkpt>
      <trkpt lat="48.01728" lon="6.76015">
        <ele>542.8</ele>
        <time>2022-05-27T08:59:35Z</time>
      </trkpt>
      <trkpt lat="48.01731" lon="6.75993">
        <ele>541.8</ele>
        <time>2022-05-27T08:59:37Z</time>
      </trkpt>
      <trkpt lat="48.01733" lon="6.75972">
        <ele>538.8</ele>
        <time>2022-05-27T08:59:39Z</time>
      </trkpt>
      <trkpt lat="48.01734" lon="6.75952">
        <ele>538.1</ele>
        <time>2022-05-27T08:59:41Z</time>
      </trkpt>
      <trkpt lat="48.01736" lon="6.75938">
        <ele>537</ele>
        <time>2022-05-27T08:59:43Z</time>
      </trkpt>
      <trkpt lat="48.01741" lon="6.75922">
        <ele>534.8</ele>
        <time>2022-05-27T08:59:46Z</time>
      </trkpt>
      <trkpt lat="48.01743" lon="6.75907">
        <ele>530.7</ele>
        <time>2022-05-27T08:59:49Z</time>
      </trkpt>
      <trkpt lat="48.01739" lon="6.75893">
        <ele>529</ele>
        <time>2022-05-27T08:59:51Z</time>
      </trkpt>
      <trkpt lat="48.01735" lon="6.75878">
        <ele>529.8</ele>
        <time>2022-05-27T08:59:53Z</time>
      </trkpt>
      <trkpt lat="48.01729" lon="6.75862">
        <ele>526.5</ele>
        <time>2022-05-27T08:59:55Z</time>
      </trkpt>
      <trkpt lat="48.01726" lon="6.75847">
        <ele>525.9</ele>
        <time>2022-05-27T08:59:57Z</time>
      </trkpt>
      <trkpt lat="48.01728" lon="6.75834">
        <ele>524.7</ele>
        <time>2022-05-27T08:59:59Z</time>
      </trkpt>
      <trkpt lat="48.01728" lon="6.75816">
        <ele>522.7</ele>
        <time>2022-05-27T09:00:02Z</time>
      </trkpt>
      <trkpt lat="48.01728" lon="6.75799">
        <ele>520.9</ele>
        <time>2022-05-27T09:00:04Z</time>
      </trkpt>
      <trkpt lat="48.01729" lon="6.75776">
        <ele>518.4</ele>
        <time>2022-05-27T09:00:06Z</time>
      </trkpt>
      <trkpt lat="48.0173" lon="6.75753">
        <ele>517.3</ele>
        <time>2022-05-27T09:00:08Z</time>
      </trkpt>
      <trkpt lat="48.01731" lon="6.75731">
        <ele>516.1</ele>
        <time>2022-05-27T09:00:10Z</time>
      </trkpt>
      <trkpt lat="48.01731" lon="6.75711">
        <ele>515.5</ele>
        <time>2022-05-27T09:00:12Z</time>
      </trkpt>
      <trkpt lat="48.01727" lon="6.75689">
        <ele>514.3</ele>
        <time>2022-05-27T09:00:14Z</time>
      </trkpt>
      <trkpt lat="48.0172" lon="6.75672">
        <ele>510</ele>
        <time>2022-05-27T09:00:16Z</time>
      </trkpt>
      <trkpt lat="48.01713" lon="6.75655">
        <ele>508.3</ele>
        <time>2022-05-27T09:00:18Z</time>
      </trkpt>
      <trkpt lat="48.01704" lon="6.75641">
        <ele>508</ele>
        <time>2022-05-27T09:00:20Z</time>
      </trkpt>
      <trkpt lat="48.01696" lon="6.75629">
        <ele>509.7</ele>
        <time>2022-05-27T09:00:22Z</time>
      </trkpt>
      <trkpt lat="48.01689" lon="6.75615">
        <ele>511.6</ele>
        <time>2022-05-27T09:00:25Z</time>
      </trkpt>
      <trkpt lat="48.01683" lon="6.75603">
        <ele>512</ele>
        <time>2022-05-27T09:00:28Z</time>
      </trkpt>
      <trkpt lat="48.01678" lon="6.75589">
        <ele>512.7</ele>
        <time>2022-05-27T09:00:31Z</time>
      </trkpt>
      <trkpt lat="48.01673" lon="6.75574">
        <ele>513.2</ele>
        <time>2022-05-27T09:00:34Z</time>
      </trkpt>
      <trkpt lat="48.01667" lon="6.75559">
        <ele>513.5</ele>
        <time>2022-05-27T09:00:37Z</time>
      </trkpt>
      <trkpt lat="48.01663" lon="6.75542">
        <ele>513.7</ele>
        <time>2022-05-27T09:00:40Z</time>
      </trkpt>
      <trkpt lat="48.0166" lon="6.75526">
        <ele>514.1</ele>
        <time>2022-05-27T09:00:43Z</time>
      </trkpt>
      <trkpt lat="48.01657" lon="6.75511">
        <ele>514.7</ele>
        <time>2022-05-27T09:00:46Z</time>
      </trkpt>
      <trkpt lat="48.01654" lon="6.75495">
        <ele>515.1</ele>
        <time>2022-05-27T09:00:50Z</time>
      </trkpt>
      <trkpt lat="48.01651" lon="6.7548">
        <ele>515.1</ele>
        <time>2022-05-27T09:00:54Z</time>
      </trkpt>
      <trkpt lat="48.01649" lon="6.75465">
        <ele>515.4</ele>
        <time>2022-05-27T09:00:58Z</time>
      </trkpt>
      <trkpt lat="48.01646" lon="6.75451">
        <ele>515.9</ele>
        <time>2022-05-27T09:01:02Z</time>
      </trkpt>
      <trkpt lat="48.01644" lon="6.75438">
        <ele>516.7</ele>
        <time>2022-05-27T09:01:07Z</time>
      </trkpt>
      <trkpt lat="48.01642" lon="6.75423">
        <ele>517</ele>
        <time>2022-05-27T09:01:11Z</time>
      </trkpt>
      <trkpt lat="48.01638" lon="6.75409">
        <ele>518.2</ele>
        <time>2022-05-27T09:01:16Z</time>
      </trkpt>
      <trkpt lat="48.01633" lon="6.75398">
        <ele>519.3</ele>
        <time>2022-05-27T09:01:21Z</time>
      </trkpt>
      <trkpt lat="48.01625" lon="6.7539">
        <ele>519.8</ele>
        <time>2022-05-27T09:01:26Z</time>
      </trkpt>
      <trkpt lat="48.01616" lon="6.75386">
        <ele>520.1</ele>
        <time>2022-05-27T09:01:31Z</time>
      </trkpt>
      <trkpt lat="48.01605" lon="6.75383">
        <ele>519.4</ele>
        <time>2022-05-27T09:01:36Z</time>
      </trkpt>
      <trkpt lat="48.01596" lon="6.7538">
        <ele>519.9</ele>
        <time>2022-05-27T09:01:40Z</time>
      </trkpt>
      <trkpt lat="48.01585" lon="6.75376">
        <ele>519.6</ele>
        <time>2022-05-27T09:01:44Z</time>
      </trkpt>
      <trkpt lat="48.01575" lon="6.75371">
        <ele>519.2</ele>
        <time>2022-05-27T09:01:48Z</time>
      </trkpt>
      <trkpt lat="48.01571" lon="6.75358">
        <ele>518.9</ele>
        <time>2022-05-27T09:01:58Z</time>
      </trkpt>
      <trkpt lat="48.01567" lon="6.7534">
        <ele>515.8</ele>
        <time>2022-05-27T09:02:02Z</time>
      </trkpt>
      <trkpt lat="48.01556" lon="6.75327">
        <ele>515.9</ele>
        <time>2022-05-27T09:02:05Z</time>
      </trkpt>
      <trkpt lat="48.01549" lon="6.75317">
        <ele>514.2</ele>
        <time>2022-05-27T09:02:07Z</time>
      </trkpt>
      <trkpt lat="48.0154" lon="6.75308">
        <ele>513.6</ele>
        <time>2022-05-27T09:02:09Z</time>
      </trkpt>
      <trkpt lat="48.01532" lon="6.753">
        <ele>512.6</ele>
        <time>2022-05-27T09:02:11Z</time>
      </trkpt>
      <trkpt lat="48.01522" lon="6.75291">
        <ele>510.9</ele>
        <time>2022-05-27T09:02:13Z</time>
      </trkpt>
      <trkpt lat="48.01509" lon="6.75281">
        <ele>507.3</ele>
        <time>2022-05-27T09:02:15Z</time>
      </trkpt>
      <trkpt lat="48.01496" lon="6.75271">
        <ele>507.3</ele>
        <time>2022-05-27T09:02:17Z</time>
      </trkpt>
      <trkpt lat="48.01483" lon="6.75261">
        <ele>505.2</ele>
        <time>2022-05-27T09:02:19Z</time>
      </trkpt>
      <trkpt lat="48.01471" lon="6.75254">
        <ele>502.4</ele>
        <time>2022-05-27T09:02:21Z</time>
      </trkpt>
      <trkpt lat="48.01457" lon="6.75247">
        <ele>502.6</ele>
        <time>2022-05-27T09:02:23Z</time>
      </trkpt>
      <trkpt lat="48.01447" lon="6.75243">
        <ele>502.8</ele>
        <time>2022-05-27T09:02:25Z</time>
      </trkpt>
      <trkpt lat="48.01435" lon="6.75237">
        <ele>501.1</ele>
        <time>2022-05-27T09:02:28Z</time>
      </trkpt>
      <trkpt lat="48.01433" lon="6.75223">
        <ele>499.9</ele>
        <time>2022-05-27T09:02:31Z</time>
      </trkpt>
      <trkpt lat="48.01442" lon="6.75209">
        <ele>498.3</ele>
        <time>2022-05-27T09:02:34Z</time>
      </trkpt>
      <trkpt lat="48.01448" lon="6.75199">
        <ele>497.7</ele>
        <time>2022-05-27T09:02:37Z</time>
      </trkpt>
      <trkpt lat="48.01449" lon="6.75185">
        <ele>496.4</ele>
        <time>2022-05-27T09:02:40Z</time>
      </trkpt>
      <trkpt lat="48.01454" lon="6.7517">
        <ele>495</ele>
        <time>2022-05-27T09:02:44Z</time>
      </trkpt>
      <trkpt lat="48.01461" lon="6.75162">
        <ele>493.2</ele>
        <time>2022-05-27T09:02:47Z</time>
      </trkpt>
      <trkpt lat="48.0147" lon="6.7515">
        <ele>495</ele>
        <time>2022-05-27T09:02:51Z</time>
      </trkpt>
      <trkpt lat="48.01481" lon="6.75146">
        <ele>493.8</ele>
        <time>2022-05-27T09:02:54Z</time>
      </trkpt>
      <trkpt lat="48.01494" lon="6.75149">
        <ele>490.2</ele>
        <time>2022-05-27T09:02:57Z</time>
      </trkpt>
      <trkpt lat="48.01507" lon="6.75154">
        <ele>490.5</ele>
        <time>2022-05-27T09:03:00Z</time>
      </trkpt>
      <trkpt lat="48.01517" lon="6.75156">
        <ele>489</ele>
        <time>2022-05-27T09:03:02Z</time>
      </trkpt>
      <trkpt lat="48.01529" lon="6.75151">
        <ele>487.2</ele>
        <time>2022-05-27T09:03:04Z</time>
      </trkpt>
      <trkpt lat="48.01542" lon="6.75141">
        <ele>484.8</ele>
        <time>2022-05-27T09:03:06Z</time>
      </trkpt>
      <trkpt lat="48.01553" lon="6.75131">
        <ele>482.9</ele>
        <time>2022-05-27T09:03:08Z</time>
      </trkpt>
      <trkpt lat="48.01564" lon="6.7512">
        <ele>482.1</ele>
        <time>2022-05-27T09:03:10Z</time>
      </trkpt>
      <trkpt lat="48.01575" lon="6.7511">
        <ele>481.6</ele>
        <time>2022-05-27T09:03:12Z</time>
      </trkpt>
      <trkpt lat="48.01588" lon="6.75101">
        <ele>481.1</ele>
        <time>2022-05-27T09:03:14Z</time>
      </trkpt>
      <trkpt lat="48.016" lon="6.75094">
        <ele>482.7</ele>
        <time>2022-05-27T09:03:17Z</time>
      </trkpt>
      <trkpt lat="48.01611" lon="6.75092">
        <ele>481.2</ele>
        <time>2022-05-27T09:03:19Z</time>
      </trkpt>
      <trkpt lat="48.01623" lon="6.75093">
        <ele>481.2</ele>
        <time>2022-05-27T09:03:21Z</time>
      </trkpt>
      <trkpt lat="48.01633" lon="6.751">
        <ele>481.2</ele>
        <time>2022-05-27T09:03:23Z</time>
      </trkpt>
      <trkpt lat="48.01643" lon="6.75108">
        <ele>481</ele>
        <time>2022-05-27T09:03:25Z</time>
      </trkpt>
      <trkpt lat="48.01651" lon="6.75116">
        <ele>479.8</ele>
        <time>2022-05-27T09:03:27Z</time>
      </trkpt>
      <trkpt lat="48.0166" lon="6.75123">
        <ele>480.5</ele>
        <time>2022-05-27T09:03:29Z</time>
      </trkpt>
      <trkpt lat="48.01668" lon="6.7513">
        <ele>479.4</ele>
        <time>2022-05-27T09:03:31Z</time>
      </trkpt>
      <trkpt lat="48.01676" lon="6.75136">
        <ele>477.6</ele>
        <time>2022-05-27T09:03:33Z</time>
      </trkpt>
      <trkpt lat="48.01685" lon="6.75143">
        <ele>476.8</ele>
        <time>2022-05-27T09:03:35Z</time>
      </trkpt>
      <trkpt lat="48.01696" lon="6.75149">
        <ele>475.2</ele>
        <time>2022-05-27T09:03:37Z</time>
      </trkpt>
      <trkpt lat="48.01709" lon="6.75153">
        <ele>474.3</ele>
        <time>2022-05-27T09:03:39Z</time>
      </trkpt>
      <trkpt lat="48.01722" lon="6.75152">
        <ele>472.5</ele>
        <time>2022-05-27T09:03:41Z</time>
      </trkpt>
      <trkpt lat="48.01736" lon="6.75148">
        <ele>473.9</ele>
        <time>2022-05-27T09:03:43Z</time>
      </trkpt>
      <trkpt lat="48.01749" lon="6.75141">
        <ele>472.6</ele>
        <time>2022-05-27T09:03:45Z</time>
      </trkpt>
      <trkpt lat="48.01763" lon="6.75133">
        <ele>470.8</ele>
        <time>2022-05-27T09:03:47Z</time>
      </trkpt>
      <trkpt lat="48.01778" lon="6.75127">
        <ele>470.2</ele>
        <time>2022-05-27T09:03:49Z</time>
      </trkpt>
      <trkpt lat="48.01792" lon="6.75122">
        <ele>470.1</ele>
        <time>2022-05-27T09:03:51Z</time>
      </trkpt>
      <trkpt lat="48.01802" lon="6.75115">
        <ele>468.4</ele>
        <time>2022-05-27T09:03:53Z</time>
      </trkpt>
      <trkpt lat="48.01809" lon="6.751">
        <ele>466.2</ele>
        <time>2022-05-27T09:03:55Z</time>
      </trkpt>
      <trkpt lat="48.01807" lon="6.7508">
        <ele>465.3</ele>
        <time>2022-05-27T09:03:57Z</time>
      </trkpt>
      <trkpt lat="48.018" lon="6.75058">
        <ele>463.5</ele>
        <time>2022-05-27T09:03:59Z</time>
      </trkpt>
      <trkpt lat="48.01793" lon="6.75037">
        <ele>461.4</ele>
        <time>2022-05-27T09:04:01Z</time>
      </trkpt>
      <trkpt lat="48.01786" lon="6.75017">
        <ele>461.4</ele>
        <time>2022-05-27T09:04:03Z</time>
      </trkpt>
      <trkpt lat="48.01783" lon="6.75001">
        <ele>460.9</ele>
        <time>2022-05-27T09:04:05Z</time>
      </trkpt>
      <trkpt lat="48.01786" lon="6.74986">
        <ele>460</ele>
        <time>2022-05-27T09:04:07Z</time>
      </trkpt>
      <trkpt lat="48.01794" lon="6.74974">
        <ele>459.2</ele>
        <time>2022-05-27T09:04:09Z</time>
      </trkpt>
      <trkpt lat="48.01801" lon="6.74964">
        <ele>458.9</ele>
        <time>2022-05-27T09:04:11Z</time>
      </trkpt>
      <trkpt lat="48.0181" lon="6.7495">
        <ele>458</ele>
        <time>2022-05-27T09:04:14Z</time>
      </trkpt>
      <trkpt lat="48.01817" lon="6.74939">
        <ele>458</ele>
        <time>2022-05-27T09:04:17Z</time>
      </trkpt>
      <trkpt lat="48.01825" lon="6.7493">
        <ele>458.2</ele>
        <time>2022-05-27T09:04:20Z</time>
      </trkpt>
      <trkpt lat="48.01834" lon="6.74921">
        <ele>457.7</ele>
        <time>2022-05-27T09:04:23Z</time>
      </trkpt>
      <trkpt lat="48.01842" lon="6.7491">
        <ele>458.4</ele>
        <time>2022-05-27T09:04:26Z</time>
      </trkpt>
      <trkpt lat="48.0185" lon="6.749">
        <ele>458.3</ele>
        <time>2022-05-27T09:04:29Z</time>
      </trkpt>
      <trkpt lat="48.01858" lon="6.74889">
        <ele>458.6</ele>
        <time>2022-05-27T09:04:32Z</time>
      </trkpt>
      <trkpt lat="48.01866" lon="6.74879">
        <ele>458.9</ele>
        <time>2022-05-27T09:04:35Z</time>
      </trkpt>
      <trkpt lat="48.01874" lon="6.74869">
        <ele>458.3</ele>
        <time>2022-05-27T09:04:38Z</time>
      </trkpt>
      <trkpt lat="48.01881" lon="6.7486">
        <ele>458.7</ele>
        <time>2022-05-27T09:04:41Z</time>
      </trkpt>
      <trkpt lat="48.01889" lon="6.7485">
        <ele>458.3</ele>
        <time>2022-05-27T09:04:44Z</time>
      </trkpt>
      <trkpt lat="48.01895" lon="6.74841">
        <ele>458.6</ele>
        <time>2022-05-27T09:04:47Z</time>
      </trkpt>
      <trkpt lat="48.01903" lon="6.74831">
        <ele>458.7</ele>
        <time>2022-05-27T09:04:50Z</time>
      </trkpt>
      <trkpt lat="48.0191" lon="6.7482">
        <ele>459</ele>
        <time>2022-05-27T09:04:53Z</time>
      </trkpt>
      <trkpt lat="48.01918" lon="6.7481">
        <ele>459.1</ele>
        <time>2022-05-27T09:04:56Z</time>
      </trkpt>
      <trkpt lat="48.01926" lon="6.748">
        <ele>459.2</ele>
        <time>2022-05-27T09:04:59Z</time>
      </trkpt>
      <trkpt lat="48.01934" lon="6.74791">
        <ele>460</ele>
        <time>2022-05-27T09:05:02Z</time>
      </trkpt>
      <trkpt lat="48.01941" lon="6.74781">
        <ele>460.4</ele>
        <time>2022-05-27T09:05:05Z</time>
      </trkpt>
      <trkpt lat="48.0195" lon="6.7477">
        <ele>461</ele>
        <time>2022-05-27T09:05:09Z</time>
      </trkpt>
      <trkpt lat="48.01958" lon="6.74762">
        <ele>461.6</ele>
        <time>2022-05-27T09:05:13Z</time>
      </trkpt>
      <trkpt lat="48.01964" lon="6.74751">
        <ele>463</ele>
        <time>2022-05-27T09:05:20Z</time>
      </trkpt>
      <trkpt lat="48.01964" lon="6.74747">
        <ele>462.9</ele>
        <time>2022-05-27T09:05:24Z</time>
      </trkpt>
      <trkpt lat="48.01963" lon="6.74747">
        <ele>462.8</ele>
        <time>2022-05-27T09:06:03Z</time>
      </trkpt>
      <trkpt lat="48.01959" lon="6.74749">
        <ele>462.3</ele>
        <time>2022-05-27T09:06:48Z</time>
      </trkpt>
      <trkpt lat="48.01959" lon="6.74749">
        <ele>461.5</ele>
        <time>2022-05-27T09:08:31Z</time>
      </trkpt>
      <trkpt lat="48.01959" lon="6.7475">
        <ele>461.9</ele>
        <time>2022-05-27T09:14:40Z</time>
      </trkpt>
      <trkpt lat="48.0196" lon="6.7475">
        <ele>461.4</ele>
        <time>2022-05-27T09:14:44Z</time>
      </trkpt>
      <trkpt lat="48.01959" lon="6.7475">
        <ele>461.6</ele>
        <time>2022-05-27T09:14:53Z</time>
      </trkpt>
      <trkpt lat="48.01959" lon="6.74751">
        <ele>461.7</ele>
        <time>2022-05-27T09:14:56Z</time>
      </trkpt>
      <trkpt lat="48.01968" lon="6.74746">
        <ele>462.7</ele>
        <time>2022-05-27T09:15:40Z</time>
      </trkpt>
      <trkpt lat="48.01971" lon="6.74732">
        <ele>463.7</ele>
        <time>2022-05-27T09:15:49Z</time>
      </trkpt>
      <trkpt lat="48.01972" lon="6.74719">
        <ele>464.5</ele>
        <time>2022-05-27T09:15:57Z</time>
      </trkpt>
      <trkpt lat="48.01968" lon="6.74705">
        <ele>465.1</ele>
        <time>2022-05-27T09:16:04Z</time>
      </trkpt>
      <trkpt lat="48.01964" lon="6.74691">
        <ele>466.1</ele>
        <time>2022-05-27T09:16:11Z</time>
      </trkpt>
      <trkpt lat="48.01962" lon="6.74677">
        <ele>467.4</ele>
        <time>2022-05-27T09:16:18Z</time>
      </trkpt>
      <trkpt lat="48.0196" lon="6.74662">
        <ele>468.2</ele>
        <time>2022-05-27T09:16:25Z</time>
      </trkpt>
      <trkpt lat="48.01958" lon="6.74647">
        <ele>469.1</ele>
        <time>2022-05-27T09:16:32Z</time>
      </trkpt>
      <trkpt lat="48.01957" lon="6.74632">
        <ele>470.3</ele>
        <time>2022-05-27T09:16:39Z</time>
      </trkpt>
      <trkpt lat="48.01955" lon="6.74619">
        <ele>471.5</ele>
        <time>2022-05-27T09:16:45Z</time>
      </trkpt>
      <trkpt lat="48.01953" lon="6.74605">
        <ele>472.2</ele>
        <time>2022-05-27T09:16:51Z</time>
      </trkpt>
      <trkpt lat="48.01951" lon="6.74591">
        <ele>473.2</ele>
        <time>2022-05-27T09:16:57Z</time>
      </trkpt>
      <trkpt lat="48.01949" lon="6.74576">
        <ele>473.9</ele>
        <time>2022-05-27T09:17:03Z</time>
      </trkpt>
      <trkpt lat="48.01947" lon="6.74562">
        <ele>474.5</ele>
        <time>2022-05-27T09:17:09Z</time>
      </trkpt>
      <trkpt lat="48.01945" lon="6.74548">
        <ele>475.5</ele>
        <time>2022-05-27T09:17:14Z</time>
      </trkpt>
      <trkpt lat="48.0194" lon="6.74563">
        <ele>472.2</ele>
        <time>2022-05-27T09:17:22Z</time>
      </trkpt>
      <trkpt lat="48.01939" lon="6.7458">
        <ele>471.3</ele>
        <time>2022-05-27T09:17:25Z</time>
      </trkpt>
      <trkpt lat="48.01934" lon="6.74593">
        <ele>469.2</ele>
        <time>2022-05-27T09:17:29Z</time>
      </trkpt>
      <trkpt lat="48.01925" lon="6.74583">
        <ele>468.3</ele>
        <time>2022-05-27T09:17:32Z</time>
      </trkpt>
      <trkpt lat="48.01918" lon="6.7457">
        <ele>468.3</ele>
        <time>2022-05-27T09:17:34Z</time>
      </trkpt>
      <trkpt lat="48.0191" lon="6.74557">
        <ele>465.9</ele>
        <time>2022-05-27T09:17:36Z</time>
      </trkpt>
      <trkpt lat="48.01902" lon="6.74544">
        <ele>464.1</ele>
        <time>2022-05-27T09:17:38Z</time>
      </trkpt>
      <trkpt lat="48.01894" lon="6.74532">
        <ele>464.3</ele>
        <time>2022-05-27T09:17:40Z</time>
      </trkpt>
      <trkpt lat="48.01886" lon="6.74523">
        <ele>459.2</ele>
        <time>2022-05-27T09:17:42Z</time>
      </trkpt>
      <trkpt lat="48.01879" lon="6.74509">
        <ele>458.5</ele>
        <time>2022-05-27T09:17:44Z</time>
      </trkpt>
      <trkpt lat="48.01872" lon="6.74496">
        <ele>459.7</ele>
        <time>2022-05-27T09:17:46Z</time>
      </trkpt>
      <trkpt lat="48.01864" lon="6.74485">
        <ele>456.5</ele>
        <time>2022-05-27T09:17:48Z</time>
      </trkpt>
      <trkpt lat="48.01856" lon="6.74475">
        <ele>456</ele>
        <time>2022-05-27T09:17:50Z</time>
      </trkpt>
      <trkpt lat="48.0185" lon="6.74464">
        <ele>454.9</ele>
        <time>2022-05-27T09:17:52Z</time>
      </trkpt>
      <trkpt lat="48.01843" lon="6.74452">
        <ele>455.3</ele>
        <time>2022-05-27T09:17:54Z</time>
      </trkpt>
      <trkpt lat="48.01838" lon="6.7444">
        <ele>454.8</ele>
        <time>2022-05-27T09:17:56Z</time>
      </trkpt>
      <trkpt lat="48.01837" lon="6.74426">
        <ele>453.8</ele>
        <time>2022-05-27T09:17:58Z</time>
      </trkpt>
      <trkpt lat="48.01837" lon="6.7441">
        <ele>454.8</ele>
        <time>2022-05-27T09:18:01Z</time>
      </trkpt>
      <trkpt lat="48.01837" lon="6.74394">
        <ele>455.4</ele>
        <time>2022-05-27T09:18:05Z</time>
      </trkpt>
      <trkpt lat="48.01837" lon="6.74378">
        <ele>456.2</ele>
        <time>2022-05-27T09:18:09Z</time>
      </trkpt>
      <trkpt lat="48.01837" lon="6.74362">
        <ele>457.6</ele>
        <time>2022-05-27T09:18:14Z</time>
      </trkpt>
      <trkpt lat="48.01836" lon="6.74348">
        <ele>458.7</ele>
        <time>2022-05-27T09:18:19Z</time>
      </trkpt>
      <trkpt lat="48.01836" lon="6.74333">
        <ele>460.1</ele>
        <time>2022-05-27T09:18:25Z</time>
      </trkpt>
      <trkpt lat="48.01833" lon="6.74317">
        <ele>461.2</ele>
        <time>2022-05-27T09:18:31Z</time>
      </trkpt>
      <trkpt lat="48.01831" lon="6.74301">
        <ele>461.2</ele>
        <time>2022-05-27T09:18:37Z</time>
      </trkpt>
      <trkpt lat="48.01829" lon="6.74286">
        <ele>462.8</ele>
        <time>2022-05-27T09:18:42Z</time>
      </trkpt>
      <trkpt lat="48.01825" lon="6.74273">
        <ele>463</ele>
        <time>2022-05-27T09:18:47Z</time>
      </trkpt>
      <trkpt lat="48.01821" lon="6.74257">
        <ele>462.9</ele>
        <time>2022-05-27T09:18:52Z</time>
      </trkpt>
      <trkpt lat="48.01816" lon="6.74243">
        <ele>462.9</ele>
        <time>2022-05-27T09:18:56Z</time>
      </trkpt>
      <trkpt lat="48.01811" lon="6.74227">
        <ele>462</ele>
        <time>2022-05-27T09:19:00Z</time>
      </trkpt>
      <trkpt lat="48.01806" lon="6.74213">
        <ele>462.5</ele>
        <time>2022-05-27T09:19:03Z</time>
      </trkpt>
      <trkpt lat="48.01801" lon="6.74198">
        <ele>462.9</ele>
        <time>2022-05-27T09:19:06Z</time>
      </trkpt>
      <trkpt lat="48.01796" lon="6.74183">
        <ele>462.9</ele>
        <time>2022-05-27T09:19:09Z</time>
      </trkpt>
      <trkpt lat="48.01791" lon="6.74166">
        <ele>461.2</ele>
        <time>2022-05-27T09:19:12Z</time>
      </trkpt>
      <trkpt lat="48.01786" lon="6.74149">
        <ele>460.6</ele>
        <time>2022-05-27T09:19:15Z</time>
      </trkpt>
      <trkpt lat="48.01782" lon="6.74131">
        <ele>462.4</ele>
        <time>2022-05-27T09:19:18Z</time>
      </trkpt>
      <trkpt lat="48.01778" lon="6.74116">
        <ele>461.6</ele>
        <time>2022-05-27T09:19:21Z</time>
      </trkpt>
      <trkpt lat="48.01777" lon="6.741">
        <ele>462.9</ele>
        <time>2022-05-27T09:19:24Z</time>
      </trkpt>
      <trkpt lat="48.01777" lon="6.74086">
        <ele>461.4</ele>
        <time>2022-05-27T09:19:28Z</time>
      </trkpt>
      <trkpt lat="48.01777" lon="6.74085">
        <ele>461.5</ele>
        <time>2022-05-27T09:19:31Z</time>
      </trkpt>
      <trkpt lat="48.01777" lon="6.74085">
        <ele>461.4</ele>
        <time>2022-05-27T09:19:59Z</time>
      </trkpt>
      <trkpt lat="48.01775" lon="6.74068">
        <ele>459.3</ele>
        <time>2022-05-27T09:20:04Z</time>
      </trkpt>
      <trkpt lat="48.01773" lon="6.74055">
        <ele>457.1</ele>
        <time>2022-05-27T09:20:07Z</time>
      </trkpt>
      <trkpt lat="48.01768" lon="6.74038">
        <ele>454.9</ele>
        <time>2022-05-27T09:20:10Z</time>
      </trkpt>
      <trkpt lat="48.01763" lon="6.74021">
        <ele>456.4</ele>
        <time>2022-05-27T09:20:12Z</time>
      </trkpt>
      <trkpt lat="48.01759" lon="6.74002">
        <ele>456.1</ele>
        <time>2022-05-27T09:20:14Z</time>
      </trkpt>
      <trkpt lat="48.01756" lon="6.73984">
        <ele>451</ele>
        <time>2022-05-27T09:20:16Z</time>
      </trkpt>
      <trkpt lat="48.0175" lon="6.73961">
        <ele>451.2</ele>
        <time>2022-05-27T09:20:18Z</time>
      </trkpt>
      <trkpt lat="48.01745" lon="6.73948">
        <ele>450.6</ele>
        <time>2022-05-27T09:20:19Z</time>
      </trkpt>
      <trkpt lat="48.01741" lon="6.73936">
        <ele>449.8</ele>
        <time>2022-05-27T09:20:20Z</time>
      </trkpt>
      <trkpt lat="48.01735" lon="6.73913">
        <ele>451.4</ele>
        <time>2022-05-27T09:20:22Z</time>
      </trkpt>
      <trkpt lat="48.01733" lon="6.73892">
        <ele>452</ele>
        <time>2022-05-27T09:20:24Z</time>
      </trkpt>
      <trkpt lat="48.01729" lon="6.73871">
        <ele>450.8</ele>
        <time>2022-05-27T09:20:26Z</time>
      </trkpt>
      <trkpt lat="48.01727" lon="6.73852">
        <ele>448.9</ele>
        <time>2022-05-27T09:20:28Z</time>
      </trkpt>
      <trkpt lat="48.01726" lon="6.73833">
        <ele>450.5</ele>
        <time>2022-05-27T09:20:30Z</time>
      </trkpt>
      <trkpt lat="48.01726" lon="6.73814">
        <ele>450</ele>
        <time>2022-05-27T09:20:32Z</time>
      </trkpt>
      <trkpt lat="48.01726" lon="6.73796">
        <ele>450.9</ele>
        <time>2022-05-27T09:20:34Z</time>
      </trkpt>
      <trkpt lat="48.01725" lon="6.73779">
        <ele>449.8</ele>
        <time>2022-05-27T09:20:36Z</time>
      </trkpt>
      <trkpt lat="48.01721" lon="6.7376">
        <ele>447</ele>
        <time>2022-05-27T09:20:38Z</time>
      </trkpt>
      <trkpt lat="48.01718" lon="6.7374">
        <ele>446.5</ele>
        <time>2022-05-27T09:20:40Z</time>
      </trkpt>
      <trkpt lat="48.01716" lon="6.7372">
        <ele>446.1</ele>
        <time>2022-05-27T09:20:42Z</time>
      </trkpt>
      <trkpt lat="48.01715" lon="6.73698">
        <ele>444.6</ele>
        <time>2022-05-27T09:20:44Z</time>
      </trkpt>
      <trkpt lat="48.01712" lon="6.73676">
        <ele>445</ele>
        <time>2022-05-27T09:20:46Z</time>
      </trkpt>
      <trkpt lat="48.01709" lon="6.73653">
        <ele>445.9</ele>
        <time>2022-05-27T09:20:48Z</time>
      </trkpt>
      <trkpt lat="48.01708" lon="6.73632">
        <ele>445</ele>
        <time>2022-05-27T09:20:50Z</time>
      </trkpt>
      <trkpt lat="48.01707" lon="6.73612">
        <ele>447</ele>
        <time>2022-05-27T09:20:52Z</time>
      </trkpt>
      <trkpt lat="48.01706" lon="6.73592">
        <ele>446</ele>
        <time>2022-05-27T09:20:54Z</time>
      </trkpt>
      <trkpt lat="48.01703" lon="6.73572">
        <ele>444.3</ele>
        <time>2022-05-27T09:20:56Z</time>
      </trkpt>
      <trkpt lat="48.01702" lon="6.73553">
        <ele>444.2</ele>
        <time>2022-05-27T09:20:58Z</time>
      </trkpt>
      <trkpt lat="48.01701" lon="6.73536">
        <ele>443.6</ele>
        <time>2022-05-27T09:21:00Z</time>
      </trkpt>
      <trkpt lat="48.01699" lon="6.7352">
        <ele>443.7</ele>
        <time>2022-05-27T09:21:02Z</time>
      </trkpt>
      <trkpt lat="48.01697" lon="6.73504">
        <ele>443.3</ele>
        <time>2022-05-27T09:21:04Z</time>
      </trkpt>
      <trkpt lat="48.01695" lon="6.73488">
        <ele>443.8</ele>
        <time>2022-05-27T09:21:06Z</time>
      </trkpt>
      <trkpt lat="48.01692" lon="6.73472">
        <ele>443.4</ele>
        <time>2022-05-27T09:21:08Z</time>
      </trkpt>
      <trkpt lat="48.01691" lon="6.73455">
        <ele>442.1</ele>
        <time>2022-05-27T09:21:10Z</time>
      </trkpt>
      <trkpt lat="48.01691" lon="6.73437">
        <ele>441.9</ele>
        <time>2022-05-27T09:21:12Z</time>
      </trkpt>
      <trkpt lat="48.0169" lon="6.7342">
        <ele>442</ele>
        <time>2022-05-27T09:21:14Z</time>
      </trkpt>
      <trkpt lat="48.01688" lon="6.73405">
        <ele>443.2</ele>
        <time>2022-05-27T09:21:16Z</time>
      </trkpt>
      <trkpt lat="48.01685" lon="6.7339">
        <ele>443.3</ele>
        <time>2022-05-27T09:21:18Z</time>
      </trkpt>
      <trkpt lat="48.01683" lon="6.73375">
        <ele>443</ele>
        <time>2022-05-27T09:21:20Z</time>
      </trkpt>
      <trkpt lat="48.01681" lon="6.7336">
        <ele>442.9</ele>
        <time>2022-05-27T09:21:22Z</time>
      </trkpt>
      <trkpt lat="48.01681" lon="6.73346">
        <ele>443.1</ele>
        <time>2022-05-27T09:21:24Z</time>
      </trkpt>
      <trkpt lat="48.0168" lon="6.73331">
        <ele>443.3</ele>
        <time>2022-05-27T09:21:26Z</time>
      </trkpt>
      <trkpt lat="48.01678" lon="6.73315">
        <ele>442</ele>
        <time>2022-05-27T09:21:28Z</time>
      </trkpt>
      <trkpt lat="48.01678" lon="6.733">
        <ele>441.3</ele>
        <time>2022-05-27T09:21:30Z</time>
      </trkpt>
      <trkpt lat="48.01677" lon="6.73284">
        <ele>443</ele>
        <time>2022-05-27T09:21:32Z</time>
      </trkpt>
      <trkpt lat="48.01677" lon="6.73268">
        <ele>442.8</ele>
        <time>2022-05-27T09:21:34Z</time>
      </trkpt>
      <trkpt lat="48.01676" lon="6.73253">
        <ele>442.3</ele>
        <time>2022-05-27T09:21:36Z</time>
      </trkpt>
      <trkpt lat="48.01676" lon="6.73239">
        <ele>442</ele>
        <time>2022-05-27T09:21:38Z</time>
      </trkpt>
      <trkpt lat="48.01675" lon="6.73224">
        <ele>441.7</ele>
        <time>2022-05-27T09:21:40Z</time>
      </trkpt>
      <trkpt lat="48.01674" lon="6.7321">
        <ele>442.6</ele>
        <time>2022-05-27T09:21:42Z</time>
      </trkpt>
      <trkpt lat="48.01673" lon="6.73196">
        <ele>442.3</ele>
        <time>2022-05-27T09:21:44Z</time>
      </trkpt>
      <trkpt lat="48.01672" lon="6.73181">
        <ele>442</ele>
        <time>2022-05-27T09:21:46Z</time>
      </trkpt>
      <trkpt lat="48.01671" lon="6.73166">
        <ele>441.9</ele>
        <time>2022-05-27T09:21:48Z</time>
      </trkpt>
      <trkpt lat="48.01671" lon="6.7315">
        <ele>442.2</ele>
        <time>2022-05-27T09:21:50Z</time>
      </trkpt>
      <trkpt lat="48.01672" lon="6.73134">
        <ele>441.5</ele>
        <time>2022-05-27T09:21:52Z</time>
      </trkpt>
      <trkpt lat="48.01673" lon="6.73118">
        <ele>441.4</ele>
        <time>2022-05-27T09:21:54Z</time>
      </trkpt>
      <trkpt lat="48.01673" lon="6.73101">
        <ele>440.6</ele>
        <time>2022-05-27T09:21:56Z</time>
      </trkpt>
      <trkpt lat="48.01673" lon="6.73084">
        <ele>441.1</ele>
        <time>2022-05-27T09:21:58Z</time>
      </trkpt>
      <trkpt lat="48.01673" lon="6.73068">
        <ele>441</ele>
        <time>2022-05-27T09:22:00Z</time>
      </trkpt>
      <trkpt lat="48.01673" lon="6.73051">
        <ele>439.8</ele>
        <time>2022-05-27T09:22:02Z</time>
      </trkpt>
      <trkpt lat="48.01674" lon="6.73033">
        <ele>439.1</ele>
        <time>2022-05-27T09:22:04Z</time>
      </trkpt>
      <trkpt lat="48.01678" lon="6.73016">
        <ele>438</ele>
        <time>2022-05-27T09:22:06Z</time>
      </trkpt>
      <trkpt lat="48.01683" lon="6.73001">
        <ele>438.9</ele>
        <time>2022-05-27T09:22:08Z</time>
      </trkpt>
      <trkpt lat="48.01687" lon="6.72988">
        <ele>438.6</ele>
        <time>2022-05-27T09:22:10Z</time>
      </trkpt>
      <trkpt lat="48.01691" lon="6.72973">
        <ele>441.9</ele>
        <time>2022-05-27T09:22:13Z</time>
      </trkpt>
      <trkpt lat="48.01692" lon="6.72958">
        <ele>442.2</ele>
        <time>2022-05-27T09:22:17Z</time>
      </trkpt>
      <trkpt lat="48.01695" lon="6.72942">
        <ele>443.5</ele>
        <time>2022-05-27T09:22:22Z</time>
      </trkpt>
      <trkpt lat="48.01699" lon="6.72929">
        <ele>444</ele>
        <time>2022-05-27T09:22:26Z</time>
      </trkpt>
      <trkpt lat="48.01703" lon="6.72916">
        <ele>445.3</ele>
        <time>2022-05-27T09:22:30Z</time>
      </trkpt>
      <trkpt lat="48.01707" lon="6.72902">
        <ele>445</ele>
        <time>2022-05-27T09:22:34Z</time>
      </trkpt>
      <trkpt lat="48.01711" lon="6.72889">
        <ele>446.2</ele>
        <time>2022-05-27T09:22:37Z</time>
      </trkpt>
      <trkpt lat="48.01715" lon="6.72874">
        <ele>446.3</ele>
        <time>2022-05-27T09:22:40Z</time>
      </trkpt>
      <trkpt lat="48.01719" lon="6.72858">
        <ele>445.7</ele>
        <time>2022-05-27T09:22:43Z</time>
      </trkpt>
      <trkpt lat="48.01723" lon="6.72843">
        <ele>445.8</ele>
        <time>2022-05-27T09:22:46Z</time>
      </trkpt>
      <trkpt lat="48.01728" lon="6.72828">
        <ele>446.2</ele>
        <time>2022-05-27T09:22:49Z</time>
      </trkpt>
      <trkpt lat="48.01733" lon="6.72812">
        <ele>444</ele>
        <time>2022-05-27T09:22:52Z</time>
      </trkpt>
      <trkpt lat="48.01736" lon="6.72793">
        <ele>443.3</ele>
        <time>2022-05-27T09:22:55Z</time>
      </trkpt>
      <trkpt lat="48.01738" lon="6.72775">
        <ele>442.8</ele>
        <time>2022-05-27T09:22:58Z</time>
      </trkpt>
      <trkpt lat="48.01745" lon="6.7276">
        <ele>443.3</ele>
        <time>2022-05-27T09:23:01Z</time>
      </trkpt>
      <trkpt lat="48.01755" lon="6.72747">
        <ele>444.8</ele>
        <time>2022-05-27T09:23:04Z</time>
      </trkpt>
      <trkpt lat="48.01763" lon="6.72734">
        <ele>442.7</ele>
        <time>2022-05-27T09:23:07Z</time>
      </trkpt>
      <trkpt lat="48.01771" lon="6.7272">
        <ele>443.9</ele>
        <time>2022-05-27T09:23:10Z</time>
      </trkpt>
      <trkpt lat="48.01779" lon="6.72706">
        <ele>443.9</ele>
        <time>2022-05-27T09:23:13Z</time>
      </trkpt>
      <trkpt lat="48.01786" lon="6.72691">
        <ele>443.9</ele>
        <time>2022-05-27T09:23:16Z</time>
      </trkpt>
      <trkpt lat="48.01794" lon="6.72677">
        <ele>446.3</ele>
        <time>2022-05-27T09:23:19Z</time>
      </trkpt>
      <trkpt lat="48.01802" lon="6.72666">
        <ele>447</ele>
        <time>2022-05-27T09:23:22Z</time>
      </trkpt>
      <trkpt lat="48.0181" lon="6.72657">
        <ele>447.1</ele>
        <time>2022-05-27T09:23:25Z</time>
      </trkpt>
      <trkpt lat="48.01818" lon="6.7265">
        <ele>448.4</ele>
        <time>2022-05-27T09:23:28Z</time>
      </trkpt>
      <trkpt lat="48.01826" lon="6.7264">
        <ele>448.3</ele>
        <time>2022-05-27T09:23:31Z</time>
      </trkpt>
      <trkpt lat="48.01833" lon="6.7263">
        <ele>448.7</ele>
        <time>2022-05-27T09:23:34Z</time>
      </trkpt>
      <trkpt lat="48.01839" lon="6.72618">
        <ele>448.7</ele>
        <time>2022-05-27T09:23:37Z</time>
      </trkpt>
      <trkpt lat="48.01845" lon="6.72605">
        <ele>446.8</ele>
        <time>2022-05-27T09:23:40Z</time>
      </trkpt>
      <trkpt lat="48.01849" lon="6.72589">
        <ele>444</ele>
        <time>2022-05-27T09:23:43Z</time>
      </trkpt>
      <trkpt lat="48.01851" lon="6.72567">
        <ele>442.9</ele>
        <time>2022-05-27T09:23:46Z</time>
      </trkpt>
      <trkpt lat="48.01852" lon="6.72544">
        <ele>441</ele>
        <time>2022-05-27T09:23:48Z</time>
      </trkpt>
      <trkpt lat="48.01852" lon="6.7253">
        <ele>441.5</ele>
        <time>2022-05-27T09:23:49Z</time>
      </trkpt>
      <trkpt lat="48.01853" lon="6.72505">
        <ele>440.4</ele>
        <time>2022-05-27T09:23:51Z</time>
      </trkpt>
      <trkpt lat="48.01856" lon="6.72485">
        <ele>442.3</ele>
        <time>2022-05-27T09:23:53Z</time>
      </trkpt>
      <trkpt lat="48.01859" lon="6.72468">
        <ele>443.3</ele>
        <time>2022-05-27T09:23:55Z</time>
      </trkpt>
      <trkpt lat="48.0186" lon="6.72452">
        <ele>440.7</ele>
        <time>2022-05-27T09:23:57Z</time>
      </trkpt>
      <trkpt lat="48.01862" lon="6.72435">
        <ele>440</ele>
        <time>2022-05-27T09:24:00Z</time>
      </trkpt>
      <trkpt lat="48.01865" lon="6.72417">
        <ele>441.3</ele>
        <time>2022-05-27T09:24:03Z</time>
      </trkpt>
      <trkpt lat="48.01866" lon="6.72403">
        <ele>442.7</ele>
        <time>2022-05-27T09:24:05Z</time>
      </trkpt>
      <trkpt lat="48.01867" lon="6.72387">
        <ele>439.7</ele>
        <time>2022-05-27T09:24:07Z</time>
      </trkpt>
      <trkpt lat="48.0187" lon="6.7237">
        <ele>441.7</ele>
        <time>2022-05-27T09:24:09Z</time>
      </trkpt>
      <trkpt lat="48.01872" lon="6.72354">
        <ele>442</ele>
        <time>2022-05-27T09:24:11Z</time>
      </trkpt>
      <trkpt lat="48.01874" lon="6.72339">
        <ele>439.8</ele>
        <time>2022-05-27T09:24:13Z</time>
      </trkpt>
      <trkpt lat="48.01876" lon="6.72325">
        <ele>440</ele>
        <time>2022-05-27T09:24:15Z</time>
      </trkpt>
      <trkpt lat="48.0188" lon="6.72307">
        <ele>438.6</ele>
        <time>2022-05-27T09:24:18Z</time>
      </trkpt>
      <trkpt lat="48.01883" lon="6.72288">
        <ele>439.4</ele>
        <time>2022-05-27T09:24:21Z</time>
      </trkpt>
      <trkpt lat="48.01883" lon="6.7227">
        <ele>439</ele>
        <time>2022-05-27T09:24:24Z</time>
      </trkpt>
      <trkpt lat="48.01885" lon="6.72253">
        <ele>437.3</ele>
        <time>2022-05-27T09:24:27Z</time>
      </trkpt>
      <trkpt lat="48.01886" lon="6.72239">
        <ele>436.1</ele>
        <time>2022-05-27T09:24:29Z</time>
      </trkpt>
      <trkpt lat="48.01886" lon="6.72224">
        <ele>440.6</ele>
        <time>2022-05-27T09:24:31Z</time>
      </trkpt>
      <trkpt lat="48.01888" lon="6.72211">
        <ele>440.8</ele>
        <time>2022-05-27T09:24:33Z</time>
      </trkpt>
      <trkpt lat="48.0189" lon="6.72192">
        <ele>438.6</ele>
        <time>2022-05-27T09:24:36Z</time>
      </trkpt>
      <trkpt lat="48.01892" lon="6.72179">
        <ele>438.6</ele>
        <time>2022-05-27T09:24:38Z</time>
      </trkpt>
      <trkpt lat="48.01893" lon="6.72165">
        <ele>437.8</ele>
        <time>2022-05-27T09:24:40Z</time>
      </trkpt>
      <trkpt lat="48.01894" lon="6.72146">
        <ele>437.5</ele>
        <time>2022-05-27T09:24:43Z</time>
      </trkpt>
      <trkpt lat="48.01895" lon="6.72131">
        <ele>436.8</ele>
        <time>2022-05-27T09:24:46Z</time>
      </trkpt>
      <trkpt lat="48.01894" lon="6.72114">
        <ele>437.9</ele>
        <time>2022-05-27T09:24:51Z</time>
      </trkpt>
      <trkpt lat="48.01895" lon="6.72097">
        <ele>438.4</ele>
        <time>2022-05-27T09:24:54Z</time>
      </trkpt>
      <trkpt lat="48.019" lon="6.7208">
        <ele>437</ele>
        <time>2022-05-27T09:24:57Z</time>
      </trkpt>
      <trkpt lat="48.01903" lon="6.72065">
        <ele>437.9</ele>
        <time>2022-05-27T09:25:00Z</time>
      </trkpt>
      <trkpt lat="48.01904" lon="6.72048">
        <ele>437.8</ele>
        <time>2022-05-27T09:25:03Z</time>
      </trkpt>
      <trkpt lat="48.01906" lon="6.7203">
        <ele>437.9</ele>
        <time>2022-05-27T09:25:06Z</time>
      </trkpt>
      <trkpt lat="48.01909" lon="6.72014">
        <ele>437.9</ele>
        <time>2022-05-27T09:25:09Z</time>
      </trkpt>
      <trkpt lat="48.01912" lon="6.71997">
        <ele>438.2</ele>
        <time>2022-05-27T09:25:12Z</time>
      </trkpt>
      <trkpt lat="48.01912" lon="6.71979">
        <ele>437.8</ele>
        <time>2022-05-27T09:25:15Z</time>
      </trkpt>
      <trkpt lat="48.01911" lon="6.7196">
        <ele>438.7</ele>
        <time>2022-05-27T09:25:18Z</time>
      </trkpt>
      <trkpt lat="48.01911" lon="6.71946">
        <ele>437.4</ele>
        <time>2022-05-27T09:25:20Z</time>
      </trkpt>
      <trkpt lat="48.01911" lon="6.71931">
        <ele>437.5</ele>
        <time>2022-05-27T09:25:22Z</time>
      </trkpt>
      <trkpt lat="48.01912" lon="6.71918">
        <ele>437.2</ele>
        <time>2022-05-27T09:25:24Z</time>
      </trkpt>
      <trkpt lat="48.01913" lon="6.71899">
        <ele>437.7</ele>
        <time>2022-05-27T09:25:27Z</time>
      </trkpt>
      <trkpt lat="48.01915" lon="6.71883">
        <ele>438.4</ele>
        <time>2022-05-27T09:25:30Z</time>
      </trkpt>
      <trkpt lat="48.01919" lon="6.71866">
        <ele>438.2</ele>
        <time>2022-05-27T09:25:33Z</time>
      </trkpt>
      <trkpt lat="48.01923" lon="6.71852">
        <ele>438.1</ele>
        <time>2022-05-27T09:25:35Z</time>
      </trkpt>
      <trkpt lat="48.01926" lon="6.71838">
        <ele>436.4</ele>
        <time>2022-05-27T09:25:37Z</time>
      </trkpt>
      <trkpt lat="48.0193" lon="6.71825">
        <ele>436.1</ele>
        <time>2022-05-27T09:25:39Z</time>
      </trkpt>
      <trkpt lat="48.01935" lon="6.71813">
        <ele>436.7</ele>
        <time>2022-05-27T09:25:41Z</time>
      </trkpt>
      <trkpt lat="48.01942" lon="6.71801">
        <ele>437.4</ele>
        <time>2022-05-27T09:25:43Z</time>
      </trkpt>
      <trkpt lat="48.01948" lon="6.7179">
        <ele>435.9</ele>
        <time>2022-05-27T09:25:45Z</time>
      </trkpt>
      <trkpt lat="48.01958" lon="6.71779">
        <ele>435</ele>
        <time>2022-05-27T09:25:48Z</time>
      </trkpt>
      <trkpt lat="48.01968" lon="6.71769">
        <ele>436.2</ele>
        <time>2022-05-27T09:25:52Z</time>
      </trkpt>
      <trkpt lat="48.01975" lon="6.71754">
        <ele>433.5</ele>
        <time>2022-05-27T09:25:55Z</time>
      </trkpt>
      <trkpt lat="48.01981" lon="6.71737">
        <ele>431.9</ele>
        <time>2022-05-27T09:25:58Z</time>
      </trkpt>
      <trkpt lat="48.01986" lon="6.71723">
        <ele>435.1</ele>
        <time>2022-05-27T09:26:01Z</time>
      </trkpt>
      <trkpt lat="48.01991" lon="6.71709">
        <ele>435.2</ele>
        <time>2022-05-27T09:26:04Z</time>
      </trkpt>
      <trkpt lat="48.01995" lon="6.71694">
        <ele>435.5</ele>
        <time>2022-05-27T09:26:07Z</time>
      </trkpt>
      <trkpt lat="48.01998" lon="6.71676">
        <ele>432.6</ele>
        <time>2022-05-27T09:26:10Z</time>
      </trkpt>
      <trkpt lat="48.02" lon="6.71662">
        <ele>432.6</ele>
        <time>2022-05-27T09:26:12Z</time>
      </trkpt>
      <trkpt lat="48.02002" lon="6.71647">
        <ele>432</ele>
        <time>2022-05-27T09:26:14Z</time>
      </trkpt>
      <trkpt lat="48.02005" lon="6.71632">
        <ele>432.3</ele>
        <time>2022-05-27T09:26:16Z</time>
      </trkpt>
      <trkpt lat="48.02009" lon="6.71618">
        <ele>432.3</ele>
        <time>2022-05-27T09:26:18Z</time>
      </trkpt>
      <trkpt lat="48.02009" lon="6.71603">
        <ele>430.6</ele>
        <time>2022-05-27T09:26:20Z</time>
      </trkpt>
      <trkpt lat="48.02004" lon="6.7159">
        <ele>431.8</ele>
        <time>2022-05-27T09:26:22Z</time>
      </trkpt>
      <trkpt lat="48.01995" lon="6.71584">
        <ele>431.8</ele>
        <time>2022-05-27T09:26:24Z</time>
      </trkpt>
      <trkpt lat="48.01985" lon="6.7158">
        <ele>431.6</ele>
        <time>2022-05-27T09:26:26Z</time>
      </trkpt>
      <trkpt lat="48.01972" lon="6.71582">
        <ele>433.1</ele>
        <time>2022-05-27T09:26:28Z</time>
      </trkpt>
      <trkpt lat="48.0196" lon="6.7158">
        <ele>430.7</ele>
        <time>2022-05-27T09:26:30Z</time>
      </trkpt>
      <trkpt lat="48.01949" lon="6.71576">
        <ele>431</ele>
        <time>2022-05-27T09:26:32Z</time>
      </trkpt>
      <trkpt lat="48.01938" lon="6.71569">
        <ele>430.1</ele>
        <time>2022-05-27T09:26:34Z</time>
      </trkpt>
      <trkpt lat="48.01926" lon="6.71559">
        <ele>428.3</ele>
        <time>2022-05-27T09:26:36Z</time>
      </trkpt>
      <trkpt lat="48.01914" lon="6.7155">
        <ele>426</ele>
        <time>2022-05-27T09:26:38Z</time>
      </trkpt>
      <trkpt lat="48.01905" lon="6.71541">
        <ele>427.4</ele>
        <time>2022-05-27T09:26:40Z</time>
      </trkpt>
      <trkpt lat="48.01894" lon="6.71533">
        <ele>429.3</ele>
        <time>2022-05-27T09:26:42Z</time>
      </trkpt>
      <trkpt lat="48.01881" lon="6.71531">
        <ele>427.8</ele>
        <time>2022-05-27T09:26:44Z</time>
      </trkpt>
      <trkpt lat="48.01867" lon="6.71532">
        <ele>426.4</ele>
        <time>2022-05-27T09:26:46Z</time>
      </trkpt>
      <trkpt lat="48.01853" lon="6.71532">
        <ele>427.4</ele>
        <time>2022-05-27T09:26:48Z</time>
      </trkpt>
      <trkpt lat="48.01842" lon="6.71531">
        <ele>429</ele>
        <time>2022-05-27T09:26:50Z</time>
      </trkpt>
      <trkpt lat="48.01832" lon="6.71529">
        <ele>429</ele>
        <time>2022-05-27T09:26:52Z</time>
      </trkpt>
      <trkpt lat="48.01821" lon="6.71527">
        <ele>428.4</ele>
        <time>2022-05-27T09:26:54Z</time>
      </trkpt>
      <trkpt lat="48.0181" lon="6.71523">
        <ele>427.5</ele>
        <time>2022-05-27T09:26:56Z</time>
      </trkpt>
      <trkpt lat="48.01803" lon="6.71514">
        <ele>428.6</ele>
        <time>2022-05-27T09:26:58Z</time>
      </trkpt>
      <trkpt lat="48.01802" lon="6.71494">
        <ele>426.6</ele>
        <time>2022-05-27T09:27:01Z</time>
      </trkpt>
      <trkpt lat="48.01809" lon="6.71482">
        <ele>427.9</ele>
        <time>2022-05-27T09:27:03Z</time>
      </trkpt>
      <trkpt lat="48.01818" lon="6.71473">
        <ele>428.5</ele>
        <time>2022-05-27T09:27:05Z</time>
      </trkpt>
      <trkpt lat="48.01828" lon="6.71464">
        <ele>427.8</ele>
        <time>2022-05-27T09:27:07Z</time>
      </trkpt>
      <trkpt lat="48.01837" lon="6.71454">
        <ele>428.1</ele>
        <time>2022-05-27T09:27:09Z</time>
      </trkpt>
      <trkpt lat="48.01845" lon="6.71444">
        <ele>428.5</ele>
        <time>2022-05-27T09:27:11Z</time>
      </trkpt>
      <trkpt lat="48.0185" lon="6.71427">
        <ele>429.2</ele>
        <time>2022-05-27T09:27:14Z</time>
      </trkpt>
      <trkpt lat="48.01851" lon="6.7141">
        <ele>430.5</ele>
        <time>2022-05-27T09:27:17Z</time>
      </trkpt>
      <trkpt lat="48.01856" lon="6.71398">
        <ele>430</ele>
        <time>2022-05-27T09:27:20Z</time>
      </trkpt>
      <trkpt lat="48.01864" lon="6.71388">
        <ele>429.3</ele>
        <time>2022-05-27T09:27:23Z</time>
      </trkpt>
      <trkpt lat="48.01872" lon="6.71377">
        <ele>428.8</ele>
        <time>2022-05-27T09:27:26Z</time>
      </trkpt>
      <trkpt lat="48.0188" lon="6.71363">
        <ele>427.3</ele>
        <time>2022-05-27T09:27:29Z</time>
      </trkpt>
      <trkpt lat="48.01887" lon="6.71352">
        <ele>427.5</ele>
        <time>2022-05-27T09:27:31Z</time>
      </trkpt>
      <trkpt lat="48.01894" lon="6.71342">
        <ele>427.1</ele>
        <time>2022-05-27T09:27:33Z</time>
      </trkpt>
      <trkpt lat="48.01903" lon="6.71328">
        <ele>426.5</ele>
        <time>2022-05-27T09:27:36Z</time>
      </trkpt>
      <trkpt lat="48.01909" lon="6.71312">
        <ele>425.7</ele>
        <time>2022-05-27T09:27:39Z</time>
      </trkpt>
      <trkpt lat="48.0191" lon="6.71295">
        <ele>426.1</ele>
        <time>2022-05-27T09:27:42Z</time>
      </trkpt>
      <trkpt lat="48.01916" lon="6.71283">
        <ele>427</ele>
        <time>2022-05-27T09:27:46Z</time>
      </trkpt>
      <trkpt lat="48.01926" lon="6.71284">
        <ele>427.6</ele>
        <time>2022-05-27T09:27:51Z</time>
      </trkpt>
      <trkpt lat="48.01937" lon="6.71289">
        <ele>425.2</ele>
        <time>2022-05-27T09:27:55Z</time>
      </trkpt>
      <trkpt lat="48.01949" lon="6.71294">
        <ele>426.3</ele>
        <time>2022-05-27T09:27:58Z</time>
      </trkpt>
      <trkpt lat="48.01962" lon="6.71294">
        <ele>426.7</ele>
        <time>2022-05-27T09:28:01Z</time>
      </trkpt>
      <trkpt lat="48.01975" lon="6.71294">
        <ele>427.3</ele>
        <time>2022-05-27T09:28:04Z</time>
      </trkpt>
      <trkpt lat="48.01988" lon="6.71295">
        <ele>424.7</ele>
        <time>2022-05-27T09:28:07Z</time>
      </trkpt>
      <trkpt lat="48.01997" lon="6.71296">
        <ele>425.4</ele>
        <time>2022-05-27T09:28:09Z</time>
      </trkpt>
      <trkpt lat="48.02007" lon="6.71298">
        <ele>426.5</ele>
        <time>2022-05-27T09:28:11Z</time>
      </trkpt>
      <trkpt lat="48.02016" lon="6.71299">
        <ele>426.6</ele>
        <time>2022-05-27T09:28:13Z</time>
      </trkpt>
      <trkpt lat="48.02029" lon="6.71302">
        <ele>426.3</ele>
        <time>2022-05-27T09:28:16Z</time>
      </trkpt>
      <trkpt lat="48.02038" lon="6.71304">
        <ele>427.9</ele>
        <time>2022-05-27T09:28:18Z</time>
      </trkpt>
      <trkpt lat="48.02048" lon="6.71306">
        <ele>427.5</ele>
        <time>2022-05-27T09:28:20Z</time>
      </trkpt>
      <trkpt lat="48.02057" lon="6.71308">
        <ele>426.7</ele>
        <time>2022-05-27T09:28:22Z</time>
      </trkpt>
      <trkpt lat="48.02066" lon="6.71311">
        <ele>425.9</ele>
        <time>2022-05-27T09:28:24Z</time>
      </trkpt>
      <trkpt lat="48.02075" lon="6.71313">
        <ele>426.3</ele>
        <time>2022-05-27T09:28:26Z</time>
      </trkpt>
      <trkpt lat="48.02087" lon="6.71317">
        <ele>426.5</ele>
        <time>2022-05-27T09:28:29Z</time>
      </trkpt>
      <trkpt lat="48.02098" lon="6.71323">
        <ele>426.1</ele>
        <time>2022-05-27T09:28:32Z</time>
      </trkpt>
      <trkpt lat="48.02107" lon="6.71328">
        <ele>426.6</ele>
        <time>2022-05-27T09:28:35Z</time>
      </trkpt>
      <trkpt lat="48.02117" lon="6.71326">
        <ele>425.8</ele>
        <time>2022-05-27T09:28:38Z</time>
      </trkpt>
      <trkpt lat="48.02122" lon="6.71312">
        <ele>426.3</ele>
        <time>2022-05-27T09:28:41Z</time>
      </trkpt>
      <trkpt lat="48.02123" lon="6.71295">
        <ele>425.7</ele>
        <time>2022-05-27T09:28:44Z</time>
      </trkpt>
      <trkpt lat="48.02125" lon="6.71275">
        <ele>425.1</ele>
        <time>2022-05-27T09:28:47Z</time>
      </trkpt>
      <trkpt lat="48.02126" lon="6.71261">
        <ele>424.2</ele>
        <time>2022-05-27T09:28:49Z</time>
      </trkpt>
      <trkpt lat="48.02127" lon="6.71247">
        <ele>424.2</ele>
        <time>2022-05-27T09:28:51Z</time>
      </trkpt>
      <trkpt lat="48.02127" lon="6.71233">
        <ele>425</ele>
        <time>2022-05-27T09:28:53Z</time>
      </trkpt>
      <trkpt lat="48.02128" lon="6.71219">
        <ele>423.3</ele>
        <time>2022-05-27T09:28:55Z</time>
      </trkpt>
      <trkpt lat="48.02128" lon="6.71206">
        <ele>424.3</ele>
        <time>2022-05-27T09:28:57Z</time>
      </trkpt>
      <trkpt lat="48.02127" lon="6.71192">
        <ele>423.6</ele>
        <time>2022-05-27T09:28:59Z</time>
      </trkpt>
      <trkpt lat="48.02127" lon="6.71178">
        <ele>422.9</ele>
        <time>2022-05-27T09:29:01Z</time>
      </trkpt>
      <trkpt lat="48.02126" lon="6.71163">
        <ele>423</ele>
        <time>2022-05-27T09:29:03Z</time>
      </trkpt>
      <trkpt lat="48.02125" lon="6.71148">
        <ele>422.5</ele>
        <time>2022-05-27T09:29:05Z</time>
      </trkpt>
      <trkpt lat="48.02124" lon="6.71133">
        <ele>422.7</ele>
        <time>2022-05-27T09:29:07Z</time>
      </trkpt>
      <trkpt lat="48.02123" lon="6.71118">
        <ele>422.2</ele>
        <time>2022-05-27T09:29:09Z</time>
      </trkpt>
      <trkpt lat="48.02123" lon="6.71103">
        <ele>421.7</ele>
        <time>2022-05-27T09:29:11Z</time>
      </trkpt>
      <trkpt lat="48.02122" lon="6.71089">
        <ele>422.4</ele>
        <time>2022-05-27T09:29:13Z</time>
      </trkpt>
      <trkpt lat="48.02128" lon="6.71076">
        <ele>421.9</ele>
        <time>2022-05-27T09:29:16Z</time>
      </trkpt>
      <trkpt lat="48.02137" lon="6.71076">
        <ele>422.2</ele>
        <time>2022-05-27T09:29:19Z</time>
      </trkpt>
      <trkpt lat="48.02148" lon="6.71079">
        <ele>422.5</ele>
        <time>2022-05-27T09:29:23Z</time>
      </trkpt>
      <trkpt lat="48.0216" lon="6.7108">
        <ele>422.6</ele>
        <time>2022-05-27T09:29:27Z</time>
      </trkpt>
      <trkpt lat="48.0217" lon="6.71083">
        <ele>422.8</ele>
        <time>2022-05-27T09:29:32Z</time>
      </trkpt>
      <trkpt lat="48.0218" lon="6.71086">
        <ele>422.2</ele>
        <time>2022-05-27T09:29:37Z</time>
      </trkpt>
      <trkpt lat="48.0219" lon="6.71087">
        <ele>422.8</ele>
        <time>2022-05-27T09:29:41Z</time>
      </trkpt>
      <trkpt lat="48.02202" lon="6.71085">
        <ele>423.3</ele>
        <time>2022-05-27T09:29:45Z</time>
      </trkpt>
      <trkpt lat="48.0221" lon="6.71081">
        <ele>423.7</ele>
        <time>2022-05-27T09:29:48Z</time>
      </trkpt>
      <trkpt lat="48.02221" lon="6.71075">
        <ele>424.6</ele>
        <time>2022-05-27T09:29:52Z</time>
      </trkpt>
      <trkpt lat="48.0223" lon="6.71068">
        <ele>425.2</ele>
        <time>2022-05-27T09:29:56Z</time>
      </trkpt>
      <trkpt lat="48.02238" lon="6.7106">
        <ele>425.2</ele>
        <time>2022-05-27T09:30:00Z</time>
      </trkpt>
      <trkpt lat="48.02247" lon="6.71052">
        <ele>426</ele>
        <time>2022-05-27T09:30:04Z</time>
      </trkpt>
      <trkpt lat="48.02255" lon="6.71042">
        <ele>426.3</ele>
        <time>2022-05-27T09:30:08Z</time>
      </trkpt>
      <trkpt lat="48.02263" lon="6.71032">
        <ele>426.8</ele>
        <time>2022-05-27T09:30:12Z</time>
      </trkpt>
      <trkpt lat="48.02272" lon="6.71023">
        <ele>427.8</ele>
        <time>2022-05-27T09:30:16Z</time>
      </trkpt>
      <trkpt lat="48.02279" lon="6.71013">
        <ele>428.3</ele>
        <time>2022-05-27T09:30:20Z</time>
      </trkpt>
      <trkpt lat="48.02288" lon="6.71005">
        <ele>428.4</ele>
        <time>2022-05-27T09:30:24Z</time>
      </trkpt>
      <trkpt lat="48.02297" lon="6.70999">
        <ele>429.4</ele>
        <time>2022-05-27T09:30:28Z</time>
      </trkpt>
      <trkpt lat="48.02307" lon="6.70996">
        <ele>429.7</ele>
        <time>2022-05-27T09:30:32Z</time>
      </trkpt>
      <trkpt lat="48.02317" lon="6.70995">
        <ele>430.2</ele>
        <time>2022-05-27T09:30:36Z</time>
      </trkpt>
      <trkpt lat="48.02328" lon="6.70995">
        <ele>430.9</ele>
        <time>2022-05-27T09:30:40Z</time>
      </trkpt>
      <trkpt lat="48.02339" lon="6.70994">
        <ele>431.8</ele>
        <time>2022-05-27T09:30:44Z</time>
      </trkpt>
      <trkpt lat="48.02348" lon="6.70993">
        <ele>431.6</ele>
        <time>2022-05-27T09:30:47Z</time>
      </trkpt>
      <trkpt lat="48.02358" lon="6.70993">
        <ele>431.7</ele>
        <time>2022-05-27T09:30:50Z</time>
      </trkpt>
      <trkpt lat="48.02368" lon="6.70993">
        <ele>431.7</ele>
        <time>2022-05-27T09:30:53Z</time>
      </trkpt>
      <trkpt lat="48.02377" lon="6.70992">
        <ele>431.9</ele>
        <time>2022-05-27T09:30:56Z</time>
      </trkpt>
      <trkpt lat="48.02387" lon="6.70991">
        <ele>432</ele>
        <time>2022-05-27T09:30:59Z</time>
      </trkpt>
      <trkpt lat="48.02397" lon="6.70991">
        <ele>432.2</ele>
        <time>2022-05-27T09:31:02Z</time>
      </trkpt>
      <trkpt lat="48.02408" lon="6.7099">
        <ele>432</ele>
        <time>2022-05-27T09:31:05Z</time>
      </trkpt>
      <trkpt lat="48.02417" lon="6.70989">
        <ele>432.3</ele>
        <time>2022-05-27T09:31:08Z</time>
      </trkpt>
      <trkpt lat="48.02427" lon="6.70985">
        <ele>432.1</ele>
        <time>2022-05-27T09:31:11Z</time>
      </trkpt>
      <trkpt lat="48.02435" lon="6.70979">
        <ele>432.5</ele>
        <time>2022-05-27T09:31:14Z</time>
      </trkpt>
      <trkpt lat="48.02443" lon="6.7097">
        <ele>432.4</ele>
        <time>2022-05-27T09:31:17Z</time>
      </trkpt>
      <trkpt lat="48.0245" lon="6.7096">
        <ele>432.3</ele>
        <time>2022-05-27T09:31:20Z</time>
      </trkpt>
      <trkpt lat="48.02456" lon="6.70949">
        <ele>432.9</ele>
        <time>2022-05-27T09:31:23Z</time>
      </trkpt>
      <trkpt lat="48.02462" lon="6.70939">
        <ele>433.6</ele>
        <time>2022-05-27T09:31:26Z</time>
      </trkpt>
      <trkpt lat="48.02469" lon="6.70929">
        <ele>434.6</ele>
        <time>2022-05-27T09:31:29Z</time>
      </trkpt>
      <trkpt lat="48.02478" lon="6.70919">
        <ele>435.3</ele>
        <time>2022-05-27T09:31:33Z</time>
      </trkpt>
      <trkpt lat="48.02487" lon="6.70915">
        <ele>436.3</ele>
        <time>2022-05-27T09:31:37Z</time>
      </trkpt>
      <trkpt lat="48.02492" lon="6.70908">
        <ele>436.4</ele>
        <time>2022-05-27T09:31:50Z</time>
      </trkpt>
      <trkpt lat="48.02491" lon="6.70908">
        <ele>436.1</ele>
        <time>2022-05-27T09:32:11Z</time>
      </trkpt>
      <trkpt lat="48.02501" lon="6.70914">
        <ele>437</ele>
        <time>2022-05-27T09:32:20Z</time>
      </trkpt>
      <trkpt lat="48.0251" lon="6.70915">
        <ele>437.4</ele>
        <time>2022-05-27T09:32:25Z</time>
      </trkpt>
      <trkpt lat="48.0252" lon="6.70914">
        <ele>439</ele>
        <time>2022-05-27T09:32:30Z</time>
      </trkpt>
      <trkpt lat="48.02529" lon="6.70907">
        <ele>439.8</ele>
        <time>2022-05-27T09:32:36Z</time>
      </trkpt>
      <trkpt lat="48.02535" lon="6.70895">
        <ele>440.4</ele>
        <time>2022-05-27T09:32:41Z</time>
      </trkpt>
      <trkpt lat="48.0254" lon="6.7088">
        <ele>441.3</ele>
        <time>2022-05-27T09:32:46Z</time>
      </trkpt>
      <trkpt lat="48.02544" lon="6.70866">
        <ele>442.1</ele>
        <time>2022-05-27T09:32:50Z</time>
      </trkpt>
      <trkpt lat="48.02547" lon="6.70852">
        <ele>443.1</ele>
        <time>2022-05-27T09:32:54Z</time>
      </trkpt>
      <trkpt lat="48.0255" lon="6.70838">
        <ele>443.6</ele>
        <time>2022-05-27T09:32:58Z</time>
      </trkpt>
      <trkpt lat="48.02553" lon="6.70824">
        <ele>444.8</ele>
        <time>2022-05-27T09:33:02Z</time>
      </trkpt>
      <trkpt lat="48.02558" lon="6.70811">
        <ele>445.3</ele>
        <time>2022-05-27T09:33:06Z</time>
      </trkpt>
      <trkpt lat="48.02565" lon="6.70801">
        <ele>445.8</ele>
        <time>2022-05-27T09:33:10Z</time>
      </trkpt>
      <trkpt lat="48.02574" lon="6.70795">
        <ele>446.5</ele>
        <time>2022-05-27T09:33:14Z</time>
      </trkpt>
      <trkpt lat="48.02582" lon="6.70786">
        <ele>448.5</ele>
        <time>2022-05-27T09:33:19Z</time>
      </trkpt>
      <trkpt lat="48.02589" lon="6.70777">
        <ele>450.3</ele>
        <time>2022-05-27T09:33:25Z</time>
      </trkpt>
      <trkpt lat="48.02596" lon="6.70767">
        <ele>452.4</ele>
        <time>2022-05-27T09:33:31Z</time>
      </trkpt>
      <trkpt lat="48.02604" lon="6.70757">
        <ele>454</ele>
        <time>2022-05-27T09:33:37Z</time>
      </trkpt>
      <trkpt lat="48.02611" lon="6.70746">
        <ele>455.1</ele>
        <time>2022-05-27T09:33:43Z</time>
      </trkpt>
      <trkpt lat="48.02619" lon="6.70735">
        <ele>456.6</ele>
        <time>2022-05-27T09:33:49Z</time>
      </trkpt>
      <trkpt lat="48.02626" lon="6.70726">
        <ele>457.7</ele>
        <time>2022-05-27T09:33:54Z</time>
      </trkpt>
      <trkpt lat="48.02635" lon="6.70717">
        <ele>458.5</ele>
        <time>2022-05-27T09:33:59Z</time>
      </trkpt>
      <trkpt lat="48.02644" lon="6.70708">
        <ele>459.1</ele>
        <time>2022-05-27T09:34:04Z</time>
      </trkpt>
      <trkpt lat="48.02652" lon="6.70701">
        <ele>459.8</ele>
        <time>2022-05-27T09:34:08Z</time>
      </trkpt>
      <trkpt lat="48.02661" lon="6.70694">
        <ele>459.8</ele>
        <time>2022-05-27T09:34:12Z</time>
      </trkpt>
      <trkpt lat="48.02671" lon="6.70686">
        <ele>459</ele>
        <time>2022-05-27T09:34:15Z</time>
      </trkpt>
      <trkpt lat="48.0268" lon="6.7068">
        <ele>458.2</ele>
        <time>2022-05-27T09:34:17Z</time>
      </trkpt>
      <trkpt lat="48.02689" lon="6.70675">
        <ele>458.7</ele>
        <time>2022-05-27T09:34:19Z</time>
      </trkpt>
      <trkpt lat="48.027" lon="6.70671">
        <ele>459.8</ele>
        <time>2022-05-27T09:34:22Z</time>
      </trkpt>
      <trkpt lat="48.0271" lon="6.7067">
        <ele>460.9</ele>
        <time>2022-05-27T09:34:25Z</time>
      </trkpt>
      <trkpt lat="48.0272" lon="6.70671">
        <ele>462</ele>
        <time>2022-05-27T09:34:29Z</time>
      </trkpt>
      <trkpt lat="48.0273" lon="6.70668">
        <ele>462.8</ele>
        <time>2022-05-27T09:34:34Z</time>
      </trkpt>
      <trkpt lat="48.02737" lon="6.70658">
        <ele>463.5</ele>
        <time>2022-05-27T09:34:39Z</time>
      </trkpt>
      <trkpt lat="48.02742" lon="6.70647">
        <ele>464</ele>
        <time>2022-05-27T09:34:44Z</time>
      </trkpt>
      <trkpt lat="48.02746" lon="6.70633">
        <ele>464.3</ele>
        <time>2022-05-27T09:34:49Z</time>
      </trkpt>
      <trkpt lat="48.0275" lon="6.7062">
        <ele>465.4</ele>
        <time>2022-05-27T09:34:54Z</time>
      </trkpt>
      <trkpt lat="48.02754" lon="6.70606">
        <ele>465.8</ele>
        <time>2022-05-27T09:34:59Z</time>
      </trkpt>
      <trkpt lat="48.02758" lon="6.70591">
        <ele>466.3</ele>
        <time>2022-05-27T09:35:04Z</time>
      </trkpt>
      <trkpt lat="48.0276" lon="6.70577">
        <ele>466.8</ele>
        <time>2022-05-27T09:35:09Z</time>
      </trkpt>
      <trkpt lat="48.02761" lon="6.70561">
        <ele>466.8</ele>
        <time>2022-05-27T09:35:15Z</time>
      </trkpt>
      <trkpt lat="48.02764" lon="6.70548">
        <ele>465.6</ele>
        <time>2022-05-27T09:35:18Z</time>
      </trkpt>
      <trkpt lat="48.02767" lon="6.70534">
        <ele>465.9</ele>
        <time>2022-05-27T09:35:21Z</time>
      </trkpt>
      <trkpt lat="48.02771" lon="6.7052">
        <ele>465.9</ele>
        <time>2022-05-27T09:35:24Z</time>
      </trkpt>
      <trkpt lat="48.02776" lon="6.70505">
        <ele>466.2</ele>
        <time>2022-05-27T09:35:27Z</time>
      </trkpt>
      <trkpt lat="48.0278" lon="6.7049">
        <ele>466</ele>
        <time>2022-05-27T09:35:30Z</time>
      </trkpt>
      <trkpt lat="48.02784" lon="6.70475">
        <ele>466.3</ele>
        <time>2022-05-27T09:35:33Z</time>
      </trkpt>
      <trkpt lat="48.02788" lon="6.70459">
        <ele>467.4</ele>
        <time>2022-05-27T09:35:36Z</time>
      </trkpt>
      <trkpt lat="48.02792" lon="6.7044">
        <ele>466.6</ele>
        <time>2022-05-27T09:35:39Z</time>
      </trkpt>
      <trkpt lat="48.02796" lon="6.70423">
        <ele>465</ele>
        <time>2022-05-27T09:35:42Z</time>
      </trkpt>
      <trkpt lat="48.02799" lon="6.70409">
        <ele>465.6</ele>
        <time>2022-05-27T09:35:45Z</time>
      </trkpt>
      <trkpt lat="48.02804" lon="6.70395">
        <ele>464.7</ele>
        <time>2022-05-27T09:35:48Z</time>
      </trkpt>
      <trkpt lat="48.02808" lon="6.70381">
        <ele>466.9</ele>
        <time>2022-05-27T09:35:51Z</time>
      </trkpt>
      <trkpt lat="48.02812" lon="6.70368">
        <ele>468.5</ele>
        <time>2022-05-27T09:35:54Z</time>
      </trkpt>
      <trkpt lat="48.02818" lon="6.70355">
        <ele>467.5</ele>
        <time>2022-05-27T09:35:57Z</time>
      </trkpt>
      <trkpt lat="48.02823" lon="6.70343">
        <ele>469.1</ele>
        <time>2022-05-27T09:36:00Z</time>
      </trkpt>
      <trkpt lat="48.02828" lon="6.7033">
        <ele>469.4</ele>
        <time>2022-05-27T09:36:04Z</time>
      </trkpt>
      <trkpt lat="48.02835" lon="6.70313">
        <ele>469.5</ele>
        <time>2022-05-27T09:36:08Z</time>
      </trkpt>
      <trkpt lat="48.02839" lon="6.70295">
        <ele>470.3</ele>
        <time>2022-05-27T09:36:11Z</time>
      </trkpt>
      <trkpt lat="48.02842" lon="6.70277">
        <ele>470.6</ele>
        <time>2022-05-27T09:36:14Z</time>
      </trkpt>
      <trkpt lat="48.02844" lon="6.70259">
        <ele>470.5</ele>
        <time>2022-05-27T09:36:17Z</time>
      </trkpt>
      <trkpt lat="48.02847" lon="6.70241">
        <ele>470.3</ele>
        <time>2022-05-27T09:36:20Z</time>
      </trkpt>
      <trkpt lat="48.02848" lon="6.70223">
        <ele>470.7</ele>
        <time>2022-05-27T09:36:23Z</time>
      </trkpt>
      <trkpt lat="48.02849" lon="6.70206">
        <ele>470.6</ele>
        <time>2022-05-27T09:36:26Z</time>
      </trkpt>
      <trkpt lat="48.02852" lon="6.7019">
        <ele>471.3</ele>
        <time>2022-05-27T09:36:30Z</time>
      </trkpt>
      <trkpt lat="48.02857" lon="6.70175">
        <ele>471.5</ele>
        <time>2022-05-27T09:36:34Z</time>
      </trkpt>
      <trkpt lat="48.0286" lon="6.70161">
        <ele>470.2</ele>
        <time>2022-05-27T09:36:37Z</time>
      </trkpt>
      <trkpt lat="48.02866" lon="6.70146">
        <ele>471.4</ele>
        <time>2022-05-27T09:36:40Z</time>
      </trkpt>
      <trkpt lat="48.02872" lon="6.70129">
        <ele>471.4</ele>
        <time>2022-05-27T09:36:43Z</time>
      </trkpt>
      <trkpt lat="48.02878" lon="6.70114">
        <ele>473.3</ele>
        <time>2022-05-27T09:36:46Z</time>
      </trkpt>
      <trkpt lat="48.02885" lon="6.70102">
        <ele>472.7</ele>
        <time>2022-05-27T09:36:50Z</time>
      </trkpt>
      <trkpt lat="48.02894" lon="6.70092">
        <ele>474.5</ele>
        <time>2022-05-27T09:36:54Z</time>
      </trkpt>
      <trkpt lat="48.02903" lon="6.70077">
        <ele>473</ele>
        <time>2022-05-27T09:36:57Z</time>
      </trkpt>
      <trkpt lat="48.02908" lon="6.70065">
        <ele>471.4</ele>
        <time>2022-05-27T09:36:59Z</time>
      </trkpt>
      <trkpt lat="48.02913" lon="6.70052">
        <ele>472</ele>
        <time>2022-05-27T09:37:01Z</time>
      </trkpt>
      <trkpt lat="48.02916" lon="6.7004">
        <ele>470.7</ele>
        <time>2022-05-27T09:37:03Z</time>
      </trkpt>
      <trkpt lat="48.0292" lon="6.70026">
        <ele>470.5</ele>
        <time>2022-05-27T09:37:05Z</time>
      </trkpt>
      <trkpt lat="48.02925" lon="6.70012">
        <ele>473.1</ele>
        <time>2022-05-27T09:37:07Z</time>
      </trkpt>
      <trkpt lat="48.02929" lon="6.69995">
        <ele>470.5</ele>
        <time>2022-05-27T09:37:09Z</time>
      </trkpt>
      <trkpt lat="48.02934" lon="6.69977">
        <ele>469.3</ele>
        <time>2022-05-27T09:37:11Z</time>
      </trkpt>
      <trkpt lat="48.02938" lon="6.69959">
        <ele>467.8</ele>
        <time>2022-05-27T09:37:13Z</time>
      </trkpt>
      <trkpt lat="48.02944" lon="6.69944">
        <ele>467.9</ele>
        <time>2022-05-27T09:37:15Z</time>
      </trkpt>
      <trkpt lat="48.0295" lon="6.69932">
        <ele>469.4</ele>
        <time>2022-05-27T09:37:17Z</time>
      </trkpt>
      <trkpt lat="48.02957" lon="6.69916">
        <ele>468.8</ele>
        <time>2022-05-27T09:37:20Z</time>
      </trkpt>
      <trkpt lat="48.02962" lon="6.69903">
        <ele>468.5</ele>
        <time>2022-05-27T09:37:22Z</time>
      </trkpt>
      <trkpt lat="48.02965" lon="6.69889">
        <ele>468.6</ele>
        <time>2022-05-27T09:37:24Z</time>
      </trkpt>
      <trkpt lat="48.02968" lon="6.69876">
        <ele>467.2</ele>
        <time>2022-05-27T09:37:26Z</time>
      </trkpt>
      <trkpt lat="48.02972" lon="6.69863">
        <ele>466.8</ele>
        <time>2022-05-27T09:37:28Z</time>
      </trkpt>
      <trkpt lat="48.02979" lon="6.69847">
        <ele>467.3</ele>
        <time>2022-05-27T09:37:31Z</time>
      </trkpt>
      <trkpt lat="48.02983" lon="6.69833">
        <ele>466.2</ele>
        <time>2022-05-27T09:37:34Z</time>
      </trkpt>
      <trkpt lat="48.02987" lon="6.69814">
        <ele>467.6</ele>
        <time>2022-05-27T09:37:37Z</time>
      </trkpt>
      <trkpt lat="48.0299" lon="6.69799">
        <ele>467</ele>
        <time>2022-05-27T09:37:39Z</time>
      </trkpt>
      <trkpt lat="48.02996" lon="6.69781">
        <ele>466.5</ele>
        <time>2022-05-27T09:37:41Z</time>
      </trkpt>
      <trkpt lat="48.03001" lon="6.69765">
        <ele>463.6</ele>
        <time>2022-05-27T09:37:43Z</time>
      </trkpt>
      <trkpt lat="48.03002" lon="6.69751">
        <ele>463.3</ele>
        <time>2022-05-27T09:37:45Z</time>
      </trkpt>
      <trkpt lat="48.02996" lon="6.69736">
        <ele>463.1</ele>
        <time>2022-05-27T09:37:47Z</time>
      </trkpt>
      <trkpt lat="48.0299" lon="6.69724">
        <ele>462.2</ele>
        <time>2022-05-27T09:37:49Z</time>
      </trkpt>
      <trkpt lat="48.02988" lon="6.6971">
        <ele>463.1</ele>
        <time>2022-05-27T09:37:51Z</time>
      </trkpt>
      <trkpt lat="48.02992" lon="6.69695">
        <ele>464.6</ele>
        <time>2022-05-27T09:37:53Z</time>
      </trkpt>
      <trkpt lat="48.02996" lon="6.69682">
        <ele>464.2</ele>
        <time>2022-05-27T09:37:55Z</time>
      </trkpt>
      <trkpt lat="48.03" lon="6.69669">
        <ele>464</ele>
        <time>2022-05-27T09:37:57Z</time>
      </trkpt>
      <trkpt lat="48.03007" lon="6.69653">
        <ele>464.5</ele>
        <time>2022-05-27T09:38:00Z</time>
      </trkpt>
      <trkpt lat="48.03015" lon="6.69637">
        <ele>461.2</ele>
        <time>2022-05-27T09:38:03Z</time>
      </trkpt>
      <trkpt lat="48.03022" lon="6.6962">
        <ele>463.5</ele>
        <time>2022-05-27T09:38:06Z</time>
      </trkpt>
      <trkpt lat="48.03027" lon="6.69609">
        <ele>464</ele>
        <time>2022-05-27T09:38:08Z</time>
      </trkpt>
      <trkpt lat="48.03034" lon="6.69593">
        <ele>463.3</ele>
        <time>2022-05-27T09:38:11Z</time>
      </trkpt>
      <trkpt lat="48.03043" lon="6.69581">
        <ele>463.6</ele>
        <time>2022-05-27T09:38:14Z</time>
      </trkpt>
      <trkpt lat="48.03053" lon="6.69568">
        <ele>462.7</ele>
        <time>2022-05-27T09:38:17Z</time>
      </trkpt>
      <trkpt lat="48.0306" lon="6.6956">
        <ele>463.6</ele>
        <time>2022-05-27T09:38:19Z</time>
      </trkpt>
      <trkpt lat="48.03067" lon="6.6955">
        <ele>464.6</ele>
        <time>2022-05-27T09:38:21Z</time>
      </trkpt>
      <trkpt lat="48.03075" lon="6.69537">
        <ele>462.3</ele>
        <time>2022-05-27T09:38:24Z</time>
      </trkpt>
      <trkpt lat="48.03082" lon="6.69525">
        <ele>462.1</ele>
        <time>2022-05-27T09:38:27Z</time>
      </trkpt>
      <trkpt lat="48.03087" lon="6.6951">
        <ele>464.3</ele>
        <time>2022-05-27T09:38:30Z</time>
      </trkpt>
      <trkpt lat="48.03095" lon="6.69495">
        <ele>462.8</ele>
        <time>2022-05-27T09:38:33Z</time>
      </trkpt>
      <trkpt lat="48.03103" lon="6.69479">
        <ele>461.4</ele>
        <time>2022-05-27T09:38:36Z</time>
      </trkpt>
      <trkpt lat="48.03112" lon="6.6947">
        <ele>460.4</ele>
        <time>2022-05-27T09:38:39Z</time>
      </trkpt>
      <trkpt lat="48.03122" lon="6.69464">
        <ele>464.8</ele>
        <time>2022-05-27T09:38:42Z</time>
      </trkpt>
      <trkpt lat="48.03132" lon="6.69456">
        <ele>465.3</ele>
        <time>2022-05-27T09:38:45Z</time>
      </trkpt>
      <trkpt lat="48.0314" lon="6.6944">
        <ele>464.6</ele>
        <time>2022-05-27T09:38:48Z</time>
      </trkpt>
      <trkpt lat="48.03147" lon="6.69424">
        <ele>465.3</ele>
        <time>2022-05-27T09:38:51Z</time>
      </trkpt>
      <trkpt lat="48.03152" lon="6.69411">
        <ele>465.8</ele>
        <time>2022-05-27T09:38:54Z</time>
      </trkpt>
      <trkpt lat="48.03157" lon="6.69396">
        <ele>465.4</ele>
        <time>2022-05-27T09:38:57Z</time>
      </trkpt>
      <trkpt lat="48.03162" lon="6.69381">
        <ele>464.9</ele>
        <time>2022-05-27T09:39:00Z</time>
      </trkpt>
      <trkpt lat="48.03167" lon="6.69367">
        <ele>465.8</ele>
        <time>2022-05-27T09:39:03Z</time>
      </trkpt>
      <trkpt lat="48.03172" lon="6.69351">
        <ele>465.1</ele>
        <time>2022-05-27T09:39:06Z</time>
      </trkpt>
      <trkpt lat="48.03177" lon="6.69335">
        <ele>464.1</ele>
        <time>2022-05-27T09:39:09Z</time>
      </trkpt>
      <trkpt lat="48.03183" lon="6.69319">
        <ele>464</ele>
        <time>2022-05-27T09:39:12Z</time>
      </trkpt>
      <trkpt lat="48.0319" lon="6.69303">
        <ele>465.4</ele>
        <time>2022-05-27T09:39:15Z</time>
      </trkpt>
      <trkpt lat="48.03197" lon="6.69287">
        <ele>465</ele>
        <time>2022-05-27T09:39:18Z</time>
      </trkpt>
      <trkpt lat="48.03203" lon="6.69272">
        <ele>465.7</ele>
        <time>2022-05-27T09:39:21Z</time>
      </trkpt>
      <trkpt lat="48.03211" lon="6.69258">
        <ele>465.3</ele>
        <time>2022-05-27T09:39:24Z</time>
      </trkpt>
      <trkpt lat="48.03217" lon="6.69247">
        <ele>464.6</ele>
        <time>2022-05-27T09:39:26Z</time>
      </trkpt>
      <trkpt lat="48.03223" lon="6.69236">
        <ele>464.8</ele>
        <time>2022-05-27T09:39:28Z</time>
      </trkpt>
      <trkpt lat="48.03232" lon="6.69221">
        <ele>464.9</ele>
        <time>2022-05-27T09:39:31Z</time>
      </trkpt>
      <trkpt lat="48.03238" lon="6.69207">
        <ele>465.1</ele>
        <time>2022-05-27T09:39:34Z</time>
      </trkpt>
      <trkpt lat="48.03244" lon="6.69191">
        <ele>465.1</ele>
        <time>2022-05-27T09:39:37Z</time>
      </trkpt>
      <trkpt lat="48.03249" lon="6.69175">
        <ele>464.5</ele>
        <time>2022-05-27T09:39:40Z</time>
      </trkpt>
      <trkpt lat="48.03254" lon="6.69158">
        <ele>464.6</ele>
        <time>2022-05-27T09:39:43Z</time>
      </trkpt>
      <trkpt lat="48.03261" lon="6.69143">
        <ele>464.4</ele>
        <time>2022-05-27T09:39:46Z</time>
      </trkpt>
      <trkpt lat="48.03267" lon="6.69128">
        <ele>464.6</ele>
        <time>2022-05-27T09:39:49Z</time>
      </trkpt>
      <trkpt lat="48.03274" lon="6.69113">
        <ele>463.6</ele>
        <time>2022-05-27T09:39:52Z</time>
      </trkpt>
      <trkpt lat="48.03282" lon="6.69098">
        <ele>463.5</ele>
        <time>2022-05-27T09:39:55Z</time>
      </trkpt>
      <trkpt lat="48.03288" lon="6.69082">
        <ele>463.1</ele>
        <time>2022-05-27T09:39:58Z</time>
      </trkpt>
      <trkpt lat="48.03292" lon="6.69065">
        <ele>463.7</ele>
        <time>2022-05-27T09:40:01Z</time>
      </trkpt>
      <trkpt lat="48.03296" lon="6.69052">
        <ele>462</ele>
        <time>2022-05-27T09:40:03Z</time>
      </trkpt>
      <trkpt lat="48.033" lon="6.6904">
        <ele>462.7</ele>
        <time>2022-05-27T09:40:05Z</time>
      </trkpt>
      <trkpt lat="48.03307" lon="6.69024">
        <ele>463.7</ele>
        <time>2022-05-27T09:40:08Z</time>
      </trkpt>
      <trkpt lat="48.03314" lon="6.69006">
        <ele>462.7</ele>
        <time>2022-05-27T09:40:11Z</time>
      </trkpt>
      <trkpt lat="48.03319" lon="6.68994">
        <ele>461.4</ele>
        <time>2022-05-27T09:40:13Z</time>
      </trkpt>
      <trkpt lat="48.03324" lon="6.68983">
        <ele>461.1</ele>
        <time>2022-05-27T09:40:15Z</time>
      </trkpt>
      <trkpt lat="48.03331" lon="6.68966">
        <ele>460.9</ele>
        <time>2022-05-27T09:40:18Z</time>
      </trkpt>
      <trkpt lat="48.03338" lon="6.68951">
        <ele>462.6</ele>
        <time>2022-05-27T09:40:21Z</time>
      </trkpt>
      <trkpt lat="48.03347" lon="6.68936">
        <ele>460.9</ele>
        <time>2022-05-27T09:40:24Z</time>
      </trkpt>
      <trkpt lat="48.03355" lon="6.68921">
        <ele>462.2</ele>
        <time>2022-05-27T09:40:27Z</time>
      </trkpt>
      <trkpt lat="48.03362" lon="6.68907">
        <ele>465</ele>
        <time>2022-05-27T09:40:30Z</time>
      </trkpt>
      <trkpt lat="48.03369" lon="6.68894">
        <ele>463.9</ele>
        <time>2022-05-27T09:40:33Z</time>
      </trkpt>
      <trkpt lat="48.03374" lon="6.68878">
        <ele>462</ele>
        <time>2022-05-27T09:40:36Z</time>
      </trkpt>
      <trkpt lat="48.0338" lon="6.68863">
        <ele>464.8</ele>
        <time>2022-05-27T09:40:39Z</time>
      </trkpt>
      <trkpt lat="48.03384" lon="6.68849">
        <ele>463.8</ele>
        <time>2022-05-27T09:40:42Z</time>
      </trkpt>
      <trkpt lat="48.03391" lon="6.6884">
        <ele>464.7</ele>
        <time>2022-05-27T09:40:49Z</time>
      </trkpt>
      <trkpt lat="48.03401" lon="6.68834">
        <ele>464.6</ele>
        <time>2022-05-27T09:40:55Z</time>
      </trkpt>
      <trkpt lat="48.03408" lon="6.68825">
        <ele>466.6</ele>
        <time>2022-05-27T09:41:00Z</time>
      </trkpt>
      <trkpt lat="48.03416" lon="6.68813">
        <ele>466.3</ele>
        <time>2022-05-27T09:41:04Z</time>
      </trkpt>
      <trkpt lat="48.03424" lon="6.68802">
        <ele>466.7</ele>
        <time>2022-05-27T09:41:08Z</time>
      </trkpt>
      <trkpt lat="48.03434" lon="6.68796">
        <ele>466.7</ele>
        <time>2022-05-27T09:41:12Z</time>
      </trkpt>
      <trkpt lat="48.03442" lon="6.68789">
        <ele>467.8</ele>
        <time>2022-05-27T09:41:17Z</time>
      </trkpt>
      <trkpt lat="48.0345" lon="6.68783">
        <ele>469.5</ele>
        <time>2022-05-27T09:41:22Z</time>
      </trkpt>
      <trkpt lat="48.03459" lon="6.68779">
        <ele>469.9</ele>
        <time>2022-05-27T09:41:28Z</time>
      </trkpt>
      <trkpt lat="48.03468" lon="6.68774">
        <ele>472.5</ele>
        <time>2022-05-27T09:41:34Z</time>
      </trkpt>
      <trkpt lat="48.03477" lon="6.68774">
        <ele>475</ele>
        <time>2022-05-27T09:41:44Z</time>
      </trkpt>
      <trkpt lat="48.03479" lon="6.68772">
        <ele>476.1</ele>
        <time>2022-05-27T09:41:50Z</time>
      </trkpt>
      <trkpt lat="48.03479" lon="6.68772">
        <ele>476.3</ele>
        <time>2022-05-27T09:42:00Z</time>
      </trkpt>
      <trkpt lat="48.03488" lon="6.68763">
        <ele>478.4</ele>
        <time>2022-05-27T09:42:12Z</time>
      </trkpt>
      <trkpt lat="48.03494" lon="6.68753">
        <ele>479.6</ele>
        <time>2022-05-27T09:42:20Z</time>
      </trkpt>
      <trkpt lat="48.03496" lon="6.68746">
        <ele>479.4</ele>
        <time>2022-05-27T09:42:25Z</time>
      </trkpt>
      <trkpt lat="48.03502" lon="6.68736">
        <ele>479.7</ele>
        <time>2022-05-27T09:42:41Z</time>
      </trkpt>
      <trkpt lat="48.03502" lon="6.68736">
        <ele>479.5</ele>
        <time>2022-05-27T09:42:42Z</time>
      </trkpt>
      <trkpt lat="48.03504" lon="6.68736">
        <ele>479.7</ele>
        <time>2022-05-27T09:42:45Z</time>
      </trkpt>
      <trkpt lat="48.03505" lon="6.68735">
        <ele>480</ele>
        <time>2022-05-27T09:42:53Z</time>
      </trkpt>
      <trkpt lat="48.03506" lon="6.68735">
        <ele>479.9</ele>
        <time>2022-05-27T09:42:54Z</time>
      </trkpt>
      <trkpt lat="48.03515" lon="6.68726">
        <ele>480.4</ele>
        <time>2022-05-27T09:43:02Z</time>
      </trkpt>
      <trkpt lat="48.03522" lon="6.68715">
        <ele>479.1</ele>
        <time>2022-05-27T09:43:05Z</time>
      </trkpt>
      <trkpt lat="48.03528" lon="6.68704">
        <ele>479.1</ele>
        <time>2022-05-27T09:43:08Z</time>
      </trkpt>
      <trkpt lat="48.03534" lon="6.68689">
        <ele>481.4</ele>
        <time>2022-05-27T09:43:12Z</time>
      </trkpt>
      <trkpt lat="48.0354" lon="6.68676">
        <ele>481.1</ele>
        <time>2022-05-27T09:43:18Z</time>
      </trkpt>
      <trkpt lat="48.03545" lon="6.68663">
        <ele>481.6</ele>
        <time>2022-05-27T09:43:21Z</time>
      </trkpt>
      <trkpt lat="48.03553" lon="6.68655">
        <ele>481.1</ele>
        <time>2022-05-27T09:43:25Z</time>
      </trkpt>
      <trkpt lat="48.03561" lon="6.68647">
        <ele>481.3</ele>
        <time>2022-05-27T09:43:30Z</time>
      </trkpt>
      <trkpt lat="48.03561" lon="6.68644">
        <ele>481.4</ele>
        <time>2022-05-27T09:43:32Z</time>
      </trkpt>
      <trkpt lat="48.03562" lon="6.68642">
        <ele>481.3</ele>
        <time>2022-05-27T09:43:40Z</time>
      </trkpt>
      <trkpt lat="48.03562" lon="6.68641">
        <ele>481.5</ele>
        <time>2022-05-27T09:43:44Z</time>
      </trkpt>
      <trkpt lat="48.03562" lon="6.68639">
        <ele>481.8</ele>
        <time>2022-05-27T09:44:16Z</time>
      </trkpt>
      <trkpt lat="48.03561" lon="6.68639">
        <ele>481.4</ele>
        <time>2022-05-27T09:44:23Z</time>
      </trkpt>
      <trkpt lat="48.03561" lon="6.68638">
        <ele>481.7</ele>
        <time>2022-05-27T09:44:30Z</time>
      </trkpt>
      <trkpt lat="48.03561" lon="6.68638">
        <ele>481.5</ele>
        <time>2022-05-27T09:44:49Z</time>
      </trkpt>
      <trkpt lat="48.0356" lon="6.68638">
        <ele>481.6</ele>
        <time>2022-05-27T09:44:55Z</time>
      </trkpt>
      <trkpt lat="48.0356" lon="6.68637">
        <ele>481.4</ele>
        <time>2022-05-27T09:44:59Z</time>
      </trkpt>
      <trkpt lat="48.03559" lon="6.68637">
        <ele>481.4</ele>
        <time>2022-05-27T09:45:02Z</time>
      </trkpt>
      <trkpt lat="48.0356" lon="6.68637">
        <ele>481.2</ele>
        <time>2022-05-27T09:45:29Z</time>
      </trkpt>
      <trkpt lat="48.03559" lon="6.68637">
        <ele>481.7</ele>
        <time>2022-05-27T09:45:55Z</time>
      </trkpt>
      <trkpt lat="48.0355" lon="6.68646">
        <ele>481.2</ele>
        <time>2022-05-27T09:46:03Z</time>
      </trkpt>
      <trkpt lat="48.0354" lon="6.68654">
        <ele>480.6</ele>
        <time>2022-05-27T09:46:07Z</time>
      </trkpt>
      <trkpt lat="48.03537" lon="6.6867">
        <ele>481</ele>
        <time>2022-05-27T09:46:11Z</time>
      </trkpt>
      <trkpt lat="48.03539" lon="6.68684">
        <ele>481.3</ele>
        <time>2022-05-27T09:46:16Z</time>
      </trkpt>
      <trkpt lat="48.03537" lon="6.68687">
        <ele>481.4</ele>
        <time>2022-05-27T09:46:21Z</time>
      </trkpt>
      <trkpt lat="48.03538" lon="6.68687">
        <ele>481</ele>
        <time>2022-05-27T09:46:23Z</time>
      </trkpt>
      <trkpt lat="48.03538" lon="6.68688">
        <ele>481.1</ele>
        <time>2022-05-27T09:46:31Z</time>
      </trkpt>
      <trkpt lat="48.03539" lon="6.68688">
        <ele>481.1</ele>
        <time>2022-05-27T09:46:34Z</time>
      </trkpt>
      <trkpt lat="48.03539" lon="6.68688">
        <ele>481.5</ele>
        <time>2022-05-27T09:46:46Z</time>
      </trkpt>
      <trkpt lat="48.03539" lon="6.68687">
        <ele>480.9</ele>
        <time>2022-05-27T09:46:50Z</time>
      </trkpt>
      <trkpt lat="48.03539" lon="6.68686">
        <ele>481</ele>
        <time>2022-05-27T09:46:54Z</time>
      </trkpt>
      <trkpt lat="48.03541" lon="6.6867">
        <ele>479.4</ele>
        <time>2022-05-27T09:46:59Z</time>
      </trkpt>
      <trkpt lat="48.03546" lon="6.68657">
        <ele>480</ele>
        <time>2022-05-27T09:47:02Z</time>
      </trkpt>
      <trkpt lat="48.03555" lon="6.68651">
        <ele>480.8</ele>
        <time>2022-05-27T09:47:06Z</time>
      </trkpt>
      <trkpt lat="48.03562" lon="6.68643">
        <ele>481.3</ele>
        <time>2022-05-27T09:47:11Z</time>
      </trkpt>
      <trkpt lat="48.03563" lon="6.68641">
        <ele>481.4</ele>
        <time>2022-05-27T09:47:13Z</time>
      </trkpt>
      <trkpt lat="48.03573" lon="6.68631">
        <ele>481.1</ele>
        <time>2022-05-27T09:47:19Z</time>
      </trkpt>
      <trkpt lat="48.03582" lon="6.68625">
        <ele>481.2</ele>
        <time>2022-05-27T09:47:22Z</time>
      </trkpt>
      <trkpt lat="48.03591" lon="6.68616">
        <ele>481.6</ele>
        <time>2022-05-27T09:47:25Z</time>
      </trkpt>
      <trkpt lat="48.03599" lon="6.68608">
        <ele>481.3</ele>
        <time>2022-05-27T09:47:28Z</time>
      </trkpt>
      <trkpt lat="48.03608" lon="6.68598">
        <ele>481.2</ele>
        <time>2022-05-27T09:47:32Z</time>
      </trkpt>
      <trkpt lat="48.03618" lon="6.68585">
        <ele>480.2</ele>
        <time>2022-05-27T09:47:36Z</time>
      </trkpt>
      <trkpt lat="48.03628" lon="6.68573">
        <ele>476</ele>
        <time>2022-05-27T09:47:39Z</time>
      </trkpt>
      <trkpt lat="48.03639" lon="6.68562">
        <ele>474.5</ele>
        <time>2022-05-27T09:47:42Z</time>
      </trkpt>
      <trkpt lat="48.03649" lon="6.68558">
        <ele>473.5</ele>
        <time>2022-05-27T09:47:44Z</time>
      </trkpt>
      <trkpt lat="48.03661" lon="6.68559">
        <ele>474</ele>
        <time>2022-05-27T09:47:47Z</time>
      </trkpt>
      <trkpt lat="48.03671" lon="6.68558">
        <ele>474.8</ele>
        <time>2022-05-27T09:47:52Z</time>
      </trkpt>
      <trkpt lat="48.0368" lon="6.68556">
        <ele>475</ele>
        <time>2022-05-27T09:47:58Z</time>
      </trkpt>
      <trkpt lat="48.03691" lon="6.68552">
        <ele>474.8</ele>
        <time>2022-05-27T09:48:03Z</time>
      </trkpt>
      <trkpt lat="48.03701" lon="6.68547">
        <ele>475.4</ele>
        <time>2022-05-27T09:48:08Z</time>
      </trkpt>
      <trkpt lat="48.03709" lon="6.68556">
        <ele>473.9</ele>
        <time>2022-05-27T09:48:12Z</time>
      </trkpt>
      <trkpt lat="48.03708" lon="6.68569">
        <ele>473.6</ele>
        <time>2022-05-27T09:48:16Z</time>
      </trkpt>
      <trkpt lat="48.03701" lon="6.68581">
        <ele>473.6</ele>
        <time>2022-05-27T09:48:19Z</time>
      </trkpt>
      <trkpt lat="48.03693" lon="6.68594">
        <ele>472</ele>
        <time>2022-05-27T09:48:22Z</time>
      </trkpt>
      <trkpt lat="48.03685" lon="6.68604">
        <ele>471.5</ele>
        <time>2022-05-27T09:48:25Z</time>
      </trkpt>
      <trkpt lat="48.03678" lon="6.68618">
        <ele>470.9</ele>
        <time>2022-05-27T09:48:28Z</time>
      </trkpt>
      <trkpt lat="48.03674" lon="6.6863">
        <ele>472.8</ele>
        <time>2022-05-27T09:48:31Z</time>
      </trkpt>
      <trkpt lat="48.03672" lon="6.68645">
        <ele>472.7</ele>
        <time>2022-05-27T09:48:36Z</time>
      </trkpt>
      <trkpt lat="48.0368" lon="6.68657">
        <ele>471.7</ele>
        <time>2022-05-27T09:48:41Z</time>
      </trkpt>
      <trkpt lat="48.0369" lon="6.68666">
        <ele>471.4</ele>
        <time>2022-05-27T09:48:45Z</time>
      </trkpt>
      <trkpt lat="48.03698" lon="6.68672">
        <ele>471</ele>
        <time>2022-05-27T09:48:48Z</time>
      </trkpt>
      <trkpt lat="48.03707" lon="6.68673">
        <ele>472.6</ele>
        <time>2022-05-27T09:48:51Z</time>
      </trkpt>
      <trkpt lat="48.03717" lon="6.68668">
        <ele>475.5</ele>
        <time>2022-05-27T09:48:55Z</time>
      </trkpt>
      <trkpt lat="48.03725" lon="6.6866">
        <ele>473.4</ele>
        <time>2022-05-27T09:48:59Z</time>
      </trkpt>
      <trkpt lat="48.03735" lon="6.68652">
        <ele>473.9</ele>
        <time>2022-05-27T09:49:04Z</time>
      </trkpt>
      <trkpt lat="48.03743" lon="6.68643">
        <ele>475</ele>
        <time>2022-05-27T09:49:08Z</time>
      </trkpt>
      <trkpt lat="48.03752" lon="6.68634">
        <ele>474.6</ele>
        <time>2022-05-27T09:49:13Z</time>
      </trkpt>
      <trkpt lat="48.03759" lon="6.68624">
        <ele>475.6</ele>
        <time>2022-05-27T09:49:17Z</time>
      </trkpt>
      <trkpt lat="48.03768" lon="6.68613">
        <ele>475.7</ele>
        <time>2022-05-27T09:49:22Z</time>
      </trkpt>
      <trkpt lat="48.03777" lon="6.68603">
        <ele>475.8</ele>
        <time>2022-05-27T09:49:26Z</time>
      </trkpt>
      <trkpt lat="48.03785" lon="6.68593">
        <ele>474.5</ele>
        <time>2022-05-27T09:49:29Z</time>
      </trkpt>
      <trkpt lat="48.03794" lon="6.68578">
        <ele>473.9</ele>
        <time>2022-05-27T09:49:32Z</time>
      </trkpt>
      <trkpt lat="48.03802" lon="6.68567">
        <ele>474.2</ele>
        <time>2022-05-27T09:49:34Z</time>
      </trkpt>
      <trkpt lat="48.03811" lon="6.68559">
        <ele>474.2</ele>
        <time>2022-05-27T09:49:36Z</time>
      </trkpt>
      <trkpt lat="48.03822" lon="6.68553">
        <ele>473.9</ele>
        <time>2022-05-27T09:49:39Z</time>
      </trkpt>
      <trkpt lat="48.03831" lon="6.68547">
        <ele>474.2</ele>
        <time>2022-05-27T09:49:42Z</time>
      </trkpt>
      <trkpt lat="48.03841" lon="6.68542">
        <ele>474.8</ele>
        <time>2022-05-27T09:49:46Z</time>
      </trkpt>
      <trkpt lat="48.0385" lon="6.68536">
        <ele>475.4</ele>
        <time>2022-05-27T09:49:50Z</time>
      </trkpt>
      <trkpt lat="48.0386" lon="6.6853">
        <ele>475.8</ele>
        <time>2022-05-27T09:49:54Z</time>
      </trkpt>
      <trkpt lat="48.03869" lon="6.68524">
        <ele>475.7</ele>
        <time>2022-05-27T09:49:57Z</time>
      </trkpt>
      <trkpt lat="48.03877" lon="6.68519">
        <ele>475.5</ele>
        <time>2022-05-27T09:50:00Z</time>
      </trkpt>
      <trkpt lat="48.03888" lon="6.68514">
        <ele>476.3</ele>
        <time>2022-05-27T09:50:04Z</time>
      </trkpt>
      <trkpt lat="48.039" lon="6.6851">
        <ele>476.7</ele>
        <time>2022-05-27T09:50:08Z</time>
      </trkpt>
      <trkpt lat="48.0391" lon="6.68508">
        <ele>477.6</ele>
        <time>2022-05-27T09:50:12Z</time>
      </trkpt>
      <trkpt lat="48.0392" lon="6.68504">
        <ele>478.3</ele>
        <time>2022-05-27T09:50:16Z</time>
      </trkpt>
      <trkpt lat="48.03931" lon="6.68496">
        <ele>478.2</ele>
        <time>2022-05-27T09:50:20Z</time>
      </trkpt>
      <trkpt lat="48.03939" lon="6.6849">
        <ele>478.2</ele>
        <time>2022-05-27T09:50:23Z</time>
      </trkpt>
      <trkpt lat="48.03947" lon="6.68482">
        <ele>478.3</ele>
        <time>2022-05-27T09:50:27Z</time>
      </trkpt>
      <trkpt lat="48.03956" lon="6.68474">
        <ele>479.1</ele>
        <time>2022-05-27T09:50:31Z</time>
      </trkpt>
      <trkpt lat="48.03965" lon="6.68467">
        <ele>480.5</ele>
        <time>2022-05-27T09:50:36Z</time>
      </trkpt>
      <trkpt lat="48.03976" lon="6.68465">
        <ele>481.7</ele>
        <time>2022-05-27T09:50:41Z</time>
      </trkpt>
      <trkpt lat="48.03986" lon="6.68469">
        <ele>482.9</ele>
        <time>2022-05-27T09:50:46Z</time>
      </trkpt>
      <trkpt lat="48.03995" lon="6.68472">
        <ele>483.9</ele>
        <time>2022-05-27T09:50:51Z</time>
      </trkpt>
      <trkpt lat="48.04004" lon="6.68475">
        <ele>485.3</ele>
        <time>2022-05-27T09:50:57Z</time>
      </trkpt>
      <trkpt lat="48.04013" lon="6.68478">
        <ele>486.3</ele>
        <time>2022-05-27T09:51:03Z</time>
      </trkpt>
      <trkpt lat="48.04023" lon="6.68483">
        <ele>487.4</ele>
        <time>2022-05-27T09:51:09Z</time>
      </trkpt>
      <trkpt lat="48.04034" lon="6.68486">
        <ele>488.5</ele>
        <time>2022-05-27T09:51:15Z</time>
      </trkpt>
      <trkpt lat="48.04043" lon="6.68483">
        <ele>489</ele>
        <time>2022-05-27T09:51:21Z</time>
      </trkpt>
      <trkpt lat="48.04053" lon="6.68478">
        <ele>489.6</ele>
        <time>2022-05-27T09:51:26Z</time>
      </trkpt>
      <trkpt lat="48.04062" lon="6.68472">
        <ele>489.9</ele>
        <time>2022-05-27T09:51:31Z</time>
      </trkpt>
      <trkpt lat="48.04072" lon="6.68469">
        <ele>490.1</ele>
        <time>2022-05-27T09:51:36Z</time>
      </trkpt>
      <trkpt lat="48.04082" lon="6.68465">
        <ele>491.6</ele>
        <time>2022-05-27T09:51:41Z</time>
      </trkpt>
      <trkpt lat="48.04091" lon="6.68462">
        <ele>493.6</ele>
        <time>2022-05-27T09:51:47Z</time>
      </trkpt>
      <trkpt lat="48.04101" lon="6.68458">
        <ele>495.1</ele>
        <time>2022-05-27T09:51:55Z</time>
      </trkpt>
      <trkpt lat="48.0411" lon="6.68454">
        <ele>496.7</ele>
        <time>2022-05-27T09:52:00Z</time>
      </trkpt>
      <trkpt lat="48.0412" lon="6.68447">
        <ele>497.7</ele>
        <time>2022-05-27T09:52:06Z</time>
      </trkpt>
      <trkpt lat="48.0413" lon="6.68443">
        <ele>499.4</ele>
        <time>2022-05-27T09:52:12Z</time>
      </trkpt>
      <trkpt lat="48.0414" lon="6.68444">
        <ele>500.5</ele>
        <time>2022-05-27T09:52:18Z</time>
      </trkpt>
      <trkpt lat="48.04149" lon="6.68446">
        <ele>501</ele>
        <time>2022-05-27T09:52:24Z</time>
      </trkpt>
      <trkpt lat="48.04159" lon="6.68449">
        <ele>502.9</ele>
        <time>2022-05-27T09:52:30Z</time>
      </trkpt>
      <trkpt lat="48.04168" lon="6.68453">
        <ele>503.8</ele>
        <time>2022-05-27T09:52:36Z</time>
      </trkpt>
      <trkpt lat="48.04176" lon="6.68458">
        <ele>506.4</ele>
        <time>2022-05-27T09:52:42Z</time>
      </trkpt>
      <trkpt lat="48.04185" lon="6.68465">
        <ele>506.2</ele>
        <time>2022-05-27T09:52:48Z</time>
      </trkpt>
      <trkpt lat="48.04193" lon="6.68474">
        <ele>508.9</ele>
        <time>2022-05-27T09:52:58Z</time>
      </trkpt>
      <trkpt lat="48.042" lon="6.68484">
        <ele>510.6</ele>
        <time>2022-05-27T09:53:04Z</time>
      </trkpt>
      <trkpt lat="48.04209" lon="6.6849">
        <ele>512.2</ele>
        <time>2022-05-27T09:53:09Z</time>
      </trkpt>
      <trkpt lat="48.04217" lon="6.68496">
        <ele>513.9</ele>
        <time>2022-05-27T09:53:15Z</time>
      </trkpt>
      <trkpt lat="48.04226" lon="6.685">
        <ele>514.9</ele>
        <time>2022-05-27T09:53:21Z</time>
      </trkpt>
      <trkpt lat="48.04234" lon="6.6851">
        <ele>515.7</ele>
        <time>2022-05-27T09:53:29Z</time>
      </trkpt>
      <trkpt lat="48.0424" lon="6.68521">
        <ele>516.7</ele>
        <time>2022-05-27T09:53:35Z</time>
      </trkpt>
      <trkpt lat="48.04241" lon="6.68535">
        <ele>519.5</ele>
        <time>2022-05-27T09:53:42Z</time>
      </trkpt>
      <trkpt lat="48.04234" lon="6.68546">
        <ele>520.9</ele>
        <time>2022-05-27T09:53:49Z</time>
      </trkpt>
      <trkpt lat="48.04227" lon="6.68554">
        <ele>522.3</ele>
        <time>2022-05-27T09:53:56Z</time>
      </trkpt>
      <trkpt lat="48.04217" lon="6.68562">
        <ele>523.4</ele>
        <time>2022-05-27T09:54:03Z</time>
      </trkpt>
      <trkpt lat="48.0421" lon="6.68571">
        <ele>524.4</ele>
        <time>2022-05-27T09:54:09Z</time>
      </trkpt>
      <trkpt lat="48.04203" lon="6.68582">
        <ele>525.5</ele>
        <time>2022-05-27T09:54:15Z</time>
      </trkpt>
      <trkpt lat="48.04197" lon="6.68594">
        <ele>527.6</ele>
        <time>2022-05-27T09:54:22Z</time>
      </trkpt>
      <trkpt lat="48.04189" lon="6.68603">
        <ele>529.1</ele>
        <time>2022-05-27T09:54:29Z</time>
      </trkpt>
      <trkpt lat="48.0418" lon="6.68607">
        <ele>530.2</ele>
        <time>2022-05-27T09:54:35Z</time>
      </trkpt>
      <trkpt lat="48.04169" lon="6.68607">
        <ele>530.6</ele>
        <time>2022-05-27T09:54:41Z</time>
      </trkpt>
      <trkpt lat="48.04159" lon="6.68605">
        <ele>531.9</ele>
        <time>2022-05-27T09:54:46Z</time>
      </trkpt>
      <trkpt lat="48.04149" lon="6.686">
        <ele>532</ele>
        <time>2022-05-27T09:54:51Z</time>
      </trkpt>
      <trkpt lat="48.04138" lon="6.68597">
        <ele>532.8</ele>
        <time>2022-05-27T09:54:56Z</time>
      </trkpt>
      <trkpt lat="48.04127" lon="6.68594">
        <ele>532.2</ele>
        <time>2022-05-27T09:55:00Z</time>
      </trkpt>
      <trkpt lat="48.04118" lon="6.68595">
        <ele>532.5</ele>
        <time>2022-05-27T09:55:04Z</time>
      </trkpt>
      <trkpt lat="48.04113" lon="6.68601">
        <ele>532.6</ele>
        <time>2022-05-27T09:55:12Z</time>
      </trkpt>
      <trkpt lat="48.04112" lon="6.68601">
        <ele>532.7</ele>
        <time>2022-05-27T09:55:46Z</time>
      </trkpt>
      <trkpt lat="48.04101" lon="6.68607">
        <ele>531.8</ele>
        <time>2022-05-27T09:55:52Z</time>
      </trkpt>
      <trkpt lat="48.04092" lon="6.68613">
        <ele>531.4</ele>
        <time>2022-05-27T09:55:55Z</time>
      </trkpt>
      <trkpt lat="48.04082" lon="6.68618">
        <ele>531.3</ele>
        <time>2022-05-27T09:55:58Z</time>
      </trkpt>
      <trkpt lat="48.04072" lon="6.68625">
        <ele>531.2</ele>
        <time>2022-05-27T09:56:01Z</time>
      </trkpt>
      <trkpt lat="48.04062" lon="6.68633">
        <ele>531.2</ele>
        <time>2022-05-27T09:56:04Z</time>
      </trkpt>
      <trkpt lat="48.04052" lon="6.6864">
        <ele>530.2</ele>
        <time>2022-05-27T09:56:07Z</time>
      </trkpt>
      <trkpt lat="48.04042" lon="6.68648">
        <ele>531.3</ele>
        <time>2022-05-27T09:56:10Z</time>
      </trkpt>
      <trkpt lat="48.0403" lon="6.68653">
        <ele>532.1</ele>
        <time>2022-05-27T09:56:13Z</time>
      </trkpt>
      <trkpt lat="48.04019" lon="6.68658">
        <ele>531.5</ele>
        <time>2022-05-27T09:56:16Z</time>
      </trkpt>
      <trkpt lat="48.0401" lon="6.68664">
        <ele>531.7</ele>
        <time>2022-05-27T09:56:19Z</time>
      </trkpt>
      <trkpt lat="48.04" lon="6.68671">
        <ele>531.3</ele>
        <time>2022-05-27T09:56:22Z</time>
      </trkpt>
      <trkpt lat="48.03991" lon="6.68679">
        <ele>531.3</ele>
        <time>2022-05-27T09:56:25Z</time>
      </trkpt>
      <trkpt lat="48.03981" lon="6.68686">
        <ele>531.5</ele>
        <time>2022-05-27T09:56:28Z</time>
      </trkpt>
      <trkpt lat="48.03971" lon="6.68693">
        <ele>531.9</ele>
        <time>2022-05-27T09:56:31Z</time>
      </trkpt>
      <trkpt lat="48.03961" lon="6.68699">
        <ele>532.2</ele>
        <time>2022-05-27T09:56:34Z</time>
      </trkpt>
      <trkpt lat="48.03952" lon="6.68706">
        <ele>531.4</ele>
        <time>2022-05-27T09:56:37Z</time>
      </trkpt>
      <trkpt lat="48.03945" lon="6.68715">
        <ele>531.7</ele>
        <time>2022-05-27T09:56:40Z</time>
      </trkpt>
      <trkpt lat="48.03938" lon="6.68725">
        <ele>531.2</ele>
        <time>2022-05-27T09:56:43Z</time>
      </trkpt>
      <trkpt lat="48.0393" lon="6.68736">
        <ele>532.3</ele>
        <time>2022-05-27T09:56:47Z</time>
      </trkpt>
      <trkpt lat="48.03926" lon="6.68749">
        <ele>532.1</ele>
        <time>2022-05-27T09:56:51Z</time>
      </trkpt>
      <trkpt lat="48.03922" lon="6.68761">
        <ele>534</ele>
        <time>2022-05-27T09:56:55Z</time>
      </trkpt>
      <trkpt lat="48.03917" lon="6.68773">
        <ele>534</ele>
        <time>2022-05-27T09:56:59Z</time>
      </trkpt>
      <trkpt lat="48.03912" lon="6.68785">
        <ele>536.3</ele>
        <time>2022-05-27T09:57:05Z</time>
      </trkpt>
      <trkpt lat="48.03908" lon="6.68799">
        <ele>537.8</ele>
        <time>2022-05-27T09:57:11Z</time>
      </trkpt>
      <trkpt lat="48.03905" lon="6.68812">
        <ele>538.5</ele>
        <time>2022-05-27T09:57:16Z</time>
      </trkpt>
      <trkpt lat="48.039" lon="6.68823">
        <ele>540.8</ele>
        <time>2022-05-27T09:57:21Z</time>
      </trkpt>
      <trkpt lat="48.03897" lon="6.68838">
        <ele>541.9</ele>
        <time>2022-05-27T09:57:26Z</time>
      </trkpt>
      <trkpt lat="48.03896" lon="6.68852">
        <ele>543.4</ele>
        <time>2022-05-27T09:57:31Z</time>
      </trkpt>
      <trkpt lat="48.03894" lon="6.68865">
        <ele>544.2</ele>
        <time>2022-05-27T09:57:36Z</time>
      </trkpt>
      <trkpt lat="48.0389" lon="6.68878">
        <ele>545.9</ele>
        <time>2022-05-27T09:57:41Z</time>
      </trkpt>
      <trkpt lat="48.03887" lon="6.68892">
        <ele>546.4</ele>
        <time>2022-05-27T09:57:47Z</time>
      </trkpt>
      <trkpt lat="48.03882" lon="6.68906">
        <ele>548.3</ele>
        <time>2022-05-27T09:57:53Z</time>
      </trkpt>
      <trkpt lat="48.03878" lon="6.68918">
        <ele>550.2</ele>
        <time>2022-05-27T09:57:58Z</time>
      </trkpt>
      <trkpt lat="48.03875" lon="6.68932">
        <ele>550.6</ele>
        <time>2022-05-27T09:58:03Z</time>
      </trkpt>
      <trkpt lat="48.0387" lon="6.68945">
        <ele>551.4</ele>
        <time>2022-05-27T09:58:08Z</time>
      </trkpt>
      <trkpt lat="48.03865" lon="6.68957">
        <ele>553.5</ele>
        <time>2022-05-27T09:58:13Z</time>
      </trkpt>
      <trkpt lat="48.03859" lon="6.68971">
        <ele>553.3</ele>
        <time>2022-05-27T09:58:18Z</time>
      </trkpt>
      <trkpt lat="48.03853" lon="6.68981">
        <ele>554</ele>
        <time>2022-05-27T09:58:22Z</time>
      </trkpt>
      <trkpt lat="48.03846" lon="6.68992">
        <ele>555.6</ele>
        <time>2022-05-27T09:58:26Z</time>
      </trkpt>
      <trkpt lat="48.0384" lon="6.69003">
        <ele>556.1</ele>
        <time>2022-05-27T09:58:30Z</time>
      </trkpt>
      <trkpt lat="48.03832" lon="6.69013">
        <ele>556.5</ele>
        <time>2022-05-27T09:58:34Z</time>
      </trkpt>
      <trkpt lat="48.03825" lon="6.69023">
        <ele>557.5</ele>
        <time>2022-05-27T09:58:38Z</time>
      </trkpt>
      <trkpt lat="48.03819" lon="6.69034">
        <ele>557.6</ele>
        <time>2022-05-27T09:58:42Z</time>
      </trkpt>
      <trkpt lat="48.03811" lon="6.69044">
        <ele>557.4</ele>
        <time>2022-05-27T09:58:46Z</time>
      </trkpt>
      <trkpt lat="48.03802" lon="6.69053">
        <ele>558.2</ele>
        <time>2022-05-27T09:58:50Z</time>
      </trkpt>
      <trkpt lat="48.03793" lon="6.69062">
        <ele>558.3</ele>
        <time>2022-05-27T09:58:54Z</time>
      </trkpt>
      <trkpt lat="48.03783" lon="6.69069">
        <ele>558.3</ele>
        <time>2022-05-27T09:58:58Z</time>
      </trkpt>
      <trkpt lat="48.03772" lon="6.69077">
        <ele>558.4</ele>
        <time>2022-05-27T09:59:02Z</time>
      </trkpt>
      <trkpt lat="48.03764" lon="6.69083">
        <ele>558.4</ele>
        <time>2022-05-27T09:59:05Z</time>
      </trkpt>
      <trkpt lat="48.03756" lon="6.6909">
        <ele>558.5</ele>
        <time>2022-05-27T09:59:08Z</time>
      </trkpt>
      <trkpt lat="48.03748" lon="6.69099">
        <ele>559.3</ele>
        <time>2022-05-27T09:59:11Z</time>
      </trkpt>
      <trkpt lat="48.03741" lon="6.69108">
        <ele>559.2</ele>
        <time>2022-05-27T09:59:14Z</time>
      </trkpt>
      <trkpt lat="48.03732" lon="6.69118">
        <ele>560.1</ele>
        <time>2022-05-27T09:59:18Z</time>
      </trkpt>
      <trkpt lat="48.03722" lon="6.69126">
        <ele>560.8</ele>
        <time>2022-05-27T09:59:22Z</time>
      </trkpt>
      <trkpt lat="48.03712" lon="6.69134">
        <ele>561.2</ele>
        <time>2022-05-27T09:59:26Z</time>
      </trkpt>
      <trkpt lat="48.03703" lon="6.69142">
        <ele>560.8</ele>
        <time>2022-05-27T09:59:30Z</time>
      </trkpt>
      <trkpt lat="48.03694" lon="6.69151">
        <ele>561.3</ele>
        <time>2022-05-27T09:59:34Z</time>
      </trkpt>
      <trkpt lat="48.03685" lon="6.69161">
        <ele>561.5</ele>
        <time>2022-05-27T09:59:38Z</time>
      </trkpt>
      <trkpt lat="48.03676" lon="6.69172">
        <ele>560.7</ele>
        <time>2022-05-27T09:59:42Z</time>
      </trkpt>
      <trkpt lat="48.03668" lon="6.6918">
        <ele>562.4</ele>
        <time>2022-05-27T09:59:46Z</time>
      </trkpt>
      <trkpt lat="48.0366" lon="6.69188">
        <ele>562.3</ele>
        <time>2022-05-27T09:59:50Z</time>
      </trkpt>
      <trkpt lat="48.03652" lon="6.69195">
        <ele>565.4</ele>
        <time>2022-05-27T09:59:55Z</time>
      </trkpt>
      <trkpt lat="48.03643" lon="6.69202">
        <ele>566.3</ele>
        <time>2022-05-27T10:00:01Z</time>
      </trkpt>
      <trkpt lat="48.03635" lon="6.69211">
        <ele>568.9</ele>
        <time>2022-05-27T10:00:07Z</time>
      </trkpt>
      <trkpt lat="48.03626" lon="6.69217">
        <ele>569.5</ele>
        <time>2022-05-27T10:00:12Z</time>
      </trkpt>
      <trkpt lat="48.03618" lon="6.69225">
        <ele>569.7</ele>
        <time>2022-05-27T10:00:17Z</time>
      </trkpt>
      <trkpt lat="48.03611" lon="6.69236">
        <ele>571.2</ele>
        <time>2022-05-27T10:00:23Z</time>
      </trkpt>
      <trkpt lat="48.03602" lon="6.69245">
        <ele>572.6</ele>
        <time>2022-05-27T10:00:29Z</time>
      </trkpt>
      <trkpt lat="48.03594" lon="6.69253">
        <ele>574.8</ele>
        <time>2022-05-27T10:00:35Z</time>
      </trkpt>
      <trkpt lat="48.03584" lon="6.69261">
        <ele>575.9</ele>
        <time>2022-05-27T10:00:41Z</time>
      </trkpt>
      <trkpt lat="48.03576" lon="6.69267">
        <ele>576.8</ele>
        <time>2022-05-27T10:00:47Z</time>
      </trkpt>
      <trkpt lat="48.03567" lon="6.69274">
        <ele>578.3</ele>
        <time>2022-05-27T10:00:52Z</time>
      </trkpt>
      <trkpt lat="48.03568" lon="6.6929">
        <ele>579.2</ele>
        <time>2022-05-27T10:00:57Z</time>
      </trkpt>
      <trkpt lat="48.03575" lon="6.69298">
        <ele>580.7</ele>
        <time>2022-05-27T10:01:02Z</time>
      </trkpt>
      <trkpt lat="48.03584" lon="6.69297">
        <ele>581.6</ele>
        <time>2022-05-27T10:01:07Z</time>
      </trkpt>
      <trkpt lat="48.03593" lon="6.69296">
        <ele>582.6</ele>
        <time>2022-05-27T10:01:12Z</time>
      </trkpt>
      <trkpt lat="48.03598" lon="6.69307">
        <ele>583.4</ele>
        <time>2022-05-27T10:01:16Z</time>
      </trkpt>
      <trkpt lat="48.03593" lon="6.69319">
        <ele>584.6</ele>
        <time>2022-05-27T10:01:21Z</time>
      </trkpt>
      <trkpt lat="48.03583" lon="6.69319">
        <ele>584.6</ele>
        <time>2022-05-27T10:01:25Z</time>
      </trkpt>
      <trkpt lat="48.03574" lon="6.6932">
        <ele>585.2</ele>
        <time>2022-05-27T10:01:29Z</time>
      </trkpt>
      <trkpt lat="48.03565" lon="6.69321">
        <ele>586.2</ele>
        <time>2022-05-27T10:01:33Z</time>
      </trkpt>
      <trkpt lat="48.03556" lon="6.69324">
        <ele>585.5</ele>
        <time>2022-05-27T10:01:37Z</time>
      </trkpt>
      <trkpt lat="48.03547" lon="6.69331">
        <ele>585.7</ele>
        <time>2022-05-27T10:01:41Z</time>
      </trkpt>
      <trkpt lat="48.03538" lon="6.6934">
        <ele>586.6</ele>
        <time>2022-05-27T10:01:45Z</time>
      </trkpt>
      <trkpt lat="48.03531" lon="6.6935">
        <ele>586.4</ele>
        <time>2022-05-27T10:01:48Z</time>
      </trkpt>
      <trkpt lat="48.03523" lon="6.69362">
        <ele>586.7</ele>
        <time>2022-05-27T10:01:52Z</time>
      </trkpt>
      <trkpt lat="48.03516" lon="6.69373">
        <ele>586.8</ele>
        <time>2022-05-27T10:01:56Z</time>
      </trkpt>
      <trkpt lat="48.0351" lon="6.69385">
        <ele>587.6</ele>
        <time>2022-05-27T10:02:00Z</time>
      </trkpt>
      <trkpt lat="48.03504" lon="6.69398">
        <ele>587.5</ele>
        <time>2022-05-27T10:02:04Z</time>
      </trkpt>
      <trkpt lat="48.03497" lon="6.69412">
        <ele>587.5</ele>
        <time>2022-05-27T10:02:08Z</time>
      </trkpt>
      <trkpt lat="48.03491" lon="6.69426">
        <ele>587.7</ele>
        <time>2022-05-27T10:02:12Z</time>
      </trkpt>
      <trkpt lat="48.03485" lon="6.69439">
        <ele>587.5</ele>
        <time>2022-05-27T10:02:16Z</time>
      </trkpt>
      <trkpt lat="48.0348" lon="6.69452">
        <ele>587.7</ele>
        <time>2022-05-27T10:02:20Z</time>
      </trkpt>
      <trkpt lat="48.03477" lon="6.69467">
        <ele>589.3</ele>
        <time>2022-05-27T10:02:24Z</time>
      </trkpt>
      <trkpt lat="48.03477" lon="6.69484">
        <ele>589.6</ele>
        <time>2022-05-27T10:02:28Z</time>
      </trkpt>
      <trkpt lat="48.03477" lon="6.69497">
        <ele>590.4</ele>
        <time>2022-05-27T10:02:32Z</time>
      </trkpt>
      <trkpt lat="48.03478" lon="6.69514">
        <ele>590.7</ele>
        <time>2022-05-27T10:02:37Z</time>
      </trkpt>
      <trkpt lat="48.03476" lon="6.69529">
        <ele>591.9</ele>
        <time>2022-05-27T10:02:42Z</time>
      </trkpt>
      <trkpt lat="48.03467" lon="6.69538">
        <ele>593.9</ele>
        <time>2022-05-27T10:02:47Z</time>
      </trkpt>
      <trkpt lat="48.03456" lon="6.69543">
        <ele>593.8</ele>
        <time>2022-05-27T10:02:52Z</time>
      </trkpt>
      <trkpt lat="48.03446" lon="6.69547">
        <ele>594.7</ele>
        <time>2022-05-27T10:02:57Z</time>
      </trkpt>
      <trkpt lat="48.03438" lon="6.69552">
        <ele>595.1</ele>
        <time>2022-05-27T10:03:01Z</time>
      </trkpt>
      <trkpt lat="48.03429" lon="6.6956">
        <ele>595.3</ele>
        <time>2022-05-27T10:03:05Z</time>
      </trkpt>
      <trkpt lat="48.0342" lon="6.69571">
        <ele>596.1</ele>
        <time>2022-05-27T10:03:09Z</time>
      </trkpt>
      <trkpt lat="48.03413" lon="6.69581">
        <ele>597.8</ele>
        <time>2022-05-27T10:03:13Z</time>
      </trkpt>
      <trkpt lat="48.03406" lon="6.69594">
        <ele>598.8</ele>
        <time>2022-05-27T10:03:18Z</time>
      </trkpt>
      <trkpt lat="48.034" lon="6.69606">
        <ele>599.5</ele>
        <time>2022-05-27T10:03:23Z</time>
      </trkpt>
      <trkpt lat="48.03393" lon="6.69619">
        <ele>599</ele>
        <time>2022-05-27T10:03:28Z</time>
      </trkpt>
      <trkpt lat="48.03389" lon="6.69632">
        <ele>599.8</ele>
        <time>2022-05-27T10:03:32Z</time>
      </trkpt>
      <trkpt lat="48.03387" lon="6.69646">
        <ele>600.3</ele>
        <time>2022-05-27T10:03:36Z</time>
      </trkpt>
      <trkpt lat="48.03386" lon="6.6966">
        <ele>600.5</ele>
        <time>2022-05-27T10:03:40Z</time>
      </trkpt>
      <trkpt lat="48.03388" lon="6.69674">
        <ele>601.5</ele>
        <time>2022-05-27T10:03:44Z</time>
      </trkpt>
      <trkpt lat="48.03389" lon="6.6969">
        <ele>603.5</ele>
        <time>2022-05-27T10:03:49Z</time>
      </trkpt>
      <trkpt lat="48.03391" lon="6.69706">
        <ele>603.9</ele>
        <time>2022-05-27T10:03:54Z</time>
      </trkpt>
      <trkpt lat="48.03393" lon="6.69721">
        <ele>605.7</ele>
        <time>2022-05-27T10:03:59Z</time>
      </trkpt>
      <trkpt lat="48.03395" lon="6.69737">
        <ele>605.6</ele>
        <time>2022-05-27T10:04:05Z</time>
      </trkpt>
      <trkpt lat="48.03398" lon="6.69752">
        <ele>607.5</ele>
        <time>2022-05-27T10:04:10Z</time>
      </trkpt>
      <trkpt lat="48.03402" lon="6.69767">
        <ele>609.2</ele>
        <time>2022-05-27T10:04:15Z</time>
      </trkpt>
      <trkpt lat="48.03404" lon="6.69781">
        <ele>610.4</ele>
        <time>2022-05-27T10:04:20Z</time>
      </trkpt>
      <trkpt lat="48.03407" lon="6.69796">
        <ele>611.9</ele>
        <time>2022-05-27T10:04:25Z</time>
      </trkpt>
      <trkpt lat="48.0341" lon="6.69812">
        <ele>613</ele>
        <time>2022-05-27T10:04:30Z</time>
      </trkpt>
      <trkpt lat="48.03417" lon="6.69823">
        <ele>614</ele>
        <time>2022-05-27T10:04:36Z</time>
      </trkpt>
      <trkpt lat="48.03426" lon="6.69817">
        <ele>615.6</ele>
        <time>2022-05-27T10:04:42Z</time>
      </trkpt>
      <trkpt lat="48.03429" lon="6.69801">
        <ele>617.1</ele>
        <time>2022-05-27T10:04:48Z</time>
      </trkpt>
      <trkpt lat="48.03428" lon="6.69787">
        <ele>617.7</ele>
        <time>2022-05-27T10:04:53Z</time>
      </trkpt>
      <trkpt lat="48.03436" lon="6.69778">
        <ele>619</ele>
        <time>2022-05-27T10:04:59Z</time>
      </trkpt>
      <trkpt lat="48.03442" lon="6.6979">
        <ele>620.1</ele>
        <time>2022-05-27T10:05:04Z</time>
      </trkpt>
      <trkpt lat="48.03446" lon="6.69803">
        <ele>620.9</ele>
        <time>2022-05-27T10:05:08Z</time>
      </trkpt>
      <trkpt lat="48.03448" lon="6.69816">
        <ele>622.1</ele>
        <time>2022-05-27T10:05:12Z</time>
      </trkpt>
      <trkpt lat="48.03449" lon="6.69831">
        <ele>622.2</ele>
        <time>2022-05-27T10:05:16Z</time>
      </trkpt>
      <trkpt lat="48.03447" lon="6.69845">
        <ele>622.7</ele>
        <time>2022-05-27T10:05:20Z</time>
      </trkpt>
      <trkpt lat="48.03443" lon="6.69859">
        <ele>623.4</ele>
        <time>2022-05-27T10:05:25Z</time>
      </trkpt>
      <trkpt lat="48.03439" lon="6.69873">
        <ele>623.2</ele>
        <time>2022-05-27T10:05:30Z</time>
      </trkpt>
      <trkpt lat="48.03433" lon="6.69887">
        <ele>623.1</ele>
        <time>2022-05-27T10:05:35Z</time>
      </trkpt>
      <trkpt lat="48.03437" lon="6.69899">
        <ele>622.6</ele>
        <time>2022-05-27T10:05:40Z</time>
      </trkpt>
      <trkpt lat="48.03443" lon="6.69889">
        <ele>624.9</ele>
        <time>2022-05-27T10:05:48Z</time>
      </trkpt>
      <trkpt lat="48.03447" lon="6.69876">
        <ele>625.9</ele>
        <time>2022-05-27T10:05:54Z</time>
      </trkpt>
      <trkpt lat="48.03454" lon="6.69866">
        <ele>627.4</ele>
        <time>2022-05-27T10:06:00Z</time>
      </trkpt>
      <trkpt lat="48.03461" lon="6.69856">
        <ele>628.6</ele>
        <time>2022-05-27T10:06:06Z</time>
      </trkpt>
      <trkpt lat="48.03469" lon="6.69849">
        <ele>631.6</ele>
        <time>2022-05-27T10:06:13Z</time>
      </trkpt>
      <trkpt lat="48.03479" lon="6.69842">
        <ele>633.1</ele>
        <time>2022-05-27T10:06:20Z</time>
      </trkpt>
      <trkpt lat="48.03487" lon="6.69835">
        <ele>635.1</ele>
        <time>2022-05-27T10:06:27Z</time>
      </trkpt>
      <trkpt lat="48.03494" lon="6.69825">
        <ele>637.4</ele>
        <time>2022-05-27T10:06:35Z</time>
      </trkpt>
      <trkpt lat="48.03501" lon="6.69815">
        <ele>639.8</ele>
        <time>2022-05-27T10:06:42Z</time>
      </trkpt>
      <trkpt lat="48.0351" lon="6.69808">
        <ele>641.7</ele>
        <time>2022-05-27T10:06:50Z</time>
      </trkpt>
      <trkpt lat="48.03518" lon="6.69802">
        <ele>643.1</ele>
        <time>2022-05-27T10:06:57Z</time>
      </trkpt>
      <trkpt lat="48.03527" lon="6.69797">
        <ele>643.9</ele>
        <time>2022-05-27T10:07:03Z</time>
      </trkpt>
      <trkpt lat="48.03536" lon="6.69789">
        <ele>645.1</ele>
        <time>2022-05-27T10:07:10Z</time>
      </trkpt>
      <trkpt lat="48.03544" lon="6.6978">
        <ele>646.9</ele>
        <time>2022-05-27T10:07:16Z</time>
      </trkpt>
      <trkpt lat="48.03552" lon="6.6977">
        <ele>647.9</ele>
        <time>2022-05-27T10:07:22Z</time>
      </trkpt>
      <trkpt lat="48.03557" lon="6.69759">
        <ele>650.1</ele>
        <time>2022-05-27T10:07:27Z</time>
      </trkpt>
      <trkpt lat="48.03562" lon="6.69745">
        <ele>649.7</ele>
        <time>2022-05-27T10:07:32Z</time>
      </trkpt>
      <trkpt lat="48.03566" lon="6.69731">
        <ele>650.1</ele>
        <time>2022-05-27T10:07:36Z</time>
      </trkpt>
      <trkpt lat="48.0357" lon="6.69719">
        <ele>650.7</ele>
        <time>2022-05-27T10:07:40Z</time>
      </trkpt>
      <trkpt lat="48.03574" lon="6.69704">
        <ele>651.4</ele>
        <time>2022-05-27T10:07:44Z</time>
      </trkpt>
      <trkpt lat="48.03577" lon="6.69689">
        <ele>651.2</ele>
        <time>2022-05-27T10:07:48Z</time>
      </trkpt>
      <trkpt lat="48.0358" lon="6.69674">
        <ele>651.3</ele>
        <time>2022-05-27T10:07:52Z</time>
      </trkpt>
      <trkpt lat="48.03587" lon="6.69659">
        <ele>652</ele>
        <time>2022-05-27T10:07:56Z</time>
      </trkpt>
      <trkpt lat="48.03593" lon="6.69648">
        <ele>652.4</ele>
        <time>2022-05-27T10:07:59Z</time>
      </trkpt>
      <trkpt lat="48.03599" lon="6.69638">
        <ele>651.4</ele>
        <time>2022-05-27T10:08:02Z</time>
      </trkpt>
      <trkpt lat="48.03607" lon="6.69629">
        <ele>651.9</ele>
        <time>2022-05-27T10:08:05Z</time>
      </trkpt>
      <trkpt lat="48.03616" lon="6.69619">
        <ele>652.5</ele>
        <time>2022-05-27T10:08:09Z</time>
      </trkpt>
      <trkpt lat="48.03623" lon="6.6961">
        <ele>653.5</ele>
        <time>2022-05-27T10:08:12Z</time>
      </trkpt>
      <trkpt lat="48.03631" lon="6.69602">
        <ele>652.3</ele>
        <time>2022-05-27T10:08:15Z</time>
      </trkpt>
      <trkpt lat="48.0364" lon="6.69596">
        <ele>654.2</ele>
        <time>2022-05-27T10:08:18Z</time>
      </trkpt>
      <trkpt lat="48.03649" lon="6.69586">
        <ele>654.1</ele>
        <time>2022-05-27T10:08:22Z</time>
      </trkpt>
      <trkpt lat="48.03657" lon="6.69579">
        <ele>653.7</ele>
        <time>2022-05-27T10:08:25Z</time>
      </trkpt>
      <trkpt lat="48.03667" lon="6.69571">
        <ele>655.2</ele>
        <time>2022-05-27T10:08:29Z</time>
      </trkpt>
      <trkpt lat="48.03675" lon="6.69563">
        <ele>654.2</ele>
        <time>2022-05-27T10:08:32Z</time>
      </trkpt>
      <trkpt lat="48.03684" lon="6.69554">
        <ele>654.8</ele>
        <time>2022-05-27T10:08:36Z</time>
      </trkpt>
      <trkpt lat="48.03692" lon="6.69546">
        <ele>654.8</ele>
        <time>2022-05-27T10:08:39Z</time>
      </trkpt>
      <trkpt lat="48.03701" lon="6.69537">
        <ele>656.2</ele>
        <time>2022-05-27T10:08:43Z</time>
      </trkpt>
      <trkpt lat="48.03711" lon="6.69526">
        <ele>655.7</ele>
        <time>2022-05-27T10:08:47Z</time>
      </trkpt>
      <trkpt lat="48.0372" lon="6.69521">
        <ele>654.6</ele>
        <time>2022-05-27T10:08:50Z</time>
      </trkpt>
      <trkpt lat="48.03731" lon="6.69516">
        <ele>655.5</ele>
        <time>2022-05-27T10:08:54Z</time>
      </trkpt>
      <trkpt lat="48.03741" lon="6.6951">
        <ele>656.6</ele>
        <time>2022-05-27T10:08:57Z</time>
      </trkpt>
      <trkpt lat="48.0375" lon="6.69503">
        <ele>655.7</ele>
        <time>2022-05-27T10:09:00Z</time>
      </trkpt>
      <trkpt lat="48.03758" lon="6.69496">
        <ele>657.1</ele>
        <time>2022-05-27T10:09:03Z</time>
      </trkpt>
      <trkpt lat="48.03766" lon="6.69489">
        <ele>657</ele>
        <time>2022-05-27T10:09:06Z</time>
      </trkpt>
      <trkpt lat="48.03775" lon="6.6948">
        <ele>655.5</ele>
        <time>2022-05-27T10:09:09Z</time>
      </trkpt>
      <trkpt lat="48.03782" lon="6.69471">
        <ele>656.8</ele>
        <time>2022-05-27T10:09:12Z</time>
      </trkpt>
      <trkpt lat="48.03791" lon="6.69464">
        <ele>657.3</ele>
        <time>2022-05-27T10:09:15Z</time>
      </trkpt>
      <trkpt lat="48.038" lon="6.69457">
        <ele>657.1</ele>
        <time>2022-05-27T10:09:18Z</time>
      </trkpt>
      <trkpt lat="48.03809" lon="6.69451">
        <ele>656.9</ele>
        <time>2022-05-27T10:09:21Z</time>
      </trkpt>
      <trkpt lat="48.03818" lon="6.69444">
        <ele>658.3</ele>
        <time>2022-05-27T10:09:24Z</time>
      </trkpt>
      <trkpt lat="48.03828" lon="6.69436">
        <ele>657.9</ele>
        <time>2022-05-27T10:09:28Z</time>
      </trkpt>
      <trkpt lat="48.03838" lon="6.69429">
        <ele>658</ele>
        <time>2022-05-27T10:09:31Z</time>
      </trkpt>
      <trkpt lat="48.03848" lon="6.69421">
        <ele>657</ele>
        <time>2022-05-27T10:09:34Z</time>
      </trkpt>
      <trkpt lat="48.03858" lon="6.69413">
        <ele>656.9</ele>
        <time>2022-05-27T10:09:37Z</time>
      </trkpt>
      <trkpt lat="48.03868" lon="6.69409">
        <ele>658.1</ele>
        <time>2022-05-27T10:09:40Z</time>
      </trkpt>
      <trkpt lat="48.03877" lon="6.69413">
        <ele>658.8</ele>
        <time>2022-05-27T10:09:44Z</time>
      </trkpt>
      <trkpt lat="48.03887" lon="6.69416">
        <ele>658.8</ele>
        <time>2022-05-27T10:09:47Z</time>
      </trkpt>
      <trkpt lat="48.03896" lon="6.6942">
        <ele>659.3</ele>
        <time>2022-05-27T10:09:50Z</time>
      </trkpt>
      <trkpt lat="48.03903" lon="6.69431">
        <ele>659.8</ele>
        <time>2022-05-27T10:09:55Z</time>
      </trkpt>
      <trkpt lat="48.03899" lon="6.69443">
        <ele>662.2</ele>
        <time>2022-05-27T10:10:02Z</time>
      </trkpt>
      <trkpt lat="48.03892" lon="6.69453">
        <ele>663.9</ele>
        <time>2022-05-27T10:10:10Z</time>
      </trkpt>
      <trkpt lat="48.03885" lon="6.69463">
        <ele>665.6</ele>
        <time>2022-05-27T10:10:17Z</time>
      </trkpt>
      <trkpt lat="48.03877" lon="6.69472">
        <ele>666.7</ele>
        <time>2022-05-27T10:10:24Z</time>
      </trkpt>
      <trkpt lat="48.0387" lon="6.69481">
        <ele>668.9</ele>
        <time>2022-05-27T10:10:31Z</time>
      </trkpt>
      <trkpt lat="48.03862" lon="6.69491">
        <ele>669.9</ele>
        <time>2022-05-27T10:10:38Z</time>
      </trkpt>
      <trkpt lat="48.03854" lon="6.695">
        <ele>671.7</ele>
        <time>2022-05-27T10:10:44Z</time>
      </trkpt>
      <trkpt lat="48.03847" lon="6.69509">
        <ele>673</ele>
        <time>2022-05-27T10:10:50Z</time>
      </trkpt>
      <trkpt lat="48.03839" lon="6.69515">
        <ele>674.5</ele>
        <time>2022-05-27T10:10:58Z</time>
      </trkpt>
      <trkpt lat="48.0383" lon="6.69518">
        <ele>675.7</ele>
        <time>2022-05-27T10:11:05Z</time>
      </trkpt>
      <trkpt lat="48.03822" lon="6.69528">
        <ele>676.9</ele>
        <time>2022-05-27T10:11:11Z</time>
      </trkpt>
      <trkpt lat="48.03814" lon="6.69537">
        <ele>677</ele>
        <time>2022-05-27T10:11:17Z</time>
      </trkpt>
      <trkpt lat="48.03807" lon="6.69546">
        <ele>678</ele>
        <time>2022-05-27T10:11:22Z</time>
      </trkpt>
      <trkpt lat="48.03799" lon="6.69555">
        <ele>679.2</ele>
        <time>2022-05-27T10:11:27Z</time>
      </trkpt>
      <trkpt lat="48.0379" lon="6.69562">
        <ele>679.2</ele>
        <time>2022-05-27T10:11:32Z</time>
      </trkpt>
      <trkpt lat="48.0378" lon="6.69571">
        <ele>679.3</ele>
        <time>2022-05-27T10:11:37Z</time>
      </trkpt>
      <trkpt lat="48.03773" lon="6.69584">
        <ele>681.4</ele>
        <time>2022-05-27T10:11:42Z</time>
      </trkpt>
      <trkpt lat="48.03766" lon="6.69593">
        <ele>682</ele>
        <time>2022-05-27T10:11:46Z</time>
      </trkpt>
      <trkpt lat="48.03757" lon="6.69602">
        <ele>682.8</ele>
        <time>2022-05-27T10:11:51Z</time>
      </trkpt>
      <trkpt lat="48.0375" lon="6.69613">
        <ele>683.1</ele>
        <time>2022-05-27T10:11:56Z</time>
      </trkpt>
      <trkpt lat="48.03742" lon="6.69623">
        <ele>684.5</ele>
        <time>2022-05-27T10:12:01Z</time>
      </trkpt>
      <trkpt lat="48.03735" lon="6.69634">
        <ele>685.4</ele>
        <time>2022-05-27T10:12:05Z</time>
      </trkpt>
      <trkpt lat="48.0373" lon="6.69646">
        <ele>686</ele>
        <time>2022-05-27T10:12:10Z</time>
      </trkpt>
      <trkpt lat="48.03724" lon="6.69657">
        <ele>687.4</ele>
        <time>2022-05-27T10:12:15Z</time>
      </trkpt>
      <trkpt lat="48.03718" lon="6.69668">
        <ele>687.9</ele>
        <time>2022-05-27T10:12:20Z</time>
      </trkpt>
      <trkpt lat="48.03711" lon="6.6968">
        <ele>689.5</ele>
        <time>2022-05-27T10:12:26Z</time>
      </trkpt>
      <trkpt lat="48.03707" lon="6.69692">
        <ele>690.8</ele>
        <time>2022-05-27T10:12:32Z</time>
      </trkpt>
      <trkpt lat="48.03701" lon="6.69704">
        <ele>692</ele>
        <time>2022-05-27T10:12:38Z</time>
      </trkpt>
      <trkpt lat="48.03693" lon="6.69715">
        <ele>692.9</ele>
        <time>2022-05-27T10:12:43Z</time>
      </trkpt>
      <trkpt lat="48.0369" lon="6.6973">
        <ele>694.1</ele>
        <time>2022-05-27T10:12:48Z</time>
      </trkpt>
      <trkpt lat="48.03687" lon="6.69746">
        <ele>695.1</ele>
        <time>2022-05-27T10:12:53Z</time>
      </trkpt>
      <trkpt lat="48.03683" lon="6.69759">
        <ele>696.1</ele>
        <time>2022-05-27T10:12:58Z</time>
      </trkpt>
      <trkpt lat="48.03682" lon="6.69774">
        <ele>696.7</ele>
        <time>2022-05-27T10:13:02Z</time>
      </trkpt>
      <trkpt lat="48.03692" lon="6.6977">
        <ele>698.5</ele>
        <time>2022-05-27T10:13:09Z</time>
      </trkpt>
      <trkpt lat="48.037" lon="6.69761">
        <ele>699.3</ele>
        <time>2022-05-27T10:13:14Z</time>
      </trkpt>
      <trkpt lat="48.03708" lon="6.69753">
        <ele>699.6</ele>
        <time>2022-05-27T10:13:18Z</time>
      </trkpt>
      <trkpt lat="48.03717" lon="6.6975">
        <ele>701.3</ele>
        <time>2022-05-27T10:13:26Z</time>
      </trkpt>
      <trkpt lat="48.03726" lon="6.69746">
        <ele>703.2</ele>
        <time>2022-05-27T10:13:35Z</time>
      </trkpt>
      <trkpt lat="48.03734" lon="6.69742">
        <ele>704.4</ele>
        <time>2022-05-27T10:13:40Z</time>
      </trkpt>
      <trkpt lat="48.03744" lon="6.6974">
        <ele>707</ele>
        <time>2022-05-27T10:13:47Z</time>
      </trkpt>
      <trkpt lat="48.03754" lon="6.69738">
        <ele>708.3</ele>
        <time>2022-05-27T10:13:54Z</time>
      </trkpt>
      <trkpt lat="48.03764" lon="6.69736">
        <ele>710.8</ele>
        <time>2022-05-27T10:14:01Z</time>
      </trkpt>
      <trkpt lat="48.03773" lon="6.69737">
        <ele>712.5</ele>
        <time>2022-05-27T10:14:08Z</time>
      </trkpt>
      <trkpt lat="48.03782" lon="6.69734">
        <ele>713.2</ele>
        <time>2022-05-27T10:14:14Z</time>
      </trkpt>
      <trkpt lat="48.03793" lon="6.69733">
        <ele>713.5</ele>
        <time>2022-05-27T10:14:23Z</time>
      </trkpt>
      <trkpt lat="48.03803" lon="6.69727">
        <ele>711.7</ele>
        <time>2022-05-27T10:14:28Z</time>
      </trkpt>
      <trkpt lat="48.03813" lon="6.69718">
        <ele>713.7</ele>
        <time>2022-05-27T10:14:32Z</time>
      </trkpt>
      <trkpt lat="48.03822" lon="6.69711">
        <ele>712.9</ele>
        <time>2022-05-27T10:14:38Z</time>
      </trkpt>
      <trkpt lat="48.03831" lon="6.69714">
        <ele>713.8</ele>
        <time>2022-05-27T10:14:45Z</time>
      </trkpt>
      <trkpt lat="48.03839" lon="6.69705">
        <ele>713.7</ele>
        <time>2022-05-27T10:15:01Z</time>
      </trkpt>
      <trkpt lat="48.03847" lon="6.69699">
        <ele>714.5</ele>
        <time>2022-05-27T10:15:07Z</time>
      </trkpt>
      <trkpt lat="48.03855" lon="6.69689">
        <ele>715.7</ele>
        <time>2022-05-27T10:15:12Z</time>
      </trkpt>
      <trkpt lat="48.03865" lon="6.69686">
        <ele>718.4</ele>
        <time>2022-05-27T10:15:19Z</time>
      </trkpt>
      <trkpt lat="48.03873" lon="6.69692">
        <ele>719.3</ele>
        <time>2022-05-27T10:15:27Z</time>
      </trkpt>
      <trkpt lat="48.03873" lon="6.69692">
        <ele>718.8</ele>
        <time>2022-05-27T10:15:41Z</time>
      </trkpt>
      <trkpt lat="48.03873" lon="6.69693">
        <ele>719</ele>
        <time>2022-05-27T10:16:43Z</time>
      </trkpt>
      <trkpt lat="48.03873" lon="6.69693">
        <ele>719</ele>
        <time>2022-05-27T10:16:54Z</time>
      </trkpt>
      <trkpt lat="48.03873" lon="6.69693">
        <ele>718.9</ele>
        <time>2022-05-27T10:17:51Z</time>
      </trkpt>
      <trkpt lat="48.03873" lon="6.69692">
        <ele>718.6</ele>
        <time>2022-05-27T10:18:18Z</time>
      </trkpt>
      <trkpt lat="48.03872" lon="6.69693">
        <ele>719</ele>
        <time>2022-05-27T10:18:20Z</time>
      </trkpt>
      <trkpt lat="48.03873" lon="6.69692">
        <ele>719.2</ele>
        <time>2022-05-27T10:18:29Z</time>
      </trkpt>
      <trkpt lat="48.03872" lon="6.69693">
        <ele>719</ele>
        <time>2022-05-27T10:18:54Z</time>
      </trkpt>
      <trkpt lat="48.03872" lon="6.69692">
        <ele>719</ele>
        <time>2022-05-27T10:19:37Z</time>
      </trkpt>
      <trkpt lat="48.03872" lon="6.69693">
        <ele>718.9</ele>
        <time>2022-05-27T10:20:03Z</time>
      </trkpt>
      <trkpt lat="48.03871" lon="6.69693">
        <ele>718.9</ele>
        <time>2022-05-27T10:20:49Z</time>
      </trkpt>
      <trkpt lat="48.03871" lon="6.69693">
        <ele>718.9</ele>
        <time>2022-05-27T10:20:53Z</time>
      </trkpt>
      <trkpt lat="48.0388" lon="6.69699">
        <ele>716.3</ele>
        <time>2022-05-27T10:21:00Z</time>
      </trkpt>
      <trkpt lat="48.03889" lon="6.69706">
        <ele>714.7</ele>
        <time>2022-05-27T10:21:05Z</time>
      </trkpt>
      <trkpt lat="48.03896" lon="6.69718">
        <ele>713.1</ele>
        <time>2022-05-27T10:21:08Z</time>
      </trkpt>
      <trkpt lat="48.03906" lon="6.6973">
        <ele>712.4</ele>
        <time>2022-05-27T10:21:11Z</time>
      </trkpt>
      <trkpt lat="48.03915" lon="6.69744">
        <ele>711.8</ele>
        <time>2022-05-27T10:21:14Z</time>
      </trkpt>
      <trkpt lat="48.03924" lon="6.69754">
        <ele>709.1</ele>
        <time>2022-05-27T10:21:16Z</time>
      </trkpt>
      <trkpt lat="48.03935" lon="6.69763">
        <ele>708.4</ele>
        <time>2022-05-27T10:21:18Z</time>
      </trkpt>
      <trkpt lat="48.03945" lon="6.69773">
        <ele>709.1</ele>
        <time>2022-05-27T10:21:20Z</time>
      </trkpt>
      <trkpt lat="48.03953" lon="6.69784">
        <ele>708.7</ele>
        <time>2022-05-27T10:21:22Z</time>
      </trkpt>
      <trkpt lat="48.0396" lon="6.69793">
        <ele>710.5</ele>
        <time>2022-05-27T10:21:24Z</time>
      </trkpt>
      <trkpt lat="48.03968" lon="6.69801">
        <ele>710.2</ele>
        <time>2022-05-27T10:21:27Z</time>
      </trkpt>
      <trkpt lat="48.03977" lon="6.69809">
        <ele>710.8</ele>
        <time>2022-05-27T10:21:31Z</time>
      </trkpt>
      <trkpt lat="48.03985" lon="6.69818">
        <ele>711.5</ele>
        <time>2022-05-27T10:21:36Z</time>
      </trkpt>
      <trkpt lat="48.03992" lon="6.6983">
        <ele>711.9</ele>
        <time>2022-05-27T10:21:41Z</time>
      </trkpt>
      <trkpt lat="48.03999" lon="6.69839">
        <ele>712.5</ele>
        <time>2022-05-27T10:21:45Z</time>
      </trkpt>
      <trkpt lat="48.04004" lon="6.69853">
        <ele>713.5</ele>
        <time>2022-05-27T10:21:51Z</time>
      </trkpt>
      <trkpt lat="48.04009" lon="6.69865">
        <ele>713.4</ele>
        <time>2022-05-27T10:21:57Z</time>
      </trkpt>
      <trkpt lat="48.04016" lon="6.69873">
        <ele>714.5</ele>
        <time>2022-05-27T10:22:05Z</time>
      </trkpt>
      <trkpt lat="48.04026" lon="6.69877">
        <ele>716.1</ele>
        <time>2022-05-27T10:22:13Z</time>
      </trkpt>
      <trkpt lat="48.04035" lon="6.69878">
        <ele>716.3</ele>
        <time>2022-05-27T10:22:20Z</time>
      </trkpt>
      <trkpt lat="48.04045" lon="6.6988">
        <ele>716.5</ele>
        <time>2022-05-27T10:22:26Z</time>
      </trkpt>
      <trkpt lat="48.04054" lon="6.69882">
        <ele>716.9</ele>
        <time>2022-05-27T10:22:31Z</time>
      </trkpt>
      <trkpt lat="48.04063" lon="6.6988">
        <ele>717.1</ele>
        <time>2022-05-27T10:22:36Z</time>
      </trkpt>
      <trkpt lat="48.04074" lon="6.69876">
        <ele>716.5</ele>
        <time>2022-05-27T10:22:40Z</time>
      </trkpt>
      <trkpt lat="48.04084" lon="6.69871">
        <ele>716.6</ele>
        <time>2022-05-27T10:22:43Z</time>
      </trkpt>
      <trkpt lat="48.04095" lon="6.69868">
        <ele>717</ele>
        <time>2022-05-27T10:22:47Z</time>
      </trkpt>
      <trkpt lat="48.04104" lon="6.69864">
        <ele>718.5</ele>
        <time>2022-05-27T10:22:51Z</time>
      </trkpt>
      <trkpt lat="48.04113" lon="6.69861">
        <ele>719.3</ele>
        <time>2022-05-27T10:22:56Z</time>
      </trkpt>
      <trkpt lat="48.04122" lon="6.69857">
        <ele>720.1</ele>
        <time>2022-05-27T10:23:01Z</time>
      </trkpt>
      <trkpt lat="48.04131" lon="6.69852">
        <ele>722.4</ele>
        <time>2022-05-27T10:23:07Z</time>
      </trkpt>
      <trkpt lat="48.04141" lon="6.6985">
        <ele>724</ele>
        <time>2022-05-27T10:23:13Z</time>
      </trkpt>
      <trkpt lat="48.04152" lon="6.6985">
        <ele>724.3</ele>
        <time>2022-05-27T10:23:19Z</time>
      </trkpt>
      <trkpt lat="48.04162" lon="6.69849">
        <ele>726</ele>
        <time>2022-05-27T10:23:25Z</time>
      </trkpt>
      <trkpt lat="48.04171" lon="6.69846">
        <ele>727</ele>
        <time>2022-05-27T10:23:30Z</time>
      </trkpt>
      <trkpt lat="48.04181" lon="6.69842">
        <ele>726.6</ele>
        <time>2022-05-27T10:23:35Z</time>
      </trkpt>
      <trkpt lat="48.0419" lon="6.69836">
        <ele>727.2</ele>
        <time>2022-05-27T10:23:39Z</time>
      </trkpt>
      <trkpt lat="48.04199" lon="6.69831">
        <ele>728.4</ele>
        <time>2022-05-27T10:23:44Z</time>
      </trkpt>
      <trkpt lat="48.04208" lon="6.69825">
        <ele>728.7</ele>
        <time>2022-05-27T10:23:50Z</time>
      </trkpt>
      <trkpt lat="48.04218" lon="6.6982">
        <ele>730.4</ele>
        <time>2022-05-27T10:23:55Z</time>
      </trkpt>
      <trkpt lat="48.04227" lon="6.69816">
        <ele>731.2</ele>
        <time>2022-05-27T10:24:00Z</time>
      </trkpt>
      <trkpt lat="48.04236" lon="6.6981">
        <ele>731.9</ele>
        <time>2022-05-27T10:24:06Z</time>
      </trkpt>
      <trkpt lat="48.04245" lon="6.69807">
        <ele>733</ele>
        <time>2022-05-27T10:24:12Z</time>
      </trkpt>
      <trkpt lat="48.04256" lon="6.69805">
        <ele>735.2</ele>
        <time>2022-05-27T10:24:18Z</time>
      </trkpt>
      <trkpt lat="48.04267" lon="6.69804">
        <ele>735</ele>
        <time>2022-05-27T10:24:24Z</time>
      </trkpt>
      <trkpt lat="48.04277" lon="6.69803">
        <ele>737</ele>
        <time>2022-05-27T10:24:30Z</time>
      </trkpt>
      <trkpt lat="48.04287" lon="6.69802">
        <ele>738.6</ele>
        <time>2022-05-27T10:24:35Z</time>
      </trkpt>
      <trkpt lat="48.04297" lon="6.69798">
        <ele>739.8</ele>
        <time>2022-05-27T10:24:41Z</time>
      </trkpt>
      <trkpt lat="48.04306" lon="6.69796">
        <ele>740.7</ele>
        <time>2022-05-27T10:24:47Z</time>
      </trkpt>
      <trkpt lat="48.04316" lon="6.69794">
        <ele>741.2</ele>
        <time>2022-05-27T10:24:53Z</time>
      </trkpt>
      <trkpt lat="48.04326" lon="6.69793">
        <ele>743.6</ele>
        <time>2022-05-27T10:24:59Z</time>
      </trkpt>
      <trkpt lat="48.04335" lon="6.69791">
        <ele>744.9</ele>
        <time>2022-05-27T10:25:04Z</time>
      </trkpt>
      <trkpt lat="48.04345" lon="6.69791">
        <ele>745.1</ele>
        <time>2022-05-27T10:25:10Z</time>
      </trkpt>
      <trkpt lat="48.04354" lon="6.6979">
        <ele>746.5</ele>
        <time>2022-05-27T10:25:15Z</time>
      </trkpt>
      <trkpt lat="48.04365" lon="6.69792">
        <ele>747.5</ele>
        <time>2022-05-27T10:25:20Z</time>
      </trkpt>
      <trkpt lat="48.04374" lon="6.69795">
        <ele>749.4</ele>
        <time>2022-05-27T10:25:26Z</time>
      </trkpt>
      <trkpt lat="48.04383" lon="6.69805">
        <ele>750.1</ele>
        <time>2022-05-27T10:25:33Z</time>
      </trkpt>
      <trkpt lat="48.04391" lon="6.69814">
        <ele>750.6</ele>
        <time>2022-05-27T10:25:37Z</time>
      </trkpt>
      <trkpt lat="48.04398" lon="6.69823">
        <ele>751.6</ele>
        <time>2022-05-27T10:25:41Z</time>
      </trkpt>
      <trkpt lat="48.04405" lon="6.69832">
        <ele>752.6</ele>
        <time>2022-05-27T10:25:45Z</time>
      </trkpt>
      <trkpt lat="48.04413" lon="6.69842">
        <ele>753.1</ele>
        <time>2022-05-27T10:25:49Z</time>
      </trkpt>
      <trkpt lat="48.04419" lon="6.69852">
        <ele>754.8</ele>
        <time>2022-05-27T10:25:53Z</time>
      </trkpt>
      <trkpt lat="48.04425" lon="6.69863">
        <ele>755.5</ele>
        <time>2022-05-27T10:25:57Z</time>
      </trkpt>
      <trkpt lat="48.04429" lon="6.69876">
        <ele>755.4</ele>
        <time>2022-05-27T10:26:01Z</time>
      </trkpt>
      <trkpt lat="48.04432" lon="6.69889">
        <ele>756.2</ele>
        <time>2022-05-27T10:26:05Z</time>
      </trkpt>
      <trkpt lat="48.04436" lon="6.69902">
        <ele>756.9</ele>
        <time>2022-05-27T10:26:09Z</time>
      </trkpt>
      <trkpt lat="48.04439" lon="6.69915">
        <ele>757</ele>
        <time>2022-05-27T10:26:13Z</time>
      </trkpt>
      <trkpt lat="48.04443" lon="6.69927">
        <ele>759.4</ele>
        <time>2022-05-27T10:26:17Z</time>
      </trkpt>
      <trkpt lat="48.04447" lon="6.69939">
        <ele>759.8</ele>
        <time>2022-05-27T10:26:21Z</time>
      </trkpt>
      <trkpt lat="48.04452" lon="6.69951">
        <ele>761.3</ele>
        <time>2022-05-27T10:26:25Z</time>
      </trkpt>
      <trkpt lat="48.04456" lon="6.69965">
        <ele>762.2</ele>
        <time>2022-05-27T10:26:30Z</time>
      </trkpt>
      <trkpt lat="48.04458" lon="6.6998">
        <ele>762.7</ele>
        <time>2022-05-27T10:26:35Z</time>
      </trkpt>
      <trkpt lat="48.04458" lon="6.69996">
        <ele>763.6</ele>
        <time>2022-05-27T10:26:40Z</time>
      </trkpt>
      <trkpt lat="48.04456" lon="6.70011">
        <ele>764.2</ele>
        <time>2022-05-27T10:26:45Z</time>
      </trkpt>
      <trkpt lat="48.04454" lon="6.70027">
        <ele>764.7</ele>
        <time>2022-05-27T10:26:50Z</time>
      </trkpt>
      <trkpt lat="48.04453" lon="6.70045">
        <ele>765.5</ele>
        <time>2022-05-27T10:26:54Z</time>
      </trkpt>
      <trkpt lat="48.04449" lon="6.7006">
        <ele>765.8</ele>
        <time>2022-05-27T10:26:58Z</time>
      </trkpt>
      <trkpt lat="48.04446" lon="6.70075">
        <ele>766.9</ele>
        <time>2022-05-27T10:27:02Z</time>
      </trkpt>
      <trkpt lat="48.04442" lon="6.7009">
        <ele>767</ele>
        <time>2022-05-27T10:27:06Z</time>
      </trkpt>
      <trkpt lat="48.04436" lon="6.70105">
        <ele>766.1</ele>
        <time>2022-05-27T10:27:10Z</time>
      </trkpt>
      <trkpt lat="48.0443" lon="6.70119">
        <ele>767.7</ele>
        <time>2022-05-27T10:27:14Z</time>
      </trkpt>
      <trkpt lat="48.04422" lon="6.70131">
        <ele>769.8</ele>
        <time>2022-05-27T10:27:18Z</time>
      </trkpt>
      <trkpt lat="48.04414" lon="6.70138">
        <ele>769.9</ele>
        <time>2022-05-27T10:27:21Z</time>
      </trkpt>
      <trkpt lat="48.04406" lon="6.70146">
        <ele>769.2</ele>
        <time>2022-05-27T10:27:24Z</time>
      </trkpt>
      <trkpt lat="48.04399" lon="6.70154">
        <ele>769.4</ele>
        <time>2022-05-27T10:27:27Z</time>
      </trkpt>
      <trkpt lat="48.04392" lon="6.70165">
        <ele>771.6</ele>
        <time>2022-05-27T10:27:30Z</time>
      </trkpt>
      <trkpt lat="48.04388" lon="6.70181">
        <ele>770.8</ele>
        <time>2022-05-27T10:27:34Z</time>
      </trkpt>
      <trkpt lat="48.04385" lon="6.70195">
        <ele>770.8</ele>
        <time>2022-05-27T10:27:37Z</time>
      </trkpt>
      <trkpt lat="48.04385" lon="6.70212">
        <ele>771.5</ele>
        <time>2022-05-27T10:27:40Z</time>
      </trkpt>
      <trkpt lat="48.04383" lon="6.70226">
        <ele>770.7</ele>
        <time>2022-05-27T10:27:43Z</time>
      </trkpt>
      <trkpt lat="48.04381" lon="6.7024">
        <ele>772.2</ele>
        <time>2022-05-27T10:27:47Z</time>
      </trkpt>
      <trkpt lat="48.04379" lon="6.70258">
        <ele>774.3</ele>
        <time>2022-05-27T10:27:51Z</time>
      </trkpt>
      <trkpt lat="48.04377" lon="6.70273">
        <ele>774</ele>
        <time>2022-05-27T10:27:54Z</time>
      </trkpt>
      <trkpt lat="48.04374" lon="6.7029">
        <ele>774.3</ele>
        <time>2022-05-27T10:27:58Z</time>
      </trkpt>
      <trkpt lat="48.04371" lon="6.70304">
        <ele>774.7</ele>
        <time>2022-05-27T10:28:02Z</time>
      </trkpt>
      <trkpt lat="48.04368" lon="6.7032">
        <ele>776.5</ele>
        <time>2022-05-27T10:28:06Z</time>
      </trkpt>
      <trkpt lat="48.04363" lon="6.70335">
        <ele>777</ele>
        <time>2022-05-27T10:28:10Z</time>
      </trkpt>
      <trkpt lat="48.04356" lon="6.70349">
        <ele>777.8</ele>
        <time>2022-05-27T10:28:14Z</time>
      </trkpt>
      <trkpt lat="48.04352" lon="6.70362">
        <ele>776.6</ele>
        <time>2022-05-27T10:28:17Z</time>
      </trkpt>
      <trkpt lat="48.04349" lon="6.70375">
        <ele>776.2</ele>
        <time>2022-05-27T10:28:20Z</time>
      </trkpt>
      <trkpt lat="48.04348" lon="6.7039">
        <ele>775.5</ele>
        <time>2022-05-27T10:28:23Z</time>
      </trkpt>
      <trkpt lat="48.04347" lon="6.70407">
        <ele>778.7</ele>
        <time>2022-05-27T10:28:27Z</time>
      </trkpt>
      <trkpt lat="48.04343" lon="6.70423">
        <ele>780.3</ele>
        <time>2022-05-27T10:28:31Z</time>
      </trkpt>
      <trkpt lat="48.04341" lon="6.70439">
        <ele>779.2</ele>
        <time>2022-05-27T10:28:35Z</time>
      </trkpt>
      <trkpt lat="48.04338" lon="6.70452">
        <ele>780.4</ele>
        <time>2022-05-27T10:28:38Z</time>
      </trkpt>
      <trkpt lat="48.04335" lon="6.70469">
        <ele>780.7</ele>
        <time>2022-05-27T10:28:42Z</time>
      </trkpt>
      <trkpt lat="48.04331" lon="6.70484">
        <ele>781.5</ele>
        <time>2022-05-27T10:28:46Z</time>
      </trkpt>
      <trkpt lat="48.04328" lon="6.70501">
        <ele>781.4</ele>
        <time>2022-05-27T10:28:50Z</time>
      </trkpt>
      <trkpt lat="48.04324" lon="6.70516">
        <ele>782.2</ele>
        <time>2022-05-27T10:28:54Z</time>
      </trkpt>
      <trkpt lat="48.04319" lon="6.70531">
        <ele>783.6</ele>
        <time>2022-05-27T10:28:58Z</time>
      </trkpt>
      <trkpt lat="48.04315" lon="6.70547">
        <ele>783.1</ele>
        <time>2022-05-27T10:29:02Z</time>
      </trkpt>
      <trkpt lat="48.04315" lon="6.70563">
        <ele>784</ele>
        <time>2022-05-27T10:29:06Z</time>
      </trkpt>
      <trkpt lat="48.04314" lon="6.70578">
        <ele>785</ele>
        <time>2022-05-27T10:29:10Z</time>
      </trkpt>
      <trkpt lat="48.04316" lon="6.70594">
        <ele>786.2</ele>
        <time>2022-05-27T10:29:14Z</time>
      </trkpt>
      <trkpt lat="48.04316" lon="6.70609">
        <ele>785.5</ele>
        <time>2022-05-27T10:29:18Z</time>
      </trkpt>
      <trkpt lat="48.04315" lon="6.70624">
        <ele>787.6</ele>
        <time>2022-05-27T10:29:22Z</time>
      </trkpt>
      <trkpt lat="48.04313" lon="6.7064">
        <ele>786.6</ele>
        <time>2022-05-27T10:29:26Z</time>
      </trkpt>
      <trkpt lat="48.04309" lon="6.70654">
        <ele>787.5</ele>
        <time>2022-05-27T10:29:30Z</time>
      </trkpt>
      <trkpt lat="48.04305" lon="6.70669">
        <ele>788.3</ele>
        <time>2022-05-27T10:29:34Z</time>
      </trkpt>
      <trkpt lat="48.04301" lon="6.70684">
        <ele>789.7</ele>
        <time>2022-05-27T10:29:38Z</time>
      </trkpt>
      <trkpt lat="48.04296" lon="6.70697">
        <ele>788.9</ele>
        <time>2022-05-27T10:29:42Z</time>
      </trkpt>
      <trkpt lat="48.0429" lon="6.70711">
        <ele>790</ele>
        <time>2022-05-27T10:29:46Z</time>
      </trkpt>
      <trkpt lat="48.04285" lon="6.70726">
        <ele>790</ele>
        <time>2022-05-27T10:29:50Z</time>
      </trkpt>
      <trkpt lat="48.04281" lon="6.70739">
        <ele>790.8</ele>
        <time>2022-05-27T10:29:53Z</time>
      </trkpt>
      <trkpt lat="48.04274" lon="6.70754">
        <ele>791.7</ele>
        <time>2022-05-27T10:29:57Z</time>
      </trkpt>
      <trkpt lat="48.04268" lon="6.70765">
        <ele>792.2</ele>
        <time>2022-05-27T10:30:00Z</time>
      </trkpt>
      <trkpt lat="48.04261" lon="6.70779">
        <ele>793.4</ele>
        <time>2022-05-27T10:30:04Z</time>
      </trkpt>
      <trkpt lat="48.04255" lon="6.7079">
        <ele>794.5</ele>
        <time>2022-05-27T10:30:07Z</time>
      </trkpt>
      <trkpt lat="48.04249" lon="6.708">
        <ele>794.5</ele>
        <time>2022-05-27T10:30:10Z</time>
      </trkpt>
      <trkpt lat="48.04242" lon="6.70814">
        <ele>795</ele>
        <time>2022-05-27T10:30:14Z</time>
      </trkpt>
      <trkpt lat="48.04236" lon="6.70829">
        <ele>796.1</ele>
        <time>2022-05-27T10:30:18Z</time>
      </trkpt>
      <trkpt lat="48.04232" lon="6.70843">
        <ele>793.7</ele>
        <time>2022-05-27T10:30:21Z</time>
      </trkpt>
      <trkpt lat="48.04229" lon="6.70859">
        <ele>793.3</ele>
        <time>2022-05-27T10:30:24Z</time>
      </trkpt>
      <trkpt lat="48.04228" lon="6.70877">
        <ele>794.9</ele>
        <time>2022-05-27T10:30:27Z</time>
      </trkpt>
      <trkpt lat="48.04224" lon="6.70894">
        <ele>797.2</ele>
        <time>2022-05-27T10:30:30Z</time>
      </trkpt>
      <trkpt lat="48.04218" lon="6.70907">
        <ele>795.6</ele>
        <time>2022-05-27T10:30:33Z</time>
      </trkpt>
      <trkpt lat="48.04211" lon="6.70919">
        <ele>793.8</ele>
        <time>2022-05-27T10:30:36Z</time>
      </trkpt>
      <trkpt lat="48.04205" lon="6.7093">
        <ele>795.9</ele>
        <time>2022-05-27T10:30:39Z</time>
      </trkpt>
      <trkpt lat="48.04199" lon="6.70942">
        <ele>797.5</ele>
        <time>2022-05-27T10:30:42Z</time>
      </trkpt>
      <trkpt lat="48.04192" lon="6.70955">
        <ele>798.4</ele>
        <time>2022-05-27T10:30:46Z</time>
      </trkpt>
      <trkpt lat="48.04187" lon="6.70971">
        <ele>797.4</ele>
        <time>2022-05-27T10:30:50Z</time>
      </trkpt>
      <trkpt lat="48.04187" lon="6.70986">
        <ele>798</ele>
        <time>2022-05-27T10:30:54Z</time>
      </trkpt>
      <trkpt lat="48.04191" lon="6.70999">
        <ele>799.1</ele>
        <time>2022-05-27T10:31:00Z</time>
      </trkpt>
      <trkpt lat="48.04196" lon="6.71008">
        <ele>797.9</ele>
        <time>2022-05-27T10:31:07Z</time>
      </trkpt>
      <trkpt lat="48.04191" lon="6.71005">
        <ele>797.8</ele>
        <time>2022-05-27T10:31:15Z</time>
      </trkpt>
      <trkpt lat="48.04191" lon="6.71005">
        <ele>797.8</ele>
        <time>2022-05-27T10:31:46Z</time>
      </trkpt>
      <trkpt lat="48.04191" lon="6.71006">
        <ele>798</ele>
        <time>2022-05-27T10:31:51Z</time>
      </trkpt>
      <trkpt lat="48.04189" lon="6.71008">
        <ele>798</ele>
        <time>2022-05-27T10:32:00Z</time>
      </trkpt>
      <trkpt lat="48.04189" lon="6.71008">
        <ele>798.2</ele>
        <time>2022-05-27T10:32:26Z</time>
      </trkpt>
      <trkpt lat="48.04189" lon="6.71007">
        <ele>798.1</ele>
        <time>2022-05-27T10:32:46Z</time>
      </trkpt>
      <trkpt lat="48.04188" lon="6.71007">
        <ele>798.2</ele>
        <time>2022-05-27T10:33:20Z</time>
      </trkpt>
      <trkpt lat="48.04188" lon="6.71007">
        <ele>798.2</ele>
        <time>2022-05-27T10:33:21Z</time>
      </trkpt>
      <trkpt lat="48.04188" lon="6.71006">
        <ele>798.5</ele>
        <time>2022-05-27T10:33:22Z</time>
      </trkpt>
      <trkpt lat="48.04192" lon="6.71003">
        <ele>798.6</ele>
        <time>2022-05-27T10:33:32Z</time>
      </trkpt>
      <trkpt lat="48.04192" lon="6.71004">
        <ele>798.3</ele>
        <time>2022-05-27T10:33:37Z</time>
      </trkpt>
      <trkpt lat="48.04199" lon="6.71015">
        <ele>798.9</ele>
        <time>2022-05-27T10:33:41Z</time>
      </trkpt>
      <trkpt lat="48.04208" lon="6.71027">
        <ele>797.6</ele>
        <time>2022-05-27T10:33:45Z</time>
      </trkpt>
      <trkpt lat="48.04215" lon="6.71043">
        <ele>796.9</ele>
        <time>2022-05-27T10:33:48Z</time>
      </trkpt>
      <trkpt lat="48.04219" lon="6.71055">
        <ele>797.5</ele>
        <time>2022-05-27T10:33:50Z</time>
      </trkpt>
      <trkpt lat="48.04223" lon="6.71073">
        <ele>797.1</ele>
        <time>2022-05-27T10:33:53Z</time>
      </trkpt>
      <trkpt lat="48.04225" lon="6.7109">
        <ele>794.2</ele>
        <time>2022-05-27T10:33:55Z</time>
      </trkpt>
      <trkpt lat="48.04225" lon="6.71107">
        <ele>791.9</ele>
        <time>2022-05-27T10:33:57Z</time>
      </trkpt>
      <trkpt lat="48.04226" lon="6.71128">
        <ele>792.3</ele>
        <time>2022-05-27T10:33:59Z</time>
      </trkpt>
      <trkpt lat="48.04229" lon="6.71145">
        <ele>792.9</ele>
        <time>2022-05-27T10:34:01Z</time>
      </trkpt>
      <trkpt lat="48.0423" lon="6.7116">
        <ele>789.9</ele>
        <time>2022-05-27T10:34:03Z</time>
      </trkpt>
      <trkpt lat="48.04228" lon="6.71179">
        <ele>789.9</ele>
        <time>2022-05-27T10:34:05Z</time>
      </trkpt>
      <trkpt lat="48.04224" lon="6.71197">
        <ele>788.5</ele>
        <time>2022-05-27T10:34:07Z</time>
      </trkpt>
      <trkpt lat="48.04214" lon="6.71212">
        <ele>785</ele>
        <time>2022-05-27T10:34:09Z</time>
      </trkpt>
      <trkpt lat="48.04201" lon="6.71223">
        <ele>782.3</ele>
        <time>2022-05-27T10:34:11Z</time>
      </trkpt>
      <trkpt lat="48.0419" lon="6.71232">
        <ele>783</ele>
        <time>2022-05-27T10:34:13Z</time>
      </trkpt>
      <trkpt lat="48.04177" lon="6.71242">
        <ele>785.3</ele>
        <time>2022-05-27T10:34:15Z</time>
      </trkpt>
      <trkpt lat="48.04165" lon="6.71252">
        <ele>781.8</ele>
        <time>2022-05-27T10:34:17Z</time>
      </trkpt>
      <trkpt lat="48.04153" lon="6.71265">
        <ele>780.3</ele>
        <time>2022-05-27T10:34:19Z</time>
      </trkpt>
      <trkpt lat="48.04142" lon="6.71277">
        <ele>781.6</ele>
        <time>2022-05-27T10:34:21Z</time>
      </trkpt>
      <trkpt lat="48.0413" lon="6.71291">
        <ele>783.2</ele>
        <time>2022-05-27T10:34:23Z</time>
      </trkpt>
      <trkpt lat="48.04122" lon="6.71303">
        <ele>782.1</ele>
        <time>2022-05-27T10:34:25Z</time>
      </trkpt>
      <trkpt lat="48.04114" lon="6.71316">
        <ele>783.6</ele>
        <time>2022-05-27T10:34:27Z</time>
      </trkpt>
      <trkpt lat="48.04108" lon="6.71328">
        <ele>783.8</ele>
        <time>2022-05-27T10:34:29Z</time>
      </trkpt>
      <trkpt lat="48.04102" lon="6.71339">
        <ele>782.5</ele>
        <time>2022-05-27T10:34:31Z</time>
      </trkpt>
      <trkpt lat="48.04096" lon="6.7135">
        <ele>783.1</ele>
        <time>2022-05-27T10:34:33Z</time>
      </trkpt>
      <trkpt lat="48.04089" lon="6.71364">
        <ele>781.6</ele>
        <time>2022-05-27T10:34:36Z</time>
      </trkpt>
      <trkpt lat="48.04081" lon="6.71376">
        <ele>782.1</ele>
        <time>2022-05-27T10:34:40Z</time>
      </trkpt>
      <trkpt lat="48.04073" lon="6.71386">
        <ele>780.9</ele>
        <time>2022-05-27T10:34:43Z</time>
      </trkpt>
      <trkpt lat="48.04062" lon="6.71395">
        <ele>781.9</ele>
        <time>2022-05-27T10:34:46Z</time>
      </trkpt>
      <trkpt lat="48.04051" lon="6.71401">
        <ele>782.4</ele>
        <time>2022-05-27T10:34:49Z</time>
      </trkpt>
      <trkpt lat="48.04041" lon="6.71407">
        <ele>781.5</ele>
        <time>2022-05-27T10:34:52Z</time>
      </trkpt>
      <trkpt lat="48.04033" lon="6.71414">
        <ele>781.9</ele>
        <time>2022-05-27T10:34:55Z</time>
      </trkpt>
      <trkpt lat="48.04025" lon="6.71426">
        <ele>780.5</ele>
        <time>2022-05-27T10:34:58Z</time>
      </trkpt>
      <trkpt lat="48.04018" lon="6.7144">
        <ele>781.3</ele>
        <time>2022-05-27T10:35:01Z</time>
      </trkpt>
      <trkpt lat="48.04013" lon="6.71453">
        <ele>781.1</ele>
        <time>2022-05-27T10:35:04Z</time>
      </trkpt>
      <trkpt lat="48.04008" lon="6.71466">
        <ele>781.1</ele>
        <time>2022-05-27T10:35:07Z</time>
      </trkpt>
      <trkpt lat="48.04004" lon="6.71482">
        <ele>781.3</ele>
        <time>2022-05-27T10:35:11Z</time>
      </trkpt>
      <trkpt lat="48.04002" lon="6.71495">
        <ele>782</ele>
        <time>2022-05-27T10:35:16Z</time>
      </trkpt>
      <trkpt lat="48.04006" lon="6.71508">
        <ele>782</ele>
        <time>2022-05-27T10:35:22Z</time>
      </trkpt>
      <trkpt lat="48.04013" lon="6.71518">
        <ele>781.9</ele>
        <time>2022-05-27T10:35:27Z</time>
      </trkpt>
      <trkpt lat="48.0402" lon="6.71526">
        <ele>782.4</ele>
        <time>2022-05-27T10:35:32Z</time>
      </trkpt>
      <trkpt lat="48.04026" lon="6.71539">
        <ele>780.4</ele>
        <time>2022-05-27T10:35:36Z</time>
      </trkpt>
      <trkpt lat="48.04029" lon="6.71551">
        <ele>782</ele>
        <time>2022-05-27T10:35:40Z</time>
      </trkpt>
      <trkpt lat="48.04034" lon="6.71564">
        <ele>783.4</ele>
        <time>2022-05-27T10:35:46Z</time>
      </trkpt>
      <trkpt lat="48.04038" lon="6.71576">
        <ele>785</ele>
        <time>2022-05-27T10:35:51Z</time>
      </trkpt>
      <trkpt lat="48.04042" lon="6.71589">
        <ele>786.8</ele>
        <time>2022-05-27T10:35:57Z</time>
      </trkpt>
      <trkpt lat="48.04045" lon="6.71602">
        <ele>789.2</ele>
        <time>2022-05-27T10:36:03Z</time>
      </trkpt>
      <trkpt lat="48.04044" lon="6.71616">
        <ele>789.6</ele>
        <time>2022-05-27T10:36:08Z</time>
      </trkpt>
      <trkpt lat="48.04042" lon="6.71631">
        <ele>789.2</ele>
        <time>2022-05-27T10:36:13Z</time>
      </trkpt>
      <trkpt lat="48.04045" lon="6.71646">
        <ele>789.6</ele>
        <time>2022-05-27T10:36:18Z</time>
      </trkpt>
      <trkpt lat="48.04051" lon="6.71658">
        <ele>790.4</ele>
        <time>2022-05-27T10:36:24Z</time>
      </trkpt>
      <trkpt lat="48.0406" lon="6.71664">
        <ele>791.3</ele>
        <time>2022-05-27T10:36:31Z</time>
      </trkpt>
      <trkpt lat="48.04069" lon="6.71665">
        <ele>793.7</ele>
        <time>2022-05-27T10:36:39Z</time>
      </trkpt>
      <trkpt lat="48.04079" lon="6.71666">
        <ele>794.7</ele>
        <time>2022-05-27T10:36:48Z</time>
      </trkpt>
      <trkpt lat="48.04089" lon="6.7167">
        <ele>796.7</ele>
        <time>2022-05-27T10:36:54Z</time>
      </trkpt>
      <trkpt lat="48.04099" lon="6.7167">
        <ele>798.4</ele>
        <time>2022-05-27T10:37:00Z</time>
      </trkpt>
      <trkpt lat="48.04109" lon="6.71674">
        <ele>800.5</ele>
        <time>2022-05-27T10:37:11Z</time>
      </trkpt>
      <trkpt lat="48.04114" lon="6.71687">
        <ele>801.6</ele>
        <time>2022-05-27T10:37:18Z</time>
      </trkpt>
      <trkpt lat="48.04114" lon="6.717">
        <ele>803.6</ele>
        <time>2022-05-27T10:37:26Z</time>
      </trkpt>
      <trkpt lat="48.04115" lon="6.71714">
        <ele>805.5</ele>
        <time>2022-05-27T10:37:34Z</time>
      </trkpt>
      <trkpt lat="48.04119" lon="6.71727">
        <ele>807.5</ele>
        <time>2022-05-27T10:37:42Z</time>
      </trkpt>
      <trkpt lat="48.04125" lon="6.71738">
        <ele>809.3</ele>
        <time>2022-05-27T10:37:49Z</time>
      </trkpt>
      <trkpt lat="48.04129" lon="6.71751">
        <ele>810.9</ele>
        <time>2022-05-27T10:37:56Z</time>
      </trkpt>
      <trkpt lat="48.04137" lon="6.71761">
        <ele>811.9</ele>
        <time>2022-05-27T10:38:02Z</time>
      </trkpt>
      <trkpt lat="48.04145" lon="6.71771">
        <ele>812</ele>
        <time>2022-05-27T10:38:08Z</time>
      </trkpt>
      <trkpt lat="48.04154" lon="6.71779">
        <ele>811.6</ele>
        <time>2022-05-27T10:38:15Z</time>
      </trkpt>
      <trkpt lat="48.04162" lon="6.71784">
        <ele>813.1</ele>
        <time>2022-05-27T10:38:21Z</time>
      </trkpt>
      <trkpt lat="48.04171" lon="6.71793">
        <ele>815.1</ele>
        <time>2022-05-27T10:38:27Z</time>
      </trkpt>
      <trkpt lat="48.04174" lon="6.71807">
        <ele>815.9</ele>
        <time>2022-05-27T10:38:33Z</time>
      </trkpt>
      <trkpt lat="48.04176" lon="6.71823">
        <ele>814.6</ele>
        <time>2022-05-27T10:38:38Z</time>
      </trkpt>
      <trkpt lat="48.04178" lon="6.71839">
        <ele>816.1</ele>
        <time>2022-05-27T10:38:43Z</time>
      </trkpt>
      <trkpt lat="48.04182" lon="6.71856">
        <ele>818.3</ele>
        <time>2022-05-27T10:38:48Z</time>
      </trkpt>
      <trkpt lat="48.04186" lon="6.71871">
        <ele>818.1</ele>
        <time>2022-05-27T10:38:52Z</time>
      </trkpt>
      <trkpt lat="48.04191" lon="6.71884">
        <ele>818.6</ele>
        <time>2022-05-27T10:38:57Z</time>
      </trkpt>
      <trkpt lat="48.04196" lon="6.71898">
        <ele>818.9</ele>
        <time>2022-05-27T10:39:02Z</time>
      </trkpt>
      <trkpt lat="48.04203" lon="6.7191">
        <ele>818</ele>
        <time>2022-05-27T10:39:07Z</time>
      </trkpt>
      <trkpt lat="48.04211" lon="6.71923">
        <ele>818.5</ele>
        <time>2022-05-27T10:39:11Z</time>
      </trkpt>
      <trkpt lat="48.04218" lon="6.71935">
        <ele>819.9</ele>
        <time>2022-05-27T10:39:15Z</time>
      </trkpt>
      <trkpt lat="48.04224" lon="6.71941">
        <ele>820</ele>
        <time>2022-05-27T10:39:22Z</time>
      </trkpt>
      <trkpt lat="48.04224" lon="6.71941">
        <ele>820</ele>
        <time>2022-05-27T10:40:14Z</time>
      </trkpt>
      <trkpt lat="48.04225" lon="6.7194">
        <ele>819.5</ele>
        <time>2022-05-27T10:40:18Z</time>
      </trkpt>
      <trkpt lat="48.04232" lon="6.71952">
        <ele>820.1</ele>
        <time>2022-05-27T10:40:32Z</time>
      </trkpt>
      <trkpt lat="48.04238" lon="6.71968">
        <ele>818.5</ele>
        <time>2022-05-27T10:40:36Z</time>
      </trkpt>
      <trkpt lat="48.04245" lon="6.71984">
        <ele>816.7</ele>
        <time>2022-05-27T10:40:39Z</time>
      </trkpt>
      <trkpt lat="48.04249" lon="6.71997">
        <ele>817.5</ele>
        <time>2022-05-27T10:40:41Z</time>
      </trkpt>
      <trkpt lat="48.04255" lon="6.72012">
        <ele>817.3</ele>
        <time>2022-05-27T10:40:43Z</time>
      </trkpt>
      <trkpt lat="48.04263" lon="6.72028">
        <ele>814.3</ele>
        <time>2022-05-27T10:40:45Z</time>
      </trkpt>
      <trkpt lat="48.04271" lon="6.72045">
        <ele>813</ele>
        <time>2022-05-27T10:40:47Z</time>
      </trkpt>
      <trkpt lat="48.04276" lon="6.7206">
        <ele>814.9</ele>
        <time>2022-05-27T10:40:49Z</time>
      </trkpt>
      <trkpt lat="48.04272" lon="6.72076">
        <ele>813.8</ele>
        <time>2022-05-27T10:40:52Z</time>
      </trkpt>
      <trkpt lat="48.04267" lon="6.72091">
        <ele>812.8</ele>
        <time>2022-05-27T10:40:55Z</time>
      </trkpt>
      <trkpt lat="48.04262" lon="6.72101">
        <ele>814.1</ele>
        <time>2022-05-27T10:40:57Z</time>
      </trkpt>
      <trkpt lat="48.04255" lon="6.72112">
        <ele>812.8</ele>
        <time>2022-05-27T10:40:59Z</time>
      </trkpt>
      <trkpt lat="48.04246" lon="6.72125">
        <ele>812.6</ele>
        <time>2022-05-27T10:41:02Z</time>
      </trkpt>
      <trkpt lat="48.04239" lon="6.72133">
        <ele>812.7</ele>
        <time>2022-05-27T10:41:04Z</time>
      </trkpt>
      <trkpt lat="48.04231" lon="6.72146">
        <ele>812.2</ele>
        <time>2022-05-27T10:41:07Z</time>
      </trkpt>
      <trkpt lat="48.04223" lon="6.72164">
        <ele>810.6</ele>
        <time>2022-05-27T10:41:10Z</time>
      </trkpt>
      <trkpt lat="48.04213" lon="6.72177">
        <ele>807.6</ele>
        <time>2022-05-27T10:41:12Z</time>
      </trkpt>
      <trkpt lat="48.04202" lon="6.72189">
        <ele>807.1</ele>
        <time>2022-05-27T10:41:14Z</time>
      </trkpt>
      <trkpt lat="48.04191" lon="6.72203">
        <ele>803.2</ele>
        <time>2022-05-27T10:41:16Z</time>
      </trkpt>
      <trkpt lat="48.04178" lon="6.72217">
        <ele>802.6</ele>
        <time>2022-05-27T10:41:18Z</time>
      </trkpt>
      <trkpt lat="48.04165" lon="6.72231">
        <ele>804.3</ele>
        <time>2022-05-27T10:41:20Z</time>
      </trkpt>
      <trkpt lat="48.04155" lon="6.72246">
        <ele>803.8</ele>
        <time>2022-05-27T10:41:22Z</time>
      </trkpt>
      <trkpt lat="48.04149" lon="6.72264">
        <ele>802.5</ele>
        <time>2022-05-27T10:41:24Z</time>
      </trkpt>
      <trkpt lat="48.04146" lon="6.72279">
        <ele>802.6</ele>
        <time>2022-05-27T10:41:26Z</time>
      </trkpt>
      <trkpt lat="48.04143" lon="6.72294">
        <ele>803.2</ele>
        <time>2022-05-27T10:41:28Z</time>
      </trkpt>
      <trkpt lat="48.04139" lon="6.72307">
        <ele>803.3</ele>
        <time>2022-05-27T10:41:30Z</time>
      </trkpt>
      <trkpt lat="48.04136" lon="6.7232">
        <ele>803.4</ele>
        <time>2022-05-27T10:41:32Z</time>
      </trkpt>
      <trkpt lat="48.04132" lon="6.72333">
        <ele>802.6</ele>
        <time>2022-05-27T10:41:34Z</time>
      </trkpt>
      <trkpt lat="48.04129" lon="6.72346">
        <ele>801.5</ele>
        <time>2022-05-27T10:41:36Z</time>
      </trkpt>
      <trkpt lat="48.04126" lon="6.7236">
        <ele>802.3</ele>
        <time>2022-05-27T10:41:38Z</time>
      </trkpt>
      <trkpt lat="48.04121" lon="6.72375">
        <ele>802.1</ele>
        <time>2022-05-27T10:41:40Z</time>
      </trkpt>
      <trkpt lat="48.04115" lon="6.7239">
        <ele>799.9</ele>
        <time>2022-05-27T10:41:42Z</time>
      </trkpt>
      <trkpt lat="48.04108" lon="6.72406">
        <ele>800.1</ele>
        <time>2022-05-27T10:41:44Z</time>
      </trkpt>
      <trkpt lat="48.04102" lon="6.72421">
        <ele>800.4</ele>
        <time>2022-05-27T10:41:46Z</time>
      </trkpt>
      <trkpt lat="48.04097" lon="6.72435">
        <ele>801.2</ele>
        <time>2022-05-27T10:41:48Z</time>
      </trkpt>
      <trkpt lat="48.04093" lon="6.7245">
        <ele>800.8</ele>
        <time>2022-05-27T10:41:50Z</time>
      </trkpt>
      <trkpt lat="48.04091" lon="6.72466">
        <ele>801.1</ele>
        <time>2022-05-27T10:41:52Z</time>
      </trkpt>
      <trkpt lat="48.04091" lon="6.72482">
        <ele>800.8</ele>
        <time>2022-05-27T10:41:54Z</time>
      </trkpt>
      <trkpt lat="48.04092" lon="6.72498">
        <ele>800.9</ele>
        <time>2022-05-27T10:41:56Z</time>
      </trkpt>
      <trkpt lat="48.04094" lon="6.72511">
        <ele>801.9</ele>
        <time>2022-05-27T10:41:58Z</time>
      </trkpt>
      <trkpt lat="48.04095" lon="6.72529">
        <ele>803.7</ele>
        <time>2022-05-27T10:42:01Z</time>
      </trkpt>
      <trkpt lat="48.04092" lon="6.72544">
        <ele>803.7</ele>
        <time>2022-05-27T10:42:04Z</time>
      </trkpt>
      <trkpt lat="48.04088" lon="6.72557">
        <ele>802.6</ele>
        <time>2022-05-27T10:42:07Z</time>
      </trkpt>
      <trkpt lat="48.04082" lon="6.72571">
        <ele>804.5</ele>
        <time>2022-05-27T10:42:11Z</time>
      </trkpt>
      <trkpt lat="48.04075" lon="6.72584">
        <ele>804.7</ele>
        <time>2022-05-27T10:42:15Z</time>
      </trkpt>
      <trkpt lat="48.04069" lon="6.72597">
        <ele>806.9</ele>
        <time>2022-05-27T10:42:19Z</time>
      </trkpt>
      <trkpt lat="48.04062" lon="6.7261">
        <ele>808</ele>
        <time>2022-05-27T10:42:24Z</time>
      </trkpt>
      <trkpt lat="48.04057" lon="6.72624">
        <ele>809.7</ele>
        <time>2022-05-27T10:42:29Z</time>
      </trkpt>
      <trkpt lat="48.04055" lon="6.72638">
        <ele>810.3</ele>
        <time>2022-05-27T10:42:33Z</time>
      </trkpt>
      <trkpt lat="48.04054" lon="6.72652">
        <ele>811</ele>
        <time>2022-05-27T10:42:37Z</time>
      </trkpt>
      <trkpt lat="48.04055" lon="6.72669">
        <ele>811.5</ele>
        <time>2022-05-27T10:42:42Z</time>
      </trkpt>
      <trkpt lat="48.04058" lon="6.72686">
        <ele>812.9</ele>
        <time>2022-05-27T10:42:46Z</time>
      </trkpt>
      <trkpt lat="48.04064" lon="6.727">
        <ele>810.7</ele>
        <time>2022-05-27T10:42:49Z</time>
      </trkpt>
      <trkpt lat="48.04071" lon="6.72715">
        <ele>810.3</ele>
        <time>2022-05-27T10:42:52Z</time>
      </trkpt>
      <trkpt lat="48.04076" lon="6.72732">
        <ele>810.5</ele>
        <time>2022-05-27T10:42:55Z</time>
      </trkpt>
      <trkpt lat="48.04077" lon="6.7275">
        <ele>810.5</ele>
        <time>2022-05-27T10:42:58Z</time>
      </trkpt>
      <trkpt lat="48.04078" lon="6.7277">
        <ele>810.5</ele>
        <time>2022-05-27T10:43:01Z</time>
      </trkpt>
      <trkpt lat="48.04078" lon="6.72788">
        <ele>812.9</ele>
        <time>2022-05-27T10:43:04Z</time>
      </trkpt>
      <trkpt lat="48.04081" lon="6.72805">
        <ele>812.5</ele>
        <time>2022-05-27T10:43:07Z</time>
      </trkpt>
      <trkpt lat="48.04085" lon="6.72819">
        <ele>812.7</ele>
        <time>2022-05-27T10:43:10Z</time>
      </trkpt>
      <trkpt lat="48.0409" lon="6.72833">
        <ele>812.7</ele>
        <time>2022-05-27T10:43:13Z</time>
      </trkpt>
      <trkpt lat="48.04097" lon="6.72847">
        <ele>813.1</ele>
        <time>2022-05-27T10:43:16Z</time>
      </trkpt>
      <trkpt lat="48.04104" lon="6.72863">
        <ele>812.7</ele>
        <time>2022-05-27T10:43:19Z</time>
      </trkpt>
      <trkpt lat="48.04111" lon="6.7288">
        <ele>812.3</ele>
        <time>2022-05-27T10:43:22Z</time>
      </trkpt>
      <trkpt lat="48.04114" lon="6.72892">
        <ele>811.1</ele>
        <time>2022-05-27T10:43:24Z</time>
      </trkpt>
      <trkpt lat="48.04118" lon="6.72905">
        <ele>812</ele>
        <time>2022-05-27T10:43:26Z</time>
      </trkpt>
      <trkpt lat="48.04124" lon="6.72922">
        <ele>811.5</ele>
        <time>2022-05-27T10:43:29Z</time>
      </trkpt>
      <trkpt lat="48.04129" lon="6.72933">
        <ele>810.8</ele>
        <time>2022-05-27T10:43:31Z</time>
      </trkpt>
      <trkpt lat="48.04137" lon="6.72948">
        <ele>811.8</ele>
        <time>2022-05-27T10:43:34Z</time>
      </trkpt>
      <trkpt lat="48.04143" lon="6.72964">
        <ele>811.8</ele>
        <time>2022-05-27T10:43:37Z</time>
      </trkpt>
      <trkpt lat="48.04148" lon="6.72981">
        <ele>811.8</ele>
        <time>2022-05-27T10:43:40Z</time>
      </trkpt>
      <trkpt lat="48.04154" lon="6.72997">
        <ele>812.3</ele>
        <time>2022-05-27T10:43:43Z</time>
      </trkpt>
      <trkpt lat="48.0416" lon="6.73012">
        <ele>811.8</ele>
        <time>2022-05-27T10:43:46Z</time>
      </trkpt>
      <trkpt lat="48.04167" lon="6.73024">
        <ele>813.5</ele>
        <time>2022-05-27T10:43:50Z</time>
      </trkpt>
      <trkpt lat="48.04175" lon="6.73034">
        <ele>815.2</ele>
        <time>2022-05-27T10:43:54Z</time>
      </trkpt>
      <trkpt lat="48.04183" lon="6.73043">
        <ele>816</ele>
        <time>2022-05-27T10:43:58Z</time>
      </trkpt>
      <trkpt lat="48.04191" lon="6.73053">
        <ele>816.5</ele>
        <time>2022-05-27T10:44:02Z</time>
      </trkpt>
      <trkpt lat="48.04199" lon="6.73062">
        <ele>818.2</ele>
        <time>2022-05-27T10:44:06Z</time>
      </trkpt>
      <trkpt lat="48.04208" lon="6.73068">
        <ele>818.2</ele>
        <time>2022-05-27T10:44:10Z</time>
      </trkpt>
      <trkpt lat="48.04217" lon="6.73078">
        <ele>819.7</ele>
        <time>2022-05-27T10:44:15Z</time>
      </trkpt>
      <trkpt lat="48.04222" lon="6.73092">
        <ele>821.8</ele>
        <time>2022-05-27T10:44:20Z</time>
      </trkpt>
      <trkpt lat="48.04226" lon="6.73106">
        <ele>821.9</ele>
        <time>2022-05-27T10:44:25Z</time>
      </trkpt>
      <trkpt lat="48.04229" lon="6.73119">
        <ele>823.5</ele>
        <time>2022-05-27T10:44:30Z</time>
      </trkpt>
      <trkpt lat="48.04233" lon="6.73133">
        <ele>824</ele>
        <time>2022-05-27T10:44:35Z</time>
      </trkpt>
      <trkpt lat="48.04237" lon="6.73146">
        <ele>825.3</ele>
        <time>2022-05-27T10:44:40Z</time>
      </trkpt>
      <trkpt lat="48.0424" lon="6.73161">
        <ele>826.3</ele>
        <time>2022-05-27T10:44:45Z</time>
      </trkpt>
      <trkpt lat="48.04243" lon="6.73175">
        <ele>827.6</ele>
        <time>2022-05-27T10:44:50Z</time>
      </trkpt>
      <trkpt lat="48.04246" lon="6.7319">
        <ele>827.7</ele>
        <time>2022-05-27T10:44:55Z</time>
      </trkpt>
      <trkpt lat="48.04249" lon="6.73206">
        <ele>828.1</ele>
        <time>2022-05-27T10:45:00Z</time>
      </trkpt>
      <trkpt lat="48.04252" lon="6.7322">
        <ele>829.1</ele>
        <time>2022-05-27T10:45:04Z</time>
      </trkpt>
      <trkpt lat="48.04255" lon="6.73234">
        <ele>830.1</ele>
        <time>2022-05-27T10:45:08Z</time>
      </trkpt>
      <trkpt lat="48.04258" lon="6.73248">
        <ele>831.1</ele>
        <time>2022-05-27T10:45:13Z</time>
      </trkpt>
      <trkpt lat="48.04261" lon="6.73262">
        <ele>831.9</ele>
        <time>2022-05-27T10:45:18Z</time>
      </trkpt>
      <trkpt lat="48.04263" lon="6.73276">
        <ele>832.8</ele>
        <time>2022-05-27T10:45:23Z</time>
      </trkpt>
      <trkpt lat="48.04262" lon="6.7329">
        <ele>833.3</ele>
        <time>2022-05-27T10:45:27Z</time>
      </trkpt>
      <trkpt lat="48.04262" lon="6.73305">
        <ele>834.9</ele>
        <time>2022-05-27T10:45:32Z</time>
      </trkpt>
      <trkpt lat="48.04263" lon="6.73321">
        <ele>835.9</ele>
        <time>2022-05-27T10:45:37Z</time>
      </trkpt>
      <trkpt lat="48.04267" lon="6.73333">
        <ele>837.3</ele>
        <time>2022-05-27T10:45:42Z</time>
      </trkpt>
      <trkpt lat="48.04272" lon="6.73346">
        <ele>838</ele>
        <time>2022-05-27T10:45:47Z</time>
      </trkpt>
      <trkpt lat="48.04276" lon="6.73359">
        <ele>839.4</ele>
        <time>2022-05-27T10:45:51Z</time>
      </trkpt>
      <trkpt lat="48.04281" lon="6.7337">
        <ele>839.3</ele>
        <time>2022-05-27T10:45:55Z</time>
      </trkpt>
      <trkpt lat="48.04285" lon="6.73382">
        <ele>839.8</ele>
        <time>2022-05-27T10:45:59Z</time>
      </trkpt>
      <trkpt lat="48.04288" lon="6.73397">
        <ele>840</ele>
        <time>2022-05-27T10:46:03Z</time>
      </trkpt>
      <trkpt lat="48.04291" lon="6.73414">
        <ele>840.2</ele>
        <time>2022-05-27T10:46:07Z</time>
      </trkpt>
      <trkpt lat="48.04292" lon="6.73428">
        <ele>840.5</ele>
        <time>2022-05-27T10:46:10Z</time>
      </trkpt>
      <trkpt lat="48.04296" lon="6.73442">
        <ele>840</ele>
        <time>2022-05-27T10:46:13Z</time>
      </trkpt>
      <trkpt lat="48.04301" lon="6.73458">
        <ele>840.3</ele>
        <time>2022-05-27T10:46:16Z</time>
      </trkpt>
      <trkpt lat="48.04308" lon="6.73472">
        <ele>839.8</ele>
        <time>2022-05-27T10:46:19Z</time>
      </trkpt>
      <trkpt lat="48.04316" lon="6.73488">
        <ele>838.8</ele>
        <time>2022-05-27T10:46:22Z</time>
      </trkpt>
      <trkpt lat="48.04322" lon="6.73501">
        <ele>838.6</ele>
        <time>2022-05-27T10:46:24Z</time>
      </trkpt>
      <trkpt lat="48.04328" lon="6.73514">
        <ele>839.2</ele>
        <time>2022-05-27T10:46:26Z</time>
      </trkpt>
      <trkpt lat="48.04333" lon="6.7353">
        <ele>837.8</ele>
        <time>2022-05-27T10:46:28Z</time>
      </trkpt>
      <trkpt lat="48.04339" lon="6.73546">
        <ele>838</ele>
        <time>2022-05-27T10:46:30Z</time>
      </trkpt>
      <trkpt lat="48.04347" lon="6.73562">
        <ele>837</ele>
        <time>2022-05-27T10:46:32Z</time>
      </trkpt>
      <trkpt lat="48.04356" lon="6.73579">
        <ele>833.7</ele>
        <time>2022-05-27T10:46:34Z</time>
      </trkpt>
      <trkpt lat="48.04365" lon="6.73597">
        <ele>834.7</ele>
        <time>2022-05-27T10:46:36Z</time>
      </trkpt>
      <trkpt lat="48.04369" lon="6.73612">
        <ele>833</ele>
        <time>2022-05-27T10:46:38Z</time>
      </trkpt>
      <trkpt lat="48.04372" lon="6.73629">
        <ele>834.8</ele>
        <time>2022-05-27T10:46:41Z</time>
      </trkpt>
      <trkpt lat="48.04376" lon="6.73643">
        <ele>834.9</ele>
        <time>2022-05-27T10:46:45Z</time>
      </trkpt>
      <trkpt lat="48.0438" lon="6.73656">
        <ele>832.9</ele>
        <time>2022-05-27T10:46:49Z</time>
      </trkpt>
      <trkpt lat="48.04387" lon="6.73666">
        <ele>832.9</ele>
        <time>2022-05-27T10:46:53Z</time>
      </trkpt>
      <trkpt lat="48.04396" lon="6.73671">
        <ele>832.8</ele>
        <time>2022-05-27T10:46:58Z</time>
      </trkpt>
      <trkpt lat="48.04401" lon="6.73671">
        <ele>832.9</ele>
        <time>2022-05-27T10:47:14Z</time>
      </trkpt>
      <trkpt lat="48.04401" lon="6.7367">
        <ele>832.1</ele>
        <time>2022-05-27T10:47:20Z</time>
      </trkpt>
      <trkpt lat="48.04401" lon="6.7367">
        <ele>831.9</ele>
        <time>2022-05-27T10:48:51Z</time>
      </trkpt>
      <trkpt lat="48.04401" lon="6.73669">
        <ele>831.6</ele>
        <time>2022-05-27T10:51:23Z</time>
      </trkpt>
      <trkpt lat="48.04401" lon="6.73669">
        <ele>831.2</ele>
        <time>2022-05-27T10:56:43Z</time>
      </trkpt>
      <trkpt lat="48.044" lon="6.73668">
        <ele>830.5</ele>
        <time>2022-05-27T10:59:12Z</time>
      </trkpt>
      <trkpt lat="48.044" lon="6.73668">
        <ele>831.2</ele>
        <time>2022-05-27T11:03:47Z</time>
      </trkpt>
      <trkpt lat="48.044" lon="6.73668">
        <ele>830.8</ele>
        <time>2022-05-27T11:08:03Z</time>
      </trkpt>
      <trkpt lat="48.04393" lon="6.73672">
        <ele>831.3</ele>
        <time>2022-05-27T11:08:23Z</time>
      </trkpt>
      <trkpt lat="48.04393" lon="6.73672">
        <ele>831.3</ele>
        <time>2022-05-27T11:08:24Z</time>
      </trkpt>
      <trkpt lat="48.04386" lon="6.73682">
        <ele>831</ele>
        <time>2022-05-27T11:08:49Z</time>
      </trkpt>
      <trkpt lat="48.04379" lon="6.73691">
        <ele>829.6</ele>
        <time>2022-05-27T11:08:57Z</time>
      </trkpt>
      <trkpt lat="48.04379" lon="6.73692">
        <ele>829</ele>
        <time>2022-05-27T11:08:59Z</time>
      </trkpt>
      <trkpt lat="48.04379" lon="6.73692">
        <ele>829</ele>
        <time>2022-05-27T11:09:23Z</time>
      </trkpt>
      <trkpt lat="48.04379" lon="6.73691">
        <ele>828.8</ele>
        <time>2022-05-27T11:10:34Z</time>
      </trkpt>
      <trkpt lat="48.04379" lon="6.73691">
        <ele>829.1</ele>
        <time>2022-05-27T11:10:42Z</time>
      </trkpt>
      <trkpt lat="48.04379" lon="6.73691">
        <ele>829.2</ele>
        <time>2022-05-27T11:11:51Z</time>
      </trkpt>
      <trkpt lat="48.0438" lon="6.7369">
        <ele>828.5</ele>
        <time>2022-05-27T11:13:22Z</time>
      </trkpt>
      <trkpt lat="48.04379" lon="6.73691">
        <ele>828.5</ele>
        <time>2022-05-27T11:13:24Z</time>
      </trkpt>
      <trkpt lat="48.0438" lon="6.73691">
        <ele>828</ele>
        <time>2022-05-27T11:15:12Z</time>
      </trkpt>
      <trkpt lat="48.04379" lon="6.73691">
        <ele>828.5</ele>
        <time>2022-05-27T11:16:12Z</time>
      </trkpt>
      <trkpt lat="48.04379" lon="6.7369">
        <ele>828.6</ele>
        <time>2022-05-27T11:16:14Z</time>
      </trkpt>
      <trkpt lat="48.04379" lon="6.7369">
        <ele>828.5</ele>
        <time>2022-05-27T11:16:57Z</time>
      </trkpt>
      <trkpt lat="48.04379" lon="6.7369">
        <ele>828.3</ele>
        <time>2022-05-27T11:17:00Z</time>
      </trkpt>
      <trkpt lat="48.04388" lon="6.73691">
        <ele>829.3</ele>
        <time>2022-05-27T11:18:28Z</time>
      </trkpt>
      <trkpt lat="48.04388" lon="6.7369">
        <ele>829.6</ele>
        <time>2022-05-27T11:18:34Z</time>
      </trkpt>
      <trkpt lat="48.04387" lon="6.73685">
        <ele>829.8</ele>
        <time>2022-05-27T11:18:41Z</time>
      </trkpt>
      <trkpt lat="48.04387" lon="6.73684">
        <ele>829.3</ele>
        <time>2022-05-27T11:18:44Z</time>
      </trkpt>
      <trkpt lat="48.04381" lon="6.73684">
        <ele>830</ele>
        <time>2022-05-27T11:18:58Z</time>
      </trkpt>
      <trkpt lat="48.04381" lon="6.73685">
        <ele>829.9</ele>
        <time>2022-05-27T11:19:14Z</time>
      </trkpt>
      <trkpt lat="48.04381" lon="6.73685">
        <ele>829.8</ele>
        <time>2022-05-27T11:19:15Z</time>
      </trkpt>
      <trkpt lat="48.04381" lon="6.73685">
        <ele>829.7</ele>
        <time>2022-05-27T11:19:18Z</time>
      </trkpt>
      <trkpt lat="48.04381" lon="6.73685">
        <ele>830.1</ele>
        <time>2022-05-27T11:19:20Z</time>
      </trkpt>
      <trkpt lat="48.04381" lon="6.73685">
        <ele>829.3</ele>
        <time>2022-05-27T11:20:07Z</time>
      </trkpt>
      <trkpt lat="48.04388" lon="6.73677">
        <ele>830.1</ele>
        <time>2022-05-27T11:20:21Z</time>
      </trkpt>
      <trkpt lat="48.04396" lon="6.73668">
        <ele>830.8</ele>
        <time>2022-05-27T11:20:31Z</time>
      </trkpt>
      <trkpt lat="48.04399" lon="6.73666">
        <ele>829.9</ele>
        <time>2022-05-27T11:20:37Z</time>
      </trkpt>
      <trkpt lat="48.044" lon="6.73666">
        <ele>830.7</ele>
        <time>2022-05-27T11:20:41Z</time>
      </trkpt>
      <trkpt lat="48.04401" lon="6.73666">
        <ele>830.3</ele>
        <time>2022-05-27T11:20:49Z</time>
      </trkpt>
      <trkpt lat="48.04401" lon="6.73667">
        <ele>830.1</ele>
        <time>2022-05-27T11:21:25Z</time>
      </trkpt>
      <trkpt lat="48.04402" lon="6.73667">
        <ele>830.2</ele>
        <time>2022-05-27T11:21:39Z</time>
      </trkpt>
      <trkpt lat="48.04402" lon="6.73667">
        <ele>830</ele>
        <time>2022-05-27T11:22:04Z</time>
      </trkpt>
      <trkpt lat="48.04402" lon="6.73667">
        <ele>830.4</ele>
        <time>2022-05-27T11:22:38Z</time>
      </trkpt>
      <trkpt lat="48.04402" lon="6.73667">
        <ele>830.3</ele>
        <time>2022-05-27T11:23:27Z</time>
      </trkpt>
      <trkpt lat="48.04402" lon="6.73667">
        <ele>830.4</ele>
        <time>2022-05-27T11:24:57Z</time>
      </trkpt>
      <trkpt lat="48.04402" lon="6.73667">
        <ele>830.6</ele>
        <time>2022-05-27T11:28:16Z</time>
      </trkpt>
      <trkpt lat="48.04402" lon="6.73667">
        <ele>831.1</ele>
        <time>2022-05-27T11:29:10Z</time>
      </trkpt>
      <trkpt lat="48.04401" lon="6.73667">
        <ele>830.8</ele>
        <time>2022-05-27T11:32:01Z</time>
      </trkpt>
      <trkpt lat="48.04401" lon="6.73667">
        <ele>831.5</ele>
        <time>2022-05-27T11:32:39Z</time>
      </trkpt>
      <trkpt lat="48.04401" lon="6.73667">
        <ele>831.3</ele>
        <time>2022-05-27T11:33:10Z</time>
      </trkpt>
      <trkpt lat="48.04401" lon="6.73667">
        <ele>831.2</ele>
        <time>2022-05-27T11:33:41Z</time>
      </trkpt>
      <trkpt lat="48.044" lon="6.73667">
        <ele>831.1</ele>
        <time>2022-05-27T11:33:43Z</time>
      </trkpt>
      <trkpt lat="48.044" lon="6.73667">
        <ele>831.1</ele>
        <time>2022-05-27T11:33:52Z</time>
      </trkpt>
      <trkpt lat="48.044" lon="6.73666">
        <ele>831.2</ele>
        <time>2022-05-27T11:33:55Z</time>
      </trkpt>
      <trkpt lat="48.04399" lon="6.73666">
        <ele>830.8</ele>
        <time>2022-05-27T11:34:34Z</time>
      </trkpt>
      <trkpt lat="48.04392" lon="6.73674">
        <ele>830.4</ele>
        <time>2022-05-27T11:34:50Z</time>
      </trkpt>
      <trkpt lat="48.04387" lon="6.73687">
        <ele>829.4</ele>
        <time>2022-05-27T11:34:55Z</time>
      </trkpt>
      <trkpt lat="48.04386" lon="6.73703">
        <ele>830</ele>
        <time>2022-05-27T11:34:58Z</time>
      </trkpt>
      <trkpt lat="48.04388" lon="6.7372">
        <ele>828.6</ele>
        <time>2022-05-27T11:35:01Z</time>
      </trkpt>
      <trkpt lat="48.04388" lon="6.73737">
        <ele>827.4</ele>
        <time>2022-05-27T11:35:04Z</time>
      </trkpt>
      <trkpt lat="48.04386" lon="6.73754">
        <ele>827.9</ele>
        <time>2022-05-27T11:35:07Z</time>
      </trkpt>
      <trkpt lat="48.04385" lon="6.73771">
        <ele>828</ele>
        <time>2022-05-27T11:35:10Z</time>
      </trkpt>
      <trkpt lat="48.04384" lon="6.73791">
        <ele>827.8</ele>
        <time>2022-05-27T11:35:13Z</time>
      </trkpt>
      <trkpt lat="48.04382" lon="6.73805">
        <ele>825.6</ele>
        <time>2022-05-27T11:35:15Z</time>
      </trkpt>
      <trkpt lat="48.04379" lon="6.73818">
        <ele>824.5</ele>
        <time>2022-05-27T11:35:17Z</time>
      </trkpt>
      <trkpt lat="48.04376" lon="6.73831">
        <ele>825.6</ele>
        <time>2022-05-27T11:35:19Z</time>
      </trkpt>
      <trkpt lat="48.04371" lon="6.73843">
        <ele>825.4</ele>
        <time>2022-05-27T11:35:21Z</time>
      </trkpt>
      <trkpt lat="48.04364" lon="6.73856">
        <ele>825.1</ele>
        <time>2022-05-27T11:35:24Z</time>
      </trkpt>
      <trkpt lat="48.04357" lon="6.73867">
        <ele>825.4</ele>
        <time>2022-05-27T11:35:27Z</time>
      </trkpt>
      <trkpt lat="48.0435" lon="6.73877">
        <ele>825.6</ele>
        <time>2022-05-27T11:35:30Z</time>
      </trkpt>
      <trkpt lat="48.04344" lon="6.7389">
        <ele>824.9</ele>
        <time>2022-05-27T11:35:33Z</time>
      </trkpt>
      <trkpt lat="48.04338" lon="6.73904">
        <ele>823.7</ele>
        <time>2022-05-27T11:35:36Z</time>
      </trkpt>
      <trkpt lat="48.04333" lon="6.73918">
        <ele>823.3</ele>
        <time>2022-05-27T11:35:39Z</time>
      </trkpt>
      <trkpt lat="48.04329" lon="6.73933">
        <ele>824.2</ele>
        <time>2022-05-27T11:35:42Z</time>
      </trkpt>
      <trkpt lat="48.04327" lon="6.73953">
        <ele>822</ele>
        <time>2022-05-27T11:35:45Z</time>
      </trkpt>
      <trkpt lat="48.04326" lon="6.7397">
        <ele>819.8</ele>
        <time>2022-05-27T11:35:47Z</time>
      </trkpt>
      <trkpt lat="48.04322" lon="6.7399">
        <ele>818.7</ele>
        <time>2022-05-27T11:35:49Z</time>
      </trkpt>
      <trkpt lat="48.04316" lon="6.74007">
        <ele>817.9</ele>
        <time>2022-05-27T11:35:51Z</time>
      </trkpt>
      <trkpt lat="48.04313" lon="6.74023">
        <ele>815.9</ele>
        <time>2022-05-27T11:35:53Z</time>
      </trkpt>
      <trkpt lat="48.04314" lon="6.74039">
        <ele>816.8</ele>
        <time>2022-05-27T11:35:55Z</time>
      </trkpt>
      <trkpt lat="48.04318" lon="6.74054">
        <ele>818.8</ele>
        <time>2022-05-27T11:35:57Z</time>
      </trkpt>
      <trkpt lat="48.04323" lon="6.74067">
        <ele>817.3</ele>
        <time>2022-05-27T11:35:59Z</time>
      </trkpt>
      <trkpt lat="48.0433" lon="6.74079">
        <ele>815.5</ele>
        <time>2022-05-27T11:36:01Z</time>
      </trkpt>
      <trkpt lat="48.04336" lon="6.74089">
        <ele>817.6</ele>
        <time>2022-05-27T11:36:03Z</time>
      </trkpt>
      <trkpt lat="48.04344" lon="6.74097">
        <ele>815.2</ele>
        <time>2022-05-27T11:36:05Z</time>
      </trkpt>
      <trkpt lat="48.04353" lon="6.74106">
        <ele>812.8</ele>
        <time>2022-05-27T11:36:07Z</time>
      </trkpt>
      <trkpt lat="48.04363" lon="6.74114">
        <ele>813.1</ele>
        <time>2022-05-27T11:36:09Z</time>
      </trkpt>
      <trkpt lat="48.04371" lon="6.74121">
        <ele>812.1</ele>
        <time>2022-05-27T11:36:11Z</time>
      </trkpt>
      <trkpt lat="48.04379" lon="6.74136">
        <ele>811.8</ele>
        <time>2022-05-27T11:36:14Z</time>
      </trkpt>
      <trkpt lat="48.04374" lon="6.74155">
        <ele>811.6</ele>
        <time>2022-05-27T11:36:17Z</time>
      </trkpt>
      <trkpt lat="48.04368" lon="6.74166">
        <ele>811.4</ele>
        <time>2022-05-27T11:36:19Z</time>
      </trkpt>
      <trkpt lat="48.04359" lon="6.74181">
        <ele>810.3</ele>
        <time>2022-05-27T11:36:22Z</time>
      </trkpt>
      <trkpt lat="48.04354" lon="6.74193">
        <ele>810.2</ele>
        <time>2022-05-27T11:36:24Z</time>
      </trkpt>
      <trkpt lat="48.0435" lon="6.74205">
        <ele>810.8</ele>
        <time>2022-05-27T11:36:26Z</time>
      </trkpt>
      <trkpt lat="48.04347" lon="6.74219">
        <ele>811.2</ele>
        <time>2022-05-27T11:36:28Z</time>
      </trkpt>
      <trkpt lat="48.04346" lon="6.74237">
        <ele>812.3</ele>
        <time>2022-05-27T11:36:31Z</time>
      </trkpt>
      <trkpt lat="48.04348" lon="6.74253">
        <ele>811.9</ele>
        <time>2022-05-27T11:36:34Z</time>
      </trkpt>
      <trkpt lat="48.0435" lon="6.74267">
        <ele>812.5</ele>
        <time>2022-05-27T11:36:37Z</time>
      </trkpt>
      <trkpt lat="48.04348" lon="6.74284">
        <ele>814.3</ele>
        <time>2022-05-27T11:36:41Z</time>
      </trkpt>
      <trkpt lat="48.04343" lon="6.74299">
        <ele>814.5</ele>
        <time>2022-05-27T11:36:45Z</time>
      </trkpt>
      <trkpt lat="48.04337" lon="6.74313">
        <ele>814.6</ele>
        <time>2022-05-27T11:36:49Z</time>
      </trkpt>
      <trkpt lat="48.04331" lon="6.74328">
        <ele>814.2</ele>
        <time>2022-05-27T11:36:53Z</time>
      </trkpt>
      <trkpt lat="48.04327" lon="6.74341">
        <ele>815.9</ele>
        <time>2022-05-27T11:36:57Z</time>
      </trkpt>
      <trkpt lat="48.04322" lon="6.74354">
        <ele>816.1</ele>
        <time>2022-05-27T11:37:02Z</time>
      </trkpt>
      <trkpt lat="48.04317" lon="6.74369">
        <ele>816.7</ele>
        <time>2022-05-27T11:37:07Z</time>
      </trkpt>
      <trkpt lat="48.04313" lon="6.74382">
        <ele>817.6</ele>
        <time>2022-05-27T11:37:11Z</time>
      </trkpt>
      <trkpt lat="48.04308" lon="6.74396">
        <ele>818.1</ele>
        <time>2022-05-27T11:37:16Z</time>
      </trkpt>
      <trkpt lat="48.043" lon="6.74407">
        <ele>818.6</ele>
        <time>2022-05-27T11:37:21Z</time>
      </trkpt>
      <trkpt lat="48.04292" lon="6.74414">
        <ele>818.2</ele>
        <time>2022-05-27T11:37:25Z</time>
      </trkpt>
      <trkpt lat="48.04282" lon="6.7442">
        <ele>818.1</ele>
        <time>2022-05-27T11:37:29Z</time>
      </trkpt>
      <trkpt lat="48.04273" lon="6.74427">
        <ele>819.4</ele>
        <time>2022-05-27T11:37:33Z</time>
      </trkpt>
      <trkpt lat="48.04264" lon="6.74436">
        <ele>819</ele>
        <time>2022-05-27T11:37:37Z</time>
      </trkpt>
      <trkpt lat="48.04257" lon="6.74448">
        <ele>819.1</ele>
        <time>2022-05-27T11:37:41Z</time>
      </trkpt>
      <trkpt lat="48.04249" lon="6.7446">
        <ele>818.9</ele>
        <time>2022-05-27T11:37:45Z</time>
      </trkpt>
      <trkpt lat="48.04242" lon="6.74474">
        <ele>819.6</ele>
        <time>2022-05-27T11:37:49Z</time>
      </trkpt>
      <trkpt lat="48.04238" lon="6.74489">
        <ele>820</ele>
        <time>2022-05-27T11:37:53Z</time>
      </trkpt>
      <trkpt lat="48.04236" lon="6.74507">
        <ele>819.7</ele>
        <time>2022-05-27T11:37:57Z</time>
      </trkpt>
      <trkpt lat="48.04235" lon="6.74521">
        <ele>820.3</ele>
        <time>2022-05-27T11:38:00Z</time>
      </trkpt>
      <trkpt lat="48.04233" lon="6.74534">
        <ele>820.6</ele>
        <time>2022-05-27T11:38:03Z</time>
      </trkpt>
      <trkpt lat="48.04231" lon="6.74552">
        <ele>819.7</ele>
        <time>2022-05-27T11:38:07Z</time>
      </trkpt>
      <trkpt lat="48.0423" lon="6.74566">
        <ele>820.7</ele>
        <time>2022-05-27T11:38:10Z</time>
      </trkpt>
      <trkpt lat="48.04229" lon="6.74582">
        <ele>820.9</ele>
        <time>2022-05-27T11:38:14Z</time>
      </trkpt>
      <trkpt lat="48.04228" lon="6.746">
        <ele>820.9</ele>
        <time>2022-05-27T11:38:18Z</time>
      </trkpt>
      <trkpt lat="48.04228" lon="6.74614">
        <ele>820.2</ele>
        <time>2022-05-27T11:38:21Z</time>
      </trkpt>
      <trkpt lat="48.04227" lon="6.74632">
        <ele>820.4</ele>
        <time>2022-05-27T11:38:25Z</time>
      </trkpt>
      <trkpt lat="48.04225" lon="6.74647">
        <ele>819.8</ele>
        <time>2022-05-27T11:38:28Z</time>
      </trkpt>
      <trkpt lat="48.04222" lon="6.74662">
        <ele>820.9</ele>
        <time>2022-05-27T11:38:31Z</time>
      </trkpt>
      <trkpt lat="48.04218" lon="6.74675">
        <ele>821.1</ele>
        <time>2022-05-27T11:38:34Z</time>
      </trkpt>
      <trkpt lat="48.04212" lon="6.74688">
        <ele>821</ele>
        <time>2022-05-27T11:38:37Z</time>
      </trkpt>
      <trkpt lat="48.04207" lon="6.747">
        <ele>821.5</ele>
        <time>2022-05-27T11:38:40Z</time>
      </trkpt>
      <trkpt lat="48.04204" lon="6.74717">
        <ele>821.9</ele>
        <time>2022-05-27T11:38:44Z</time>
      </trkpt>
      <trkpt lat="48.04203" lon="6.74735">
        <ele>822.5</ele>
        <time>2022-05-27T11:38:48Z</time>
      </trkpt>
      <trkpt lat="48.04203" lon="6.74749">
        <ele>822.5</ele>
        <time>2022-05-27T11:38:51Z</time>
      </trkpt>
      <trkpt lat="48.04204" lon="6.74764">
        <ele>822.2</ele>
        <time>2022-05-27T11:38:54Z</time>
      </trkpt>
      <trkpt lat="48.04205" lon="6.7478">
        <ele>822.1</ele>
        <time>2022-05-27T11:38:57Z</time>
      </trkpt>
      <trkpt lat="48.04206" lon="6.74796">
        <ele>821.5</ele>
        <time>2022-05-27T11:39:00Z</time>
      </trkpt>
      <trkpt lat="48.04206" lon="6.74812">
        <ele>820.8</ele>
        <time>2022-05-27T11:39:03Z</time>
      </trkpt>
      <trkpt lat="48.04208" lon="6.74829">
        <ele>821.7</ele>
        <time>2022-05-27T11:39:06Z</time>
      </trkpt>
      <trkpt lat="48.04209" lon="6.74847">
        <ele>820.9</ele>
        <time>2022-05-27T11:39:09Z</time>
      </trkpt>
      <trkpt lat="48.0421" lon="6.74867">
        <ele>820.3</ele>
        <time>2022-05-27T11:39:12Z</time>
      </trkpt>
      <trkpt lat="48.0421" lon="6.74886">
        <ele>820.4</ele>
        <time>2022-05-27T11:39:15Z</time>
      </trkpt>
      <trkpt lat="48.0421" lon="6.74906">
        <ele>821.1</ele>
        <time>2022-05-27T11:39:18Z</time>
      </trkpt>
      <trkpt lat="48.04209" lon="6.74919">
        <ele>820.1</ele>
        <time>2022-05-27T11:39:20Z</time>
      </trkpt>
      <trkpt lat="48.04206" lon="6.74932">
        <ele>820.8</ele>
        <time>2022-05-27T11:39:22Z</time>
      </trkpt>
      <trkpt lat="48.04204" lon="6.74946">
        <ele>820.4</ele>
        <time>2022-05-27T11:39:24Z</time>
      </trkpt>
      <trkpt lat="48.04197" lon="6.74963">
        <ele>820.6</ele>
        <time>2022-05-27T11:39:27Z</time>
      </trkpt>
      <trkpt lat="48.04192" lon="6.74975">
        <ele>819.7</ele>
        <time>2022-05-27T11:39:29Z</time>
      </trkpt>
      <trkpt lat="48.04187" lon="6.74987">
        <ele>820.5</ele>
        <time>2022-05-27T11:39:31Z</time>
      </trkpt>
      <trkpt lat="48.04182" lon="6.74999">
        <ele>820.2</ele>
        <time>2022-05-27T11:39:33Z</time>
      </trkpt>
      <trkpt lat="48.04176" lon="6.75017">
        <ele>820.1</ele>
        <time>2022-05-27T11:39:36Z</time>
      </trkpt>
      <trkpt lat="48.0417" lon="6.75032">
        <ele>820.3</ele>
        <time>2022-05-27T11:39:39Z</time>
      </trkpt>
      <trkpt lat="48.04164" lon="6.75047">
        <ele>819.8</ele>
        <time>2022-05-27T11:39:42Z</time>
      </trkpt>
      <trkpt lat="48.0416" lon="6.75061">
        <ele>819</ele>
        <time>2022-05-27T11:39:45Z</time>
      </trkpt>
      <trkpt lat="48.04157" lon="6.75077">
        <ele>819.1</ele>
        <time>2022-05-27T11:39:48Z</time>
      </trkpt>
      <trkpt lat="48.04151" lon="6.75093">
        <ele>818.6</ele>
        <time>2022-05-27T11:39:51Z</time>
      </trkpt>
      <trkpt lat="48.04147" lon="6.75107">
        <ele>819.8</ele>
        <time>2022-05-27T11:39:54Z</time>
      </trkpt>
      <trkpt lat="48.04139" lon="6.7512">
        <ele>820.6</ele>
        <time>2022-05-27T11:39:58Z</time>
      </trkpt>
      <trkpt lat="48.04131" lon="6.75129">
        <ele>821.4</ele>
        <time>2022-05-27T11:40:02Z</time>
      </trkpt>
      <trkpt lat="48.04123" lon="6.75139">
        <ele>822.9</ele>
        <time>2022-05-27T11:40:07Z</time>
      </trkpt>
      <trkpt lat="48.04116" lon="6.7515">
        <ele>823.7</ele>
        <time>2022-05-27T11:40:12Z</time>
      </trkpt>
      <trkpt lat="48.04109" lon="6.7516">
        <ele>824.6</ele>
        <time>2022-05-27T11:40:17Z</time>
      </trkpt>
      <trkpt lat="48.04102" lon="6.75172">
        <ele>825.6</ele>
        <time>2022-05-27T11:40:22Z</time>
      </trkpt>
      <trkpt lat="48.04097" lon="6.75182">
        <ele>826.2</ele>
        <time>2022-05-27T11:40:26Z</time>
      </trkpt>
      <trkpt lat="48.04091" lon="6.75195">
        <ele>827</ele>
        <time>2022-05-27T11:40:31Z</time>
      </trkpt>
      <trkpt lat="48.04086" lon="6.75208">
        <ele>827.8</ele>
        <time>2022-05-27T11:40:36Z</time>
      </trkpt>
      <trkpt lat="48.04082" lon="6.75222">
        <ele>828.5</ele>
        <time>2022-05-27T11:40:41Z</time>
      </trkpt>
      <trkpt lat="48.04078" lon="6.75237">
        <ele>829.2</ele>
        <time>2022-05-27T11:40:46Z</time>
      </trkpt>
      <trkpt lat="48.04074" lon="6.75251">
        <ele>829.7</ele>
        <time>2022-05-27T11:40:51Z</time>
      </trkpt>
      <trkpt lat="48.0407" lon="6.75264">
        <ele>830.9</ele>
        <time>2022-05-27T11:40:56Z</time>
      </trkpt>
      <trkpt lat="48.04066" lon="6.75277">
        <ele>831.6</ele>
        <time>2022-05-27T11:41:01Z</time>
      </trkpt>
      <trkpt lat="48.0406" lon="6.7529">
        <ele>832.1</ele>
        <time>2022-05-27T11:41:06Z</time>
      </trkpt>
      <trkpt lat="48.04054" lon="6.75304">
        <ele>832.3</ele>
        <time>2022-05-27T11:41:11Z</time>
      </trkpt>
      <trkpt lat="48.04049" lon="6.75315">
        <ele>832.6</ele>
        <time>2022-05-27T11:41:15Z</time>
      </trkpt>
      <trkpt lat="48.04042" lon="6.75328">
        <ele>833.4</ele>
        <time>2022-05-27T11:41:20Z</time>
      </trkpt>
      <trkpt lat="48.04034" lon="6.7534">
        <ele>833.7</ele>
        <time>2022-05-27T11:41:25Z</time>
      </trkpt>
      <trkpt lat="48.04029" lon="6.75352">
        <ele>833.8</ele>
        <time>2022-05-27T11:41:29Z</time>
      </trkpt>
      <trkpt lat="48.04022" lon="6.75364">
        <ele>834.8</ele>
        <time>2022-05-27T11:41:34Z</time>
      </trkpt>
      <trkpt lat="48.04015" lon="6.75377">
        <ele>835.6</ele>
        <time>2022-05-27T11:41:39Z</time>
      </trkpt>
      <trkpt lat="48.0401" lon="6.75389">
        <ele>836.5</ele>
        <time>2022-05-27T11:41:44Z</time>
      </trkpt>
      <trkpt lat="48.04003" lon="6.75399">
        <ele>837.1</ele>
        <time>2022-05-27T11:41:49Z</time>
      </trkpt>
      <trkpt lat="48.03995" lon="6.75407">
        <ele>837.6</ele>
        <time>2022-05-27T11:41:54Z</time>
      </trkpt>
      <trkpt lat="48.03987" lon="6.75412">
        <ele>838.6</ele>
        <time>2022-05-27T11:41:59Z</time>
      </trkpt>
      <trkpt lat="48.03977" lon="6.75414">
        <ele>839.4</ele>
        <time>2022-05-27T11:42:04Z</time>
      </trkpt>
      <trkpt lat="48.03966" lon="6.75416">
        <ele>840.1</ele>
        <time>2022-05-27T11:42:09Z</time>
      </trkpt>
      <trkpt lat="48.03956" lon="6.75415">
        <ele>840.8</ele>
        <time>2022-05-27T11:42:14Z</time>
      </trkpt>
      <trkpt lat="48.03946" lon="6.75421">
        <ele>841.4</ele>
        <time>2022-05-27T11:42:19Z</time>
      </trkpt>
      <trkpt lat="48.03939" lon="6.75432">
        <ele>843.4</ele>
        <time>2022-05-27T11:42:25Z</time>
      </trkpt>
      <trkpt lat="48.03934" lon="6.75446">
        <ele>844.1</ele>
        <time>2022-05-27T11:42:31Z</time>
      </trkpt>
      <trkpt lat="48.03927" lon="6.75457">
        <ele>845.5</ele>
        <time>2022-05-27T11:42:37Z</time>
      </trkpt>
      <trkpt lat="48.03918" lon="6.75464">
        <ele>846.3</ele>
        <time>2022-05-27T11:42:43Z</time>
      </trkpt>
      <trkpt lat="48.03908" lon="6.75468">
        <ele>847.4</ele>
        <time>2022-05-27T11:42:49Z</time>
      </trkpt>
      <trkpt lat="48.03898" lon="6.75466">
        <ele>848.2</ele>
        <time>2022-05-27T11:42:55Z</time>
      </trkpt>
      <trkpt lat="48.03888" lon="6.75462">
        <ele>849.4</ele>
        <time>2022-05-27T11:43:01Z</time>
      </trkpt>
      <trkpt lat="48.03879" lon="6.75456">
        <ele>851</ele>
        <time>2022-05-27T11:43:07Z</time>
      </trkpt>
      <trkpt lat="48.0387" lon="6.75451">
        <ele>852.1</ele>
        <time>2022-05-27T11:43:13Z</time>
      </trkpt>
      <trkpt lat="48.03861" lon="6.75449">
        <ele>852.9</ele>
        <time>2022-05-27T11:43:19Z</time>
      </trkpt>
      <trkpt lat="48.03852" lon="6.7545">
        <ele>855</ele>
        <time>2022-05-27T11:43:25Z</time>
      </trkpt>
      <trkpt lat="48.03843" lon="6.75451">
        <ele>856.5</ele>
        <time>2022-05-27T11:43:32Z</time>
      </trkpt>
      <trkpt lat="48.03833" lon="6.75453">
        <ele>857.7</ele>
        <time>2022-05-27T11:43:40Z</time>
      </trkpt>
      <trkpt lat="48.03823" lon="6.75457">
        <ele>859.4</ele>
        <time>2022-05-27T11:43:48Z</time>
      </trkpt>
      <trkpt lat="48.03814" lon="6.7546">
        <ele>860.7</ele>
        <time>2022-05-27T11:43:55Z</time>
      </trkpt>
      <trkpt lat="48.03804" lon="6.75464">
        <ele>861.6</ele>
        <time>2022-05-27T11:44:02Z</time>
      </trkpt>
      <trkpt lat="48.03795" lon="6.75468">
        <ele>862.9</ele>
        <time>2022-05-27T11:44:09Z</time>
      </trkpt>
      <trkpt lat="48.03786" lon="6.75475">
        <ele>864.6</ele>
        <time>2022-05-27T11:44:15Z</time>
      </trkpt>
      <trkpt lat="48.03776" lon="6.7548">
        <ele>865.2</ele>
        <time>2022-05-27T11:44:21Z</time>
      </trkpt>
      <trkpt lat="48.03766" lon="6.75487">
        <ele>864.9</ele>
        <time>2022-05-27T11:44:26Z</time>
      </trkpt>
      <trkpt lat="48.03758" lon="6.75494">
        <ele>865.4</ele>
        <time>2022-05-27T11:44:31Z</time>
      </trkpt>
      <trkpt lat="48.03752" lon="6.75504">
        <ele>865.7</ele>
        <time>2022-05-27T11:44:36Z</time>
      </trkpt>
      <trkpt lat="48.03746" lon="6.75515">
        <ele>866.8</ele>
        <time>2022-05-27T11:44:39Z</time>
      </trkpt>
      <trkpt lat="48.03739" lon="6.7553">
        <ele>866.6</ele>
        <time>2022-05-27T11:44:43Z</time>
      </trkpt>
      <trkpt lat="48.03733" lon="6.75545">
        <ele>865.6</ele>
        <time>2022-05-27T11:44:46Z</time>
      </trkpt>
      <trkpt lat="48.03728" lon="6.75556">
        <ele>864.8</ele>
        <time>2022-05-27T11:44:49Z</time>
      </trkpt>
      <trkpt lat="48.03722" lon="6.75567">
        <ele>865.3</ele>
        <time>2022-05-27T11:44:52Z</time>
      </trkpt>
      <trkpt lat="48.03715" lon="6.75579">
        <ele>866.1</ele>
        <time>2022-05-27T11:44:55Z</time>
      </trkpt>
      <trkpt lat="48.03708" lon="6.75591">
        <ele>865.9</ele>
        <time>2022-05-27T11:44:59Z</time>
      </trkpt>
      <trkpt lat="48.03701" lon="6.75601">
        <ele>866.6</ele>
        <time>2022-05-27T11:45:03Z</time>
      </trkpt>
      <trkpt lat="48.03695" lon="6.75614">
        <ele>865.7</ele>
        <time>2022-05-27T11:45:07Z</time>
      </trkpt>
      <trkpt lat="48.03689" lon="6.75629">
        <ele>865.1</ele>
        <time>2022-05-27T11:45:11Z</time>
      </trkpt>
      <trkpt lat="48.03684" lon="6.75641">
        <ele>864.5</ele>
        <time>2022-05-27T11:45:14Z</time>
      </trkpt>
      <trkpt lat="48.03678" lon="6.75654">
        <ele>864.3</ele>
        <time>2022-05-27T11:45:17Z</time>
      </trkpt>
      <trkpt lat="48.03671" lon="6.75667">
        <ele>865</ele>
        <time>2022-05-27T11:45:20Z</time>
      </trkpt>
      <trkpt lat="48.03664" lon="6.7568">
        <ele>864.4</ele>
        <time>2022-05-27T11:45:23Z</time>
      </trkpt>
      <trkpt lat="48.03656" lon="6.75693">
        <ele>864.1</ele>
        <time>2022-05-27T11:45:26Z</time>
      </trkpt>
      <trkpt lat="48.03647" lon="6.75707">
        <ele>863.4</ele>
        <time>2022-05-27T11:45:29Z</time>
      </trkpt>
      <trkpt lat="48.03641" lon="6.75718">
        <ele>863.2</ele>
        <time>2022-05-27T11:45:31Z</time>
      </trkpt>
      <trkpt lat="48.03635" lon="6.75728">
        <ele>862.8</ele>
        <time>2022-05-27T11:45:33Z</time>
      </trkpt>
      <trkpt lat="48.03627" lon="6.75744">
        <ele>862.9</ele>
        <time>2022-05-27T11:45:36Z</time>
      </trkpt>
      <trkpt lat="48.0362" lon="6.7576">
        <ele>861.3</ele>
        <time>2022-05-27T11:45:39Z</time>
      </trkpt>
      <trkpt lat="48.03616" lon="6.75773">
        <ele>861.2</ele>
        <time>2022-05-27T11:45:41Z</time>
      </trkpt>
      <trkpt lat="48.03612" lon="6.75786">
        <ele>861.7</ele>
        <time>2022-05-27T11:45:43Z</time>
      </trkpt>
      <trkpt lat="48.03607" lon="6.75803">
        <ele>861.7</ele>
        <time>2022-05-27T11:45:46Z</time>
      </trkpt>
      <trkpt lat="48.03602" lon="6.75821">
        <ele>860.1</ele>
        <time>2022-05-27T11:45:49Z</time>
      </trkpt>
      <trkpt lat="48.03597" lon="6.75839">
        <ele>861.1</ele>
        <time>2022-05-27T11:45:52Z</time>
      </trkpt>
      <trkpt lat="48.03592" lon="6.75852">
        <ele>861</ele>
        <time>2022-05-27T11:45:54Z</time>
      </trkpt>
      <trkpt lat="48.03587" lon="6.75865">
        <ele>858.8</ele>
        <time>2022-05-27T11:45:56Z</time>
      </trkpt>
      <trkpt lat="48.03582" lon="6.75878">
        <ele>858.7</ele>
        <time>2022-05-27T11:45:58Z</time>
      </trkpt>
      <trkpt lat="48.03577" lon="6.75892">
        <ele>859.5</ele>
        <time>2022-05-27T11:46:00Z</time>
      </trkpt>
      <trkpt lat="48.03572" lon="6.75906">
        <ele>859.5</ele>
        <time>2022-05-27T11:46:02Z</time>
      </trkpt>
      <trkpt lat="48.03567" lon="6.75918">
        <ele>860</ele>
        <time>2022-05-27T11:46:04Z</time>
      </trkpt>
      <trkpt lat="48.03562" lon="6.75934">
        <ele>859.6</ele>
        <time>2022-05-27T11:46:07Z</time>
      </trkpt>
      <trkpt lat="48.03556" lon="6.75949">
        <ele>860.6</ele>
        <time>2022-05-27T11:46:10Z</time>
      </trkpt>
      <trkpt lat="48.03552" lon="6.75964">
        <ele>857.6</ele>
        <time>2022-05-27T11:46:13Z</time>
      </trkpt>
      <trkpt lat="48.03547" lon="6.7598">
        <ele>858.6</ele>
        <time>2022-05-27T11:46:16Z</time>
      </trkpt>
      <trkpt lat="48.03542" lon="6.75995">
        <ele>858.8</ele>
        <time>2022-05-27T11:46:19Z</time>
      </trkpt>
      <trkpt lat="48.03537" lon="6.76012">
        <ele>859.5</ele>
        <time>2022-05-27T11:46:22Z</time>
      </trkpt>
      <trkpt lat="48.03532" lon="6.76028">
        <ele>859</ele>
        <time>2022-05-27T11:46:25Z</time>
      </trkpt>
      <trkpt lat="48.03528" lon="6.76042">
        <ele>859.5</ele>
        <time>2022-05-27T11:46:28Z</time>
      </trkpt>
      <trkpt lat="48.03524" lon="6.76056">
        <ele>859.7</ele>
        <time>2022-05-27T11:46:31Z</time>
      </trkpt>
      <trkpt lat="48.03521" lon="6.76068">
        <ele>861.3</ele>
        <time>2022-05-27T11:46:34Z</time>
      </trkpt>
      <trkpt lat="48.03517" lon="6.76084">
        <ele>860.5</ele>
        <time>2022-05-27T11:46:38Z</time>
      </trkpt>
      <trkpt lat="48.03512" lon="6.761">
        <ele>861.5</ele>
        <time>2022-05-27T11:46:42Z</time>
      </trkpt>
      <trkpt lat="48.03508" lon="6.76114">
        <ele>861.8</ele>
        <time>2022-05-27T11:46:45Z</time>
      </trkpt>
      <trkpt lat="48.03503" lon="6.76132">
        <ele>861.2</ele>
        <time>2022-05-27T11:46:48Z</time>
      </trkpt>
      <trkpt lat="48.03499" lon="6.76148">
        <ele>861.2</ele>
        <time>2022-05-27T11:46:51Z</time>
      </trkpt>
      <trkpt lat="48.03496" lon="6.76162">
        <ele>862.5</ele>
        <time>2022-05-27T11:46:54Z</time>
      </trkpt>
      <trkpt lat="48.03493" lon="6.76176">
        <ele>864</ele>
        <time>2022-05-27T11:46:58Z</time>
      </trkpt>
      <trkpt lat="48.0349" lon="6.76189">
        <ele>865.1</ele>
        <time>2022-05-27T11:47:02Z</time>
      </trkpt>
      <trkpt lat="48.03486" lon="6.76204">
        <ele>865.6</ele>
        <time>2022-05-27T11:47:07Z</time>
      </trkpt>
      <trkpt lat="48.03484" lon="6.7622">
        <ele>866.7</ele>
        <time>2022-05-27T11:47:12Z</time>
      </trkpt>
      <trkpt lat="48.03482" lon="6.76236">
        <ele>867.8</ele>
        <time>2022-05-27T11:47:17Z</time>
      </trkpt>
      <trkpt lat="48.03481" lon="6.76253">
        <ele>867.8</ele>
        <time>2022-05-27T11:47:22Z</time>
      </trkpt>
      <trkpt lat="48.0348" lon="6.76267">
        <ele>868.7</ele>
        <time>2022-05-27T11:47:26Z</time>
      </trkpt>
      <trkpt lat="48.0348" lon="6.76282">
        <ele>869.5</ele>
        <time>2022-05-27T11:47:30Z</time>
      </trkpt>
      <trkpt lat="48.03479" lon="6.76298">
        <ele>870.1</ele>
        <time>2022-05-27T11:47:34Z</time>
      </trkpt>
      <trkpt lat="48.0348" lon="6.76315">
        <ele>870.2</ele>
        <time>2022-05-27T11:47:38Z</time>
      </trkpt>
      <trkpt lat="48.03481" lon="6.76332">
        <ele>869.9</ele>
        <time>2022-05-27T11:47:42Z</time>
      </trkpt>
      <trkpt lat="48.03481" lon="6.76349">
        <ele>870.1</ele>
        <time>2022-05-27T11:47:46Z</time>
      </trkpt>
      <trkpt lat="48.03482" lon="6.76367">
        <ele>870.6</ele>
        <time>2022-05-27T11:47:50Z</time>
      </trkpt>
      <trkpt lat="48.03483" lon="6.76383">
        <ele>871.7</ele>
        <time>2022-05-27T11:47:54Z</time>
      </trkpt>
      <trkpt lat="48.03486" lon="6.764">
        <ele>871.5</ele>
        <time>2022-05-27T11:47:58Z</time>
      </trkpt>
      <trkpt lat="48.0349" lon="6.76415">
        <ele>871.2</ele>
        <time>2022-05-27T11:48:01Z</time>
      </trkpt>
      <trkpt lat="48.03493" lon="6.76433">
        <ele>870.2</ele>
        <time>2022-05-27T11:48:04Z</time>
      </trkpt>
      <trkpt lat="48.03493" lon="6.7645">
        <ele>872.4</ele>
        <time>2022-05-27T11:48:08Z</time>
      </trkpt>
      <trkpt lat="48.03494" lon="6.76467">
        <ele>871.5</ele>
        <time>2022-05-27T11:48:12Z</time>
      </trkpt>
      <trkpt lat="48.03497" lon="6.76484">
        <ele>873.2</ele>
        <time>2022-05-27T11:48:16Z</time>
      </trkpt>
      <trkpt lat="48.03503" lon="6.76499">
        <ele>874.2</ele>
        <time>2022-05-27T11:48:20Z</time>
      </trkpt>
      <trkpt lat="48.03508" lon="6.76514">
        <ele>873.8</ele>
        <time>2022-05-27T11:48:24Z</time>
      </trkpt>
      <trkpt lat="48.03514" lon="6.76529">
        <ele>874</ele>
        <time>2022-05-27T11:48:28Z</time>
      </trkpt>
      <trkpt lat="48.03518" lon="6.76542">
        <ele>874.7</ele>
        <time>2022-05-27T11:48:31Z</time>
      </trkpt>
      <trkpt lat="48.03526" lon="6.76552">
        <ele>872.5</ele>
        <time>2022-05-27T11:48:34Z</time>
      </trkpt>
      <trkpt lat="48.03531" lon="6.76567">
        <ele>874</ele>
        <time>2022-05-27T11:48:38Z</time>
      </trkpt>
      <trkpt lat="48.03533" lon="6.76584">
        <ele>872.6</ele>
        <time>2022-05-27T11:48:41Z</time>
      </trkpt>
      <trkpt lat="48.0353" lon="6.76602">
        <ele>872.1</ele>
        <time>2022-05-27T11:48:44Z</time>
      </trkpt>
      <trkpt lat="48.03525" lon="6.7662">
        <ele>870.5</ele>
        <time>2022-05-27T11:48:47Z</time>
      </trkpt>
      <trkpt lat="48.03521" lon="6.76636">
        <ele>869.6</ele>
        <time>2022-05-27T11:48:49Z</time>
      </trkpt>
      <trkpt lat="48.03514" lon="6.76652">
        <ele>868.8</ele>
        <time>2022-05-27T11:48:51Z</time>
      </trkpt>
      <trkpt lat="48.03507" lon="6.76665">
        <ele>868.3</ele>
        <time>2022-05-27T11:48:53Z</time>
      </trkpt>
      <trkpt lat="48.03499" lon="6.76676">
        <ele>867.3</ele>
        <time>2022-05-27T11:48:55Z</time>
      </trkpt>
      <trkpt lat="48.0349" lon="6.76684">
        <ele>869.2</ele>
        <time>2022-05-27T11:48:57Z</time>
      </trkpt>
      <trkpt lat="48.0348" lon="6.76696">
        <ele>867</ele>
        <time>2022-05-27T11:48:59Z</time>
      </trkpt>
      <trkpt lat="48.03471" lon="6.76713">
        <ele>866.6</ele>
        <time>2022-05-27T11:49:01Z</time>
      </trkpt>
      <trkpt lat="48.03468" lon="6.76736">
        <ele>863.6</ele>
        <time>2022-05-27T11:49:03Z</time>
      </trkpt>
      <trkpt lat="48.03466" lon="6.76756">
        <ele>863.7</ele>
        <time>2022-05-27T11:49:05Z</time>
      </trkpt>
      <trkpt lat="48.03464" lon="6.76771">
        <ele>860.5</ele>
        <time>2022-05-27T11:49:07Z</time>
      </trkpt>
      <trkpt lat="48.03459" lon="6.76783">
        <ele>862.1</ele>
        <time>2022-05-27T11:49:09Z</time>
      </trkpt>
      <trkpt lat="48.03451" lon="6.76795">
        <ele>861.3</ele>
        <time>2022-05-27T11:49:11Z</time>
      </trkpt>
      <trkpt lat="48.03442" lon="6.76806">
        <ele>859.9</ele>
        <time>2022-05-27T11:49:13Z</time>
      </trkpt>
      <trkpt lat="48.03435" lon="6.76818">
        <ele>859.1</ele>
        <time>2022-05-27T11:49:15Z</time>
      </trkpt>
      <trkpt lat="48.0343" lon="6.7683">
        <ele>861.2</ele>
        <time>2022-05-27T11:49:17Z</time>
      </trkpt>
      <trkpt lat="48.03428" lon="6.76848">
        <ele>861.5</ele>
        <time>2022-05-27T11:49:20Z</time>
      </trkpt>
      <trkpt lat="48.0343" lon="6.76863">
        <ele>864</ele>
        <time>2022-05-27T11:49:23Z</time>
      </trkpt>
      <trkpt lat="48.03435" lon="6.76877">
        <ele>865.6</ele>
        <time>2022-05-27T11:49:26Z</time>
      </trkpt>
      <trkpt lat="48.03442" lon="6.76891">
        <ele>865.7</ele>
        <time>2022-05-27T11:49:29Z</time>
      </trkpt>
      <trkpt lat="48.03447" lon="6.76902">
        <ele>865.2</ele>
        <time>2022-05-27T11:49:31Z</time>
      </trkpt>
      <trkpt lat="48.03455" lon="6.76917">
        <ele>864.8</ele>
        <time>2022-05-27T11:49:34Z</time>
      </trkpt>
      <trkpt lat="48.0346" lon="6.76929">
        <ele>864.7</ele>
        <time>2022-05-27T11:49:36Z</time>
      </trkpt>
      <trkpt lat="48.03464" lon="6.76942">
        <ele>864.1</ele>
        <time>2022-05-27T11:49:38Z</time>
      </trkpt>
      <trkpt lat="48.0347" lon="6.76957">
        <ele>864</ele>
        <time>2022-05-27T11:49:40Z</time>
      </trkpt>
      <trkpt lat="48.03476" lon="6.76972">
        <ele>862.6</ele>
        <time>2022-05-27T11:49:42Z</time>
      </trkpt>
      <trkpt lat="48.0348" lon="6.76988">
        <ele>860.8</ele>
        <time>2022-05-27T11:49:44Z</time>
      </trkpt>
      <trkpt lat="48.03482" lon="6.77002">
        <ele>863</ele>
        <time>2022-05-27T11:49:46Z</time>
      </trkpt>
      <trkpt lat="48.03483" lon="6.77019">
        <ele>864</ele>
        <time>2022-05-27T11:49:49Z</time>
      </trkpt>
      <trkpt lat="48.03484" lon="6.77034">
        <ele>863.2</ele>
        <time>2022-05-27T11:49:52Z</time>
      </trkpt>
      <trkpt lat="48.03487" lon="6.77052">
        <ele>863.5</ele>
        <time>2022-05-27T11:49:55Z</time>
      </trkpt>
      <trkpt lat="48.03492" lon="6.77069">
        <ele>861.2</ele>
        <time>2022-05-27T11:49:58Z</time>
      </trkpt>
      <trkpt lat="48.03494" lon="6.77084">
        <ele>861.1</ele>
        <time>2022-05-27T11:50:00Z</time>
      </trkpt>
      <trkpt lat="48.03497" lon="6.77099">
        <ele>862.4</ele>
        <time>2022-05-27T11:50:02Z</time>
      </trkpt>
      <trkpt lat="48.03501" lon="6.77111">
        <ele>860.4</ele>
        <time>2022-05-27T11:50:04Z</time>
      </trkpt>
      <trkpt lat="48.03505" lon="6.77123">
        <ele>860.7</ele>
        <time>2022-05-27T11:50:06Z</time>
      </trkpt>
      <trkpt lat="48.03512" lon="6.77134">
        <ele>857.8</ele>
        <time>2022-05-27T11:50:08Z</time>
      </trkpt>
      <trkpt lat="48.03519" lon="6.77146">
        <ele>855.8</ele>
        <time>2022-05-27T11:50:10Z</time>
      </trkpt>
      <trkpt lat="48.03525" lon="6.77158">
        <ele>854.5</ele>
        <time>2022-05-27T11:50:12Z</time>
      </trkpt>
      <trkpt lat="48.03532" lon="6.77175">
        <ele>854.8</ele>
        <time>2022-05-27T11:50:15Z</time>
      </trkpt>
      <trkpt lat="48.03534" lon="6.77188">
        <ele>855.2</ele>
        <time>2022-05-27T11:50:17Z</time>
      </trkpt>
      <trkpt lat="48.03533" lon="6.77207">
        <ele>855.1</ele>
        <time>2022-05-27T11:50:20Z</time>
      </trkpt>
      <trkpt lat="48.03527" lon="6.77223">
        <ele>855.3</ele>
        <time>2022-05-27T11:50:23Z</time>
      </trkpt>
      <trkpt lat="48.0352" lon="6.77235">
        <ele>854.5</ele>
        <time>2022-05-27T11:50:26Z</time>
      </trkpt>
      <trkpt lat="48.03517" lon="6.77248">
        <ele>855.7</ele>
        <time>2022-05-27T11:50:29Z</time>
      </trkpt>
      <trkpt lat="48.03518" lon="6.77266">
        <ele>853.5</ele>
        <time>2022-05-27T11:50:33Z</time>
      </trkpt>
      <trkpt lat="48.03523" lon="6.77282">
        <ele>852.9</ele>
        <time>2022-05-27T11:50:36Z</time>
      </trkpt>
      <trkpt lat="48.03527" lon="6.77296">
        <ele>848.4</ele>
        <time>2022-05-27T11:50:38Z</time>
      </trkpt>
      <trkpt lat="48.0353" lon="6.77311">
        <ele>850.5</ele>
        <time>2022-05-27T11:50:40Z</time>
      </trkpt>
      <trkpt lat="48.03535" lon="6.77327">
        <ele>852.9</ele>
        <time>2022-05-27T11:50:43Z</time>
      </trkpt>
      <trkpt lat="48.03541" lon="6.77338">
        <ele>853.7</ele>
        <time>2022-05-27T11:50:46Z</time>
      </trkpt>
      <trkpt lat="48.03548" lon="6.77349">
        <ele>854.9</ele>
        <time>2022-05-27T11:50:50Z</time>
      </trkpt>
      <trkpt lat="48.03555" lon="6.77359">
        <ele>855.8</ele>
        <time>2022-05-27T11:50:54Z</time>
      </trkpt>
      <trkpt lat="48.03562" lon="6.77369">
        <ele>856.8</ele>
        <time>2022-05-27T11:50:58Z</time>
      </trkpt>
      <trkpt lat="48.0357" lon="6.77379">
        <ele>858.1</ele>
        <time>2022-05-27T11:51:03Z</time>
      </trkpt>
      <trkpt lat="48.0358" lon="6.77386">
        <ele>859.1</ele>
        <time>2022-05-27T11:51:08Z</time>
      </trkpt>
      <trkpt lat="48.03588" lon="6.77397">
        <ele>860.2</ele>
        <time>2022-05-27T11:51:13Z</time>
      </trkpt>
      <trkpt lat="48.03595" lon="6.7741">
        <ele>861.7</ele>
        <time>2022-05-27T11:51:18Z</time>
      </trkpt>
      <trkpt lat="48.03601" lon="6.77424">
        <ele>863.1</ele>
        <time>2022-05-27T11:51:23Z</time>
      </trkpt>
      <trkpt lat="48.03604" lon="6.77436">
        <ele>863.8</ele>
        <time>2022-05-27T11:51:27Z</time>
      </trkpt>
      <trkpt lat="48.03609" lon="6.77449">
        <ele>864.1</ele>
        <time>2022-05-27T11:51:31Z</time>
      </trkpt>
      <trkpt lat="48.03613" lon="6.77462">
        <ele>864.8</ele>
        <time>2022-05-27T11:51:35Z</time>
      </trkpt>
      <trkpt lat="48.03617" lon="6.77475">
        <ele>865.4</ele>
        <time>2022-05-27T11:51:39Z</time>
      </trkpt>
      <trkpt lat="48.0362" lon="6.77487">
        <ele>866.4</ele>
        <time>2022-05-27T11:51:43Z</time>
      </trkpt>
      <trkpt lat="48.03622" lon="6.77501">
        <ele>866.9</ele>
        <time>2022-05-27T11:51:47Z</time>
      </trkpt>
      <trkpt lat="48.03625" lon="6.77516">
        <ele>867.7</ele>
        <time>2022-05-27T11:51:51Z</time>
      </trkpt>
      <trkpt lat="48.03629" lon="6.77529">
        <ele>868.6</ele>
        <time>2022-05-27T11:51:55Z</time>
      </trkpt>
      <trkpt lat="48.03633" lon="6.77542">
        <ele>869</ele>
        <time>2022-05-27T11:51:59Z</time>
      </trkpt>
      <trkpt lat="48.03639" lon="6.77555">
        <ele>869.8</ele>
        <time>2022-05-27T11:52:03Z</time>
      </trkpt>
      <trkpt lat="48.03646" lon="6.77567">
        <ele>870.7</ele>
        <time>2022-05-27T11:52:07Z</time>
      </trkpt>
      <trkpt lat="48.03653" lon="6.77579">
        <ele>871.2</ele>
        <time>2022-05-27T11:52:11Z</time>
      </trkpt>
      <trkpt lat="48.03659" lon="6.77591">
        <ele>871.9</ele>
        <time>2022-05-27T11:52:15Z</time>
      </trkpt>
      <trkpt lat="48.03666" lon="6.77602">
        <ele>872.1</ele>
        <time>2022-05-27T11:52:19Z</time>
      </trkpt>
      <trkpt lat="48.03672" lon="6.77613">
        <ele>872.9</ele>
        <time>2022-05-27T11:52:23Z</time>
      </trkpt>
      <trkpt lat="48.03681" lon="6.77622">
        <ele>873.5</ele>
        <time>2022-05-27T11:52:27Z</time>
      </trkpt>
      <trkpt lat="48.0369" lon="6.77627">
        <ele>873.7</ele>
        <time>2022-05-27T11:52:31Z</time>
      </trkpt>
      <trkpt lat="48.03701" lon="6.77629">
        <ele>874.2</ele>
        <time>2022-05-27T11:52:35Z</time>
      </trkpt>
      <trkpt lat="48.0371" lon="6.77629">
        <ele>874.3</ele>
        <time>2022-05-27T11:52:39Z</time>
      </trkpt>
      <trkpt lat="48.0372" lon="6.7763">
        <ele>874.4</ele>
        <time>2022-05-27T11:52:44Z</time>
      </trkpt>
      <trkpt lat="48.03731" lon="6.7763">
        <ele>875.2</ele>
        <time>2022-05-27T11:52:48Z</time>
      </trkpt>
      <trkpt lat="48.0374" lon="6.77628">
        <ele>875.4</ele>
        <time>2022-05-27T11:52:51Z</time>
      </trkpt>
      <trkpt lat="48.0375" lon="6.77627">
        <ele>875.6</ele>
        <time>2022-05-27T11:52:54Z</time>
      </trkpt>
      <trkpt lat="48.0376" lon="6.77627">
        <ele>876</ele>
        <time>2022-05-27T11:52:58Z</time>
      </trkpt>
      <trkpt lat="48.03771" lon="6.77627">
        <ele>877</ele>
        <time>2022-05-27T11:53:02Z</time>
      </trkpt>
      <trkpt lat="48.0378" lon="6.77627">
        <ele>877.8</ele>
        <time>2022-05-27T11:53:06Z</time>
      </trkpt>
      <trkpt lat="48.0379" lon="6.77627">
        <ele>878.7</ele>
        <time>2022-05-27T11:53:11Z</time>
      </trkpt>
      <trkpt lat="48.03798" lon="6.77629">
        <ele>879.2</ele>
        <time>2022-05-27T11:53:18Z</time>
      </trkpt>
      <trkpt lat="48.03798" lon="6.77629">
        <ele>879.7</ele>
        <time>2022-05-27T11:54:36Z</time>
      </trkpt>
      <trkpt lat="48.03807" lon="6.77636">
        <ele>880.8</ele>
        <time>2022-05-27T11:55:01Z</time>
      </trkpt>
      <trkpt lat="48.03815" lon="6.77647">
        <ele>882.8</ele>
        <time>2022-05-27T11:55:06Z</time>
      </trkpt>
      <trkpt lat="48.03822" lon="6.77656">
        <ele>882.9</ele>
        <time>2022-05-27T11:55:10Z</time>
      </trkpt>
      <trkpt lat="48.03828" lon="6.77666">
        <ele>883.6</ele>
        <time>2022-05-27T11:55:14Z</time>
      </trkpt>
      <trkpt lat="48.03834" lon="6.77679">
        <ele>884.7</ele>
        <time>2022-05-27T11:55:19Z</time>
      </trkpt>
      <trkpt lat="48.03838" lon="6.77691">
        <ele>884.7</ele>
        <time>2022-05-27T11:55:23Z</time>
      </trkpt>
      <trkpt lat="48.03844" lon="6.77704">
        <ele>885.5</ele>
        <time>2022-05-27T11:55:28Z</time>
      </trkpt>
      <trkpt lat="48.03848" lon="6.77717">
        <ele>885.8</ele>
        <time>2022-05-27T11:55:33Z</time>
      </trkpt>
      <trkpt lat="48.03852" lon="6.7773">
        <ele>886</ele>
        <time>2022-05-27T11:55:38Z</time>
      </trkpt>
      <trkpt lat="48.03858" lon="6.77742">
        <ele>886.9</ele>
        <time>2022-05-27T11:55:43Z</time>
      </trkpt>
      <trkpt lat="48.03863" lon="6.77755">
        <ele>888.1</ele>
        <time>2022-05-27T11:55:48Z</time>
      </trkpt>
      <trkpt lat="48.03867" lon="6.77769">
        <ele>888.1</ele>
        <time>2022-05-27T11:55:54Z</time>
      </trkpt>
      <trkpt lat="48.03869" lon="6.77784">
        <ele>889.1</ele>
        <time>2022-05-27T11:56:00Z</time>
      </trkpt>
      <trkpt lat="48.03871" lon="6.778">
        <ele>889.9</ele>
        <time>2022-05-27T11:56:06Z</time>
      </trkpt>
      <trkpt lat="48.03873" lon="6.77815">
        <ele>891.2</ele>
        <time>2022-05-27T11:56:12Z</time>
      </trkpt>
      <trkpt lat="48.03875" lon="6.77831">
        <ele>892</ele>
        <time>2022-05-27T11:56:18Z</time>
      </trkpt>
      <trkpt lat="48.03878" lon="6.77845">
        <ele>893.5</ele>
        <time>2022-05-27T11:56:24Z</time>
      </trkpt>
      <trkpt lat="48.03881" lon="6.77861">
        <ele>894.5</ele>
        <time>2022-05-27T11:56:30Z</time>
      </trkpt>
      <trkpt lat="48.03883" lon="6.77876">
        <ele>895.4</ele>
        <time>2022-05-27T11:56:36Z</time>
      </trkpt>
      <trkpt lat="48.03885" lon="6.77892">
        <ele>896.9</ele>
        <time>2022-05-27T11:56:42Z</time>
      </trkpt>
      <trkpt lat="48.03888" lon="6.77907">
        <ele>897.9</ele>
        <time>2022-05-27T11:56:48Z</time>
      </trkpt>
      <trkpt lat="48.0389" lon="6.7792">
        <ele>898.2</ele>
        <time>2022-05-27T11:56:53Z</time>
      </trkpt>
      <trkpt lat="48.03892" lon="6.77935">
        <ele>899.9</ele>
        <time>2022-05-27T11:56:59Z</time>
      </trkpt>
      <trkpt lat="48.03894" lon="6.7795">
        <ele>900.9</ele>
        <time>2022-05-27T11:57:05Z</time>
      </trkpt>
      <trkpt lat="48.03894" lon="6.77965">
        <ele>901.4</ele>
        <time>2022-05-27T11:57:11Z</time>
      </trkpt>
      <trkpt lat="48.03892" lon="6.77979">
        <ele>902.5</ele>
        <time>2022-05-27T11:57:17Z</time>
      </trkpt>
      <trkpt lat="48.03893" lon="6.77993">
        <ele>903.8</ele>
        <time>2022-05-27T11:57:23Z</time>
      </trkpt>
      <trkpt lat="48.03893" lon="6.78009">
        <ele>905.2</ele>
        <time>2022-05-27T11:57:29Z</time>
      </trkpt>
      <trkpt lat="48.03893" lon="6.78022">
        <ele>906.3</ele>
        <time>2022-05-27T11:57:36Z</time>
      </trkpt>
      <trkpt lat="48.03894" lon="6.78036">
        <ele>907.8</ele>
        <time>2022-05-27T11:57:42Z</time>
      </trkpt>
      <trkpt lat="48.03895" lon="6.7805">
        <ele>908.8</ele>
        <time>2022-05-27T11:57:48Z</time>
      </trkpt>
      <trkpt lat="48.03896" lon="6.78065">
        <ele>909.7</ele>
        <time>2022-05-27T11:57:55Z</time>
      </trkpt>
      <trkpt lat="48.03897" lon="6.7808">
        <ele>910.9</ele>
        <time>2022-05-27T11:58:02Z</time>
      </trkpt>
      <trkpt lat="48.03898" lon="6.78093">
        <ele>911.8</ele>
        <time>2022-05-27T11:58:08Z</time>
      </trkpt>
      <trkpt lat="48.03899" lon="6.78107">
        <ele>912.9</ele>
        <time>2022-05-27T11:58:15Z</time>
      </trkpt>
      <trkpt lat="48.03901" lon="6.78122">
        <ele>914</ele>
        <time>2022-05-27T11:58:23Z</time>
      </trkpt>
      <trkpt lat="48.03901" lon="6.78136">
        <ele>914.5</ele>
        <time>2022-05-27T11:58:29Z</time>
      </trkpt>
      <trkpt lat="48.039" lon="6.78151">
        <ele>915.3</ele>
        <time>2022-05-27T11:58:34Z</time>
      </trkpt>
      <trkpt lat="48.03898" lon="6.78165">
        <ele>916.2</ele>
        <time>2022-05-27T11:58:39Z</time>
      </trkpt>
      <trkpt lat="48.03897" lon="6.7818">
        <ele>916.4</ele>
        <time>2022-05-27T11:58:44Z</time>
      </trkpt>
      <trkpt lat="48.03896" lon="6.78193">
        <ele>917.6</ele>
        <time>2022-05-27T11:58:49Z</time>
      </trkpt>
      <trkpt lat="48.03895" lon="6.78208">
        <ele>918.2</ele>
        <time>2022-05-27T11:58:55Z</time>
      </trkpt>
      <trkpt lat="48.03893" lon="6.78223">
        <ele>918.4</ele>
        <time>2022-05-27T11:59:02Z</time>
      </trkpt>
      <trkpt lat="48.03886" lon="6.78234">
        <ele>918.7</ele>
        <time>2022-05-27T11:59:08Z</time>
      </trkpt>
      <trkpt lat="48.03883" lon="6.78237">
        <ele>918.8</ele>
        <time>2022-05-27T11:59:13Z</time>
      </trkpt>
      <trkpt lat="48.03874" lon="6.78245">
        <ele>918.6</ele>
        <time>2022-05-27T12:00:03Z</time>
      </trkpt>
      <trkpt lat="48.03868" lon="6.78257">
        <ele>918.3</ele>
        <time>2022-05-27T12:00:12Z</time>
      </trkpt>
      <trkpt lat="48.03863" lon="6.78271">
        <ele>917.9</ele>
        <time>2022-05-27T12:00:17Z</time>
      </trkpt>
      <trkpt lat="48.03861" lon="6.78284">
        <ele>918.8</ele>
        <time>2022-05-27T12:00:21Z</time>
      </trkpt>
      <trkpt lat="48.03862" lon="6.78299">
        <ele>919</ele>
        <time>2022-05-27T12:00:25Z</time>
      </trkpt>
      <trkpt lat="48.03863" lon="6.78315">
        <ele>916.9</ele>
        <time>2022-05-27T12:00:29Z</time>
      </trkpt>
      <trkpt lat="48.03865" lon="6.78328">
        <ele>918.1</ele>
        <time>2022-05-27T12:00:32Z</time>
      </trkpt>
      <trkpt lat="48.03865" lon="6.78342">
        <ele>918</ele>
        <time>2022-05-27T12:00:35Z</time>
      </trkpt>
      <trkpt lat="48.03866" lon="6.78356">
        <ele>917.9</ele>
        <time>2022-05-27T12:00:38Z</time>
      </trkpt>
      <trkpt lat="48.03866" lon="6.7837">
        <ele>917.6</ele>
        <time>2022-05-27T12:00:41Z</time>
      </trkpt>
      <trkpt lat="48.03867" lon="6.78384">
        <ele>917.4</ele>
        <time>2022-05-27T12:00:44Z</time>
      </trkpt>
      <trkpt lat="48.03868" lon="6.78399">
        <ele>916.8</ele>
        <time>2022-05-27T12:00:47Z</time>
      </trkpt>
      <trkpt lat="48.0387" lon="6.78416">
        <ele>917.4</ele>
        <time>2022-05-27T12:00:51Z</time>
      </trkpt>
      <trkpt lat="48.03871" lon="6.78431">
        <ele>918</ele>
        <time>2022-05-27T12:00:54Z</time>
      </trkpt>
      <trkpt lat="48.03873" lon="6.78446">
        <ele>917.3</ele>
        <time>2022-05-27T12:00:57Z</time>
      </trkpt>
      <trkpt lat="48.03875" lon="6.78462">
        <ele>916.6</ele>
        <time>2022-05-27T12:01:00Z</time>
      </trkpt>
      <trkpt lat="48.03877" lon="6.7848">
        <ele>916.2</ele>
        <time>2022-05-27T12:01:03Z</time>
      </trkpt>
      <trkpt lat="48.03879" lon="6.78496">
        <ele>916.1</ele>
        <time>2022-05-27T12:01:06Z</time>
      </trkpt>
      <trkpt lat="48.0388" lon="6.78513">
        <ele>917.3</ele>
        <time>2022-05-27T12:01:09Z</time>
      </trkpt>
      <trkpt lat="48.03884" lon="6.7853">
        <ele>915.3</ele>
        <time>2022-05-27T12:01:12Z</time>
      </trkpt>
      <trkpt lat="48.03889" lon="6.78547">
        <ele>915.9</ele>
        <time>2022-05-27T12:01:15Z</time>
      </trkpt>
      <trkpt lat="48.03895" lon="6.78564">
        <ele>916.1</ele>
        <time>2022-05-27T12:01:18Z</time>
      </trkpt>
      <trkpt lat="48.039" lon="6.7858">
        <ele>916</ele>
        <time>2022-05-27T12:01:21Z</time>
      </trkpt>
      <trkpt lat="48.03905" lon="6.78596">
        <ele>915.7</ele>
        <time>2022-05-27T12:01:24Z</time>
      </trkpt>
      <trkpt lat="48.03909" lon="6.78613">
        <ele>916.3</ele>
        <time>2022-05-27T12:01:27Z</time>
      </trkpt>
      <trkpt lat="48.03914" lon="6.78631">
        <ele>916.3</ele>
        <time>2022-05-27T12:01:30Z</time>
      </trkpt>
      <trkpt lat="48.03918" lon="6.78649">
        <ele>915.4</ele>
        <time>2022-05-27T12:01:33Z</time>
      </trkpt>
      <trkpt lat="48.03922" lon="6.78667">
        <ele>915.9</ele>
        <time>2022-05-27T12:01:36Z</time>
      </trkpt>
      <trkpt lat="48.03925" lon="6.78685">
        <ele>917</ele>
        <time>2022-05-27T12:01:39Z</time>
      </trkpt>
      <trkpt lat="48.03929" lon="6.78702">
        <ele>916.9</ele>
        <time>2022-05-27T12:01:42Z</time>
      </trkpt>
      <trkpt lat="48.03934" lon="6.7872">
        <ele>917</ele>
        <time>2022-05-27T12:01:45Z</time>
      </trkpt>
      <trkpt lat="48.03938" lon="6.78739">
        <ele>915.4</ele>
        <time>2022-05-27T12:01:48Z</time>
      </trkpt>
      <trkpt lat="48.03941" lon="6.78756">
        <ele>917</ele>
        <time>2022-05-27T12:01:51Z</time>
      </trkpt>
      <trkpt lat="48.03944" lon="6.78774">
        <ele>916.4</ele>
        <time>2022-05-27T12:01:54Z</time>
      </trkpt>
      <trkpt lat="48.03947" lon="6.78791">
        <ele>915.5</ele>
        <time>2022-05-27T12:01:57Z</time>
      </trkpt>
      <trkpt lat="48.03952" lon="6.78807">
        <ele>915.9</ele>
        <time>2022-05-27T12:02:00Z</time>
      </trkpt>
      <trkpt lat="48.03957" lon="6.78824">
        <ele>914.9</ele>
        <time>2022-05-27T12:02:03Z</time>
      </trkpt>
      <trkpt lat="48.03962" lon="6.78838">
        <ele>915.1</ele>
        <time>2022-05-27T12:02:06Z</time>
      </trkpt>
      <trkpt lat="48.03963" lon="6.78856">
        <ele>916.3</ele>
        <time>2022-05-27T12:02:09Z</time>
      </trkpt>
      <trkpt lat="48.03962" lon="6.78874">
        <ele>916.2</ele>
        <time>2022-05-27T12:02:12Z</time>
      </trkpt>
      <trkpt lat="48.03962" lon="6.78891">
        <ele>917</ele>
        <time>2022-05-27T12:02:15Z</time>
      </trkpt>
      <trkpt lat="48.0396" lon="6.7891">
        <ele>915</ele>
        <time>2022-05-27T12:02:18Z</time>
      </trkpt>
      <trkpt lat="48.0396" lon="6.7893">
        <ele>916.8</ele>
        <time>2022-05-27T12:02:21Z</time>
      </trkpt>
      <trkpt lat="48.03961" lon="6.78949">
        <ele>915.8</ele>
        <time>2022-05-27T12:02:24Z</time>
      </trkpt>
      <trkpt lat="48.03963" lon="6.78967">
        <ele>917</ele>
        <time>2022-05-27T12:02:27Z</time>
      </trkpt>
      <trkpt lat="48.03966" lon="6.78985">
        <ele>916.4</ele>
        <time>2022-05-27T12:02:30Z</time>
      </trkpt>
      <trkpt lat="48.03969" lon="6.79003">
        <ele>914.9</ele>
        <time>2022-05-27T12:02:33Z</time>
      </trkpt>
      <trkpt lat="48.03973" lon="6.7902">
        <ele>916.3</ele>
        <time>2022-05-27T12:02:36Z</time>
      </trkpt>
      <trkpt lat="48.03977" lon="6.79037">
        <ele>916.2</ele>
        <time>2022-05-27T12:02:39Z</time>
      </trkpt>
      <trkpt lat="48.03981" lon="6.79056">
        <ele>915.5</ele>
        <time>2022-05-27T12:02:42Z</time>
      </trkpt>
      <trkpt lat="48.03985" lon="6.79073">
        <ele>916.6</ele>
        <time>2022-05-27T12:02:45Z</time>
      </trkpt>
      <trkpt lat="48.03991" lon="6.7909">
        <ele>914.6</ele>
        <time>2022-05-27T12:02:48Z</time>
      </trkpt>
      <trkpt lat="48.04" lon="6.79105">
        <ele>915.6</ele>
        <time>2022-05-27T12:02:51Z</time>
      </trkpt>
      <trkpt lat="48.04007" lon="6.79114">
        <ele>915.3</ele>
        <time>2022-05-27T12:02:53Z</time>
      </trkpt>
      <trkpt lat="48.04014" lon="6.79124">
        <ele>914.6</ele>
        <time>2022-05-27T12:02:55Z</time>
      </trkpt>
      <trkpt lat="48.04021" lon="6.79133">
        <ele>914.8</ele>
        <time>2022-05-27T12:02:57Z</time>
      </trkpt>
      <trkpt lat="48.0403" lon="6.79143">
        <ele>912.5</ele>
        <time>2022-05-27T12:02:59Z</time>
      </trkpt>
      <trkpt lat="48.04038" lon="6.79155">
        <ele>911.3</ele>
        <time>2022-05-27T12:03:01Z</time>
      </trkpt>
      <trkpt lat="48.04047" lon="6.79169">
        <ele>911.1</ele>
        <time>2022-05-27T12:03:03Z</time>
      </trkpt>
      <trkpt lat="48.04054" lon="6.79187">
        <ele>908.2</ele>
        <time>2022-05-27T12:03:05Z</time>
      </trkpt>
      <trkpt lat="48.04058" lon="6.79205">
        <ele>910.1</ele>
        <time>2022-05-27T12:03:07Z</time>
      </trkpt>
      <trkpt lat="48.04062" lon="6.79224">
        <ele>906.2</ele>
        <time>2022-05-27T12:03:09Z</time>
      </trkpt>
      <trkpt lat="48.04066" lon="6.79244">
        <ele>904.2</ele>
        <time>2022-05-27T12:03:11Z</time>
      </trkpt>
      <trkpt lat="48.04072" lon="6.79265">
        <ele>905.3</ele>
        <time>2022-05-27T12:03:13Z</time>
      </trkpt>
      <trkpt lat="48.04078" lon="6.79288">
        <ele>904.8</ele>
        <time>2022-05-27T12:03:15Z</time>
      </trkpt>
      <trkpt lat="48.04083" lon="6.7931">
        <ele>904.6</ele>
        <time>2022-05-27T12:03:17Z</time>
      </trkpt>
      <trkpt lat="48.04085" lon="6.79334">
        <ele>904</ele>
        <time>2022-05-27T12:03:19Z</time>
      </trkpt>
      <trkpt lat="48.04087" lon="6.79359">
        <ele>904.5</ele>
        <time>2022-05-27T12:03:21Z</time>
      </trkpt>
      <trkpt lat="48.04092" lon="6.79384">
        <ele>898</ele>
        <time>2022-05-27T12:03:23Z</time>
      </trkpt>
      <trkpt lat="48.04095" lon="6.79397">
        <ele>897.7</ele>
        <time>2022-05-27T12:03:24Z</time>
      </trkpt>
      <trkpt lat="48.04097" lon="6.7941">
        <ele>897.4</ele>
        <time>2022-05-27T12:03:25Z</time>
      </trkpt>
      <trkpt lat="48.04101" lon="6.79436">
        <ele>899.2</ele>
        <time>2022-05-27T12:03:27Z</time>
      </trkpt>
      <trkpt lat="48.04103" lon="6.79463">
        <ele>900.4</ele>
        <time>2022-05-27T12:03:29Z</time>
      </trkpt>
      <trkpt lat="48.04104" lon="6.79476">
        <ele>897.9</ele>
        <time>2022-05-27T12:03:30Z</time>
      </trkpt>
      <trkpt lat="48.04105" lon="6.7949">
        <ele>894.5</ele>
        <time>2022-05-27T12:03:31Z</time>
      </trkpt>
      <trkpt lat="48.04107" lon="6.79504">
        <ele>894.2</ele>
        <time>2022-05-27T12:03:32Z</time>
      </trkpt>
      <trkpt lat="48.0411" lon="6.79518">
        <ele>893</ele>
        <time>2022-05-27T12:03:33Z</time>
      </trkpt>
      <trkpt lat="48.04113" lon="6.79532">
        <ele>893.5</ele>
        <time>2022-05-27T12:03:34Z</time>
      </trkpt>
      <trkpt lat="48.04115" lon="6.79546">
        <ele>893.9</ele>
        <time>2022-05-27T12:03:35Z</time>
      </trkpt>
      <trkpt lat="48.04117" lon="6.7956">
        <ele>893.4</ele>
        <time>2022-05-27T12:03:36Z</time>
      </trkpt>
      <trkpt lat="48.04118" lon="6.79574">
        <ele>891.8</ele>
        <time>2022-05-27T12:03:37Z</time>
      </trkpt>
      <trkpt lat="48.04118" lon="6.79587">
        <ele>891.9</ele>
        <time>2022-05-27T12:03:38Z</time>
      </trkpt>
      <trkpt lat="48.04117" lon="6.79613">
        <ele>890</ele>
        <time>2022-05-27T12:03:40Z</time>
      </trkpt>
      <trkpt lat="48.04117" lon="6.79638">
        <ele>889.6</ele>
        <time>2022-05-27T12:03:42Z</time>
      </trkpt>
      <trkpt lat="48.04116" lon="6.79661">
        <ele>888.7</ele>
        <time>2022-05-27T12:03:44Z</time>
      </trkpt>
      <trkpt lat="48.04111" lon="6.7968">
        <ele>885.8</ele>
        <time>2022-05-27T12:03:46Z</time>
      </trkpt>
      <trkpt lat="48.04102" lon="6.79695">
        <ele>885.5</ele>
        <time>2022-05-27T12:03:48Z</time>
      </trkpt>
      <trkpt lat="48.04092" lon="6.79713">
        <ele>886</ele>
        <time>2022-05-27T12:03:50Z</time>
      </trkpt>
      <trkpt lat="48.04086" lon="6.79736">
        <ele>886</ele>
        <time>2022-05-27T12:03:52Z</time>
      </trkpt>
      <trkpt lat="48.04078" lon="6.79759">
        <ele>882.1</ele>
        <time>2022-05-27T12:03:54Z</time>
      </trkpt>
      <trkpt lat="48.04069" lon="6.79779">
        <ele>883.8</ele>
        <time>2022-05-27T12:03:56Z</time>
      </trkpt>
      <trkpt lat="48.0406" lon="6.79801">
        <ele>878.6</ele>
        <time>2022-05-27T12:03:58Z</time>
      </trkpt>
      <trkpt lat="48.04052" lon="6.79824">
        <ele>881</ele>
        <time>2022-05-27T12:04:00Z</time>
      </trkpt>
      <trkpt lat="48.04047" lon="6.79849">
        <ele>881</ele>
        <time>2022-05-27T12:04:02Z</time>
      </trkpt>
      <trkpt lat="48.04045" lon="6.79875">
        <ele>878.7</ele>
        <time>2022-05-27T12:04:04Z</time>
      </trkpt>
      <trkpt lat="48.04045" lon="6.79889">
        <ele>878.8</ele>
        <time>2022-05-27T12:04:05Z</time>
      </trkpt>
      <trkpt lat="48.04045" lon="6.79915">
        <ele>874.1</ele>
        <time>2022-05-27T12:04:07Z</time>
      </trkpt>
      <trkpt lat="48.04045" lon="6.79941">
        <ele>876.9</ele>
        <time>2022-05-27T12:04:09Z</time>
      </trkpt>
      <trkpt lat="48.04045" lon="6.79965">
        <ele>878</ele>
        <time>2022-05-27T12:04:11Z</time>
      </trkpt>
      <trkpt lat="48.04047" lon="6.79989">
        <ele>876.5</ele>
        <time>2022-05-27T12:04:13Z</time>
      </trkpt>
      <trkpt lat="48.0405" lon="6.80013">
        <ele>878.1</ele>
        <time>2022-05-27T12:04:15Z</time>
      </trkpt>
      <trkpt lat="48.04055" lon="6.80036">
        <ele>875.7</ele>
        <time>2022-05-27T12:04:17Z</time>
      </trkpt>
      <trkpt lat="48.04062" lon="6.80057">
        <ele>874.4</ele>
        <time>2022-05-27T12:04:19Z</time>
      </trkpt>
      <trkpt lat="48.0407" lon="6.80078">
        <ele>874</ele>
        <time>2022-05-27T12:04:21Z</time>
      </trkpt>
      <trkpt lat="48.04079" lon="6.80098">
        <ele>870.8</ele>
        <time>2022-05-27T12:04:23Z</time>
      </trkpt>
      <trkpt lat="48.04086" lon="6.80117">
        <ele>871.7</ele>
        <time>2022-05-27T12:04:25Z</time>
      </trkpt>
      <trkpt lat="48.04092" lon="6.80136">
        <ele>874.4</ele>
        <time>2022-05-27T12:04:27Z</time>
      </trkpt>
      <trkpt lat="48.04098" lon="6.80154">
        <ele>874.4</ele>
        <time>2022-05-27T12:04:29Z</time>
      </trkpt>
      <trkpt lat="48.04105" lon="6.8017">
        <ele>873.5</ele>
        <time>2022-05-27T12:04:31Z</time>
      </trkpt>
      <trkpt lat="48.04112" lon="6.80185">
        <ele>874.2</ele>
        <time>2022-05-27T12:04:33Z</time>
      </trkpt>
      <trkpt lat="48.04117" lon="6.802">
        <ele>873.7</ele>
        <time>2022-05-27T12:04:35Z</time>
      </trkpt>
      <trkpt lat="48.04123" lon="6.80215">
        <ele>874.5</ele>
        <time>2022-05-27T12:04:37Z</time>
      </trkpt>
      <trkpt lat="48.04129" lon="6.8023">
        <ele>874</ele>
        <time>2022-05-27T12:04:39Z</time>
      </trkpt>
      <trkpt lat="48.04136" lon="6.80244">
        <ele>873.7</ele>
        <time>2022-05-27T12:04:41Z</time>
      </trkpt>
      <trkpt lat="48.04144" lon="6.80256">
        <ele>873.7</ele>
        <time>2022-05-27T12:04:43Z</time>
      </trkpt>
      <trkpt lat="48.04151" lon="6.8027">
        <ele>875.2</ele>
        <time>2022-05-27T12:04:45Z</time>
      </trkpt>
      <trkpt lat="48.04158" lon="6.80284">
        <ele>873.4</ele>
        <time>2022-05-27T12:04:47Z</time>
      </trkpt>
      <trkpt lat="48.04164" lon="6.80299">
        <ele>874.1</ele>
        <time>2022-05-27T12:04:49Z</time>
      </trkpt>
      <trkpt lat="48.04172" lon="6.80311">
        <ele>874.1</ele>
        <time>2022-05-27T12:04:51Z</time>
      </trkpt>
      <trkpt lat="48.04178" lon="6.80324">
        <ele>873.7</ele>
        <time>2022-05-27T12:04:53Z</time>
      </trkpt>
      <trkpt lat="48.04186" lon="6.80337">
        <ele>873.8</ele>
        <time>2022-05-27T12:04:55Z</time>
      </trkpt>
      <trkpt lat="48.04193" lon="6.8035">
        <ele>874.4</ele>
        <time>2022-05-27T12:04:57Z</time>
      </trkpt>
      <trkpt lat="48.04201" lon="6.80361">
        <ele>875.1</ele>
        <time>2022-05-27T12:04:59Z</time>
      </trkpt>
      <trkpt lat="48.04208" lon="6.80373">
        <ele>875.8</ele>
        <time>2022-05-27T12:05:01Z</time>
      </trkpt>
      <trkpt lat="48.04215" lon="6.80386">
        <ele>875.8</ele>
        <time>2022-05-27T12:05:03Z</time>
      </trkpt>
      <trkpt lat="48.04223" lon="6.80397">
        <ele>875.1</ele>
        <time>2022-05-27T12:05:05Z</time>
      </trkpt>
      <trkpt lat="48.04231" lon="6.80408">
        <ele>873.5</ele>
        <time>2022-05-27T12:05:07Z</time>
      </trkpt>
      <trkpt lat="48.04239" lon="6.8042">
        <ele>874.6</ele>
        <time>2022-05-27T12:05:09Z</time>
      </trkpt>
      <trkpt lat="48.04247" lon="6.80431">
        <ele>876.6</ele>
        <time>2022-05-27T12:05:11Z</time>
      </trkpt>
      <trkpt lat="48.04256" lon="6.80441">
        <ele>874.9</ele>
        <time>2022-05-27T12:05:13Z</time>
      </trkpt>
      <trkpt lat="48.04263" lon="6.80451">
        <ele>875.3</ele>
        <time>2022-05-27T12:05:15Z</time>
      </trkpt>
      <trkpt lat="48.04276" lon="6.80457">
        <ele>874.3</ele>
        <time>2022-05-27T12:05:18Z</time>
      </trkpt>
      <trkpt lat="48.04286" lon="6.80459">
        <ele>873.7</ele>
        <time>2022-05-27T12:05:20Z</time>
      </trkpt>
      <trkpt lat="48.04296" lon="6.80463">
        <ele>874</ele>
        <time>2022-05-27T12:05:22Z</time>
      </trkpt>
      <trkpt lat="48.04305" lon="6.80465">
        <ele>873.7</ele>
        <time>2022-05-27T12:05:24Z</time>
      </trkpt>
      <trkpt lat="48.04316" lon="6.80465">
        <ele>874.1</ele>
        <time>2022-05-27T12:05:26Z</time>
      </trkpt>
      <trkpt lat="48.04327" lon="6.80467">
        <ele>874.9</ele>
        <time>2022-05-27T12:05:28Z</time>
      </trkpt>
      <trkpt lat="48.04338" lon="6.80468">
        <ele>874.5</ele>
        <time>2022-05-27T12:05:30Z</time>
      </trkpt>
      <trkpt lat="48.04349" lon="6.80469">
        <ele>874.8</ele>
        <time>2022-05-27T12:05:32Z</time>
      </trkpt>
      <trkpt lat="48.0436" lon="6.80471">
        <ele>876.1</ele>
        <time>2022-05-27T12:05:34Z</time>
      </trkpt>
      <trkpt lat="48.0437" lon="6.80472">
        <ele>874</ele>
        <time>2022-05-27T12:05:36Z</time>
      </trkpt>
      <trkpt lat="48.04381" lon="6.80473">
        <ele>874.6</ele>
        <time>2022-05-27T12:05:38Z</time>
      </trkpt>
      <trkpt lat="48.04391" lon="6.80475">
        <ele>874.4</ele>
        <time>2022-05-27T12:05:40Z</time>
      </trkpt>
      <trkpt lat="48.044" lon="6.80476">
        <ele>874.9</ele>
        <time>2022-05-27T12:05:42Z</time>
      </trkpt>
      <trkpt lat="48.0441" lon="6.80477">
        <ele>874.9</ele>
        <time>2022-05-27T12:05:44Z</time>
      </trkpt>
      <trkpt lat="48.0442" lon="6.80475">
        <ele>876.1</ele>
        <time>2022-05-27T12:05:46Z</time>
      </trkpt>
      <trkpt lat="48.04431" lon="6.80473">
        <ele>875.1</ele>
        <time>2022-05-27T12:05:48Z</time>
      </trkpt>
      <trkpt lat="48.04442" lon="6.80471">
        <ele>874.9</ele>
        <time>2022-05-27T12:05:50Z</time>
      </trkpt>
      <trkpt lat="48.04453" lon="6.80469">
        <ele>874.7</ele>
        <time>2022-05-27T12:05:52Z</time>
      </trkpt>
      <trkpt lat="48.04463" lon="6.80469">
        <ele>875.1</ele>
        <time>2022-05-27T12:05:54Z</time>
      </trkpt>
      <trkpt lat="48.04473" lon="6.8047">
        <ele>875.8</ele>
        <time>2022-05-27T12:05:56Z</time>
      </trkpt>
      <trkpt lat="48.04483" lon="6.80476">
        <ele>877.1</ele>
        <time>2022-05-27T12:05:58Z</time>
      </trkpt>
      <trkpt lat="48.0449" lon="6.80487">
        <ele>876.9</ele>
        <time>2022-05-27T12:06:00Z</time>
      </trkpt>
      <trkpt lat="48.04494" lon="6.80501">
        <ele>876.9</ele>
        <time>2022-05-27T12:06:02Z</time>
      </trkpt>
      <trkpt lat="48.04496" lon="6.80516">
        <ele>875.4</ele>
        <time>2022-05-27T12:06:04Z</time>
      </trkpt>
      <trkpt lat="48.04497" lon="6.80531">
        <ele>874.6</ele>
        <time>2022-05-27T12:06:06Z</time>
      </trkpt>
      <trkpt lat="48.04497" lon="6.80546">
        <ele>875.3</ele>
        <time>2022-05-27T12:06:08Z</time>
      </trkpt>
      <trkpt lat="48.04498" lon="6.8056">
        <ele>875</ele>
        <time>2022-05-27T12:06:10Z</time>
      </trkpt>
      <trkpt lat="48.04498" lon="6.80574">
        <ele>875.1</ele>
        <time>2022-05-27T12:06:12Z</time>
      </trkpt>
      <trkpt lat="48.04495" lon="6.80588">
        <ele>876.4</ele>
        <time>2022-05-27T12:06:14Z</time>
      </trkpt>
      <trkpt lat="48.04491" lon="6.80601">
        <ele>875.9</ele>
        <time>2022-05-27T12:06:16Z</time>
      </trkpt>
      <trkpt lat="48.04487" lon="6.80613">
        <ele>876.6</ele>
        <time>2022-05-27T12:06:18Z</time>
      </trkpt>
      <trkpt lat="48.04483" lon="6.80626">
        <ele>877</ele>
        <time>2022-05-27T12:06:20Z</time>
      </trkpt>
      <trkpt lat="48.0448" lon="6.80639">
        <ele>876.9</ele>
        <time>2022-05-27T12:06:22Z</time>
      </trkpt>
      <trkpt lat="48.04477" lon="6.80653">
        <ele>876.6</ele>
        <time>2022-05-27T12:06:24Z</time>
      </trkpt>
      <trkpt lat="48.04471" lon="6.80671">
        <ele>876.3</ele>
        <time>2022-05-27T12:06:27Z</time>
      </trkpt>
      <trkpt lat="48.04467" lon="6.80683">
        <ele>876.6</ele>
        <time>2022-05-27T12:06:29Z</time>
      </trkpt>
      <trkpt lat="48.04463" lon="6.80696">
        <ele>876.8</ele>
        <time>2022-05-27T12:06:31Z</time>
      </trkpt>
      <trkpt lat="48.04459" lon="6.80708">
        <ele>877.2</ele>
        <time>2022-05-27T12:06:33Z</time>
      </trkpt>
      <trkpt lat="48.04455" lon="6.8072">
        <ele>877</ele>
        <time>2022-05-27T12:06:35Z</time>
      </trkpt>
      <trkpt lat="48.0445" lon="6.80733">
        <ele>876.9</ele>
        <time>2022-05-27T12:06:37Z</time>
      </trkpt>
      <trkpt lat="48.04446" lon="6.80745">
        <ele>877</ele>
        <time>2022-05-27T12:06:39Z</time>
      </trkpt>
      <trkpt lat="48.04443" lon="6.80758">
        <ele>877</ele>
        <time>2022-05-27T12:06:41Z</time>
      </trkpt>
      <trkpt lat="48.04439" lon="6.8077">
        <ele>877.3</ele>
        <time>2022-05-27T12:06:43Z</time>
      </trkpt>
      <trkpt lat="48.04435" lon="6.80782">
        <ele>877.4</ele>
        <time>2022-05-27T12:06:45Z</time>
      </trkpt>
      <trkpt lat="48.04429" lon="6.80799">
        <ele>877.5</ele>
        <time>2022-05-27T12:06:48Z</time>
      </trkpt>
      <trkpt lat="48.04424" lon="6.80816">
        <ele>877.7</ele>
        <time>2022-05-27T12:06:51Z</time>
      </trkpt>
      <trkpt lat="48.0442" lon="6.80833">
        <ele>878.2</ele>
        <time>2022-05-27T12:06:54Z</time>
      </trkpt>
      <trkpt lat="48.04417" lon="6.80852">
        <ele>878.3</ele>
        <time>2022-05-27T12:06:57Z</time>
      </trkpt>
      <trkpt lat="48.04414" lon="6.80871">
        <ele>878.4</ele>
        <time>2022-05-27T12:07:00Z</time>
      </trkpt>
      <trkpt lat="48.04412" lon="6.80884">
        <ele>878</ele>
        <time>2022-05-27T12:07:02Z</time>
      </trkpt>
      <trkpt lat="48.0441" lon="6.80904">
        <ele>878.7</ele>
        <time>2022-05-27T12:07:05Z</time>
      </trkpt>
      <trkpt lat="48.04408" lon="6.80922">
        <ele>878.7</ele>
        <time>2022-05-27T12:07:08Z</time>
      </trkpt>
      <trkpt lat="48.04408" lon="6.8094">
        <ele>878.9</ele>
        <time>2022-05-27T12:07:11Z</time>
      </trkpt>
      <trkpt lat="48.04408" lon="6.80957">
        <ele>878.9</ele>
        <time>2022-05-27T12:07:14Z</time>
      </trkpt>
      <trkpt lat="48.04409" lon="6.80975">
        <ele>878.9</ele>
        <time>2022-05-27T12:07:17Z</time>
      </trkpt>
      <trkpt lat="48.04412" lon="6.80993">
        <ele>878.7</ele>
        <time>2022-05-27T12:07:20Z</time>
      </trkpt>
      <trkpt lat="48.04414" lon="6.81007">
        <ele>878.7</ele>
        <time>2022-05-27T12:07:22Z</time>
      </trkpt>
      <trkpt lat="48.04416" lon="6.81021">
        <ele>878.7</ele>
        <time>2022-05-27T12:07:24Z</time>
      </trkpt>
      <trkpt lat="48.0442" lon="6.81035">
        <ele>879</ele>
        <time>2022-05-27T12:07:26Z</time>
      </trkpt>
      <trkpt lat="48.04424" lon="6.81048">
        <ele>878.9</ele>
        <time>2022-05-27T12:07:28Z</time>
      </trkpt>
      <trkpt lat="48.04428" lon="6.81059">
        <ele>878.9</ele>
        <time>2022-05-27T12:07:30Z</time>
      </trkpt>
      <trkpt lat="48.04436" lon="6.81074">
        <ele>879.3</ele>
        <time>2022-05-27T12:07:33Z</time>
      </trkpt>
      <trkpt lat="48.04446" lon="6.81087">
        <ele>879.1</ele>
        <time>2022-05-27T12:07:36Z</time>
      </trkpt>
      <trkpt lat="48.04456" lon="6.81098">
        <ele>879.7</ele>
        <time>2022-05-27T12:07:39Z</time>
      </trkpt>
      <trkpt lat="48.04466" lon="6.81109">
        <ele>879.5</ele>
        <time>2022-05-27T12:07:42Z</time>
      </trkpt>
      <trkpt lat="48.04475" lon="6.81122">
        <ele>879.6</ele>
        <time>2022-05-27T12:07:45Z</time>
      </trkpt>
      <trkpt lat="48.04484" lon="6.81134">
        <ele>879.9</ele>
        <time>2022-05-27T12:07:48Z</time>
      </trkpt>
      <trkpt lat="48.04493" lon="6.81145">
        <ele>880.2</ele>
        <time>2022-05-27T12:07:51Z</time>
      </trkpt>
      <trkpt lat="48.04503" lon="6.81155">
        <ele>880.4</ele>
        <time>2022-05-27T12:07:54Z</time>
      </trkpt>
      <trkpt lat="48.04512" lon="6.81165">
        <ele>880.9</ele>
        <time>2022-05-27T12:07:57Z</time>
      </trkpt>
      <trkpt lat="48.0452" lon="6.81174">
        <ele>880.8</ele>
        <time>2022-05-27T12:08:00Z</time>
      </trkpt>
      <trkpt lat="48.04529" lon="6.81183">
        <ele>881.3</ele>
        <time>2022-05-27T12:08:03Z</time>
      </trkpt>
      <trkpt lat="48.0454" lon="6.81193">
        <ele>881.7</ele>
        <time>2022-05-27T12:08:06Z</time>
      </trkpt>
      <trkpt lat="48.04549" lon="6.81203">
        <ele>881.7</ele>
        <time>2022-05-27T12:08:09Z</time>
      </trkpt>
      <trkpt lat="48.04557" lon="6.81215">
        <ele>881.6</ele>
        <time>2022-05-27T12:08:12Z</time>
      </trkpt>
      <trkpt lat="48.04564" lon="6.81226">
        <ele>881.6</ele>
        <time>2022-05-27T12:08:15Z</time>
      </trkpt>
      <trkpt lat="48.04569" lon="6.81238">
        <ele>882.1</ele>
        <time>2022-05-27T12:08:18Z</time>
      </trkpt>
      <trkpt lat="48.0457" lon="6.81253">
        <ele>882.1</ele>
        <time>2022-05-27T12:08:22Z</time>
      </trkpt>
      <trkpt lat="48.04563" lon="6.81269">
        <ele>881.3</ele>
        <time>2022-05-27T12:08:26Z</time>
      </trkpt>
      <trkpt lat="48.04556" lon="6.81283">
        <ele>881</ele>
        <time>2022-05-27T12:08:29Z</time>
      </trkpt>
      <trkpt lat="48.04548" lon="6.81298">
        <ele>880.3</ele>
        <time>2022-05-27T12:08:32Z</time>
      </trkpt>
      <trkpt lat="48.04538" lon="6.81313">
        <ele>880.2</ele>
        <time>2022-05-27T12:08:35Z</time>
      </trkpt>
      <trkpt lat="48.0453" lon="6.81324">
        <ele>879.4</ele>
        <time>2022-05-27T12:08:37Z</time>
      </trkpt>
      <trkpt lat="48.04521" lon="6.81334">
        <ele>878.5</ele>
        <time>2022-05-27T12:08:39Z</time>
      </trkpt>
      <trkpt lat="48.0451" lon="6.8134">
        <ele>878.4</ele>
        <time>2022-05-27T12:08:41Z</time>
      </trkpt>
      <trkpt lat="48.04499" lon="6.81344">
        <ele>877.9</ele>
        <time>2022-05-27T12:08:43Z</time>
      </trkpt>
      <trkpt lat="48.04487" lon="6.81344">
        <ele>876.9</ele>
        <time>2022-05-27T12:08:45Z</time>
      </trkpt>
      <trkpt lat="48.04473" lon="6.81346">
        <ele>876.1</ele>
        <time>2022-05-27T12:08:47Z</time>
      </trkpt>
      <trkpt lat="48.04458" lon="6.81352">
        <ele>875.4</ele>
        <time>2022-05-27T12:08:49Z</time>
      </trkpt>
      <trkpt lat="48.04443" lon="6.81359">
        <ele>874.7</ele>
        <time>2022-05-27T12:08:51Z</time>
      </trkpt>
      <trkpt lat="48.04428" lon="6.81369">
        <ele>873</ele>
        <time>2022-05-27T12:08:53Z</time>
      </trkpt>
      <trkpt lat="48.04413" lon="6.81381">
        <ele>872.8</ele>
        <time>2022-05-27T12:08:55Z</time>
      </trkpt>
      <trkpt lat="48.04401" lon="6.81398">
        <ele>872.1</ele>
        <time>2022-05-27T12:08:57Z</time>
      </trkpt>
      <trkpt lat="48.04391" lon="6.81415">
        <ele>871.9</ele>
        <time>2022-05-27T12:08:59Z</time>
      </trkpt>
      <trkpt lat="48.04381" lon="6.81431">
        <ele>872</ele>
        <time>2022-05-27T12:09:01Z</time>
      </trkpt>
      <trkpt lat="48.04372" lon="6.81449">
        <ele>872.1</ele>
        <time>2022-05-27T12:09:03Z</time>
      </trkpt>
      <trkpt lat="48.04364" lon="6.81465">
        <ele>872</ele>
        <time>2022-05-27T12:09:05Z</time>
      </trkpt>
      <trkpt lat="48.04356" lon="6.81479">
        <ele>872.4</ele>
        <time>2022-05-27T12:09:07Z</time>
      </trkpt>
      <trkpt lat="48.0435" lon="6.81493">
        <ele>872</ele>
        <time>2022-05-27T12:09:09Z</time>
      </trkpt>
      <trkpt lat="48.04342" lon="6.81507">
        <ele>872.1</ele>
        <time>2022-05-27T12:09:11Z</time>
      </trkpt>
      <trkpt lat="48.04334" lon="6.81521">
        <ele>872.7</ele>
        <time>2022-05-27T12:09:13Z</time>
      </trkpt>
      <trkpt lat="48.04327" lon="6.81534">
        <ele>872.6</ele>
        <time>2022-05-27T12:09:15Z</time>
      </trkpt>
      <trkpt lat="48.0432" lon="6.81548">
        <ele>872.9</ele>
        <time>2022-05-27T12:09:17Z</time>
      </trkpt>
      <trkpt lat="48.04314" lon="6.81563">
        <ele>873</ele>
        <time>2022-05-27T12:09:19Z</time>
      </trkpt>
      <trkpt lat="48.04309" lon="6.81578">
        <ele>873.1</ele>
        <time>2022-05-27T12:09:21Z</time>
      </trkpt>
      <trkpt lat="48.04304" lon="6.81592">
        <ele>873.2</ele>
        <time>2022-05-27T12:09:23Z</time>
      </trkpt>
      <trkpt lat="48.04296" lon="6.81603">
        <ele>873.4</ele>
        <time>2022-05-27T12:09:25Z</time>
      </trkpt>
      <trkpt lat="48.04285" lon="6.8161">
        <ele>872.7</ele>
        <time>2022-05-27T12:09:27Z</time>
      </trkpt>
      <trkpt lat="48.04275" lon="6.81622">
        <ele>872.5</ele>
        <time>2022-05-27T12:09:29Z</time>
      </trkpt>
      <trkpt lat="48.04267" lon="6.81637">
        <ele>872.7</ele>
        <time>2022-05-27T12:09:31Z</time>
      </trkpt>
      <trkpt lat="48.0426" lon="6.81651">
        <ele>873.1</ele>
        <time>2022-05-27T12:09:33Z</time>
      </trkpt>
      <trkpt lat="48.04254" lon="6.81664">
        <ele>873.5</ele>
        <time>2022-05-27T12:09:35Z</time>
      </trkpt>
      <trkpt lat="48.04248" lon="6.81676">
        <ele>873.9</ele>
        <time>2022-05-27T12:09:37Z</time>
      </trkpt>
      <trkpt lat="48.04243" lon="6.81687">
        <ele>874</ele>
        <time>2022-05-27T12:09:39Z</time>
      </trkpt>
      <trkpt lat="48.04237" lon="6.81698">
        <ele>874.3</ele>
        <time>2022-05-27T12:09:41Z</time>
      </trkpt>
      <trkpt lat="48.04231" lon="6.81708">
        <ele>874.4</ele>
        <time>2022-05-27T12:09:43Z</time>
      </trkpt>
      <trkpt lat="48.04219" lon="6.81715">
        <ele>874.4</ele>
        <time>2022-05-27T12:09:46Z</time>
      </trkpt>
      <trkpt lat="48.04211" lon="6.81707">
        <ele>874.8</ele>
        <time>2022-05-27T12:09:50Z</time>
      </trkpt>
      <trkpt lat="48.04202" lon="6.81703">
        <ele>875</ele>
        <time>2022-05-27T12:09:58Z</time>
      </trkpt>
      <trkpt lat="48.04192" lon="6.81703">
        <ele>875.8</ele>
        <time>2022-05-27T12:10:06Z</time>
      </trkpt>
      <trkpt lat="48.04185" lon="6.81713">
        <ele>877</ele>
        <time>2022-05-27T12:10:12Z</time>
      </trkpt>
      <trkpt lat="48.04178" lon="6.81723">
        <ele>879.3</ele>
        <time>2022-05-27T12:10:18Z</time>
      </trkpt>
      <trkpt lat="48.04171" lon="6.81731">
        <ele>880.7</ele>
        <time>2022-05-27T12:10:24Z</time>
      </trkpt>
      <trkpt lat="48.04165" lon="6.81738">
        <ele>882.7</ele>
        <time>2022-05-27T12:10:33Z</time>
      </trkpt>
      <trkpt lat="48.04162" lon="6.81742">
        <ele>883.7</ele>
        <time>2022-05-27T12:10:43Z</time>
      </trkpt>
      <trkpt lat="48.04161" lon="6.81742">
        <ele>884.2</ele>
        <time>2022-05-27T12:10:47Z</time>
      </trkpt>
      <trkpt lat="48.04153" lon="6.8175">
        <ele>885.5</ele>
        <time>2022-05-27T12:10:55Z</time>
      </trkpt>
      <trkpt lat="48.04147" lon="6.81762">
        <ele>887.1</ele>
        <time>2022-05-27T12:11:02Z</time>
      </trkpt>
      <trkpt lat="48.04143" lon="6.81774">
        <ele>889</ele>
        <time>2022-05-27T12:11:08Z</time>
      </trkpt>
      <trkpt lat="48.04139" lon="6.81787">
        <ele>890.2</ele>
        <time>2022-05-27T12:11:14Z</time>
      </trkpt>
      <trkpt lat="48.04135" lon="6.818">
        <ele>890.7</ele>
        <time>2022-05-27T12:11:20Z</time>
      </trkpt>
      <trkpt lat="48.04135" lon="6.81814">
        <ele>890.7</ele>
        <time>2022-05-27T12:11:25Z</time>
      </trkpt>
      <trkpt lat="48.04138" lon="6.81827">
        <ele>891.6</ele>
        <time>2022-05-27T12:11:30Z</time>
      </trkpt>
      <trkpt lat="48.04139" lon="6.81841">
        <ele>891.9</ele>
        <time>2022-05-27T12:11:36Z</time>
      </trkpt>
      <trkpt lat="48.04139" lon="6.81842">
        <ele>891.9</ele>
        <time>2022-05-27T12:11:38Z</time>
      </trkpt>
      <trkpt lat="48.04137" lon="6.81858">
        <ele>891.8</ele>
        <time>2022-05-27T12:12:30Z</time>
      </trkpt>
      <trkpt lat="48.04135" lon="6.81875">
        <ele>890.7</ele>
        <time>2022-05-27T12:12:34Z</time>
      </trkpt>
      <trkpt lat="48.04135" lon="6.8189">
        <ele>890.8</ele>
        <time>2022-05-27T12:12:38Z</time>
      </trkpt>
      <trkpt lat="48.04134" lon="6.81904">
        <ele>891.2</ele>
        <time>2022-05-27T12:12:41Z</time>
      </trkpt>
      <trkpt lat="48.04134" lon="6.81918">
        <ele>890.6</ele>
        <time>2022-05-27T12:12:44Z</time>
      </trkpt>
      <trkpt lat="48.04134" lon="6.81934">
        <ele>890.2</ele>
        <time>2022-05-27T12:12:47Z</time>
      </trkpt>
      <trkpt lat="48.04136" lon="6.81951">
        <ele>889.6</ele>
        <time>2022-05-27T12:12:50Z</time>
      </trkpt>
      <trkpt lat="48.04136" lon="6.81969">
        <ele>888.4</ele>
        <time>2022-05-27T12:12:53Z</time>
      </trkpt>
      <trkpt lat="48.04135" lon="6.81986">
        <ele>888.9</ele>
        <time>2022-05-27T12:12:56Z</time>
      </trkpt>
      <trkpt lat="48.04134" lon="6.82003">
        <ele>889.8</ele>
        <time>2022-05-27T12:12:59Z</time>
      </trkpt>
      <trkpt lat="48.04132" lon="6.82022">
        <ele>890</ele>
        <time>2022-05-27T12:13:02Z</time>
      </trkpt>
      <trkpt lat="48.0413" lon="6.82041">
        <ele>888.6</ele>
        <time>2022-05-27T12:13:05Z</time>
      </trkpt>
      <trkpt lat="48.04128" lon="6.82055">
        <ele>888</ele>
        <time>2022-05-27T12:13:07Z</time>
      </trkpt>
      <trkpt lat="48.04124" lon="6.82072">
        <ele>885.1</ele>
        <time>2022-05-27T12:13:09Z</time>
      </trkpt>
      <trkpt lat="48.04119" lon="6.8209">
        <ele>882.3</ele>
        <time>2022-05-27T12:13:11Z</time>
      </trkpt>
      <trkpt lat="48.04113" lon="6.82108">
        <ele>882</ele>
        <time>2022-05-27T12:13:13Z</time>
      </trkpt>
      <trkpt lat="48.04108" lon="6.82126">
        <ele>884.7</ele>
        <time>2022-05-27T12:13:15Z</time>
      </trkpt>
      <trkpt lat="48.04105" lon="6.82146">
        <ele>882.9</ele>
        <time>2022-05-27T12:13:17Z</time>
      </trkpt>
      <trkpt lat="48.04103" lon="6.82163">
        <ele>882.7</ele>
        <time>2022-05-27T12:13:19Z</time>
      </trkpt>
      <trkpt lat="48.04101" lon="6.82177">
        <ele>883.1</ele>
        <time>2022-05-27T12:13:21Z</time>
      </trkpt>
      <trkpt lat="48.04099" lon="6.82196">
        <ele>887.7</ele>
        <time>2022-05-27T12:13:24Z</time>
      </trkpt>
      <trkpt lat="48.04097" lon="6.82211">
        <ele>886.1</ele>
        <time>2022-05-27T12:13:27Z</time>
      </trkpt>
      <trkpt lat="48.04093" lon="6.82223">
        <ele>886.4</ele>
        <time>2022-05-27T12:13:30Z</time>
      </trkpt>
      <trkpt lat="48.04091" lon="6.82239">
        <ele>887.7</ele>
        <time>2022-05-27T12:13:33Z</time>
      </trkpt>
      <trkpt lat="48.04088" lon="6.82254">
        <ele>887.6</ele>
        <time>2022-05-27T12:13:36Z</time>
      </trkpt>
      <trkpt lat="48.04086" lon="6.8227">
        <ele>888.6</ele>
        <time>2022-05-27T12:13:39Z</time>
      </trkpt>
      <trkpt lat="48.04082" lon="6.82286">
        <ele>889.3</ele>
        <time>2022-05-27T12:13:42Z</time>
      </trkpt>
      <trkpt lat="48.04078" lon="6.823">
        <ele>890.6</ele>
        <time>2022-05-27T12:13:45Z</time>
      </trkpt>
      <trkpt lat="48.04075" lon="6.82316">
        <ele>891.2</ele>
        <time>2022-05-27T12:13:49Z</time>
      </trkpt>
      <trkpt lat="48.04073" lon="6.82331">
        <ele>891</ele>
        <time>2022-05-27T12:13:53Z</time>
      </trkpt>
      <trkpt lat="48.04074" lon="6.82347">
        <ele>890.2</ele>
        <time>2022-05-27T12:13:57Z</time>
      </trkpt>
      <trkpt lat="48.04077" lon="6.82362">
        <ele>891.8</ele>
        <time>2022-05-27T12:14:01Z</time>
      </trkpt>
      <trkpt lat="48.04075" lon="6.8238">
        <ele>891.2</ele>
        <time>2022-05-27T12:14:06Z</time>
      </trkpt>
      <trkpt lat="48.04074" lon="6.82394">
        <ele>890.2</ele>
        <time>2022-05-27T12:14:09Z</time>
      </trkpt>
      <trkpt lat="48.04076" lon="6.8241">
        <ele>889.6</ele>
        <time>2022-05-27T12:14:12Z</time>
      </trkpt>
      <trkpt lat="48.04075" lon="6.82429">
        <ele>887</ele>
        <time>2022-05-27T12:14:15Z</time>
      </trkpt>
      <trkpt lat="48.04073" lon="6.82446">
        <ele>887.3</ele>
        <time>2022-05-27T12:14:18Z</time>
      </trkpt>
      <trkpt lat="48.04071" lon="6.8246">
        <ele>885.6</ele>
        <time>2022-05-27T12:14:21Z</time>
      </trkpt>
      <trkpt lat="48.04073" lon="6.8248">
        <ele>885.8</ele>
        <time>2022-05-27T12:14:24Z</time>
      </trkpt>
      <trkpt lat="48.04073" lon="6.82495">
        <ele>884.1</ele>
        <time>2022-05-27T12:14:26Z</time>
      </trkpt>
      <trkpt lat="48.04074" lon="6.82509">
        <ele>884.3</ele>
        <time>2022-05-27T12:14:28Z</time>
      </trkpt>
      <trkpt lat="48.04073" lon="6.82525">
        <ele>883.3</ele>
        <time>2022-05-27T12:14:31Z</time>
      </trkpt>
      <trkpt lat="48.04071" lon="6.82543">
        <ele>882.8</ele>
        <time>2022-05-27T12:14:34Z</time>
      </trkpt>
      <trkpt lat="48.04073" lon="6.82561">
        <ele>882.7</ele>
        <time>2022-05-27T12:14:37Z</time>
      </trkpt>
      <trkpt lat="48.04075" lon="6.82574">
        <ele>880.9</ele>
        <time>2022-05-27T12:14:40Z</time>
      </trkpt>
      <trkpt lat="48.04077" lon="6.82592">
        <ele>880.8</ele>
        <time>2022-05-27T12:14:44Z</time>
      </trkpt>
      <trkpt lat="48.0408" lon="6.82606">
        <ele>882.7</ele>
        <time>2022-05-27T12:14:47Z</time>
      </trkpt>
      <trkpt lat="48.04085" lon="6.82619">
        <ele>883.6</ele>
        <time>2022-05-27T12:14:50Z</time>
      </trkpt>
      <trkpt lat="48.04089" lon="6.82632">
        <ele>883.1</ele>
        <time>2022-05-27T12:14:53Z</time>
      </trkpt>
      <trkpt lat="48.04092" lon="6.82645">
        <ele>884.5</ele>
        <time>2022-05-27T12:14:56Z</time>
      </trkpt>
      <trkpt lat="48.04095" lon="6.82661">
        <ele>885.3</ele>
        <time>2022-05-27T12:15:00Z</time>
      </trkpt>
      <trkpt lat="48.04094" lon="6.82678">
        <ele>884.1</ele>
        <time>2022-05-27T12:15:04Z</time>
      </trkpt>
      <trkpt lat="48.04094" lon="6.82693">
        <ele>882.9</ele>
        <time>2022-05-27T12:15:07Z</time>
      </trkpt>
      <trkpt lat="48.04096" lon="6.82706">
        <ele>882.8</ele>
        <time>2022-05-27T12:15:10Z</time>
      </trkpt>
      <trkpt lat="48.04098" lon="6.8272">
        <ele>882.6</ele>
        <time>2022-05-27T12:15:13Z</time>
      </trkpt>
      <trkpt lat="48.04103" lon="6.82735">
        <ele>881.9</ele>
        <time>2022-05-27T12:15:16Z</time>
      </trkpt>
      <trkpt lat="48.04108" lon="6.82751">
        <ele>882</ele>
        <time>2022-05-27T12:15:19Z</time>
      </trkpt>
      <trkpt lat="48.04116" lon="6.82766">
        <ele>880.8</ele>
        <time>2022-05-27T12:15:22Z</time>
      </trkpt>
      <trkpt lat="48.04123" lon="6.82782">
        <ele>882.1</ele>
        <time>2022-05-27T12:15:25Z</time>
      </trkpt>
      <trkpt lat="48.04129" lon="6.82793">
        <ele>881.5</ele>
        <time>2022-05-27T12:15:27Z</time>
      </trkpt>
      <trkpt lat="48.04133" lon="6.82805">
        <ele>881</ele>
        <time>2022-05-27T12:15:29Z</time>
      </trkpt>
      <trkpt lat="48.04138" lon="6.82816">
        <ele>881.3</ele>
        <time>2022-05-27T12:15:31Z</time>
      </trkpt>
      <trkpt lat="48.04146" lon="6.82832">
        <ele>882.9</ele>
        <time>2022-05-27T12:15:34Z</time>
      </trkpt>
      <trkpt lat="48.04152" lon="6.82844">
        <ele>880.3</ele>
        <time>2022-05-27T12:15:36Z</time>
      </trkpt>
      <trkpt lat="48.04158" lon="6.82856">
        <ele>880.6</ele>
        <time>2022-05-27T12:15:38Z</time>
      </trkpt>
      <trkpt lat="48.04164" lon="6.82868">
        <ele>880</ele>
        <time>2022-05-27T12:15:41Z</time>
      </trkpt>
      <trkpt lat="48.04169" lon="6.82885">
        <ele>879.7</ele>
        <time>2022-05-27T12:15:45Z</time>
      </trkpt>
      <trkpt lat="48.04169" lon="6.82902">
        <ele>881.4</ele>
        <time>2022-05-27T12:15:48Z</time>
      </trkpt>
      <trkpt lat="48.04171" lon="6.82915">
        <ele>880.5</ele>
        <time>2022-05-27T12:15:51Z</time>
      </trkpt>
      <trkpt lat="48.04173" lon="6.82933">
        <ele>882.7</ele>
        <time>2022-05-27T12:15:55Z</time>
      </trkpt>
      <trkpt lat="48.04177" lon="6.82949">
        <ele>882.8</ele>
        <time>2022-05-27T12:15:59Z</time>
      </trkpt>
      <trkpt lat="48.04181" lon="6.82961">
        <ele>883.7</ele>
        <time>2022-05-27T12:16:02Z</time>
      </trkpt>
      <trkpt lat="48.04185" lon="6.82975">
        <ele>883.5</ele>
        <time>2022-05-27T12:16:05Z</time>
      </trkpt>
      <trkpt lat="48.04188" lon="6.82991">
        <ele>883</ele>
        <time>2022-05-27T12:16:09Z</time>
      </trkpt>
      <trkpt lat="48.04191" lon="6.83008">
        <ele>883.5</ele>
        <time>2022-05-27T12:16:13Z</time>
      </trkpt>
      <trkpt lat="48.04192" lon="6.83027">
        <ele>881.5</ele>
        <time>2022-05-27T12:16:16Z</time>
      </trkpt>
      <trkpt lat="48.04192" lon="6.83043">
        <ele>883.3</ele>
        <time>2022-05-27T12:16:18Z</time>
      </trkpt>
      <trkpt lat="48.04193" lon="6.83061">
        <ele>880.7</ele>
        <time>2022-05-27T12:16:20Z</time>
      </trkpt>
      <trkpt lat="48.04194" lon="6.8308">
        <ele>880.1</ele>
        <time>2022-05-27T12:16:22Z</time>
      </trkpt>
      <trkpt lat="48.04195" lon="6.83101">
        <ele>878.9</ele>
        <time>2022-05-27T12:16:24Z</time>
      </trkpt>
      <trkpt lat="48.04197" lon="6.83122">
        <ele>878</ele>
        <time>2022-05-27T12:16:26Z</time>
      </trkpt>
      <trkpt lat="48.042" lon="6.83146">
        <ele>875.9</ele>
        <time>2022-05-27T12:16:28Z</time>
      </trkpt>
      <trkpt lat="48.04204" lon="6.83169">
        <ele>878.3</ele>
        <time>2022-05-27T12:16:30Z</time>
      </trkpt>
      <trkpt lat="48.04208" lon="6.8319">
        <ele>876</ele>
        <time>2022-05-27T12:16:32Z</time>
      </trkpt>
      <trkpt lat="48.04211" lon="6.83209">
        <ele>874.9</ele>
        <time>2022-05-27T12:16:34Z</time>
      </trkpt>
      <trkpt lat="48.04216" lon="6.83227">
        <ele>875.8</ele>
        <time>2022-05-27T12:16:36Z</time>
      </trkpt>
      <trkpt lat="48.0422" lon="6.83244">
        <ele>875.4</ele>
        <time>2022-05-27T12:16:38Z</time>
      </trkpt>
      <trkpt lat="48.04224" lon="6.83261">
        <ele>874.9</ele>
        <time>2022-05-27T12:16:40Z</time>
      </trkpt>
      <trkpt lat="48.04227" lon="6.83276">
        <ele>872.6</ele>
        <time>2022-05-27T12:16:42Z</time>
      </trkpt>
      <trkpt lat="48.04232" lon="6.83292">
        <ele>873.7</ele>
        <time>2022-05-27T12:16:44Z</time>
      </trkpt>
      <trkpt lat="48.04236" lon="6.83309">
        <ele>872.8</ele>
        <time>2022-05-27T12:16:46Z</time>
      </trkpt>
      <trkpt lat="48.0424" lon="6.83326">
        <ele>871.1</ele>
        <time>2022-05-27T12:16:48Z</time>
      </trkpt>
      <trkpt lat="48.04245" lon="6.83345">
        <ele>871.5</ele>
        <time>2022-05-27T12:16:50Z</time>
      </trkpt>
      <trkpt lat="48.04247" lon="6.83362">
        <ele>870.5</ele>
        <time>2022-05-27T12:16:53Z</time>
      </trkpt>
      <trkpt lat="48.04246" lon="6.83376">
        <ele>870.1</ele>
        <time>2022-05-27T12:16:57Z</time>
      </trkpt>
      <trkpt lat="48.04252" lon="6.83391">
        <ele>867.6</ele>
        <time>2022-05-27T12:17:00Z</time>
      </trkpt>
      <trkpt lat="48.0426" lon="6.83405">
        <ele>868.8</ele>
        <time>2022-05-27T12:17:03Z</time>
      </trkpt>
      <trkpt lat="48.04268" lon="6.83415">
        <ele>867.6</ele>
        <time>2022-05-27T12:17:05Z</time>
      </trkpt>
      <trkpt lat="48.04277" lon="6.83428">
        <ele>867.2</ele>
        <time>2022-05-27T12:17:07Z</time>
      </trkpt>
      <trkpt lat="48.04285" lon="6.83441">
        <ele>866.5</ele>
        <time>2022-05-27T12:17:09Z</time>
      </trkpt>
      <trkpt lat="48.04293" lon="6.83453">
        <ele>867.5</ele>
        <time>2022-05-27T12:17:11Z</time>
      </trkpt>
      <trkpt lat="48.04302" lon="6.83464">
        <ele>867.1</ele>
        <time>2022-05-27T12:17:13Z</time>
      </trkpt>
      <trkpt lat="48.04311" lon="6.83473">
        <ele>868.5</ele>
        <time>2022-05-27T12:17:15Z</time>
      </trkpt>
      <trkpt lat="48.0432" lon="6.83481">
        <ele>868.1</ele>
        <time>2022-05-27T12:17:17Z</time>
      </trkpt>
      <trkpt lat="48.04329" lon="6.83484">
        <ele>868.8</ele>
        <time>2022-05-27T12:17:19Z</time>
      </trkpt>
      <trkpt lat="48.04341" lon="6.83487">
        <ele>869.5</ele>
        <time>2022-05-27T12:17:22Z</time>
      </trkpt>
      <trkpt lat="48.04353" lon="6.83491">
        <ele>869.9</ele>
        <time>2022-05-27T12:17:25Z</time>
      </trkpt>
      <trkpt lat="48.04361" lon="6.83496">
        <ele>872.5</ele>
        <time>2022-05-27T12:17:27Z</time>
      </trkpt>
      <trkpt lat="48.04372" lon="6.83499">
        <ele>869.1</ele>
        <time>2022-05-27T12:17:29Z</time>
      </trkpt>
      <trkpt lat="48.04383" lon="6.83504">
        <ele>866.4</ele>
        <time>2022-05-27T12:17:31Z</time>
      </trkpt>
      <trkpt lat="48.04392" lon="6.83513">
        <ele>866.5</ele>
        <time>2022-05-27T12:17:33Z</time>
      </trkpt>
      <trkpt lat="48.04399" lon="6.83523">
        <ele>867.3</ele>
        <time>2022-05-27T12:17:35Z</time>
      </trkpt>
      <trkpt lat="48.04406" lon="6.83532">
        <ele>869.5</ele>
        <time>2022-05-27T12:17:37Z</time>
      </trkpt>
      <trkpt lat="48.04415" lon="6.83547">
        <ele>869.2</ele>
        <time>2022-05-27T12:17:40Z</time>
      </trkpt>
      <trkpt lat="48.04422" lon="6.83561">
        <ele>870.7</ele>
        <time>2022-05-27T12:17:43Z</time>
      </trkpt>
      <trkpt lat="48.04427" lon="6.83573">
        <ele>870.3</ele>
        <time>2022-05-27T12:17:47Z</time>
      </trkpt>
      <trkpt lat="48.04433" lon="6.83584">
        <ele>870.6</ele>
        <time>2022-05-27T12:17:52Z</time>
      </trkpt>
      <trkpt lat="48.04436" lon="6.83587">
        <ele>870.6</ele>
        <time>2022-05-27T12:17:56Z</time>
      </trkpt>
      <trkpt lat="48.04436" lon="6.83588">
        <ele>870.7</ele>
        <time>2022-05-27T12:19:10Z</time>
      </trkpt>
      <trkpt lat="48.0444" lon="6.83603">
        <ele>870.2</ele>
        <time>2022-05-27T12:19:15Z</time>
      </trkpt>
      <trkpt lat="48.04444" lon="6.83619">
        <ele>870.1</ele>
        <time>2022-05-27T12:19:18Z</time>
      </trkpt>
      <trkpt lat="48.04447" lon="6.83632">
        <ele>868.9</ele>
        <time>2022-05-27T12:19:20Z</time>
      </trkpt>
      <trkpt lat="48.04453" lon="6.83648">
        <ele>867.3</ele>
        <time>2022-05-27T12:19:22Z</time>
      </trkpt>
      <trkpt lat="48.04458" lon="6.83664">
        <ele>865.9</ele>
        <time>2022-05-27T12:19:24Z</time>
      </trkpt>
      <trkpt lat="48.04463" lon="6.8368">
        <ele>865.2</ele>
        <time>2022-05-27T12:19:26Z</time>
      </trkpt>
      <trkpt lat="48.04469" lon="6.83694">
        <ele>864.8</ele>
        <time>2022-05-27T12:19:28Z</time>
      </trkpt>
      <trkpt lat="48.04472" lon="6.83712">
        <ele>862.1</ele>
        <time>2022-05-27T12:19:31Z</time>
      </trkpt>
      <trkpt lat="48.04466" lon="6.83726">
        <ele>860.5</ele>
        <time>2022-05-27T12:19:33Z</time>
      </trkpt>
      <trkpt lat="48.04458" lon="6.83738">
        <ele>860.8</ele>
        <time>2022-05-27T12:19:35Z</time>
      </trkpt>
      <trkpt lat="48.04449" lon="6.8375">
        <ele>859.1</ele>
        <time>2022-05-27T12:19:37Z</time>
      </trkpt>
      <trkpt lat="48.0444" lon="6.8376">
        <ele>858</ele>
        <time>2022-05-27T12:19:39Z</time>
      </trkpt>
      <trkpt lat="48.04433" lon="6.83769">
        <ele>857.3</ele>
        <time>2022-05-27T12:19:41Z</time>
      </trkpt>
      <trkpt lat="48.04424" lon="6.83781">
        <ele>856.8</ele>
        <time>2022-05-27T12:19:44Z</time>
      </trkpt>
      <trkpt lat="48.04418" lon="6.83792">
        <ele>855.4</ele>
        <time>2022-05-27T12:19:46Z</time>
      </trkpt>
      <trkpt lat="48.04409" lon="6.838">
        <ele>854.3</ele>
        <time>2022-05-27T12:19:48Z</time>
      </trkpt>
      <trkpt lat="48.044" lon="6.83803">
        <ele>855.4</ele>
        <time>2022-05-27T12:19:50Z</time>
      </trkpt>
      <trkpt lat="48.0439" lon="6.83804">
        <ele>855.4</ele>
        <time>2022-05-27T12:19:52Z</time>
      </trkpt>
      <trkpt lat="48.04381" lon="6.83805">
        <ele>855.4</ele>
        <time>2022-05-27T12:19:54Z</time>
      </trkpt>
      <trkpt lat="48.04371" lon="6.83807">
        <ele>855.4</ele>
        <time>2022-05-27T12:19:56Z</time>
      </trkpt>
      <trkpt lat="48.04362" lon="6.83809">
        <ele>854.9</ele>
        <time>2022-05-27T12:19:58Z</time>
      </trkpt>
      <trkpt lat="48.04349" lon="6.83812">
        <ele>853.9</ele>
        <time>2022-05-27T12:20:01Z</time>
      </trkpt>
      <trkpt lat="48.04337" lon="6.83816">
        <ele>854</ele>
        <time>2022-05-27T12:20:04Z</time>
      </trkpt>
      <trkpt lat="48.04327" lon="6.83826">
        <ele>853.9</ele>
        <time>2022-05-27T12:20:07Z</time>
      </trkpt>
      <trkpt lat="48.04321" lon="6.83843">
        <ele>854.1</ele>
        <time>2022-05-27T12:20:10Z</time>
      </trkpt>
      <trkpt lat="48.04317" lon="6.83862">
        <ele>854.7</ele>
        <time>2022-05-27T12:20:13Z</time>
      </trkpt>
      <trkpt lat="48.04313" lon="6.83881">
        <ele>854.6</ele>
        <time>2022-05-27T12:20:16Z</time>
      </trkpt>
      <trkpt lat="48.04311" lon="6.83898">
        <ele>855</ele>
        <time>2022-05-27T12:20:19Z</time>
      </trkpt>
      <trkpt lat="48.04311" lon="6.83913">
        <ele>855.2</ele>
        <time>2022-05-27T12:20:22Z</time>
      </trkpt>
      <trkpt lat="48.04318" lon="6.83924">
        <ele>857</ele>
        <time>2022-05-27T12:20:26Z</time>
      </trkpt>
      <trkpt lat="48.04326" lon="6.83931">
        <ele>857</ele>
        <time>2022-05-27T12:20:30Z</time>
      </trkpt>
      <trkpt lat="48.04336" lon="6.83938">
        <ele>858.3</ele>
        <time>2022-05-27T12:20:34Z</time>
      </trkpt>
      <trkpt lat="48.04345" lon="6.83945">
        <ele>859.7</ele>
        <time>2022-05-27T12:20:38Z</time>
      </trkpt>
      <trkpt lat="48.04354" lon="6.83953">
        <ele>859.9</ele>
        <time>2022-05-27T12:20:42Z</time>
      </trkpt>
      <trkpt lat="48.04362" lon="6.83963">
        <ele>861</ele>
        <time>2022-05-27T12:20:46Z</time>
      </trkpt>
      <trkpt lat="48.0437" lon="6.83973">
        <ele>861.3</ele>
        <time>2022-05-27T12:20:50Z</time>
      </trkpt>
      <trkpt lat="48.04376" lon="6.83984">
        <ele>861.9</ele>
        <time>2022-05-27T12:20:54Z</time>
      </trkpt>
      <trkpt lat="48.04383" lon="6.83995">
        <ele>862.1</ele>
        <time>2022-05-27T12:20:58Z</time>
      </trkpt>
      <trkpt lat="48.04389" lon="6.84006">
        <ele>862.7</ele>
        <time>2022-05-27T12:21:02Z</time>
      </trkpt>
      <trkpt lat="48.04395" lon="6.84018">
        <ele>863.6</ele>
        <time>2022-05-27T12:21:06Z</time>
      </trkpt>
      <trkpt lat="48.044" lon="6.84031">
        <ele>863.6</ele>
        <time>2022-05-27T12:21:10Z</time>
      </trkpt>
      <trkpt lat="48.04404" lon="6.84043">
        <ele>864.9</ele>
        <time>2022-05-27T12:21:14Z</time>
      </trkpt>
      <trkpt lat="48.04405" lon="6.84057">
        <ele>864.9</ele>
        <time>2022-05-27T12:21:18Z</time>
      </trkpt>
      <trkpt lat="48.04401" lon="6.84069">
        <ele>864.8</ele>
        <time>2022-05-27T12:21:22Z</time>
      </trkpt>
      <trkpt lat="48.04391" lon="6.8408">
        <ele>864.4</ele>
        <time>2022-05-27T12:21:26Z</time>
      </trkpt>
      <trkpt lat="48.0438" lon="6.84088">
        <ele>864.7</ele>
        <time>2022-05-27T12:21:29Z</time>
      </trkpt>
      <trkpt lat="48.0437" lon="6.84093">
        <ele>863.3</ele>
        <time>2022-05-27T12:21:31Z</time>
      </trkpt>
      <trkpt lat="48.0436" lon="6.84097">
        <ele>862.2</ele>
        <time>2022-05-27T12:21:33Z</time>
      </trkpt>
      <trkpt lat="48.04349" lon="6.84102">
        <ele>860.6</ele>
        <time>2022-05-27T12:21:35Z</time>
      </trkpt>
      <trkpt lat="48.04343" lon="6.84113">
        <ele>862.2</ele>
        <time>2022-05-27T12:21:37Z</time>
      </trkpt>
      <trkpt lat="48.04343" lon="6.84129">
        <ele>862.4</ele>
        <time>2022-05-27T12:21:39Z</time>
      </trkpt>
      <trkpt lat="48.04347" lon="6.84143">
        <ele>860.6</ele>
        <time>2022-05-27T12:21:41Z</time>
      </trkpt>
      <trkpt lat="48.04356" lon="6.84157">
        <ele>859.8</ele>
        <time>2022-05-27T12:21:43Z</time>
      </trkpt>
      <trkpt lat="48.04365" lon="6.84174">
        <ele>858</ele>
        <time>2022-05-27T12:21:45Z</time>
      </trkpt>
      <trkpt lat="48.04367" lon="6.84193">
        <ele>859.5</ele>
        <time>2022-05-27T12:21:47Z</time>
      </trkpt>
      <trkpt lat="48.04366" lon="6.84214">
        <ele>859</ele>
        <time>2022-05-27T12:21:49Z</time>
      </trkpt>
      <trkpt lat="48.04368" lon="6.84233">
        <ele>858.9</ele>
        <time>2022-05-27T12:21:51Z</time>
      </trkpt>
      <trkpt lat="48.04377" lon="6.84249">
        <ele>857.3</ele>
        <time>2022-05-27T12:21:53Z</time>
      </trkpt>
      <trkpt lat="48.04386" lon="6.84263">
        <ele>858.1</ele>
        <time>2022-05-27T12:21:55Z</time>
      </trkpt>
      <trkpt lat="48.04391" lon="6.8428">
        <ele>856.7</ele>
        <time>2022-05-27T12:21:57Z</time>
      </trkpt>
      <trkpt lat="48.04392" lon="6.84297">
        <ele>857.7</ele>
        <time>2022-05-27T12:21:59Z</time>
      </trkpt>
      <trkpt lat="48.0439" lon="6.84313">
        <ele>857.7</ele>
        <time>2022-05-27T12:22:01Z</time>
      </trkpt>
      <trkpt lat="48.04385" lon="6.84328">
        <ele>857.2</ele>
        <time>2022-05-27T12:22:03Z</time>
      </trkpt>
      <trkpt lat="48.0438" lon="6.84343">
        <ele>857.4</ele>
        <time>2022-05-27T12:22:05Z</time>
      </trkpt>
      <trkpt lat="48.04375" lon="6.84359">
        <ele>856.7</ele>
        <time>2022-05-27T12:22:07Z</time>
      </trkpt>
      <trkpt lat="48.0437" lon="6.84374">
        <ele>856.3</ele>
        <time>2022-05-27T12:22:09Z</time>
      </trkpt>
      <trkpt lat="48.04363" lon="6.84389">
        <ele>855.1</ele>
        <time>2022-05-27T12:22:11Z</time>
      </trkpt>
      <trkpt lat="48.04353" lon="6.844">
        <ele>855.9</ele>
        <time>2022-05-27T12:22:13Z</time>
      </trkpt>
      <trkpt lat="48.04345" lon="6.8441">
        <ele>856.6</ele>
        <time>2022-05-27T12:22:15Z</time>
      </trkpt>
      <trkpt lat="48.04337" lon="6.84419">
        <ele>856.3</ele>
        <time>2022-05-27T12:22:17Z</time>
      </trkpt>
      <trkpt lat="48.04331" lon="6.84431">
        <ele>855.9</ele>
        <time>2022-05-27T12:22:19Z</time>
      </trkpt>
      <trkpt lat="48.04331" lon="6.84445">
        <ele>855.4</ele>
        <time>2022-05-27T12:22:21Z</time>
      </trkpt>
      <trkpt lat="48.04336" lon="6.84456">
        <ele>857.1</ele>
        <time>2022-05-27T12:22:23Z</time>
      </trkpt>
      <trkpt lat="48.04344" lon="6.84464">
        <ele>856.5</ele>
        <time>2022-05-27T12:22:25Z</time>
      </trkpt>
      <trkpt lat="48.04354" lon="6.84471">
        <ele>855.9</ele>
        <time>2022-05-27T12:22:27Z</time>
      </trkpt>
      <trkpt lat="48.04364" lon="6.84478">
        <ele>855.8</ele>
        <time>2022-05-27T12:22:29Z</time>
      </trkpt>
      <trkpt lat="48.04375" lon="6.84483">
        <ele>857.4</ele>
        <time>2022-05-27T12:22:31Z</time>
      </trkpt>
      <trkpt lat="48.04385" lon="6.84487">
        <ele>855.7</ele>
        <time>2022-05-27T12:22:33Z</time>
      </trkpt>
      <trkpt lat="48.04394" lon="6.8449">
        <ele>855.1</ele>
        <time>2022-05-27T12:22:35Z</time>
      </trkpt>
      <trkpt lat="48.04404" lon="6.84494">
        <ele>855.8</ele>
        <time>2022-05-27T12:22:37Z</time>
      </trkpt>
      <trkpt lat="48.04413" lon="6.84499">
        <ele>856.2</ele>
        <time>2022-05-27T12:22:39Z</time>
      </trkpt>
      <trkpt lat="48.04421" lon="6.84509">
        <ele>856.5</ele>
        <time>2022-05-27T12:22:41Z</time>
      </trkpt>
      <trkpt lat="48.04428" lon="6.84522">
        <ele>856.1</ele>
        <time>2022-05-27T12:22:43Z</time>
      </trkpt>
      <trkpt lat="48.04434" lon="6.84536">
        <ele>856.3</ele>
        <time>2022-05-27T12:22:45Z</time>
      </trkpt>
      <trkpt lat="48.04441" lon="6.84547">
        <ele>855.6</ele>
        <time>2022-05-27T12:22:47Z</time>
      </trkpt>
      <trkpt lat="48.04448" lon="6.84558">
        <ele>855.6</ele>
        <time>2022-05-27T12:22:49Z</time>
      </trkpt>
      <trkpt lat="48.04454" lon="6.8457">
        <ele>855.2</ele>
        <time>2022-05-27T12:22:51Z</time>
      </trkpt>
      <trkpt lat="48.04457" lon="6.84584">
        <ele>855.8</ele>
        <time>2022-05-27T12:22:53Z</time>
      </trkpt>
      <trkpt lat="48.04461" lon="6.84598">
        <ele>856</ele>
        <time>2022-05-27T12:22:55Z</time>
      </trkpt>
      <trkpt lat="48.04466" lon="6.84609">
        <ele>855.8</ele>
        <time>2022-05-27T12:22:57Z</time>
      </trkpt>
      <trkpt lat="48.04472" lon="6.8462">
        <ele>854.9</ele>
        <time>2022-05-27T12:22:59Z</time>
      </trkpt>
      <trkpt lat="48.04477" lon="6.84632">
        <ele>854.6</ele>
        <time>2022-05-27T12:23:01Z</time>
      </trkpt>
      <trkpt lat="48.04482" lon="6.84646">
        <ele>854</ele>
        <time>2022-05-27T12:23:03Z</time>
      </trkpt>
      <trkpt lat="48.04487" lon="6.84658">
        <ele>853.3</ele>
        <time>2022-05-27T12:23:05Z</time>
      </trkpt>
      <trkpt lat="48.04496" lon="6.84665">
        <ele>853.4</ele>
        <time>2022-05-27T12:23:07Z</time>
      </trkpt>
      <trkpt lat="48.04508" lon="6.8467">
        <ele>852.6</ele>
        <time>2022-05-27T12:23:09Z</time>
      </trkpt>
      <trkpt lat="48.04523" lon="6.84672">
        <ele>852.5</ele>
        <time>2022-05-27T12:23:11Z</time>
      </trkpt>
      <trkpt lat="48.04536" lon="6.84676">
        <ele>850.7</ele>
        <time>2022-05-27T12:23:13Z</time>
      </trkpt>
      <trkpt lat="48.04549" lon="6.84685">
        <ele>850.3</ele>
        <time>2022-05-27T12:23:15Z</time>
      </trkpt>
      <trkpt lat="48.04559" lon="6.84697">
        <ele>848.1</ele>
        <time>2022-05-27T12:23:17Z</time>
      </trkpt>
      <trkpt lat="48.04566" lon="6.84711">
        <ele>848.9</ele>
        <time>2022-05-27T12:23:19Z</time>
      </trkpt>
      <trkpt lat="48.04573" lon="6.84724">
        <ele>848.8</ele>
        <time>2022-05-27T12:23:21Z</time>
      </trkpt>
      <trkpt lat="48.0458" lon="6.84734">
        <ele>847.9</ele>
        <time>2022-05-27T12:23:23Z</time>
      </trkpt>
      <trkpt lat="48.0459" lon="6.84747">
        <ele>846.6</ele>
        <time>2022-05-27T12:23:25Z</time>
      </trkpt>
      <trkpt lat="48.04599" lon="6.84758">
        <ele>844</ele>
        <time>2022-05-27T12:23:27Z</time>
      </trkpt>
      <trkpt lat="48.04608" lon="6.84769">
        <ele>846.9</ele>
        <time>2022-05-27T12:23:29Z</time>
      </trkpt>
      <trkpt lat="48.04618" lon="6.8478">
        <ele>846.6</ele>
        <time>2022-05-27T12:23:31Z</time>
      </trkpt>
      <trkpt lat="48.04628" lon="6.84793">
        <ele>841.2</ele>
        <time>2022-05-27T12:23:33Z</time>
      </trkpt>
      <trkpt lat="48.04639" lon="6.84808">
        <ele>840.4</ele>
        <time>2022-05-27T12:23:35Z</time>
      </trkpt>
      <trkpt lat="48.04652" lon="6.84819">
        <ele>841.3</ele>
        <time>2022-05-27T12:23:37Z</time>
      </trkpt>
      <trkpt lat="48.04666" lon="6.84832">
        <ele>840.9</ele>
        <time>2022-05-27T12:23:39Z</time>
      </trkpt>
      <trkpt lat="48.04679" lon="6.84844">
        <ele>842.4</ele>
        <time>2022-05-27T12:23:41Z</time>
      </trkpt>
      <trkpt lat="48.04692" lon="6.84854">
        <ele>838.2</ele>
        <time>2022-05-27T12:23:43Z</time>
      </trkpt>
      <trkpt lat="48.04705" lon="6.84866">
        <ele>837.1</ele>
        <time>2022-05-27T12:23:45Z</time>
      </trkpt>
      <trkpt lat="48.04718" lon="6.84883">
        <ele>837</ele>
        <time>2022-05-27T12:23:47Z</time>
      </trkpt>
      <trkpt lat="48.04725" lon="6.84903">
        <ele>838.3</ele>
        <time>2022-05-27T12:23:49Z</time>
      </trkpt>
      <trkpt lat="48.04725" lon="6.84926">
        <ele>838.5</ele>
        <time>2022-05-27T12:23:51Z</time>
      </trkpt>
      <trkpt lat="48.04723" lon="6.8495">
        <ele>835.7</ele>
        <time>2022-05-27T12:23:53Z</time>
      </trkpt>
      <trkpt lat="48.04721" lon="6.84975">
        <ele>833.9</ele>
        <time>2022-05-27T12:23:55Z</time>
      </trkpt>
      <trkpt lat="48.0472" lon="6.84999">
        <ele>833.3</ele>
        <time>2022-05-27T12:23:57Z</time>
      </trkpt>
      <trkpt lat="48.0472" lon="6.85024">
        <ele>833.9</ele>
        <time>2022-05-27T12:23:59Z</time>
      </trkpt>
      <trkpt lat="48.04717" lon="6.85046">
        <ele>835.1</ele>
        <time>2022-05-27T12:24:01Z</time>
      </trkpt>
      <trkpt lat="48.04712" lon="6.85066">
        <ele>831.6</ele>
        <time>2022-05-27T12:24:03Z</time>
      </trkpt>
      <trkpt lat="48.04716" lon="6.85086">
        <ele>830</ele>
        <time>2022-05-27T12:24:05Z</time>
      </trkpt>
      <trkpt lat="48.04723" lon="6.85105">
        <ele>831.4</ele>
        <time>2022-05-27T12:24:07Z</time>
      </trkpt>
      <trkpt lat="48.0473" lon="6.85126">
        <ele>829.9</ele>
        <time>2022-05-27T12:24:09Z</time>
      </trkpt>
      <trkpt lat="48.04737" lon="6.85146">
        <ele>828.9</ele>
        <time>2022-05-27T12:24:11Z</time>
      </trkpt>
      <trkpt lat="48.04738" lon="6.85164">
        <ele>828.1</ele>
        <time>2022-05-27T12:24:13Z</time>
      </trkpt>
      <trkpt lat="48.04728" lon="6.85181">
        <ele>827</ele>
        <time>2022-05-27T12:24:15Z</time>
      </trkpt>
      <trkpt lat="48.04715" lon="6.85195">
        <ele>825.9</ele>
        <time>2022-05-27T12:24:17Z</time>
      </trkpt>
      <trkpt lat="48.04702" lon="6.85211">
        <ele>826.1</ele>
        <time>2022-05-27T12:24:19Z</time>
      </trkpt>
      <trkpt lat="48.04691" lon="6.85226">
        <ele>824.9</ele>
        <time>2022-05-27T12:24:21Z</time>
      </trkpt>
      <trkpt lat="48.04679" lon="6.85235">
        <ele>823.5</ele>
        <time>2022-05-27T12:24:23Z</time>
      </trkpt>
      <trkpt lat="48.04666" lon="6.85239">
        <ele>822.6</ele>
        <time>2022-05-27T12:24:25Z</time>
      </trkpt>
      <trkpt lat="48.04652" lon="6.85245">
        <ele>823.8</ele>
        <time>2022-05-27T12:24:27Z</time>
      </trkpt>
      <trkpt lat="48.04641" lon="6.85257">
        <ele>824.9</ele>
        <time>2022-05-27T12:24:29Z</time>
      </trkpt>
      <trkpt lat="48.04635" lon="6.8527">
        <ele>823.5</ele>
        <time>2022-05-27T12:24:31Z</time>
      </trkpt>
      <trkpt lat="48.04632" lon="6.85283">
        <ele>823.4</ele>
        <time>2022-05-27T12:24:33Z</time>
      </trkpt>
      <trkpt lat="48.04631" lon="6.85302">
        <ele>824.7</ele>
        <time>2022-05-27T12:24:36Z</time>
      </trkpt>
      <trkpt lat="48.04631" lon="6.85321">
        <ele>825.6</ele>
        <time>2022-05-27T12:24:39Z</time>
      </trkpt>
      <trkpt lat="48.0463" lon="6.85336">
        <ele>826.4</ele>
        <time>2022-05-27T12:24:42Z</time>
      </trkpt>
      <trkpt lat="48.04627" lon="6.8535">
        <ele>826.8</ele>
        <time>2022-05-27T12:24:45Z</time>
      </trkpt>
      <trkpt lat="48.04624" lon="6.85363">
        <ele>827</ele>
        <time>2022-05-27T12:24:48Z</time>
      </trkpt>
      <trkpt lat="48.0462" lon="6.85378">
        <ele>827.5</ele>
        <time>2022-05-27T12:24:51Z</time>
      </trkpt>
      <trkpt lat="48.0462" lon="6.85394">
        <ele>827.4</ele>
        <time>2022-05-27T12:24:54Z</time>
      </trkpt>
      <trkpt lat="48.04625" lon="6.8541">
        <ele>828.5</ele>
        <time>2022-05-27T12:24:57Z</time>
      </trkpt>
      <trkpt lat="48.04636" lon="6.85421">
        <ele>828.2</ele>
        <time>2022-05-27T12:25:00Z</time>
      </trkpt>
      <trkpt lat="48.04646" lon="6.85431">
        <ele>829.1</ele>
        <time>2022-05-27T12:25:03Z</time>
      </trkpt>
      <trkpt lat="48.04657" lon="6.85439">
        <ele>829.4</ele>
        <time>2022-05-27T12:25:06Z</time>
      </trkpt>
      <trkpt lat="48.04666" lon="6.85451">
        <ele>830.5</ele>
        <time>2022-05-27T12:25:09Z</time>
      </trkpt>
      <trkpt lat="48.04672" lon="6.85465">
        <ele>829.7</ele>
        <time>2022-05-27T12:25:12Z</time>
      </trkpt>
      <trkpt lat="48.04679" lon="6.85479">
        <ele>830.4</ele>
        <time>2022-05-27T12:25:15Z</time>
      </trkpt>
      <trkpt lat="48.04687" lon="6.85492">
        <ele>831.2</ele>
        <time>2022-05-27T12:25:18Z</time>
      </trkpt>
      <trkpt lat="48.04692" lon="6.85506">
        <ele>831</ele>
        <time>2022-05-27T12:25:21Z</time>
      </trkpt>
      <trkpt lat="48.04691" lon="6.85524">
        <ele>831.1</ele>
        <time>2022-05-27T12:25:24Z</time>
      </trkpt>
      <trkpt lat="48.04689" lon="6.85543">
        <ele>831.8</ele>
        <time>2022-05-27T12:25:27Z</time>
      </trkpt>
      <trkpt lat="48.0469" lon="6.85561">
        <ele>832.7</ele>
        <time>2022-05-27T12:25:30Z</time>
      </trkpt>
      <trkpt lat="48.04694" lon="6.85578">
        <ele>832.5</ele>
        <time>2022-05-27T12:25:33Z</time>
      </trkpt>
      <trkpt lat="48.04702" lon="6.85591">
        <ele>831.9</ele>
        <time>2022-05-27T12:25:36Z</time>
      </trkpt>
      <trkpt lat="48.04713" lon="6.85602">
        <ele>833.8</ele>
        <time>2022-05-27T12:25:39Z</time>
      </trkpt>
      <trkpt lat="48.0472" lon="6.8561">
        <ele>835.7</ele>
        <time>2022-05-27T12:25:41Z</time>
      </trkpt>
      <trkpt lat="48.04729" lon="6.85623">
        <ele>834</ele>
        <time>2022-05-27T12:25:44Z</time>
      </trkpt>
      <trkpt lat="48.04735" lon="6.8564">
        <ele>834.2</ele>
        <time>2022-05-27T12:25:47Z</time>
      </trkpt>
      <trkpt lat="48.04739" lon="6.85656">
        <ele>835.4</ele>
        <time>2022-05-27T12:25:50Z</time>
      </trkpt>
      <trkpt lat="48.04744" lon="6.8567">
        <ele>835.3</ele>
        <time>2022-05-27T12:25:53Z</time>
      </trkpt>
      <trkpt lat="48.04749" lon="6.85683">
        <ele>834.9</ele>
        <time>2022-05-27T12:25:56Z</time>
      </trkpt>
      <trkpt lat="48.04757" lon="6.85692">
        <ele>834.4</ele>
        <time>2022-05-27T12:25:59Z</time>
      </trkpt>
      <trkpt lat="48.04768" lon="6.85702">
        <ele>835.6</ele>
        <time>2022-05-27T12:26:02Z</time>
      </trkpt>
      <trkpt lat="48.04778" lon="6.85711">
        <ele>836.2</ele>
        <time>2022-05-27T12:26:05Z</time>
      </trkpt>
      <trkpt lat="48.04788" lon="6.85718">
        <ele>836.1</ele>
        <time>2022-05-27T12:26:08Z</time>
      </trkpt>
      <trkpt lat="48.04799" lon="6.85724">
        <ele>836.1</ele>
        <time>2022-05-27T12:26:11Z</time>
      </trkpt>
      <trkpt lat="48.0481" lon="6.85728">
        <ele>836.6</ele>
        <time>2022-05-27T12:26:14Z</time>
      </trkpt>
      <trkpt lat="48.04821" lon="6.85733">
        <ele>837.4</ele>
        <time>2022-05-27T12:26:17Z</time>
      </trkpt>
      <trkpt lat="48.04833" lon="6.85739">
        <ele>837.8</ele>
        <time>2022-05-27T12:26:20Z</time>
      </trkpt>
      <trkpt lat="48.04842" lon="6.85747">
        <ele>837.5</ele>
        <time>2022-05-27T12:26:23Z</time>
      </trkpt>
      <trkpt lat="48.0485" lon="6.85755">
        <ele>838</ele>
        <time>2022-05-27T12:26:26Z</time>
      </trkpt>
      <trkpt lat="48.04859" lon="6.85765">
        <ele>837.9</ele>
        <time>2022-05-27T12:26:29Z</time>
      </trkpt>
      <trkpt lat="48.04867" lon="6.85779">
        <ele>839.1</ele>
        <time>2022-05-27T12:26:32Z</time>
      </trkpt>
      <trkpt lat="48.0487" lon="6.85795">
        <ele>839.9</ele>
        <time>2022-05-27T12:26:35Z</time>
      </trkpt>
      <trkpt lat="48.04875" lon="6.85813">
        <ele>839.7</ele>
        <time>2022-05-27T12:26:38Z</time>
      </trkpt>
      <trkpt lat="48.04879" lon="6.85825">
        <ele>838.8</ele>
        <time>2022-05-27T12:26:40Z</time>
      </trkpt>
      <trkpt lat="48.04884" lon="6.85837">
        <ele>838.8</ele>
        <time>2022-05-27T12:26:42Z</time>
      </trkpt>
      <trkpt lat="48.04893" lon="6.8585">
        <ele>839.2</ele>
        <time>2022-05-27T12:26:45Z</time>
      </trkpt>
      <trkpt lat="48.04901" lon="6.85865">
        <ele>838.5</ele>
        <time>2022-05-27T12:26:48Z</time>
      </trkpt>
      <trkpt lat="48.04905" lon="6.85882">
        <ele>840</ele>
        <time>2022-05-27T12:26:51Z</time>
      </trkpt>
      <trkpt lat="48.04907" lon="6.85896">
        <ele>837.9</ele>
        <time>2022-05-27T12:26:53Z</time>
      </trkpt>
      <trkpt lat="48.04909" lon="6.85911">
        <ele>836.2</ele>
        <time>2022-05-27T12:26:55Z</time>
      </trkpt>
      <trkpt lat="48.04913" lon="6.85927">
        <ele>834.5</ele>
        <time>2022-05-27T12:26:57Z</time>
      </trkpt>
      <trkpt lat="48.04921" lon="6.85941">
        <ele>832.8</ele>
        <time>2022-05-27T12:26:59Z</time>
      </trkpt>
      <trkpt lat="48.04933" lon="6.85948">
        <ele>834.6</ele>
        <time>2022-05-27T12:27:01Z</time>
      </trkpt>
      <trkpt lat="48.04943" lon="6.85955">
        <ele>832.6</ele>
        <time>2022-05-27T12:27:03Z</time>
      </trkpt>
      <trkpt lat="48.04948" lon="6.85968">
        <ele>830.5</ele>
        <time>2022-05-27T12:27:05Z</time>
      </trkpt>
      <trkpt lat="48.04945" lon="6.85981">
        <ele>829.5</ele>
        <time>2022-05-27T12:27:07Z</time>
      </trkpt>
      <trkpt lat="48.04939" lon="6.85996">
        <ele>829.9</ele>
        <time>2022-05-27T12:27:09Z</time>
      </trkpt>
      <trkpt lat="48.04933" lon="6.86017">
        <ele>826.8</ele>
        <time>2022-05-27T12:27:11Z</time>
      </trkpt>
      <trkpt lat="48.04927" lon="6.86042">
        <ele>824.8</ele>
        <time>2022-05-27T12:27:13Z</time>
      </trkpt>
      <trkpt lat="48.04924" lon="6.86068">
        <ele>822.9</ele>
        <time>2022-05-27T12:27:15Z</time>
      </trkpt>
      <trkpt lat="48.04927" lon="6.86093">
        <ele>823.4</ele>
        <time>2022-05-27T12:27:17Z</time>
      </trkpt>
      <trkpt lat="48.04931" lon="6.86114">
        <ele>824.2</ele>
        <time>2022-05-27T12:27:19Z</time>
      </trkpt>
      <trkpt lat="48.0493" lon="6.86135">
        <ele>818.7</ele>
        <time>2022-05-27T12:27:21Z</time>
      </trkpt>
      <trkpt lat="48.04925" lon="6.86154">
        <ele>818</ele>
        <time>2022-05-27T12:27:23Z</time>
      </trkpt>
      <trkpt lat="48.0492" lon="6.86175">
        <ele>821.2</ele>
        <time>2022-05-27T12:27:25Z</time>
      </trkpt>
      <trkpt lat="48.04919" lon="6.86194">
        <ele>821.3</ele>
        <time>2022-05-27T12:27:27Z</time>
      </trkpt>
      <trkpt lat="48.04915" lon="6.86212">
        <ele>820.2</ele>
        <time>2022-05-27T12:27:29Z</time>
      </trkpt>
      <trkpt lat="48.04908" lon="6.86227">
        <ele>820.2</ele>
        <time>2022-05-27T12:27:31Z</time>
      </trkpt>
      <trkpt lat="48.04902" lon="6.86243">
        <ele>819.9</ele>
        <time>2022-05-27T12:27:33Z</time>
      </trkpt>
      <trkpt lat="48.04902" lon="6.8626">
        <ele>819.5</ele>
        <time>2022-05-27T12:27:35Z</time>
      </trkpt>
      <trkpt lat="48.04907" lon="6.86276">
        <ele>819.6</ele>
        <time>2022-05-27T12:27:37Z</time>
      </trkpt>
      <trkpt lat="48.04912" lon="6.86291">
        <ele>819.7</ele>
        <time>2022-05-27T12:27:39Z</time>
      </trkpt>
      <trkpt lat="48.04911" lon="6.86305">
        <ele>819.6</ele>
        <time>2022-05-27T12:27:41Z</time>
      </trkpt>
      <trkpt lat="48.04908" lon="6.86319">
        <ele>819.9</ele>
        <time>2022-05-27T12:27:43Z</time>
      </trkpt>
      <trkpt lat="48.04908" lon="6.86334">
        <ele>819.6</ele>
        <time>2022-05-27T12:27:45Z</time>
      </trkpt>
      <trkpt lat="48.04914" lon="6.86345">
        <ele>819.6</ele>
        <time>2022-05-27T12:27:47Z</time>
      </trkpt>
      <trkpt lat="48.04924" lon="6.86351">
        <ele>819.4</ele>
        <time>2022-05-27T12:27:49Z</time>
      </trkpt>
      <trkpt lat="48.04934" lon="6.86357">
        <ele>819.8</ele>
        <time>2022-05-27T12:27:51Z</time>
      </trkpt>
      <trkpt lat="48.04942" lon="6.86365">
        <ele>820.1</ele>
        <time>2022-05-27T12:27:53Z</time>
      </trkpt>
      <trkpt lat="48.04948" lon="6.86378">
        <ele>819.3</ele>
        <time>2022-05-27T12:27:55Z</time>
      </trkpt>
      <trkpt lat="48.04951" lon="6.86394">
        <ele>818.4</ele>
        <time>2022-05-27T12:27:57Z</time>
      </trkpt>
      <trkpt lat="48.04957" lon="6.86407">
        <ele>819.1</ele>
        <time>2022-05-27T12:27:59Z</time>
      </trkpt>
      <trkpt lat="48.04963" lon="6.86417">
        <ele>820.2</ele>
        <time>2022-05-27T12:28:01Z</time>
      </trkpt>
      <trkpt lat="48.04972" lon="6.8643">
        <ele>820.3</ele>
        <time>2022-05-27T12:28:04Z</time>
      </trkpt>
      <trkpt lat="48.04983" lon="6.86441">
        <ele>819.3</ele>
        <time>2022-05-27T12:28:07Z</time>
      </trkpt>
      <trkpt lat="48.04995" lon="6.86446">
        <ele>819.3</ele>
        <time>2022-05-27T12:28:10Z</time>
      </trkpt>
      <trkpt lat="48.05006" lon="6.86446">
        <ele>819.9</ele>
        <time>2022-05-27T12:28:13Z</time>
      </trkpt>
      <trkpt lat="48.05018" lon="6.86445">
        <ele>820</ele>
        <time>2022-05-27T12:28:16Z</time>
      </trkpt>
      <trkpt lat="48.05029" lon="6.8645">
        <ele>819.2</ele>
        <time>2022-05-27T12:28:19Z</time>
      </trkpt>
      <trkpt lat="48.0504" lon="6.86459">
        <ele>819.6</ele>
        <time>2022-05-27T12:28:22Z</time>
      </trkpt>
      <trkpt lat="48.05049" lon="6.86463">
        <ele>819</ele>
        <time>2022-05-27T12:28:24Z</time>
      </trkpt>
      <trkpt lat="48.05061" lon="6.86464">
        <ele>818.9</ele>
        <time>2022-05-27T12:28:27Z</time>
      </trkpt>
      <trkpt lat="48.05073" lon="6.86465">
        <ele>818.9</ele>
        <time>2022-05-27T12:28:30Z</time>
      </trkpt>
      <trkpt lat="48.05083" lon="6.8647">
        <ele>819.6</ele>
        <time>2022-05-27T12:28:33Z</time>
      </trkpt>
      <trkpt lat="48.05092" lon="6.86479">
        <ele>819.2</ele>
        <time>2022-05-27T12:28:36Z</time>
      </trkpt>
      <trkpt lat="48.05099" lon="6.86491">
        <ele>819.9</ele>
        <time>2022-05-27T12:28:39Z</time>
      </trkpt>
      <trkpt lat="48.05104" lon="6.86503">
        <ele>819.7</ele>
        <time>2022-05-27T12:28:42Z</time>
      </trkpt>
      <trkpt lat="48.0511" lon="6.86515">
        <ele>819.6</ele>
        <time>2022-05-27T12:28:45Z</time>
      </trkpt>
      <trkpt lat="48.05114" lon="6.86524">
        <ele>819.8</ele>
        <time>2022-05-27T12:28:51Z</time>
      </trkpt>
      <trkpt lat="48.05114" lon="6.86525">
        <ele>819.8</ele>
        <time>2022-05-27T12:28:52Z</time>
      </trkpt>
      <trkpt lat="48.05114" lon="6.86526">
        <ele>819.8</ele>
        <time>2022-05-27T12:28:56Z</time>
      </trkpt>
      <trkpt lat="48.05115" lon="6.86527">
        <ele>819.9</ele>
        <time>2022-05-27T12:28:57Z</time>
      </trkpt>
      <trkpt lat="48.05124" lon="6.86521">
        <ele>819.5</ele>
        <time>2022-05-27T12:29:03Z</time>
      </trkpt>
      <trkpt lat="48.05128" lon="6.86508">
        <ele>818.6</ele>
        <time>2022-05-27T12:29:11Z</time>
      </trkpt>
      <trkpt lat="48.05119" lon="6.86515">
        <ele>819.5</ele>
        <time>2022-05-27T12:29:16Z</time>
      </trkpt>
      <trkpt lat="48.05111" lon="6.86525">
        <ele>819.6</ele>
        <time>2022-05-27T12:29:22Z</time>
      </trkpt>
      <trkpt lat="48.05108" lon="6.86526">
        <ele>819.4</ele>
        <time>2022-05-27T12:29:29Z</time>
      </trkpt>
      <trkpt lat="48.05107" lon="6.86527">
        <ele>818.3</ele>
        <time>2022-05-27T12:30:27Z</time>
      </trkpt>
      <trkpt lat="48.05108" lon="6.86526">
        <ele>818.2</ele>
        <time>2022-05-27T12:31:46Z</time>
      </trkpt>
      <trkpt lat="48.05107" lon="6.86527">
        <ele>818.8</ele>
        <time>2022-05-27T12:31:54Z</time>
      </trkpt>
      <trkpt lat="48.05098" lon="6.86533">
        <ele>819.4</ele>
        <time>2022-05-27T12:32:01Z</time>
      </trkpt>
      <trkpt lat="48.05089" lon="6.8654">
        <ele>819.9</ele>
        <time>2022-05-27T12:32:06Z</time>
      </trkpt>
      <trkpt lat="48.05079" lon="6.86544">
        <ele>820.9</ele>
        <time>2022-05-27T12:32:13Z</time>
      </trkpt>
      <trkpt lat="48.05069" lon="6.86544">
        <ele>821.5</ele>
        <time>2022-05-27T12:32:18Z</time>
      </trkpt>
      <trkpt lat="48.05059" lon="6.86543">
        <ele>821.9</ele>
        <time>2022-05-27T12:32:23Z</time>
      </trkpt>
      <trkpt lat="48.05049" lon="6.86537">
        <ele>822.6</ele>
        <time>2022-05-27T12:32:29Z</time>
      </trkpt>
      <trkpt lat="48.0504" lon="6.86529">
        <ele>823.4</ele>
        <time>2022-05-27T12:32:34Z</time>
      </trkpt>
      <trkpt lat="48.05034" lon="6.86518">
        <ele>823.8</ele>
        <time>2022-05-27T12:32:38Z</time>
      </trkpt>
      <trkpt lat="48.05028" lon="6.86507">
        <ele>822.7</ele>
        <time>2022-05-27T12:32:41Z</time>
      </trkpt>
      <trkpt lat="48.05019" lon="6.86497">
        <ele>822.6</ele>
        <time>2022-05-27T12:32:44Z</time>
      </trkpt>
      <trkpt lat="48.05008" lon="6.86489">
        <ele>822.4</ele>
        <time>2022-05-27T12:32:47Z</time>
      </trkpt>
      <trkpt lat="48.04997" lon="6.8648">
        <ele>821.2</ele>
        <time>2022-05-27T12:32:50Z</time>
      </trkpt>
      <trkpt lat="48.04986" lon="6.86473">
        <ele>821.6</ele>
        <time>2022-05-27T12:32:53Z</time>
      </trkpt>
      <trkpt lat="48.04977" lon="6.86467">
        <ele>822.2</ele>
        <time>2022-05-27T12:32:56Z</time>
      </trkpt>
      <trkpt lat="48.04967" lon="6.86464">
        <ele>822.6</ele>
        <time>2022-05-27T12:32:59Z</time>
      </trkpt>
      <trkpt lat="48.04958" lon="6.8646">
        <ele>823.5</ele>
        <time>2022-05-27T12:33:02Z</time>
      </trkpt>
      <trkpt lat="48.04947" lon="6.86456">
        <ele>824.6</ele>
        <time>2022-05-27T12:33:06Z</time>
      </trkpt>
      <trkpt lat="48.04936" lon="6.86451">
        <ele>825</ele>
        <time>2022-05-27T12:33:10Z</time>
      </trkpt>
      <trkpt lat="48.04927" lon="6.86447">
        <ele>825.1</ele>
        <time>2022-05-27T12:33:13Z</time>
      </trkpt>
      <trkpt lat="48.04918" lon="6.86443">
        <ele>824.8</ele>
        <time>2022-05-27T12:33:16Z</time>
      </trkpt>
      <trkpt lat="48.04909" lon="6.86439">
        <ele>825.5</ele>
        <time>2022-05-27T12:33:19Z</time>
      </trkpt>
      <trkpt lat="48.049" lon="6.86435">
        <ele>826</ele>
        <time>2022-05-27T12:33:22Z</time>
      </trkpt>
      <trkpt lat="48.04889" lon="6.86431">
        <ele>826.1</ele>
        <time>2022-05-27T12:33:26Z</time>
      </trkpt>
      <trkpt lat="48.04878" lon="6.86427">
        <ele>827</ele>
        <time>2022-05-27T12:33:30Z</time>
      </trkpt>
      <trkpt lat="48.04867" lon="6.86423">
        <ele>827.4</ele>
        <time>2022-05-27T12:33:34Z</time>
      </trkpt>
      <trkpt lat="48.04858" lon="6.86422">
        <ele>828.3</ele>
        <time>2022-05-27T12:33:37Z</time>
      </trkpt>
      <trkpt lat="48.0485" lon="6.86429">
        <ele>827.9</ele>
        <time>2022-05-27T12:33:42Z</time>
      </trkpt>
      <trkpt lat="48.04843" lon="6.86442">
        <ele>828.4</ele>
        <time>2022-05-27T12:33:46Z</time>
      </trkpt>
      <trkpt lat="48.04835" lon="6.86453">
        <ele>828.7</ele>
        <time>2022-05-27T12:33:49Z</time>
      </trkpt>
      <trkpt lat="48.04829" lon="6.86465">
        <ele>825.7</ele>
        <time>2022-05-27T12:33:52Z</time>
      </trkpt>
      <trkpt lat="48.04821" lon="6.86479">
        <ele>824.5</ele>
        <time>2022-05-27T12:33:55Z</time>
      </trkpt>
      <trkpt lat="48.04813" lon="6.86494">
        <ele>825.1</ele>
        <time>2022-05-27T12:33:58Z</time>
      </trkpt>
      <trkpt lat="48.04804" lon="6.86498">
        <ele>821.9</ele>
        <time>2022-05-27T12:34:00Z</time>
      </trkpt>
      <trkpt lat="48.04793" lon="6.86501">
        <ele>819.9</ele>
        <time>2022-05-27T12:34:02Z</time>
      </trkpt>
      <trkpt lat="48.04783" lon="6.86503">
        <ele>820.1</ele>
        <time>2022-05-27T12:34:04Z</time>
      </trkpt>
      <trkpt lat="48.04773" lon="6.86501">
        <ele>818.2</ele>
        <time>2022-05-27T12:34:06Z</time>
      </trkpt>
      <trkpt lat="48.04762" lon="6.86497">
        <ele>813.8</ele>
        <time>2022-05-27T12:34:08Z</time>
      </trkpt>
      <trkpt lat="48.0475" lon="6.8649">
        <ele>814.6</ele>
        <time>2022-05-27T12:34:10Z</time>
      </trkpt>
      <trkpt lat="48.04739" lon="6.86486">
        <ele>817.7</ele>
        <time>2022-05-27T12:34:13Z</time>
      </trkpt>
      <trkpt lat="48.04728" lon="6.86485">
        <ele>818.1</ele>
        <time>2022-05-27T12:34:16Z</time>
      </trkpt>
      <trkpt lat="48.04717" lon="6.86482">
        <ele>816.4</ele>
        <time>2022-05-27T12:34:18Z</time>
      </trkpt>
      <trkpt lat="48.04708" lon="6.86478">
        <ele>816.4</ele>
        <time>2022-05-27T12:34:20Z</time>
      </trkpt>
      <trkpt lat="48.04697" lon="6.86476">
        <ele>817.9</ele>
        <time>2022-05-27T12:34:23Z</time>
      </trkpt>
      <trkpt lat="48.04686" lon="6.86472">
        <ele>818.2</ele>
        <time>2022-05-27T12:34:26Z</time>
      </trkpt>
      <trkpt lat="48.04676" lon="6.86471">
        <ele>817.4</ele>
        <time>2022-05-27T12:34:29Z</time>
      </trkpt>
      <trkpt lat="48.04665" lon="6.86469">
        <ele>818.1</ele>
        <time>2022-05-27T12:34:32Z</time>
      </trkpt>
      <trkpt lat="48.04653" lon="6.86466">
        <ele>818.6</ele>
        <time>2022-05-27T12:34:35Z</time>
      </trkpt>
      <trkpt lat="48.04642" lon="6.86467">
        <ele>815.7</ele>
        <time>2022-05-27T12:34:38Z</time>
      </trkpt>
      <trkpt lat="48.0463" lon="6.86469">
        <ele>818.6</ele>
        <time>2022-05-27T12:34:41Z</time>
      </trkpt>
      <trkpt lat="48.04621" lon="6.86467">
        <ele>812.2</ele>
        <time>2022-05-27T12:34:44Z</time>
      </trkpt>
      <trkpt lat="48.04612" lon="6.86461">
        <ele>815.2</ele>
        <time>2022-05-27T12:34:46Z</time>
      </trkpt>
      <trkpt lat="48.04604" lon="6.86451">
        <ele>813.8</ele>
        <time>2022-05-27T12:34:48Z</time>
      </trkpt>
      <trkpt lat="48.04595" lon="6.86439">
        <ele>813.4</ele>
        <time>2022-05-27T12:34:50Z</time>
      </trkpt>
      <trkpt lat="48.04588" lon="6.86431">
        <ele>812.3</ele>
        <time>2022-05-27T12:34:52Z</time>
      </trkpt>
      <trkpt lat="48.04579" lon="6.86424">
        <ele>812.5</ele>
        <time>2022-05-27T12:34:55Z</time>
      </trkpt>
      <trkpt lat="48.0457" lon="6.86415">
        <ele>812.3</ele>
        <time>2022-05-27T12:34:59Z</time>
      </trkpt>
      <trkpt lat="48.04561" lon="6.86402">
        <ele>810</ele>
        <time>2022-05-27T12:35:03Z</time>
      </trkpt>
      <trkpt lat="48.04555" lon="6.8639">
        <ele>810</ele>
        <time>2022-05-27T12:35:05Z</time>
      </trkpt>
      <trkpt lat="48.04547" lon="6.86377">
        <ele>809.4</ele>
        <time>2022-05-27T12:35:07Z</time>
      </trkpt>
      <trkpt lat="48.0454" lon="6.86365">
        <ele>807.9</ele>
        <time>2022-05-27T12:35:09Z</time>
      </trkpt>
      <trkpt lat="48.04533" lon="6.8635">
        <ele>806.9</ele>
        <time>2022-05-27T12:35:11Z</time>
      </trkpt>
      <trkpt lat="48.04528" lon="6.86338">
        <ele>807.8</ele>
        <time>2022-05-27T12:35:13Z</time>
      </trkpt>
      <trkpt lat="48.04523" lon="6.8635">
        <ele>805.3</ele>
        <time>2022-05-27T12:35:21Z</time>
      </trkpt>
      <trkpt lat="48.04525" lon="6.86364">
        <ele>804.7</ele>
        <time>2022-05-27T12:35:23Z</time>
      </trkpt>
      <trkpt lat="48.04527" lon="6.86379">
        <ele>803.4</ele>
        <time>2022-05-27T12:35:25Z</time>
      </trkpt>
      <trkpt lat="48.0453" lon="6.86398">
        <ele>802.7</ele>
        <time>2022-05-27T12:35:28Z</time>
      </trkpt>
      <trkpt lat="48.04532" lon="6.86413">
        <ele>802.3</ele>
        <time>2022-05-27T12:35:31Z</time>
      </trkpt>
      <trkpt lat="48.04535" lon="6.86426">
        <ele>801.9</ele>
        <time>2022-05-27T12:35:34Z</time>
      </trkpt>
      <trkpt lat="48.0454" lon="6.86438">
        <ele>801.2</ele>
        <time>2022-05-27T12:35:37Z</time>
      </trkpt>
      <trkpt lat="48.04545" lon="6.8645">
        <ele>800.8</ele>
        <time>2022-05-27T12:35:40Z</time>
      </trkpt>
      <trkpt lat="48.04551" lon="6.86465">
        <ele>800.8</ele>
        <time>2022-05-27T12:35:44Z</time>
      </trkpt>
      <trkpt lat="48.04557" lon="6.86476">
        <ele>800.7</ele>
        <time>2022-05-27T12:35:47Z</time>
      </trkpt>
      <trkpt lat="48.04565" lon="6.86487">
        <ele>800.4</ele>
        <time>2022-05-27T12:35:50Z</time>
      </trkpt>
      <trkpt lat="48.04575" lon="6.86499">
        <ele>799.1</ele>
        <time>2022-05-27T12:35:53Z</time>
      </trkpt>
      <trkpt lat="48.04585" lon="6.86509">
        <ele>798.6</ele>
        <time>2022-05-27T12:35:56Z</time>
      </trkpt>
      <trkpt lat="48.04594" lon="6.86517">
        <ele>798.2</ele>
        <time>2022-05-27T12:35:58Z</time>
      </trkpt>
      <trkpt lat="48.04604" lon="6.86525">
        <ele>797.7</ele>
        <time>2022-05-27T12:36:00Z</time>
      </trkpt>
      <trkpt lat="48.04614" lon="6.86532">
        <ele>796.3</ele>
        <time>2022-05-27T12:36:02Z</time>
      </trkpt>
      <trkpt lat="48.04623" lon="6.86539">
        <ele>796.5</ele>
        <time>2022-05-27T12:36:04Z</time>
      </trkpt>
      <trkpt lat="48.04632" lon="6.86545">
        <ele>796.6</ele>
        <time>2022-05-27T12:36:06Z</time>
      </trkpt>
      <trkpt lat="48.04645" lon="6.86551">
        <ele>797.9</ele>
        <time>2022-05-27T12:36:09Z</time>
      </trkpt>
      <trkpt lat="48.04657" lon="6.86557">
        <ele>797.9</ele>
        <time>2022-05-27T12:36:12Z</time>
      </trkpt>
      <trkpt lat="48.04669" lon="6.86564">
        <ele>797.8</ele>
        <time>2022-05-27T12:36:15Z</time>
      </trkpt>
      <trkpt lat="48.0468" lon="6.86571">
        <ele>798</ele>
        <time>2022-05-27T12:36:18Z</time>
      </trkpt>
      <trkpt lat="48.04691" lon="6.86579">
        <ele>797.4</ele>
        <time>2022-05-27T12:36:21Z</time>
      </trkpt>
      <trkpt lat="48.04701" lon="6.8659">
        <ele>797.1</ele>
        <time>2022-05-27T12:36:24Z</time>
      </trkpt>
      <trkpt lat="48.04707" lon="6.86604">
        <ele>796</ele>
        <time>2022-05-27T12:36:27Z</time>
      </trkpt>
      <trkpt lat="48.04712" lon="6.86622">
        <ele>796.4</ele>
        <time>2022-05-27T12:36:30Z</time>
      </trkpt>
      <trkpt lat="48.04715" lon="6.86635">
        <ele>794.8</ele>
        <time>2022-05-27T12:36:32Z</time>
      </trkpt>
      <trkpt lat="48.04719" lon="6.86648">
        <ele>794</ele>
        <time>2022-05-27T12:36:35Z</time>
      </trkpt>
      <trkpt lat="48.04717" lon="6.86662">
        <ele>793.3</ele>
        <time>2022-05-27T12:36:39Z</time>
      </trkpt>
      <trkpt lat="48.04706" lon="6.8667">
        <ele>792.1</ele>
        <time>2022-05-27T12:36:42Z</time>
      </trkpt>
      <trkpt lat="48.04697" lon="6.86677">
        <ele>791.7</ele>
        <time>2022-05-27T12:36:44Z</time>
      </trkpt>
      <trkpt lat="48.04688" lon="6.86688">
        <ele>791.3</ele>
        <time>2022-05-27T12:36:46Z</time>
      </trkpt>
      <trkpt lat="48.04679" lon="6.867">
        <ele>790.3</ele>
        <time>2022-05-27T12:36:48Z</time>
      </trkpt>
      <trkpt lat="48.04668" lon="6.86711">
        <ele>789.1</ele>
        <time>2022-05-27T12:36:50Z</time>
      </trkpt>
      <trkpt lat="48.04656" lon="6.8672">
        <ele>788.8</ele>
        <time>2022-05-27T12:36:52Z</time>
      </trkpt>
      <trkpt lat="48.04641" lon="6.86722">
        <ele>787.8</ele>
        <time>2022-05-27T12:36:54Z</time>
      </trkpt>
      <trkpt lat="48.04625" lon="6.86721">
        <ele>786.4</ele>
        <time>2022-05-27T12:36:56Z</time>
      </trkpt>
      <trkpt lat="48.04608" lon="6.86717">
        <ele>786</ele>
        <time>2022-05-27T12:36:58Z</time>
      </trkpt>
      <trkpt lat="48.04592" lon="6.86711">
        <ele>785.2</ele>
        <time>2022-05-27T12:37:00Z</time>
      </trkpt>
      <trkpt lat="48.04577" lon="6.86701">
        <ele>783.3</ele>
        <time>2022-05-27T12:37:02Z</time>
      </trkpt>
      <trkpt lat="48.04563" lon="6.86684">
        <ele>782.5</ele>
        <time>2022-05-27T12:37:04Z</time>
      </trkpt>
      <trkpt lat="48.04551" lon="6.86665">
        <ele>782</ele>
        <time>2022-05-27T12:37:06Z</time>
      </trkpt>
      <trkpt lat="48.04545" lon="6.86654">
        <ele>780.7</ele>
        <time>2022-05-27T12:37:07Z</time>
      </trkpt>
      <trkpt lat="48.0454" lon="6.86644">
        <ele>779.8</ele>
        <time>2022-05-27T12:37:08Z</time>
      </trkpt>
      <trkpt lat="48.04534" lon="6.86633">
        <ele>779</ele>
        <time>2022-05-27T12:37:09Z</time>
      </trkpt>
      <trkpt lat="48.04528" lon="6.86622">
        <ele>778.2</ele>
        <time>2022-05-27T12:37:10Z</time>
      </trkpt>
      <trkpt lat="48.04522" lon="6.86611">
        <ele>777.6</ele>
        <time>2022-05-27T12:37:11Z</time>
      </trkpt>
      <trkpt lat="48.04516" lon="6.866">
        <ele>776.8</ele>
        <time>2022-05-27T12:37:12Z</time>
      </trkpt>
      <trkpt lat="48.0451" lon="6.86589">
        <ele>775.9</ele>
        <time>2022-05-27T12:37:13Z</time>
      </trkpt>
      <trkpt lat="48.04504" lon="6.86578">
        <ele>775.6</ele>
        <time>2022-05-27T12:37:14Z</time>
      </trkpt>
      <trkpt lat="48.04495" lon="6.8656">
        <ele>776.5</ele>
        <time>2022-05-27T12:37:16Z</time>
      </trkpt>
      <trkpt lat="48.04487" lon="6.86549">
        <ele>776.1</ele>
        <time>2022-05-27T12:37:18Z</time>
      </trkpt>
      <trkpt lat="48.04477" lon="6.86541">
        <ele>774.5</ele>
        <time>2022-05-27T12:37:21Z</time>
      </trkpt>
      <trkpt lat="48.04467" lon="6.86551">
        <ele>774.5</ele>
        <time>2022-05-27T12:37:24Z</time>
      </trkpt>
      <trkpt lat="48.04465" lon="6.86572">
        <ele>773.8</ele>
        <time>2022-05-27T12:37:27Z</time>
      </trkpt>
      <trkpt lat="48.04466" lon="6.86587">
        <ele>773.2</ele>
        <time>2022-05-27T12:37:29Z</time>
      </trkpt>
      <trkpt lat="48.04468" lon="6.86606">
        <ele>772.4</ele>
        <time>2022-05-27T12:37:31Z</time>
      </trkpt>
      <trkpt lat="48.04469" lon="6.86626">
        <ele>770.7</ele>
        <time>2022-05-27T12:37:33Z</time>
      </trkpt>
      <trkpt lat="48.04468" lon="6.86648">
        <ele>770.3</ele>
        <time>2022-05-27T12:37:35Z</time>
      </trkpt>
      <trkpt lat="48.04464" lon="6.8667">
        <ele>769.6</ele>
        <time>2022-05-27T12:37:37Z</time>
      </trkpt>
      <trkpt lat="48.0446" lon="6.86692">
        <ele>768.4</ele>
        <time>2022-05-27T12:37:39Z</time>
      </trkpt>
      <trkpt lat="48.04456" lon="6.86713">
        <ele>768.2</ele>
        <time>2022-05-27T12:37:41Z</time>
      </trkpt>
      <trkpt lat="48.04452" lon="6.86732">
        <ele>768.3</ele>
        <time>2022-05-27T12:37:43Z</time>
      </trkpt>
      <trkpt lat="48.04449" lon="6.8675">
        <ele>769.2</ele>
        <time>2022-05-27T12:37:45Z</time>
      </trkpt>
      <trkpt lat="48.04445" lon="6.86767">
        <ele>769.7</ele>
        <time>2022-05-27T12:37:47Z</time>
      </trkpt>
      <trkpt lat="48.04442" lon="6.86783">
        <ele>770.2</ele>
        <time>2022-05-27T12:37:49Z</time>
      </trkpt>
      <trkpt lat="48.04438" lon="6.86799">
        <ele>770.8</ele>
        <time>2022-05-27T12:37:51Z</time>
      </trkpt>
      <trkpt lat="48.04435" lon="6.86812">
        <ele>771.8</ele>
        <time>2022-05-27T12:37:53Z</time>
      </trkpt>
      <trkpt lat="48.04429" lon="6.86828">
        <ele>772.6</ele>
        <time>2022-05-27T12:37:56Z</time>
      </trkpt>
      <trkpt lat="48.04421" lon="6.86837">
        <ele>772.3</ele>
        <time>2022-05-27T12:37:59Z</time>
      </trkpt>
      <trkpt lat="48.04411" lon="6.8684">
        <ele>773.2</ele>
        <time>2022-05-27T12:38:02Z</time>
      </trkpt>
      <trkpt lat="48.04402" lon="6.86839">
        <ele>773.3</ele>
        <time>2022-05-27T12:38:05Z</time>
      </trkpt>
      <trkpt lat="48.04391" lon="6.86832">
        <ele>774.6</ele>
        <time>2022-05-27T12:38:09Z</time>
      </trkpt>
      <trkpt lat="48.04382" lon="6.86824">
        <ele>775.7</ele>
        <time>2022-05-27T12:38:13Z</time>
      </trkpt>
      <trkpt lat="48.04374" lon="6.86816">
        <ele>776.7</ele>
        <time>2022-05-27T12:38:17Z</time>
      </trkpt>
      <trkpt lat="48.04366" lon="6.86808">
        <ele>777.4</ele>
        <time>2022-05-27T12:38:21Z</time>
      </trkpt>
      <trkpt lat="48.04358" lon="6.868">
        <ele>778.3</ele>
        <time>2022-05-27T12:38:25Z</time>
      </trkpt>
      <trkpt lat="48.0435" lon="6.86793">
        <ele>778.8</ele>
        <time>2022-05-27T12:38:29Z</time>
      </trkpt>
      <trkpt lat="48.04342" lon="6.86786">
        <ele>780</ele>
        <time>2022-05-27T12:38:33Z</time>
      </trkpt>
      <trkpt lat="48.04332" lon="6.86777">
        <ele>780.4</ele>
        <time>2022-05-27T12:38:38Z</time>
      </trkpt>
      <trkpt lat="48.04322" lon="6.86771">
        <ele>781.4</ele>
        <time>2022-05-27T12:38:43Z</time>
      </trkpt>
      <trkpt lat="48.04313" lon="6.86767">
        <ele>782.3</ele>
        <time>2022-05-27T12:38:47Z</time>
      </trkpt>
      <trkpt lat="48.04303" lon="6.86765">
        <ele>783.2</ele>
        <time>2022-05-27T12:38:52Z</time>
      </trkpt>
      <trkpt lat="48.04292" lon="6.86766">
        <ele>784.1</ele>
        <time>2022-05-27T12:38:57Z</time>
      </trkpt>
      <trkpt lat="48.04282" lon="6.86768">
        <ele>785.1</ele>
        <time>2022-05-27T12:39:02Z</time>
      </trkpt>
      <trkpt lat="48.04271" lon="6.86771">
        <ele>785.4</ele>
        <time>2022-05-27T12:39:07Z</time>
      </trkpt>
      <trkpt lat="48.04262" lon="6.86771">
        <ele>785.1</ele>
        <time>2022-05-27T12:39:11Z</time>
      </trkpt>
      <trkpt lat="48.04252" lon="6.86768">
        <ele>784.6</ele>
        <time>2022-05-27T12:39:15Z</time>
      </trkpt>
      <trkpt lat="48.04242" lon="6.86761">
        <ele>783.8</ele>
        <time>2022-05-27T12:39:19Z</time>
      </trkpt>
      <trkpt lat="48.04234" lon="6.86752">
        <ele>783.8</ele>
        <time>2022-05-27T12:39:22Z</time>
      </trkpt>
      <trkpt lat="48.04227" lon="6.86744">
        <ele>783.9</ele>
        <time>2022-05-27T12:39:25Z</time>
      </trkpt>
      <trkpt lat="48.04219" lon="6.86732">
        <ele>783.7</ele>
        <time>2022-05-27T12:39:29Z</time>
      </trkpt>
      <trkpt lat="48.04214" lon="6.86717">
        <ele>784.5</ele>
        <time>2022-05-27T12:39:33Z</time>
      </trkpt>
      <trkpt lat="48.04209" lon="6.86701">
        <ele>782.5</ele>
        <time>2022-05-27T12:39:37Z</time>
      </trkpt>
      <trkpt lat="48.04205" lon="6.86686">
        <ele>782.1</ele>
        <time>2022-05-27T12:39:41Z</time>
      </trkpt>
      <trkpt lat="48.04202" lon="6.86672">
        <ele>780.4</ele>
        <time>2022-05-27T12:39:44Z</time>
      </trkpt>
      <trkpt lat="48.04197" lon="6.86658">
        <ele>782.8</ele>
        <time>2022-05-27T12:39:47Z</time>
      </trkpt>
      <trkpt lat="48.04189" lon="6.86643">
        <ele>782.2</ele>
        <time>2022-05-27T12:39:50Z</time>
      </trkpt>
      <trkpt lat="48.04181" lon="6.86636">
        <ele>777.8</ele>
        <time>2022-05-27T12:39:52Z</time>
      </trkpt>
      <trkpt lat="48.04172" lon="6.86629">
        <ele>777</ele>
        <time>2022-05-27T12:39:54Z</time>
      </trkpt>
      <trkpt lat="48.04163" lon="6.86619">
        <ele>778.4</ele>
        <time>2022-05-27T12:39:56Z</time>
      </trkpt>
      <trkpt lat="48.04155" lon="6.86605">
        <ele>777</ele>
        <time>2022-05-27T12:39:58Z</time>
      </trkpt>
      <trkpt lat="48.0415" lon="6.86587">
        <ele>777.9</ele>
        <time>2022-05-27T12:40:00Z</time>
      </trkpt>
      <trkpt lat="48.04148" lon="6.86567">
        <ele>776.9</ele>
        <time>2022-05-27T12:40:02Z</time>
      </trkpt>
      <trkpt lat="48.04147" lon="6.86547">
        <ele>777</ele>
        <time>2022-05-27T12:40:04Z</time>
      </trkpt>
      <trkpt lat="48.04146" lon="6.8653">
        <ele>777.6</ele>
        <time>2022-05-27T12:40:06Z</time>
      </trkpt>
      <trkpt lat="48.04144" lon="6.86516">
        <ele>777.6</ele>
        <time>2022-05-27T12:40:08Z</time>
      </trkpt>
      <trkpt lat="48.0414" lon="6.86503">
        <ele>778.7</ele>
        <time>2022-05-27T12:40:10Z</time>
      </trkpt>
      <trkpt lat="48.04134" lon="6.86485">
        <ele>779.2</ele>
        <time>2022-05-27T12:40:13Z</time>
      </trkpt>
      <trkpt lat="48.04127" lon="6.8647">
        <ele>778.3</ele>
        <time>2022-05-27T12:40:16Z</time>
      </trkpt>
      <trkpt lat="48.04118" lon="6.86458">
        <ele>776.4</ele>
        <time>2022-05-27T12:40:19Z</time>
      </trkpt>
      <trkpt lat="48.0411" lon="6.86449">
        <ele>776.7</ele>
        <time>2022-05-27T12:40:22Z</time>
      </trkpt>
      <trkpt lat="48.041" lon="6.86434">
        <ele>776.9</ele>
        <time>2022-05-27T12:40:25Z</time>
      </trkpt>
      <trkpt lat="48.04093" lon="6.86422">
        <ele>776.4</ele>
        <time>2022-05-27T12:40:27Z</time>
      </trkpt>
      <trkpt lat="48.04086" lon="6.86408">
        <ele>776.8</ele>
        <time>2022-05-27T12:40:29Z</time>
      </trkpt>
      <trkpt lat="48.04078" lon="6.86396">
        <ele>775.6</ele>
        <time>2022-05-27T12:40:31Z</time>
      </trkpt>
      <trkpt lat="48.04071" lon="6.86387">
        <ele>777.3</ele>
        <time>2022-05-27T12:40:33Z</time>
      </trkpt>
      <trkpt lat="48.0406" lon="6.86376">
        <ele>777.7</ele>
        <time>2022-05-27T12:40:36Z</time>
      </trkpt>
      <trkpt lat="48.04051" lon="6.86367">
        <ele>778.6</ele>
        <time>2022-05-27T12:40:39Z</time>
      </trkpt>
      <trkpt lat="48.04044" lon="6.86358">
        <ele>778.7</ele>
        <time>2022-05-27T12:40:42Z</time>
      </trkpt>
      <trkpt lat="48.04036" lon="6.86351">
        <ele>781.1</ele>
        <time>2022-05-27T12:40:46Z</time>
      </trkpt>
      <trkpt lat="48.04027" lon="6.86343">
        <ele>780.8</ele>
        <time>2022-05-27T12:40:51Z</time>
      </trkpt>
      <trkpt lat="48.04018" lon="6.86335">
        <ele>782.2</ele>
        <time>2022-05-27T12:40:55Z</time>
      </trkpt>
      <trkpt lat="48.04009" lon="6.86328">
        <ele>783.3</ele>
        <time>2022-05-27T12:40:59Z</time>
      </trkpt>
      <trkpt lat="48.03999" lon="6.8632">
        <ele>783.1</ele>
        <time>2022-05-27T12:41:04Z</time>
      </trkpt>
      <trkpt lat="48.0399" lon="6.86314">
        <ele>784.1</ele>
        <time>2022-05-27T12:41:08Z</time>
      </trkpt>
      <trkpt lat="48.03981" lon="6.86308">
        <ele>783.9</ele>
        <time>2022-05-27T12:41:11Z</time>
      </trkpt>
      <trkpt lat="48.03972" lon="6.86304">
        <ele>784.2</ele>
        <time>2022-05-27T12:41:14Z</time>
      </trkpt>
      <trkpt lat="48.03963" lon="6.863">
        <ele>785.6</ele>
        <time>2022-05-27T12:41:17Z</time>
      </trkpt>
      <trkpt lat="48.03953" lon="6.86295">
        <ele>783.6</ele>
        <time>2022-05-27T12:41:21Z</time>
      </trkpt>
      <trkpt lat="48.03942" lon="6.86289">
        <ele>786.5</ele>
        <time>2022-05-27T12:41:25Z</time>
      </trkpt>
      <trkpt lat="48.03933" lon="6.86284">
        <ele>787</ele>
        <time>2022-05-27T12:41:28Z</time>
      </trkpt>
      <trkpt lat="48.03926" lon="6.86277">
        <ele>786.5</ele>
        <time>2022-05-27T12:41:31Z</time>
      </trkpt>
      <trkpt lat="48.03916" lon="6.86266">
        <ele>787.1</ele>
        <time>2022-05-27T12:41:35Z</time>
      </trkpt>
      <trkpt lat="48.03908" lon="6.86256">
        <ele>788.5</ele>
        <time>2022-05-27T12:41:39Z</time>
      </trkpt>
      <trkpt lat="48.03898" lon="6.86244">
        <ele>788.3</ele>
        <time>2022-05-27T12:41:44Z</time>
      </trkpt>
      <trkpt lat="48.03887" lon="6.86233">
        <ele>788.7</ele>
        <time>2022-05-27T12:41:47Z</time>
      </trkpt>
      <trkpt lat="48.03879" lon="6.86226">
        <ele>787.7</ele>
        <time>2022-05-27T12:41:49Z</time>
      </trkpt>
      <trkpt lat="48.0387" lon="6.8622">
        <ele>786.9</ele>
        <time>2022-05-27T12:41:51Z</time>
      </trkpt>
      <trkpt lat="48.03858" lon="6.86215">
        <ele>787.7</ele>
        <time>2022-05-27T12:41:54Z</time>
      </trkpt>
      <trkpt lat="48.03847" lon="6.8621">
        <ele>787.1</ele>
        <time>2022-05-27T12:41:57Z</time>
      </trkpt>
      <trkpt lat="48.03836" lon="6.86205">
        <ele>787.8</ele>
        <time>2022-05-27T12:42:00Z</time>
      </trkpt>
      <trkpt lat="48.03825" lon="6.86197">
        <ele>787.4</ele>
        <time>2022-05-27T12:42:03Z</time>
      </trkpt>
      <trkpt lat="48.03816" lon="6.86185">
        <ele>787.6</ele>
        <time>2022-05-27T12:42:06Z</time>
      </trkpt>
      <trkpt lat="48.03807" lon="6.86171">
        <ele>788.8</ele>
        <time>2022-05-27T12:42:09Z</time>
      </trkpt>
      <trkpt lat="48.03801" lon="6.86156">
        <ele>789</ele>
        <time>2022-05-27T12:42:12Z</time>
      </trkpt>
      <trkpt lat="48.03795" lon="6.86145">
        <ele>788.7</ele>
        <time>2022-05-27T12:42:15Z</time>
      </trkpt>
      <trkpt lat="48.03787" lon="6.86134">
        <ele>791.1</ele>
        <time>2022-05-27T12:42:19Z</time>
      </trkpt>
      <trkpt lat="48.03778" lon="6.86128">
        <ele>790.6</ele>
        <time>2022-05-27T12:42:23Z</time>
      </trkpt>
      <trkpt lat="48.03768" lon="6.86124">
        <ele>791.5</ele>
        <time>2022-05-27T12:42:27Z</time>
      </trkpt>
      <trkpt lat="48.03757" lon="6.8612">
        <ele>793.3</ele>
        <time>2022-05-27T12:42:31Z</time>
      </trkpt>
      <trkpt lat="48.03748" lon="6.86114">
        <ele>793.1</ele>
        <time>2022-05-27T12:42:35Z</time>
      </trkpt>
      <trkpt lat="48.0374" lon="6.86109">
        <ele>793.3</ele>
        <time>2022-05-27T12:42:38Z</time>
      </trkpt>
      <trkpt lat="48.03731" lon="6.86105">
        <ele>793.1</ele>
        <time>2022-05-27T12:42:41Z</time>
      </trkpt>
      <trkpt lat="48.0372" lon="6.86102">
        <ele>794.2</ele>
        <time>2022-05-27T12:42:45Z</time>
      </trkpt>
      <trkpt lat="48.03708" lon="6.861">
        <ele>794.8</ele>
        <time>2022-05-27T12:42:49Z</time>
      </trkpt>
      <trkpt lat="48.037" lon="6.86095">
        <ele>796.5</ele>
        <time>2022-05-27T12:42:52Z</time>
      </trkpt>
      <trkpt lat="48.03689" lon="6.86087">
        <ele>797</ele>
        <time>2022-05-27T12:42:56Z</time>
      </trkpt>
      <trkpt lat="48.03681" lon="6.8608">
        <ele>796.4</ele>
        <time>2022-05-27T12:42:59Z</time>
      </trkpt>
      <trkpt lat="48.03671" lon="6.8607">
        <ele>797.5</ele>
        <time>2022-05-27T12:43:03Z</time>
      </trkpt>
      <trkpt lat="48.03664" lon="6.86061">
        <ele>797.9</ele>
        <time>2022-05-27T12:43:06Z</time>
      </trkpt>
      <trkpt lat="48.03654" lon="6.86058">
        <ele>799.2</ele>
        <time>2022-05-27T12:43:10Z</time>
      </trkpt>
      <trkpt lat="48.03644" lon="6.86055">
        <ele>800.8</ele>
        <time>2022-05-27T12:43:14Z</time>
      </trkpt>
      <trkpt lat="48.03633" lon="6.8605">
        <ele>800.3</ele>
        <time>2022-05-27T12:43:18Z</time>
      </trkpt>
      <trkpt lat="48.03624" lon="6.86047">
        <ele>801.1</ele>
        <time>2022-05-27T12:43:21Z</time>
      </trkpt>
      <trkpt lat="48.03613" lon="6.86043">
        <ele>799.5</ele>
        <time>2022-05-27T12:43:24Z</time>
      </trkpt>
      <trkpt lat="48.03604" lon="6.86041">
        <ele>800</ele>
        <time>2022-05-27T12:43:26Z</time>
      </trkpt>
      <trkpt lat="48.03595" lon="6.86039">
        <ele>799.2</ele>
        <time>2022-05-27T12:43:28Z</time>
      </trkpt>
      <trkpt lat="48.03584" lon="6.86034">
        <ele>798.6</ele>
        <time>2022-05-27T12:43:30Z</time>
      </trkpt>
      <trkpt lat="48.03572" lon="6.8603">
        <ele>799.8</ele>
        <time>2022-05-27T12:43:32Z</time>
      </trkpt>
      <trkpt lat="48.03561" lon="6.86028">
        <ele>800.9</ele>
        <time>2022-05-27T12:43:34Z</time>
      </trkpt>
      <trkpt lat="48.03549" lon="6.86028">
        <ele>796.5</ele>
        <time>2022-05-27T12:43:36Z</time>
      </trkpt>
      <trkpt lat="48.03536" lon="6.86031">
        <ele>796.8</ele>
        <time>2022-05-27T12:43:38Z</time>
      </trkpt>
      <trkpt lat="48.03524" lon="6.86034">
        <ele>796.4</ele>
        <time>2022-05-27T12:43:40Z</time>
      </trkpt>
      <trkpt lat="48.03513" lon="6.86036">
        <ele>795.9</ele>
        <time>2022-05-27T12:43:42Z</time>
      </trkpt>
      <trkpt lat="48.03503" lon="6.86042">
        <ele>796.4</ele>
        <time>2022-05-27T12:43:44Z</time>
      </trkpt>
      <trkpt lat="48.03493" lon="6.86049">
        <ele>795.1</ele>
        <time>2022-05-27T12:43:46Z</time>
      </trkpt>
      <trkpt lat="48.03483" lon="6.86055">
        <ele>796.3</ele>
        <time>2022-05-27T12:43:48Z</time>
      </trkpt>
      <trkpt lat="48.03472" lon="6.86062">
        <ele>798.4</ele>
        <time>2022-05-27T12:43:50Z</time>
      </trkpt>
      <trkpt lat="48.03463" lon="6.8607">
        <ele>795.3</ele>
        <time>2022-05-27T12:43:52Z</time>
      </trkpt>
      <trkpt lat="48.03455" lon="6.86079">
        <ele>797</ele>
        <time>2022-05-27T12:43:54Z</time>
      </trkpt>
      <trkpt lat="48.03449" lon="6.8609">
        <ele>797.8</ele>
        <time>2022-05-27T12:43:56Z</time>
      </trkpt>
      <trkpt lat="48.03441" lon="6.86105">
        <ele>798.9</ele>
        <time>2022-05-27T12:43:59Z</time>
      </trkpt>
      <trkpt lat="48.03432" lon="6.86118">
        <ele>798.5</ele>
        <time>2022-05-27T12:44:02Z</time>
      </trkpt>
      <trkpt lat="48.03423" lon="6.86131">
        <ele>798.2</ele>
        <time>2022-05-27T12:44:05Z</time>
      </trkpt>
      <trkpt lat="48.03416" lon="6.86139">
        <ele>799</ele>
        <time>2022-05-27T12:44:07Z</time>
      </trkpt>
      <trkpt lat="48.03407" lon="6.86144">
        <ele>798.7</ele>
        <time>2022-05-27T12:44:09Z</time>
      </trkpt>
      <trkpt lat="48.03399" lon="6.86149">
        <ele>799.9</ele>
        <time>2022-05-27T12:44:11Z</time>
      </trkpt>
      <trkpt lat="48.03388" lon="6.86155">
        <ele>799</ele>
        <time>2022-05-27T12:44:14Z</time>
      </trkpt>
      <trkpt lat="48.03379" lon="6.86159">
        <ele>799.1</ele>
        <time>2022-05-27T12:44:16Z</time>
      </trkpt>
      <trkpt lat="48.0337" lon="6.86163">
        <ele>798.6</ele>
        <time>2022-05-27T12:44:18Z</time>
      </trkpt>
      <trkpt lat="48.03361" lon="6.8617">
        <ele>797.7</ele>
        <time>2022-05-27T12:44:20Z</time>
      </trkpt>
      <trkpt lat="48.03352" lon="6.86176">
        <ele>797.6</ele>
        <time>2022-05-27T12:44:22Z</time>
      </trkpt>
      <trkpt lat="48.03344" lon="6.86183">
        <ele>797.4</ele>
        <time>2022-05-27T12:44:24Z</time>
      </trkpt>
      <trkpt lat="48.03334" lon="6.86192">
        <ele>799.6</ele>
        <time>2022-05-27T12:44:27Z</time>
      </trkpt>
      <trkpt lat="48.03324" lon="6.862">
        <ele>801.1</ele>
        <time>2022-05-27T12:44:31Z</time>
      </trkpt>
      <trkpt lat="48.03313" lon="6.86205">
        <ele>803.2</ele>
        <time>2022-05-27T12:44:35Z</time>
      </trkpt>
      <trkpt lat="48.03304" lon="6.86207">
        <ele>802.8</ele>
        <time>2022-05-27T12:44:38Z</time>
      </trkpt>
      <trkpt lat="48.03294" lon="6.86211">
        <ele>803.5</ele>
        <time>2022-05-27T12:44:41Z</time>
      </trkpt>
      <trkpt lat="48.03284" lon="6.86214">
        <ele>803.9</ele>
        <time>2022-05-27T12:44:44Z</time>
      </trkpt>
      <trkpt lat="48.03275" lon="6.86218">
        <ele>804.4</ele>
        <time>2022-05-27T12:44:47Z</time>
      </trkpt>
      <trkpt lat="48.03265" lon="6.86223">
        <ele>803.3</ele>
        <time>2022-05-27T12:44:50Z</time>
      </trkpt>
      <trkpt lat="48.03257" lon="6.8623">
        <ele>804.4</ele>
        <time>2022-05-27T12:44:52Z</time>
      </trkpt>
      <trkpt lat="48.03249" lon="6.86238">
        <ele>802.5</ele>
        <time>2022-05-27T12:44:54Z</time>
      </trkpt>
      <trkpt lat="48.03239" lon="6.86245">
        <ele>802.2</ele>
        <time>2022-05-27T12:44:56Z</time>
      </trkpt>
      <trkpt lat="48.03228" lon="6.86248">
        <ele>800.9</ele>
        <time>2022-05-27T12:44:58Z</time>
      </trkpt>
      <trkpt lat="48.03219" lon="6.8625">
        <ele>804.2</ele>
        <time>2022-05-27T12:45:00Z</time>
      </trkpt>
      <trkpt lat="48.03208" lon="6.86255">
        <ele>802.8</ele>
        <time>2022-05-27T12:45:03Z</time>
      </trkpt>
      <trkpt lat="48.032" lon="6.86261">
        <ele>804.7</ele>
        <time>2022-05-27T12:45:06Z</time>
      </trkpt>
      <trkpt lat="48.03189" lon="6.86269">
        <ele>803.8</ele>
        <time>2022-05-27T12:45:10Z</time>
      </trkpt>
      <trkpt lat="48.03179" lon="6.86273">
        <ele>803.4</ele>
        <time>2022-05-27T12:45:14Z</time>
      </trkpt>
      <trkpt lat="48.0317" lon="6.86281">
        <ele>806.8</ele>
        <time>2022-05-27T12:45:19Z</time>
      </trkpt>
      <trkpt lat="48.03168" lon="6.86296">
        <ele>808.7</ele>
        <time>2022-05-27T12:45:25Z</time>
      </trkpt>
      <trkpt lat="48.03167" lon="6.8631">
        <ele>809.4</ele>
        <time>2022-05-27T12:45:30Z</time>
      </trkpt>
      <trkpt lat="48.03165" lon="6.86323">
        <ele>810.3</ele>
        <time>2022-05-27T12:45:35Z</time>
      </trkpt>
      <trkpt lat="48.03161" lon="6.86337">
        <ele>810.5</ele>
        <time>2022-05-27T12:45:40Z</time>
      </trkpt>
      <trkpt lat="48.03155" lon="6.8635">
        <ele>811.8</ele>
        <time>2022-05-27T12:45:45Z</time>
      </trkpt>
      <trkpt lat="48.0315" lon="6.86364">
        <ele>813.3</ele>
        <time>2022-05-27T12:45:50Z</time>
      </trkpt>
      <trkpt lat="48.03146" lon="6.86377">
        <ele>814.7</ele>
        <time>2022-05-27T12:45:55Z</time>
      </trkpt>
      <trkpt lat="48.03139" lon="6.86389">
        <ele>814.9</ele>
        <time>2022-05-27T12:46:00Z</time>
      </trkpt>
      <trkpt lat="48.03134" lon="6.86401">
        <ele>815.2</ele>
        <time>2022-05-27T12:46:04Z</time>
      </trkpt>
      <trkpt lat="48.03127" lon="6.86413">
        <ele>815.4</ele>
        <time>2022-05-27T12:46:08Z</time>
      </trkpt>
      <trkpt lat="48.03122" lon="6.86426">
        <ele>815.3</ele>
        <time>2022-05-27T12:46:11Z</time>
      </trkpt>
      <trkpt lat="48.03118" lon="6.86441">
        <ele>816.5</ele>
        <time>2022-05-27T12:46:15Z</time>
      </trkpt>
      <trkpt lat="48.03113" lon="6.86453">
        <ele>816.9</ele>
        <time>2022-05-27T12:46:19Z</time>
      </trkpt>
      <trkpt lat="48.03108" lon="6.86467">
        <ele>817.6</ele>
        <time>2022-05-27T12:46:24Z</time>
      </trkpt>
      <trkpt lat="48.03103" lon="6.8648">
        <ele>819.7</ele>
        <time>2022-05-27T12:46:29Z</time>
      </trkpt>
      <trkpt lat="48.03099" lon="6.86495">
        <ele>821.1</ele>
        <time>2022-05-27T12:46:34Z</time>
      </trkpt>
      <trkpt lat="48.03093" lon="6.86508">
        <ele>822.3</ele>
        <time>2022-05-27T12:46:39Z</time>
      </trkpt>
      <trkpt lat="48.03088" lon="6.86521">
        <ele>823.8</ele>
        <time>2022-05-27T12:46:44Z</time>
      </trkpt>
      <trkpt lat="48.03082" lon="6.86534">
        <ele>824.9</ele>
        <time>2022-05-27T12:46:49Z</time>
      </trkpt>
      <trkpt lat="48.03077" lon="6.86549">
        <ele>825.9</ele>
        <time>2022-05-27T12:46:54Z</time>
      </trkpt>
      <trkpt lat="48.03071" lon="6.86561">
        <ele>826.8</ele>
        <time>2022-05-27T12:46:59Z</time>
      </trkpt>
      <trkpt lat="48.03066" lon="6.86573">
        <ele>828.5</ele>
        <time>2022-05-27T12:47:04Z</time>
      </trkpt>
      <trkpt lat="48.03063" lon="6.86586">
        <ele>829</ele>
        <time>2022-05-27T12:47:08Z</time>
      </trkpt>
      <trkpt lat="48.03058" lon="6.86598">
        <ele>829.3</ele>
        <time>2022-05-27T12:47:12Z</time>
      </trkpt>
      <trkpt lat="48.03055" lon="6.8661">
        <ele>829.7</ele>
        <time>2022-05-27T12:47:16Z</time>
      </trkpt>
      <trkpt lat="48.03052" lon="6.86624">
        <ele>831.4</ele>
        <time>2022-05-27T12:47:20Z</time>
      </trkpt>
      <trkpt lat="48.03047" lon="6.86637">
        <ele>832.8</ele>
        <time>2022-05-27T12:47:26Z</time>
      </trkpt>
      <trkpt lat="48.03042" lon="6.8665">
        <ele>834.2</ele>
        <time>2022-05-27T12:47:32Z</time>
      </trkpt>
      <trkpt lat="48.03035" lon="6.86662">
        <ele>836.2</ele>
        <time>2022-05-27T12:47:38Z</time>
      </trkpt>
      <trkpt lat="48.03026" lon="6.86674">
        <ele>835.3</ele>
        <time>2022-05-27T12:47:42Z</time>
      </trkpt>
      <trkpt lat="48.03019" lon="6.86684">
        <ele>833.9</ele>
        <time>2022-05-27T12:47:45Z</time>
      </trkpt>
      <trkpt lat="48.03015" lon="6.86698">
        <ele>835.5</ele>
        <time>2022-05-27T12:47:48Z</time>
      </trkpt>
      <trkpt lat="48.03012" lon="6.86712">
        <ele>837</ele>
        <time>2022-05-27T12:47:51Z</time>
      </trkpt>
      <trkpt lat="48.03008" lon="6.86726">
        <ele>837</ele>
        <time>2022-05-27T12:47:55Z</time>
      </trkpt>
      <trkpt lat="48.03005" lon="6.86739">
        <ele>839.1</ele>
        <time>2022-05-27T12:48:00Z</time>
      </trkpt>
      <trkpt lat="48.03002" lon="6.86755">
        <ele>840.3</ele>
        <time>2022-05-27T12:48:06Z</time>
      </trkpt>
      <trkpt lat="48.02998" lon="6.8677">
        <ele>841.5</ele>
        <time>2022-05-27T12:48:11Z</time>
      </trkpt>
      <trkpt lat="48.02994" lon="6.86785">
        <ele>842.6</ele>
        <time>2022-05-27T12:48:15Z</time>
      </trkpt>
      <trkpt lat="48.0299" lon="6.86802">
        <ele>842.3</ele>
        <time>2022-05-27T12:48:19Z</time>
      </trkpt>
      <trkpt lat="48.02986" lon="6.86815">
        <ele>843.5</ele>
        <time>2022-05-27T12:48:23Z</time>
      </trkpt>
      <trkpt lat="48.02982" lon="6.86827">
        <ele>844.7</ele>
        <time>2022-05-27T12:48:27Z</time>
      </trkpt>
      <trkpt lat="48.02977" lon="6.8684">
        <ele>844.9</ele>
        <time>2022-05-27T12:48:31Z</time>
      </trkpt>
      <trkpt lat="48.02972" lon="6.86854">
        <ele>845</ele>
        <time>2022-05-27T12:48:35Z</time>
      </trkpt>
      <trkpt lat="48.02967" lon="6.86866">
        <ele>845</ele>
        <time>2022-05-27T12:48:39Z</time>
      </trkpt>
      <trkpt lat="48.02962" lon="6.8688">
        <ele>846.4</ele>
        <time>2022-05-27T12:48:44Z</time>
      </trkpt>
      <trkpt lat="48.02961" lon="6.86894">
        <ele>848.6</ele>
        <time>2022-05-27T12:48:49Z</time>
      </trkpt>
      <trkpt lat="48.02962" lon="6.86907">
        <ele>850.1</ele>
        <time>2022-05-27T12:48:55Z</time>
      </trkpt>
      <trkpt lat="48.02972" lon="6.86909">
        <ele>851.6</ele>
        <time>2022-05-27T12:49:04Z</time>
      </trkpt>
      <trkpt lat="48.0298" lon="6.86902">
        <ele>852.9</ele>
        <time>2022-05-27T12:49:11Z</time>
      </trkpt>
      <trkpt lat="48.02987" lon="6.86894">
        <ele>854.3</ele>
        <time>2022-05-27T12:49:17Z</time>
      </trkpt>
      <trkpt lat="48.02994" lon="6.86884">
        <ele>855.7</ele>
        <time>2022-05-27T12:49:23Z</time>
      </trkpt>
      <trkpt lat="48.03" lon="6.86874">
        <ele>857.2</ele>
        <time>2022-05-27T12:49:29Z</time>
      </trkpt>
      <trkpt lat="48.03009" lon="6.86866">
        <ele>859.1</ele>
        <time>2022-05-27T12:49:36Z</time>
      </trkpt>
      <trkpt lat="48.03017" lon="6.86858">
        <ele>861</ele>
        <time>2022-05-27T12:49:43Z</time>
      </trkpt>
      <trkpt lat="48.03024" lon="6.86851">
        <ele>862.8</ele>
        <time>2022-05-27T12:49:49Z</time>
      </trkpt>
      <trkpt lat="48.03031" lon="6.86841">
        <ele>864.1</ele>
        <time>2022-05-27T12:49:56Z</time>
      </trkpt>
      <trkpt lat="48.03037" lon="6.8683">
        <ele>865.9</ele>
        <time>2022-05-27T12:50:04Z</time>
      </trkpt>
      <trkpt lat="48.03045" lon="6.86821">
        <ele>867.2</ele>
        <time>2022-05-27T12:50:11Z</time>
      </trkpt>
      <trkpt lat="48.03054" lon="6.86813">
        <ele>868.3</ele>
        <time>2022-05-27T12:50:18Z</time>
      </trkpt>
      <trkpt lat="48.03061" lon="6.86804">
        <ele>870</ele>
        <time>2022-05-27T12:50:24Z</time>
      </trkpt>
      <trkpt lat="48.03068" lon="6.86795">
        <ele>871.2</ele>
        <time>2022-05-27T12:50:30Z</time>
      </trkpt>
      <trkpt lat="48.03074" lon="6.86783">
        <ele>872.7</ele>
        <time>2022-05-27T12:50:36Z</time>
      </trkpt>
      <trkpt lat="48.03082" lon="6.86773">
        <ele>874.3</ele>
        <time>2022-05-27T12:50:42Z</time>
      </trkpt>
      <trkpt lat="48.03089" lon="6.86763">
        <ele>876.4</ele>
        <time>2022-05-27T12:50:48Z</time>
      </trkpt>
      <trkpt lat="48.03096" lon="6.86755">
        <ele>877.5</ele>
        <time>2022-05-27T12:50:54Z</time>
      </trkpt>
      <trkpt lat="48.03105" lon="6.86745">
        <ele>878.6</ele>
        <time>2022-05-27T12:51:00Z</time>
      </trkpt>
      <trkpt lat="48.03113" lon="6.86738">
        <ele>878.7</ele>
        <time>2022-05-27T12:51:05Z</time>
      </trkpt>
      <trkpt lat="48.03123" lon="6.86731">
        <ele>880.6</ele>
        <time>2022-05-27T12:51:11Z</time>
      </trkpt>
      <trkpt lat="48.03132" lon="6.86725">
        <ele>881.7</ele>
        <time>2022-05-27T12:51:17Z</time>
      </trkpt>
      <trkpt lat="48.03142" lon="6.86719">
        <ele>883.1</ele>
        <time>2022-05-27T12:51:23Z</time>
      </trkpt>
      <trkpt lat="48.03151" lon="6.86714">
        <ele>883.6</ele>
        <time>2022-05-27T12:51:28Z</time>
      </trkpt>
      <trkpt lat="48.03161" lon="6.86709">
        <ele>884.8</ele>
        <time>2022-05-27T12:51:34Z</time>
      </trkpt>
      <trkpt lat="48.03169" lon="6.86703">
        <ele>887</ele>
        <time>2022-05-27T12:51:39Z</time>
      </trkpt>
      <trkpt lat="48.03177" lon="6.86696">
        <ele>888</ele>
        <time>2022-05-27T12:51:44Z</time>
      </trkpt>
      <trkpt lat="48.03182" lon="6.86693">
        <ele>888.4</ele>
        <time>2022-05-27T12:51:49Z</time>
      </trkpt>
      <trkpt lat="48.03181" lon="6.86693">
        <ele>888.4</ele>
        <time>2022-05-27T12:51:51Z</time>
      </trkpt>
      <trkpt lat="48.0318" lon="6.86693">
        <ele>888.5</ele>
        <time>2022-05-27T12:52:04Z</time>
      </trkpt>
      <trkpt lat="48.0318" lon="6.86693">
        <ele>888.5</ele>
        <time>2022-05-27T12:52:50Z</time>
      </trkpt>
      <trkpt lat="48.03179" lon="6.86693">
        <ele>888</ele>
        <time>2022-05-27T12:52:59Z</time>
      </trkpt>
      <trkpt lat="48.03179" lon="6.86693">
        <ele>888</ele>
        <time>2022-05-27T12:53:43Z</time>
      </trkpt>
      <trkpt lat="48.03178" lon="6.86693">
        <ele>888.3</ele>
        <time>2022-05-27T12:56:07Z</time>
      </trkpt>
      <trkpt lat="48.03178" lon="6.86693">
        <ele>888.2</ele>
        <time>2022-05-27T12:56:39Z</time>
      </trkpt>
      <trkpt lat="48.03175" lon="6.86695">
        <ele>887.6</ele>
        <time>2022-05-27T12:56:47Z</time>
      </trkpt>
      <trkpt lat="48.03175" lon="6.86696">
        <ele>887.9</ele>
        <time>2022-05-27T12:58:23Z</time>
      </trkpt>
      <trkpt lat="48.03177" lon="6.86697">
        <ele>888.3</ele>
        <time>2022-05-27T12:58:30Z</time>
      </trkpt>
      <trkpt lat="48.03177" lon="6.86696">
        <ele>888.8</ele>
        <time>2022-05-27T12:59:21Z</time>
      </trkpt>
      <trkpt lat="48.03177" lon="6.86695">
        <ele>888.3</ele>
        <time>2022-05-27T12:59:25Z</time>
      </trkpt>
      <trkpt lat="48.03177" lon="6.86694">
        <ele>888.2</ele>
        <time>2022-05-27T12:59:30Z</time>
      </trkpt>
      <trkpt lat="48.03178" lon="6.86694">
        <ele>888.4</ele>
        <time>2022-05-27T12:59:32Z</time>
      </trkpt>
      <trkpt lat="48.03179" lon="6.86693">
        <ele>888</ele>
        <time>2022-05-27T12:59:46Z</time>
      </trkpt>
      <trkpt lat="48.03179" lon="6.86693">
        <ele>888.1</ele>
        <time>2022-05-27T12:59:48Z</time>
      </trkpt>
      <trkpt lat="48.03189" lon="6.86688">
        <ele>887.9</ele>
        <time>2022-05-27T12:59:53Z</time>
      </trkpt>
      <trkpt lat="48.03196" lon="6.86676">
        <ele>887.3</ele>
        <time>2022-05-27T12:59:56Z</time>
      </trkpt>
      <trkpt lat="48.03204" lon="6.8666">
        <ele>886.6</ele>
        <time>2022-05-27T12:59:59Z</time>
      </trkpt>
      <trkpt lat="48.03211" lon="6.86647">
        <ele>885.4</ele>
        <time>2022-05-27T13:00:01Z</time>
      </trkpt>
      <trkpt lat="48.03219" lon="6.86634">
        <ele>884.4</ele>
        <time>2022-05-27T13:00:03Z</time>
      </trkpt>
      <trkpt lat="48.03229" lon="6.86622">
        <ele>883.8</ele>
        <time>2022-05-27T13:00:05Z</time>
      </trkpt>
      <trkpt lat="48.03241" lon="6.8661">
        <ele>882.8</ele>
        <time>2022-05-27T13:00:07Z</time>
      </trkpt>
      <trkpt lat="48.03253" lon="6.86597">
        <ele>882.1</ele>
        <time>2022-05-27T13:00:09Z</time>
      </trkpt>
      <trkpt lat="48.03264" lon="6.86585">
        <ele>880.9</ele>
        <time>2022-05-27T13:00:11Z</time>
      </trkpt>
      <trkpt lat="48.03275" lon="6.86571">
        <ele>879.7</ele>
        <time>2022-05-27T13:00:13Z</time>
      </trkpt>
      <trkpt lat="48.03286" lon="6.86556">
        <ele>878.9</ele>
        <time>2022-05-27T13:00:15Z</time>
      </trkpt>
      <trkpt lat="48.03297" lon="6.86541">
        <ele>877.3</ele>
        <time>2022-05-27T13:00:17Z</time>
      </trkpt>
      <trkpt lat="48.03306" lon="6.8653">
        <ele>876.8</ele>
        <time>2022-05-27T13:00:19Z</time>
      </trkpt>
      <trkpt lat="48.03314" lon="6.86522">
        <ele>876.4</ele>
        <time>2022-05-27T13:00:21Z</time>
      </trkpt>
      <trkpt lat="48.03323" lon="6.86515">
        <ele>876.1</ele>
        <time>2022-05-27T13:00:25Z</time>
      </trkpt>
      <trkpt lat="48.03332" lon="6.86517">
        <ele>876.4</ele>
        <time>2022-05-27T13:00:33Z</time>
      </trkpt>
      <trkpt lat="48.0334" lon="6.86508">
        <ele>877.8</ele>
        <time>2022-05-27T13:00:39Z</time>
      </trkpt>
      <trkpt lat="48.03347" lon="6.86499">
        <ele>877.5</ele>
        <time>2022-05-27T13:00:44Z</time>
      </trkpt>
      <trkpt lat="48.03356" lon="6.8649">
        <ele>878.8</ele>
        <time>2022-05-27T13:00:50Z</time>
      </trkpt>
      <trkpt lat="48.03362" lon="6.86481">
        <ele>879.3</ele>
        <time>2022-05-27T13:00:55Z</time>
      </trkpt>
      <trkpt lat="48.03369" lon="6.8647">
        <ele>879.5</ele>
        <time>2022-05-27T13:01:00Z</time>
      </trkpt>
      <trkpt lat="48.03376" lon="6.86457">
        <ele>880.7</ele>
        <time>2022-05-27T13:01:05Z</time>
      </trkpt>
      <trkpt lat="48.03384" lon="6.86447">
        <ele>881.9</ele>
        <time>2022-05-27T13:01:10Z</time>
      </trkpt>
      <trkpt lat="48.03394" lon="6.86444">
        <ele>881.2</ele>
        <time>2022-05-27T13:01:16Z</time>
      </trkpt>
      <trkpt lat="48.03404" lon="6.86441">
        <ele>882.4</ele>
        <time>2022-05-27T13:01:21Z</time>
      </trkpt>
      <trkpt lat="48.03414" lon="6.8644">
        <ele>883.5</ele>
        <time>2022-05-27T13:01:27Z</time>
      </trkpt>
      <trkpt lat="48.03423" lon="6.86439">
        <ele>884.3</ele>
        <time>2022-05-27T13:01:32Z</time>
      </trkpt>
      <trkpt lat="48.03433" lon="6.86436">
        <ele>885.4</ele>
        <time>2022-05-27T13:01:39Z</time>
      </trkpt>
      <trkpt lat="48.03443" lon="6.86434">
        <ele>886.2</ele>
        <time>2022-05-27T13:01:44Z</time>
      </trkpt>
      <trkpt lat="48.03452" lon="6.86432">
        <ele>887.4</ele>
        <time>2022-05-27T13:01:51Z</time>
      </trkpt>
      <trkpt lat="48.03461" lon="6.86428">
        <ele>888.7</ele>
        <time>2022-05-27T13:01:59Z</time>
      </trkpt>
      <trkpt lat="48.03469" lon="6.8642">
        <ele>889.5</ele>
        <time>2022-05-27T13:02:05Z</time>
      </trkpt>
      <trkpt lat="48.03479" lon="6.86415">
        <ele>890.3</ele>
        <time>2022-05-27T13:02:10Z</time>
      </trkpt>
      <trkpt lat="48.03489" lon="6.86412">
        <ele>891</ele>
        <time>2022-05-27T13:02:16Z</time>
      </trkpt>
      <trkpt lat="48.03498" lon="6.86407">
        <ele>891.3</ele>
        <time>2022-05-27T13:02:21Z</time>
      </trkpt>
      <trkpt lat="48.03507" lon="6.86401">
        <ele>889.4</ele>
        <time>2022-05-27T13:02:26Z</time>
      </trkpt>
      <trkpt lat="48.03517" lon="6.86398">
        <ele>892.1</ele>
        <time>2022-05-27T13:02:32Z</time>
      </trkpt>
      <trkpt lat="48.03526" lon="6.86397">
        <ele>892.8</ele>
        <time>2022-05-27T13:02:37Z</time>
      </trkpt>
      <trkpt lat="48.03536" lon="6.86395">
        <ele>893.3</ele>
        <time>2022-05-27T13:02:45Z</time>
      </trkpt>
      <trkpt lat="48.03547" lon="6.86398">
        <ele>894.3</ele>
        <time>2022-05-27T13:02:50Z</time>
      </trkpt>
      <trkpt lat="48.03558" lon="6.86395">
        <ele>895.4</ele>
        <time>2022-05-27T13:02:54Z</time>
      </trkpt>
      <trkpt lat="48.03568" lon="6.86393">
        <ele>896.5</ele>
        <time>2022-05-27T13:03:01Z</time>
      </trkpt>
      <trkpt lat="48.03577" lon="6.86391">
        <ele>896.8</ele>
        <time>2022-05-27T13:03:08Z</time>
      </trkpt>
      <trkpt lat="48.03587" lon="6.86388">
        <ele>898</ele>
        <time>2022-05-27T13:03:14Z</time>
      </trkpt>
      <trkpt lat="48.03597" lon="6.86387">
        <ele>898.8</ele>
        <time>2022-05-27T13:03:20Z</time>
      </trkpt>
      <trkpt lat="48.03607" lon="6.86388">
        <ele>900.2</ele>
        <time>2022-05-27T13:03:25Z</time>
      </trkpt>
      <trkpt lat="48.03616" lon="6.86385">
        <ele>899.9</ele>
        <time>2022-05-27T13:03:31Z</time>
      </trkpt>
      <trkpt lat="48.03626" lon="6.86386">
        <ele>901.8</ele>
        <time>2022-05-27T13:03:38Z</time>
      </trkpt>
      <trkpt lat="48.03635" lon="6.86387">
        <ele>902.6</ele>
        <time>2022-05-27T13:03:45Z</time>
      </trkpt>
      <trkpt lat="48.03645" lon="6.86385">
        <ele>902.9</ele>
        <time>2022-05-27T13:03:51Z</time>
      </trkpt>
      <trkpt lat="48.03655" lon="6.86387">
        <ele>904</ele>
        <time>2022-05-27T13:03:57Z</time>
      </trkpt>
      <trkpt lat="48.03663" lon="6.86394">
        <ele>905.3</ele>
        <time>2022-05-27T13:04:02Z</time>
      </trkpt>
      <trkpt lat="48.03669" lon="6.86404">
        <ele>905.6</ele>
        <time>2022-05-27T13:04:09Z</time>
      </trkpt>
      <trkpt lat="48.0367" lon="6.86404">
        <ele>905.4</ele>
        <time>2022-05-27T13:04:14Z</time>
      </trkpt>
      <trkpt lat="48.0367" lon="6.86404">
        <ele>905.4</ele>
        <time>2022-05-27T13:04:15Z</time>
      </trkpt>
      <trkpt lat="48.03671" lon="6.86404">
        <ele>905.4</ele>
        <time>2022-05-27T13:04:23Z</time>
      </trkpt>
      <trkpt lat="48.03671" lon="6.86404">
        <ele>905.7</ele>
        <time>2022-05-27T13:04:26Z</time>
      </trkpt>
      <trkpt lat="48.03671" lon="6.86404">
        <ele>905.5</ele>
        <time>2022-05-27T13:04:59Z</time>
      </trkpt>
      <trkpt lat="48.03671" lon="6.86404">
        <ele>905.9</ele>
        <time>2022-05-27T13:05:42Z</time>
      </trkpt>
      <trkpt lat="48.03672" lon="6.86404">
        <ele>905.9</ele>
        <time>2022-05-27T13:05:45Z</time>
      </trkpt>
      <trkpt lat="48.03673" lon="6.86406">
        <ele>905.8</ele>
        <time>2022-05-27T13:05:54Z</time>
      </trkpt>
      <trkpt lat="48.03673" lon="6.86407">
        <ele>905.8</ele>
        <time>2022-05-27T13:05:58Z</time>
      </trkpt>
      <trkpt lat="48.03673" lon="6.86407">
        <ele>905.9</ele>
        <time>2022-05-27T13:06:11Z</time>
      </trkpt>
      <trkpt lat="48.03679" lon="6.86418">
        <ele>907.3</ele>
        <time>2022-05-27T13:06:19Z</time>
      </trkpt>
      <trkpt lat="48.03684" lon="6.86431">
        <ele>908.1</ele>
        <time>2022-05-27T13:06:25Z</time>
      </trkpt>
      <trkpt lat="48.03691" lon="6.86441">
        <ele>909</ele>
        <time>2022-05-27T13:06:31Z</time>
      </trkpt>
      <trkpt lat="48.03699" lon="6.86449">
        <ele>910.4</ele>
        <time>2022-05-27T13:06:37Z</time>
      </trkpt>
      <trkpt lat="48.03708" lon="6.86458">
        <ele>911.4</ele>
        <time>2022-05-27T13:06:45Z</time>
      </trkpt>
      <trkpt lat="48.03717" lon="6.86468">
        <ele>912.7</ele>
        <time>2022-05-27T13:06:50Z</time>
      </trkpt>
      <trkpt lat="48.03725" lon="6.86477">
        <ele>913.6</ele>
        <time>2022-05-27T13:06:56Z</time>
      </trkpt>
      <trkpt lat="48.03733" lon="6.86486">
        <ele>914.9</ele>
        <time>2022-05-27T13:07:02Z</time>
      </trkpt>
      <trkpt lat="48.0374" lon="6.86497">
        <ele>915.9</ele>
        <time>2022-05-27T13:07:08Z</time>
      </trkpt>
      <trkpt lat="48.03748" lon="6.86507">
        <ele>916.3</ele>
        <time>2022-05-27T13:07:14Z</time>
      </trkpt>
      <trkpt lat="48.03754" lon="6.86517">
        <ele>917.8</ele>
        <time>2022-05-27T13:07:19Z</time>
      </trkpt>
      <trkpt lat="48.03758" lon="6.86531">
        <ele>918.2</ele>
        <time>2022-05-27T13:07:25Z</time>
      </trkpt>
      <trkpt lat="48.03756" lon="6.86546">
        <ele>919.5</ele>
        <time>2022-05-27T13:07:30Z</time>
      </trkpt>
      <trkpt lat="48.03757" lon="6.86561">
        <ele>921.3</ele>
        <time>2022-05-27T13:07:35Z</time>
      </trkpt>
      <trkpt lat="48.03759" lon="6.86576">
        <ele>921.3</ele>
        <time>2022-05-27T13:07:39Z</time>
      </trkpt>
      <trkpt lat="48.03764" lon="6.86588">
        <ele>921.5</ele>
        <time>2022-05-27T13:07:43Z</time>
      </trkpt>
      <trkpt lat="48.03771" lon="6.86596">
        <ele>922.2</ele>
        <time>2022-05-27T13:07:47Z</time>
      </trkpt>
      <trkpt lat="48.03778" lon="6.86605">
        <ele>923.1</ele>
        <time>2022-05-27T13:07:51Z</time>
      </trkpt>
      <trkpt lat="48.03787" lon="6.86614">
        <ele>923.8</ele>
        <time>2022-05-27T13:07:55Z</time>
      </trkpt>
      <trkpt lat="48.03794" lon="6.86624">
        <ele>924.1</ele>
        <time>2022-05-27T13:07:59Z</time>
      </trkpt>
      <trkpt lat="48.038" lon="6.86636">
        <ele>925.7</ele>
        <time>2022-05-27T13:08:03Z</time>
      </trkpt>
      <trkpt lat="48.03801" lon="6.86653">
        <ele>926.5</ele>
        <time>2022-05-27T13:08:08Z</time>
      </trkpt>
      <trkpt lat="48.03797" lon="6.86669">
        <ele>926.5</ele>
        <time>2022-05-27T13:08:12Z</time>
      </trkpt>
      <trkpt lat="48.03793" lon="6.86683">
        <ele>927.9</ele>
        <time>2022-05-27T13:08:17Z</time>
      </trkpt>
      <trkpt lat="48.0379" lon="6.86699">
        <ele>928</ele>
        <time>2022-05-27T13:08:22Z</time>
      </trkpt>
      <trkpt lat="48.03793" lon="6.86712">
        <ele>929</ele>
        <time>2022-05-27T13:08:26Z</time>
      </trkpt>
      <trkpt lat="48.03796" lon="6.86725">
        <ele>929.5</ele>
        <time>2022-05-27T13:08:30Z</time>
      </trkpt>
      <trkpt lat="48.03797" lon="6.86741">
        <ele>931.1</ele>
        <time>2022-05-27T13:08:35Z</time>
      </trkpt>
      <trkpt lat="48.03797" lon="6.86757">
        <ele>931.5</ele>
        <time>2022-05-27T13:08:40Z</time>
      </trkpt>
      <trkpt lat="48.03792" lon="6.86771">
        <ele>932.2</ele>
        <time>2022-05-27T13:08:45Z</time>
      </trkpt>
      <trkpt lat="48.03783" lon="6.8678">
        <ele>933.3</ele>
        <time>2022-05-27T13:08:50Z</time>
      </trkpt>
      <trkpt lat="48.03774" lon="6.86788">
        <ele>933.8</ele>
        <time>2022-05-27T13:08:55Z</time>
      </trkpt>
      <trkpt lat="48.03764" lon="6.86796">
        <ele>934.5</ele>
        <time>2022-05-27T13:09:00Z</time>
      </trkpt>
      <trkpt lat="48.03756" lon="6.86802">
        <ele>934.9</ele>
        <time>2022-05-27T13:09:04Z</time>
      </trkpt>
      <trkpt lat="48.03749" lon="6.86811">
        <ele>935.1</ele>
        <time>2022-05-27T13:09:08Z</time>
      </trkpt>
      <trkpt lat="48.03742" lon="6.8682">
        <ele>937.1</ele>
        <time>2022-05-27T13:09:13Z</time>
      </trkpt>
      <trkpt lat="48.03733" lon="6.86827">
        <ele>937.6</ele>
        <time>2022-05-27T13:09:19Z</time>
      </trkpt>
      <trkpt lat="48.03725" lon="6.86836">
        <ele>938.1</ele>
        <time>2022-05-27T13:09:25Z</time>
      </trkpt>
      <trkpt lat="48.03726" lon="6.86835">
        <ele>938.5</ele>
        <time>2022-05-27T13:09:27Z</time>
      </trkpt>
      <trkpt lat="48.03725" lon="6.86836">
        <ele>938.7</ele>
        <time>2022-05-27T13:09:28Z</time>
      </trkpt>
      <trkpt lat="48.03721" lon="6.86849">
        <ele>938.9</ele>
        <time>2022-05-27T13:09:34Z</time>
      </trkpt>
      <trkpt lat="48.03718" lon="6.86864">
        <ele>940.7</ele>
        <time>2022-05-27T13:09:40Z</time>
      </trkpt>
      <trkpt lat="48.03712" lon="6.86878">
        <ele>940.2</ele>
        <time>2022-05-27T13:09:46Z</time>
      </trkpt>
      <trkpt lat="48.03707" lon="6.8689">
        <ele>940.8</ele>
        <time>2022-05-27T13:09:52Z</time>
      </trkpt>
      <trkpt lat="48.03699" lon="6.86899">
        <ele>941.7</ele>
        <time>2022-05-27T13:09:58Z</time>
      </trkpt>
      <trkpt lat="48.0369" lon="6.86904">
        <ele>943</ele>
        <time>2022-05-27T13:10:04Z</time>
      </trkpt>
      <trkpt lat="48.0368" lon="6.86909">
        <ele>943.4</ele>
        <time>2022-05-27T13:10:11Z</time>
      </trkpt>
      <trkpt lat="48.03672" lon="6.86915">
        <ele>944.5</ele>
        <time>2022-05-27T13:10:17Z</time>
      </trkpt>
      <trkpt lat="48.03663" lon="6.86922">
        <ele>945</ele>
        <time>2022-05-27T13:10:23Z</time>
      </trkpt>
      <trkpt lat="48.03656" lon="6.8693">
        <ele>946</ele>
        <time>2022-05-27T13:10:28Z</time>
      </trkpt>
      <trkpt lat="48.03648" lon="6.8694">
        <ele>947.3</ele>
        <time>2022-05-27T13:10:35Z</time>
      </trkpt>
      <trkpt lat="48.03641" lon="6.86952">
        <ele>947.3</ele>
        <time>2022-05-27T13:10:41Z</time>
      </trkpt>
      <trkpt lat="48.03637" lon="6.86964">
        <ele>947.7</ele>
        <time>2022-05-27T13:10:46Z</time>
      </trkpt>
      <trkpt lat="48.03635" lon="6.86977">
        <ele>948.3</ele>
        <time>2022-05-27T13:10:52Z</time>
      </trkpt>
      <trkpt lat="48.03636" lon="6.86992">
        <ele>949.6</ele>
        <time>2022-05-27T13:11:00Z</time>
      </trkpt>
      <trkpt lat="48.03638" lon="6.87006">
        <ele>949.6</ele>
        <time>2022-05-27T13:11:06Z</time>
      </trkpt>
      <trkpt lat="48.03641" lon="6.87021">
        <ele>950.9</ele>
        <time>2022-05-27T13:11:12Z</time>
      </trkpt>
      <trkpt lat="48.0364" lon="6.87035">
        <ele>951.2</ele>
        <time>2022-05-27T13:11:17Z</time>
      </trkpt>
      <trkpt lat="48.03636" lon="6.87048">
        <ele>951.5</ele>
        <time>2022-05-27T13:11:24Z</time>
      </trkpt>
      <trkpt lat="48.03629" lon="6.87058">
        <ele>952.2</ele>
        <time>2022-05-27T13:11:31Z</time>
      </trkpt>
      <trkpt lat="48.03625" lon="6.87072">
        <ele>953.3</ele>
        <time>2022-05-27T13:11:37Z</time>
      </trkpt>
      <trkpt lat="48.03622" lon="6.87085">
        <ele>954.1</ele>
        <time>2022-05-27T13:11:43Z</time>
      </trkpt>
      <trkpt lat="48.03624" lon="6.871">
        <ele>954.3</ele>
        <time>2022-05-27T13:11:49Z</time>
      </trkpt>
      <trkpt lat="48.03627" lon="6.87114">
        <ele>955.4</ele>
        <time>2022-05-27T13:11:57Z</time>
      </trkpt>
      <trkpt lat="48.03629" lon="6.87129">
        <ele>956.2</ele>
        <time>2022-05-27T13:12:04Z</time>
      </trkpt>
      <trkpt lat="48.03628" lon="6.87143">
        <ele>958.1</ele>
        <time>2022-05-27T13:12:10Z</time>
      </trkpt>
      <trkpt lat="48.03631" lon="6.87157">
        <ele>957.8</ele>
        <time>2022-05-27T13:12:16Z</time>
      </trkpt>
      <trkpt lat="48.0363" lon="6.87171">
        <ele>959.1</ele>
        <time>2022-05-27T13:12:21Z</time>
      </trkpt>
      <trkpt lat="48.03634" lon="6.87186">
        <ele>959.4</ele>
        <time>2022-05-27T13:12:26Z</time>
      </trkpt>
      <trkpt lat="48.03638" lon="6.872">
        <ele>959.8</ele>
        <time>2022-05-27T13:12:32Z</time>
      </trkpt>
      <trkpt lat="48.03642" lon="6.87213">
        <ele>961.7</ele>
        <time>2022-05-27T13:12:39Z</time>
      </trkpt>
      <trkpt lat="48.03649" lon="6.87223">
        <ele>961.9</ele>
        <time>2022-05-27T13:12:44Z</time>
      </trkpt>
      <trkpt lat="48.03655" lon="6.87234">
        <ele>962.2</ele>
        <time>2022-05-27T13:12:49Z</time>
      </trkpt>
      <trkpt lat="48.03658" lon="6.87247">
        <ele>962.4</ele>
        <time>2022-05-27T13:12:55Z</time>
      </trkpt>
      <trkpt lat="48.03663" lon="6.87258">
        <ele>963.8</ele>
        <time>2022-05-27T13:13:01Z</time>
      </trkpt>
      <trkpt lat="48.03666" lon="6.87273">
        <ele>964.4</ele>
        <time>2022-05-27T13:13:08Z</time>
      </trkpt>
      <trkpt lat="48.03667" lon="6.87287">
        <ele>965.6</ele>
        <time>2022-05-27T13:13:14Z</time>
      </trkpt>
      <trkpt lat="48.03663" lon="6.87301">
        <ele>966.6</ele>
        <time>2022-05-27T13:13:20Z</time>
      </trkpt>
      <trkpt lat="48.0366" lon="6.87314">
        <ele>967.2</ele>
        <time>2022-05-27T13:13:26Z</time>
      </trkpt>
      <trkpt lat="48.03657" lon="6.87328">
        <ele>967.8</ele>
        <time>2022-05-27T13:13:31Z</time>
      </trkpt>
      <trkpt lat="48.03653" lon="6.87342">
        <ele>968.6</ele>
        <time>2022-05-27T13:13:37Z</time>
      </trkpt>
      <trkpt lat="48.03648" lon="6.87356">
        <ele>969.9</ele>
        <time>2022-05-27T13:13:43Z</time>
      </trkpt>
      <trkpt lat="48.03644" lon="6.87368">
        <ele>970.9</ele>
        <time>2022-05-27T13:13:49Z</time>
      </trkpt>
      <trkpt lat="48.03637" lon="6.87379">
        <ele>972</ele>
        <time>2022-05-27T13:13:56Z</time>
      </trkpt>
      <trkpt lat="48.03631" lon="6.8739">
        <ele>973.6</ele>
        <time>2022-05-27T13:14:03Z</time>
      </trkpt>
      <trkpt lat="48.03623" lon="6.87397">
        <ele>974.7</ele>
        <time>2022-05-27T13:14:10Z</time>
      </trkpt>
      <trkpt lat="48.03613" lon="6.87401">
        <ele>976.2</ele>
        <time>2022-05-27T13:14:17Z</time>
      </trkpt>
      <trkpt lat="48.03604" lon="6.87404">
        <ele>977.4</ele>
        <time>2022-05-27T13:14:24Z</time>
      </trkpt>
      <trkpt lat="48.03594" lon="6.87403">
        <ele>978.8</ele>
        <time>2022-05-27T13:14:32Z</time>
      </trkpt>
      <trkpt lat="48.03586" lon="6.874">
        <ele>979.8</ele>
        <time>2022-05-27T13:14:40Z</time>
      </trkpt>
      <trkpt lat="48.03575" lon="6.87399">
        <ele>980.5</ele>
        <time>2022-05-27T13:14:48Z</time>
      </trkpt>
      <trkpt lat="48.03566" lon="6.87398">
        <ele>982.3</ele>
        <time>2022-05-27T13:14:56Z</time>
      </trkpt>
      <trkpt lat="48.03557" lon="6.87399">
        <ele>983.3</ele>
        <time>2022-05-27T13:15:05Z</time>
      </trkpt>
      <trkpt lat="48.03547" lon="6.87404">
        <ele>984.7</ele>
        <time>2022-05-27T13:15:12Z</time>
      </trkpt>
      <trkpt lat="48.03537" lon="6.87406">
        <ele>986</ele>
        <time>2022-05-27T13:15:20Z</time>
      </trkpt>
      <trkpt lat="48.03526" lon="6.87409">
        <ele>988.8</ele>
        <time>2022-05-27T13:15:26Z</time>
      </trkpt>
      <trkpt lat="48.03517" lon="6.87412">
        <ele>990.5</ele>
        <time>2022-05-27T13:15:31Z</time>
      </trkpt>
      <trkpt lat="48.03522" lon="6.87402">
        <ele>990.2</ele>
        <time>2022-05-27T13:15:43Z</time>
      </trkpt>
      <trkpt lat="48.03521" lon="6.87401">
        <ele>990</ele>
        <time>2022-05-27T13:16:18Z</time>
      </trkpt>
      <trkpt lat="48.03521" lon="6.87401">
        <ele>989.5</ele>
        <time>2022-05-27T13:16:20Z</time>
      </trkpt>
      <trkpt lat="48.03521" lon="6.87402">
        <ele>990.1</ele>
        <time>2022-05-27T13:17:54Z</time>
      </trkpt>
      <trkpt lat="48.03521" lon="6.87402">
        <ele>990</ele>
        <time>2022-05-27T13:18:09Z</time>
      </trkpt>
      <trkpt lat="48.03521" lon="6.87403">
        <ele>989.6</ele>
        <time>2022-05-27T13:19:46Z</time>
      </trkpt>
      <trkpt lat="48.03521" lon="6.87403">
        <ele>990.6</ele>
        <time>2022-05-27T13:20:19Z</time>
      </trkpt>
      <trkpt lat="48.03521" lon="6.87403">
        <ele>990.7</ele>
        <time>2022-05-27T13:20:35Z</time>
      </trkpt>
      <trkpt lat="48.03522" lon="6.87399">
        <ele>989.7</ele>
        <time>2022-05-27T13:20:42Z</time>
      </trkpt>
      <trkpt lat="48.03522" lon="6.87398">
        <ele>989.7</ele>
        <time>2022-05-27T13:22:50Z</time>
      </trkpt>
      <trkpt lat="48.03522" lon="6.87398">
        <ele>990</ele>
        <time>2022-05-27T13:23:39Z</time>
      </trkpt>
      <trkpt lat="48.03516" lon="6.87408">
        <ele>990.7</ele>
        <time>2022-05-27T13:23:48Z</time>
      </trkpt>
      <trkpt lat="48.03515" lon="6.87409">
        <ele>991.2</ele>
        <time>2022-05-27T13:23:50Z</time>
      </trkpt>
      <trkpt lat="48.03514" lon="6.8741">
        <ele>991.4</ele>
        <time>2022-05-27T13:24:21Z</time>
      </trkpt>
      <trkpt lat="48.03513" lon="6.8741">
        <ele>991.2</ele>
        <time>2022-05-27T13:24:42Z</time>
      </trkpt>
      <trkpt lat="48.03509" lon="6.87423">
        <ele>991.5</ele>
        <time>2022-05-27T13:24:48Z</time>
      </trkpt>
      <trkpt lat="48.03504" lon="6.87436">
        <ele>991.8</ele>
        <time>2022-05-27T13:24:52Z</time>
      </trkpt>
      <trkpt lat="48.035" lon="6.87452">
        <ele>992.3</ele>
        <time>2022-05-27T13:24:56Z</time>
      </trkpt>
      <trkpt lat="48.03495" lon="6.87468">
        <ele>992.6</ele>
        <time>2022-05-27T13:25:00Z</time>
      </trkpt>
      <trkpt lat="48.03491" lon="6.87482">
        <ele>994.1</ele>
        <time>2022-05-27T13:25:03Z</time>
      </trkpt>
      <trkpt lat="48.03485" lon="6.87493">
        <ele>993.3</ele>
        <time>2022-05-27T13:25:06Z</time>
      </trkpt>
      <trkpt lat="48.03477" lon="6.87502">
        <ele>994</ele>
        <time>2022-05-27T13:25:09Z</time>
      </trkpt>
      <trkpt lat="48.03469" lon="6.87507">
        <ele>993.8</ele>
        <time>2022-05-27T13:25:12Z</time>
      </trkpt>
      <trkpt lat="48.03459" lon="6.87511">
        <ele>994.6</ele>
        <time>2022-05-27T13:25:15Z</time>
      </trkpt>
      <trkpt lat="48.03449" lon="6.87518">
        <ele>994.7</ele>
        <time>2022-05-27T13:25:19Z</time>
      </trkpt>
      <trkpt lat="48.03439" lon="6.87525">
        <ele>993.9</ele>
        <time>2022-05-27T13:25:23Z</time>
      </trkpt>
      <trkpt lat="48.0343" lon="6.87531">
        <ele>994.3</ele>
        <time>2022-05-27T13:25:26Z</time>
      </trkpt>
      <trkpt lat="48.03421" lon="6.87539">
        <ele>994.6</ele>
        <time>2022-05-27T13:25:30Z</time>
      </trkpt>
      <trkpt lat="48.03411" lon="6.87545">
        <ele>995.7</ele>
        <time>2022-05-27T13:25:34Z</time>
      </trkpt>
      <trkpt lat="48.03401" lon="6.87548">
        <ele>995.6</ele>
        <time>2022-05-27T13:25:37Z</time>
      </trkpt>
      <trkpt lat="48.03388" lon="6.8755">
        <ele>994.1</ele>
        <time>2022-05-27T13:25:40Z</time>
      </trkpt>
      <trkpt lat="48.03377" lon="6.87552">
        <ele>995.6</ele>
        <time>2022-05-27T13:25:43Z</time>
      </trkpt>
      <trkpt lat="48.03369" lon="6.87557">
        <ele>995.7</ele>
        <time>2022-05-27T13:25:46Z</time>
      </trkpt>
      <trkpt lat="48.03361" lon="6.87567">
        <ele>996.3</ele>
        <time>2022-05-27T13:25:49Z</time>
      </trkpt>
      <trkpt lat="48.03354" lon="6.8758">
        <ele>997.1</ele>
        <time>2022-05-27T13:25:52Z</time>
      </trkpt>
      <trkpt lat="48.03348" lon="6.8759">
        <ele>998.2</ele>
        <time>2022-05-27T13:25:55Z</time>
      </trkpt>
      <trkpt lat="48.03341" lon="6.87603">
        <ele>998.3</ele>
        <time>2022-05-27T13:25:59Z</time>
      </trkpt>
      <trkpt lat="48.03335" lon="6.87615">
        <ele>998.1</ele>
        <time>2022-05-27T13:26:02Z</time>
      </trkpt>
      <trkpt lat="48.03333" lon="6.87631">
        <ele>998.1</ele>
        <time>2022-05-27T13:26:05Z</time>
      </trkpt>
      <trkpt lat="48.03336" lon="6.87647">
        <ele>997.4</ele>
        <time>2022-05-27T13:26:08Z</time>
      </trkpt>
      <trkpt lat="48.03341" lon="6.87661">
        <ele>999.3</ele>
        <time>2022-05-27T13:26:11Z</time>
      </trkpt>
      <trkpt lat="48.03345" lon="6.87677">
        <ele>998.7</ele>
        <time>2022-05-27T13:26:15Z</time>
      </trkpt>
      <trkpt lat="48.03345" lon="6.87693">
        <ele>1000.2</ele>
        <time>2022-05-27T13:26:19Z</time>
      </trkpt>
      <trkpt lat="48.03341" lon="6.87707">
        <ele>999.6</ele>
        <time>2022-05-27T13:26:23Z</time>
      </trkpt>
      <trkpt lat="48.03338" lon="6.8772">
        <ele>1001.1</ele>
        <time>2022-05-27T13:26:27Z</time>
      </trkpt>
      <trkpt lat="48.03333" lon="6.87734">
        <ele>1002.5</ele>
        <time>2022-05-27T13:26:31Z</time>
      </trkpt>
      <trkpt lat="48.03327" lon="6.87749">
        <ele>1002</ele>
        <time>2022-05-27T13:26:35Z</time>
      </trkpt>
      <trkpt lat="48.03322" lon="6.87763">
        <ele>1004.3</ele>
        <time>2022-05-27T13:26:39Z</time>
      </trkpt>
      <trkpt lat="48.03318" lon="6.87778">
        <ele>1004.1</ele>
        <time>2022-05-27T13:26:43Z</time>
      </trkpt>
      <trkpt lat="48.03313" lon="6.87793">
        <ele>1004.6</ele>
        <time>2022-05-27T13:26:47Z</time>
      </trkpt>
      <trkpt lat="48.03306" lon="6.87806">
        <ele>1006.1</ele>
        <time>2022-05-27T13:26:51Z</time>
      </trkpt>
      <trkpt lat="48.03301" lon="6.87819">
        <ele>1006.6</ele>
        <time>2022-05-27T13:26:55Z</time>
      </trkpt>
      <trkpt lat="48.03297" lon="6.87834">
        <ele>1006.6</ele>
        <time>2022-05-27T13:26:59Z</time>
      </trkpt>
      <trkpt lat="48.0329" lon="6.87846">
        <ele>1007.6</ele>
        <time>2022-05-27T13:27:04Z</time>
      </trkpt>
      <trkpt lat="48.03282" lon="6.87854">
        <ele>1008.5</ele>
        <time>2022-05-27T13:27:08Z</time>
      </trkpt>
      <trkpt lat="48.03274" lon="6.87864">
        <ele>1007.6</ele>
        <time>2022-05-27T13:27:11Z</time>
      </trkpt>
      <trkpt lat="48.03268" lon="6.87879">
        <ele>1010.4</ele>
        <time>2022-05-27T13:27:15Z</time>
      </trkpt>
      <trkpt lat="48.03263" lon="6.87894">
        <ele>1009.2</ele>
        <time>2022-05-27T13:27:19Z</time>
      </trkpt>
      <trkpt lat="48.03256" lon="6.87907">
        <ele>1010.3</ele>
        <time>2022-05-27T13:27:23Z</time>
      </trkpt>
      <trkpt lat="48.0325" lon="6.87922">
        <ele>1012</ele>
        <time>2022-05-27T13:27:27Z</time>
      </trkpt>
      <trkpt lat="48.03245" lon="6.87937">
        <ele>1011.9</ele>
        <time>2022-05-27T13:27:31Z</time>
      </trkpt>
      <trkpt lat="48.03239" lon="6.87951">
        <ele>1012.7</ele>
        <time>2022-05-27T13:27:35Z</time>
      </trkpt>
      <trkpt lat="48.03234" lon="6.87964">
        <ele>1014.4</ele>
        <time>2022-05-27T13:27:39Z</time>
      </trkpt>
      <trkpt lat="48.03228" lon="6.87977">
        <ele>1013.5</ele>
        <time>2022-05-27T13:27:43Z</time>
      </trkpt>
      <trkpt lat="48.03224" lon="6.87991">
        <ele>1012.2</ele>
        <time>2022-05-27T13:27:46Z</time>
      </trkpt>
      <trkpt lat="48.03221" lon="6.88011">
        <ele>1013.7</ele>
        <time>2022-05-27T13:27:49Z</time>
      </trkpt>
      <trkpt lat="48.03221" lon="6.88027">
        <ele>1010.9</ele>
        <time>2022-05-27T13:27:51Z</time>
      </trkpt>
      <trkpt lat="48.03223" lon="6.88044">
        <ele>1011.4</ele>
        <time>2022-05-27T13:27:53Z</time>
      </trkpt>
      <trkpt lat="48.03227" lon="6.8806">
        <ele>1012</ele>
        <time>2022-05-27T13:27:55Z</time>
      </trkpt>
      <trkpt lat="48.03229" lon="6.88078">
        <ele>1014.3</ele>
        <time>2022-05-27T13:27:58Z</time>
      </trkpt>
      <trkpt lat="48.03228" lon="6.88097">
        <ele>1010</ele>
        <time>2022-05-27T13:28:01Z</time>
      </trkpt>
      <trkpt lat="48.03224" lon="6.88111">
        <ele>1006</ele>
        <time>2022-05-27T13:28:03Z</time>
      </trkpt>
      <trkpt lat="48.03219" lon="6.88124">
        <ele>1004.9</ele>
        <time>2022-05-27T13:28:05Z</time>
      </trkpt>
      <trkpt lat="48.03212" lon="6.88136">
        <ele>1006.5</ele>
        <time>2022-05-27T13:28:07Z</time>
      </trkpt>
      <trkpt lat="48.03205" lon="6.88146">
        <ele>1006.3</ele>
        <time>2022-05-27T13:28:09Z</time>
      </trkpt>
      <trkpt lat="48.03195" lon="6.88157">
        <ele>1005.6</ele>
        <time>2022-05-27T13:28:11Z</time>
      </trkpt>
      <trkpt lat="48.03185" lon="6.88169">
        <ele>1005.6</ele>
        <time>2022-05-27T13:28:13Z</time>
      </trkpt>
      <trkpt lat="48.03178" lon="6.88189">
        <ele>1004.5</ele>
        <time>2022-05-27T13:28:15Z</time>
      </trkpt>
      <trkpt lat="48.03175" lon="6.8821">
        <ele>1003.4</ele>
        <time>2022-05-27T13:28:17Z</time>
      </trkpt>
      <trkpt lat="48.03174" lon="6.88231">
        <ele>1005.5</ele>
        <time>2022-05-27T13:28:19Z</time>
      </trkpt>
      <trkpt lat="48.03172" lon="6.8825">
        <ele>1004</ele>
        <time>2022-05-27T13:28:21Z</time>
      </trkpt>
      <trkpt lat="48.03168" lon="6.88266">
        <ele>1003.3</ele>
        <time>2022-05-27T13:28:23Z</time>
      </trkpt>
      <trkpt lat="48.03166" lon="6.88282">
        <ele>1006.1</ele>
        <time>2022-05-27T13:28:25Z</time>
      </trkpt>
      <trkpt lat="48.03163" lon="6.88296">
        <ele>1006.1</ele>
        <time>2022-05-27T13:28:27Z</time>
      </trkpt>
      <trkpt lat="48.03163" lon="6.8831">
        <ele>1008.1</ele>
        <time>2022-05-27T13:28:29Z</time>
      </trkpt>
      <trkpt lat="48.03167" lon="6.88323">
        <ele>1008.2</ele>
        <time>2022-05-27T13:28:31Z</time>
      </trkpt>
      <trkpt lat="48.03173" lon="6.88341">
        <ele>1009.7</ele>
        <time>2022-05-27T13:28:34Z</time>
      </trkpt>
      <trkpt lat="48.03177" lon="6.88353">
        <ele>1010.3</ele>
        <time>2022-05-27T13:28:36Z</time>
      </trkpt>
      <trkpt lat="48.03184" lon="6.8837">
        <ele>1009</ele>
        <time>2022-05-27T13:28:39Z</time>
      </trkpt>
      <trkpt lat="48.03192" lon="6.88384">
        <ele>1011.4</ele>
        <time>2022-05-27T13:28:42Z</time>
      </trkpt>
      <trkpt lat="48.03201" lon="6.88393">
        <ele>1011.8</ele>
        <time>2022-05-27T13:28:45Z</time>
      </trkpt>
      <trkpt lat="48.03208" lon="6.88403">
        <ele>1011.6</ele>
        <time>2022-05-27T13:28:48Z</time>
      </trkpt>
      <trkpt lat="48.03214" lon="6.88416">
        <ele>1012</ele>
        <time>2022-05-27T13:28:51Z</time>
      </trkpt>
      <trkpt lat="48.03216" lon="6.88432">
        <ele>1012</ele>
        <time>2022-05-27T13:28:54Z</time>
      </trkpt>
      <trkpt lat="48.03215" lon="6.88449">
        <ele>1014</ele>
        <time>2022-05-27T13:28:57Z</time>
      </trkpt>
      <trkpt lat="48.03213" lon="6.88465">
        <ele>1011.3</ele>
        <time>2022-05-27T13:29:00Z</time>
      </trkpt>
      <trkpt lat="48.03209" lon="6.8848">
        <ele>1012.3</ele>
        <time>2022-05-27T13:29:03Z</time>
      </trkpt>
      <trkpt lat="48.03212" lon="6.88498">
        <ele>1012.1</ele>
        <time>2022-05-27T13:29:06Z</time>
      </trkpt>
      <trkpt lat="48.03219" lon="6.88514">
        <ele>1012</ele>
        <time>2022-05-27T13:29:09Z</time>
      </trkpt>
      <trkpt lat="48.03228" lon="6.88529">
        <ele>1013.4</ele>
        <time>2022-05-27T13:29:12Z</time>
      </trkpt>
      <trkpt lat="48.03236" lon="6.8854">
        <ele>1012.2</ele>
        <time>2022-05-27T13:29:15Z</time>
      </trkpt>
      <trkpt lat="48.03245" lon="6.88549">
        <ele>1014.6</ele>
        <time>2022-05-27T13:29:18Z</time>
      </trkpt>
      <trkpt lat="48.03258" lon="6.88556">
        <ele>1012.6</ele>
        <time>2022-05-27T13:29:21Z</time>
      </trkpt>
      <trkpt lat="48.03268" lon="6.88559">
        <ele>1013.8</ele>
        <time>2022-05-27T13:29:24Z</time>
      </trkpt>
      <trkpt lat="48.03279" lon="6.8856">
        <ele>1014.4</ele>
        <time>2022-05-27T13:29:28Z</time>
      </trkpt>
      <trkpt lat="48.03291" lon="6.88562">
        <ele>1016.1</ele>
        <time>2022-05-27T13:29:32Z</time>
      </trkpt>
      <trkpt lat="48.03301" lon="6.88567">
        <ele>1018.7</ele>
        <time>2022-05-27T13:29:35Z</time>
      </trkpt>
      <trkpt lat="48.03312" lon="6.88576">
        <ele>1017.8</ele>
        <time>2022-05-27T13:29:38Z</time>
      </trkpt>
      <trkpt lat="48.03319" lon="6.8859">
        <ele>1018</ele>
        <time>2022-05-27T13:29:41Z</time>
      </trkpt>
      <trkpt lat="48.03327" lon="6.88605">
        <ele>1019</ele>
        <time>2022-05-27T13:29:44Z</time>
      </trkpt>
      <trkpt lat="48.03336" lon="6.88617">
        <ele>1018.2</ele>
        <time>2022-05-27T13:29:47Z</time>
      </trkpt>
      <trkpt lat="48.03345" lon="6.88625">
        <ele>1020.4</ele>
        <time>2022-05-27T13:29:50Z</time>
      </trkpt>
      <trkpt lat="48.03353" lon="6.88635">
        <ele>1021.9</ele>
        <time>2022-05-27T13:29:53Z</time>
      </trkpt>
      <trkpt lat="48.0336" lon="6.88648">
        <ele>1020.8</ele>
        <time>2022-05-27T13:29:57Z</time>
      </trkpt>
      <trkpt lat="48.03366" lon="6.88663">
        <ele>1022</ele>
        <time>2022-05-27T13:30:01Z</time>
      </trkpt>
      <trkpt lat="48.03373" lon="6.88677">
        <ele>1021</ele>
        <time>2022-05-27T13:30:05Z</time>
      </trkpt>
      <trkpt lat="48.03377" lon="6.88689">
        <ele>1021.9</ele>
        <time>2022-05-27T13:30:08Z</time>
      </trkpt>
      <trkpt lat="48.03381" lon="6.88702">
        <ele>1023.2</ele>
        <time>2022-05-27T13:30:11Z</time>
      </trkpt>
      <trkpt lat="48.03384" lon="6.88719">
        <ele>1023.3</ele>
        <time>2022-05-27T13:30:15Z</time>
      </trkpt>
      <trkpt lat="48.03386" lon="6.88736">
        <ele>1024.3</ele>
        <time>2022-05-27T13:30:19Z</time>
      </trkpt>
      <trkpt lat="48.0339" lon="6.88748">
        <ele>1025.2</ele>
        <time>2022-05-27T13:30:22Z</time>
      </trkpt>
      <trkpt lat="48.03396" lon="6.88761">
        <ele>1025.9</ele>
        <time>2022-05-27T13:30:25Z</time>
      </trkpt>
      <trkpt lat="48.03405" lon="6.88772">
        <ele>1025.2</ele>
        <time>2022-05-27T13:30:28Z</time>
      </trkpt>
      <trkpt lat="48.03413" lon="6.88779">
        <ele>1025.3</ele>
        <time>2022-05-27T13:30:31Z</time>
      </trkpt>
      <trkpt lat="48.03422" lon="6.88783">
        <ele>1027.2</ele>
        <time>2022-05-27T13:30:34Z</time>
      </trkpt>
      <trkpt lat="48.03432" lon="6.88787">
        <ele>1025.9</ele>
        <time>2022-05-27T13:30:37Z</time>
      </trkpt>
      <trkpt lat="48.03442" lon="6.88792">
        <ele>1025.9</ele>
        <time>2022-05-27T13:30:40Z</time>
      </trkpt>
      <trkpt lat="48.03453" lon="6.88801">
        <ele>1028.1</ele>
        <time>2022-05-27T13:30:43Z</time>
      </trkpt>
      <trkpt lat="48.03465" lon="6.8881">
        <ele>1026.7</ele>
        <time>2022-05-27T13:30:46Z</time>
      </trkpt>
      <trkpt lat="48.03476" lon="6.88822">
        <ele>1027.2</ele>
        <time>2022-05-27T13:30:49Z</time>
      </trkpt>
      <trkpt lat="48.03487" lon="6.88832">
        <ele>1026.7</ele>
        <time>2022-05-27T13:30:52Z</time>
      </trkpt>
      <trkpt lat="48.03497" lon="6.88842">
        <ele>1026</ele>
        <time>2022-05-27T13:30:55Z</time>
      </trkpt>
      <trkpt lat="48.03507" lon="6.88852">
        <ele>1028.1</ele>
        <time>2022-05-27T13:30:58Z</time>
      </trkpt>
      <trkpt lat="48.03517" lon="6.88863">
        <ele>1027.5</ele>
        <time>2022-05-27T13:31:01Z</time>
      </trkpt>
      <trkpt lat="48.03528" lon="6.88872">
        <ele>1029.4</ele>
        <time>2022-05-27T13:31:04Z</time>
      </trkpt>
      <trkpt lat="48.0354" lon="6.88883">
        <ele>1029.1</ele>
        <time>2022-05-27T13:31:07Z</time>
      </trkpt>
      <trkpt lat="48.03546" lon="6.88892">
        <ele>1030.6</ele>
        <time>2022-05-27T13:31:09Z</time>
      </trkpt>
      <trkpt lat="48.03554" lon="6.88908">
        <ele>1030.4</ele>
        <time>2022-05-27T13:31:12Z</time>
      </trkpt>
      <trkpt lat="48.03557" lon="6.88926">
        <ele>1029.6</ele>
        <time>2022-05-27T13:31:15Z</time>
      </trkpt>
      <trkpt lat="48.03557" lon="6.88946">
        <ele>1029.5</ele>
        <time>2022-05-27T13:31:18Z</time>
      </trkpt>
      <trkpt lat="48.03552" lon="6.88962">
        <ele>1028.7</ele>
        <time>2022-05-27T13:31:21Z</time>
      </trkpt>
      <trkpt lat="48.03546" lon="6.88977">
        <ele>1031</ele>
        <time>2022-05-27T13:31:24Z</time>
      </trkpt>
      <trkpt lat="48.03538" lon="6.88992">
        <ele>1030.9</ele>
        <time>2022-05-27T13:31:27Z</time>
      </trkpt>
      <trkpt lat="48.03533" lon="6.89004">
        <ele>1030.4</ele>
        <time>2022-05-27T13:31:29Z</time>
      </trkpt>
      <trkpt lat="48.03526" lon="6.89016">
        <ele>1030.3</ele>
        <time>2022-05-27T13:31:31Z</time>
      </trkpt>
      <trkpt lat="48.03519" lon="6.89026">
        <ele>1031.2</ele>
        <time>2022-05-27T13:31:33Z</time>
      </trkpt>
      <trkpt lat="48.0351" lon="6.89039">
        <ele>1030.4</ele>
        <time>2022-05-27T13:31:36Z</time>
      </trkpt>
      <trkpt lat="48.03505" lon="6.89053">
        <ele>1030.1</ele>
        <time>2022-05-27T13:31:38Z</time>
      </trkpt>
      <trkpt lat="48.03503" lon="6.89069">
        <ele>1030.9</ele>
        <time>2022-05-27T13:31:40Z</time>
      </trkpt>
      <trkpt lat="48.035" lon="6.89084">
        <ele>1031.3</ele>
        <time>2022-05-27T13:31:42Z</time>
      </trkpt>
      <trkpt lat="48.03496" lon="6.89098">
        <ele>1032.9</ele>
        <time>2022-05-27T13:31:44Z</time>
      </trkpt>
      <trkpt lat="48.03495" lon="6.89113">
        <ele>1030.4</ele>
        <time>2022-05-27T13:31:46Z</time>
      </trkpt>
      <trkpt lat="48.03501" lon="6.8913">
        <ele>1034.3</ele>
        <time>2022-05-27T13:31:49Z</time>
      </trkpt>
      <trkpt lat="48.03511" lon="6.89143">
        <ele>1033.2</ele>
        <time>2022-05-27T13:31:52Z</time>
      </trkpt>
      <trkpt lat="48.0352" lon="6.89158">
        <ele>1035.7</ele>
        <time>2022-05-27T13:31:55Z</time>
      </trkpt>
      <trkpt lat="48.03524" lon="6.89172">
        <ele>1031.3</ele>
        <time>2022-05-27T13:31:57Z</time>
      </trkpt>
      <trkpt lat="48.03524" lon="6.89187">
        <ele>1031.8</ele>
        <time>2022-05-27T13:31:59Z</time>
      </trkpt>
      <trkpt lat="48.03524" lon="6.89201">
        <ele>1032</ele>
        <time>2022-05-27T13:32:01Z</time>
      </trkpt>
      <trkpt lat="48.03525" lon="6.89216">
        <ele>1031.9</ele>
        <time>2022-05-27T13:32:03Z</time>
      </trkpt>
      <trkpt lat="48.03522" lon="6.89232">
        <ele>1032.6</ele>
        <time>2022-05-27T13:32:05Z</time>
      </trkpt>
      <trkpt lat="48.03519" lon="6.89247">
        <ele>1031.5</ele>
        <time>2022-05-27T13:32:07Z</time>
      </trkpt>
      <trkpt lat="48.03519" lon="6.89263">
        <ele>1031.8</ele>
        <time>2022-05-27T13:32:09Z</time>
      </trkpt>
      <trkpt lat="48.0352" lon="6.89277">
        <ele>1033</ele>
        <time>2022-05-27T13:32:11Z</time>
      </trkpt>
      <trkpt lat="48.03519" lon="6.89291">
        <ele>1032.6</ele>
        <time>2022-05-27T13:32:13Z</time>
      </trkpt>
      <trkpt lat="48.03518" lon="6.89309">
        <ele>1034.4</ele>
        <time>2022-05-27T13:32:16Z</time>
      </trkpt>
      <trkpt lat="48.03525" lon="6.89319">
        <ele>1033.4</ele>
        <time>2022-05-27T13:32:19Z</time>
      </trkpt>
      <trkpt lat="48.03536" lon="6.89317">
        <ele>1032.2</ele>
        <time>2022-05-27T13:32:22Z</time>
      </trkpt>
      <trkpt lat="48.03546" lon="6.89314">
        <ele>1033.2</ele>
        <time>2022-05-27T13:32:24Z</time>
      </trkpt>
      <trkpt lat="48.03556" lon="6.89312">
        <ele>1035.5</ele>
        <time>2022-05-27T13:32:26Z</time>
      </trkpt>
      <trkpt lat="48.03565" lon="6.89311">
        <ele>1034.6</ele>
        <time>2022-05-27T13:32:28Z</time>
      </trkpt>
      <trkpt lat="48.03575" lon="6.89308">
        <ele>1032.7</ele>
        <time>2022-05-27T13:32:30Z</time>
      </trkpt>
      <trkpt lat="48.03583" lon="6.89303">
        <ele>1033</ele>
        <time>2022-05-27T13:32:32Z</time>
      </trkpt>
      <trkpt lat="48.03592" lon="6.89298">
        <ele>1034</ele>
        <time>2022-05-27T13:32:34Z</time>
      </trkpt>
      <trkpt lat="48.03602" lon="6.89294">
        <ele>1032.7</ele>
        <time>2022-05-27T13:32:36Z</time>
      </trkpt>
      <trkpt lat="48.03612" lon="6.8929">
        <ele>1034.3</ele>
        <time>2022-05-27T13:32:38Z</time>
      </trkpt>
      <trkpt lat="48.03622" lon="6.89286">
        <ele>1035.3</ele>
        <time>2022-05-27T13:32:40Z</time>
      </trkpt>
      <trkpt lat="48.03633" lon="6.89283">
        <ele>1033.2</ele>
        <time>2022-05-27T13:32:42Z</time>
      </trkpt>
      <trkpt lat="48.03647" lon="6.89283">
        <ele>1035.8</ele>
        <time>2022-05-27T13:32:44Z</time>
      </trkpt>
      <trkpt lat="48.03659" lon="6.89285">
        <ele>1035.3</ele>
        <time>2022-05-27T13:32:46Z</time>
      </trkpt>
      <trkpt lat="48.03672" lon="6.89292">
        <ele>1031.6</ele>
        <time>2022-05-27T13:32:48Z</time>
      </trkpt>
      <trkpt lat="48.03684" lon="6.89297">
        <ele>1031.6</ele>
        <time>2022-05-27T13:32:50Z</time>
      </trkpt>
      <trkpt lat="48.03695" lon="6.893">
        <ele>1032.3</ele>
        <time>2022-05-27T13:32:52Z</time>
      </trkpt>
      <trkpt lat="48.03707" lon="6.89302">
        <ele>1033.5</ele>
        <time>2022-05-27T13:32:54Z</time>
      </trkpt>
      <trkpt lat="48.03719" lon="6.89308">
        <ele>1033.6</ele>
        <time>2022-05-27T13:32:56Z</time>
      </trkpt>
      <trkpt lat="48.03731" lon="6.89317">
        <ele>1034.2</ele>
        <time>2022-05-27T13:32:58Z</time>
      </trkpt>
      <trkpt lat="48.03743" lon="6.89326">
        <ele>1038.3</ele>
        <time>2022-05-27T13:33:00Z</time>
      </trkpt>
      <trkpt lat="48.03755" lon="6.89334">
        <ele>1032.4</ele>
        <time>2022-05-27T13:33:02Z</time>
      </trkpt>
      <trkpt lat="48.03767" lon="6.89341">
        <ele>1031.3</ele>
        <time>2022-05-27T13:33:04Z</time>
      </trkpt>
      <trkpt lat="48.03781" lon="6.89347">
        <ele>1030.7</ele>
        <time>2022-05-27T13:33:06Z</time>
      </trkpt>
      <trkpt lat="48.03794" lon="6.89351">
        <ele>1030.3</ele>
        <time>2022-05-27T13:33:08Z</time>
      </trkpt>
      <trkpt lat="48.03806" lon="6.89355">
        <ele>1032.5</ele>
        <time>2022-05-27T13:33:10Z</time>
      </trkpt>
      <trkpt lat="48.03818" lon="6.89358">
        <ele>1032.3</ele>
        <time>2022-05-27T13:33:12Z</time>
      </trkpt>
      <trkpt lat="48.03829" lon="6.89367">
        <ele>1032.8</ele>
        <time>2022-05-27T13:33:14Z</time>
      </trkpt>
      <trkpt lat="48.03836" lon="6.8938">
        <ele>1034.7</ele>
        <time>2022-05-27T13:33:16Z</time>
      </trkpt>
      <trkpt lat="48.03836" lon="6.89397">
        <ele>1036</ele>
        <time>2022-05-27T13:33:18Z</time>
      </trkpt>
      <trkpt lat="48.0383" lon="6.89411">
        <ele>1035.2</ele>
        <time>2022-05-27T13:33:20Z</time>
      </trkpt>
      <trkpt lat="48.03822" lon="6.89424">
        <ele>1036</ele>
        <time>2022-05-27T13:33:22Z</time>
      </trkpt>
      <trkpt lat="48.03816" lon="6.89438">
        <ele>1036.2</ele>
        <time>2022-05-27T13:33:24Z</time>
      </trkpt>
      <trkpt lat="48.0381" lon="6.89452">
        <ele>1036.9</ele>
        <time>2022-05-27T13:33:26Z</time>
      </trkpt>
      <trkpt lat="48.03806" lon="6.89468">
        <ele>1037.2</ele>
        <time>2022-05-27T13:33:28Z</time>
      </trkpt>
      <trkpt lat="48.03801" lon="6.89484">
        <ele>1036.7</ele>
        <time>2022-05-27T13:33:30Z</time>
      </trkpt>
      <trkpt lat="48.03793" lon="6.89496">
        <ele>1036.8</ele>
        <time>2022-05-27T13:33:32Z</time>
      </trkpt>
      <trkpt lat="48.03785" lon="6.89506">
        <ele>1036.2</ele>
        <time>2022-05-27T13:33:34Z</time>
      </trkpt>
      <trkpt lat="48.03777" lon="6.89516">
        <ele>1036.6</ele>
        <time>2022-05-27T13:33:36Z</time>
      </trkpt>
      <trkpt lat="48.0377" lon="6.89527">
        <ele>1037.1</ele>
        <time>2022-05-27T13:33:38Z</time>
      </trkpt>
      <trkpt lat="48.03764" lon="6.89538">
        <ele>1039.7</ele>
        <time>2022-05-27T13:33:40Z</time>
      </trkpt>
      <trkpt lat="48.03759" lon="6.8955">
        <ele>1040.7</ele>
        <time>2022-05-27T13:33:42Z</time>
      </trkpt>
      <trkpt lat="48.03751" lon="6.89567">
        <ele>1038.6</ele>
        <time>2022-05-27T13:33:45Z</time>
      </trkpt>
      <trkpt lat="48.03746" lon="6.89579">
        <ele>1039.3</ele>
        <time>2022-05-27T13:33:47Z</time>
      </trkpt>
      <trkpt lat="48.03741" lon="6.89591">
        <ele>1040</ele>
        <time>2022-05-27T13:33:49Z</time>
      </trkpt>
      <trkpt lat="48.03735" lon="6.89602">
        <ele>1040.8</ele>
        <time>2022-05-27T13:33:51Z</time>
      </trkpt>
      <trkpt lat="48.0373" lon="6.89617">
        <ele>1038.6</ele>
        <time>2022-05-27T13:33:54Z</time>
      </trkpt>
      <trkpt lat="48.03725" lon="6.8963">
        <ele>1039.7</ele>
        <time>2022-05-27T13:33:57Z</time>
      </trkpt>
      <trkpt lat="48.0372" lon="6.89643">
        <ele>1038.5</ele>
        <time>2022-05-27T13:34:00Z</time>
      </trkpt>
      <trkpt lat="48.03716" lon="6.89655">
        <ele>1039.8</ele>
        <time>2022-05-27T13:34:03Z</time>
      </trkpt>
      <trkpt lat="48.03709" lon="6.89668">
        <ele>1040.7</ele>
        <time>2022-05-27T13:34:07Z</time>
      </trkpt>
      <trkpt lat="48.03702" lon="6.89679">
        <ele>1040.8</ele>
        <time>2022-05-27T13:34:11Z</time>
      </trkpt>
      <trkpt lat="48.03694" lon="6.89689">
        <ele>1041.5</ele>
        <time>2022-05-27T13:34:16Z</time>
      </trkpt>
      <trkpt lat="48.03692" lon="6.89704">
        <ele>1041.2</ele>
        <time>2022-05-27T13:34:22Z</time>
      </trkpt>
      <trkpt lat="48.03699" lon="6.89715">
        <ele>1041.7</ele>
        <time>2022-05-27T13:34:26Z</time>
      </trkpt>
      <trkpt lat="48.03703" lon="6.89716">
        <ele>1040.9</ele>
        <time>2022-05-27T13:34:31Z</time>
      </trkpt>
      <trkpt lat="48.03703" lon="6.89716">
        <ele>1041.8</ele>
        <time>2022-05-27T13:34:55Z</time>
      </trkpt>
      <trkpt lat="48.03702" lon="6.89715">
        <ele>1040.7</ele>
        <time>2022-05-27T13:34:58Z</time>
      </trkpt>
      <trkpt lat="48.03701" lon="6.89714">
        <ele>1041.7</ele>
        <time>2022-05-27T13:35:26Z</time>
      </trkpt>
      <trkpt lat="48.037" lon="6.89705">
        <ele>1041.3</ele>
        <time>2022-05-27T13:35:34Z</time>
      </trkpt>
      <trkpt lat="48.037" lon="6.89705">
        <ele>1041.9</ele>
        <time>2022-05-27T13:35:40Z</time>
      </trkpt>
      <trkpt lat="48.037" lon="6.89705">
        <ele>1041.6</ele>
        <time>2022-05-27T13:36:55Z</time>
      </trkpt>
      <trkpt lat="48.03701" lon="6.89713">
        <ele>1041.3</ele>
        <time>2022-05-27T13:37:06Z</time>
      </trkpt>
      <trkpt lat="48.03701" lon="6.89713">
        <ele>1041.7</ele>
        <time>2022-05-27T13:37:15Z</time>
      </trkpt>
      <trkpt lat="48.03696" lon="6.89714">
        <ele>1041.5</ele>
        <time>2022-05-27T13:37:26Z</time>
      </trkpt>
      <trkpt lat="48.03696" lon="6.89714">
        <ele>1041.3</ele>
        <time>2022-05-27T13:37:39Z</time>
      </trkpt>
      <trkpt lat="48.03697" lon="6.8971">
        <ele>1040.9</ele>
        <time>2022-05-27T13:37:45Z</time>
      </trkpt>
      <trkpt lat="48.03697" lon="6.89709">
        <ele>1041</ele>
        <time>2022-05-27T13:37:46Z</time>
      </trkpt>
      <trkpt lat="48.03698" lon="6.89709">
        <ele>1041.1</ele>
        <time>2022-05-27T13:37:52Z</time>
      </trkpt>
      <trkpt lat="48.03697" lon="6.89709">
        <ele>1041.1</ele>
        <time>2022-05-27T13:37:53Z</time>
      </trkpt>
      <trkpt lat="48.03696" lon="6.89709">
        <ele>1041.3</ele>
        <time>2022-05-27T13:37:56Z</time>
      </trkpt>
      <trkpt lat="48.03697" lon="6.89708">
        <ele>1041.2</ele>
        <time>2022-05-27T13:38:01Z</time>
      </trkpt>
      <trkpt lat="48.03697" lon="6.89706">
        <ele>1041</ele>
        <time>2022-05-27T13:38:03Z</time>
      </trkpt>
      <trkpt lat="48.03692" lon="6.89703">
        <ele>1040.9</ele>
        <time>2022-05-27T13:38:35Z</time>
      </trkpt>
      <trkpt lat="48.03692" lon="6.89704">
        <ele>1041</ele>
        <time>2022-05-27T13:38:36Z</time>
      </trkpt>
      <trkpt lat="48.03691" lon="6.89705">
        <ele>1041.1</ele>
        <time>2022-05-27T13:38:41Z</time>
      </trkpt>
      <trkpt lat="48.03692" lon="6.89706">
        <ele>1041</ele>
        <time>2022-05-27T13:38:44Z</time>
      </trkpt>
      <trkpt lat="48.03694" lon="6.89701">
        <ele>1041.1</ele>
        <time>2022-05-27T13:39:00Z</time>
      </trkpt>
      <trkpt lat="48.03695" lon="6.89699">
        <ele>1041.2</ele>
        <time>2022-05-27T13:39:07Z</time>
      </trkpt>
      <trkpt lat="48.03695" lon="6.89699">
        <ele>1041.2</ele>
        <time>2022-05-27T13:39:09Z</time>
      </trkpt>
      <trkpt lat="48.03694" lon="6.89697">
        <ele>1041</ele>
        <time>2022-05-27T13:39:11Z</time>
      </trkpt>
      <trkpt lat="48.03695" lon="6.89698">
        <ele>1041</ele>
        <time>2022-05-27T13:39:13Z</time>
      </trkpt>
      <trkpt lat="48.03695" lon="6.89699">
        <ele>1040.8</ele>
        <time>2022-05-27T13:39:28Z</time>
      </trkpt>
      <trkpt lat="48.03695" lon="6.89699">
        <ele>1040.9</ele>
        <time>2022-05-27T13:39:30Z</time>
      </trkpt>
      <trkpt lat="48.03695" lon="6.897">
        <ele>1040.7</ele>
        <time>2022-05-27T13:39:33Z</time>
      </trkpt>
      <trkpt lat="48.03695" lon="6.897">
        <ele>1040.4</ele>
        <time>2022-05-27T13:39:44Z</time>
      </trkpt>
      <trkpt lat="48.03695" lon="6.897">
        <ele>1040.3</ele>
        <time>2022-05-27T13:40:38Z</time>
      </trkpt>
      <trkpt lat="48.03695" lon="6.89701">
        <ele>1040.7</ele>
        <time>2022-05-27T13:40:44Z</time>
      </trkpt>
      <trkpt lat="48.03696" lon="6.89703">
        <ele>1040.6</ele>
        <time>2022-05-27T13:41:17Z</time>
      </trkpt>
      <trkpt lat="48.03696" lon="6.89704">
        <ele>1040.8</ele>
        <time>2022-05-27T13:41:30Z</time>
      </trkpt>
      <trkpt lat="48.03696" lon="6.89704">
        <ele>1040.9</ele>
        <time>2022-05-27T13:41:39Z</time>
      </trkpt>
      <trkpt lat="48.03697" lon="6.89704">
        <ele>1040.8</ele>
        <time>2022-05-27T13:41:43Z</time>
      </trkpt>
      <trkpt lat="48.03697" lon="6.89704">
        <ele>1040.9</ele>
        <time>2022-05-27T13:41:46Z</time>
      </trkpt>
      <trkpt lat="48.03697" lon="6.89704">
        <ele>1040.5</ele>
        <time>2022-05-27T13:44:44Z</time>
      </trkpt>
      <trkpt lat="48.03697" lon="6.89704">
        <ele>1040.8</ele>
        <time>2022-05-27T13:44:46Z</time>
      </trkpt>
      <trkpt lat="48.03698" lon="6.89705">
        <ele>1040.7</ele>
        <time>2022-05-27T13:44:49Z</time>
      </trkpt>
      <trkpt lat="48.03701" lon="6.89704">
        <ele>1040.5</ele>
        <time>2022-05-27T13:45:03Z</time>
      </trkpt>
      <trkpt lat="48.037" lon="6.89704">
        <ele>1040.3</ele>
        <time>2022-05-27T13:45:29Z</time>
      </trkpt>
      <trkpt lat="48.037" lon="6.89703">
        <ele>1040.7</ele>
        <time>2022-05-27T13:46:45Z</time>
      </trkpt>
      <trkpt lat="48.037" lon="6.897">
        <ele>1040.9</ele>
        <time>2022-05-27T13:46:50Z</time>
      </trkpt>
      <trkpt lat="48.03701" lon="6.897">
        <ele>1041.1</ele>
        <time>2022-05-27T13:46:53Z</time>
      </trkpt>
      <trkpt lat="48.037" lon="6.897">
        <ele>1041.1</ele>
        <time>2022-05-27T13:46:55Z</time>
      </trkpt>
      <trkpt lat="48.03701" lon="6.897">
        <ele>1041.4</ele>
        <time>2022-05-27T13:47:04Z</time>
      </trkpt>
      <trkpt lat="48.037" lon="6.897">
        <ele>1041.4</ele>
        <time>2022-05-27T13:47:09Z</time>
      </trkpt>
      <trkpt lat="48.03701" lon="6.897">
        <ele>1041.1</ele>
        <time>2022-05-27T13:47:12Z</time>
      </trkpt>
      <trkpt lat="48.03703" lon="6.89707">
        <ele>1041</ele>
        <time>2022-05-27T13:47:33Z</time>
      </trkpt>
      <trkpt lat="48.03703" lon="6.89707">
        <ele>1040.9</ele>
        <time>2022-05-27T13:48:21Z</time>
      </trkpt>
      <trkpt lat="48.03697" lon="6.8972">
        <ele>1040.7</ele>
        <time>2022-05-27T13:48:29Z</time>
      </trkpt>
      <trkpt lat="48.03688" lon="6.89727">
        <ele>1040.3</ele>
        <time>2022-05-27T13:48:33Z</time>
      </trkpt>
      <trkpt lat="48.0368" lon="6.89732">
        <ele>1041</ele>
        <time>2022-05-27T13:48:36Z</time>
      </trkpt>
      <trkpt lat="48.0367" lon="6.89738">
        <ele>1039.8</ele>
        <time>2022-05-27T13:48:39Z</time>
      </trkpt>
      <trkpt lat="48.03662" lon="6.89746">
        <ele>1040.2</ele>
        <time>2022-05-27T13:48:42Z</time>
      </trkpt>
      <trkpt lat="48.03653" lon="6.89754">
        <ele>1040.3</ele>
        <time>2022-05-27T13:48:45Z</time>
      </trkpt>
      <trkpt lat="48.03647" lon="6.89767">
        <ele>1040.6</ele>
        <time>2022-05-27T13:48:48Z</time>
      </trkpt>
      <trkpt lat="48.03639" lon="6.89777">
        <ele>1040.7</ele>
        <time>2022-05-27T13:48:51Z</time>
      </trkpt>
      <trkpt lat="48.03629" lon="6.89784">
        <ele>1043</ele>
        <time>2022-05-27T13:48:55Z</time>
      </trkpt>
      <trkpt lat="48.0362" lon="6.89788">
        <ele>1042.5</ele>
        <time>2022-05-27T13:48:59Z</time>
      </trkpt>
      <trkpt lat="48.03611" lon="6.89793">
        <ele>1044.1</ele>
        <time>2022-05-27T13:49:03Z</time>
      </trkpt>
      <trkpt lat="48.03601" lon="6.89796">
        <ele>1045</ele>
        <time>2022-05-27T13:49:07Z</time>
      </trkpt>
      <trkpt lat="48.03591" lon="6.89802">
        <ele>1045.3</ele>
        <time>2022-05-27T13:49:12Z</time>
      </trkpt>
      <trkpt lat="48.03584" lon="6.8981">
        <ele>1045.4</ele>
        <time>2022-05-27T13:49:16Z</time>
      </trkpt>
      <trkpt lat="48.03576" lon="6.89822">
        <ele>1046.2</ele>
        <time>2022-05-27T13:49:20Z</time>
      </trkpt>
      <trkpt lat="48.03569" lon="6.89832">
        <ele>1046.7</ele>
        <time>2022-05-27T13:49:24Z</time>
      </trkpt>
      <trkpt lat="48.03563" lon="6.89847">
        <ele>1046.1</ele>
        <time>2022-05-27T13:49:28Z</time>
      </trkpt>
      <trkpt lat="48.03559" lon="6.89864">
        <ele>1046.9</ele>
        <time>2022-05-27T13:49:32Z</time>
      </trkpt>
      <trkpt lat="48.03557" lon="6.8988">
        <ele>1047</ele>
        <time>2022-05-27T13:49:35Z</time>
      </trkpt>
      <trkpt lat="48.03555" lon="6.89897">
        <ele>1046.3</ele>
        <time>2022-05-27T13:49:38Z</time>
      </trkpt>
      <trkpt lat="48.03552" lon="6.89916">
        <ele>1046.5</ele>
        <time>2022-05-27T13:49:41Z</time>
      </trkpt>
      <trkpt lat="48.0355" lon="6.89932">
        <ele>1047.2</ele>
        <time>2022-05-27T13:49:44Z</time>
      </trkpt>
      <trkpt lat="48.03548" lon="6.89947">
        <ele>1048.5</ele>
        <time>2022-05-27T13:49:48Z</time>
      </trkpt>
      <trkpt lat="48.0354" lon="6.89955">
        <ele>1050.6</ele>
        <time>2022-05-27T13:49:54Z</time>
      </trkpt>
      <trkpt lat="48.03534" lon="6.89943">
        <ele>1051.2</ele>
        <time>2022-05-27T13:49:59Z</time>
      </trkpt>
      <trkpt lat="48.03529" lon="6.8993">
        <ele>1052.2</ele>
        <time>2022-05-27T13:50:03Z</time>
      </trkpt>
      <trkpt lat="48.03523" lon="6.89917">
        <ele>1052.9</ele>
        <time>2022-05-27T13:50:08Z</time>
      </trkpt>
      <trkpt lat="48.03519" lon="6.89903">
        <ele>1054.5</ele>
        <time>2022-05-27T13:50:13Z</time>
      </trkpt>
      <trkpt lat="48.03517" lon="6.8989">
        <ele>1055.5</ele>
        <time>2022-05-27T13:50:18Z</time>
      </trkpt>
      <trkpt lat="48.03513" lon="6.89877">
        <ele>1056.3</ele>
        <time>2022-05-27T13:50:23Z</time>
      </trkpt>
      <trkpt lat="48.03505" lon="6.89866">
        <ele>1057.2</ele>
        <time>2022-05-27T13:50:28Z</time>
      </trkpt>
      <trkpt lat="48.03496" lon="6.89872">
        <ele>1058.6</ele>
        <time>2022-05-27T13:50:34Z</time>
      </trkpt>
      <trkpt lat="48.03495" lon="6.89885">
        <ele>1059</ele>
        <time>2022-05-27T13:50:39Z</time>
      </trkpt>
      <trkpt lat="48.03491" lon="6.89899">
        <ele>1059.9</ele>
        <time>2022-05-27T13:50:44Z</time>
      </trkpt>
      <trkpt lat="48.03487" lon="6.89913">
        <ele>1060.6</ele>
        <time>2022-05-27T13:50:50Z</time>
      </trkpt>
      <trkpt lat="48.03483" lon="6.89927">
        <ele>1061.5</ele>
        <time>2022-05-27T13:50:55Z</time>
      </trkpt>
      <trkpt lat="48.03478" lon="6.89941">
        <ele>1062</ele>
        <time>2022-05-27T13:51:00Z</time>
      </trkpt>
      <trkpt lat="48.03471" lon="6.89952">
        <ele>1063.5</ele>
        <time>2022-05-27T13:51:05Z</time>
      </trkpt>
      <trkpt lat="48.03465" lon="6.89964">
        <ele>1064.1</ele>
        <time>2022-05-27T13:51:10Z</time>
      </trkpt>
      <trkpt lat="48.03459" lon="6.89976">
        <ele>1064.9</ele>
        <time>2022-05-27T13:51:15Z</time>
      </trkpt>
      <trkpt lat="48.03457" lon="6.89992">
        <ele>1066.2</ele>
        <time>2022-05-27T13:51:20Z</time>
      </trkpt>
      <trkpt lat="48.03455" lon="6.90007">
        <ele>1066.5</ele>
        <time>2022-05-27T13:51:25Z</time>
      </trkpt>
      <trkpt lat="48.03454" lon="6.90022">
        <ele>1067.6</ele>
        <time>2022-05-27T13:51:30Z</time>
      </trkpt>
      <trkpt lat="48.03452" lon="6.90037">
        <ele>1069.5</ele>
        <time>2022-05-27T13:51:35Z</time>
      </trkpt>
      <trkpt lat="48.03448" lon="6.90049">
        <ele>1069</ele>
        <time>2022-05-27T13:51:39Z</time>
      </trkpt>
      <trkpt lat="48.03444" lon="6.90064">
        <ele>1069.2</ele>
        <time>2022-05-27T13:51:44Z</time>
      </trkpt>
      <trkpt lat="48.03442" lon="6.90077">
        <ele>1069.4</ele>
        <time>2022-05-27T13:51:48Z</time>
      </trkpt>
      <trkpt lat="48.03439" lon="6.9009">
        <ele>1070.8</ele>
        <time>2022-05-27T13:51:52Z</time>
      </trkpt>
      <trkpt lat="48.03437" lon="6.90105">
        <ele>1071.8</ele>
        <time>2022-05-27T13:51:57Z</time>
      </trkpt>
      <trkpt lat="48.03434" lon="6.90119">
        <ele>1074.5</ele>
        <time>2022-05-27T13:52:02Z</time>
      </trkpt>
      <trkpt lat="48.03431" lon="6.90133">
        <ele>1076.7</ele>
        <time>2022-05-27T13:52:09Z</time>
      </trkpt>
      <trkpt lat="48.03429" lon="6.90147">
        <ele>1077.8</ele>
        <time>2022-05-27T13:52:16Z</time>
      </trkpt>
      <trkpt lat="48.03425" lon="6.90162">
        <ele>1080</ele>
        <time>2022-05-27T13:52:22Z</time>
      </trkpt>
      <trkpt lat="48.0342" lon="6.90176">
        <ele>1080.3</ele>
        <time>2022-05-27T13:52:28Z</time>
      </trkpt>
      <trkpt lat="48.03414" lon="6.9019">
        <ele>1080.6</ele>
        <time>2022-05-27T13:52:33Z</time>
      </trkpt>
      <trkpt lat="48.03406" lon="6.902">
        <ele>1081.7</ele>
        <time>2022-05-27T13:52:37Z</time>
      </trkpt>
      <trkpt lat="48.03396" lon="6.90205">
        <ele>1081.8</ele>
        <time>2022-05-27T13:52:41Z</time>
      </trkpt>
      <trkpt lat="48.03388" lon="6.90211">
        <ele>1081.3</ele>
        <time>2022-05-27T13:52:45Z</time>
      </trkpt>
      <trkpt lat="48.03384" lon="6.90225">
        <ele>1082.5</ele>
        <time>2022-05-27T13:52:49Z</time>
      </trkpt>
      <trkpt lat="48.03387" lon="6.90238">
        <ele>1082.9</ele>
        <time>2022-05-27T13:52:54Z</time>
      </trkpt>
      <trkpt lat="48.03388" lon="6.90252">
        <ele>1085</ele>
        <time>2022-05-27T13:53:00Z</time>
      </trkpt>
      <trkpt lat="48.03383" lon="6.90265">
        <ele>1087</ele>
        <time>2022-05-27T13:53:05Z</time>
      </trkpt>
      <trkpt lat="48.03381" lon="6.90278">
        <ele>1088.6</ele>
        <time>2022-05-27T13:53:10Z</time>
      </trkpt>
      <trkpt lat="48.0338" lon="6.90294">
        <ele>1090</ele>
        <time>2022-05-27T13:53:16Z</time>
      </trkpt>
      <trkpt lat="48.03378" lon="6.90307">
        <ele>1090.7</ele>
        <time>2022-05-27T13:53:23Z</time>
      </trkpt>
      <trkpt lat="48.03376" lon="6.90318">
        <ele>1090</ele>
        <time>2022-05-27T13:53:29Z</time>
      </trkpt>
      <trkpt lat="48.03376" lon="6.90317">
        <ele>1090.6</ele>
        <time>2022-05-27T13:53:59Z</time>
      </trkpt>
      <trkpt lat="48.03376" lon="6.90317">
        <ele>1090.4</ele>
        <time>2022-05-27T13:54:10Z</time>
      </trkpt>
      <trkpt lat="48.03376" lon="6.90318">
        <ele>1090.4</ele>
        <time>2022-05-27T13:54:12Z</time>
      </trkpt>
      <trkpt lat="48.03375" lon="6.90318">
        <ele>1090.2</ele>
        <time>2022-05-27T13:54:20Z</time>
      </trkpt>
      <trkpt lat="48.03375" lon="6.90318">
        <ele>1090.4</ele>
        <time>2022-05-27T13:54:54Z</time>
      </trkpt>
      <trkpt lat="48.03375" lon="6.9032">
        <ele>1090.2</ele>
        <time>2022-05-27T13:54:57Z</time>
      </trkpt>
      <trkpt lat="48.03375" lon="6.90321">
        <ele>1091</ele>
        <time>2022-05-27T13:55:08Z</time>
      </trkpt>
      <trkpt lat="48.03372" lon="6.90335">
        <ele>1090</ele>
        <time>2022-05-27T13:55:14Z</time>
      </trkpt>
      <trkpt lat="48.0337" lon="6.90352">
        <ele>1089.6</ele>
        <time>2022-05-27T13:55:18Z</time>
      </trkpt>
      <trkpt lat="48.03369" lon="6.90366">
        <ele>1089.7</ele>
        <time>2022-05-27T13:55:21Z</time>
      </trkpt>
      <trkpt lat="48.03369" lon="6.90382">
        <ele>1089.4</ele>
        <time>2022-05-27T13:55:24Z</time>
      </trkpt>
      <trkpt lat="48.03371" lon="6.904">
        <ele>1089.2</ele>
        <time>2022-05-27T13:55:27Z</time>
      </trkpt>
      <trkpt lat="48.03374" lon="6.90417">
        <ele>1089.5</ele>
        <time>2022-05-27T13:55:30Z</time>
      </trkpt>
      <trkpt lat="48.03376" lon="6.90435">
        <ele>1089</ele>
        <time>2022-05-27T13:55:33Z</time>
      </trkpt>
      <trkpt lat="48.03378" lon="6.90454">
        <ele>1088.7</ele>
        <time>2022-05-27T13:55:36Z</time>
      </trkpt>
      <trkpt lat="48.03377" lon="6.90471">
        <ele>1088.7</ele>
        <time>2022-05-27T13:55:39Z</time>
      </trkpt>
      <trkpt lat="48.03374" lon="6.90488">
        <ele>1087.5</ele>
        <time>2022-05-27T13:55:43Z</time>
      </trkpt>
      <trkpt lat="48.03372" lon="6.90504">
        <ele>1086.7</ele>
        <time>2022-05-27T13:55:48Z</time>
      </trkpt>
      <trkpt lat="48.03368" lon="6.9052">
        <ele>1087.3</ele>
        <time>2022-05-27T13:55:52Z</time>
      </trkpt>
      <trkpt lat="48.03365" lon="6.90532">
        <ele>1082.5</ele>
        <time>2022-05-27T13:55:54Z</time>
      </trkpt>
      <trkpt lat="48.03362" lon="6.90547">
        <ele>1080.2</ele>
        <time>2022-05-27T13:55:56Z</time>
      </trkpt>
      <trkpt lat="48.03361" lon="6.90562">
        <ele>1080.1</ele>
        <time>2022-05-27T13:55:58Z</time>
      </trkpt>
      <trkpt lat="48.03358" lon="6.90577">
        <ele>1078.9</ele>
        <time>2022-05-27T13:56:00Z</time>
      </trkpt>
      <trkpt lat="48.03355" lon="6.90594">
        <ele>1079.2</ele>
        <time>2022-05-27T13:56:02Z</time>
      </trkpt>
      <trkpt lat="48.03354" lon="6.90609">
        <ele>1078.3</ele>
        <time>2022-05-27T13:56:04Z</time>
      </trkpt>
      <trkpt lat="48.03353" lon="6.90628">
        <ele>1075.4</ele>
        <time>2022-05-27T13:56:07Z</time>
      </trkpt>
      <trkpt lat="48.03357" lon="6.90646">
        <ele>1071.7</ele>
        <time>2022-05-27T13:56:10Z</time>
      </trkpt>
      <trkpt lat="48.03361" lon="6.90665">
        <ele>1071.6</ele>
        <time>2022-05-27T13:56:13Z</time>
      </trkpt>
      <trkpt lat="48.03364" lon="6.90678">
        <ele>1073.1</ele>
        <time>2022-05-27T13:56:15Z</time>
      </trkpt>
      <trkpt lat="48.03367" lon="6.90693">
        <ele>1070</ele>
        <time>2022-05-27T13:56:17Z</time>
      </trkpt>
      <trkpt lat="48.0337" lon="6.90708">
        <ele>1069</ele>
        <time>2022-05-27T13:56:19Z</time>
      </trkpt>
      <trkpt lat="48.03372" lon="6.90722">
        <ele>1063.4</ele>
        <time>2022-05-27T13:56:21Z</time>
      </trkpt>
      <trkpt lat="48.03372" lon="6.90739">
        <ele>1064.7</ele>
        <time>2022-05-27T13:56:24Z</time>
      </trkpt>
      <trkpt lat="48.03374" lon="6.90755">
        <ele>1064</ele>
        <time>2022-05-27T13:56:27Z</time>
      </trkpt>
      <trkpt lat="48.03378" lon="6.90774">
        <ele>1063.3</ele>
        <time>2022-05-27T13:56:30Z</time>
      </trkpt>
      <trkpt lat="48.03378" lon="6.90789">
        <ele>1063.1</ele>
        <time>2022-05-27T13:56:32Z</time>
      </trkpt>
      <trkpt lat="48.03379" lon="6.90803">
        <ele>1061.4</ele>
        <time>2022-05-27T13:56:34Z</time>
      </trkpt>
      <trkpt lat="48.03381" lon="6.90818">
        <ele>1062.3</ele>
        <time>2022-05-27T13:56:36Z</time>
      </trkpt>
      <trkpt lat="48.03384" lon="6.90835">
        <ele>1060.9</ele>
        <time>2022-05-27T13:56:38Z</time>
      </trkpt>
      <trkpt lat="48.03388" lon="6.90853">
        <ele>1060.7</ele>
        <time>2022-05-27T13:56:40Z</time>
      </trkpt>
      <trkpt lat="48.03394" lon="6.9087">
        <ele>1059.6</ele>
        <time>2022-05-27T13:56:42Z</time>
      </trkpt>
      <trkpt lat="48.03398" lon="6.90886">
        <ele>1061.5</ele>
        <time>2022-05-27T13:56:44Z</time>
      </trkpt>
      <trkpt lat="48.03402" lon="6.90899">
        <ele>1062</ele>
        <time>2022-05-27T13:56:46Z</time>
      </trkpt>
      <trkpt lat="48.03408" lon="6.90915">
        <ele>1061.8</ele>
        <time>2022-05-27T13:56:49Z</time>
      </trkpt>
      <trkpt lat="48.03412" lon="6.90935">
        <ele>1061.3</ele>
        <time>2022-05-27T13:56:52Z</time>
      </trkpt>
      <trkpt lat="48.03415" lon="6.90951">
        <ele>1061.2</ele>
        <time>2022-05-27T13:56:54Z</time>
      </trkpt>
      <trkpt lat="48.03417" lon="6.90966">
        <ele>1061.5</ele>
        <time>2022-05-27T13:56:56Z</time>
      </trkpt>
      <trkpt lat="48.03421" lon="6.90979">
        <ele>1065.6</ele>
        <time>2022-05-27T13:56:58Z</time>
      </trkpt>
      <trkpt lat="48.03425" lon="6.90992">
        <ele>1062.9</ele>
        <time>2022-05-27T13:57:00Z</time>
      </trkpt>
      <trkpt lat="48.0343" lon="6.91005">
        <ele>1063</ele>
        <time>2022-05-27T13:57:02Z</time>
      </trkpt>
      <trkpt lat="48.03435" lon="6.91016">
        <ele>1063.9</ele>
        <time>2022-05-27T13:57:04Z</time>
      </trkpt>
      <trkpt lat="48.03442" lon="6.91026">
        <ele>1063.3</ele>
        <time>2022-05-27T13:57:06Z</time>
      </trkpt>
      <trkpt lat="48.0345" lon="6.91037">
        <ele>1061.8</ele>
        <time>2022-05-27T13:57:08Z</time>
      </trkpt>
      <trkpt lat="48.03459" lon="6.91048">
        <ele>1060.2</ele>
        <time>2022-05-27T13:57:10Z</time>
      </trkpt>
      <trkpt lat="48.03467" lon="6.91059">
        <ele>1060.5</ele>
        <time>2022-05-27T13:57:12Z</time>
      </trkpt>
      <trkpt lat="48.03474" lon="6.9107">
        <ele>1059.9</ele>
        <time>2022-05-27T13:57:14Z</time>
      </trkpt>
      <trkpt lat="48.03482" lon="6.91081">
        <ele>1061.7</ele>
        <time>2022-05-27T13:57:16Z</time>
      </trkpt>
      <trkpt lat="48.03491" lon="6.91094">
        <ele>1063.9</ele>
        <time>2022-05-27T13:57:19Z</time>
      </trkpt>
      <trkpt lat="48.03499" lon="6.91103">
        <ele>1065.4</ele>
        <time>2022-05-27T13:57:22Z</time>
      </trkpt>
      <trkpt lat="48.03507" lon="6.91112">
        <ele>1065.7</ele>
        <time>2022-05-27T13:57:25Z</time>
      </trkpt>
      <trkpt lat="48.03515" lon="6.91121">
        <ele>1065.5</ele>
        <time>2022-05-27T13:57:28Z</time>
      </trkpt>
      <trkpt lat="48.03525" lon="6.91128">
        <ele>1064.9</ele>
        <time>2022-05-27T13:57:31Z</time>
      </trkpt>
      <trkpt lat="48.03535" lon="6.91135">
        <ele>1065.6</ele>
        <time>2022-05-27T13:57:34Z</time>
      </trkpt>
      <trkpt lat="48.03544" lon="6.91145">
        <ele>1067.4</ele>
        <time>2022-05-27T13:57:38Z</time>
      </trkpt>
      <trkpt lat="48.03554" lon="6.91155">
        <ele>1068</ele>
        <time>2022-05-27T13:57:42Z</time>
      </trkpt>
      <trkpt lat="48.03563" lon="6.91164">
        <ele>1069.6</ele>
        <time>2022-05-27T13:57:46Z</time>
      </trkpt>
      <trkpt lat="48.03571" lon="6.91171">
        <ele>1069.8</ele>
        <time>2022-05-27T13:57:49Z</time>
      </trkpt>
      <trkpt lat="48.03582" lon="6.91179">
        <ele>1070.4</ele>
        <time>2022-05-27T13:57:53Z</time>
      </trkpt>
      <trkpt lat="48.03592" lon="6.91185">
        <ele>1070.4</ele>
        <time>2022-05-27T13:57:57Z</time>
      </trkpt>
      <trkpt lat="48.03601" lon="6.9119">
        <ele>1070.7</ele>
        <time>2022-05-27T13:58:00Z</time>
      </trkpt>
      <trkpt lat="48.03612" lon="6.91198">
        <ele>1069.7</ele>
        <time>2022-05-27T13:58:03Z</time>
      </trkpt>
      <trkpt lat="48.03623" lon="6.91204">
        <ele>1069.6</ele>
        <time>2022-05-27T13:58:06Z</time>
      </trkpt>
      <trkpt lat="48.03635" lon="6.91209">
        <ele>1069.1</ele>
        <time>2022-05-27T13:58:09Z</time>
      </trkpt>
      <trkpt lat="48.03646" lon="6.91213">
        <ele>1069.8</ele>
        <time>2022-05-27T13:58:12Z</time>
      </trkpt>
      <trkpt lat="48.03657" lon="6.91218">
        <ele>1069</ele>
        <time>2022-05-27T13:58:15Z</time>
      </trkpt>
      <trkpt lat="48.03669" lon="6.91223">
        <ele>1069.7</ele>
        <time>2022-05-27T13:58:18Z</time>
      </trkpt>
      <trkpt lat="48.03681" lon="6.91231">
        <ele>1067.5</ele>
        <time>2022-05-27T13:58:21Z</time>
      </trkpt>
      <trkpt lat="48.03692" lon="6.91241">
        <ele>1067.5</ele>
        <time>2022-05-27T13:58:24Z</time>
      </trkpt>
      <trkpt lat="48.03703" lon="6.91253">
        <ele>1067</ele>
        <time>2022-05-27T13:58:27Z</time>
      </trkpt>
      <trkpt lat="48.03711" lon="6.91262">
        <ele>1065.9</ele>
        <time>2022-05-27T13:58:29Z</time>
      </trkpt>
      <trkpt lat="48.03719" lon="6.91274">
        <ele>1064.1</ele>
        <time>2022-05-27T13:58:31Z</time>
      </trkpt>
      <trkpt lat="48.03728" lon="6.91288">
        <ele>1065.3</ele>
        <time>2022-05-27T13:58:33Z</time>
      </trkpt>
      <trkpt lat="48.03736" lon="6.91302">
        <ele>1064.8</ele>
        <time>2022-05-27T13:58:35Z</time>
      </trkpt>
      <trkpt lat="48.03744" lon="6.91314">
        <ele>1064.7</ele>
        <time>2022-05-27T13:58:37Z</time>
      </trkpt>
      <trkpt lat="48.03752" lon="6.91325">
        <ele>1065.3</ele>
        <time>2022-05-27T13:58:39Z</time>
      </trkpt>
      <trkpt lat="48.03759" lon="6.91337">
        <ele>1065.9</ele>
        <time>2022-05-27T13:58:41Z</time>
      </trkpt>
      <trkpt lat="48.03765" lon="6.91348">
        <ele>1067.7</ele>
        <time>2022-05-27T13:58:43Z</time>
      </trkpt>
      <trkpt lat="48.03773" lon="6.91362">
        <ele>1067.1</ele>
        <time>2022-05-27T13:58:46Z</time>
      </trkpt>
      <trkpt lat="48.03783" lon="6.91372">
        <ele>1067.2</ele>
        <time>2022-05-27T13:58:49Z</time>
      </trkpt>
      <trkpt lat="48.0379" lon="6.9138">
        <ele>1067</ele>
        <time>2022-05-27T13:58:51Z</time>
      </trkpt>
      <trkpt lat="48.03797" lon="6.91389">
        <ele>1067.7</ele>
        <time>2022-05-27T13:58:53Z</time>
      </trkpt>
      <trkpt lat="48.03808" lon="6.91399">
        <ele>1069.8</ele>
        <time>2022-05-27T13:58:56Z</time>
      </trkpt>
      <trkpt lat="48.03816" lon="6.9141">
        <ele>1070.9</ele>
        <time>2022-05-27T13:58:59Z</time>
      </trkpt>
      <trkpt lat="48.03822" lon="6.91425">
        <ele>1071.5</ele>
        <time>2022-05-27T13:59:02Z</time>
      </trkpt>
      <trkpt lat="48.03826" lon="6.91442">
        <ele>1070.6</ele>
        <time>2022-05-27T13:59:05Z</time>
      </trkpt>
      <trkpt lat="48.03829" lon="6.9146">
        <ele>1070.4</ele>
        <time>2022-05-27T13:59:08Z</time>
      </trkpt>
      <trkpt lat="48.03831" lon="6.91473">
        <ele>1069.5</ele>
        <time>2022-05-27T13:59:10Z</time>
      </trkpt>
      <trkpt lat="48.03835" lon="6.91488">
        <ele>1067.7</ele>
        <time>2022-05-27T13:59:12Z</time>
      </trkpt>
      <trkpt lat="48.0384" lon="6.91503">
        <ele>1068.5</ele>
        <time>2022-05-27T13:59:14Z</time>
      </trkpt>
      <trkpt lat="48.03847" lon="6.91516">
        <ele>1067.3</ele>
        <time>2022-05-27T13:59:16Z</time>
      </trkpt>
      <trkpt lat="48.03854" lon="6.91529">
        <ele>1067.3</ele>
        <time>2022-05-27T13:59:18Z</time>
      </trkpt>
      <trkpt lat="48.03861" lon="6.9154">
        <ele>1068.3</ele>
        <time>2022-05-27T13:59:20Z</time>
      </trkpt>
      <trkpt lat="48.03869" lon="6.91549">
        <ele>1068</ele>
        <time>2022-05-27T13:59:22Z</time>
      </trkpt>
      <trkpt lat="48.03876" lon="6.91559">
        <ele>1068.7</ele>
        <time>2022-05-27T13:59:24Z</time>
      </trkpt>
      <trkpt lat="48.03883" lon="6.91567">
        <ele>1069.3</ele>
        <time>2022-05-27T13:59:26Z</time>
      </trkpt>
      <trkpt lat="48.03892" lon="6.91573">
        <ele>1068.8</ele>
        <time>2022-05-27T13:59:28Z</time>
      </trkpt>
      <trkpt lat="48.039" lon="6.91579">
        <ele>1068</ele>
        <time>2022-05-27T13:59:30Z</time>
      </trkpt>
      <trkpt lat="48.03909" lon="6.91583">
        <ele>1068.9</ele>
        <time>2022-05-27T13:59:32Z</time>
      </trkpt>
      <trkpt lat="48.03922" lon="6.91586">
        <ele>1070.2</ele>
        <time>2022-05-27T13:59:35Z</time>
      </trkpt>
      <trkpt lat="48.03936" lon="6.91588">
        <ele>1069.4</ele>
        <time>2022-05-27T13:59:38Z</time>
      </trkpt>
      <trkpt lat="48.03947" lon="6.91589">
        <ele>1068.6</ele>
        <time>2022-05-27T13:59:41Z</time>
      </trkpt>
      <trkpt lat="48.03956" lon="6.91593">
        <ele>1071.2</ele>
        <time>2022-05-27T13:59:45Z</time>
      </trkpt>
      <trkpt lat="48.03959" lon="6.91596">
        <ele>1071.1</ele>
        <time>2022-05-27T13:59:49Z</time>
      </trkpt>
      <trkpt lat="48.03959" lon="6.91597">
        <ele>1071.5</ele>
        <time>2022-05-27T13:59:54Z</time>
      </trkpt>
      <trkpt lat="48.03959" lon="6.91597">
        <ele>1071.1</ele>
        <time>2022-05-27T14:02:36Z</time>
      </trkpt>
      <trkpt lat="48.03967" lon="6.9161">
        <ele>1070.9</ele>
        <time>2022-05-27T14:02:41Z</time>
      </trkpt>
      <trkpt lat="48.03974" lon="6.91619">
        <ele>1069.1</ele>
        <time>2022-05-27T14:02:43Z</time>
      </trkpt>
      <trkpt lat="48.03984" lon="6.91631">
        <ele>1069.2</ele>
        <time>2022-05-27T14:02:46Z</time>
      </trkpt>
      <trkpt lat="48.03992" lon="6.91642">
        <ele>1069</ele>
        <time>2022-05-27T14:02:49Z</time>
      </trkpt>
      <trkpt lat="48.03999" lon="6.91652">
        <ele>1072.7</ele>
        <time>2022-05-27T14:02:54Z</time>
      </trkpt>
      <trkpt lat="48.04007" lon="6.91665">
        <ele>1072.3</ele>
        <time>2022-05-27T14:02:59Z</time>
      </trkpt>
      <trkpt lat="48.04015" lon="6.91675">
        <ele>1074.3</ele>
        <time>2022-05-27T14:03:03Z</time>
      </trkpt>
      <trkpt lat="48.04023" lon="6.91687">
        <ele>1073.6</ele>
        <time>2022-05-27T14:03:07Z</time>
      </trkpt>
      <trkpt lat="48.0403" lon="6.91697">
        <ele>1073.8</ele>
        <time>2022-05-27T14:03:10Z</time>
      </trkpt>
      <trkpt lat="48.04037" lon="6.91707">
        <ele>1073.5</ele>
        <time>2022-05-27T14:03:13Z</time>
      </trkpt>
      <trkpt lat="48.04043" lon="6.91719">
        <ele>1073.5</ele>
        <time>2022-05-27T14:03:16Z</time>
      </trkpt>
      <trkpt lat="48.04051" lon="6.91731">
        <ele>1074.5</ele>
        <time>2022-05-27T14:03:19Z</time>
      </trkpt>
      <trkpt lat="48.04057" lon="6.91744">
        <ele>1072.3</ele>
        <time>2022-05-27T14:03:22Z</time>
      </trkpt>
      <trkpt lat="48.04062" lon="6.91758">
        <ele>1073.7</ele>
        <time>2022-05-27T14:03:25Z</time>
      </trkpt>
      <trkpt lat="48.04066" lon="6.91774">
        <ele>1072.9</ele>
        <time>2022-05-27T14:03:28Z</time>
      </trkpt>
      <trkpt lat="48.04071" lon="6.9179">
        <ele>1071</ele>
        <time>2022-05-27T14:03:31Z</time>
      </trkpt>
      <trkpt lat="48.04077" lon="6.91806">
        <ele>1071.2</ele>
        <time>2022-05-27T14:03:34Z</time>
      </trkpt>
      <trkpt lat="48.04085" lon="6.91822">
        <ele>1072</ele>
        <time>2022-05-27T14:03:37Z</time>
      </trkpt>
      <trkpt lat="48.04091" lon="6.91833">
        <ele>1070.4</ele>
        <time>2022-05-27T14:03:39Z</time>
      </trkpt>
      <trkpt lat="48.04096" lon="6.91845">
        <ele>1069.2</ele>
        <time>2022-05-27T14:03:41Z</time>
      </trkpt>
      <trkpt lat="48.04103" lon="6.91857">
        <ele>1066.6</ele>
        <time>2022-05-27T14:03:43Z</time>
      </trkpt>
      <trkpt lat="48.04112" lon="6.91865">
        <ele>1066.4</ele>
        <time>2022-05-27T14:03:45Z</time>
      </trkpt>
      <trkpt lat="48.04123" lon="6.91871">
        <ele>1064.4</ele>
        <time>2022-05-27T14:03:47Z</time>
      </trkpt>
      <trkpt lat="48.04134" lon="6.9188">
        <ele>1065.4</ele>
        <time>2022-05-27T14:03:49Z</time>
      </trkpt>
      <trkpt lat="48.04145" lon="6.9189">
        <ele>1063.2</ele>
        <time>2022-05-27T14:03:51Z</time>
      </trkpt>
      <trkpt lat="48.04157" lon="6.91899">
        <ele>1064.9</ele>
        <time>2022-05-27T14:03:53Z</time>
      </trkpt>
      <trkpt lat="48.04168" lon="6.91906">
        <ele>1065.8</ele>
        <time>2022-05-27T14:03:55Z</time>
      </trkpt>
      <trkpt lat="48.04178" lon="6.91911">
        <ele>1066.7</ele>
        <time>2022-05-27T14:03:57Z</time>
      </trkpt>
      <trkpt lat="48.04188" lon="6.91919">
        <ele>1068.8</ele>
        <time>2022-05-27T14:03:59Z</time>
      </trkpt>
      <trkpt lat="48.04195" lon="6.91927">
        <ele>1066.9</ele>
        <time>2022-05-27T14:04:01Z</time>
      </trkpt>
      <trkpt lat="48.04203" lon="6.91934">
        <ele>1068.2</ele>
        <time>2022-05-27T14:04:03Z</time>
      </trkpt>
      <trkpt lat="48.04215" lon="6.91942">
        <ele>1067.7</ele>
        <time>2022-05-27T14:04:06Z</time>
      </trkpt>
      <trkpt lat="48.04223" lon="6.91952">
        <ele>1068.4</ele>
        <time>2022-05-27T14:04:09Z</time>
      </trkpt>
      <trkpt lat="48.0423" lon="6.91962">
        <ele>1068.1</ele>
        <time>2022-05-27T14:04:12Z</time>
      </trkpt>
      <trkpt lat="48.04238" lon="6.91971">
        <ele>1070</ele>
        <time>2022-05-27T14:04:15Z</time>
      </trkpt>
      <trkpt lat="48.04246" lon="6.91977">
        <ele>1070.3</ele>
        <time>2022-05-27T14:04:18Z</time>
      </trkpt>
      <trkpt lat="48.04255" lon="6.91983">
        <ele>1073.3</ele>
        <time>2022-05-27T14:04:21Z</time>
      </trkpt>
      <trkpt lat="48.04264" lon="6.9199">
        <ele>1073</ele>
        <time>2022-05-27T14:04:25Z</time>
      </trkpt>
      <trkpt lat="48.04274" lon="6.91997">
        <ele>1074</ele>
        <time>2022-05-27T14:04:29Z</time>
      </trkpt>
      <trkpt lat="48.04283" lon="6.92004">
        <ele>1075.3</ele>
        <time>2022-05-27T14:04:33Z</time>
      </trkpt>
      <trkpt lat="48.04291" lon="6.92012">
        <ele>1075.9</ele>
        <time>2022-05-27T14:04:37Z</time>
      </trkpt>
      <trkpt lat="48.04299" lon="6.9202">
        <ele>1077.8</ele>
        <time>2022-05-27T14:04:42Z</time>
      </trkpt>
      <trkpt lat="48.04309" lon="6.92025">
        <ele>1079</ele>
        <time>2022-05-27T14:04:48Z</time>
      </trkpt>
      <trkpt lat="48.04319" lon="6.92029">
        <ele>1079.5</ele>
        <time>2022-05-27T14:04:52Z</time>
      </trkpt>
      <trkpt lat="48.04327" lon="6.9204">
        <ele>1079.8</ele>
        <time>2022-05-27T14:04:56Z</time>
      </trkpt>
      <trkpt lat="48.04336" lon="6.92056">
        <ele>1076.6</ele>
        <time>2022-05-27T14:04:59Z</time>
      </trkpt>
      <trkpt lat="48.04343" lon="6.92068">
        <ele>1076.4</ele>
        <time>2022-05-27T14:05:01Z</time>
      </trkpt>
      <trkpt lat="48.0435" lon="6.92081">
        <ele>1075.2</ele>
        <time>2022-05-27T14:05:03Z</time>
      </trkpt>
      <trkpt lat="48.04356" lon="6.92093">
        <ele>1075.9</ele>
        <time>2022-05-27T14:05:05Z</time>
      </trkpt>
      <trkpt lat="48.04361" lon="6.92105">
        <ele>1075.1</ele>
        <time>2022-05-27T14:05:07Z</time>
      </trkpt>
      <trkpt lat="48.04367" lon="6.92116">
        <ele>1074.1</ele>
        <time>2022-05-27T14:05:09Z</time>
      </trkpt>
      <trkpt lat="48.04374" lon="6.92127">
        <ele>1073.3</ele>
        <time>2022-05-27T14:05:11Z</time>
      </trkpt>
      <trkpt lat="48.0438" lon="6.92138">
        <ele>1073.1</ele>
        <time>2022-05-27T14:05:13Z</time>
      </trkpt>
      <trkpt lat="48.04389" lon="6.92146">
        <ele>1074.3</ele>
        <time>2022-05-27T14:05:16Z</time>
      </trkpt>
      <trkpt lat="48.04397" lon="6.92157">
        <ele>1072.3</ele>
        <time>2022-05-27T14:05:20Z</time>
      </trkpt>
      <trkpt lat="48.04404" lon="6.9217">
        <ele>1070.5</ele>
        <time>2022-05-27T14:05:23Z</time>
      </trkpt>
      <trkpt lat="48.04401" lon="6.92187">
        <ele>1067.9</ele>
        <time>2022-05-27T14:05:26Z</time>
      </trkpt>
      <trkpt lat="48.04396" lon="6.92198">
        <ele>1066.2</ele>
        <time>2022-05-27T14:05:28Z</time>
      </trkpt>
      <trkpt lat="48.04391" lon="6.92208">
        <ele>1064.1</ele>
        <time>2022-05-27T14:05:30Z</time>
      </trkpt>
      <trkpt lat="48.04384" lon="6.92217">
        <ele>1066.2</ele>
        <time>2022-05-27T14:05:32Z</time>
      </trkpt>
      <trkpt lat="48.04374" lon="6.92222">
        <ele>1066.2</ele>
        <time>2022-05-27T14:05:35Z</time>
      </trkpt>
      <trkpt lat="48.04362" lon="6.92221">
        <ele>1066.6</ele>
        <time>2022-05-27T14:05:38Z</time>
      </trkpt>
      <trkpt lat="48.0435" lon="6.92215">
        <ele>1061.8</ele>
        <time>2022-05-27T14:05:41Z</time>
      </trkpt>
      <trkpt lat="48.0434" lon="6.92209">
        <ele>1062.5</ele>
        <time>2022-05-27T14:05:43Z</time>
      </trkpt>
      <trkpt lat="48.0433" lon="6.92201">
        <ele>1060.4</ele>
        <time>2022-05-27T14:05:45Z</time>
      </trkpt>
      <trkpt lat="48.04319" lon="6.92188">
        <ele>1058.4</ele>
        <time>2022-05-27T14:05:48Z</time>
      </trkpt>
      <trkpt lat="48.04309" lon="6.92179">
        <ele>1052.7</ele>
        <time>2022-05-27T14:05:50Z</time>
      </trkpt>
      <trkpt lat="48.04299" lon="6.92167">
        <ele>1053.6</ele>
        <time>2022-05-27T14:05:52Z</time>
      </trkpt>
      <trkpt lat="48.04289" lon="6.92152">
        <ele>1053.2</ele>
        <time>2022-05-27T14:05:54Z</time>
      </trkpt>
      <trkpt lat="48.04282" lon="6.92134">
        <ele>1053.5</ele>
        <time>2022-05-27T14:05:56Z</time>
      </trkpt>
      <trkpt lat="48.04275" lon="6.92119">
        <ele>1051.2</ele>
        <time>2022-05-27T14:05:58Z</time>
      </trkpt>
      <trkpt lat="48.04266" lon="6.9211">
        <ele>1052</ele>
        <time>2022-05-27T14:06:00Z</time>
      </trkpt>
      <trkpt lat="48.04257" lon="6.92098">
        <ele>1053.4</ele>
        <time>2022-05-27T14:06:02Z</time>
      </trkpt>
      <trkpt lat="48.04246" lon="6.92087">
        <ele>1052.2</ele>
        <time>2022-05-27T14:06:04Z</time>
      </trkpt>
      <trkpt lat="48.04237" lon="6.92076">
        <ele>1051.2</ele>
        <time>2022-05-27T14:06:06Z</time>
      </trkpt>
      <trkpt lat="48.04233" lon="6.92062">
        <ele>1049.7</ele>
        <time>2022-05-27T14:06:08Z</time>
      </trkpt>
      <trkpt lat="48.04229" lon="6.92047">
        <ele>1048</ele>
        <time>2022-05-27T14:06:10Z</time>
      </trkpt>
      <trkpt lat="48.04219" lon="6.92041">
        <ele>1046.5</ele>
        <time>2022-05-27T14:06:12Z</time>
      </trkpt>
      <trkpt lat="48.04207" lon="6.92036">
        <ele>1045.6</ele>
        <time>2022-05-27T14:06:14Z</time>
      </trkpt>
      <trkpt lat="48.04198" lon="6.92032">
        <ele>1047.7</ele>
        <time>2022-05-27T14:06:16Z</time>
      </trkpt>
      <trkpt lat="48.04204" lon="6.92044">
        <ele>1045.2</ele>
        <time>2022-05-27T14:06:23Z</time>
      </trkpt>
      <trkpt lat="48.04211" lon="6.92054">
        <ele>1044.4</ele>
        <time>2022-05-27T14:06:27Z</time>
      </trkpt>
      <trkpt lat="48.04217" lon="6.92063">
        <ele>1044.4</ele>
        <time>2022-05-27T14:06:33Z</time>
      </trkpt>
      <trkpt lat="48.04217" lon="6.92064">
        <ele>1044.3</ele>
        <time>2022-05-27T14:06:36Z</time>
      </trkpt>
      <trkpt lat="48.04217" lon="6.92061">
        <ele>1044.1</ele>
        <time>2022-05-27T14:06:44Z</time>
      </trkpt>
      <trkpt lat="48.04216" lon="6.92061">
        <ele>1044.5</ele>
        <time>2022-05-27T14:06:55Z</time>
      </trkpt>
      <trkpt lat="48.04216" lon="6.92061">
        <ele>1044.7</ele>
        <time>2022-05-27T14:06:57Z</time>
      </trkpt>
      <trkpt lat="48.04221" lon="6.92074">
        <ele>1042.2</ele>
        <time>2022-05-27T14:07:04Z</time>
      </trkpt>
      <trkpt lat="48.04227" lon="6.92089">
        <ele>1043</ele>
        <time>2022-05-27T14:07:08Z</time>
      </trkpt>
      <trkpt lat="48.04233" lon="6.92101">
        <ele>1043.5</ele>
        <time>2022-05-27T14:07:11Z</time>
      </trkpt>
      <trkpt lat="48.04239" lon="6.92113">
        <ele>1044.2</ele>
        <time>2022-05-27T14:07:14Z</time>
      </trkpt>
      <trkpt lat="48.04245" lon="6.92123">
        <ele>1043.9</ele>
        <time>2022-05-27T14:07:17Z</time>
      </trkpt>
      <trkpt lat="48.04253" lon="6.92135">
        <ele>1043.9</ele>
        <time>2022-05-27T14:07:20Z</time>
      </trkpt>
      <trkpt lat="48.04259" lon="6.92148">
        <ele>1044.5</ele>
        <time>2022-05-27T14:07:23Z</time>
      </trkpt>
      <trkpt lat="48.04264" lon="6.92164">
        <ele>1043</ele>
        <time>2022-05-27T14:07:26Z</time>
      </trkpt>
      <trkpt lat="48.04267" lon="6.92179">
        <ele>1045.4</ele>
        <time>2022-05-27T14:07:29Z</time>
      </trkpt>
      <trkpt lat="48.04268" lon="6.92197">
        <ele>1044.5</ele>
        <time>2022-05-27T14:07:32Z</time>
      </trkpt>
      <trkpt lat="48.04268" lon="6.92216">
        <ele>1044.2</ele>
        <time>2022-05-27T14:07:35Z</time>
      </trkpt>
      <trkpt lat="48.04267" lon="6.9223">
        <ele>1044.8</ele>
        <time>2022-05-27T14:07:37Z</time>
      </trkpt>
      <trkpt lat="48.04266" lon="6.92244">
        <ele>1044.8</ele>
        <time>2022-05-27T14:07:39Z</time>
      </trkpt>
      <trkpt lat="48.04265" lon="6.92264">
        <ele>1044.7</ele>
        <time>2022-05-27T14:07:42Z</time>
      </trkpt>
      <trkpt lat="48.04267" lon="6.92279">
        <ele>1043.9</ele>
        <time>2022-05-27T14:07:44Z</time>
      </trkpt>
      <trkpt lat="48.04269" lon="6.92294">
        <ele>1043.8</ele>
        <time>2022-05-27T14:07:46Z</time>
      </trkpt>
      <trkpt lat="48.04272" lon="6.92307">
        <ele>1045.2</ele>
        <time>2022-05-27T14:07:48Z</time>
      </trkpt>
      <trkpt lat="48.04277" lon="6.92326">
        <ele>1044.3</ele>
        <time>2022-05-27T14:07:51Z</time>
      </trkpt>
      <trkpt lat="48.0428" lon="6.9234">
        <ele>1043.8</ele>
        <time>2022-05-27T14:07:53Z</time>
      </trkpt>
      <trkpt lat="48.04284" lon="6.92354">
        <ele>1044</ele>
        <time>2022-05-27T14:07:55Z</time>
      </trkpt>
      <trkpt lat="48.04289" lon="6.92367">
        <ele>1042.8</ele>
        <time>2022-05-27T14:07:57Z</time>
      </trkpt>
      <trkpt lat="48.04295" lon="6.9238">
        <ele>1040.9</ele>
        <time>2022-05-27T14:07:59Z</time>
      </trkpt>
      <trkpt lat="48.04304" lon="6.9239">
        <ele>1041.4</ele>
        <time>2022-05-27T14:08:01Z</time>
      </trkpt>
      <trkpt lat="48.04315" lon="6.92393">
        <ele>1041.5</ele>
        <time>2022-05-27T14:08:03Z</time>
      </trkpt>
      <trkpt lat="48.04326" lon="6.92391">
        <ele>1040.8</ele>
        <time>2022-05-27T14:08:05Z</time>
      </trkpt>
      <trkpt lat="48.04335" lon="6.92387">
        <ele>1042.4</ele>
        <time>2022-05-27T14:08:07Z</time>
      </trkpt>
      <trkpt lat="48.04344" lon="6.9238">
        <ele>1042.6</ele>
        <time>2022-05-27T14:08:09Z</time>
      </trkpt>
      <trkpt lat="48.04354" lon="6.92372">
        <ele>1041.6</ele>
        <time>2022-05-27T14:08:11Z</time>
      </trkpt>
      <trkpt lat="48.04363" lon="6.92365">
        <ele>1041.4</ele>
        <time>2022-05-27T14:08:13Z</time>
      </trkpt>
      <trkpt lat="48.04372" lon="6.92357">
        <ele>1041.3</ele>
        <time>2022-05-27T14:08:15Z</time>
      </trkpt>
      <trkpt lat="48.04381" lon="6.92351">
        <ele>1043.3</ele>
        <time>2022-05-27T14:08:17Z</time>
      </trkpt>
      <trkpt lat="48.04392" lon="6.92342">
        <ele>1043.6</ele>
        <time>2022-05-27T14:08:20Z</time>
      </trkpt>
      <trkpt lat="48.04402" lon="6.92331">
        <ele>1044.9</ele>
        <time>2022-05-27T14:08:23Z</time>
      </trkpt>
      <trkpt lat="48.04411" lon="6.92319">
        <ele>1047.1</ele>
        <time>2022-05-27T14:08:26Z</time>
      </trkpt>
      <trkpt lat="48.0442" lon="6.92308">
        <ele>1047.1</ele>
        <time>2022-05-27T14:08:29Z</time>
      </trkpt>
      <trkpt lat="48.04429" lon="6.92296">
        <ele>1046.2</ele>
        <time>2022-05-27T14:08:32Z</time>
      </trkpt>
      <trkpt lat="48.04436" lon="6.92282">
        <ele>1046.9</ele>
        <time>2022-05-27T14:08:35Z</time>
      </trkpt>
      <trkpt lat="48.04444" lon="6.92268">
        <ele>1047.3</ele>
        <time>2022-05-27T14:08:38Z</time>
      </trkpt>
      <trkpt lat="48.04452" lon="6.92258">
        <ele>1048.5</ele>
        <time>2022-05-27T14:08:41Z</time>
      </trkpt>
      <trkpt lat="48.04462" lon="6.92253">
        <ele>1048.6</ele>
        <time>2022-05-27T14:08:44Z</time>
      </trkpt>
      <trkpt lat="48.04472" lon="6.9225">
        <ele>1048.9</ele>
        <time>2022-05-27T14:08:47Z</time>
      </trkpt>
      <trkpt lat="48.04482" lon="6.92248">
        <ele>1049.7</ele>
        <time>2022-05-27T14:08:50Z</time>
      </trkpt>
      <trkpt lat="48.04495" lon="6.92243">
        <ele>1048.1</ele>
        <time>2022-05-27T14:08:53Z</time>
      </trkpt>
      <trkpt lat="48.04505" lon="6.92238">
        <ele>1047.4</ele>
        <time>2022-05-27T14:08:55Z</time>
      </trkpt>
      <trkpt lat="48.04514" lon="6.92232">
        <ele>1047.9</ele>
        <time>2022-05-27T14:08:57Z</time>
      </trkpt>
      <trkpt lat="48.04521" lon="6.92221">
        <ele>1047.9</ele>
        <time>2022-05-27T14:08:59Z</time>
      </trkpt>
      <trkpt lat="48.04525" lon="6.92208">
        <ele>1046.3</ele>
        <time>2022-05-27T14:09:01Z</time>
      </trkpt>
      <trkpt lat="48.04528" lon="6.92189">
        <ele>1045.8</ele>
        <time>2022-05-27T14:09:04Z</time>
      </trkpt>
      <trkpt lat="48.04531" lon="6.92176">
        <ele>1046.5</ele>
        <time>2022-05-27T14:09:06Z</time>
      </trkpt>
      <trkpt lat="48.04536" lon="6.92162">
        <ele>1046.4</ele>
        <time>2022-05-27T14:09:08Z</time>
      </trkpt>
      <trkpt lat="48.04542" lon="6.9215">
        <ele>1047.1</ele>
        <time>2022-05-27T14:09:10Z</time>
      </trkpt>
      <trkpt lat="48.04549" lon="6.92139">
        <ele>1047.3</ele>
        <time>2022-05-27T14:09:12Z</time>
      </trkpt>
      <trkpt lat="48.04558" lon="6.9213">
        <ele>1046.8</ele>
        <time>2022-05-27T14:09:14Z</time>
      </trkpt>
      <trkpt lat="48.04567" lon="6.92122">
        <ele>1046.6</ele>
        <time>2022-05-27T14:09:16Z</time>
      </trkpt>
      <trkpt lat="48.04577" lon="6.92115">
        <ele>1046.5</ele>
        <time>2022-05-27T14:09:18Z</time>
      </trkpt>
      <trkpt lat="48.04585" lon="6.92109">
        <ele>1047.4</ele>
        <time>2022-05-27T14:09:20Z</time>
      </trkpt>
      <trkpt lat="48.04596" lon="6.921">
        <ele>1047.8</ele>
        <time>2022-05-27T14:09:23Z</time>
      </trkpt>
      <trkpt lat="48.04606" lon="6.92094">
        <ele>1047.4</ele>
        <time>2022-05-27T14:09:26Z</time>
      </trkpt>
      <trkpt lat="48.04616" lon="6.92087">
        <ele>1047.5</ele>
        <time>2022-05-27T14:09:28Z</time>
      </trkpt>
      <trkpt lat="48.04624" lon="6.92079">
        <ele>1048.5</ele>
        <time>2022-05-27T14:09:30Z</time>
      </trkpt>
      <trkpt lat="48.04634" lon="6.92073">
        <ele>1047.7</ele>
        <time>2022-05-27T14:09:32Z</time>
      </trkpt>
      <trkpt lat="48.04647" lon="6.92072">
        <ele>1047</ele>
        <time>2022-05-27T14:09:35Z</time>
      </trkpt>
      <trkpt lat="48.0466" lon="6.92069">
        <ele>1047.8</ele>
        <time>2022-05-27T14:09:38Z</time>
      </trkpt>
      <trkpt lat="48.04673" lon="6.92071">
        <ele>1051.2</ele>
        <time>2022-05-27T14:09:41Z</time>
      </trkpt>
      <trkpt lat="48.04686" lon="6.92074">
        <ele>1052.1</ele>
        <time>2022-05-27T14:09:44Z</time>
      </trkpt>
      <trkpt lat="48.04694" lon="6.92078">
        <ele>1052.9</ele>
        <time>2022-05-27T14:09:46Z</time>
      </trkpt>
      <trkpt lat="48.04705" lon="6.92085">
        <ele>1052.3</ele>
        <time>2022-05-27T14:09:49Z</time>
      </trkpt>
      <trkpt lat="48.04717" lon="6.92093">
        <ele>1049.6</ele>
        <time>2022-05-27T14:09:52Z</time>
      </trkpt>
      <trkpt lat="48.04729" lon="6.921">
        <ele>1052.8</ele>
        <time>2022-05-27T14:09:55Z</time>
      </trkpt>
      <trkpt lat="48.04739" lon="6.92108">
        <ele>1053.7</ele>
        <time>2022-05-27T14:09:58Z</time>
      </trkpt>
      <trkpt lat="48.04748" lon="6.92119">
        <ele>1053.9</ele>
        <time>2022-05-27T14:10:01Z</time>
      </trkpt>
      <trkpt lat="48.04756" lon="6.92131">
        <ele>1054</ele>
        <time>2022-05-27T14:10:04Z</time>
      </trkpt>
      <trkpt lat="48.04763" lon="6.92144">
        <ele>1055.6</ele>
        <time>2022-05-27T14:10:07Z</time>
      </trkpt>
      <trkpt lat="48.0477" lon="6.92155">
        <ele>1055.5</ele>
        <time>2022-05-27T14:10:10Z</time>
      </trkpt>
      <trkpt lat="48.04776" lon="6.92166">
        <ele>1056.5</ele>
        <time>2022-05-27T14:10:14Z</time>
      </trkpt>
      <trkpt lat="48.04776" lon="6.92168">
        <ele>1056.1</ele>
        <time>2022-05-27T14:10:17Z</time>
      </trkpt>
      <trkpt lat="48.04777" lon="6.92169">
        <ele>1056.3</ele>
        <time>2022-05-27T14:10:46Z</time>
      </trkpt>
      <trkpt lat="48.04775" lon="6.92182">
        <ele>1055.7</ele>
        <time>2022-05-27T14:10:52Z</time>
      </trkpt>
      <trkpt lat="48.04775" lon="6.92198">
        <ele>1052.9</ele>
        <time>2022-05-27T14:10:56Z</time>
      </trkpt>
      <trkpt lat="48.04779" lon="6.9221">
        <ele>1052.6</ele>
        <time>2022-05-27T14:10:59Z</time>
      </trkpt>
      <trkpt lat="48.04784" lon="6.92227">
        <ele>1050.6</ele>
        <time>2022-05-27T14:11:02Z</time>
      </trkpt>
      <trkpt lat="48.04783" lon="6.92245">
        <ele>1044.4</ele>
        <time>2022-05-27T14:11:05Z</time>
      </trkpt>
      <trkpt lat="48.04783" lon="6.9226">
        <ele>1050.1</ele>
        <time>2022-05-27T14:11:08Z</time>
      </trkpt>
      <trkpt lat="48.04784" lon="6.92276">
        <ele>1047.6</ele>
        <time>2022-05-27T14:11:13Z</time>
      </trkpt>
      <trkpt lat="48.04788" lon="6.92291">
        <ele>1046.7</ele>
        <time>2022-05-27T14:11:16Z</time>
      </trkpt>
      <trkpt lat="48.04789" lon="6.92307">
        <ele>1043.3</ele>
        <time>2022-05-27T14:11:19Z</time>
      </trkpt>
      <trkpt lat="48.0479" lon="6.92324">
        <ele>1042.3</ele>
        <time>2022-05-27T14:11:23Z</time>
      </trkpt>
      <trkpt lat="48.04795" lon="6.92339">
        <ele>1042.6</ele>
        <time>2022-05-27T14:11:26Z</time>
      </trkpt>
      <trkpt lat="48.04798" lon="6.92356">
        <ele>1041.5</ele>
        <time>2022-05-27T14:11:30Z</time>
      </trkpt>
      <trkpt lat="48.048" lon="6.9237">
        <ele>1037.1</ele>
        <time>2022-05-27T14:11:34Z</time>
      </trkpt>
      <trkpt lat="48.04803" lon="6.92384">
        <ele>1035.2</ele>
        <time>2022-05-27T14:11:37Z</time>
      </trkpt>
      <trkpt lat="48.04806" lon="6.92401">
        <ele>1032.6</ele>
        <time>2022-05-27T14:11:40Z</time>
      </trkpt>
      <trkpt lat="48.04806" lon="6.92415">
        <ele>1033.8</ele>
        <time>2022-05-27T14:11:43Z</time>
      </trkpt>
      <trkpt lat="48.04808" lon="6.9243">
        <ele>1031.9</ele>
        <time>2022-05-27T14:11:47Z</time>
      </trkpt>
      <trkpt lat="48.0481" lon="6.92444">
        <ele>1029.1</ele>
        <time>2022-05-27T14:11:51Z</time>
      </trkpt>
      <trkpt lat="48.04813" lon="6.92458">
        <ele>1025.7</ele>
        <time>2022-05-27T14:11:54Z</time>
      </trkpt>
      <trkpt lat="48.04815" lon="6.92472">
        <ele>1024</ele>
        <time>2022-05-27T14:11:57Z</time>
      </trkpt>
      <trkpt lat="48.04821" lon="6.92483">
        <ele>1024.8</ele>
        <time>2022-05-27T14:12:03Z</time>
      </trkpt>
      <trkpt lat="48.04827" lon="6.92494">
        <ele>1024.4</ele>
        <time>2022-05-27T14:12:07Z</time>
      </trkpt>
      <trkpt lat="48.04829" lon="6.92508">
        <ele>1020.4</ele>
        <time>2022-05-27T14:12:10Z</time>
      </trkpt>
      <trkpt lat="48.04825" lon="6.92528">
        <ele>1019.3</ele>
        <time>2022-05-27T14:12:13Z</time>
      </trkpt>
      <trkpt lat="48.04825" lon="6.92543">
        <ele>1020.2</ele>
        <time>2022-05-27T14:12:17Z</time>
      </trkpt>
      <trkpt lat="48.04823" lon="6.92556">
        <ele>1018.3</ele>
        <time>2022-05-27T14:12:21Z</time>
      </trkpt>
      <trkpt lat="48.04827" lon="6.92571">
        <ele>1016.6</ele>
        <time>2022-05-27T14:12:24Z</time>
      </trkpt>
      <trkpt lat="48.04832" lon="6.92586">
        <ele>1015.4</ele>
        <time>2022-05-27T14:12:27Z</time>
      </trkpt>
      <trkpt lat="48.04832" lon="6.92602">
        <ele>1013.4</ele>
        <time>2022-05-27T14:12:30Z</time>
      </trkpt>
      <trkpt lat="48.04833" lon="6.92619">
        <ele>1010.9</ele>
        <time>2022-05-27T14:12:34Z</time>
      </trkpt>
      <trkpt lat="48.04832" lon="6.92635">
        <ele>1006.7</ele>
        <time>2022-05-27T14:12:38Z</time>
      </trkpt>
      <trkpt lat="48.04838" lon="6.9265">
        <ele>1005.9</ele>
        <time>2022-05-27T14:12:41Z</time>
      </trkpt>
      <trkpt lat="48.04843" lon="6.92663">
        <ele>1008.6</ele>
        <time>2022-05-27T14:12:43Z</time>
      </trkpt>
      <trkpt lat="48.04847" lon="6.9268">
        <ele>1006.5</ele>
        <time>2022-05-27T14:12:46Z</time>
      </trkpt>
      <trkpt lat="48.04845" lon="6.92694">
        <ele>1005</ele>
        <time>2022-05-27T14:12:51Z</time>
      </trkpt>
      <trkpt lat="48.04837" lon="6.92687">
        <ele>1001.9</ele>
        <time>2022-05-27T14:12:56Z</time>
      </trkpt>
      <trkpt lat="48.04831" lon="6.92675">
        <ele>1001.1</ele>
        <time>2022-05-27T14:13:01Z</time>
      </trkpt>
      <trkpt lat="48.04822" lon="6.92669">
        <ele>999.6</ele>
        <time>2022-05-27T14:13:06Z</time>
      </trkpt>
      <trkpt lat="48.0482" lon="6.92682">
        <ele>998.6</ele>
        <time>2022-05-27T14:13:14Z</time>
      </trkpt>
      <trkpt lat="48.04824" lon="6.92696">
        <ele>997.5</ele>
        <time>2022-05-27T14:13:18Z</time>
      </trkpt>
      <trkpt lat="48.04827" lon="6.92709">
        <ele>997.2</ele>
        <time>2022-05-27T14:13:21Z</time>
      </trkpt>
      <trkpt lat="48.04835" lon="6.92721">
        <ele>995.5</ele>
        <time>2022-05-27T14:13:26Z</time>
      </trkpt>
      <trkpt lat="48.04838" lon="6.92724">
        <ele>994.7</ele>
        <time>2022-05-27T14:13:30Z</time>
      </trkpt>
      <trkpt lat="48.0484" lon="6.92728">
        <ele>994.1</ele>
        <time>2022-05-27T14:13:41Z</time>
      </trkpt>
      <trkpt lat="48.0484" lon="6.92729">
        <ele>993.5</ele>
        <time>2022-05-27T14:13:43Z</time>
      </trkpt>
      <trkpt lat="48.04839" lon="6.9273">
        <ele>993.2</ele>
        <time>2022-05-27T14:13:46Z</time>
      </trkpt>
      <trkpt lat="48.04836" lon="6.92731">
        <ele>992.5</ele>
        <time>2022-05-27T14:13:52Z</time>
      </trkpt>
      <trkpt lat="48.04836" lon="6.92731">
        <ele>992.3</ele>
        <time>2022-05-27T14:13:56Z</time>
      </trkpt>
      <trkpt lat="48.04827" lon="6.92737">
        <ele>988.6</ele>
        <time>2022-05-27T14:14:04Z</time>
      </trkpt>
      <trkpt lat="48.04818" lon="6.92743">
        <ele>986.2</ele>
        <time>2022-05-27T14:14:09Z</time>
      </trkpt>
      <trkpt lat="48.04809" lon="6.92739">
        <ele>984.8</ele>
        <time>2022-05-27T14:14:14Z</time>
      </trkpt>
      <trkpt lat="48.04798" lon="6.92745">
        <ele>983.3</ele>
        <time>2022-05-27T14:14:17Z</time>
      </trkpt>
      <trkpt lat="48.04802" lon="6.92752">
        <ele>982.5</ele>
        <time>2022-05-27T14:14:24Z</time>
      </trkpt>
      <trkpt lat="48.04803" lon="6.92752">
        <ele>983.2</ele>
        <time>2022-05-27T14:14:45Z</time>
      </trkpt>
      <trkpt lat="48.04803" lon="6.92752">
        <ele>983.4</ele>
        <time>2022-05-27T14:14:53Z</time>
      </trkpt>
      <trkpt lat="48.04805" lon="6.9275">
        <ele>983.2</ele>
        <time>2022-05-27T14:15:03Z</time>
      </trkpt>
      <trkpt lat="48.04806" lon="6.92749">
        <ele>983.7</ele>
        <time>2022-05-27T14:15:05Z</time>
      </trkpt>
      <trkpt lat="48.04806" lon="6.92749">
        <ele>983.4</ele>
        <time>2022-05-27T14:15:22Z</time>
      </trkpt>
      <trkpt lat="48.04806" lon="6.92746">
        <ele>983.3</ele>
        <time>2022-05-27T14:15:26Z</time>
      </trkpt>
      <trkpt lat="48.04806" lon="6.92747">
        <ele>983.9</ele>
        <time>2022-05-27T14:16:06Z</time>
      </trkpt>
      <trkpt lat="48.04806" lon="6.92747">
        <ele>984.1</ele>
        <time>2022-05-27T14:16:24Z</time>
      </trkpt>
      <trkpt lat="48.04807" lon="6.92747">
        <ele>984.1</ele>
        <time>2022-05-27T14:16:54Z</time>
      </trkpt>
      <trkpt lat="48.04807" lon="6.92746">
        <ele>984.5</ele>
        <time>2022-05-27T14:17:15Z</time>
      </trkpt>
      <trkpt lat="48.04806" lon="6.92745">
        <ele>984.4</ele>
        <time>2022-05-27T14:18:04Z</time>
      </trkpt>
      <trkpt lat="48.04802" lon="6.92731">
        <ele>984.9</ele>
        <time>2022-05-27T14:18:10Z</time>
      </trkpt>
      <trkpt lat="48.04798" lon="6.92717">
        <ele>984.9</ele>
        <time>2022-05-27T14:18:15Z</time>
      </trkpt>
      <trkpt lat="48.04793" lon="6.92705">
        <ele>985.5</ele>
        <time>2022-05-27T14:18:20Z</time>
      </trkpt>
      <trkpt lat="48.04788" lon="6.92693">
        <ele>986</ele>
        <time>2022-05-27T14:18:25Z</time>
      </trkpt>
      <trkpt lat="48.0478" lon="6.92679">
        <ele>986.6</ele>
        <time>2022-05-27T14:18:29Z</time>
      </trkpt>
      <trkpt lat="48.04775" lon="6.92665">
        <ele>986.1</ele>
        <time>2022-05-27T14:18:32Z</time>
      </trkpt>
      <trkpt lat="48.04771" lon="6.92651">
        <ele>986.3</ele>
        <time>2022-05-27T14:18:35Z</time>
      </trkpt>
      <trkpt lat="48.04768" lon="6.92635">
        <ele>986</ele>
        <time>2022-05-27T14:18:38Z</time>
      </trkpt>
      <trkpt lat="48.04763" lon="6.92618">
        <ele>985.4</ele>
        <time>2022-05-27T14:18:41Z</time>
      </trkpt>
      <trkpt lat="48.04757" lon="6.92602">
        <ele>985.4</ele>
        <time>2022-05-27T14:18:44Z</time>
      </trkpt>
      <trkpt lat="48.04751" lon="6.92586">
        <ele>986.6</ele>
        <time>2022-05-27T14:18:47Z</time>
      </trkpt>
      <trkpt lat="48.04747" lon="6.92573">
        <ele>986.1</ele>
        <time>2022-05-27T14:18:50Z</time>
      </trkpt>
      <trkpt lat="48.04742" lon="6.92557">
        <ele>986.3</ele>
        <time>2022-05-27T14:18:53Z</time>
      </trkpt>
      <trkpt lat="48.04738" lon="6.92545">
        <ele>986.3</ele>
        <time>2022-05-27T14:18:55Z</time>
      </trkpt>
      <trkpt lat="48.04732" lon="6.92534">
        <ele>985.2</ele>
        <time>2022-05-27T14:18:57Z</time>
      </trkpt>
      <trkpt lat="48.04725" lon="6.92524">
        <ele>986.3</ele>
        <time>2022-05-27T14:18:59Z</time>
      </trkpt>
      <trkpt lat="48.04714" lon="6.92516">
        <ele>985.3</ele>
        <time>2022-05-27T14:19:01Z</time>
      </trkpt>
      <trkpt lat="48.04705" lon="6.92506">
        <ele>981.4</ele>
        <time>2022-05-27T14:19:03Z</time>
      </trkpt>
      <trkpt lat="48.04694" lon="6.92494">
        <ele>982</ele>
        <time>2022-05-27T14:19:05Z</time>
      </trkpt>
      <trkpt lat="48.04683" lon="6.9248">
        <ele>982.7</ele>
        <time>2022-05-27T14:19:07Z</time>
      </trkpt>
      <trkpt lat="48.04671" lon="6.92464">
        <ele>980.7</ele>
        <time>2022-05-27T14:19:09Z</time>
      </trkpt>
      <trkpt lat="48.04658" lon="6.92446">
        <ele>977.5</ele>
        <time>2022-05-27T14:19:11Z</time>
      </trkpt>
      <trkpt lat="48.04646" lon="6.92431">
        <ele>979.7</ele>
        <time>2022-05-27T14:19:13Z</time>
      </trkpt>
      <trkpt lat="48.04637" lon="6.92417">
        <ele>978.1</ele>
        <time>2022-05-27T14:19:15Z</time>
      </trkpt>
      <trkpt lat="48.04625" lon="6.92407">
        <ele>977.1</ele>
        <time>2022-05-27T14:19:17Z</time>
      </trkpt>
      <trkpt lat="48.04613" lon="6.92406">
        <ele>978.3</ele>
        <time>2022-05-27T14:19:19Z</time>
      </trkpt>
      <trkpt lat="48.04603" lon="6.92409">
        <ele>981.2</ele>
        <time>2022-05-27T14:19:21Z</time>
      </trkpt>
      <trkpt lat="48.04591" lon="6.92415">
        <ele>979.6</ele>
        <time>2022-05-27T14:19:24Z</time>
      </trkpt>
      <trkpt lat="48.04581" lon="6.9242">
        <ele>981.3</ele>
        <time>2022-05-27T14:19:27Z</time>
      </trkpt>
      <trkpt lat="48.04569" lon="6.92428">
        <ele>980.7</ele>
        <time>2022-05-27T14:19:30Z</time>
      </trkpt>
      <trkpt lat="48.04556" lon="6.92438">
        <ele>981.6</ele>
        <time>2022-05-27T14:19:33Z</time>
      </trkpt>
      <trkpt lat="48.04549" lon="6.92445">
        <ele>979.9</ele>
        <time>2022-05-27T14:19:35Z</time>
      </trkpt>
      <trkpt lat="48.0454" lon="6.92452">
        <ele>981.3</ele>
        <time>2022-05-27T14:19:37Z</time>
      </trkpt>
      <trkpt lat="48.04529" lon="6.92459">
        <ele>981.7</ele>
        <time>2022-05-27T14:19:40Z</time>
      </trkpt>
      <trkpt lat="48.0452" lon="6.92468">
        <ele>984.1</ele>
        <time>2022-05-27T14:19:43Z</time>
      </trkpt>
      <trkpt lat="48.04512" lon="6.92476">
        <ele>984.8</ele>
        <time>2022-05-27T14:19:46Z</time>
      </trkpt>
      <trkpt lat="48.04504" lon="6.92482">
        <ele>987</ele>
        <time>2022-05-27T14:19:49Z</time>
      </trkpt>
      <trkpt lat="48.04495" lon="6.92491">
        <ele>986.3</ele>
        <time>2022-05-27T14:19:53Z</time>
      </trkpt>
      <trkpt lat="48.04486" lon="6.925">
        <ele>989</ele>
        <time>2022-05-27T14:19:57Z</time>
      </trkpt>
      <trkpt lat="48.04476" lon="6.92507">
        <ele>989.3</ele>
        <time>2022-05-27T14:20:01Z</time>
      </trkpt>
      <trkpt lat="48.04466" lon="6.92513">
        <ele>990.2</ele>
        <time>2022-05-27T14:20:05Z</time>
      </trkpt>
      <trkpt lat="48.04457" lon="6.92525">
        <ele>990.2</ele>
        <time>2022-05-27T14:20:09Z</time>
      </trkpt>
      <trkpt lat="48.04451" lon="6.92538">
        <ele>992.3</ele>
        <time>2022-05-27T14:20:12Z</time>
      </trkpt>
      <trkpt lat="48.04445" lon="6.9255">
        <ele>992.2</ele>
        <time>2022-05-27T14:20:14Z</time>
      </trkpt>
      <trkpt lat="48.04439" lon="6.92565">
        <ele>989.9</ele>
        <time>2022-05-27T14:20:16Z</time>
      </trkpt>
      <trkpt lat="48.04431" lon="6.92585">
        <ele>986.5</ele>
        <time>2022-05-27T14:20:18Z</time>
      </trkpt>
      <trkpt lat="48.0442" lon="6.92605">
        <ele>982.3</ele>
        <time>2022-05-27T14:20:20Z</time>
      </trkpt>
      <trkpt lat="48.04407" lon="6.9262">
        <ele>978.3</ele>
        <time>2022-05-27T14:20:22Z</time>
      </trkpt>
      <trkpt lat="48.04393" lon="6.92631">
        <ele>976.3</ele>
        <time>2022-05-27T14:20:24Z</time>
      </trkpt>
      <trkpt lat="48.04378" lon="6.92643">
        <ele>972.9</ele>
        <time>2022-05-27T14:20:26Z</time>
      </trkpt>
      <trkpt lat="48.04369" lon="6.92647">
        <ele>972.5</ele>
        <time>2022-05-27T14:20:27Z</time>
      </trkpt>
      <trkpt lat="48.0436" lon="6.9265">
        <ele>972.7</ele>
        <time>2022-05-27T14:20:28Z</time>
      </trkpt>
      <trkpt lat="48.0435" lon="6.9265">
        <ele>974.3</ele>
        <time>2022-05-27T14:20:29Z</time>
      </trkpt>
      <trkpt lat="48.04341" lon="6.9265">
        <ele>974.8</ele>
        <time>2022-05-27T14:20:30Z</time>
      </trkpt>
      <trkpt lat="48.04324" lon="6.92647">
        <ele>973.2</ele>
        <time>2022-05-27T14:20:32Z</time>
      </trkpt>
      <trkpt lat="48.04309" lon="6.92649">
        <ele>973.9</ele>
        <time>2022-05-27T14:20:34Z</time>
      </trkpt>
      <trkpt lat="48.04296" lon="6.92648">
        <ele>972.2</ele>
        <time>2022-05-27T14:20:36Z</time>
      </trkpt>
      <trkpt lat="48.04283" lon="6.92646">
        <ele>973.4</ele>
        <time>2022-05-27T14:20:38Z</time>
      </trkpt>
      <trkpt lat="48.04271" lon="6.92648">
        <ele>975.1</ele>
        <time>2022-05-27T14:20:40Z</time>
      </trkpt>
      <trkpt lat="48.0426" lon="6.92648">
        <ele>975.5</ele>
        <time>2022-05-27T14:20:42Z</time>
      </trkpt>
      <trkpt lat="48.04251" lon="6.92646">
        <ele>975.9</ele>
        <time>2022-05-27T14:20:44Z</time>
      </trkpt>
      <trkpt lat="48.04238" lon="6.92644">
        <ele>977.3</ele>
        <time>2022-05-27T14:20:47Z</time>
      </trkpt>
      <trkpt lat="48.04227" lon="6.92638">
        <ele>975.8</ele>
        <time>2022-05-27T14:20:50Z</time>
      </trkpt>
      <trkpt lat="48.04214" lon="6.9263">
        <ele>977.9</ele>
        <time>2022-05-27T14:20:53Z</time>
      </trkpt>
      <trkpt lat="48.04205" lon="6.92625">
        <ele>978.1</ele>
        <time>2022-05-27T14:20:55Z</time>
      </trkpt>
      <trkpt lat="48.04192" lon="6.92619">
        <ele>979</ele>
        <time>2022-05-27T14:20:58Z</time>
      </trkpt>
      <trkpt lat="48.04181" lon="6.92613">
        <ele>979.3</ele>
        <time>2022-05-27T14:21:00Z</time>
      </trkpt>
      <trkpt lat="48.04172" lon="6.92609">
        <ele>979.6</ele>
        <time>2022-05-27T14:21:02Z</time>
      </trkpt>
      <trkpt lat="48.04162" lon="6.92605">
        <ele>979.5</ele>
        <time>2022-05-27T14:21:04Z</time>
      </trkpt>
      <trkpt lat="48.04152" lon="6.92602">
        <ele>978.1</ele>
        <time>2022-05-27T14:21:06Z</time>
      </trkpt>
      <trkpt lat="48.04143" lon="6.92596">
        <ele>978.7</ele>
        <time>2022-05-27T14:21:08Z</time>
      </trkpt>
      <trkpt lat="48.04134" lon="6.9259">
        <ele>979.6</ele>
        <time>2022-05-27T14:21:10Z</time>
      </trkpt>
      <trkpt lat="48.04124" lon="6.9258">
        <ele>978.8</ele>
        <time>2022-05-27T14:21:13Z</time>
      </trkpt>
      <trkpt lat="48.04115" lon="6.92573">
        <ele>979.7</ele>
        <time>2022-05-27T14:21:16Z</time>
      </trkpt>
      <trkpt lat="48.04106" lon="6.92568">
        <ele>980</ele>
        <time>2022-05-27T14:21:20Z</time>
      </trkpt>
      <trkpt lat="48.04097" lon="6.92562">
        <ele>978.9</ele>
        <time>2022-05-27T14:21:23Z</time>
      </trkpt>
      <trkpt lat="48.04086" lon="6.92556">
        <ele>978.2</ele>
        <time>2022-05-27T14:21:26Z</time>
      </trkpt>
      <trkpt lat="48.04077" lon="6.92549">
        <ele>976.8</ele>
        <time>2022-05-27T14:21:29Z</time>
      </trkpt>
      <trkpt lat="48.04067" lon="6.92544">
        <ele>976</ele>
        <time>2022-05-27T14:21:32Z</time>
      </trkpt>
      <trkpt lat="48.04058" lon="6.92537">
        <ele>975.5</ele>
        <time>2022-05-27T14:21:34Z</time>
      </trkpt>
      <trkpt lat="48.04047" lon="6.92529">
        <ele>975.4</ele>
        <time>2022-05-27T14:21:36Z</time>
      </trkpt>
      <trkpt lat="48.04036" lon="6.92522">
        <ele>974.4</ele>
        <time>2022-05-27T14:21:38Z</time>
      </trkpt>
      <trkpt lat="48.04024" lon="6.92518">
        <ele>972.7</ele>
        <time>2022-05-27T14:21:40Z</time>
      </trkpt>
      <trkpt lat="48.04013" lon="6.92514">
        <ele>972.2</ele>
        <time>2022-05-27T14:21:42Z</time>
      </trkpt>
      <trkpt lat="48.04002" lon="6.9251">
        <ele>967.5</ele>
        <time>2022-05-27T14:21:44Z</time>
      </trkpt>
      <trkpt lat="48.0399" lon="6.92505">
        <ele>965.5</ele>
        <time>2022-05-27T14:21:46Z</time>
      </trkpt>
      <trkpt lat="48.03979" lon="6.92499">
        <ele>964.2</ele>
        <time>2022-05-27T14:21:48Z</time>
      </trkpt>
      <trkpt lat="48.03968" lon="6.92492">
        <ele>964.9</ele>
        <time>2022-05-27T14:21:50Z</time>
      </trkpt>
      <trkpt lat="48.03958" lon="6.92479">
        <ele>961.9</ele>
        <time>2022-05-27T14:21:53Z</time>
      </trkpt>
      <trkpt lat="48.03953" lon="6.92465">
        <ele>960</ele>
        <time>2022-05-27T14:21:55Z</time>
      </trkpt>
      <trkpt lat="48.03947" lon="6.92451">
        <ele>960.3</ele>
        <time>2022-05-27T14:21:57Z</time>
      </trkpt>
      <trkpt lat="48.03939" lon="6.92438">
        <ele>959.9</ele>
        <time>2022-05-27T14:21:59Z</time>
      </trkpt>
      <trkpt lat="48.03933" lon="6.92424">
        <ele>961.4</ele>
        <time>2022-05-27T14:22:01Z</time>
      </trkpt>
      <trkpt lat="48.03927" lon="6.9241">
        <ele>960.1</ele>
        <time>2022-05-27T14:22:04Z</time>
      </trkpt>
      <trkpt lat="48.03926" lon="6.92406">
        <ele>961.5</ele>
        <time>2022-05-27T14:22:08Z</time>
      </trkpt>
      <trkpt lat="48.03925" lon="6.92406">
        <ele>961.6</ele>
        <time>2022-05-27T14:22:14Z</time>
      </trkpt>
      <trkpt lat="48.03925" lon="6.92406">
        <ele>961.5</ele>
        <time>2022-05-27T14:22:25Z</time>
      </trkpt>
      <trkpt lat="48.0392" lon="6.92391">
        <ele>960.7</ele>
        <time>2022-05-27T14:22:31Z</time>
      </trkpt>
      <trkpt lat="48.03916" lon="6.92377">
        <ele>959.4</ele>
        <time>2022-05-27T14:22:34Z</time>
      </trkpt>
      <trkpt lat="48.03914" lon="6.92359">
        <ele>961</ele>
        <time>2022-05-27T14:22:37Z</time>
      </trkpt>
      <trkpt lat="48.03915" lon="6.9234">
        <ele>960</ele>
        <time>2022-05-27T14:22:40Z</time>
      </trkpt>
      <trkpt lat="48.03918" lon="6.92321">
        <ele>963</ele>
        <time>2022-05-27T14:22:43Z</time>
      </trkpt>
      <trkpt lat="48.03923" lon="6.92303">
        <ele>962.2</ele>
        <time>2022-05-27T14:22:46Z</time>
      </trkpt>
      <trkpt lat="48.03921" lon="6.92285">
        <ele>959.9</ele>
        <time>2022-05-27T14:22:49Z</time>
      </trkpt>
      <trkpt lat="48.03914" lon="6.92277">
        <ele>958.5</ele>
        <time>2022-05-27T14:22:51Z</time>
      </trkpt>
      <trkpt lat="48.03904" lon="6.92268">
        <ele>956.8</ele>
        <time>2022-05-27T14:22:53Z</time>
      </trkpt>
      <trkpt lat="48.03892" lon="6.92257">
        <ele>956.9</ele>
        <time>2022-05-27T14:22:55Z</time>
      </trkpt>
      <trkpt lat="48.03882" lon="6.92245">
        <ele>957.7</ele>
        <time>2022-05-27T14:22:57Z</time>
      </trkpt>
      <trkpt lat="48.03874" lon="6.92235">
        <ele>957.5</ele>
        <time>2022-05-27T14:22:59Z</time>
      </trkpt>
      <trkpt lat="48.03865" lon="6.92227">
        <ele>958.1</ele>
        <time>2022-05-27T14:23:01Z</time>
      </trkpt>
      <trkpt lat="48.03857" lon="6.92217">
        <ele>957.1</ele>
        <time>2022-05-27T14:23:03Z</time>
      </trkpt>
      <trkpt lat="48.03847" lon="6.92207">
        <ele>958.1</ele>
        <time>2022-05-27T14:23:05Z</time>
      </trkpt>
      <trkpt lat="48.03835" lon="6.92197">
        <ele>957.4</ele>
        <time>2022-05-27T14:23:07Z</time>
      </trkpt>
      <trkpt lat="48.03826" lon="6.92187">
        <ele>956.6</ele>
        <time>2022-05-27T14:23:09Z</time>
      </trkpt>
      <trkpt lat="48.03817" lon="6.92176">
        <ele>956</ele>
        <time>2022-05-27T14:23:11Z</time>
      </trkpt>
      <trkpt lat="48.03807" lon="6.92164">
        <ele>955</ele>
        <time>2022-05-27T14:23:13Z</time>
      </trkpt>
      <trkpt lat="48.03797" lon="6.92151">
        <ele>955.2</ele>
        <time>2022-05-27T14:23:15Z</time>
      </trkpt>
      <trkpt lat="48.03786" lon="6.92139">
        <ele>955.8</ele>
        <time>2022-05-27T14:23:17Z</time>
      </trkpt>
      <trkpt lat="48.03772" lon="6.92128">
        <ele>953.7</ele>
        <time>2022-05-27T14:23:19Z</time>
      </trkpt>
      <trkpt lat="48.03758" lon="6.92117">
        <ele>951.7</ele>
        <time>2022-05-27T14:23:21Z</time>
      </trkpt>
      <trkpt lat="48.03747" lon="6.92104">
        <ele>950.8</ele>
        <time>2022-05-27T14:23:23Z</time>
      </trkpt>
      <trkpt lat="48.03739" lon="6.92086">
        <ele>949.9</ele>
        <time>2022-05-27T14:23:25Z</time>
      </trkpt>
      <trkpt lat="48.03731" lon="6.92071">
        <ele>953.6</ele>
        <time>2022-05-27T14:23:27Z</time>
      </trkpt>
      <trkpt lat="48.03723" lon="6.92065">
        <ele>952.6</ele>
        <time>2022-05-27T14:23:30Z</time>
      </trkpt>
      <trkpt lat="48.03721" lon="6.92065">
        <ele>953.6</ele>
        <time>2022-05-27T14:23:33Z</time>
      </trkpt>
      <trkpt lat="48.03721" lon="6.92065">
        <ele>953.8</ele>
        <time>2022-05-27T14:24:08Z</time>
      </trkpt>
      <trkpt lat="48.03722" lon="6.92081">
        <ele>952.7</ele>
        <time>2022-05-27T14:24:22Z</time>
      </trkpt>
      <trkpt lat="48.03729" lon="6.92097">
        <ele>953.5</ele>
        <time>2022-05-27T14:24:25Z</time>
      </trkpt>
      <trkpt lat="48.03737" lon="6.92109">
        <ele>947.8</ele>
        <time>2022-05-27T14:24:27Z</time>
      </trkpt>
      <trkpt lat="48.03745" lon="6.92123">
        <ele>947.7</ele>
        <time>2022-05-27T14:24:29Z</time>
      </trkpt>
      <trkpt lat="48.03755" lon="6.92136">
        <ele>948.3</ele>
        <time>2022-05-27T14:24:31Z</time>
      </trkpt>
      <trkpt lat="48.03764" lon="6.92148">
        <ele>948.1</ele>
        <time>2022-05-27T14:24:33Z</time>
      </trkpt>
      <trkpt lat="48.03772" lon="6.92162">
        <ele>946.7</ele>
        <time>2022-05-27T14:24:35Z</time>
      </trkpt>
      <trkpt lat="48.03778" lon="6.92178">
        <ele>946.3</ele>
        <time>2022-05-27T14:24:37Z</time>
      </trkpt>
      <trkpt lat="48.03783" lon="6.92195">
        <ele>945.2</ele>
        <time>2022-05-27T14:24:39Z</time>
      </trkpt>
      <trkpt lat="48.03788" lon="6.92214">
        <ele>943.1</ele>
        <time>2022-05-27T14:24:41Z</time>
      </trkpt>
      <trkpt lat="48.03792" lon="6.92233">
        <ele>943.3</ele>
        <time>2022-05-27T14:24:43Z</time>
      </trkpt>
      <trkpt lat="48.03794" lon="6.92254">
        <ele>939.5</ele>
        <time>2022-05-27T14:24:45Z</time>
      </trkpt>
      <trkpt lat="48.03798" lon="6.92275">
        <ele>937.4</ele>
        <time>2022-05-27T14:24:47Z</time>
      </trkpt>
      <trkpt lat="48.03804" lon="6.92292">
        <ele>935.1</ele>
        <time>2022-05-27T14:24:49Z</time>
      </trkpt>
      <trkpt lat="48.03811" lon="6.92305">
        <ele>934.4</ele>
        <time>2022-05-27T14:24:51Z</time>
      </trkpt>
      <trkpt lat="48.03821" lon="6.92312">
        <ele>934.7</ele>
        <time>2022-05-27T14:24:53Z</time>
      </trkpt>
      <trkpt lat="48.03832" lon="6.92321">
        <ele>935</ele>
        <time>2022-05-27T14:24:55Z</time>
      </trkpt>
      <trkpt lat="48.03839" lon="6.92334">
        <ele>934.1</ele>
        <time>2022-05-27T14:24:57Z</time>
      </trkpt>
      <trkpt lat="48.03841" lon="6.92347">
        <ele>934.7</ele>
        <time>2022-05-27T14:24:59Z</time>
      </trkpt>
      <trkpt lat="48.03834" lon="6.92363">
        <ele>933.4</ele>
        <time>2022-05-27T14:25:02Z</time>
      </trkpt>
      <trkpt lat="48.03828" lon="6.92377">
        <ele>931.5</ele>
        <time>2022-05-27T14:25:05Z</time>
      </trkpt>
      <trkpt lat="48.03822" lon="6.92391">
        <ele>928.9</ele>
        <time>2022-05-27T14:25:07Z</time>
      </trkpt>
      <trkpt lat="48.03818" lon="6.92405">
        <ele>927.4</ele>
        <time>2022-05-27T14:25:09Z</time>
      </trkpt>
      <trkpt lat="48.03813" lon="6.92421">
        <ele>925.1</ele>
        <time>2022-05-27T14:25:11Z</time>
      </trkpt>
      <trkpt lat="48.03806" lon="6.92435">
        <ele>925.5</ele>
        <time>2022-05-27T14:25:13Z</time>
      </trkpt>
      <trkpt lat="48.038" lon="6.92447">
        <ele>927.3</ele>
        <time>2022-05-27T14:25:16Z</time>
      </trkpt>
      <trkpt lat="48.03799" lon="6.92456">
        <ele>925.1</ele>
        <time>2022-05-27T14:25:23Z</time>
      </trkpt>
      <trkpt lat="48.038" lon="6.92456">
        <ele>925.1</ele>
        <time>2022-05-27T14:25:25Z</time>
      </trkpt>
      <trkpt lat="48.038" lon="6.92457">
        <ele>925</ele>
        <time>2022-05-27T14:25:29Z</time>
      </trkpt>
      <trkpt lat="48.03801" lon="6.9247">
        <ele>924.1</ele>
        <time>2022-05-27T14:25:35Z</time>
      </trkpt>
      <trkpt lat="48.03798" lon="6.92487">
        <ele>922.2</ele>
        <time>2022-05-27T14:25:42Z</time>
      </trkpt>
      <trkpt lat="48.03794" lon="6.92499">
        <ele>921.3</ele>
        <time>2022-05-27T14:25:46Z</time>
      </trkpt>
      <trkpt lat="48.0379" lon="6.92513">
        <ele>920.6</ele>
        <time>2022-05-27T14:25:54Z</time>
      </trkpt>
      <trkpt lat="48.0379" lon="6.92512">
        <ele>920.7</ele>
        <time>2022-05-27T14:25:56Z</time>
      </trkpt>
      <trkpt lat="48.0379" lon="6.9251">
        <ele>920.4</ele>
        <time>2022-05-27T14:26:00Z</time>
      </trkpt>
      <trkpt lat="48.03789" lon="6.92511">
        <ele>920.5</ele>
        <time>2022-05-27T14:26:30Z</time>
      </trkpt>
      <trkpt lat="48.03788" lon="6.92512">
        <ele>920.4</ele>
        <time>2022-05-27T14:26:33Z</time>
      </trkpt>
      <trkpt lat="48.03788" lon="6.92512">
        <ele>920.8</ele>
        <time>2022-05-27T14:26:59Z</time>
      </trkpt>
      <trkpt lat="48.03789" lon="6.92513">
        <ele>921.5</ele>
        <time>2022-05-27T14:27:28Z</time>
      </trkpt>
      <trkpt lat="48.03789" lon="6.92514">
        <ele>921.4</ele>
        <time>2022-05-27T14:27:30Z</time>
      </trkpt>
      <trkpt lat="48.03796" lon="6.92523">
        <ele>920.2</ele>
        <time>2022-05-27T14:27:46Z</time>
      </trkpt>
      <trkpt lat="48.03803" lon="6.92533">
        <ele>916.4</ele>
        <time>2022-05-27T14:27:49Z</time>
      </trkpt>
      <trkpt lat="48.03815" lon="6.92545">
        <ele>916.4</ele>
        <time>2022-05-27T14:27:52Z</time>
      </trkpt>
      <trkpt lat="48.03823" lon="6.92553">
        <ele>915.9</ele>
        <time>2022-05-27T14:27:54Z</time>
      </trkpt>
      <trkpt lat="48.03832" lon="6.92566">
        <ele>913.8</ele>
        <time>2022-05-27T14:27:57Z</time>
      </trkpt>
      <trkpt lat="48.03839" lon="6.92582">
        <ele>913.9</ele>
        <time>2022-05-27T14:28:00Z</time>
      </trkpt>
      <trkpt lat="48.03841" lon="6.926">
        <ele>911.7</ele>
        <time>2022-05-27T14:28:03Z</time>
      </trkpt>
      <trkpt lat="48.03843" lon="6.92617">
        <ele>910</ele>
        <time>2022-05-27T14:28:05Z</time>
      </trkpt>
      <trkpt lat="48.03849" lon="6.92633">
        <ele>906.2</ele>
        <time>2022-05-27T14:28:07Z</time>
      </trkpt>
      <trkpt lat="48.03855" lon="6.92651">
        <ele>904</ele>
        <time>2022-05-27T14:28:09Z</time>
      </trkpt>
      <trkpt lat="48.03857" lon="6.92673">
        <ele>905</ele>
        <time>2022-05-27T14:28:11Z</time>
      </trkpt>
      <trkpt lat="48.0386" lon="6.92689">
        <ele>905.8</ele>
        <time>2022-05-27T14:28:13Z</time>
      </trkpt>
      <trkpt lat="48.03868" lon="6.92702">
        <ele>901.7</ele>
        <time>2022-05-27T14:28:15Z</time>
      </trkpt>
      <trkpt lat="48.03878" lon="6.92713">
        <ele>899.9</ele>
        <time>2022-05-27T14:28:17Z</time>
      </trkpt>
      <trkpt lat="48.03889" lon="6.92727">
        <ele>896.5</ele>
        <time>2022-05-27T14:28:19Z</time>
      </trkpt>
      <trkpt lat="48.03897" lon="6.92741">
        <ele>901.6</ele>
        <time>2022-05-27T14:28:21Z</time>
      </trkpt>
      <trkpt lat="48.03907" lon="6.92754">
        <ele>898.3</ele>
        <time>2022-05-27T14:28:23Z</time>
      </trkpt>
      <trkpt lat="48.03918" lon="6.9277">
        <ele>893.7</ele>
        <time>2022-05-27T14:28:25Z</time>
      </trkpt>
      <trkpt lat="48.0393" lon="6.92788">
        <ele>893.3</ele>
        <time>2022-05-27T14:28:27Z</time>
      </trkpt>
      <trkpt lat="48.03941" lon="6.92805">
        <ele>891.4</ele>
        <time>2022-05-27T14:28:29Z</time>
      </trkpt>
      <trkpt lat="48.03951" lon="6.92822">
        <ele>887.7</ele>
        <time>2022-05-27T14:28:31Z</time>
      </trkpt>
      <trkpt lat="48.0396" lon="6.92845">
        <ele>884.5</ele>
        <time>2022-05-27T14:28:33Z</time>
      </trkpt>
      <trkpt lat="48.03964" lon="6.92869">
        <ele>883.3</ele>
        <time>2022-05-27T14:28:35Z</time>
      </trkpt>
      <trkpt lat="48.03967" lon="6.92887">
        <ele>884</ele>
        <time>2022-05-27T14:28:37Z</time>
      </trkpt>
      <trkpt lat="48.03961" lon="6.929">
        <ele>884.4</ele>
        <time>2022-05-27T14:28:40Z</time>
      </trkpt>
      <trkpt lat="48.03953" lon="6.92891">
        <ele>883.2</ele>
        <time>2022-05-27T14:28:44Z</time>
      </trkpt>
      <trkpt lat="48.03947" lon="6.92876">
        <ele>882.1</ele>
        <time>2022-05-27T14:28:49Z</time>
      </trkpt>
      <trkpt lat="48.03943" lon="6.92864">
        <ele>882.9</ele>
        <time>2022-05-27T14:28:55Z</time>
      </trkpt>
      <trkpt lat="48.03936" lon="6.92854">
        <ele>881.4</ele>
        <time>2022-05-27T14:29:00Z</time>
      </trkpt>
      <trkpt lat="48.03928" lon="6.92846">
        <ele>878.2</ele>
        <time>2022-05-27T14:29:03Z</time>
      </trkpt>
      <trkpt lat="48.03918" lon="6.9284">
        <ele>878.8</ele>
        <time>2022-05-27T14:29:05Z</time>
      </trkpt>
      <trkpt lat="48.03908" lon="6.92833">
        <ele>877.3</ele>
        <time>2022-05-27T14:29:07Z</time>
      </trkpt>
      <trkpt lat="48.03897" lon="6.92826">
        <ele>877.6</ele>
        <time>2022-05-27T14:29:09Z</time>
      </trkpt>
      <trkpt lat="48.03883" lon="6.9282">
        <ele>877.7</ele>
        <time>2022-05-27T14:29:11Z</time>
      </trkpt>
      <trkpt lat="48.03869" lon="6.92811">
        <ele>875.3</ele>
        <time>2022-05-27T14:29:13Z</time>
      </trkpt>
      <trkpt lat="48.03854" lon="6.92801">
        <ele>873.4</ele>
        <time>2022-05-27T14:29:15Z</time>
      </trkpt>
      <trkpt lat="48.03844" lon="6.92797">
        <ele>871.3</ele>
        <time>2022-05-27T14:29:16Z</time>
      </trkpt>
      <trkpt lat="48.03829" lon="6.92786">
        <ele>872.6</ele>
        <time>2022-05-27T14:29:18Z</time>
      </trkpt>
      <trkpt lat="48.03815" lon="6.9277">
        <ele>872.8</ele>
        <time>2022-05-27T14:29:20Z</time>
      </trkpt>
      <trkpt lat="48.03803" lon="6.92753">
        <ele>871.6</ele>
        <time>2022-05-27T14:29:22Z</time>
      </trkpt>
      <trkpt lat="48.0379" lon="6.92736">
        <ele>870</ele>
        <time>2022-05-27T14:29:24Z</time>
      </trkpt>
      <trkpt lat="48.03777" lon="6.9272">
        <ele>870.6</ele>
        <time>2022-05-27T14:29:26Z</time>
      </trkpt>
      <trkpt lat="48.03765" lon="6.92705">
        <ele>870.1</ele>
        <time>2022-05-27T14:29:28Z</time>
      </trkpt>
      <trkpt lat="48.03751" lon="6.92689">
        <ele>867</ele>
        <time>2022-05-27T14:29:30Z</time>
      </trkpt>
      <trkpt lat="48.03738" lon="6.92674">
        <ele>866.1</ele>
        <time>2022-05-27T14:29:32Z</time>
      </trkpt>
      <trkpt lat="48.03722" lon="6.92665">
        <ele>865.3</ele>
        <time>2022-05-27T14:29:34Z</time>
      </trkpt>
      <trkpt lat="48.03713" lon="6.92662">
        <ele>865.5</ele>
        <time>2022-05-27T14:29:35Z</time>
      </trkpt>
      <trkpt lat="48.03697" lon="6.92662">
        <ele>865.3</ele>
        <time>2022-05-27T14:29:37Z</time>
      </trkpt>
      <trkpt lat="48.03682" lon="6.92663">
        <ele>863.9</ele>
        <time>2022-05-27T14:29:39Z</time>
      </trkpt>
      <trkpt lat="48.03669" lon="6.9266">
        <ele>865.5</ele>
        <time>2022-05-27T14:29:41Z</time>
      </trkpt>
      <trkpt lat="48.03659" lon="6.92648">
        <ele>863.6</ele>
        <time>2022-05-27T14:29:43Z</time>
      </trkpt>
      <trkpt lat="48.03652" lon="6.92631">
        <ele>861.4</ele>
        <time>2022-05-27T14:29:45Z</time>
      </trkpt>
      <trkpt lat="48.03647" lon="6.92608">
        <ele>860</ele>
        <time>2022-05-27T14:29:47Z</time>
      </trkpt>
      <trkpt lat="48.03645" lon="6.92584">
        <ele>860.3</ele>
        <time>2022-05-27T14:29:49Z</time>
      </trkpt>
      <trkpt lat="48.03639" lon="6.92563">
        <ele>861.2</ele>
        <time>2022-05-27T14:29:51Z</time>
      </trkpt>
      <trkpt lat="48.0363" lon="6.92546">
        <ele>859.8</ele>
        <time>2022-05-27T14:29:53Z</time>
      </trkpt>
      <trkpt lat="48.03619" lon="6.92531">
        <ele>859.4</ele>
        <time>2022-05-27T14:29:55Z</time>
      </trkpt>
      <trkpt lat="48.0361" lon="6.92518">
        <ele>860.5</ele>
        <time>2022-05-27T14:29:57Z</time>
      </trkpt>
      <trkpt lat="48.03603" lon="6.92506">
        <ele>861.5</ele>
        <time>2022-05-27T14:29:59Z</time>
      </trkpt>
      <trkpt lat="48.03604" lon="6.92489">
        <ele>863.8</ele>
        <time>2022-05-27T14:30:02Z</time>
      </trkpt>
      <trkpt lat="48.03608" lon="6.92476">
        <ele>865.3</ele>
        <time>2022-05-27T14:30:05Z</time>
      </trkpt>
      <trkpt lat="48.0361" lon="6.92461">
        <ele>866.6</ele>
        <time>2022-05-27T14:30:10Z</time>
      </trkpt>
      <trkpt lat="48.03609" lon="6.92459">
        <ele>866.8</ele>
        <time>2022-05-27T14:30:29Z</time>
      </trkpt>
      <trkpt lat="48.03609" lon="6.92459">
        <ele>867.5</ele>
        <time>2022-05-27T14:30:57Z</time>
      </trkpt>
      <trkpt lat="48.03608" lon="6.92459">
        <ele>867.1</ele>
        <time>2022-05-27T14:31:03Z</time>
      </trkpt>
      <trkpt lat="48.03608" lon="6.92459">
        <ele>867.3</ele>
        <time>2022-05-27T14:31:10Z</time>
      </trkpt>
    </trkseg>
  </trk>
</gpx>